<?xml version="1.0" encoding="UTF-8" standalone="no" ?>
<gpx xmlns="http://www.topografix.com/GPX/1/1" xmlns:xsi="http://www.w3.org/2001/XMLSchema-instance" xsi:schemaLocation="http://www.topografix.com/GPX/1/1 http://www.topografix.com/GPX/1/1/gpx.xsd" version="1.1" creator="VisuGPX - https://www.visugpx.com">
  <metadata>
    <name>Pechabou 2 - la meilleure trace du coteau 15 08 2022</name>
  </metadata>
  <trk>
    <name><![CDATA[Pour moi la meilleure trace du coteaux 15 08 2022]]></name>
    <extensions>
      <line xmlns="http://www.topografix.com/GPX/gpx_style/0/2">
        <color>0000FF</color>
        <width>4</width>
          <extensions>
            <sens>1</sens>
          </extensions>
      </line>
    </extensions>
    <trkseg>
      <trkpt lat="43.50323" lon="1.51148">
        <ele>158.9</ele>
        <time>2022-05-16T08:28:48Z</time>
      </trkpt>
      <trkpt lat="43.50297" lon="1.51116">
        <ele>161.4</ele>
      </trkpt>
      <trkpt lat="43.49997" lon="1.51446">
        <ele>161.9</ele>
      </trkpt>
      <trkpt lat="43.49987" lon="1.51436">
        <ele>164.5</ele>
        <time>2022-05-16T08:28:49Z</time>
      </trkpt>
      <trkpt lat="43.49986" lon="1.5143">
        <ele>164.7</ele>
        <time>2022-05-16T08:28:50Z</time>
      </trkpt>
      <trkpt lat="43.49987" lon="1.51425">
        <ele>165</ele>
        <time>2022-05-16T08:28:51Z</time>
      </trkpt>
      <trkpt lat="43.49988" lon="1.5142">
        <ele>165.3</ele>
        <time>2022-05-16T08:28:52Z</time>
      </trkpt>
      <trkpt lat="43.49989" lon="1.51414">
        <ele>165.6</ele>
        <time>2022-05-16T08:28:53Z</time>
      </trkpt>
      <trkpt lat="43.49989" lon="1.51409">
        <ele>165.9</ele>
        <time>2022-05-16T08:28:54Z</time>
      </trkpt>
      <trkpt lat="43.4999" lon="1.51404">
        <ele>166.1</ele>
        <time>2022-05-16T08:28:55Z</time>
      </trkpt>
      <trkpt lat="43.4999" lon="1.51399">
        <ele>166.4</ele>
        <time>2022-05-16T08:28:56Z</time>
      </trkpt>
      <trkpt lat="43.4999" lon="1.51393">
        <ele>166.6</ele>
        <time>2022-05-16T08:28:58Z</time>
      </trkpt>
      <trkpt lat="43.49989" lon="1.51388">
        <ele>167</ele>
        <time>2022-05-16T08:28:59Z</time>
      </trkpt>
      <trkpt lat="43.49987" lon="1.51385">
        <ele>167.2</ele>
        <time>2022-05-16T08:29:00Z</time>
      </trkpt>
      <trkpt lat="43.49984" lon="1.51381">
        <ele>167.4</ele>
        <time>2022-05-16T08:29:01Z</time>
      </trkpt>
      <trkpt lat="43.49981" lon="1.51378">
        <ele>167.5</ele>
        <time>2022-05-16T08:29:02Z</time>
      </trkpt>
      <trkpt lat="43.49977" lon="1.51374">
        <ele>167.8</ele>
        <time>2022-05-16T08:29:03Z</time>
      </trkpt>
      <trkpt lat="43.49975" lon="1.51372">
        <ele>167.9</ele>
        <time>2022-05-16T08:29:04Z</time>
      </trkpt>
      <trkpt lat="43.49972" lon="1.51369">
        <ele>168.1</ele>
        <time>2022-05-16T08:29:05Z</time>
      </trkpt>
      <trkpt lat="43.49969" lon="1.51365">
        <ele>168.3</ele>
        <time>2022-05-16T08:29:06Z</time>
      </trkpt>
      <trkpt lat="43.49966" lon="1.51363">
        <ele>168.5</ele>
        <time>2022-05-16T08:29:07Z</time>
      </trkpt>
      <trkpt lat="43.49963" lon="1.5136">
        <ele>168.7</ele>
        <time>2022-05-16T08:29:08Z</time>
      </trkpt>
      <trkpt lat="43.4996" lon="1.51358">
        <ele>168.9</ele>
        <time>2022-05-16T08:29:09Z</time>
      </trkpt>
      <trkpt lat="43.49956" lon="1.51354">
        <ele>169.2</ele>
        <time>2022-05-16T08:29:10Z</time>
      </trkpt>
      <trkpt lat="43.49954" lon="1.5135">
        <ele>169.5</ele>
        <time>2022-05-16T08:29:11Z</time>
      </trkpt>
      <trkpt lat="43.4995" lon="1.51347">
        <ele>170.1</ele>
        <time>2022-05-16T08:29:12Z</time>
      </trkpt>
      <trkpt lat="43.49947" lon="1.51344">
        <ele>170.4</ele>
        <time>2022-05-16T08:29:13Z</time>
      </trkpt>
      <trkpt lat="43.49944" lon="1.51341">
        <ele>170.7</ele>
        <time>2022-05-16T08:29:14Z</time>
      </trkpt>
      <trkpt lat="43.49941" lon="1.51338">
        <ele>171</ele>
        <time>2022-05-16T08:29:15Z</time>
      </trkpt>
      <trkpt lat="43.49938" lon="1.51334">
        <ele>171.3</ele>
        <time>2022-05-16T08:29:16Z</time>
      </trkpt>
      <trkpt lat="43.49934" lon="1.51332">
        <ele>171.6</ele>
        <time>2022-05-16T08:29:17Z</time>
      </trkpt>
      <trkpt lat="43.49931" lon="1.51328">
        <ele>171.8</ele>
        <time>2022-05-16T08:29:18Z</time>
      </trkpt>
      <trkpt lat="43.49928" lon="1.51325">
        <ele>172.1</ele>
        <time>2022-05-16T08:29:19Z</time>
      </trkpt>
      <trkpt lat="43.49925" lon="1.51322">
        <ele>172.3</ele>
        <time>2022-05-16T08:29:20Z</time>
      </trkpt>
      <trkpt lat="43.49919" lon="1.51315">
        <ele>172.8</ele>
        <time>2022-05-16T08:29:21Z</time>
      </trkpt>
      <trkpt lat="43.49916" lon="1.51313">
        <ele>173</ele>
        <time>2022-05-16T08:29:22Z</time>
      </trkpt>
      <trkpt lat="43.49913" lon="1.51309">
        <ele>173.1</ele>
        <time>2022-05-16T08:29:23Z</time>
      </trkpt>
      <trkpt lat="43.4991" lon="1.51305">
        <ele>173.3</ele>
        <time>2022-05-16T08:29:24Z</time>
      </trkpt>
      <trkpt lat="43.49908" lon="1.51301">
        <ele>173.5</ele>
        <time>2022-05-16T08:29:25Z</time>
      </trkpt>
      <trkpt lat="43.49904" lon="1.51297">
        <ele>173.7</ele>
        <time>2022-05-16T08:29:26Z</time>
      </trkpt>
      <trkpt lat="43.49901" lon="1.51293">
        <ele>173.9</ele>
        <time>2022-05-16T08:29:27Z</time>
      </trkpt>
      <trkpt lat="43.49898" lon="1.51289">
        <ele>174</ele>
        <time>2022-05-16T08:29:28Z</time>
      </trkpt>
      <trkpt lat="43.49896" lon="1.51284">
        <ele>174.2</ele>
        <time>2022-05-16T08:29:29Z</time>
      </trkpt>
      <trkpt lat="43.49893" lon="1.5128">
        <ele>174.4</ele>
        <time>2022-05-16T08:29:30Z</time>
      </trkpt>
      <trkpt lat="43.4989" lon="1.51276">
        <ele>174.6</ele>
        <time>2022-05-16T08:29:31Z</time>
      </trkpt>
      <trkpt lat="43.49887" lon="1.51271">
        <ele>174.9</ele>
        <time>2022-05-16T08:29:32Z</time>
      </trkpt>
      <trkpt lat="43.49884" lon="1.51267">
        <ele>175.1</ele>
        <time>2022-05-16T08:29:33Z</time>
      </trkpt>
      <trkpt lat="43.49882" lon="1.51263">
        <ele>175.3</ele>
        <time>2022-05-16T08:29:34Z</time>
      </trkpt>
      <trkpt lat="43.4988" lon="1.51258">
        <ele>175.6</ele>
        <time>2022-05-16T08:29:35Z</time>
      </trkpt>
      <trkpt lat="43.49878" lon="1.51253">
        <ele>175.9</ele>
        <time>2022-05-16T08:29:36Z</time>
      </trkpt>
      <trkpt lat="43.49876" lon="1.51247">
        <ele>176.1</ele>
        <time>2022-05-16T08:29:37Z</time>
      </trkpt>
      <trkpt lat="43.49874" lon="1.51242">
        <ele>176.4</ele>
        <time>2022-05-16T08:29:38Z</time>
      </trkpt>
      <trkpt lat="43.4987" lon="1.51237">
        <ele>176.7</ele>
        <time>2022-05-16T08:29:39Z</time>
      </trkpt>
      <trkpt lat="43.49869" lon="1.51232">
        <ele>177</ele>
        <time>2022-05-16T08:29:40Z</time>
      </trkpt>
      <trkpt lat="43.49868" lon="1.51227">
        <ele>177.2</ele>
        <time>2022-05-16T08:29:41Z</time>
      </trkpt>
      <trkpt lat="43.49866" lon="1.51222">
        <ele>177.5</ele>
        <time>2022-05-16T08:29:42Z</time>
      </trkpt>
      <trkpt lat="43.49865" lon="1.51217">
        <ele>177.7</ele>
        <time>2022-05-16T08:29:43Z</time>
      </trkpt>
      <trkpt lat="43.49864" lon="1.51212">
        <ele>177.9</ele>
        <time>2022-05-16T08:29:44Z</time>
      </trkpt>
      <trkpt lat="43.49863" lon="1.51206">
        <ele>178.2</ele>
        <time>2022-05-16T08:29:45Z</time>
      </trkpt>
      <trkpt lat="43.49861" lon="1.51201">
        <ele>178.4</ele>
        <time>2022-05-16T08:29:46Z</time>
      </trkpt>
      <trkpt lat="43.49859" lon="1.51197">
        <ele>178.6</ele>
        <time>2022-05-16T08:29:47Z</time>
      </trkpt>
      <trkpt lat="43.49858" lon="1.51192">
        <ele>178.7</ele>
        <time>2022-05-16T08:29:48Z</time>
      </trkpt>
      <trkpt lat="43.49856" lon="1.51186">
        <ele>178.9</ele>
        <time>2022-05-16T08:29:49Z</time>
      </trkpt>
      <trkpt lat="43.49855" lon="1.51181">
        <ele>179.1</ele>
        <time>2022-05-16T08:29:50Z</time>
      </trkpt>
      <trkpt lat="43.49854" lon="1.51176">
        <ele>179.3</ele>
        <time>2022-05-16T08:29:51Z</time>
      </trkpt>
      <trkpt lat="43.49852" lon="1.5117">
        <ele>179.4</ele>
        <time>2022-05-16T08:29:52Z</time>
      </trkpt>
      <trkpt lat="43.4985" lon="1.51165">
        <ele>179.6</ele>
        <time>2022-05-16T08:29:53Z</time>
      </trkpt>
      <trkpt lat="43.49848" lon="1.5116">
        <ele>179.8</ele>
        <time>2022-05-16T08:29:54Z</time>
      </trkpt>
      <trkpt lat="43.49846" lon="1.51155">
        <ele>180</ele>
        <time>2022-05-16T08:29:55Z</time>
      </trkpt>
      <trkpt lat="43.49844" lon="1.5115">
        <ele>180.1</ele>
        <time>2022-05-16T08:29:56Z</time>
      </trkpt>
      <trkpt lat="43.49843" lon="1.51145">
        <ele>180.3</ele>
        <time>2022-05-16T08:29:57Z</time>
      </trkpt>
      <trkpt lat="43.49841" lon="1.5114">
        <ele>180.5</ele>
        <time>2022-05-16T08:29:58Z</time>
      </trkpt>
      <trkpt lat="43.49839" lon="1.51135">
        <ele>180.6</ele>
        <time>2022-05-16T08:29:59Z</time>
      </trkpt>
      <trkpt lat="43.49838" lon="1.51129">
        <ele>180.8</ele>
        <time>2022-05-16T08:30:00Z</time>
      </trkpt>
      <trkpt lat="43.49837" lon="1.51124">
        <ele>181</ele>
        <time>2022-05-16T08:30:01Z</time>
      </trkpt>
      <trkpt lat="43.49835" lon="1.51119">
        <ele>181.2</ele>
        <time>2022-05-16T08:30:02Z</time>
      </trkpt>
      <trkpt lat="43.49833" lon="1.51114">
        <ele>181.4</ele>
        <time>2022-05-16T08:30:03Z</time>
      </trkpt>
      <trkpt lat="43.49832" lon="1.51109">
        <ele>181.6</ele>
        <time>2022-05-16T08:30:04Z</time>
      </trkpt>
      <trkpt lat="43.49831" lon="1.51104">
        <ele>181.8</ele>
        <time>2022-05-16T08:30:05Z</time>
      </trkpt>
      <trkpt lat="43.49829" lon="1.51099">
        <ele>182</ele>
        <time>2022-05-16T08:30:06Z</time>
      </trkpt>
      <trkpt lat="43.49828" lon="1.51094">
        <ele>182.2</ele>
        <time>2022-05-16T08:30:07Z</time>
      </trkpt>
      <trkpt lat="43.49827" lon="1.51089">
        <ele>182.5</ele>
        <time>2022-05-16T08:30:08Z</time>
      </trkpt>
      <trkpt lat="43.49826" lon="1.51083">
        <ele>182.8</ele>
        <time>2022-05-16T08:30:09Z</time>
      </trkpt>
      <trkpt lat="43.49827" lon="1.51078">
        <ele>183.1</ele>
        <time>2022-05-16T08:30:10Z</time>
      </trkpt>
      <trkpt lat="43.49828" lon="1.51073">
        <ele>183.5</ele>
        <time>2022-05-16T08:30:11Z</time>
      </trkpt>
      <trkpt lat="43.49828" lon="1.51068">
        <ele>183.8</ele>
        <time>2022-05-16T08:30:12Z</time>
      </trkpt>
      <trkpt lat="43.49829" lon="1.51063">
        <ele>184.3</ele>
        <time>2022-05-16T08:30:13Z</time>
      </trkpt>
      <trkpt lat="43.49831" lon="1.51059">
        <ele>184.7</ele>
        <time>2022-05-16T08:30:14Z</time>
      </trkpt>
      <trkpt lat="43.49833" lon="1.51055">
        <ele>185.2</ele>
        <time>2022-05-16T08:30:15Z</time>
      </trkpt>
      <trkpt lat="43.49835" lon="1.51052">
        <ele>185.6</ele>
        <time>2022-05-16T08:30:16Z</time>
      </trkpt>
      <trkpt lat="43.49837" lon="1.51049">
        <ele>186.1</ele>
        <time>2022-05-16T08:30:17Z</time>
      </trkpt>
      <trkpt lat="43.49839" lon="1.51044">
        <ele>186.6</ele>
        <time>2022-05-16T08:30:18Z</time>
      </trkpt>
      <trkpt lat="43.49842" lon="1.51041">
        <ele>187</ele>
        <time>2022-05-16T08:30:19Z</time>
      </trkpt>
      <trkpt lat="43.49845" lon="1.51041">
        <ele>187.5</ele>
        <time>2022-05-16T08:30:20Z</time>
      </trkpt>
      <trkpt lat="43.49848" lon="1.51037">
        <ele>188.1</ele>
        <time>2022-05-16T08:30:21Z</time>
      </trkpt>
      <trkpt lat="43.49851" lon="1.51035">
        <ele>188.6</ele>
        <time>2022-05-16T08:30:22Z</time>
      </trkpt>
      <trkpt lat="43.49852" lon="1.51031">
        <ele>189.1</ele>
        <time>2022-05-16T08:30:23Z</time>
      </trkpt>
      <trkpt lat="43.49855" lon="1.51027">
        <ele>189.6</ele>
        <time>2022-05-16T08:30:24Z</time>
      </trkpt>
      <trkpt lat="43.49857" lon="1.51023">
        <ele>190.2</ele>
        <time>2022-05-16T08:30:25Z</time>
      </trkpt>
      <trkpt lat="43.4986" lon="1.51019">
        <ele>190.8</ele>
        <time>2022-05-16T08:30:26Z</time>
      </trkpt>
      <trkpt lat="43.49861" lon="1.51018">
        <ele>191.1</ele>
        <time>2022-05-16T08:30:27Z</time>
      </trkpt>
      <trkpt lat="43.49863" lon="1.51014">
        <ele>191.6</ele>
        <time>2022-05-16T08:30:28Z</time>
      </trkpt>
      <trkpt lat="43.49865" lon="1.5101">
        <ele>192.2</ele>
        <time>2022-05-16T08:30:29Z</time>
      </trkpt>
      <trkpt lat="43.49866" lon="1.51009">
        <ele>192.4</ele>
        <time>2022-05-16T08:30:30Z</time>
      </trkpt>
      <trkpt lat="43.49868" lon="1.51006">
        <ele>192.8</ele>
        <time>2022-05-16T08:30:31Z</time>
      </trkpt>
      <trkpt lat="43.49869" lon="1.51001">
        <ele>193.4</ele>
        <time>2022-05-16T08:30:32Z</time>
      </trkpt>
      <trkpt lat="43.49871" lon="1.50998">
        <ele>193.8</ele>
        <time>2022-05-16T08:30:33Z</time>
      </trkpt>
      <trkpt lat="43.49872" lon="1.50994">
        <ele>194.3</ele>
        <time>2022-05-16T08:30:34Z</time>
      </trkpt>
      <trkpt lat="43.49874" lon="1.50991">
        <ele>194.8</ele>
        <time>2022-05-16T08:30:35Z</time>
      </trkpt>
      <trkpt lat="43.49876" lon="1.50986">
        <ele>195.4</ele>
        <time>2022-05-16T08:30:36Z</time>
      </trkpt>
      <trkpt lat="43.49877" lon="1.50985">
        <ele>195.6</ele>
        <time>2022-05-16T08:30:37Z</time>
      </trkpt>
      <trkpt lat="43.49877" lon="1.50982">
        <ele>195.9</ele>
        <time>2022-05-16T08:30:38Z</time>
      </trkpt>
      <trkpt lat="43.49876" lon="1.50981">
        <ele>196.1</ele>
        <time>2022-05-16T08:30:39Z</time>
      </trkpt>
      <trkpt lat="43.49873" lon="1.5098">
        <ele>196.5</ele>
        <time>2022-05-16T08:30:40Z</time>
      </trkpt>
      <trkpt lat="43.4987" lon="1.50983">
        <ele>197.2</ele>
        <time>2022-05-16T08:30:41Z</time>
      </trkpt>
      <trkpt lat="43.49868" lon="1.50985">
        <ele>197.5</ele>
        <time>2022-05-16T08:30:42Z</time>
      </trkpt>
      <trkpt lat="43.49865" lon="1.50987">
        <ele>198</ele>
        <time>2022-05-16T08:30:43Z</time>
      </trkpt>
      <trkpt lat="43.49862" lon="1.50987">
        <ele>198.6</ele>
        <time>2022-05-16T08:30:44Z</time>
      </trkpt>
      <trkpt lat="43.4986" lon="1.50983">
        <ele>199.1</ele>
        <time>2022-05-16T08:30:45Z</time>
      </trkpt>
      <trkpt lat="43.49858" lon="1.5098">
        <ele>199.7</ele>
        <time>2022-05-16T08:30:46Z</time>
      </trkpt>
      <trkpt lat="43.49856" lon="1.50977">
        <ele>200.1</ele>
        <time>2022-05-16T08:30:47Z</time>
      </trkpt>
      <trkpt lat="43.49854" lon="1.50974">
        <ele>200.7</ele>
        <time>2022-05-16T08:30:48Z</time>
      </trkpt>
      <trkpt lat="43.49851" lon="1.50972">
        <ele>201.2</ele>
        <time>2022-05-16T08:30:49Z</time>
      </trkpt>
      <trkpt lat="43.49849" lon="1.50967">
        <ele>201.9</ele>
        <time>2022-05-16T08:30:50Z</time>
      </trkpt>
      <trkpt lat="43.49848" lon="1.50966">
        <ele>202.2</ele>
        <time>2022-05-16T08:30:51Z</time>
      </trkpt>
      <trkpt lat="43.49846" lon="1.50963">
        <ele>202.7</ele>
        <time>2022-05-16T08:30:52Z</time>
      </trkpt>
      <trkpt lat="43.49843" lon="1.50961">
        <ele>203.2</ele>
        <time>2022-05-16T08:30:53Z</time>
      </trkpt>
      <trkpt lat="43.49841" lon="1.50959">
        <ele>203.7</ele>
        <time>2022-05-16T08:30:54Z</time>
      </trkpt>
      <trkpt lat="43.49839" lon="1.50956">
        <ele>204.2</ele>
        <time>2022-05-16T08:30:55Z</time>
      </trkpt>
      <trkpt lat="43.49837" lon="1.50954">
        <ele>204.6</ele>
        <time>2022-05-16T08:30:56Z</time>
      </trkpt>
      <trkpt lat="43.49835" lon="1.50951">
        <ele>205.1</ele>
        <time>2022-05-16T08:30:57Z</time>
      </trkpt>
      <trkpt lat="43.49832" lon="1.50949">
        <ele>205.5</ele>
        <time>2022-05-16T08:30:58Z</time>
      </trkpt>
      <trkpt lat="43.49829" lon="1.50947">
        <ele>205.8</ele>
        <time>2022-05-16T08:30:59Z</time>
      </trkpt>
      <trkpt lat="43.49828" lon="1.50947">
        <ele>205.7</ele>
        <time>2022-05-16T08:31:00Z</time>
      </trkpt>
      <trkpt lat="43.49825" lon="1.5095">
        <ele>205.4</ele>
        <time>2022-05-16T08:31:01Z</time>
      </trkpt>
      <trkpt lat="43.49824" lon="1.50951">
        <ele>205.3</ele>
        <time>2022-05-16T08:31:02Z</time>
      </trkpt>
      <trkpt lat="43.49822" lon="1.50956">
        <ele>205</ele>
        <time>2022-05-16T08:31:04Z</time>
      </trkpt>
      <trkpt lat="43.49819" lon="1.50963">
        <ele>204.6</ele>
        <time>2022-05-16T08:31:05Z</time>
      </trkpt>
      <trkpt lat="43.49817" lon="1.50968">
        <ele>204.2</ele>
        <time>2022-05-16T08:31:06Z</time>
      </trkpt>
      <trkpt lat="43.49814" lon="1.50971">
        <ele>203.9</ele>
        <time>2022-05-16T08:31:07Z</time>
      </trkpt>
      <trkpt lat="43.4981" lon="1.50974">
        <ele>203.5</ele>
        <time>2022-05-16T08:31:08Z</time>
      </trkpt>
      <trkpt lat="43.49805" lon="1.50976">
        <ele>203.2</ele>
        <time>2022-05-16T08:31:09Z</time>
      </trkpt>
      <trkpt lat="43.49799" lon="1.50979">
        <ele>202.8</ele>
        <time>2022-05-16T08:31:10Z</time>
      </trkpt>
      <trkpt lat="43.49794" lon="1.5098">
        <ele>202.5</ele>
        <time>2022-05-16T08:31:11Z</time>
      </trkpt>
      <trkpt lat="43.49789" lon="1.50979">
        <ele>202.2</ele>
        <time>2022-05-16T08:31:12Z</time>
      </trkpt>
      <trkpt lat="43.49783" lon="1.5098">
        <ele>202</ele>
        <time>2022-05-16T08:31:13Z</time>
      </trkpt>
      <trkpt lat="43.49777" lon="1.50978">
        <ele>201.7</ele>
        <time>2022-05-16T08:31:14Z</time>
      </trkpt>
      <trkpt lat="43.49772" lon="1.50977">
        <ele>201.5</ele>
        <time>2022-05-16T08:31:15Z</time>
      </trkpt>
      <trkpt lat="43.49766" lon="1.50979">
        <ele>201.2</ele>
        <time>2022-05-16T08:31:16Z</time>
      </trkpt>
      <trkpt lat="43.4976" lon="1.50979">
        <ele>200.9</ele>
        <time>2022-05-16T08:31:17Z</time>
      </trkpt>
      <trkpt lat="43.49754" lon="1.5098">
        <ele>200.7</ele>
        <time>2022-05-16T08:31:18Z</time>
      </trkpt>
      <trkpt lat="43.49747" lon="1.50979">
        <ele>200.4</ele>
        <time>2022-05-16T08:31:19Z</time>
      </trkpt>
      <trkpt lat="43.49741" lon="1.50979">
        <ele>200.2</ele>
        <time>2022-05-16T08:31:20Z</time>
      </trkpt>
      <trkpt lat="43.49734" lon="1.5098">
        <ele>199.9</ele>
        <time>2022-05-16T08:31:21Z</time>
      </trkpt>
      <trkpt lat="43.49728" lon="1.50982">
        <ele>199.6</ele>
        <time>2022-05-16T08:31:22Z</time>
      </trkpt>
      <trkpt lat="43.49721" lon="1.50981">
        <ele>199.4</ele>
        <time>2022-05-16T08:31:23Z</time>
      </trkpt>
      <trkpt lat="43.49714" lon="1.50983">
        <ele>199.2</ele>
        <time>2022-05-16T08:31:24Z</time>
      </trkpt>
      <trkpt lat="43.49707" lon="1.50984">
        <ele>199.2</ele>
        <time>2022-05-16T08:31:25Z</time>
      </trkpt>
      <trkpt lat="43.49701" lon="1.50984">
        <ele>199.2</ele>
        <time>2022-05-16T08:31:26Z</time>
      </trkpt>
      <trkpt lat="43.49694" lon="1.50985">
        <ele>199.9</ele>
        <time>2022-05-16T08:31:27Z</time>
      </trkpt>
      <trkpt lat="43.4969" lon="1.50988">
        <ele>200.6</ele>
        <time>2022-05-16T08:31:28Z</time>
      </trkpt>
      <trkpt lat="43.49687" lon="1.50985">
        <ele>201.3</ele>
        <time>2022-05-16T08:31:29Z</time>
      </trkpt>
      <trkpt lat="43.49686" lon="1.50984">
        <ele>201.6</ele>
        <time>2022-05-16T08:31:30Z</time>
      </trkpt>
      <trkpt lat="43.49685" lon="1.50978">
        <ele>202.4</ele>
        <time>2022-05-16T08:31:31Z</time>
      </trkpt>
      <trkpt lat="43.49684" lon="1.50974">
        <ele>203.1</ele>
        <time>2022-05-16T08:31:32Z</time>
      </trkpt>
      <trkpt lat="43.49686" lon="1.50972">
        <ele>203.7</ele>
        <time>2022-05-16T08:31:33Z</time>
      </trkpt>
      <trkpt lat="43.49687" lon="1.50972">
        <ele>203.9</ele>
        <time>2022-05-16T08:31:34Z</time>
      </trkpt>
      <trkpt lat="43.49691" lon="1.5097">
        <ele>204.7</ele>
        <time>2022-05-16T08:31:35Z</time>
      </trkpt>
      <trkpt lat="43.49692" lon="1.50969">
        <ele>205</ele>
        <time>2022-05-16T08:31:36Z</time>
      </trkpt>
      <trkpt lat="43.49693" lon="1.50965">
        <ele>205.6</ele>
        <time>2022-05-16T08:31:37Z</time>
      </trkpt>
      <trkpt lat="43.49693" lon="1.50961">
        <ele>206.2</ele>
        <time>2022-05-16T08:31:38Z</time>
      </trkpt>
      <trkpt lat="43.49693" lon="1.50957">
        <ele>206.9</ele>
        <time>2022-05-16T08:31:39Z</time>
      </trkpt>
      <trkpt lat="43.49693" lon="1.50952">
        <ele>207.6</ele>
        <time>2022-05-16T08:31:40Z</time>
      </trkpt>
      <trkpt lat="43.49694" lon="1.50947">
        <ele>208.5</ele>
        <time>2022-05-16T08:31:41Z</time>
      </trkpt>
      <trkpt lat="43.49694" lon="1.50945">
        <ele>208.8</ele>
        <time>2022-05-16T08:31:42Z</time>
      </trkpt>
      <trkpt lat="43.49695" lon="1.50941">
        <ele>209.6</ele>
        <time>2022-05-16T08:31:43Z</time>
      </trkpt>
      <trkpt lat="43.49695" lon="1.50939">
        <ele>209.9</ele>
        <time>2022-05-16T08:31:44Z</time>
      </trkpt>
      <trkpt lat="43.49695" lon="1.50935">
        <ele>210.5</ele>
        <time>2022-05-16T08:31:45Z</time>
      </trkpt>
      <trkpt lat="43.49696" lon="1.50931">
        <ele>211.2</ele>
        <time>2022-05-16T08:31:46Z</time>
      </trkpt>
      <trkpt lat="43.49696" lon="1.50927">
        <ele>211.9</ele>
        <time>2022-05-16T08:31:47Z</time>
      </trkpt>
      <trkpt lat="43.49697" lon="1.50925">
        <ele>212.2</ele>
        <time>2022-05-16T08:31:48Z</time>
      </trkpt>
      <trkpt lat="43.49696" lon="1.5092">
        <ele>213.1</ele>
        <time>2022-05-16T08:31:49Z</time>
      </trkpt>
      <trkpt lat="43.49697" lon="1.50918">
        <ele>213.4</ele>
        <time>2022-05-16T08:31:50Z</time>
      </trkpt>
      <trkpt lat="43.49697" lon="1.50914">
        <ele>214.2</ele>
        <time>2022-05-16T08:31:51Z</time>
      </trkpt>
      <trkpt lat="43.49697" lon="1.50912">
        <ele>214.5</ele>
        <time>2022-05-16T08:31:52Z</time>
      </trkpt>
      <trkpt lat="43.49697" lon="1.50907">
        <ele>215.3</ele>
        <time>2022-05-16T08:31:53Z</time>
      </trkpt>
      <trkpt lat="43.49697" lon="1.50906">
        <ele>215.6</ele>
        <time>2022-05-16T08:31:54Z</time>
      </trkpt>
      <trkpt lat="43.49697" lon="1.50901">
        <ele>216.4</ele>
        <time>2022-05-16T08:31:55Z</time>
      </trkpt>
      <trkpt lat="43.49697" lon="1.509">
        <ele>216.7</ele>
        <time>2022-05-16T08:31:56Z</time>
      </trkpt>
      <trkpt lat="43.49698" lon="1.50895">
        <ele>217.6</ele>
        <time>2022-05-16T08:31:57Z</time>
      </trkpt>
      <trkpt lat="43.49699" lon="1.50894">
        <ele>217.9</ele>
        <time>2022-05-16T08:31:58Z</time>
      </trkpt>
      <trkpt lat="43.497" lon="1.50889">
        <ele>218.8</ele>
        <time>2022-05-16T08:31:59Z</time>
      </trkpt>
      <trkpt lat="43.49701" lon="1.50888">
        <ele>219.1</ele>
        <time>2022-05-16T08:32:00Z</time>
      </trkpt>
      <trkpt lat="43.49703" lon="1.50884">
        <ele>220</ele>
        <time>2022-05-16T08:32:01Z</time>
      </trkpt>
      <trkpt lat="43.49703" lon="1.50883">
        <ele>220.3</ele>
        <time>2022-05-16T08:32:02Z</time>
      </trkpt>
      <trkpt lat="43.49705" lon="1.50879">
        <ele>221.1</ele>
        <time>2022-05-16T08:32:03Z</time>
      </trkpt>
      <trkpt lat="43.49706" lon="1.50878">
        <ele>221.4</ele>
        <time>2022-05-16T08:32:04Z</time>
      </trkpt>
      <trkpt lat="43.49707" lon="1.50874">
        <ele>222.1</ele>
        <time>2022-05-16T08:32:05Z</time>
      </trkpt>
      <trkpt lat="43.49709" lon="1.5087">
        <ele>223</ele>
        <time>2022-05-16T08:32:06Z</time>
      </trkpt>
      <trkpt lat="43.49709" lon="1.50869">
        <ele>223.3</ele>
        <time>2022-05-16T08:32:07Z</time>
      </trkpt>
      <trkpt lat="43.49711" lon="1.50865">
        <ele>224.2</ele>
        <time>2022-05-16T08:32:08Z</time>
      </trkpt>
      <trkpt lat="43.49712" lon="1.50863">
        <ele>224.5</ele>
        <time>2022-05-16T08:32:09Z</time>
      </trkpt>
      <trkpt lat="43.49714" lon="1.5086">
        <ele>225.4</ele>
        <time>2022-05-16T08:32:10Z</time>
      </trkpt>
      <trkpt lat="43.49715" lon="1.50858">
        <ele>225.7</ele>
        <time>2022-05-16T08:32:11Z</time>
      </trkpt>
      <trkpt lat="43.49716" lon="1.50855">
        <ele>226.6</ele>
        <time>2022-05-16T08:32:12Z</time>
      </trkpt>
      <trkpt lat="43.49717" lon="1.50854">
        <ele>226.8</ele>
        <time>2022-05-16T08:32:13Z</time>
      </trkpt>
      <trkpt lat="43.49718" lon="1.5085">
        <ele>227.5</ele>
        <time>2022-05-16T08:32:14Z</time>
      </trkpt>
      <trkpt lat="43.4972" lon="1.50847">
        <ele>228.3</ele>
        <time>2022-05-16T08:32:15Z</time>
      </trkpt>
      <trkpt lat="43.49721" lon="1.50846">
        <ele>228.6</ele>
        <time>2022-05-16T08:32:16Z</time>
      </trkpt>
      <trkpt lat="43.49723" lon="1.50841">
        <ele>229.5</ele>
        <time>2022-05-16T08:32:17Z</time>
      </trkpt>
      <trkpt lat="43.49723" lon="1.5084">
        <ele>229.8</ele>
        <time>2022-05-16T08:32:18Z</time>
      </trkpt>
      <trkpt lat="43.49726" lon="1.50836">
        <ele>230.7</ele>
        <time>2022-05-16T08:32:19Z</time>
      </trkpt>
      <trkpt lat="43.49726" lon="1.50835">
        <ele>231</ele>
        <time>2022-05-16T08:32:20Z</time>
      </trkpt>
      <trkpt lat="43.49728" lon="1.50831">
        <ele>231.7</ele>
        <time>2022-05-16T08:32:21Z</time>
      </trkpt>
      <trkpt lat="43.49729" lon="1.5083">
        <ele>232</ele>
        <time>2022-05-16T08:32:22Z</time>
      </trkpt>
      <trkpt lat="43.49731" lon="1.50826">
        <ele>232.8</ele>
        <time>2022-05-16T08:32:23Z</time>
      </trkpt>
      <trkpt lat="43.49732" lon="1.50825">
        <ele>233.1</ele>
        <time>2022-05-16T08:32:24Z</time>
      </trkpt>
      <trkpt lat="43.49734" lon="1.50821">
        <ele>233.8</ele>
        <time>2022-05-16T08:32:25Z</time>
      </trkpt>
      <trkpt lat="43.49735" lon="1.5082">
        <ele>234</ele>
        <time>2022-05-16T08:32:26Z</time>
      </trkpt>
      <trkpt lat="43.49737" lon="1.50816">
        <ele>234.7</ele>
        <time>2022-05-16T08:32:27Z</time>
      </trkpt>
      <trkpt lat="43.49738" lon="1.50815">
        <ele>234.9</ele>
        <time>2022-05-16T08:32:28Z</time>
      </trkpt>
      <trkpt lat="43.4974" lon="1.50811">
        <ele>235.6</ele>
        <time>2022-05-16T08:32:29Z</time>
      </trkpt>
      <trkpt lat="43.49741" lon="1.5081">
        <ele>235.9</ele>
        <time>2022-05-16T08:32:30Z</time>
      </trkpt>
      <trkpt lat="43.49744" lon="1.50807">
        <ele>236.5</ele>
        <time>2022-05-16T08:32:31Z</time>
      </trkpt>
      <trkpt lat="43.49745" lon="1.50806">
        <ele>236.8</ele>
        <time>2022-05-16T08:32:32Z</time>
      </trkpt>
      <trkpt lat="43.49747" lon="1.50802">
        <ele>237.3</ele>
        <time>2022-05-16T08:32:33Z</time>
      </trkpt>
      <trkpt lat="43.49748" lon="1.50801">
        <ele>237.5</ele>
        <time>2022-05-16T08:32:34Z</time>
      </trkpt>
      <trkpt lat="43.4975" lon="1.50797">
        <ele>238.1</ele>
        <time>2022-05-16T08:32:35Z</time>
      </trkpt>
      <trkpt lat="43.49751" lon="1.50796">
        <ele>238.3</ele>
        <time>2022-05-16T08:32:36Z</time>
      </trkpt>
      <trkpt lat="43.49752" lon="1.50792">
        <ele>238.8</ele>
        <time>2022-05-16T08:32:37Z</time>
      </trkpt>
      <trkpt lat="43.49753" lon="1.5079">
        <ele>238.9</ele>
        <time>2022-05-16T08:32:38Z</time>
      </trkpt>
      <trkpt lat="43.49753" lon="1.50785">
        <ele>239.4</ele>
        <time>2022-05-16T08:32:39Z</time>
      </trkpt>
      <trkpt lat="43.49752" lon="1.50783">
        <ele>239.6</ele>
        <time>2022-05-16T08:32:40Z</time>
      </trkpt>
      <trkpt lat="43.49751" lon="1.50778">
        <ele>240</ele>
        <time>2022-05-16T08:32:41Z</time>
      </trkpt>
      <trkpt lat="43.49751" lon="1.50777">
        <ele>240.2</ele>
        <time>2022-05-16T08:32:42Z</time>
      </trkpt>
      <trkpt lat="43.49749" lon="1.50772">
        <ele>240.6</ele>
        <time>2022-05-16T08:32:43Z</time>
      </trkpt>
      <trkpt lat="43.49749" lon="1.5077">
        <ele>240.7</ele>
        <time>2022-05-16T08:32:44Z</time>
      </trkpt>
      <trkpt lat="43.49747" lon="1.50765">
        <ele>241.1</ele>
        <time>2022-05-16T08:32:45Z</time>
      </trkpt>
      <trkpt lat="43.49747" lon="1.50764">
        <ele>241.2</ele>
        <time>2022-05-16T08:32:46Z</time>
      </trkpt>
      <trkpt lat="43.49746" lon="1.5076">
        <ele>241.5</ele>
        <time>2022-05-16T08:32:47Z</time>
      </trkpt>
      <trkpt lat="43.49745" lon="1.50755">
        <ele>241.9</ele>
        <time>2022-05-16T08:32:48Z</time>
      </trkpt>
      <trkpt lat="43.49745" lon="1.50754">
        <ele>242</ele>
        <time>2022-05-16T08:32:49Z</time>
      </trkpt>
      <trkpt lat="43.49743" lon="1.50749">
        <ele>242.4</ele>
        <time>2022-05-16T08:32:50Z</time>
      </trkpt>
      <trkpt lat="43.49743" lon="1.50747">
        <ele>242.5</ele>
        <time>2022-05-16T08:32:51Z</time>
      </trkpt>
      <trkpt lat="43.49742" lon="1.50742">
        <ele>242.9</ele>
        <time>2022-05-16T08:32:52Z</time>
      </trkpt>
      <trkpt lat="43.49742" lon="1.5074">
        <ele>243</ele>
        <time>2022-05-16T08:32:53Z</time>
      </trkpt>
      <trkpt lat="43.4974" lon="1.50736">
        <ele>243.3</ele>
        <time>2022-05-16T08:32:54Z</time>
      </trkpt>
      <trkpt lat="43.4974" lon="1.50734">
        <ele>243.4</ele>
        <time>2022-05-16T08:32:55Z</time>
      </trkpt>
      <trkpt lat="43.4974" lon="1.5073">
        <ele>243.6</ele>
        <time>2022-05-16T08:32:56Z</time>
      </trkpt>
      <trkpt lat="43.4974" lon="1.50728">
        <ele>243.8</ele>
        <time>2022-05-16T08:32:57Z</time>
      </trkpt>
      <trkpt lat="43.49742" lon="1.50724">
        <ele>244.1</ele>
        <time>2022-05-16T08:32:58Z</time>
      </trkpt>
      <trkpt lat="43.49743" lon="1.5072">
        <ele>244.2</ele>
        <time>2022-05-16T08:32:59Z</time>
      </trkpt>
      <trkpt lat="43.49745" lon="1.50716">
        <ele>244.3</ele>
        <time>2022-05-16T08:33:00Z</time>
      </trkpt>
      <trkpt lat="43.49745" lon="1.50711">
        <ele>244.4</ele>
        <time>2022-05-16T08:33:01Z</time>
      </trkpt>
      <trkpt lat="43.49744" lon="1.50707">
        <ele>244.5</ele>
        <time>2022-05-16T08:33:02Z</time>
      </trkpt>
      <trkpt lat="43.49743" lon="1.50703">
        <ele>244.5</ele>
        <time>2022-05-16T08:33:03Z</time>
      </trkpt>
      <trkpt lat="43.49743" lon="1.50699">
        <ele>244.8</ele>
        <time>2022-05-16T08:33:04Z</time>
      </trkpt>
      <trkpt lat="43.49744" lon="1.50694">
        <ele>245</ele>
        <time>2022-05-16T08:33:05Z</time>
      </trkpt>
      <trkpt lat="43.49744" lon="1.5069">
        <ele>245.2</ele>
        <time>2022-05-16T08:33:06Z</time>
      </trkpt>
      <trkpt lat="43.49745" lon="1.50686">
        <ele>245.4</ele>
        <time>2022-05-16T08:33:07Z</time>
      </trkpt>
      <trkpt lat="43.49746" lon="1.50683">
        <ele>245.5</ele>
        <time>2022-05-16T08:33:09Z</time>
      </trkpt>
      <trkpt lat="43.49747" lon="1.50679">
        <ele>245.7</ele>
        <time>2022-05-16T08:33:10Z</time>
      </trkpt>
      <trkpt lat="43.49749" lon="1.50675">
        <ele>245.9</ele>
        <time>2022-05-16T08:33:11Z</time>
      </trkpt>
      <trkpt lat="43.4975" lon="1.50671">
        <ele>246.1</ele>
        <time>2022-05-16T08:33:12Z</time>
      </trkpt>
      <trkpt lat="43.49752" lon="1.50667">
        <ele>246.3</ele>
        <time>2022-05-16T08:33:13Z</time>
      </trkpt>
      <trkpt lat="43.49753" lon="1.50663">
        <ele>246.5</ele>
        <time>2022-05-16T08:33:14Z</time>
      </trkpt>
      <trkpt lat="43.49754" lon="1.50659">
        <ele>246.7</ele>
        <time>2022-05-16T08:33:15Z</time>
      </trkpt>
      <trkpt lat="43.49756" lon="1.50655">
        <ele>246.9</ele>
        <time>2022-05-16T08:33:16Z</time>
      </trkpt>
      <trkpt lat="43.49757" lon="1.50651">
        <ele>247.1</ele>
        <time>2022-05-16T08:33:17Z</time>
      </trkpt>
      <trkpt lat="43.49758" lon="1.50647">
        <ele>247.3</ele>
        <time>2022-05-16T08:33:18Z</time>
      </trkpt>
      <trkpt lat="43.4976" lon="1.50643">
        <ele>247.4</ele>
        <time>2022-05-16T08:33:19Z</time>
      </trkpt>
      <trkpt lat="43.49761" lon="1.50638">
        <ele>247.6</ele>
        <time>2022-05-16T08:33:20Z</time>
      </trkpt>
      <trkpt lat="43.49762" lon="1.50634">
        <ele>247.8</ele>
        <time>2022-05-16T08:33:21Z</time>
      </trkpt>
      <trkpt lat="43.49763" lon="1.5063">
        <ele>247.9</ele>
        <time>2022-05-16T08:33:22Z</time>
      </trkpt>
      <trkpt lat="43.49764" lon="1.50626">
        <ele>248</ele>
        <time>2022-05-16T08:33:23Z</time>
      </trkpt>
      <trkpt lat="43.49766" lon="1.50622">
        <ele>248.2</ele>
        <time>2022-05-16T08:33:24Z</time>
      </trkpt>
      <trkpt lat="43.49767" lon="1.50618">
        <ele>248.3</ele>
        <time>2022-05-16T08:33:25Z</time>
      </trkpt>
      <trkpt lat="43.49768" lon="1.50613">
        <ele>248.3</ele>
        <time>2022-05-16T08:33:26Z</time>
      </trkpt>
      <trkpt lat="43.4977" lon="1.50609">
        <ele>248.4</ele>
        <time>2022-05-16T08:33:27Z</time>
      </trkpt>
      <trkpt lat="43.49771" lon="1.50605">
        <ele>248.5</ele>
        <time>2022-05-16T08:33:28Z</time>
      </trkpt>
      <trkpt lat="43.49773" lon="1.50601">
        <ele>248.6</ele>
        <time>2022-05-16T08:33:29Z</time>
      </trkpt>
      <trkpt lat="43.49775" lon="1.50596">
        <ele>248.6</ele>
        <time>2022-05-16T08:33:30Z</time>
      </trkpt>
      <trkpt lat="43.49777" lon="1.50592">
        <ele>248.7</ele>
        <time>2022-05-16T08:33:31Z</time>
      </trkpt>
      <trkpt lat="43.49778" lon="1.50587">
        <ele>248.7</ele>
        <time>2022-05-16T08:33:32Z</time>
      </trkpt>
      <trkpt lat="43.49779" lon="1.50582">
        <ele>248.8</ele>
        <time>2022-05-16T08:33:33Z</time>
      </trkpt>
      <trkpt lat="43.4978" lon="1.50578">
        <ele>248.9</ele>
        <time>2022-05-16T08:33:34Z</time>
      </trkpt>
      <trkpt lat="43.49782" lon="1.50573">
        <ele>248.9</ele>
        <time>2022-05-16T08:33:35Z</time>
      </trkpt>
      <trkpt lat="43.49783" lon="1.50568">
        <ele>249</ele>
        <time>2022-05-16T08:33:36Z</time>
      </trkpt>
      <trkpt lat="43.49785" lon="1.50563">
        <ele>249</ele>
        <time>2022-05-16T08:33:37Z</time>
      </trkpt>
      <trkpt lat="43.49788" lon="1.50553">
        <ele>249.2</ele>
        <time>2022-05-16T08:33:38Z</time>
      </trkpt>
      <trkpt lat="43.49789" lon="1.50548">
        <ele>249.2</ele>
        <time>2022-05-16T08:33:39Z</time>
      </trkpt>
      <trkpt lat="43.49791" lon="1.50543">
        <ele>249.2</ele>
        <time>2022-05-16T08:33:40Z</time>
      </trkpt>
      <trkpt lat="43.49793" lon="1.50539">
        <ele>249.3</ele>
        <time>2022-05-16T08:33:41Z</time>
      </trkpt>
      <trkpt lat="43.49795" lon="1.50534">
        <ele>249.3</ele>
        <time>2022-05-16T08:33:42Z</time>
      </trkpt>
      <trkpt lat="43.49798" lon="1.5053">
        <ele>249.3</ele>
        <time>2022-05-16T08:33:43Z</time>
      </trkpt>
      <trkpt lat="43.49801" lon="1.50527">
        <ele>249.3</ele>
        <time>2022-05-16T08:33:44Z</time>
      </trkpt>
      <trkpt lat="43.49804" lon="1.50524">
        <ele>249.3</ele>
        <time>2022-05-16T08:33:45Z</time>
      </trkpt>
      <trkpt lat="43.49807" lon="1.50521">
        <ele>249.3</ele>
        <time>2022-05-16T08:33:46Z</time>
      </trkpt>
      <trkpt lat="43.4981" lon="1.50517">
        <ele>249.2</ele>
        <time>2022-05-16T08:33:47Z</time>
      </trkpt>
      <trkpt lat="43.49812" lon="1.50512">
        <ele>249.2</ele>
        <time>2022-05-16T08:33:48Z</time>
      </trkpt>
      <trkpt lat="43.49815" lon="1.50508">
        <ele>249.1</ele>
        <time>2022-05-16T08:33:49Z</time>
      </trkpt>
      <trkpt lat="43.49817" lon="1.50503">
        <ele>249</ele>
        <time>2022-05-16T08:33:50Z</time>
      </trkpt>
      <trkpt lat="43.4982" lon="1.50499">
        <ele>248.9</ele>
        <time>2022-05-16T08:33:51Z</time>
      </trkpt>
      <trkpt lat="43.49822" lon="1.50493">
        <ele>248.8</ele>
        <time>2022-05-16T08:33:52Z</time>
      </trkpt>
      <trkpt lat="43.49824" lon="1.50488">
        <ele>248.7</ele>
        <time>2022-05-16T08:33:53Z</time>
      </trkpt>
      <trkpt lat="43.49827" lon="1.50483">
        <ele>248.5</ele>
        <time>2022-05-16T08:33:54Z</time>
      </trkpt>
      <trkpt lat="43.4983" lon="1.50478">
        <ele>248.4</ele>
        <time>2022-05-16T08:33:55Z</time>
      </trkpt>
      <trkpt lat="43.49832" lon="1.50471">
        <ele>248.2</ele>
        <time>2022-05-16T08:33:56Z</time>
      </trkpt>
      <trkpt lat="43.49835" lon="1.50466">
        <ele>248</ele>
        <time>2022-05-16T08:33:57Z</time>
      </trkpt>
      <trkpt lat="43.49836" lon="1.50462">
        <ele>247.9</ele>
        <time>2022-05-16T08:33:58Z</time>
      </trkpt>
      <trkpt lat="43.49838" lon="1.50459">
        <ele>247.9</ele>
        <time>2022-05-16T08:33:59Z</time>
      </trkpt>
      <trkpt lat="43.49841" lon="1.50457">
        <ele>247.7</ele>
        <time>2022-05-16T08:34:00Z</time>
      </trkpt>
      <trkpt lat="43.49842" lon="1.50456">
        <ele>247.7</ele>
        <time>2022-05-16T08:34:01Z</time>
      </trkpt>
      <trkpt lat="43.49845" lon="1.50453">
        <ele>247.6</ele>
        <time>2022-05-16T08:34:02Z</time>
      </trkpt>
      <trkpt lat="43.49848" lon="1.50451">
        <ele>247.6</ele>
        <time>2022-05-16T08:34:03Z</time>
      </trkpt>
      <trkpt lat="43.49852" lon="1.50449">
        <ele>247.5</ele>
        <time>2022-05-16T08:34:04Z</time>
      </trkpt>
      <trkpt lat="43.49855" lon="1.50449">
        <ele>247.4</ele>
        <time>2022-05-16T08:34:05Z</time>
      </trkpt>
      <trkpt lat="43.49859" lon="1.50448">
        <ele>247.3</ele>
        <time>2022-05-16T08:34:06Z</time>
      </trkpt>
      <trkpt lat="43.49863" lon="1.50448">
        <ele>247.2</ele>
        <time>2022-05-16T08:34:07Z</time>
      </trkpt>
      <trkpt lat="43.49868" lon="1.50446">
        <ele>247.1</ele>
        <time>2022-05-16T08:34:08Z</time>
      </trkpt>
      <trkpt lat="43.49872" lon="1.50444">
        <ele>246.9</ele>
        <time>2022-05-16T08:34:09Z</time>
      </trkpt>
      <trkpt lat="43.49876" lon="1.50442">
        <ele>246.8</ele>
        <time>2022-05-16T08:34:10Z</time>
      </trkpt>
      <trkpt lat="43.4988" lon="1.50439">
        <ele>246.7</ele>
        <time>2022-05-16T08:34:11Z</time>
      </trkpt>
      <trkpt lat="43.49884" lon="1.50434">
        <ele>246.6</ele>
        <time>2022-05-16T08:34:12Z</time>
      </trkpt>
      <trkpt lat="43.49887" lon="1.5043">
        <ele>246.5</ele>
        <time>2022-05-16T08:34:13Z</time>
      </trkpt>
      <trkpt lat="43.49891" lon="1.50426">
        <ele>246.3</ele>
        <time>2022-05-16T08:34:14Z</time>
      </trkpt>
      <trkpt lat="43.49895" lon="1.50421">
        <ele>246.2</ele>
        <time>2022-05-16T08:34:15Z</time>
      </trkpt>
      <trkpt lat="43.49899" lon="1.50416">
        <ele>246.1</ele>
        <time>2022-05-16T08:34:16Z</time>
      </trkpt>
      <trkpt lat="43.49904" lon="1.50411">
        <ele>246</ele>
        <time>2022-05-16T08:34:17Z</time>
      </trkpt>
      <trkpt lat="43.49908" lon="1.50406">
        <ele>246</ele>
        <time>2022-05-16T08:34:18Z</time>
      </trkpt>
      <trkpt lat="43.49912" lon="1.50401">
        <ele>245.9</ele>
        <time>2022-05-16T08:34:19Z</time>
      </trkpt>
      <trkpt lat="43.49916" lon="1.50397">
        <ele>245.8</ele>
        <time>2022-05-16T08:34:20Z</time>
      </trkpt>
      <trkpt lat="43.4992" lon="1.50392">
        <ele>245.7</ele>
        <time>2022-05-16T08:34:21Z</time>
      </trkpt>
      <trkpt lat="43.49923" lon="1.50387">
        <ele>245.4</ele>
        <time>2022-05-16T08:34:22Z</time>
      </trkpt>
      <trkpt lat="43.49923" lon="1.50382">
        <ele>245.2</ele>
        <time>2022-05-16T08:34:23Z</time>
      </trkpt>
      <trkpt lat="43.49922" lon="1.50377">
        <ele>245.1</ele>
        <time>2022-05-16T08:34:24Z</time>
      </trkpt>
      <trkpt lat="43.4992" lon="1.50373">
        <ele>244.8</ele>
        <time>2022-05-16T08:34:25Z</time>
      </trkpt>
      <trkpt lat="43.49917" lon="1.50369">
        <ele>244.6</ele>
        <time>2022-05-16T08:34:26Z</time>
      </trkpt>
      <trkpt lat="43.49915" lon="1.50365">
        <ele>244.4</ele>
        <time>2022-05-16T08:34:27Z</time>
      </trkpt>
      <trkpt lat="43.49912" lon="1.50361">
        <ele>244</ele>
        <time>2022-05-16T08:34:28Z</time>
      </trkpt>
      <trkpt lat="43.49908" lon="1.50358">
        <ele>243.6</ele>
        <time>2022-05-16T08:34:29Z</time>
      </trkpt>
      <trkpt lat="43.49903" lon="1.50353">
        <ele>243.2</ele>
        <time>2022-05-16T08:34:30Z</time>
      </trkpt>
      <trkpt lat="43.49898" lon="1.50349">
        <ele>242.7</ele>
        <time>2022-05-16T08:34:31Z</time>
      </trkpt>
      <trkpt lat="43.49893" lon="1.50344">
        <ele>242.1</ele>
        <time>2022-05-16T08:34:32Z</time>
      </trkpt>
      <trkpt lat="43.49887" lon="1.5034">
        <ele>241.5</ele>
        <time>2022-05-16T08:34:33Z</time>
      </trkpt>
      <trkpt lat="43.49881" lon="1.50333">
        <ele>240.8</ele>
        <time>2022-05-16T08:34:34Z</time>
      </trkpt>
      <trkpt lat="43.49875" lon="1.50327">
        <ele>240.1</ele>
        <time>2022-05-16T08:34:35Z</time>
      </trkpt>
      <trkpt lat="43.49869" lon="1.5032">
        <ele>239.5</ele>
        <time>2022-05-16T08:34:36Z</time>
      </trkpt>
      <trkpt lat="43.49861" lon="1.50313">
        <ele>238.9</ele>
        <time>2022-05-16T08:34:37Z</time>
      </trkpt>
      <trkpt lat="43.49855" lon="1.50306">
        <ele>238.4</ele>
        <time>2022-05-16T08:34:38Z</time>
      </trkpt>
      <trkpt lat="43.49849" lon="1.50297">
        <ele>237.9</ele>
        <time>2022-05-16T08:34:39Z</time>
      </trkpt>
      <trkpt lat="43.49843" lon="1.50289">
        <ele>237.3</ele>
        <time>2022-05-16T08:34:40Z</time>
      </trkpt>
      <trkpt lat="43.49837" lon="1.5028">
        <ele>236.7</ele>
        <time>2022-05-16T08:34:41Z</time>
      </trkpt>
      <trkpt lat="43.49831" lon="1.5027">
        <ele>236</ele>
        <time>2022-05-16T08:34:42Z</time>
      </trkpt>
      <trkpt lat="43.49825" lon="1.5026">
        <ele>235.3</ele>
        <time>2022-05-16T08:34:43Z</time>
      </trkpt>
      <trkpt lat="43.49819" lon="1.5025">
        <ele>234.5</ele>
        <time>2022-05-16T08:34:44Z</time>
      </trkpt>
      <trkpt lat="43.49812" lon="1.50239">
        <ele>233.7</ele>
        <time>2022-05-16T08:34:45Z</time>
      </trkpt>
      <trkpt lat="43.49805" lon="1.50229">
        <ele>232.7</ele>
        <time>2022-05-16T08:34:46Z</time>
      </trkpt>
      <trkpt lat="43.49798" lon="1.5022">
        <ele>231.9</ele>
        <time>2022-05-16T08:34:47Z</time>
      </trkpt>
      <trkpt lat="43.49791" lon="1.50211">
        <ele>231.2</ele>
        <time>2022-05-16T08:34:48Z</time>
      </trkpt>
      <trkpt lat="43.49786" lon="1.50204">
        <ele>230.7</ele>
        <time>2022-05-16T08:34:49Z</time>
      </trkpt>
      <trkpt lat="43.4978" lon="1.50196">
        <ele>230.3</ele>
        <time>2022-05-16T08:34:50Z</time>
      </trkpt>
      <trkpt lat="43.49775" lon="1.50188">
        <ele>230.1</ele>
        <time>2022-05-16T08:34:51Z</time>
      </trkpt>
      <trkpt lat="43.4977" lon="1.50179">
        <ele>230</ele>
        <time>2022-05-16T08:34:52Z</time>
      </trkpt>
      <trkpt lat="43.49765" lon="1.5017">
        <ele>229.9</ele>
        <time>2022-05-16T08:34:53Z</time>
      </trkpt>
      <trkpt lat="43.49763" lon="1.50161">
        <ele>230</ele>
        <time>2022-05-16T08:34:54Z</time>
      </trkpt>
      <trkpt lat="43.4976" lon="1.50153">
        <ele>230.1</ele>
        <time>2022-05-16T08:34:55Z</time>
      </trkpt>
      <trkpt lat="43.49759" lon="1.50145">
        <ele>230.2</ele>
        <time>2022-05-16T08:34:56Z</time>
      </trkpt>
      <trkpt lat="43.49759" lon="1.5014">
        <ele>230.3</ele>
        <time>2022-05-16T08:34:57Z</time>
      </trkpt>
      <trkpt lat="43.49758" lon="1.5013">
        <ele>230.6</ele>
        <time>2022-05-16T08:34:58Z</time>
      </trkpt>
      <trkpt lat="43.49757" lon="1.50125">
        <ele>230.7</ele>
        <time>2022-05-16T08:34:59Z</time>
      </trkpt>
      <trkpt lat="43.49756" lon="1.50118">
        <ele>231.3</ele>
        <time>2022-05-16T08:35:00Z</time>
      </trkpt>
      <trkpt lat="43.49756" lon="1.50111">
        <ele>231.8</ele>
        <time>2022-05-16T08:35:01Z</time>
      </trkpt>
      <trkpt lat="43.49756" lon="1.50105">
        <ele>232.3</ele>
        <time>2022-05-16T08:35:02Z</time>
      </trkpt>
      <trkpt lat="43.49756" lon="1.501">
        <ele>232.8</ele>
        <time>2022-05-16T08:35:03Z</time>
      </trkpt>
      <trkpt lat="43.49754" lon="1.50094">
        <ele>233.4</ele>
        <time>2022-05-16T08:35:04Z</time>
      </trkpt>
      <trkpt lat="43.49753" lon="1.50088">
        <ele>234</ele>
        <time>2022-05-16T08:35:05Z</time>
      </trkpt>
      <trkpt lat="43.49751" lon="1.50084">
        <ele>234.4</ele>
        <time>2022-05-16T08:35:06Z</time>
      </trkpt>
      <trkpt lat="43.49749" lon="1.50079">
        <ele>234.9</ele>
        <time>2022-05-16T08:35:07Z</time>
      </trkpt>
      <trkpt lat="43.49748" lon="1.50074">
        <ele>235.3</ele>
        <time>2022-05-16T08:35:08Z</time>
      </trkpt>
      <trkpt lat="43.49746" lon="1.5007">
        <ele>235.7</ele>
        <time>2022-05-16T08:35:09Z</time>
      </trkpt>
      <trkpt lat="43.49745" lon="1.50064">
        <ele>236.1</ele>
        <time>2022-05-16T08:35:10Z</time>
      </trkpt>
      <trkpt lat="43.49743" lon="1.5006">
        <ele>236.4</ele>
        <time>2022-05-16T08:35:11Z</time>
      </trkpt>
      <trkpt lat="43.4974" lon="1.50056">
        <ele>236.7</ele>
        <time>2022-05-16T08:35:12Z</time>
      </trkpt>
      <trkpt lat="43.49738" lon="1.5005">
        <ele>237.1</ele>
        <time>2022-05-16T08:35:13Z</time>
      </trkpt>
      <trkpt lat="43.49737" lon="1.50045">
        <ele>237.5</ele>
        <time>2022-05-16T08:35:15Z</time>
      </trkpt>
      <trkpt lat="43.49734" lon="1.5004">
        <ele>237.8</ele>
        <time>2022-05-16T08:35:16Z</time>
      </trkpt>
      <trkpt lat="43.49733" lon="1.50036">
        <ele>238.1</ele>
        <time>2022-05-16T08:35:17Z</time>
      </trkpt>
      <trkpt lat="43.49731" lon="1.50032">
        <ele>238.5</ele>
        <time>2022-05-16T08:35:18Z</time>
      </trkpt>
      <trkpt lat="43.4973" lon="1.50026">
        <ele>238.9</ele>
        <time>2022-05-16T08:35:19Z</time>
      </trkpt>
      <trkpt lat="43.49729" lon="1.50021">
        <ele>239.3</ele>
        <time>2022-05-16T08:35:20Z</time>
      </trkpt>
      <trkpt lat="43.49728" lon="1.50015">
        <ele>239.8</ele>
        <time>2022-05-16T08:35:21Z</time>
      </trkpt>
      <trkpt lat="43.49727" lon="1.5001">
        <ele>240.2</ele>
        <time>2022-05-16T08:35:22Z</time>
      </trkpt>
      <trkpt lat="43.49726" lon="1.50006">
        <ele>240.6</ele>
        <time>2022-05-16T08:35:23Z</time>
      </trkpt>
      <trkpt lat="43.49726" lon="1.50001">
        <ele>241.1</ele>
        <time>2022-05-16T08:35:24Z</time>
      </trkpt>
      <trkpt lat="43.49726" lon="1.49996">
        <ele>241.5</ele>
        <time>2022-05-16T08:35:25Z</time>
      </trkpt>
      <trkpt lat="43.49726" lon="1.49992">
        <ele>242</ele>
        <time>2022-05-16T08:35:26Z</time>
      </trkpt>
      <trkpt lat="43.49725" lon="1.49986">
        <ele>242.5</ele>
        <time>2022-05-16T08:35:27Z</time>
      </trkpt>
      <trkpt lat="43.49725" lon="1.49982">
        <ele>243</ele>
        <time>2022-05-16T08:35:28Z</time>
      </trkpt>
      <trkpt lat="43.49724" lon="1.49977">
        <ele>243.5</ele>
        <time>2022-05-16T08:35:29Z</time>
      </trkpt>
      <trkpt lat="43.49723" lon="1.49973">
        <ele>244</ele>
        <time>2022-05-16T08:35:30Z</time>
      </trkpt>
      <trkpt lat="43.49721" lon="1.49969">
        <ele>244.5</ele>
        <time>2022-05-16T08:35:31Z</time>
      </trkpt>
      <trkpt lat="43.49719" lon="1.49965">
        <ele>245.1</ele>
        <time>2022-05-16T08:35:32Z</time>
      </trkpt>
      <trkpt lat="43.49716" lon="1.49963">
        <ele>245.6</ele>
        <time>2022-05-16T08:35:33Z</time>
      </trkpt>
      <trkpt lat="43.49713" lon="1.4996">
        <ele>246.1</ele>
        <time>2022-05-16T08:35:34Z</time>
      </trkpt>
      <trkpt lat="43.49711" lon="1.49958">
        <ele>246.6</ele>
        <time>2022-05-16T08:35:35Z</time>
      </trkpt>
      <trkpt lat="43.49708" lon="1.49956">
        <ele>247.1</ele>
        <time>2022-05-16T08:35:36Z</time>
      </trkpt>
      <trkpt lat="43.49705" lon="1.49953">
        <ele>247.6</ele>
        <time>2022-05-16T08:35:37Z</time>
      </trkpt>
      <trkpt lat="43.49703" lon="1.49951">
        <ele>248.2</ele>
        <time>2022-05-16T08:35:38Z</time>
      </trkpt>
      <trkpt lat="43.49701" lon="1.49948">
        <ele>248.8</ele>
        <time>2022-05-16T08:35:39Z</time>
      </trkpt>
      <trkpt lat="43.49696" lon="1.49943">
        <ele>249.9</ele>
        <time>2022-05-16T08:35:40Z</time>
      </trkpt>
      <trkpt lat="43.49694" lon="1.49941">
        <ele>250.5</ele>
        <time>2022-05-16T08:35:41Z</time>
      </trkpt>
      <trkpt lat="43.49691" lon="1.49937">
        <ele>251.2</ele>
        <time>2022-05-16T08:35:42Z</time>
      </trkpt>
      <trkpt lat="43.4969" lon="1.49936">
        <ele>251.4</ele>
        <time>2022-05-16T08:35:43Z</time>
      </trkpt>
      <trkpt lat="43.49689" lon="1.49931">
        <ele>252.1</ele>
        <time>2022-05-16T08:35:44Z</time>
      </trkpt>
      <trkpt lat="43.49688" lon="1.49929">
        <ele>253</ele>
        <time>2022-05-16T08:35:45Z</time>
      </trkpt>
      <trkpt lat="43.4969" lon="1.49926">
        <ele>252.9</ele>
        <time>2022-05-16T08:35:46Z</time>
      </trkpt>
      <trkpt lat="43.49693" lon="1.49922">
        <ele>252.8</ele>
        <time>2022-05-16T08:35:47Z</time>
      </trkpt>
      <trkpt lat="43.49695" lon="1.49918">
        <ele>252.7</ele>
        <time>2022-05-16T08:35:48Z</time>
      </trkpt>
      <trkpt lat="43.49698" lon="1.49914">
        <ele>252.5</ele>
        <time>2022-05-16T08:35:49Z</time>
      </trkpt>
      <trkpt lat="43.49701" lon="1.49909">
        <ele>252.4</ele>
        <time>2022-05-16T08:35:50Z</time>
      </trkpt>
      <trkpt lat="43.49704" lon="1.49905">
        <ele>252.3</ele>
        <time>2022-05-16T08:35:51Z</time>
      </trkpt>
      <trkpt lat="43.49707" lon="1.499">
        <ele>252.1</ele>
        <time>2022-05-16T08:35:52Z</time>
      </trkpt>
      <trkpt lat="43.49709" lon="1.49894">
        <ele>252</ele>
        <time>2022-05-16T08:35:53Z</time>
      </trkpt>
      <trkpt lat="43.49712" lon="1.49889">
        <ele>251.9</ele>
        <time>2022-05-16T08:35:54Z</time>
      </trkpt>
      <trkpt lat="43.49715" lon="1.49884">
        <ele>251.8</ele>
        <time>2022-05-16T08:35:55Z</time>
      </trkpt>
      <trkpt lat="43.49718" lon="1.49879">
        <ele>251.7</ele>
        <time>2022-05-16T08:35:56Z</time>
      </trkpt>
      <trkpt lat="43.49721" lon="1.49874">
        <ele>251.6</ele>
        <time>2022-05-16T08:35:57Z</time>
      </trkpt>
      <trkpt lat="43.49724" lon="1.49869">
        <ele>251.5</ele>
        <time>2022-05-16T08:35:58Z</time>
      </trkpt>
      <trkpt lat="43.49726" lon="1.49863">
        <ele>251.4</ele>
        <time>2022-05-16T08:35:59Z</time>
      </trkpt>
      <trkpt lat="43.49729" lon="1.49859">
        <ele>251.4</ele>
        <time>2022-05-16T08:36:00Z</time>
      </trkpt>
      <trkpt lat="43.49732" lon="1.49854">
        <ele>251.3</ele>
        <time>2022-05-16T08:36:01Z</time>
      </trkpt>
      <trkpt lat="43.49735" lon="1.49849">
        <ele>251.3</ele>
        <time>2022-05-16T08:36:02Z</time>
      </trkpt>
      <trkpt lat="43.49738" lon="1.49844">
        <ele>251.3</ele>
        <time>2022-05-16T08:36:03Z</time>
      </trkpt>
      <trkpt lat="43.49741" lon="1.4984">
        <ele>251.2</ele>
        <time>2022-05-16T08:36:04Z</time>
      </trkpt>
      <trkpt lat="43.49744" lon="1.49835">
        <ele>251.2</ele>
        <time>2022-05-16T08:36:05Z</time>
      </trkpt>
      <trkpt lat="43.49746" lon="1.49831">
        <ele>251.2</ele>
        <time>2022-05-16T08:36:06Z</time>
      </trkpt>
      <trkpt lat="43.49749" lon="1.49826">
        <ele>251.2</ele>
        <time>2022-05-16T08:36:07Z</time>
      </trkpt>
      <trkpt lat="43.49752" lon="1.49822">
        <ele>251.1</ele>
        <time>2022-05-16T08:36:08Z</time>
      </trkpt>
      <trkpt lat="43.49754" lon="1.49818">
        <ele>251.1</ele>
        <time>2022-05-16T08:36:09Z</time>
      </trkpt>
      <trkpt lat="43.49757" lon="1.49814">
        <ele>251.1</ele>
        <time>2022-05-16T08:36:10Z</time>
      </trkpt>
      <trkpt lat="43.49759" lon="1.4981">
        <ele>251.1</ele>
        <time>2022-05-16T08:36:11Z</time>
      </trkpt>
      <trkpt lat="43.4976" lon="1.49809">
        <ele>251.1</ele>
        <time>2022-05-16T08:36:12Z</time>
      </trkpt>
      <trkpt lat="43.49761" lon="1.49807">
        <ele>251.1</ele>
        <time>2022-05-16T08:36:13Z</time>
      </trkpt>
      <trkpt lat="43.49763" lon="1.49804">
        <ele>251.1</ele>
        <time>2022-05-16T08:36:14Z</time>
      </trkpt>
      <trkpt lat="43.49765" lon="1.49801">
        <ele>251.1</ele>
        <time>2022-05-16T08:36:15Z</time>
      </trkpt>
      <trkpt lat="43.49768" lon="1.49797">
        <ele>251</ele>
        <time>2022-05-16T08:36:16Z</time>
      </trkpt>
      <trkpt lat="43.4977" lon="1.49794">
        <ele>251</ele>
        <time>2022-05-16T08:36:17Z</time>
      </trkpt>
      <trkpt lat="43.49773" lon="1.4979">
        <ele>251</ele>
        <time>2022-05-16T08:36:18Z</time>
      </trkpt>
      <trkpt lat="43.49776" lon="1.49787">
        <ele>251</ele>
        <time>2022-05-16T08:36:19Z</time>
      </trkpt>
      <trkpt lat="43.49779" lon="1.49783">
        <ele>251</ele>
        <time>2022-05-16T08:36:20Z</time>
      </trkpt>
      <trkpt lat="43.49781" lon="1.49779">
        <ele>251</ele>
        <time>2022-05-16T08:36:21Z</time>
      </trkpt>
      <trkpt lat="43.49784" lon="1.49776">
        <ele>251</ele>
        <time>2022-05-16T08:36:22Z</time>
      </trkpt>
      <trkpt lat="43.49785" lon="1.49776">
        <ele>251</ele>
        <time>2022-05-16T08:36:23Z</time>
      </trkpt>
      <trkpt lat="43.49786" lon="1.49776">
        <ele>251</ele>
        <time>2022-05-16T08:36:25Z</time>
      </trkpt>
      <trkpt lat="43.49787" lon="1.49777">
        <ele>250.9</ele>
        <time>2022-05-16T08:36:27Z</time>
      </trkpt>
      <trkpt lat="43.49791" lon="1.49779">
        <ele>250.9</ele>
        <time>2022-05-16T08:36:29Z</time>
      </trkpt>
      <trkpt lat="43.49792" lon="1.49779">
        <ele>250.9</ele>
        <time>2022-05-16T08:36:30Z</time>
      </trkpt>
      <trkpt lat="43.49796" lon="1.49781">
        <ele>250.9</ele>
        <time>2022-05-16T08:36:31Z</time>
      </trkpt>
      <trkpt lat="43.49798" lon="1.49781">
        <ele>250.9</ele>
        <time>2022-05-16T08:36:32Z</time>
      </trkpt>
      <trkpt lat="43.49802" lon="1.49781">
        <ele>250.9</ele>
        <time>2022-05-16T08:36:33Z</time>
      </trkpt>
      <trkpt lat="43.49806" lon="1.49779">
        <ele>250.8</ele>
        <time>2022-05-16T08:36:34Z</time>
      </trkpt>
      <trkpt lat="43.49809" lon="1.49777">
        <ele>250.8</ele>
        <time>2022-05-16T08:36:35Z</time>
      </trkpt>
      <trkpt lat="43.49811" lon="1.49773">
        <ele>250.8</ele>
        <time>2022-05-16T08:36:36Z</time>
      </trkpt>
      <trkpt lat="43.49813" lon="1.49769">
        <ele>250.8</ele>
        <time>2022-05-16T08:36:37Z</time>
      </trkpt>
      <trkpt lat="43.49816" lon="1.49766">
        <ele>250.8</ele>
        <time>2022-05-16T08:36:38Z</time>
      </trkpt>
      <trkpt lat="43.49818" lon="1.49762">
        <ele>250.8</ele>
        <time>2022-05-16T08:36:39Z</time>
      </trkpt>
      <trkpt lat="43.49818" lon="1.49758">
        <ele>250.8</ele>
        <time>2022-05-16T08:36:40Z</time>
      </trkpt>
      <trkpt lat="43.49822" lon="1.49758">
        <ele>250.8</ele>
        <time>2022-05-16T08:36:41Z</time>
      </trkpt>
      <trkpt lat="43.49824" lon="1.49758">
        <ele>248.9</ele>
        <time>2022-05-16T08:36:42Z</time>
      </trkpt>
      <trkpt lat="43.49827" lon="1.4976">
        <ele>248.6</ele>
        <time>2022-05-16T08:36:43Z</time>
      </trkpt>
      <trkpt lat="43.49831" lon="1.49761">
        <ele>248.2</ele>
        <time>2022-05-16T08:36:44Z</time>
      </trkpt>
      <trkpt lat="43.49835" lon="1.49761">
        <ele>247.7</ele>
        <time>2022-05-16T08:36:45Z</time>
      </trkpt>
      <trkpt lat="43.4984" lon="1.49764">
        <ele>247.2</ele>
        <time>2022-05-16T08:36:46Z</time>
      </trkpt>
      <trkpt lat="43.49844" lon="1.49767">
        <ele>246.6</ele>
        <time>2022-05-16T08:36:47Z</time>
      </trkpt>
      <trkpt lat="43.4985" lon="1.49767">
        <ele>245.9</ele>
        <time>2022-05-16T08:36:48Z</time>
      </trkpt>
      <trkpt lat="43.49855" lon="1.49767">
        <ele>245.1</ele>
        <time>2022-05-16T08:36:49Z</time>
      </trkpt>
      <trkpt lat="43.49859" lon="1.49771">
        <ele>244.5</ele>
        <time>2022-05-16T08:36:50Z</time>
      </trkpt>
      <trkpt lat="43.49862" lon="1.49776">
        <ele>244</ele>
        <time>2022-05-16T08:36:51Z</time>
      </trkpt>
      <trkpt lat="43.4987" lon="1.49781">
        <ele>243</ele>
        <time>2022-05-16T08:36:52Z</time>
      </trkpt>
      <trkpt lat="43.49875" lon="1.49788">
        <ele>242.3</ele>
        <time>2022-05-16T08:36:53Z</time>
      </trkpt>
      <trkpt lat="43.4988" lon="1.49791">
        <ele>241.6</ele>
        <time>2022-05-16T08:36:54Z</time>
      </trkpt>
      <trkpt lat="43.49888" lon="1.49788">
        <ele>240.8</ele>
        <time>2022-05-16T08:36:55Z</time>
      </trkpt>
      <trkpt lat="43.49892" lon="1.49784">
        <ele>240.2</ele>
        <time>2022-05-16T08:36:56Z</time>
      </trkpt>
      <trkpt lat="43.49896" lon="1.49782">
        <ele>239.6</ele>
        <time>2022-05-16T08:36:57Z</time>
      </trkpt>
      <trkpt lat="43.49899" lon="1.49783">
        <ele>239.3</ele>
        <time>2022-05-16T08:36:58Z</time>
      </trkpt>
      <trkpt lat="43.49903" lon="1.49781">
        <ele>238.8</ele>
        <time>2022-05-16T08:36:59Z</time>
      </trkpt>
      <trkpt lat="43.49907" lon="1.49786">
        <ele>238</ele>
        <time>2022-05-16T08:37:00Z</time>
      </trkpt>
      <trkpt lat="43.49911" lon="1.49791">
        <ele>237.4</ele>
        <time>2022-05-16T08:37:01Z</time>
      </trkpt>
      <trkpt lat="43.49914" lon="1.49799">
        <ele>236.8</ele>
        <time>2022-05-16T08:37:02Z</time>
      </trkpt>
      <trkpt lat="43.49916" lon="1.49803">
        <ele>236.4</ele>
        <time>2022-05-16T08:37:03Z</time>
      </trkpt>
      <trkpt lat="43.49923" lon="1.49804">
        <ele>235.8</ele>
        <time>2022-05-16T08:37:04Z</time>
      </trkpt>
      <trkpt lat="43.4993" lon="1.49804">
        <ele>235.1</ele>
        <time>2022-05-16T08:37:05Z</time>
      </trkpt>
      <trkpt lat="43.49936" lon="1.49807">
        <ele>234.6</ele>
        <time>2022-05-16T08:37:06Z</time>
      </trkpt>
      <trkpt lat="43.4994" lon="1.49801">
        <ele>234.1</ele>
        <time>2022-05-16T08:37:07Z</time>
      </trkpt>
      <trkpt lat="43.49942" lon="1.49797">
        <ele>233.7</ele>
        <time>2022-05-16T08:37:08Z</time>
      </trkpt>
      <trkpt lat="43.49947" lon="1.49799">
        <ele>233.1</ele>
        <time>2022-05-16T08:37:09Z</time>
      </trkpt>
      <trkpt lat="43.49951" lon="1.49795">
        <ele>232.4</ele>
        <time>2022-05-16T08:37:10Z</time>
      </trkpt>
      <trkpt lat="43.49957" lon="1.49795">
        <ele>231.7</ele>
        <time>2022-05-16T08:37:11Z</time>
      </trkpt>
      <trkpt lat="43.49963" lon="1.49795">
        <ele>230.8</ele>
        <time>2022-05-16T08:37:12Z</time>
      </trkpt>
      <trkpt lat="43.49969" lon="1.49797">
        <ele>229.9</ele>
        <time>2022-05-16T08:37:13Z</time>
      </trkpt>
      <trkpt lat="43.49973" lon="1.49803">
        <ele>229.1</ele>
        <time>2022-05-16T08:37:14Z</time>
      </trkpt>
      <trkpt lat="43.49977" lon="1.49813">
        <ele>227.8</ele>
        <time>2022-05-16T08:37:15Z</time>
      </trkpt>
      <trkpt lat="43.49983" lon="1.49821">
        <ele>226.7</ele>
        <time>2022-05-16T08:37:16Z</time>
      </trkpt>
      <trkpt lat="43.49987" lon="1.49828">
        <ele>225.8</ele>
        <time>2022-05-16T08:37:17Z</time>
      </trkpt>
      <trkpt lat="43.49986" lon="1.49838">
        <ele>224.9</ele>
        <time>2022-05-16T08:37:18Z</time>
      </trkpt>
      <trkpt lat="43.49988" lon="1.4985">
        <ele>223.7</ele>
        <time>2022-05-16T08:37:19Z</time>
      </trkpt>
      <trkpt lat="43.49986" lon="1.49859">
        <ele>222.8</ele>
        <time>2022-05-16T08:37:21Z</time>
      </trkpt>
      <trkpt lat="43.49985" lon="1.49871">
        <ele>221.5</ele>
        <time>2022-05-16T08:37:22Z</time>
      </trkpt>
      <trkpt lat="43.49984" lon="1.49879">
        <ele>220.7</ele>
        <time>2022-05-16T08:37:23Z</time>
      </trkpt>
      <trkpt lat="43.49986" lon="1.49884">
        <ele>220</ele>
        <time>2022-05-16T08:37:24Z</time>
      </trkpt>
      <trkpt lat="43.49993" lon="1.4989">
        <ele>218.8</ele>
        <time>2022-05-16T08:37:25Z</time>
      </trkpt>
      <trkpt lat="43.49998" lon="1.49898">
        <ele>217.7</ele>
        <time>2022-05-16T08:37:26Z</time>
      </trkpt>
      <trkpt lat="43.50003" lon="1.49905">
        <ele>216.7</ele>
        <time>2022-05-16T08:37:27Z</time>
      </trkpt>
      <trkpt lat="43.50006" lon="1.4991">
        <ele>216</ele>
        <time>2022-05-16T08:37:28Z</time>
      </trkpt>
      <trkpt lat="43.50009" lon="1.49916">
        <ele>215.4</ele>
        <time>2022-05-16T08:37:29Z</time>
      </trkpt>
      <trkpt lat="43.50013" lon="1.49914">
        <ele>215</ele>
        <time>2022-05-16T08:37:30Z</time>
      </trkpt>
      <trkpt lat="43.50015" lon="1.49914">
        <ele>214.8</ele>
        <time>2022-05-16T08:37:31Z</time>
      </trkpt>
      <trkpt lat="43.50022" lon="1.49913">
        <ele>214.1</ele>
        <time>2022-05-16T08:37:32Z</time>
      </trkpt>
      <trkpt lat="43.50027" lon="1.4991">
        <ele>213.7</ele>
        <time>2022-05-16T08:37:33Z</time>
      </trkpt>
      <trkpt lat="43.5003" lon="1.49905">
        <ele>213.5</ele>
        <time>2022-05-16T08:37:34Z</time>
      </trkpt>
      <trkpt lat="43.50035" lon="1.49905">
        <ele>213.3</ele>
        <time>2022-05-16T08:37:35Z</time>
      </trkpt>
      <trkpt lat="43.50042" lon="1.49904">
        <ele>213.1</ele>
        <time>2022-05-16T08:37:36Z</time>
      </trkpt>
      <trkpt lat="43.50048" lon="1.49902">
        <ele>213.1</ele>
        <time>2022-05-16T08:37:37Z</time>
      </trkpt>
      <trkpt lat="43.50052" lon="1.49894">
        <ele>213.1</ele>
        <time>2022-05-16T08:37:38Z</time>
      </trkpt>
      <trkpt lat="43.50055" lon="1.49885">
        <ele>212.9</ele>
        <time>2022-05-16T08:37:39Z</time>
      </trkpt>
      <trkpt lat="43.50058" lon="1.49878">
        <ele>212.7</ele>
        <time>2022-05-16T08:37:40Z</time>
      </trkpt>
      <trkpt lat="43.50054" lon="1.49874">
        <ele>212.5</ele>
        <time>2022-05-16T08:37:41Z</time>
      </trkpt>
      <trkpt lat="43.50054" lon="1.49868">
        <ele>212.2</ele>
        <time>2022-05-16T08:37:42Z</time>
      </trkpt>
      <trkpt lat="43.50057" lon="1.49866">
        <ele>211.9</ele>
        <time>2022-05-16T08:37:43Z</time>
      </trkpt>
      <trkpt lat="43.50059" lon="1.49864">
        <ele>211.8</ele>
        <time>2022-05-16T08:37:44Z</time>
      </trkpt>
      <trkpt lat="43.5007" lon="1.49857">
        <ele>210.8</ele>
        <time>2022-05-16T08:37:45Z</time>
      </trkpt>
      <trkpt lat="43.50074" lon="1.4986">
        <ele>210.4</ele>
        <time>2022-05-16T08:37:46Z</time>
      </trkpt>
      <trkpt lat="43.50077" lon="1.49861">
        <ele>210.2</ele>
        <time>2022-05-16T08:37:47Z</time>
      </trkpt>
      <trkpt lat="43.50082" lon="1.49861">
        <ele>209.8</ele>
        <time>2022-05-16T08:37:48Z</time>
      </trkpt>
      <trkpt lat="43.50089" lon="1.49859">
        <ele>209.3</ele>
        <time>2022-05-16T08:37:49Z</time>
      </trkpt>
      <trkpt lat="43.50093" lon="1.49853">
        <ele>209</ele>
        <time>2022-05-16T08:37:50Z</time>
      </trkpt>
      <trkpt lat="43.50093" lon="1.49846">
        <ele>208.8</ele>
        <time>2022-05-16T08:37:51Z</time>
      </trkpt>
      <trkpt lat="43.50095" lon="1.49841">
        <ele>208.6</ele>
        <time>2022-05-16T08:37:52Z</time>
      </trkpt>
      <trkpt lat="43.501" lon="1.49837">
        <ele>208.4</ele>
        <time>2022-05-16T08:37:53Z</time>
      </trkpt>
      <trkpt lat="43.50107" lon="1.49836">
        <ele>208.2</ele>
        <time>2022-05-16T08:37:54Z</time>
      </trkpt>
      <trkpt lat="43.5011" lon="1.4983">
        <ele>208.1</ele>
        <time>2022-05-16T08:37:55Z</time>
      </trkpt>
      <trkpt lat="43.50113" lon="1.49828">
        <ele>208</ele>
        <time>2022-05-16T08:37:56Z</time>
      </trkpt>
      <trkpt lat="43.50118" lon="1.49827">
        <ele>207.8</ele>
        <time>2022-05-16T08:37:57Z</time>
      </trkpt>
      <trkpt lat="43.5012" lon="1.49826">
        <ele>207.7</ele>
        <time>2022-05-16T08:37:58Z</time>
      </trkpt>
      <trkpt lat="43.50122" lon="1.4982">
        <ele>207.6</ele>
        <time>2022-05-16T08:37:59Z</time>
      </trkpt>
      <trkpt lat="43.50129" lon="1.49814">
        <ele>207.2</ele>
        <time>2022-05-16T08:38:00Z</time>
      </trkpt>
      <trkpt lat="43.50133" lon="1.4981">
        <ele>207</ele>
        <time>2022-05-16T08:38:01Z</time>
      </trkpt>
      <trkpt lat="43.50137" lon="1.49807">
        <ele>206.7</ele>
        <time>2022-05-16T08:38:02Z</time>
      </trkpt>
      <trkpt lat="43.50138" lon="1.49802">
        <ele>206.4</ele>
        <time>2022-05-16T08:38:03Z</time>
      </trkpt>
      <trkpt lat="43.50141" lon="1.49798">
        <ele>206.1</ele>
        <time>2022-05-16T08:38:04Z</time>
      </trkpt>
      <trkpt lat="43.50143" lon="1.49791">
        <ele>205.8</ele>
        <time>2022-05-16T08:38:05Z</time>
      </trkpt>
      <trkpt lat="43.50148" lon="1.49787">
        <ele>205.5</ele>
        <time>2022-05-16T08:38:06Z</time>
      </trkpt>
      <trkpt lat="43.50155" lon="1.49786">
        <ele>205.2</ele>
        <time>2022-05-16T08:38:07Z</time>
      </trkpt>
      <trkpt lat="43.50162" lon="1.49782">
        <ele>204.9</ele>
        <time>2022-05-16T08:38:08Z</time>
      </trkpt>
      <trkpt lat="43.50167" lon="1.49776">
        <ele>204.6</ele>
        <time>2022-05-16T08:38:09Z</time>
      </trkpt>
      <trkpt lat="43.50174" lon="1.49772">
        <ele>204.4</ele>
        <time>2022-05-16T08:38:10Z</time>
      </trkpt>
      <trkpt lat="43.50179" lon="1.49768">
        <ele>204.2</ele>
        <time>2022-05-16T08:38:11Z</time>
      </trkpt>
      <trkpt lat="43.50183" lon="1.49765">
        <ele>203.9</ele>
        <time>2022-05-16T08:38:12Z</time>
      </trkpt>
      <trkpt lat="43.50186" lon="1.49758">
        <ele>203.6</ele>
        <time>2022-05-16T08:38:13Z</time>
      </trkpt>
      <trkpt lat="43.50191" lon="1.49755">
        <ele>203.4</ele>
        <time>2022-05-16T08:38:14Z</time>
      </trkpt>
      <trkpt lat="43.50194" lon="1.49747">
        <ele>203.1</ele>
        <time>2022-05-16T08:38:15Z</time>
      </trkpt>
      <trkpt lat="43.50199" lon="1.49748">
        <ele>202.9</ele>
        <time>2022-05-16T08:38:16Z</time>
      </trkpt>
      <trkpt lat="43.50206" lon="1.49746">
        <ele>202.7</ele>
        <time>2022-05-16T08:38:17Z</time>
      </trkpt>
      <trkpt lat="43.50212" lon="1.4974">
        <ele>202.6</ele>
        <time>2022-05-16T08:38:18Z</time>
      </trkpt>
      <trkpt lat="43.50218" lon="1.49734">
        <ele>202.5</ele>
        <time>2022-05-16T08:38:19Z</time>
      </trkpt>
      <trkpt lat="43.50222" lon="1.4973">
        <ele>202.4</ele>
        <time>2022-05-16T08:38:20Z</time>
      </trkpt>
      <trkpt lat="43.50228" lon="1.49727">
        <ele>202.4</ele>
        <time>2022-05-16T08:38:21Z</time>
      </trkpt>
      <trkpt lat="43.50234" lon="1.49723">
        <ele>202.3</ele>
        <time>2022-05-16T08:38:22Z</time>
      </trkpt>
      <trkpt lat="43.50239" lon="1.4972">
        <ele>202.2</ele>
        <time>2022-05-16T08:38:23Z</time>
      </trkpt>
      <trkpt lat="43.50245" lon="1.49718">
        <ele>202</ele>
        <time>2022-05-16T08:38:24Z</time>
      </trkpt>
      <trkpt lat="43.50251" lon="1.49715">
        <ele>201.8</ele>
        <time>2022-05-16T08:38:25Z</time>
      </trkpt>
      <trkpt lat="43.50257" lon="1.49713">
        <ele>201.6</ele>
        <time>2022-05-16T08:38:26Z</time>
      </trkpt>
      <trkpt lat="43.50262" lon="1.49708">
        <ele>201.3</ele>
        <time>2022-05-16T08:38:27Z</time>
      </trkpt>
      <trkpt lat="43.50268" lon="1.49705">
        <ele>201.1</ele>
        <time>2022-05-16T08:38:28Z</time>
      </trkpt>
      <trkpt lat="43.50273" lon="1.49707">
        <ele>200.8</ele>
        <time>2022-05-16T08:38:29Z</time>
      </trkpt>
      <trkpt lat="43.5028" lon="1.49709">
        <ele>200.5</ele>
        <time>2022-05-16T08:38:30Z</time>
      </trkpt>
      <trkpt lat="43.50286" lon="1.49703">
        <ele>200.2</ele>
        <time>2022-05-16T08:38:31Z</time>
      </trkpt>
      <trkpt lat="43.50291" lon="1.49698">
        <ele>199.9</ele>
        <time>2022-05-16T08:38:32Z</time>
      </trkpt>
      <trkpt lat="43.50296" lon="1.49694">
        <ele>199.6</ele>
        <time>2022-05-16T08:38:33Z</time>
      </trkpt>
      <trkpt lat="43.50302" lon="1.49689">
        <ele>199.4</ele>
        <time>2022-05-16T08:38:34Z</time>
      </trkpt>
      <trkpt lat="43.50308" lon="1.49685">
        <ele>199.1</ele>
        <time>2022-05-16T08:38:35Z</time>
      </trkpt>
      <trkpt lat="43.50314" lon="1.4968">
        <ele>198.9</ele>
        <time>2022-05-16T08:38:36Z</time>
      </trkpt>
      <trkpt lat="43.50319" lon="1.49675">
        <ele>198.7</ele>
        <time>2022-05-16T08:38:37Z</time>
      </trkpt>
      <trkpt lat="43.50325" lon="1.49671">
        <ele>198.5</ele>
        <time>2022-05-16T08:38:38Z</time>
      </trkpt>
      <trkpt lat="43.50331" lon="1.49667">
        <ele>198.3</ele>
        <time>2022-05-16T08:38:39Z</time>
      </trkpt>
      <trkpt lat="43.50337" lon="1.49663">
        <ele>198.1</ele>
        <time>2022-05-16T08:38:40Z</time>
      </trkpt>
      <trkpt lat="43.50343" lon="1.49659">
        <ele>197.9</ele>
        <time>2022-05-16T08:38:41Z</time>
      </trkpt>
      <trkpt lat="43.50349" lon="1.49656">
        <ele>197.7</ele>
        <time>2022-05-16T08:38:42Z</time>
      </trkpt>
      <trkpt lat="43.50354" lon="1.49651">
        <ele>197.4</ele>
        <time>2022-05-16T08:38:43Z</time>
      </trkpt>
      <trkpt lat="43.5036" lon="1.49646">
        <ele>197.2</ele>
        <time>2022-05-16T08:38:44Z</time>
      </trkpt>
      <trkpt lat="43.50364" lon="1.49641">
        <ele>196.9</ele>
        <time>2022-05-16T08:38:45Z</time>
      </trkpt>
      <trkpt lat="43.50369" lon="1.49635">
        <ele>196.7</ele>
        <time>2022-05-16T08:38:46Z</time>
      </trkpt>
      <trkpt lat="43.50374" lon="1.49628">
        <ele>196.5</ele>
        <time>2022-05-16T08:38:47Z</time>
      </trkpt>
      <trkpt lat="43.50379" lon="1.49622">
        <ele>196.3</ele>
        <time>2022-05-16T08:38:48Z</time>
      </trkpt>
      <trkpt lat="43.50384" lon="1.49615">
        <ele>196.1</ele>
        <time>2022-05-16T08:38:49Z</time>
      </trkpt>
      <trkpt lat="43.50387" lon="1.49608">
        <ele>195.9</ele>
        <time>2022-05-16T08:38:50Z</time>
      </trkpt>
      <trkpt lat="43.50391" lon="1.49602">
        <ele>195.7</ele>
        <time>2022-05-16T08:38:51Z</time>
      </trkpt>
      <trkpt lat="43.50395" lon="1.49596">
        <ele>195.5</ele>
        <time>2022-05-16T08:38:52Z</time>
      </trkpt>
      <trkpt lat="43.50399" lon="1.49591">
        <ele>195.4</ele>
        <time>2022-05-16T08:38:53Z</time>
      </trkpt>
      <trkpt lat="43.50404" lon="1.49585">
        <ele>195.1</ele>
        <time>2022-05-16T08:38:54Z</time>
      </trkpt>
      <trkpt lat="43.50409" lon="1.49579">
        <ele>194.9</ele>
        <time>2022-05-16T08:38:55Z</time>
      </trkpt>
      <trkpt lat="43.50414" lon="1.49574">
        <ele>194.6</ele>
        <time>2022-05-16T08:38:56Z</time>
      </trkpt>
      <trkpt lat="43.50419" lon="1.49569">
        <ele>194.3</ele>
        <time>2022-05-16T08:38:57Z</time>
      </trkpt>
      <trkpt lat="43.50424" lon="1.49564">
        <ele>194.1</ele>
        <time>2022-05-16T08:38:58Z</time>
      </trkpt>
      <trkpt lat="43.5043" lon="1.49559">
        <ele>193.8</ele>
        <time>2022-05-16T08:38:59Z</time>
      </trkpt>
      <trkpt lat="43.50435" lon="1.49553">
        <ele>193.6</ele>
        <time>2022-05-16T08:39:00Z</time>
      </trkpt>
      <trkpt lat="43.5044" lon="1.49548">
        <ele>193.3</ele>
        <time>2022-05-16T08:39:01Z</time>
      </trkpt>
      <trkpt lat="43.50445" lon="1.49542">
        <ele>193.1</ele>
        <time>2022-05-16T08:39:02Z</time>
      </trkpt>
      <trkpt lat="43.5045" lon="1.49537">
        <ele>192.8</ele>
        <time>2022-05-16T08:39:03Z</time>
      </trkpt>
      <trkpt lat="43.50456" lon="1.49532">
        <ele>192.5</ele>
        <time>2022-05-16T08:39:04Z</time>
      </trkpt>
      <trkpt lat="43.50462" lon="1.49525">
        <ele>192.1</ele>
        <time>2022-05-16T08:39:05Z</time>
      </trkpt>
      <trkpt lat="43.50467" lon="1.49521">
        <ele>191.8</ele>
        <time>2022-05-16T08:39:06Z</time>
      </trkpt>
      <trkpt lat="43.50472" lon="1.49515">
        <ele>191.4</ele>
        <time>2022-05-16T08:39:07Z</time>
      </trkpt>
      <trkpt lat="43.50478" lon="1.49509">
        <ele>191.1</ele>
        <time>2022-05-16T08:39:08Z</time>
      </trkpt>
      <trkpt lat="43.50484" lon="1.49503">
        <ele>190.6</ele>
        <time>2022-05-16T08:39:09Z</time>
      </trkpt>
      <trkpt lat="43.50489" lon="1.49497">
        <ele>190.2</ele>
        <time>2022-05-16T08:39:10Z</time>
      </trkpt>
      <trkpt lat="43.50495" lon="1.49492">
        <ele>189.8</ele>
        <time>2022-05-16T08:39:11Z</time>
      </trkpt>
      <trkpt lat="43.50501" lon="1.49486">
        <ele>189.4</ele>
        <time>2022-05-16T08:39:12Z</time>
      </trkpt>
      <trkpt lat="43.50506" lon="1.49479">
        <ele>189</ele>
        <time>2022-05-16T08:39:13Z</time>
      </trkpt>
      <trkpt lat="43.50512" lon="1.49472">
        <ele>188.6</ele>
        <time>2022-05-16T08:39:14Z</time>
      </trkpt>
      <trkpt lat="43.50519" lon="1.49464">
        <ele>188.1</ele>
        <time>2022-05-16T08:39:15Z</time>
      </trkpt>
      <trkpt lat="43.50525" lon="1.49457">
        <ele>187.8</ele>
        <time>2022-05-16T08:39:16Z</time>
      </trkpt>
      <trkpt lat="43.5053" lon="1.4945">
        <ele>187.5</ele>
        <time>2022-05-16T08:39:17Z</time>
      </trkpt>
      <trkpt lat="43.50536" lon="1.49443">
        <ele>187.2</ele>
        <time>2022-05-16T08:39:18Z</time>
      </trkpt>
      <trkpt lat="43.50542" lon="1.49436">
        <ele>187</ele>
        <time>2022-05-16T08:39:19Z</time>
      </trkpt>
      <trkpt lat="43.50549" lon="1.49429">
        <ele>186.8</ele>
        <time>2022-05-16T08:39:20Z</time>
      </trkpt>
      <trkpt lat="43.50555" lon="1.49425">
        <ele>186.6</ele>
        <time>2022-05-16T08:39:21Z</time>
      </trkpt>
      <trkpt lat="43.50561" lon="1.49419">
        <ele>186.4</ele>
        <time>2022-05-16T08:39:22Z</time>
      </trkpt>
      <trkpt lat="43.50566" lon="1.49412">
        <ele>186.3</ele>
        <time>2022-05-16T08:39:23Z</time>
      </trkpt>
      <trkpt lat="43.50572" lon="1.49407">
        <ele>186.1</ele>
        <time>2022-05-16T08:39:24Z</time>
      </trkpt>
      <trkpt lat="43.50576" lon="1.49402">
        <ele>186.1</ele>
        <time>2022-05-16T08:39:25Z</time>
      </trkpt>
      <trkpt lat="43.50582" lon="1.49397">
        <ele>186.1</ele>
        <time>2022-05-16T08:39:27Z</time>
      </trkpt>
      <trkpt lat="43.50588" lon="1.49394">
        <ele>185.9</ele>
        <time>2022-05-16T08:39:28Z</time>
      </trkpt>
      <trkpt lat="43.50595" lon="1.49394">
        <ele>185.7</ele>
        <time>2022-05-16T08:39:29Z</time>
      </trkpt>
      <trkpt lat="43.50601" lon="1.49393">
        <ele>185.6</ele>
        <time>2022-05-16T08:39:30Z</time>
      </trkpt>
      <trkpt lat="43.50608" lon="1.49391">
        <ele>185.5</ele>
        <time>2022-05-16T08:39:31Z</time>
      </trkpt>
      <trkpt lat="43.50613" lon="1.49388">
        <ele>185.4</ele>
        <time>2022-05-16T08:39:32Z</time>
      </trkpt>
      <trkpt lat="43.5062" lon="1.49386">
        <ele>185.4</ele>
        <time>2022-05-16T08:39:33Z</time>
      </trkpt>
      <trkpt lat="43.50626" lon="1.49384">
        <ele>185.4</ele>
        <time>2022-05-16T08:39:34Z</time>
      </trkpt>
      <trkpt lat="43.50632" lon="1.49383">
        <ele>185.4</ele>
        <time>2022-05-16T08:39:35Z</time>
      </trkpt>
      <trkpt lat="43.50637" lon="1.49381">
        <ele>185.5</ele>
        <time>2022-05-16T08:39:36Z</time>
      </trkpt>
      <trkpt lat="43.50644" lon="1.49379">
        <ele>185.6</ele>
        <time>2022-05-16T08:39:37Z</time>
      </trkpt>
      <trkpt lat="43.5065" lon="1.4938">
        <ele>185.7</ele>
        <time>2022-05-16T08:39:38Z</time>
      </trkpt>
      <trkpt lat="43.50655" lon="1.49381">
        <ele>185.9</ele>
        <time>2022-05-16T08:39:39Z</time>
      </trkpt>
      <trkpt lat="43.50661" lon="1.49381">
        <ele>186</ele>
        <time>2022-05-16T08:39:40Z</time>
      </trkpt>
      <trkpt lat="43.50666" lon="1.49383">
        <ele>186.2</ele>
        <time>2022-05-16T08:39:41Z</time>
      </trkpt>
      <trkpt lat="43.50671" lon="1.49386">
        <ele>186.4</ele>
        <time>2022-05-16T08:39:42Z</time>
      </trkpt>
      <trkpt lat="43.50676" lon="1.4939">
        <ele>186.6</ele>
        <time>2022-05-16T08:39:43Z</time>
      </trkpt>
      <trkpt lat="43.50681" lon="1.49393">
        <ele>186.7</ele>
        <time>2022-05-16T08:39:44Z</time>
      </trkpt>
      <trkpt lat="43.50686" lon="1.49396">
        <ele>186.9</ele>
        <time>2022-05-16T08:39:45Z</time>
      </trkpt>
      <trkpt lat="43.50691" lon="1.49399">
        <ele>187</ele>
        <time>2022-05-16T08:39:46Z</time>
      </trkpt>
      <trkpt lat="43.50695" lon="1.49402">
        <ele>187.1</ele>
        <time>2022-05-16T08:39:47Z</time>
      </trkpt>
      <trkpt lat="43.507" lon="1.49405">
        <ele>187.1</ele>
        <time>2022-05-16T08:39:48Z</time>
      </trkpt>
      <trkpt lat="43.50705" lon="1.49408">
        <ele>187</ele>
        <time>2022-05-16T08:39:49Z</time>
      </trkpt>
      <trkpt lat="43.5071" lon="1.49412">
        <ele>186.9</ele>
        <time>2022-05-16T08:39:50Z</time>
      </trkpt>
      <trkpt lat="43.50714" lon="1.49416">
        <ele>186.8</ele>
        <time>2022-05-16T08:39:51Z</time>
      </trkpt>
      <trkpt lat="43.50724" lon="1.49425">
        <ele>186.3</ele>
        <time>2022-05-16T08:39:52Z</time>
      </trkpt>
      <trkpt lat="43.5073" lon="1.49427">
        <ele>185.9</ele>
        <time>2022-05-16T08:39:53Z</time>
      </trkpt>
      <trkpt lat="43.50736" lon="1.49429">
        <ele>185.5</ele>
        <time>2022-05-16T08:39:54Z</time>
      </trkpt>
      <trkpt lat="43.50743" lon="1.4943">
        <ele>185.2</ele>
        <time>2022-05-16T08:39:55Z</time>
      </trkpt>
      <trkpt lat="43.50749" lon="1.49431">
        <ele>184.8</ele>
        <time>2022-05-16T08:39:56Z</time>
      </trkpt>
      <trkpt lat="43.50757" lon="1.49434">
        <ele>184.3</ele>
        <time>2022-05-16T08:39:57Z</time>
      </trkpt>
      <trkpt lat="43.50764" lon="1.49436">
        <ele>183.9</ele>
        <time>2022-05-16T08:39:58Z</time>
      </trkpt>
      <trkpt lat="43.50772" lon="1.49437">
        <ele>183.4</ele>
        <time>2022-05-16T08:39:59Z</time>
      </trkpt>
      <trkpt lat="43.5078" lon="1.49438">
        <ele>183</ele>
        <time>2022-05-16T08:40:00Z</time>
      </trkpt>
      <trkpt lat="43.50789" lon="1.4944">
        <ele>182.6</ele>
        <time>2022-05-16T08:40:01Z</time>
      </trkpt>
      <trkpt lat="43.50797" lon="1.49442">
        <ele>182.3</ele>
        <time>2022-05-16T08:40:02Z</time>
      </trkpt>
      <trkpt lat="43.50805" lon="1.49442">
        <ele>182.2</ele>
        <time>2022-05-16T08:40:03Z</time>
      </trkpt>
      <trkpt lat="43.5081" lon="1.49442">
        <ele>182.1</ele>
        <time>2022-05-16T08:40:04Z</time>
      </trkpt>
      <trkpt lat="43.50813" lon="1.4944">
        <ele>182</ele>
        <time>2022-05-16T08:40:05Z</time>
      </trkpt>
      <trkpt lat="43.50814" lon="1.49436">
        <ele>182</ele>
        <time>2022-05-16T08:40:06Z</time>
      </trkpt>
      <trkpt lat="43.50813" lon="1.49431">
        <ele>181.9</ele>
        <time>2022-05-16T08:40:07Z</time>
      </trkpt>
      <trkpt lat="43.50812" lon="1.49424">
        <ele>181.9</ele>
        <time>2022-05-16T08:40:08Z</time>
      </trkpt>
      <trkpt lat="43.50813" lon="1.49419">
        <ele>182</ele>
        <time>2022-05-16T08:40:09Z</time>
      </trkpt>
      <trkpt lat="43.50817" lon="1.49416">
        <ele>182</ele>
        <time>2022-05-16T08:40:10Z</time>
      </trkpt>
      <trkpt lat="43.50822" lon="1.49415">
        <ele>182.1</ele>
        <time>2022-05-16T08:40:11Z</time>
      </trkpt>
      <trkpt lat="43.50827" lon="1.49414">
        <ele>182.2</ele>
        <time>2022-05-16T08:40:12Z</time>
      </trkpt>
      <trkpt lat="43.50832" lon="1.4941">
        <ele>182.4</ele>
        <time>2022-05-16T08:40:13Z</time>
      </trkpt>
      <trkpt lat="43.50835" lon="1.49405">
        <ele>182.7</ele>
        <time>2022-05-16T08:40:14Z</time>
      </trkpt>
      <trkpt lat="43.5084" lon="1.494">
        <ele>183.1</ele>
        <time>2022-05-16T08:40:15Z</time>
      </trkpt>
      <trkpt lat="43.50843" lon="1.49394">
        <ele>183.7</ele>
        <time>2022-05-16T08:40:16Z</time>
      </trkpt>
      <trkpt lat="43.50845" lon="1.49388">
        <ele>184.3</ele>
        <time>2022-05-16T08:40:17Z</time>
      </trkpt>
      <trkpt lat="43.50848" lon="1.49383">
        <ele>185</ele>
        <time>2022-05-16T08:40:18Z</time>
      </trkpt>
      <trkpt lat="43.50852" lon="1.49379">
        <ele>185.7</ele>
        <time>2022-05-16T08:40:19Z</time>
      </trkpt>
      <trkpt lat="43.50854" lon="1.49375">
        <ele>186.3</ele>
        <time>2022-05-16T08:40:20Z</time>
      </trkpt>
      <trkpt lat="43.50857" lon="1.49371">
        <ele>187.1</ele>
        <time>2022-05-16T08:40:21Z</time>
      </trkpt>
      <trkpt lat="43.5086" lon="1.4937">
        <ele>187.6</ele>
        <time>2022-05-16T08:40:22Z</time>
      </trkpt>
      <trkpt lat="43.50861" lon="1.49365">
        <ele>188.4</ele>
        <time>2022-05-16T08:40:23Z</time>
      </trkpt>
      <trkpt lat="43.5086" lon="1.49363">
        <ele>188.7</ele>
        <time>2022-05-16T08:40:24Z</time>
      </trkpt>
      <trkpt lat="43.50863" lon="1.49359">
        <ele>189.4</ele>
        <time>2022-05-16T08:40:25Z</time>
      </trkpt>
      <trkpt lat="43.50861" lon="1.49354">
        <ele>190.2</ele>
        <time>2022-05-16T08:40:26Z</time>
      </trkpt>
      <trkpt lat="43.50859" lon="1.4935">
        <ele>191</ele>
        <time>2022-05-16T08:40:27Z</time>
      </trkpt>
      <trkpt lat="43.50853" lon="1.49349">
        <ele>192.2</ele>
        <time>2022-05-16T08:40:28Z</time>
      </trkpt>
      <trkpt lat="43.50851" lon="1.4935">
        <ele>192.8</ele>
        <time>2022-05-16T08:40:29Z</time>
      </trkpt>
      <trkpt lat="43.50848" lon="1.49347">
        <ele>193.5</ele>
        <time>2022-05-16T08:40:30Z</time>
      </trkpt>
      <trkpt lat="43.50847" lon="1.49343">
        <ele>194.1</ele>
        <time>2022-05-16T08:40:31Z</time>
      </trkpt>
      <trkpt lat="43.50849" lon="1.49338">
        <ele>194.8</ele>
        <time>2022-05-16T08:40:32Z</time>
      </trkpt>
      <trkpt lat="43.50851" lon="1.49334">
        <ele>195.7</ele>
        <time>2022-05-16T08:40:33Z</time>
      </trkpt>
      <trkpt lat="43.50852" lon="1.4933">
        <ele>196.2</ele>
        <time>2022-05-16T08:40:34Z</time>
      </trkpt>
      <trkpt lat="43.50853" lon="1.49326">
        <ele>196.8</ele>
        <time>2022-05-16T08:40:35Z</time>
      </trkpt>
      <trkpt lat="43.50855" lon="1.4932">
        <ele>197.7</ele>
        <time>2022-05-16T08:40:36Z</time>
      </trkpt>
      <trkpt lat="43.50855" lon="1.49317">
        <ele>198.1</ele>
        <time>2022-05-16T08:40:37Z</time>
      </trkpt>
      <trkpt lat="43.50855" lon="1.49313">
        <ele>198.7</ele>
        <time>2022-05-16T08:40:38Z</time>
      </trkpt>
      <trkpt lat="43.50856" lon="1.49309">
        <ele>199.3</ele>
        <time>2022-05-16T08:40:39Z</time>
      </trkpt>
      <trkpt lat="43.50856" lon="1.49305">
        <ele>199.9</ele>
        <time>2022-05-16T08:40:40Z</time>
      </trkpt>
      <trkpt lat="43.50855" lon="1.49301">
        <ele>200.4</ele>
        <time>2022-05-16T08:40:41Z</time>
      </trkpt>
      <trkpt lat="43.50855" lon="1.49297">
        <ele>201</ele>
        <time>2022-05-16T08:40:42Z</time>
      </trkpt>
      <trkpt lat="43.50855" lon="1.49293">
        <ele>201.5</ele>
        <time>2022-05-16T08:40:43Z</time>
      </trkpt>
      <trkpt lat="43.50855" lon="1.49288">
        <ele>202.1</ele>
        <time>2022-05-16T08:40:44Z</time>
      </trkpt>
      <trkpt lat="43.50855" lon="1.49281">
        <ele>202.9</ele>
        <time>2022-05-16T08:40:45Z</time>
      </trkpt>
      <trkpt lat="43.50854" lon="1.49278">
        <ele>203.4</ele>
        <time>2022-05-16T08:40:46Z</time>
      </trkpt>
      <trkpt lat="43.50853" lon="1.49274">
        <ele>204</ele>
        <time>2022-05-16T08:40:47Z</time>
      </trkpt>
      <trkpt lat="43.50849" lon="1.49272">
        <ele>206.5</ele>
        <time>2022-05-16T08:40:48Z</time>
      </trkpt>
      <trkpt lat="43.50847" lon="1.49272">
        <ele>206.7</ele>
        <time>2022-05-16T08:40:49Z</time>
      </trkpt>
      <trkpt lat="43.50844" lon="1.49275">
        <ele>207.1</ele>
        <time>2022-05-16T08:40:50Z</time>
      </trkpt>
      <trkpt lat="43.50842" lon="1.49281">
        <ele>207.6</ele>
        <time>2022-05-16T08:40:51Z</time>
      </trkpt>
      <trkpt lat="43.50839" lon="1.49286">
        <ele>208.1</ele>
        <time>2022-05-16T08:40:52Z</time>
      </trkpt>
      <trkpt lat="43.50837" lon="1.49289">
        <ele>208.5</ele>
        <time>2022-05-16T08:40:53Z</time>
      </trkpt>
      <trkpt lat="43.50833" lon="1.49292">
        <ele>209</ele>
        <time>2022-05-16T08:40:54Z</time>
      </trkpt>
      <trkpt lat="43.5083" lon="1.49294">
        <ele>209.4</ele>
        <time>2022-05-16T08:40:55Z</time>
      </trkpt>
      <trkpt lat="43.50826" lon="1.49295">
        <ele>209.9</ele>
        <time>2022-05-16T08:40:56Z</time>
      </trkpt>
      <trkpt lat="43.50822" lon="1.49299">
        <ele>210.5</ele>
        <time>2022-05-16T08:40:57Z</time>
      </trkpt>
      <trkpt lat="43.50818" lon="1.49299">
        <ele>211.1</ele>
        <time>2022-05-16T08:40:58Z</time>
      </trkpt>
      <trkpt lat="43.50814" lon="1.49299">
        <ele>211.5</ele>
        <time>2022-05-16T08:40:59Z</time>
      </trkpt>
      <trkpt lat="43.50811" lon="1.49296">
        <ele>212.1</ele>
        <time>2022-05-16T08:41:00Z</time>
      </trkpt>
      <trkpt lat="43.50809" lon="1.49294">
        <ele>212.5</ele>
        <time>2022-05-16T08:41:01Z</time>
      </trkpt>
      <trkpt lat="43.50804" lon="1.49294">
        <ele>213</ele>
        <time>2022-05-16T08:41:02Z</time>
      </trkpt>
      <trkpt lat="43.508" lon="1.49291">
        <ele>213.6</ele>
        <time>2022-05-16T08:41:03Z</time>
      </trkpt>
      <trkpt lat="43.50796" lon="1.4929">
        <ele>214.1</ele>
        <time>2022-05-16T08:41:04Z</time>
      </trkpt>
      <trkpt lat="43.50793" lon="1.49288">
        <ele>214.6</ele>
        <time>2022-05-16T08:41:05Z</time>
      </trkpt>
      <trkpt lat="43.5079" lon="1.49287">
        <ele>215</ele>
        <time>2022-05-16T08:41:06Z</time>
      </trkpt>
      <trkpt lat="43.50786" lon="1.49286">
        <ele>215.4</ele>
        <time>2022-05-16T08:41:07Z</time>
      </trkpt>
      <trkpt lat="43.50783" lon="1.49284">
        <ele>215.9</ele>
        <time>2022-05-16T08:41:08Z</time>
      </trkpt>
      <trkpt lat="43.5078" lon="1.49281">
        <ele>216.3</ele>
        <time>2022-05-16T08:41:09Z</time>
      </trkpt>
      <trkpt lat="43.50777" lon="1.49278">
        <ele>216.7</ele>
        <time>2022-05-16T08:41:10Z</time>
      </trkpt>
      <trkpt lat="43.50773" lon="1.49276">
        <ele>217.2</ele>
        <time>2022-05-16T08:41:11Z</time>
      </trkpt>
      <trkpt lat="43.50771" lon="1.49273">
        <ele>217.6</ele>
        <time>2022-05-16T08:41:12Z</time>
      </trkpt>
      <trkpt lat="43.50768" lon="1.49268">
        <ele>218</ele>
        <time>2022-05-16T08:41:13Z</time>
      </trkpt>
      <trkpt lat="43.50766" lon="1.49263">
        <ele>218.3</ele>
        <time>2022-05-16T08:41:14Z</time>
      </trkpt>
      <trkpt lat="43.50765" lon="1.49259">
        <ele>218.4</ele>
        <time>2022-05-16T08:41:15Z</time>
      </trkpt>
      <trkpt lat="43.50763" lon="1.49255">
        <ele>218.4</ele>
        <time>2022-05-16T08:41:16Z</time>
      </trkpt>
      <trkpt lat="43.5076" lon="1.49252">
        <ele>218.4</ele>
        <time>2022-05-16T08:41:17Z</time>
      </trkpt>
      <trkpt lat="43.50758" lon="1.49247">
        <ele>218.4</ele>
        <time>2022-05-16T08:41:18Z</time>
      </trkpt>
      <trkpt lat="43.50755" lon="1.49239">
        <ele>218.2</ele>
        <time>2022-05-16T08:41:19Z</time>
      </trkpt>
      <trkpt lat="43.50752" lon="1.49232">
        <ele>218.1</ele>
        <time>2022-05-16T08:41:20Z</time>
      </trkpt>
      <trkpt lat="43.50749" lon="1.49226">
        <ele>218</ele>
        <time>2022-05-16T08:41:21Z</time>
      </trkpt>
      <trkpt lat="43.50746" lon="1.49219">
        <ele>218</ele>
        <time>2022-05-16T08:41:22Z</time>
      </trkpt>
      <trkpt lat="43.50743" lon="1.49213">
        <ele>217.9</ele>
        <time>2022-05-16T08:41:23Z</time>
      </trkpt>
      <trkpt lat="43.50739" lon="1.49208">
        <ele>217.9</ele>
        <time>2022-05-16T08:41:24Z</time>
      </trkpt>
      <trkpt lat="43.50737" lon="1.49201">
        <ele>217.8</ele>
        <time>2022-05-16T08:41:25Z</time>
      </trkpt>
      <trkpt lat="43.50735" lon="1.49196">
        <ele>217.8</ele>
        <time>2022-05-16T08:41:26Z</time>
      </trkpt>
      <trkpt lat="43.50731" lon="1.49189">
        <ele>217.7</ele>
        <time>2022-05-16T08:41:27Z</time>
      </trkpt>
      <trkpt lat="43.50726" lon="1.49183">
        <ele>217.7</ele>
        <time>2022-05-16T08:41:28Z</time>
      </trkpt>
      <trkpt lat="43.50722" lon="1.49177">
        <ele>217.6</ele>
        <time>2022-05-16T08:41:29Z</time>
      </trkpt>
      <trkpt lat="43.50719" lon="1.4917">
        <ele>217.5</ele>
        <time>2022-05-16T08:41:30Z</time>
      </trkpt>
      <trkpt lat="43.50714" lon="1.49164">
        <ele>217.5</ele>
        <time>2022-05-16T08:41:31Z</time>
      </trkpt>
      <trkpt lat="43.5071" lon="1.49159">
        <ele>217.5</ele>
        <time>2022-05-16T08:41:33Z</time>
      </trkpt>
      <trkpt lat="43.50706" lon="1.49152">
        <ele>217.4</ele>
        <time>2022-05-16T08:41:34Z</time>
      </trkpt>
      <trkpt lat="43.50702" lon="1.49145">
        <ele>217.4</ele>
        <time>2022-05-16T08:41:35Z</time>
      </trkpt>
      <trkpt lat="43.50697" lon="1.4914">
        <ele>217.5</ele>
        <time>2022-05-16T08:41:36Z</time>
      </trkpt>
      <trkpt lat="43.50694" lon="1.49134">
        <ele>217.5</ele>
        <time>2022-05-16T08:41:37Z</time>
      </trkpt>
      <trkpt lat="43.50689" lon="1.4913">
        <ele>217.5</ele>
        <time>2022-05-16T08:41:38Z</time>
      </trkpt>
      <trkpt lat="43.50686" lon="1.49124">
        <ele>217.5</ele>
        <time>2022-05-16T08:41:39Z</time>
      </trkpt>
      <trkpt lat="43.50682" lon="1.49118">
        <ele>217.5</ele>
        <time>2022-05-16T08:41:40Z</time>
      </trkpt>
      <trkpt lat="43.50678" lon="1.49112">
        <ele>217.5</ele>
        <time>2022-05-16T08:41:41Z</time>
      </trkpt>
      <trkpt lat="43.50676" lon="1.49106">
        <ele>217.4</ele>
        <time>2022-05-16T08:41:42Z</time>
      </trkpt>
      <trkpt lat="43.50672" lon="1.49099">
        <ele>217.4</ele>
        <time>2022-05-16T08:41:43Z</time>
      </trkpt>
      <trkpt lat="43.50669" lon="1.49092">
        <ele>217.3</ele>
        <time>2022-05-16T08:41:44Z</time>
      </trkpt>
      <trkpt lat="43.50666" lon="1.49084">
        <ele>217.3</ele>
        <time>2022-05-16T08:41:45Z</time>
      </trkpt>
      <trkpt lat="43.50663" lon="1.49076">
        <ele>217.2</ele>
        <time>2022-05-16T08:41:46Z</time>
      </trkpt>
      <trkpt lat="43.5066" lon="1.49069">
        <ele>217.2</ele>
        <time>2022-05-16T08:41:47Z</time>
      </trkpt>
      <trkpt lat="43.50657" lon="1.49062">
        <ele>217.3</ele>
        <time>2022-05-16T08:41:48Z</time>
      </trkpt>
      <trkpt lat="43.50653" lon="1.49055">
        <ele>217.4</ele>
        <time>2022-05-16T08:41:49Z</time>
      </trkpt>
      <trkpt lat="43.5065" lon="1.49048">
        <ele>217.5</ele>
        <time>2022-05-16T08:41:50Z</time>
      </trkpt>
      <trkpt lat="43.50647" lon="1.49042">
        <ele>217.5</ele>
        <time>2022-05-16T08:41:51Z</time>
      </trkpt>
      <trkpt lat="43.50643" lon="1.49035">
        <ele>217.6</ele>
        <time>2022-05-16T08:41:52Z</time>
      </trkpt>
      <trkpt lat="43.5064" lon="1.4903">
        <ele>217.6</ele>
        <time>2022-05-16T08:41:53Z</time>
      </trkpt>
      <trkpt lat="43.50636" lon="1.49024">
        <ele>217.6</ele>
        <time>2022-05-16T08:41:54Z</time>
      </trkpt>
      <trkpt lat="43.50627" lon="1.49012">
        <ele>217.4</ele>
        <time>2022-05-16T08:41:55Z</time>
      </trkpt>
      <trkpt lat="43.50622" lon="1.49006">
        <ele>217.3</ele>
        <time>2022-05-16T08:41:56Z</time>
      </trkpt>
      <trkpt lat="43.50616" lon="1.49001">
        <ele>217.3</ele>
        <time>2022-05-16T08:41:57Z</time>
      </trkpt>
      <trkpt lat="43.50611" lon="1.48996">
        <ele>217.2</ele>
        <time>2022-05-16T08:41:58Z</time>
      </trkpt>
      <trkpt lat="43.50607" lon="1.4899">
        <ele>217.2</ele>
        <time>2022-05-16T08:41:59Z</time>
      </trkpt>
      <trkpt lat="43.50603" lon="1.48986">
        <ele>217.3</ele>
        <time>2022-05-16T08:42:00Z</time>
      </trkpt>
      <trkpt lat="43.50596" lon="1.48982">
        <ele>217.4</ele>
        <time>2022-05-16T08:42:01Z</time>
      </trkpt>
      <trkpt lat="43.5059" lon="1.48981">
        <ele>217.5</ele>
        <time>2022-05-16T08:42:02Z</time>
      </trkpt>
      <trkpt lat="43.50584" lon="1.48979">
        <ele>217.7</ele>
        <time>2022-05-16T08:42:03Z</time>
      </trkpt>
      <trkpt lat="43.50579" lon="1.48977">
        <ele>217.9</ele>
        <time>2022-05-16T08:42:04Z</time>
      </trkpt>
      <trkpt lat="43.50575" lon="1.48977">
        <ele>218.2</ele>
        <time>2022-05-16T08:42:05Z</time>
      </trkpt>
      <trkpt lat="43.5057" lon="1.48977">
        <ele>218.5</ele>
        <time>2022-05-16T08:42:06Z</time>
      </trkpt>
      <trkpt lat="43.50564" lon="1.48976">
        <ele>218.9</ele>
        <time>2022-05-16T08:42:07Z</time>
      </trkpt>
      <trkpt lat="43.50559" lon="1.48974">
        <ele>219.3</ele>
        <time>2022-05-16T08:42:08Z</time>
      </trkpt>
      <trkpt lat="43.50555" lon="1.4897">
        <ele>219.5</ele>
        <time>2022-05-16T08:42:09Z</time>
      </trkpt>
      <trkpt lat="43.50553" lon="1.48966">
        <ele>219.7</ele>
        <time>2022-05-16T08:42:10Z</time>
      </trkpt>
      <trkpt lat="43.50551" lon="1.48962">
        <ele>219.8</ele>
        <time>2022-05-16T08:42:11Z</time>
      </trkpt>
      <trkpt lat="43.50547" lon="1.48958">
        <ele>220</ele>
        <time>2022-05-16T08:42:12Z</time>
      </trkpt>
      <trkpt lat="43.50544" lon="1.48954">
        <ele>220.3</ele>
        <time>2022-05-16T08:42:13Z</time>
      </trkpt>
      <trkpt lat="43.50542" lon="1.48948">
        <ele>220.6</ele>
        <time>2022-05-16T08:42:14Z</time>
      </trkpt>
      <trkpt lat="43.5054" lon="1.48942">
        <ele>221.1</ele>
        <time>2022-05-16T08:42:15Z</time>
      </trkpt>
      <trkpt lat="43.50537" lon="1.48938">
        <ele>221.5</ele>
        <time>2022-05-16T08:42:16Z</time>
      </trkpt>
      <trkpt lat="43.50533" lon="1.48934">
        <ele>221.9</ele>
        <time>2022-05-16T08:42:17Z</time>
      </trkpt>
      <trkpt lat="43.50531" lon="1.4893">
        <ele>222.2</ele>
        <time>2022-05-16T08:42:18Z</time>
      </trkpt>
      <trkpt lat="43.50529" lon="1.48924">
        <ele>222.7</ele>
        <time>2022-05-16T08:42:19Z</time>
      </trkpt>
      <trkpt lat="43.50528" lon="1.4892">
        <ele>223.1</ele>
        <time>2022-05-16T08:42:20Z</time>
      </trkpt>
      <trkpt lat="43.50526" lon="1.48915">
        <ele>223.4</ele>
        <time>2022-05-16T08:42:21Z</time>
      </trkpt>
      <trkpt lat="43.50525" lon="1.4891">
        <ele>223.9</ele>
        <time>2022-05-16T08:42:22Z</time>
      </trkpt>
      <trkpt lat="43.50522" lon="1.48906">
        <ele>224.4</ele>
        <time>2022-05-16T08:42:23Z</time>
      </trkpt>
      <trkpt lat="43.5052" lon="1.48902">
        <ele>224.8</ele>
        <time>2022-05-16T08:42:24Z</time>
      </trkpt>
      <trkpt lat="43.50517" lon="1.48897">
        <ele>225.4</ele>
        <time>2022-05-16T08:42:25Z</time>
      </trkpt>
      <trkpt lat="43.50515" lon="1.48895">
        <ele>225.7</ele>
        <time>2022-05-16T08:42:26Z</time>
      </trkpt>
      <trkpt lat="43.50512" lon="1.48892">
        <ele>226.2</ele>
        <time>2022-05-16T08:42:27Z</time>
      </trkpt>
      <trkpt lat="43.50511" lon="1.48888">
        <ele>226.6</ele>
        <time>2022-05-16T08:42:28Z</time>
      </trkpt>
      <trkpt lat="43.5051" lon="1.48883">
        <ele>227.1</ele>
        <time>2022-05-16T08:42:29Z</time>
      </trkpt>
      <trkpt lat="43.50508" lon="1.48878">
        <ele>227.8</ele>
        <time>2022-05-16T08:42:30Z</time>
      </trkpt>
      <trkpt lat="43.50507" lon="1.48874">
        <ele>228.2</ele>
        <time>2022-05-16T08:42:31Z</time>
      </trkpt>
      <trkpt lat="43.50506" lon="1.48869">
        <ele>228.7</ele>
        <time>2022-05-16T08:42:32Z</time>
      </trkpt>
      <trkpt lat="43.50504" lon="1.48866">
        <ele>229.2</ele>
        <time>2022-05-16T08:42:33Z</time>
      </trkpt>
      <trkpt lat="43.505" lon="1.48864">
        <ele>229.7</ele>
        <time>2022-05-16T08:42:34Z</time>
      </trkpt>
      <trkpt lat="43.50497" lon="1.48863">
        <ele>229.8</ele>
        <time>2022-05-16T08:42:35Z</time>
      </trkpt>
      <trkpt lat="43.50494" lon="1.48865">
        <ele>230.2</ele>
        <time>2022-05-16T08:42:36Z</time>
      </trkpt>
      <trkpt lat="43.5049" lon="1.48866">
        <ele>230.7</ele>
        <time>2022-05-16T08:42:37Z</time>
      </trkpt>
      <trkpt lat="43.50488" lon="1.48866">
        <ele>230.9</ele>
        <time>2022-05-16T08:42:38Z</time>
      </trkpt>
      <trkpt lat="43.50485" lon="1.48866">
        <ele>231.3</ele>
        <time>2022-05-16T08:42:39Z</time>
      </trkpt>
      <trkpt lat="43.50481" lon="1.48864">
        <ele>231.9</ele>
        <time>2022-05-16T08:42:40Z</time>
      </trkpt>
      <trkpt lat="43.50479" lon="1.48864">
        <ele>232.2</ele>
        <time>2022-05-16T08:42:41Z</time>
      </trkpt>
      <trkpt lat="43.50476" lon="1.48865">
        <ele>232.5</ele>
        <time>2022-05-16T08:42:42Z</time>
      </trkpt>
      <trkpt lat="43.50472" lon="1.48866">
        <ele>233.2</ele>
        <time>2022-05-16T08:42:43Z</time>
      </trkpt>
      <trkpt lat="43.50469" lon="1.48866">
        <ele>233.6</ele>
        <time>2022-05-16T08:42:44Z</time>
      </trkpt>
      <trkpt lat="43.50466" lon="1.48865">
        <ele>234</ele>
        <time>2022-05-16T08:42:45Z</time>
      </trkpt>
      <trkpt lat="43.50463" lon="1.48864">
        <ele>234.5</ele>
        <time>2022-05-16T08:42:46Z</time>
      </trkpt>
      <trkpt lat="43.50462" lon="1.48864">
        <ele>234.6</ele>
        <time>2022-05-16T08:42:47Z</time>
      </trkpt>
      <trkpt lat="43.50459" lon="1.48864">
        <ele>235.2</ele>
        <time>2022-05-16T08:42:48Z</time>
      </trkpt>
      <trkpt lat="43.50457" lon="1.48864">
        <ele>235.5</ele>
        <time>2022-05-16T08:42:49Z</time>
      </trkpt>
      <trkpt lat="43.50453" lon="1.48864">
        <ele>236.1</ele>
        <time>2022-05-16T08:42:50Z</time>
      </trkpt>
      <trkpt lat="43.50452" lon="1.48864">
        <ele>236.3</ele>
        <time>2022-05-16T08:42:51Z</time>
      </trkpt>
      <trkpt lat="43.50449" lon="1.48864">
        <ele>236.8</ele>
        <time>2022-05-16T08:42:52Z</time>
      </trkpt>
      <trkpt lat="43.50445" lon="1.48864">
        <ele>237.5</ele>
        <time>2022-05-16T08:42:53Z</time>
      </trkpt>
      <trkpt lat="43.50442" lon="1.48862">
        <ele>238.1</ele>
        <time>2022-05-16T08:42:54Z</time>
      </trkpt>
      <trkpt lat="43.5044" lon="1.48861">
        <ele>238.4</ele>
        <time>2022-05-16T08:42:55Z</time>
      </trkpt>
      <trkpt lat="43.50436" lon="1.4886">
        <ele>239.1</ele>
        <time>2022-05-16T08:42:56Z</time>
      </trkpt>
      <trkpt lat="43.50435" lon="1.48859">
        <ele>239.3</ele>
        <time>2022-05-16T08:42:57Z</time>
      </trkpt>
      <trkpt lat="43.50431" lon="1.48858">
        <ele>240</ele>
        <time>2022-05-16T08:42:58Z</time>
      </trkpt>
      <trkpt lat="43.5043" lon="1.48857">
        <ele>240.3</ele>
        <time>2022-05-16T08:42:59Z</time>
      </trkpt>
      <trkpt lat="43.50427" lon="1.48856">
        <ele>240.8</ele>
        <time>2022-05-16T08:43:00Z</time>
      </trkpt>
      <trkpt lat="43.50424" lon="1.48855">
        <ele>241.3</ele>
        <time>2022-05-16T08:43:01Z</time>
      </trkpt>
      <trkpt lat="43.50421" lon="1.48854">
        <ele>241.7</ele>
        <time>2022-05-16T08:43:02Z</time>
      </trkpt>
      <trkpt lat="43.50419" lon="1.48852">
        <ele>242.2</ele>
        <time>2022-05-16T08:43:03Z</time>
      </trkpt>
      <trkpt lat="43.50415" lon="1.48851">
        <ele>242.8</ele>
        <time>2022-05-16T08:43:04Z</time>
      </trkpt>
      <trkpt lat="43.50414" lon="1.4885">
        <ele>243</ele>
        <time>2022-05-16T08:43:05Z</time>
      </trkpt>
      <trkpt lat="43.5041" lon="1.48848">
        <ele>243.6</ele>
        <time>2022-05-16T08:43:06Z</time>
      </trkpt>
      <trkpt lat="43.50409" lon="1.48848">
        <ele>243.9</ele>
        <time>2022-05-16T08:43:07Z</time>
      </trkpt>
      <trkpt lat="43.50405" lon="1.48846">
        <ele>244.5</ele>
        <time>2022-05-16T08:43:08Z</time>
      </trkpt>
      <trkpt lat="43.50404" lon="1.48846">
        <ele>244.7</ele>
        <time>2022-05-16T08:43:09Z</time>
      </trkpt>
      <trkpt lat="43.504" lon="1.48844">
        <ele>245.3</ele>
        <time>2022-05-16T08:43:10Z</time>
      </trkpt>
      <trkpt lat="43.50399" lon="1.48844">
        <ele>245.5</ele>
        <time>2022-05-16T08:43:11Z</time>
      </trkpt>
      <trkpt lat="43.50396" lon="1.48842">
        <ele>246.2</ele>
        <time>2022-05-16T08:43:12Z</time>
      </trkpt>
      <trkpt lat="43.50395" lon="1.48842">
        <ele>246.4</ele>
        <time>2022-05-16T08:43:13Z</time>
      </trkpt>
      <trkpt lat="43.50392" lon="1.4884">
        <ele>247</ele>
        <time>2022-05-16T08:43:14Z</time>
      </trkpt>
      <trkpt lat="43.50391" lon="1.48839">
        <ele>247.2</ele>
        <time>2022-05-16T08:43:15Z</time>
      </trkpt>
      <trkpt lat="43.50388" lon="1.48836">
        <ele>247.8</ele>
        <time>2022-05-16T08:43:16Z</time>
      </trkpt>
      <trkpt lat="43.50388" lon="1.48834">
        <ele>248.1</ele>
        <time>2022-05-16T08:43:17Z</time>
      </trkpt>
      <trkpt lat="43.50387" lon="1.4883">
        <ele>248.6</ele>
        <time>2022-05-16T08:43:18Z</time>
      </trkpt>
      <trkpt lat="43.50387" lon="1.48825">
        <ele>249.2</ele>
        <time>2022-05-16T08:43:19Z</time>
      </trkpt>
      <trkpt lat="43.50386" lon="1.48824">
        <ele>249.3</ele>
        <time>2022-05-16T08:43:20Z</time>
      </trkpt>
      <trkpt lat="43.50385" lon="1.48819">
        <ele>250</ele>
        <time>2022-05-16T08:43:21Z</time>
      </trkpt>
      <trkpt lat="43.50385" lon="1.48817">
        <ele>250.2</ele>
        <time>2022-05-16T08:43:22Z</time>
      </trkpt>
      <trkpt lat="43.50384" lon="1.48812">
        <ele>250.8</ele>
        <time>2022-05-16T08:43:23Z</time>
      </trkpt>
      <trkpt lat="43.50384" lon="1.4881">
        <ele>251</ele>
        <time>2022-05-16T08:43:24Z</time>
      </trkpt>
      <trkpt lat="43.50383" lon="1.48806">
        <ele>251.6</ele>
        <time>2022-05-16T08:43:25Z</time>
      </trkpt>
      <trkpt lat="43.50382" lon="1.48805">
        <ele>251.8</ele>
        <time>2022-05-16T08:43:26Z</time>
      </trkpt>
      <trkpt lat="43.50379" lon="1.48803">
        <ele>252.2</ele>
        <time>2022-05-16T08:43:27Z</time>
      </trkpt>
      <trkpt lat="43.50376" lon="1.48801">
        <ele>252.8</ele>
        <time>2022-05-16T08:43:28Z</time>
      </trkpt>
      <trkpt lat="43.50374" lon="1.488">
        <ele>253</ele>
        <time>2022-05-16T08:43:29Z</time>
      </trkpt>
      <trkpt lat="43.50372" lon="1.48797">
        <ele>253.3</ele>
        <time>2022-05-16T08:43:30Z</time>
      </trkpt>
      <trkpt lat="43.5037" lon="1.48795">
        <ele>253.7</ele>
        <time>2022-05-16T08:43:31Z</time>
      </trkpt>
      <trkpt lat="43.50367" lon="1.48793">
        <ele>254.1</ele>
        <time>2022-05-16T08:43:32Z</time>
      </trkpt>
      <trkpt lat="43.50364" lon="1.4879">
        <ele>254.5</ele>
        <time>2022-05-16T08:43:33Z</time>
      </trkpt>
      <trkpt lat="43.50363" lon="1.4879">
        <ele>254.6</ele>
        <time>2022-05-16T08:43:34Z</time>
      </trkpt>
      <trkpt lat="43.5036" lon="1.48788">
        <ele>254.9</ele>
        <time>2022-05-16T08:43:35Z</time>
      </trkpt>
      <trkpt lat="43.50358" lon="1.48784">
        <ele>255.3</ele>
        <time>2022-05-16T08:43:36Z</time>
      </trkpt>
      <trkpt lat="43.50357" lon="1.48782">
        <ele>255.4</ele>
        <time>2022-05-16T08:43:37Z</time>
      </trkpt>
      <trkpt lat="43.50352" lon="1.48778">
        <ele>255.9</ele>
        <time>2022-05-16T08:43:39Z</time>
      </trkpt>
      <trkpt lat="43.50351" lon="1.48777">
        <ele>256.1</ele>
        <time>2022-05-16T08:43:40Z</time>
      </trkpt>
      <trkpt lat="43.50349" lon="1.48776">
        <ele>256.3</ele>
        <time>2022-05-16T08:43:41Z</time>
      </trkpt>
      <trkpt lat="43.50347" lon="1.48774">
        <ele>256.6</ele>
        <time>2022-05-16T08:43:42Z</time>
      </trkpt>
      <trkpt lat="43.50344" lon="1.48772">
        <ele>256.8</ele>
        <time>2022-05-16T08:43:43Z</time>
      </trkpt>
      <trkpt lat="43.50341" lon="1.4877">
        <ele>257.2</ele>
        <time>2022-05-16T08:43:44Z</time>
      </trkpt>
      <trkpt lat="43.50339" lon="1.48768">
        <ele>257.5</ele>
        <time>2022-05-16T08:43:45Z</time>
      </trkpt>
      <trkpt lat="43.50337" lon="1.48765">
        <ele>257.9</ele>
        <time>2022-05-16T08:43:46Z</time>
      </trkpt>
      <trkpt lat="43.50334" lon="1.48763">
        <ele>258.2</ele>
        <time>2022-05-16T08:43:47Z</time>
      </trkpt>
      <trkpt lat="43.50331" lon="1.48761">
        <ele>258.5</ele>
        <time>2022-05-16T08:43:48Z</time>
      </trkpt>
      <trkpt lat="43.50329" lon="1.48758">
        <ele>258.9</ele>
        <time>2022-05-16T08:43:49Z</time>
      </trkpt>
      <trkpt lat="43.50326" lon="1.48756">
        <ele>259.2</ele>
        <time>2022-05-16T08:43:50Z</time>
      </trkpt>
      <trkpt lat="43.50324" lon="1.48753">
        <ele>259.5</ele>
        <time>2022-05-16T08:43:51Z</time>
      </trkpt>
      <trkpt lat="43.50321" lon="1.48751">
        <ele>259.8</ele>
        <time>2022-05-16T08:43:52Z</time>
      </trkpt>
      <trkpt lat="43.50318" lon="1.4875">
        <ele>260.1</ele>
        <time>2022-05-16T08:43:53Z</time>
      </trkpt>
      <trkpt lat="43.50315" lon="1.48749">
        <ele>260.3</ele>
        <time>2022-05-16T08:43:54Z</time>
      </trkpt>
      <trkpt lat="43.50312" lon="1.48747">
        <ele>260.6</ele>
        <time>2022-05-16T08:43:55Z</time>
      </trkpt>
      <trkpt lat="43.50309" lon="1.48745">
        <ele>260.8</ele>
        <time>2022-05-16T08:43:56Z</time>
      </trkpt>
      <trkpt lat="43.50307" lon="1.48741">
        <ele>261</ele>
        <time>2022-05-16T08:43:57Z</time>
      </trkpt>
      <trkpt lat="43.50304" lon="1.48738">
        <ele>261.2</ele>
        <time>2022-05-16T08:43:58Z</time>
      </trkpt>
      <trkpt lat="43.50301" lon="1.48736">
        <ele>261.4</ele>
        <time>2022-05-16T08:43:59Z</time>
      </trkpt>
      <trkpt lat="43.50297" lon="1.48729">
        <ele>261.7</ele>
        <time>2022-05-16T08:44:00Z</time>
      </trkpt>
      <trkpt lat="43.50295" lon="1.48726">
        <ele>261.9</ele>
        <time>2022-05-16T08:44:01Z</time>
      </trkpt>
      <trkpt lat="43.50295" lon="1.48721">
        <ele>262.1</ele>
        <time>2022-05-16T08:44:02Z</time>
      </trkpt>
      <trkpt lat="43.50295" lon="1.48716">
        <ele>262.3</ele>
        <time>2022-05-16T08:44:03Z</time>
      </trkpt>
      <trkpt lat="43.50295" lon="1.48712">
        <ele>262.4</ele>
        <time>2022-05-16T08:44:04Z</time>
      </trkpt>
      <trkpt lat="43.50295" lon="1.48707">
        <ele>262.6</ele>
        <time>2022-05-16T08:44:05Z</time>
      </trkpt>
      <trkpt lat="43.50296" lon="1.48703">
        <ele>262.8</ele>
        <time>2022-05-16T08:44:06Z</time>
      </trkpt>
      <trkpt lat="43.50296" lon="1.48699">
        <ele>263</ele>
        <time>2022-05-16T08:44:07Z</time>
      </trkpt>
      <trkpt lat="43.50295" lon="1.48695">
        <ele>263.2</ele>
        <time>2022-05-16T08:44:08Z</time>
      </trkpt>
      <trkpt lat="43.50295" lon="1.4869">
        <ele>263.5</ele>
        <time>2022-05-16T08:44:09Z</time>
      </trkpt>
      <trkpt lat="43.50294" lon="1.48686">
        <ele>263.8</ele>
        <time>2022-05-16T08:44:10Z</time>
      </trkpt>
      <trkpt lat="43.50295" lon="1.48681">
        <ele>264.1</ele>
        <time>2022-05-16T08:44:11Z</time>
      </trkpt>
      <trkpt lat="43.50295" lon="1.48677">
        <ele>264.4</ele>
        <time>2022-05-16T08:44:12Z</time>
      </trkpt>
      <trkpt lat="43.50294" lon="1.48673">
        <ele>264.8</ele>
        <time>2022-05-16T08:44:13Z</time>
      </trkpt>
      <trkpt lat="43.50293" lon="1.48668">
        <ele>265.2</ele>
        <time>2022-05-16T08:44:14Z</time>
      </trkpt>
      <trkpt lat="43.50293" lon="1.48664">
        <ele>265.6</ele>
        <time>2022-05-16T08:44:15Z</time>
      </trkpt>
      <trkpt lat="43.50293" lon="1.48659">
        <ele>266.1</ele>
        <time>2022-05-16T08:44:16Z</time>
      </trkpt>
      <trkpt lat="43.50295" lon="1.48655">
        <ele>266.6</ele>
        <time>2022-05-16T08:44:17Z</time>
      </trkpt>
      <trkpt lat="43.50295" lon="1.48649">
        <ele>267.3</ele>
        <time>2022-05-16T08:44:18Z</time>
      </trkpt>
      <trkpt lat="43.50294" lon="1.48647">
        <ele>267.5</ele>
        <time>2022-05-16T08:44:19Z</time>
      </trkpt>
      <trkpt lat="43.50294" lon="1.48642">
        <ele>268.1</ele>
        <time>2022-05-16T08:44:20Z</time>
      </trkpt>
      <trkpt lat="43.50294" lon="1.4864">
        <ele>268.3</ele>
        <time>2022-05-16T08:44:21Z</time>
      </trkpt>
      <trkpt lat="43.50294" lon="1.48636">
        <ele>268.7</ele>
        <time>2022-05-16T08:44:22Z</time>
      </trkpt>
      <trkpt lat="43.50294" lon="1.48634">
        <ele>268.9</ele>
        <time>2022-05-16T08:44:23Z</time>
      </trkpt>
      <trkpt lat="43.50295" lon="1.4863">
        <ele>269.3</ele>
        <time>2022-05-16T08:44:24Z</time>
      </trkpt>
      <trkpt lat="43.50295" lon="1.48626">
        <ele>269.7</ele>
        <time>2022-05-16T08:44:25Z</time>
      </trkpt>
      <trkpt lat="43.50295" lon="1.48621">
        <ele>270.1</ele>
        <time>2022-05-16T08:44:26Z</time>
      </trkpt>
      <trkpt lat="43.50294" lon="1.48618">
        <ele>270.4</ele>
        <time>2022-05-16T08:44:27Z</time>
      </trkpt>
      <trkpt lat="43.50294" lon="1.48614">
        <ele>270.7</ele>
        <time>2022-05-16T08:44:28Z</time>
      </trkpt>
      <trkpt lat="43.50294" lon="1.4861">
        <ele>271.1</ele>
        <time>2022-05-16T08:44:29Z</time>
      </trkpt>
      <trkpt lat="43.50294" lon="1.48604">
        <ele>271.5</ele>
        <time>2022-05-16T08:44:30Z</time>
      </trkpt>
      <trkpt lat="43.50294" lon="1.48603">
        <ele>271.6</ele>
        <time>2022-05-16T08:44:31Z</time>
      </trkpt>
      <trkpt lat="43.50294" lon="1.48598">
        <ele>271.9</ele>
        <time>2022-05-16T08:44:32Z</time>
      </trkpt>
      <trkpt lat="43.50294" lon="1.48594">
        <ele>272.2</ele>
        <time>2022-05-16T08:44:33Z</time>
      </trkpt>
      <trkpt lat="43.50294" lon="1.48591">
        <ele>272.5</ele>
        <time>2022-05-16T08:44:34Z</time>
      </trkpt>
      <trkpt lat="43.50294" lon="1.48587">
        <ele>272.8</ele>
        <time>2022-05-16T08:44:35Z</time>
      </trkpt>
      <trkpt lat="43.50294" lon="1.48583">
        <ele>273</ele>
        <time>2022-05-16T08:44:36Z</time>
      </trkpt>
      <trkpt lat="43.50294" lon="1.48577">
        <ele>273.4</ele>
        <time>2022-05-16T08:44:37Z</time>
      </trkpt>
      <trkpt lat="43.50293" lon="1.48576">
        <ele>273.4</ele>
        <time>2022-05-16T08:44:38Z</time>
      </trkpt>
      <trkpt lat="43.50293" lon="1.48572">
        <ele>273.7</ele>
        <time>2022-05-16T08:44:39Z</time>
      </trkpt>
      <trkpt lat="43.50293" lon="1.48567">
        <ele>273.8</ele>
        <time>2022-05-16T08:44:40Z</time>
      </trkpt>
      <trkpt lat="43.50293" lon="1.48564">
        <ele>274</ele>
        <time>2022-05-16T08:44:41Z</time>
      </trkpt>
      <trkpt lat="43.50292" lon="1.4856">
        <ele>274.1</ele>
        <time>2022-05-16T08:44:42Z</time>
      </trkpt>
      <trkpt lat="43.50292" lon="1.48554">
        <ele>274.1</ele>
        <time>2022-05-16T08:44:43Z</time>
      </trkpt>
      <trkpt lat="43.50292" lon="1.48553">
        <ele>274.1</ele>
        <time>2022-05-16T08:44:44Z</time>
      </trkpt>
      <trkpt lat="43.50292" lon="1.48549">
        <ele>274.1</ele>
        <time>2022-05-16T08:44:45Z</time>
      </trkpt>
      <trkpt lat="43.50292" lon="1.48543">
        <ele>274</ele>
        <time>2022-05-16T08:44:46Z</time>
      </trkpt>
      <trkpt lat="43.50292" lon="1.48542">
        <ele>273.9</ele>
        <time>2022-05-16T08:44:47Z</time>
      </trkpt>
      <trkpt lat="43.50291" lon="1.48537">
        <ele>273.7</ele>
        <time>2022-05-16T08:44:48Z</time>
      </trkpt>
      <trkpt lat="43.5029" lon="1.48532">
        <ele>273.5</ele>
        <time>2022-05-16T08:44:49Z</time>
      </trkpt>
      <trkpt lat="43.50288" lon="1.48529">
        <ele>273.3</ele>
        <time>2022-05-16T08:44:50Z</time>
      </trkpt>
      <trkpt lat="43.50285" lon="1.48526">
        <ele>272.7</ele>
        <time>2022-05-16T08:44:51Z</time>
      </trkpt>
      <trkpt lat="43.50281" lon="1.48525">
        <ele>272.4</ele>
        <time>2022-05-16T08:44:52Z</time>
      </trkpt>
      <trkpt lat="43.50276" lon="1.48527">
        <ele>272</ele>
        <time>2022-05-16T08:44:53Z</time>
      </trkpt>
      <trkpt lat="43.50271" lon="1.48529">
        <ele>271.5</ele>
        <time>2022-05-16T08:44:54Z</time>
      </trkpt>
      <trkpt lat="43.50266" lon="1.48529">
        <ele>271.1</ele>
        <time>2022-05-16T08:44:55Z</time>
      </trkpt>
      <trkpt lat="43.5026" lon="1.4853">
        <ele>270.6</ele>
        <time>2022-05-16T08:44:56Z</time>
      </trkpt>
      <trkpt lat="43.50254" lon="1.4853">
        <ele>270</ele>
        <time>2022-05-16T08:44:57Z</time>
      </trkpt>
      <trkpt lat="43.50247" lon="1.4853">
        <ele>269.4</ele>
        <time>2022-05-16T08:44:58Z</time>
      </trkpt>
      <trkpt lat="43.50239" lon="1.48529">
        <ele>268.8</ele>
        <time>2022-05-16T08:44:59Z</time>
      </trkpt>
      <trkpt lat="43.50232" lon="1.48528">
        <ele>268.2</ele>
        <time>2022-05-16T08:45:00Z</time>
      </trkpt>
      <trkpt lat="43.50224" lon="1.48528">
        <ele>267.6</ele>
        <time>2022-05-16T08:45:01Z</time>
      </trkpt>
      <trkpt lat="43.50216" lon="1.48526">
        <ele>266.9</ele>
        <time>2022-05-16T08:45:02Z</time>
      </trkpt>
      <trkpt lat="43.50208" lon="1.48525">
        <ele>266.3</ele>
        <time>2022-05-16T08:45:03Z</time>
      </trkpt>
      <trkpt lat="43.50199" lon="1.48524">
        <ele>265.6</ele>
        <time>2022-05-16T08:45:04Z</time>
      </trkpt>
      <trkpt lat="43.5019" lon="1.48522">
        <ele>264.9</ele>
        <time>2022-05-16T08:45:05Z</time>
      </trkpt>
      <trkpt lat="43.5018" lon="1.4852">
        <ele>264.2</ele>
        <time>2022-05-16T08:45:06Z</time>
      </trkpt>
      <trkpt lat="43.50171" lon="1.48519">
        <ele>263.4</ele>
        <time>2022-05-16T08:45:07Z</time>
      </trkpt>
      <trkpt lat="43.50161" lon="1.48517">
        <ele>262.7</ele>
        <time>2022-05-16T08:45:08Z</time>
      </trkpt>
      <trkpt lat="43.50152" lon="1.48515">
        <ele>262</ele>
        <time>2022-05-16T08:45:09Z</time>
      </trkpt>
      <trkpt lat="43.50142" lon="1.48513">
        <ele>261.3</ele>
        <time>2022-05-16T08:45:10Z</time>
      </trkpt>
      <trkpt lat="43.50132" lon="1.48512">
        <ele>260.6</ele>
        <time>2022-05-16T08:45:11Z</time>
      </trkpt>
      <trkpt lat="43.50122" lon="1.48511">
        <ele>260</ele>
        <time>2022-05-16T08:45:12Z</time>
      </trkpt>
      <trkpt lat="43.50112" lon="1.4851">
        <ele>259.4</ele>
        <time>2022-05-16T08:45:13Z</time>
      </trkpt>
      <trkpt lat="43.50102" lon="1.48508">
        <ele>258.9</ele>
        <time>2022-05-16T08:45:14Z</time>
      </trkpt>
      <trkpt lat="43.50092" lon="1.48507">
        <ele>258.5</ele>
        <time>2022-05-16T08:45:15Z</time>
      </trkpt>
      <trkpt lat="43.50082" lon="1.48504">
        <ele>258.2</ele>
        <time>2022-05-16T08:45:16Z</time>
      </trkpt>
      <trkpt lat="43.50075" lon="1.48499">
        <ele>258</ele>
        <time>2022-05-16T08:45:17Z</time>
      </trkpt>
      <trkpt lat="43.5007" lon="1.48495">
        <ele>257.9</ele>
        <time>2022-05-16T08:45:18Z</time>
      </trkpt>
      <trkpt lat="43.50067" lon="1.48492">
        <ele>257.8</ele>
        <time>2022-05-16T08:45:19Z</time>
      </trkpt>
      <trkpt lat="43.50065" lon="1.48488">
        <ele>257.7</ele>
        <time>2022-05-16T08:45:20Z</time>
      </trkpt>
      <trkpt lat="43.50065" lon="1.48486">
        <ele>257.7</ele>
        <time>2022-05-16T08:45:21Z</time>
      </trkpt>
      <trkpt lat="43.50065" lon="1.48483">
        <ele>257.7</ele>
        <time>2022-05-16T08:45:22Z</time>
      </trkpt>
      <trkpt lat="43.50063" lon="1.48483">
        <ele>257.6</ele>
        <time>2022-05-16T08:45:24Z</time>
      </trkpt>
      <trkpt lat="43.50061" lon="1.48485">
        <ele>257.6</ele>
        <time>2022-05-16T08:45:25Z</time>
      </trkpt>
      <trkpt lat="43.50059" lon="1.48485">
        <ele>257.6</ele>
        <time>2022-05-16T08:45:26Z</time>
      </trkpt>
      <trkpt lat="43.50055" lon="1.48484">
        <ele>257.6</ele>
        <time>2022-05-16T08:45:27Z</time>
      </trkpt>
      <trkpt lat="43.50052" lon="1.48487">
        <ele>257.6</ele>
        <time>2022-05-16T08:45:28Z</time>
      </trkpt>
      <trkpt lat="43.50049" lon="1.4849">
        <ele>257.6</ele>
        <time>2022-05-16T08:45:29Z</time>
      </trkpt>
      <trkpt lat="43.50047" lon="1.48491">
        <ele>257.7</ele>
        <time>2022-05-16T08:45:30Z</time>
      </trkpt>
      <trkpt lat="43.50045" lon="1.48493">
        <ele>257.7</ele>
        <time>2022-05-16T08:45:31Z</time>
      </trkpt>
      <trkpt lat="43.50042" lon="1.48495">
        <ele>257.7</ele>
        <time>2022-05-16T08:45:32Z</time>
      </trkpt>
      <trkpt lat="43.50039" lon="1.48496">
        <ele>257.8</ele>
        <time>2022-05-16T08:45:33Z</time>
      </trkpt>
      <trkpt lat="43.50036" lon="1.48498">
        <ele>257.8</ele>
        <time>2022-05-16T08:45:34Z</time>
      </trkpt>
      <trkpt lat="43.50033" lon="1.48499">
        <ele>257.9</ele>
        <time>2022-05-16T08:45:35Z</time>
      </trkpt>
      <trkpt lat="43.50029" lon="1.485">
        <ele>258</ele>
        <time>2022-05-16T08:45:36Z</time>
      </trkpt>
      <trkpt lat="43.50028" lon="1.48501">
        <ele>258</ele>
        <time>2022-05-16T08:45:37Z</time>
      </trkpt>
      <trkpt lat="43.50025" lon="1.48503">
        <ele>258.1</ele>
        <time>2022-05-16T08:45:38Z</time>
      </trkpt>
      <trkpt lat="43.50022" lon="1.48504">
        <ele>258.2</ele>
        <time>2022-05-16T08:45:39Z</time>
      </trkpt>
      <trkpt lat="43.5002" lon="1.48505">
        <ele>258.3</ele>
        <time>2022-05-16T08:45:40Z</time>
      </trkpt>
      <trkpt lat="43.50017" lon="1.48507">
        <ele>258.4</ele>
        <time>2022-05-16T08:45:41Z</time>
      </trkpt>
      <trkpt lat="43.50014" lon="1.48508">
        <ele>258.5</ele>
        <time>2022-05-16T08:45:42Z</time>
      </trkpt>
      <trkpt lat="43.50011" lon="1.48509">
        <ele>258.6</ele>
        <time>2022-05-16T08:45:43Z</time>
      </trkpt>
      <trkpt lat="43.50008" lon="1.48511">
        <ele>258.8</ele>
        <time>2022-05-16T08:45:45Z</time>
      </trkpt>
      <trkpt lat="43.50005" lon="1.48512">
        <ele>258.9</ele>
        <time>2022-05-16T08:45:46Z</time>
      </trkpt>
      <trkpt lat="43.50002" lon="1.48513">
        <ele>259.1</ele>
        <time>2022-05-16T08:45:47Z</time>
      </trkpt>
      <trkpt lat="43.49998" lon="1.48514">
        <ele>259.3</ele>
        <time>2022-05-16T08:45:48Z</time>
      </trkpt>
      <trkpt lat="43.49996" lon="1.48514">
        <ele>259.4</ele>
        <time>2022-05-16T08:45:49Z</time>
      </trkpt>
      <trkpt lat="43.49993" lon="1.48516">
        <ele>259.6</ele>
        <time>2022-05-16T08:45:50Z</time>
      </trkpt>
      <trkpt lat="43.49991" lon="1.48517">
        <ele>259.7</ele>
        <time>2022-05-16T08:45:51Z</time>
      </trkpt>
      <trkpt lat="43.49988" lon="1.48517">
        <ele>259.9</ele>
        <time>2022-05-16T08:45:52Z</time>
      </trkpt>
      <trkpt lat="43.49986" lon="1.48518">
        <ele>260</ele>
        <time>2022-05-16T08:45:53Z</time>
      </trkpt>
      <trkpt lat="43.49982" lon="1.48519">
        <ele>260.3</ele>
        <time>2022-05-16T08:45:54Z</time>
      </trkpt>
      <trkpt lat="43.49979" lon="1.48519">
        <ele>260.5</ele>
        <time>2022-05-16T08:45:55Z</time>
      </trkpt>
      <trkpt lat="43.49975" lon="1.4852">
        <ele>260.7</ele>
        <time>2022-05-16T08:45:56Z</time>
      </trkpt>
      <trkpt lat="43.49972" lon="1.48521">
        <ele>261</ele>
        <time>2022-05-16T08:45:57Z</time>
      </trkpt>
      <trkpt lat="43.4997" lon="1.48522">
        <ele>261.2</ele>
        <time>2022-05-16T08:45:58Z</time>
      </trkpt>
      <trkpt lat="43.49966" lon="1.48523">
        <ele>261.4</ele>
        <time>2022-05-16T08:45:59Z</time>
      </trkpt>
      <trkpt lat="43.49963" lon="1.48524">
        <ele>261.7</ele>
        <time>2022-05-16T08:46:00Z</time>
      </trkpt>
      <trkpt lat="43.4996" lon="1.48526">
        <ele>262</ele>
        <time>2022-05-16T08:46:01Z</time>
      </trkpt>
      <trkpt lat="43.49957" lon="1.48527">
        <ele>262.3</ele>
        <time>2022-05-16T08:46:02Z</time>
      </trkpt>
      <trkpt lat="43.49954" lon="1.48529">
        <ele>262.6</ele>
        <time>2022-05-16T08:46:03Z</time>
      </trkpt>
      <trkpt lat="43.49951" lon="1.4853">
        <ele>262.8</ele>
        <time>2022-05-16T08:46:04Z</time>
      </trkpt>
      <trkpt lat="43.49948" lon="1.48531">
        <ele>263.2</ele>
        <time>2022-05-16T08:46:05Z</time>
      </trkpt>
      <trkpt lat="43.49945" lon="1.48532">
        <ele>263.5</ele>
        <time>2022-05-16T08:46:06Z</time>
      </trkpt>
      <trkpt lat="43.49938" lon="1.48534">
        <ele>264.1</ele>
        <time>2022-05-16T08:46:07Z</time>
      </trkpt>
      <trkpt lat="43.49935" lon="1.48536">
        <ele>264.4</ele>
        <time>2022-05-16T08:46:08Z</time>
      </trkpt>
      <trkpt lat="43.49932" lon="1.48537">
        <ele>264.8</ele>
        <time>2022-05-16T08:46:09Z</time>
      </trkpt>
      <trkpt lat="43.49929" lon="1.48538">
        <ele>265.1</ele>
        <time>2022-05-16T08:46:10Z</time>
      </trkpt>
      <trkpt lat="43.49926" lon="1.48539">
        <ele>265.4</ele>
        <time>2022-05-16T08:46:11Z</time>
      </trkpt>
      <trkpt lat="43.49922" lon="1.4854">
        <ele>265.7</ele>
        <time>2022-05-16T08:46:12Z</time>
      </trkpt>
      <trkpt lat="43.49919" lon="1.48541">
        <ele>266.1</ele>
        <time>2022-05-16T08:46:13Z</time>
      </trkpt>
      <trkpt lat="43.49915" lon="1.48542">
        <ele>266.4</ele>
        <time>2022-05-16T08:46:14Z</time>
      </trkpt>
      <trkpt lat="43.49912" lon="1.48542">
        <ele>266.8</ele>
        <time>2022-05-16T08:46:15Z</time>
      </trkpt>
      <trkpt lat="43.49909" lon="1.48543">
        <ele>267.1</ele>
        <time>2022-05-16T08:46:16Z</time>
      </trkpt>
      <trkpt lat="43.49905" lon="1.48544">
        <ele>267.4</ele>
        <time>2022-05-16T08:46:17Z</time>
      </trkpt>
      <trkpt lat="43.49902" lon="1.48545">
        <ele>267.7</ele>
        <time>2022-05-16T08:46:18Z</time>
      </trkpt>
      <trkpt lat="43.49899" lon="1.48547">
        <ele>268.1</ele>
        <time>2022-05-16T08:46:19Z</time>
      </trkpt>
      <trkpt lat="43.49896" lon="1.48549">
        <ele>268.4</ele>
        <time>2022-05-16T08:46:20Z</time>
      </trkpt>
      <trkpt lat="43.49892" lon="1.4855">
        <ele>268.7</ele>
        <time>2022-05-16T08:46:21Z</time>
      </trkpt>
      <trkpt lat="43.49889" lon="1.48552">
        <ele>269</ele>
        <time>2022-05-16T08:46:22Z</time>
      </trkpt>
      <trkpt lat="43.49885" lon="1.48552">
        <ele>269.3</ele>
        <time>2022-05-16T08:46:23Z</time>
      </trkpt>
      <trkpt lat="43.49882" lon="1.48552">
        <ele>269.5</ele>
        <time>2022-05-16T08:46:24Z</time>
      </trkpt>
      <trkpt lat="43.49878" lon="1.48552">
        <ele>269.8</ele>
        <time>2022-05-16T08:46:25Z</time>
      </trkpt>
      <trkpt lat="43.49875" lon="1.48553">
        <ele>270</ele>
        <time>2022-05-16T08:46:26Z</time>
      </trkpt>
      <trkpt lat="43.49872" lon="1.48553">
        <ele>270.2</ele>
        <time>2022-05-16T08:46:27Z</time>
      </trkpt>
      <trkpt lat="43.49868" lon="1.48551">
        <ele>270.3</ele>
        <time>2022-05-16T08:46:28Z</time>
      </trkpt>
      <trkpt lat="43.49865" lon="1.48549">
        <ele>270.4</ele>
        <time>2022-05-16T08:46:29Z</time>
      </trkpt>
      <trkpt lat="43.49861" lon="1.48548">
        <ele>270.4</ele>
        <time>2022-05-16T08:46:30Z</time>
      </trkpt>
      <trkpt lat="43.49857" lon="1.48548">
        <ele>270.5</ele>
        <time>2022-05-16T08:46:31Z</time>
      </trkpt>
      <trkpt lat="43.49853" lon="1.48548">
        <ele>270.4</ele>
        <time>2022-05-16T08:46:32Z</time>
      </trkpt>
      <trkpt lat="43.49849" lon="1.48547">
        <ele>270.4</ele>
        <time>2022-05-16T08:46:33Z</time>
      </trkpt>
      <trkpt lat="43.49845" lon="1.48548">
        <ele>270.3</ele>
        <time>2022-05-16T08:46:34Z</time>
      </trkpt>
      <trkpt lat="43.49842" lon="1.48549">
        <ele>270.2</ele>
        <time>2022-05-16T08:46:35Z</time>
      </trkpt>
      <trkpt lat="43.49839" lon="1.48552">
        <ele>270.1</ele>
        <time>2022-05-16T08:46:36Z</time>
      </trkpt>
      <trkpt lat="43.49835" lon="1.48553">
        <ele>270</ele>
        <time>2022-05-16T08:46:37Z</time>
      </trkpt>
      <trkpt lat="43.4983" lon="1.48554">
        <ele>269.8</ele>
        <time>2022-05-16T08:46:38Z</time>
      </trkpt>
      <trkpt lat="43.49825" lon="1.48556">
        <ele>269.6</ele>
        <time>2022-05-16T08:46:39Z</time>
      </trkpt>
      <trkpt lat="43.49821" lon="1.48559">
        <ele>269.4</ele>
        <time>2022-05-16T08:46:40Z</time>
      </trkpt>
      <trkpt lat="43.49816" lon="1.48562">
        <ele>269.1</ele>
        <time>2022-05-16T08:46:41Z</time>
      </trkpt>
      <trkpt lat="43.49811" lon="1.48566">
        <ele>268.9</ele>
        <time>2022-05-16T08:46:42Z</time>
      </trkpt>
      <trkpt lat="43.49807" lon="1.4857">
        <ele>268.6</ele>
        <time>2022-05-16T08:46:43Z</time>
      </trkpt>
      <trkpt lat="43.49803" lon="1.48576">
        <ele>268.4</ele>
        <time>2022-05-16T08:46:44Z</time>
      </trkpt>
      <trkpt lat="43.49798" lon="1.48582">
        <ele>268.1</ele>
        <time>2022-05-16T08:46:45Z</time>
      </trkpt>
      <trkpt lat="43.49794" lon="1.48588">
        <ele>267.8</ele>
        <time>2022-05-16T08:46:46Z</time>
      </trkpt>
      <trkpt lat="43.4979" lon="1.48594">
        <ele>267.5</ele>
        <time>2022-05-16T08:46:47Z</time>
      </trkpt>
      <trkpt lat="43.49785" lon="1.486">
        <ele>267.2</ele>
        <time>2022-05-16T08:46:48Z</time>
      </trkpt>
      <trkpt lat="43.49781" lon="1.48603">
        <ele>267</ele>
        <time>2022-05-16T08:46:49Z</time>
      </trkpt>
      <trkpt lat="43.49772" lon="1.48598">
        <ele>265.7</ele>
        <time>2022-05-16T08:46:50Z</time>
      </trkpt>
      <trkpt lat="43.49765" lon="1.48595">
        <ele>264.5</ele>
        <time>2022-05-16T08:46:51Z</time>
      </trkpt>
      <trkpt lat="43.49756" lon="1.48594">
        <ele>262.9</ele>
        <time>2022-05-16T08:46:52Z</time>
      </trkpt>
      <trkpt lat="43.49747" lon="1.48592">
        <ele>261.1</ele>
        <time>2022-05-16T08:46:53Z</time>
      </trkpt>
      <trkpt lat="43.49738" lon="1.48591">
        <ele>259</ele>
        <time>2022-05-16T08:46:54Z</time>
      </trkpt>
      <trkpt lat="43.49727" lon="1.4859">
        <ele>256.9</ele>
        <time>2022-05-16T08:46:55Z</time>
      </trkpt>
      <trkpt lat="43.49714" lon="1.48589">
        <ele>254.6</ele>
        <time>2022-05-16T08:46:56Z</time>
      </trkpt>
      <trkpt lat="43.49702" lon="1.48586">
        <ele>252.6</ele>
        <time>2022-05-16T08:46:57Z</time>
      </trkpt>
      <trkpt lat="43.49688" lon="1.48585">
        <ele>250.5</ele>
        <time>2022-05-16T08:46:58Z</time>
      </trkpt>
      <trkpt lat="43.49676" lon="1.48582">
        <ele>248.7</ele>
        <time>2022-05-16T08:46:59Z</time>
      </trkpt>
      <trkpt lat="43.49664" lon="1.48579">
        <ele>247.1</ele>
        <time>2022-05-16T08:47:00Z</time>
      </trkpt>
      <trkpt lat="43.49652" lon="1.48575">
        <ele>245.9</ele>
        <time>2022-05-16T08:47:01Z</time>
      </trkpt>
      <trkpt lat="43.4964" lon="1.48574">
        <ele>245.5</ele>
        <time>2022-05-16T08:47:02Z</time>
      </trkpt>
      <trkpt lat="43.49629" lon="1.48569">
        <ele>245.8</ele>
        <time>2022-05-16T08:47:03Z</time>
      </trkpt>
      <trkpt lat="43.49621" lon="1.4856">
        <ele>246.8</ele>
        <time>2022-05-16T08:47:04Z</time>
      </trkpt>
      <trkpt lat="43.49613" lon="1.48552">
        <ele>247.8</ele>
        <time>2022-05-16T08:47:05Z</time>
      </trkpt>
      <trkpt lat="43.49607" lon="1.48547">
        <ele>248.6</ele>
        <time>2022-05-16T08:47:06Z</time>
      </trkpt>
      <trkpt lat="43.49601" lon="1.48545">
        <ele>249.3</ele>
        <time>2022-05-16T08:47:07Z</time>
      </trkpt>
      <trkpt lat="43.49597" lon="1.48542">
        <ele>249.8</ele>
        <time>2022-05-16T08:47:08Z</time>
      </trkpt>
      <trkpt lat="43.49593" lon="1.48539">
        <ele>250.3</ele>
        <time>2022-05-16T08:47:09Z</time>
      </trkpt>
      <trkpt lat="43.4959" lon="1.48537">
        <ele>250.7</ele>
        <time>2022-05-16T08:47:10Z</time>
      </trkpt>
      <trkpt lat="43.49586" lon="1.48534">
        <ele>251.1</ele>
        <time>2022-05-16T08:47:11Z</time>
      </trkpt>
      <trkpt lat="43.49582" lon="1.48532">
        <ele>251.5</ele>
        <time>2022-05-16T08:47:12Z</time>
      </trkpt>
      <trkpt lat="43.49579" lon="1.48529">
        <ele>251.9</ele>
        <time>2022-05-16T08:47:13Z</time>
      </trkpt>
      <trkpt lat="43.49575" lon="1.48527">
        <ele>252.3</ele>
        <time>2022-05-16T08:47:14Z</time>
      </trkpt>
      <trkpt lat="43.49572" lon="1.48526">
        <ele>252.6</ele>
        <time>2022-05-16T08:47:15Z</time>
      </trkpt>
      <trkpt lat="43.49569" lon="1.48524">
        <ele>253</ele>
        <time>2022-05-16T08:47:16Z</time>
      </trkpt>
      <trkpt lat="43.49565" lon="1.48522">
        <ele>253.3</ele>
        <time>2022-05-16T08:47:17Z</time>
      </trkpt>
      <trkpt lat="43.49562" lon="1.4852">
        <ele>253.6</ele>
        <time>2022-05-16T08:47:18Z</time>
      </trkpt>
      <trkpt lat="43.49559" lon="1.48518">
        <ele>253.9</ele>
        <time>2022-05-16T08:47:19Z</time>
      </trkpt>
      <trkpt lat="43.49555" lon="1.48516">
        <ele>254.1</ele>
        <time>2022-05-16T08:47:20Z</time>
      </trkpt>
      <trkpt lat="43.49552" lon="1.48513">
        <ele>254.3</ele>
        <time>2022-05-16T08:47:21Z</time>
      </trkpt>
      <trkpt lat="43.49549" lon="1.48511">
        <ele>254.5</ele>
        <time>2022-05-16T08:47:22Z</time>
      </trkpt>
      <trkpt lat="43.49545" lon="1.48509">
        <ele>254.6</ele>
        <time>2022-05-16T08:47:23Z</time>
      </trkpt>
      <trkpt lat="43.49542" lon="1.48506">
        <ele>254.8</ele>
        <time>2022-05-16T08:47:24Z</time>
      </trkpt>
      <trkpt lat="43.49538" lon="1.48504">
        <ele>254.9</ele>
        <time>2022-05-16T08:47:25Z</time>
      </trkpt>
      <trkpt lat="43.49535" lon="1.48501">
        <ele>255</ele>
        <time>2022-05-16T08:47:26Z</time>
      </trkpt>
      <trkpt lat="43.49531" lon="1.485">
        <ele>255.1</ele>
        <time>2022-05-16T08:47:27Z</time>
      </trkpt>
      <trkpt lat="43.49527" lon="1.48497">
        <ele>255.2</ele>
        <time>2022-05-16T08:47:28Z</time>
      </trkpt>
      <trkpt lat="43.49524" lon="1.48494">
        <ele>255.3</ele>
        <time>2022-05-16T08:47:29Z</time>
      </trkpt>
      <trkpt lat="43.4952" lon="1.48492">
        <ele>255.3</ele>
        <time>2022-05-16T08:47:30Z</time>
      </trkpt>
      <trkpt lat="43.49517" lon="1.48489">
        <ele>255.4</ele>
        <time>2022-05-16T08:47:31Z</time>
      </trkpt>
      <trkpt lat="43.49514" lon="1.48487">
        <ele>255.4</ele>
        <time>2022-05-16T08:47:32Z</time>
      </trkpt>
      <trkpt lat="43.4951" lon="1.48485">
        <ele>255.5</ele>
        <time>2022-05-16T08:47:33Z</time>
      </trkpt>
      <trkpt lat="43.49507" lon="1.48483">
        <ele>255.5</ele>
        <time>2022-05-16T08:47:34Z</time>
      </trkpt>
      <trkpt lat="43.49504" lon="1.48481">
        <ele>255.5</ele>
        <time>2022-05-16T08:47:35Z</time>
      </trkpt>
      <trkpt lat="43.49501" lon="1.48478">
        <ele>255.5</ele>
        <time>2022-05-16T08:47:36Z</time>
      </trkpt>
      <trkpt lat="43.49497" lon="1.48475">
        <ele>255.5</ele>
        <time>2022-05-16T08:47:37Z</time>
      </trkpt>
      <trkpt lat="43.49494" lon="1.48472">
        <ele>255.5</ele>
        <time>2022-05-16T08:47:38Z</time>
      </trkpt>
      <trkpt lat="43.49491" lon="1.4847">
        <ele>255.5</ele>
        <time>2022-05-16T08:47:39Z</time>
      </trkpt>
      <trkpt lat="43.49487" lon="1.48468">
        <ele>255.5</ele>
        <time>2022-05-16T08:47:40Z</time>
      </trkpt>
      <trkpt lat="43.49484" lon="1.48465">
        <ele>255.5</ele>
        <time>2022-05-16T08:47:41Z</time>
      </trkpt>
      <trkpt lat="43.49481" lon="1.48463">
        <ele>255.4</ele>
        <time>2022-05-16T08:47:42Z</time>
      </trkpt>
      <trkpt lat="43.49478" lon="1.4846">
        <ele>255.3</ele>
        <time>2022-05-16T08:47:43Z</time>
      </trkpt>
      <trkpt lat="43.49474" lon="1.48457">
        <ele>255.2</ele>
        <time>2022-05-16T08:47:44Z</time>
      </trkpt>
      <trkpt lat="43.4947" lon="1.48455">
        <ele>255</ele>
        <time>2022-05-16T08:47:45Z</time>
      </trkpt>
      <trkpt lat="43.49466" lon="1.48452">
        <ele>254.8</ele>
        <time>2022-05-16T08:47:46Z</time>
      </trkpt>
      <trkpt lat="43.49462" lon="1.48449">
        <ele>254.5</ele>
        <time>2022-05-16T08:47:47Z</time>
      </trkpt>
      <trkpt lat="43.49458" lon="1.48446">
        <ele>254.2</ele>
        <time>2022-05-16T08:47:48Z</time>
      </trkpt>
      <trkpt lat="43.49454" lon="1.48442">
        <ele>253.7</ele>
        <time>2022-05-16T08:47:49Z</time>
      </trkpt>
      <trkpt lat="43.49449" lon="1.48439">
        <ele>253.2</ele>
        <time>2022-05-16T08:47:51Z</time>
      </trkpt>
      <trkpt lat="43.49443" lon="1.48435">
        <ele>252.5</ele>
        <time>2022-05-16T08:47:52Z</time>
      </trkpt>
      <trkpt lat="43.49437" lon="1.48431">
        <ele>251.5</ele>
        <time>2022-05-16T08:47:53Z</time>
      </trkpt>
      <trkpt lat="43.49431" lon="1.48426">
        <ele>250.5</ele>
        <time>2022-05-16T08:47:54Z</time>
      </trkpt>
      <trkpt lat="43.49424" lon="1.4842">
        <ele>249.1</ele>
        <time>2022-05-16T08:47:55Z</time>
      </trkpt>
      <trkpt lat="43.49416" lon="1.48413">
        <ele>247.6</ele>
        <time>2022-05-16T08:47:56Z</time>
      </trkpt>
      <trkpt lat="43.49407" lon="1.48406">
        <ele>245.8</ele>
        <time>2022-05-16T08:47:57Z</time>
      </trkpt>
      <trkpt lat="43.49398" lon="1.48399">
        <ele>243.8</ele>
        <time>2022-05-16T08:47:58Z</time>
      </trkpt>
      <trkpt lat="43.49389" lon="1.48391">
        <ele>241.7</ele>
        <time>2022-05-16T08:47:59Z</time>
      </trkpt>
      <trkpt lat="43.49378" lon="1.48381">
        <ele>239.4</ele>
        <time>2022-05-16T08:48:00Z</time>
      </trkpt>
      <trkpt lat="43.49367" lon="1.48372">
        <ele>237</ele>
        <time>2022-05-16T08:48:01Z</time>
      </trkpt>
      <trkpt lat="43.49356" lon="1.48363">
        <ele>234.6</ele>
        <time>2022-05-16T08:48:02Z</time>
      </trkpt>
      <trkpt lat="43.49344" lon="1.48352">
        <ele>232</ele>
        <time>2022-05-16T08:48:03Z</time>
      </trkpt>
      <trkpt lat="43.49333" lon="1.48341">
        <ele>229.4</ele>
        <time>2022-05-16T08:48:04Z</time>
      </trkpt>
      <trkpt lat="43.49323" lon="1.48332">
        <ele>227.2</ele>
        <time>2022-05-16T08:48:05Z</time>
      </trkpt>
      <trkpt lat="43.49313" lon="1.48323">
        <ele>225.1</ele>
        <time>2022-05-16T08:48:06Z</time>
      </trkpt>
      <trkpt lat="43.49305" lon="1.48316">
        <ele>223.3</ele>
        <time>2022-05-16T08:48:07Z</time>
      </trkpt>
      <trkpt lat="43.49298" lon="1.48309">
        <ele>221.8</ele>
        <time>2022-05-16T08:48:08Z</time>
      </trkpt>
      <trkpt lat="43.49293" lon="1.48304">
        <ele>220.9</ele>
        <time>2022-05-16T08:48:09Z</time>
      </trkpt>
      <trkpt lat="43.49289" lon="1.48299">
        <ele>220.3</ele>
        <time>2022-05-16T08:48:10Z</time>
      </trkpt>
      <trkpt lat="43.49286" lon="1.48293">
        <ele>219.9</ele>
        <time>2022-05-16T08:48:11Z</time>
      </trkpt>
      <trkpt lat="43.49292" lon="1.48283">
        <ele>219.4</ele>
        <time>2022-05-16T08:48:12Z</time>
      </trkpt>
      <trkpt lat="43.49295" lon="1.48279">
        <ele>219.3</ele>
        <time>2022-05-16T08:48:13Z</time>
      </trkpt>
      <trkpt lat="43.49299" lon="1.48274">
        <ele>219.2</ele>
        <time>2022-05-16T08:48:14Z</time>
      </trkpt>
      <trkpt lat="43.49302" lon="1.4827">
        <ele>219.1</ele>
        <time>2022-05-16T08:48:15Z</time>
      </trkpt>
      <trkpt lat="43.49305" lon="1.48265">
        <ele>219</ele>
        <time>2022-05-16T08:48:16Z</time>
      </trkpt>
      <trkpt lat="43.49308" lon="1.4826">
        <ele>218.9</ele>
        <time>2022-05-16T08:48:17Z</time>
      </trkpt>
      <trkpt lat="43.49311" lon="1.48255">
        <ele>218.8</ele>
        <time>2022-05-16T08:48:18Z</time>
      </trkpt>
      <trkpt lat="43.49314" lon="1.48249">
        <ele>218.8</ele>
        <time>2022-05-16T08:48:19Z</time>
      </trkpt>
      <trkpt lat="43.49317" lon="1.48244">
        <ele>218.7</ele>
        <time>2022-05-16T08:48:20Z</time>
      </trkpt>
      <trkpt lat="43.4932" lon="1.48239">
        <ele>218.6</ele>
        <time>2022-05-16T08:48:21Z</time>
      </trkpt>
      <trkpt lat="43.49322" lon="1.48233">
        <ele>218.5</ele>
        <time>2022-05-16T08:48:22Z</time>
      </trkpt>
      <trkpt lat="43.49324" lon="1.48227">
        <ele>218.4</ele>
        <time>2022-05-16T08:48:23Z</time>
      </trkpt>
      <trkpt lat="43.49327" lon="1.48222">
        <ele>218.3</ele>
        <time>2022-05-16T08:48:24Z</time>
      </trkpt>
      <trkpt lat="43.4933" lon="1.48217">
        <ele>218.2</ele>
        <time>2022-05-16T08:48:25Z</time>
      </trkpt>
      <trkpt lat="43.49333" lon="1.48212">
        <ele>218</ele>
        <time>2022-05-16T08:48:26Z</time>
      </trkpt>
      <trkpt lat="43.49335" lon="1.48206">
        <ele>217.9</ele>
        <time>2022-05-16T08:48:27Z</time>
      </trkpt>
      <trkpt lat="43.49334" lon="1.48199">
        <ele>217.8</ele>
        <time>2022-05-16T08:48:28Z</time>
      </trkpt>
      <trkpt lat="43.4933" lon="1.48193">
        <ele>217.8</ele>
        <time>2022-05-16T08:48:29Z</time>
      </trkpt>
      <trkpt lat="43.49326" lon="1.48189">
        <ele>217.9</ele>
        <time>2022-05-16T08:48:30Z</time>
      </trkpt>
      <trkpt lat="43.49321" lon="1.48185">
        <ele>218.2</ele>
        <time>2022-05-16T08:48:31Z</time>
      </trkpt>
      <trkpt lat="43.49317" lon="1.48182">
        <ele>218.4</ele>
        <time>2022-05-16T08:48:32Z</time>
      </trkpt>
      <trkpt lat="43.49314" lon="1.48178">
        <ele>218.8</ele>
        <time>2022-05-16T08:48:33Z</time>
      </trkpt>
      <trkpt lat="43.4931" lon="1.48176">
        <ele>219.2</ele>
        <time>2022-05-16T08:48:34Z</time>
      </trkpt>
      <trkpt lat="43.49307" lon="1.48173">
        <ele>219.7</ele>
        <time>2022-05-16T08:48:35Z</time>
      </trkpt>
      <trkpt lat="43.49303" lon="1.4817">
        <ele>220.2</ele>
        <time>2022-05-16T08:48:36Z</time>
      </trkpt>
      <trkpt lat="43.493" lon="1.48167">
        <ele>220.7</ele>
        <time>2022-05-16T08:48:37Z</time>
      </trkpt>
      <trkpt lat="43.49297" lon="1.48164">
        <ele>221.2</ele>
        <time>2022-05-16T08:48:38Z</time>
      </trkpt>
      <trkpt lat="43.49293" lon="1.48161">
        <ele>221.7</ele>
        <time>2022-05-16T08:48:39Z</time>
      </trkpt>
      <trkpt lat="43.49291" lon="1.48158">
        <ele>222.2</ele>
        <time>2022-05-16T08:48:40Z</time>
      </trkpt>
      <trkpt lat="43.49288" lon="1.48153">
        <ele>222.8</ele>
        <time>2022-05-16T08:48:41Z</time>
      </trkpt>
      <trkpt lat="43.49284" lon="1.4815">
        <ele>223.4</ele>
        <time>2022-05-16T08:48:42Z</time>
      </trkpt>
      <trkpt lat="43.49281" lon="1.48148">
        <ele>223.9</ele>
        <time>2022-05-16T08:48:43Z</time>
      </trkpt>
      <trkpt lat="43.49278" lon="1.48146">
        <ele>224.5</ele>
        <time>2022-05-16T08:48:44Z</time>
      </trkpt>
      <trkpt lat="43.49274" lon="1.48144">
        <ele>225</ele>
        <time>2022-05-16T08:48:45Z</time>
      </trkpt>
      <trkpt lat="43.49272" lon="1.48141">
        <ele>225.5</ele>
        <time>2022-05-16T08:48:46Z</time>
      </trkpt>
      <trkpt lat="43.49268" lon="1.48138">
        <ele>226</ele>
        <time>2022-05-16T08:48:47Z</time>
      </trkpt>
      <trkpt lat="43.49266" lon="1.48136">
        <ele>226.5</ele>
        <time>2022-05-16T08:48:48Z</time>
      </trkpt>
      <trkpt lat="43.49262" lon="1.48133">
        <ele>227.1</ele>
        <time>2022-05-16T08:48:49Z</time>
      </trkpt>
      <trkpt lat="43.49258" lon="1.4813">
        <ele>227.6</ele>
        <time>2022-05-16T08:48:50Z</time>
      </trkpt>
      <trkpt lat="43.49255" lon="1.48126">
        <ele>228.1</ele>
        <time>2022-05-16T08:48:51Z</time>
      </trkpt>
      <trkpt lat="43.49252" lon="1.48123">
        <ele>228.6</ele>
        <time>2022-05-16T08:48:52Z</time>
      </trkpt>
      <trkpt lat="43.49249" lon="1.4812">
        <ele>229.1</ele>
        <time>2022-05-16T08:48:53Z</time>
      </trkpt>
      <trkpt lat="43.49245" lon="1.48117">
        <ele>229.5</ele>
        <time>2022-05-16T08:48:54Z</time>
      </trkpt>
      <trkpt lat="43.49242" lon="1.48113">
        <ele>230</ele>
        <time>2022-05-16T08:48:55Z</time>
      </trkpt>
      <trkpt lat="43.49239" lon="1.4811">
        <ele>230.4</ele>
        <time>2022-05-16T08:48:56Z</time>
      </trkpt>
      <trkpt lat="43.49236" lon="1.48106">
        <ele>230.8</ele>
        <time>2022-05-16T08:48:57Z</time>
      </trkpt>
      <trkpt lat="43.49233" lon="1.48103">
        <ele>231.2</ele>
        <time>2022-05-16T08:48:58Z</time>
      </trkpt>
      <trkpt lat="43.4923" lon="1.48099">
        <ele>231.6</ele>
        <time>2022-05-16T08:48:59Z</time>
      </trkpt>
      <trkpt lat="43.49226" lon="1.48095">
        <ele>232</ele>
        <time>2022-05-16T08:49:00Z</time>
      </trkpt>
      <trkpt lat="43.49224" lon="1.4809">
        <ele>232.4</ele>
        <time>2022-05-16T08:49:01Z</time>
      </trkpt>
      <trkpt lat="43.49221" lon="1.48087">
        <ele>232.8</ele>
        <time>2022-05-16T08:49:02Z</time>
      </trkpt>
      <trkpt lat="43.49217" lon="1.48083">
        <ele>233.2</ele>
        <time>2022-05-16T08:49:03Z</time>
      </trkpt>
      <trkpt lat="43.49214" lon="1.48079">
        <ele>233.7</ele>
        <time>2022-05-16T08:49:04Z</time>
      </trkpt>
      <trkpt lat="43.49211" lon="1.48075">
        <ele>234.1</ele>
        <time>2022-05-16T08:49:05Z</time>
      </trkpt>
      <trkpt lat="43.49208" lon="1.48071">
        <ele>234.5</ele>
        <time>2022-05-16T08:49:06Z</time>
      </trkpt>
      <trkpt lat="43.49205" lon="1.48066">
        <ele>235</ele>
        <time>2022-05-16T08:49:07Z</time>
      </trkpt>
      <trkpt lat="43.49202" lon="1.48062">
        <ele>235.4</ele>
        <time>2022-05-16T08:49:08Z</time>
      </trkpt>
      <trkpt lat="43.492" lon="1.48057">
        <ele>235.8</ele>
        <time>2022-05-16T08:49:09Z</time>
      </trkpt>
      <trkpt lat="43.49198" lon="1.48052">
        <ele>236.4</ele>
        <time>2022-05-16T08:49:10Z</time>
      </trkpt>
      <trkpt lat="43.49196" lon="1.48048">
        <ele>236.9</ele>
        <time>2022-05-16T08:49:11Z</time>
      </trkpt>
      <trkpt lat="43.49194" lon="1.48043">
        <ele>237.4</ele>
        <time>2022-05-16T08:49:12Z</time>
      </trkpt>
      <trkpt lat="43.49191" lon="1.4804">
        <ele>238</ele>
        <time>2022-05-16T08:49:13Z</time>
      </trkpt>
      <trkpt lat="43.49187" lon="1.48036">
        <ele>238.6</ele>
        <time>2022-05-16T08:49:14Z</time>
      </trkpt>
      <trkpt lat="43.49185" lon="1.48032">
        <ele>239.1</ele>
        <time>2022-05-16T08:49:15Z</time>
      </trkpt>
      <trkpt lat="43.49182" lon="1.48028">
        <ele>239.7</ele>
        <time>2022-05-16T08:49:16Z</time>
      </trkpt>
      <trkpt lat="43.4918" lon="1.48024">
        <ele>240.3</ele>
        <time>2022-05-16T08:49:17Z</time>
      </trkpt>
      <trkpt lat="43.49177" lon="1.4802">
        <ele>240.9</ele>
        <time>2022-05-16T08:49:18Z</time>
      </trkpt>
      <trkpt lat="43.49174" lon="1.48017">
        <ele>241.5</ele>
        <time>2022-05-16T08:49:19Z</time>
      </trkpt>
      <trkpt lat="43.49171" lon="1.48013">
        <ele>242.1</ele>
        <time>2022-05-16T08:49:20Z</time>
      </trkpt>
      <trkpt lat="43.49168" lon="1.4801">
        <ele>242.6</ele>
        <time>2022-05-16T08:49:21Z</time>
      </trkpt>
      <trkpt lat="43.49166" lon="1.48006">
        <ele>243.2</ele>
        <time>2022-05-16T08:49:22Z</time>
      </trkpt>
      <trkpt lat="43.49164" lon="1.48003">
        <ele>243.6</ele>
        <time>2022-05-16T08:49:23Z</time>
      </trkpt>
      <trkpt lat="43.49162" lon="1.48">
        <ele>244.1</ele>
        <time>2022-05-16T08:49:24Z</time>
      </trkpt>
      <trkpt lat="43.49159" lon="1.47997">
        <ele>244.6</ele>
        <time>2022-05-16T08:49:25Z</time>
      </trkpt>
      <trkpt lat="43.49156" lon="1.47994">
        <ele>245.2</ele>
        <time>2022-05-16T08:49:26Z</time>
      </trkpt>
      <trkpt lat="43.49154" lon="1.47991">
        <ele>245.7</ele>
        <time>2022-05-16T08:49:27Z</time>
      </trkpt>
      <trkpt lat="43.49151" lon="1.47988">
        <ele>246.3</ele>
        <time>2022-05-16T08:49:28Z</time>
      </trkpt>
      <trkpt lat="43.49148" lon="1.47986">
        <ele>246.8</ele>
        <time>2022-05-16T08:49:29Z</time>
      </trkpt>
      <trkpt lat="43.49144" lon="1.47983">
        <ele>247.5</ele>
        <time>2022-05-16T08:49:30Z</time>
      </trkpt>
      <trkpt lat="43.49142" lon="1.47983">
        <ele>247.8</ele>
        <time>2022-05-16T08:49:31Z</time>
      </trkpt>
      <trkpt lat="43.4914" lon="1.4798">
        <ele>248.3</ele>
        <time>2022-05-16T08:49:32Z</time>
      </trkpt>
      <trkpt lat="43.49137" lon="1.47977">
        <ele>248.9</ele>
        <time>2022-05-16T08:49:33Z</time>
      </trkpt>
      <trkpt lat="43.49134" lon="1.47975">
        <ele>249.4</ele>
        <time>2022-05-16T08:49:34Z</time>
      </trkpt>
      <trkpt lat="43.49131" lon="1.47973">
        <ele>250</ele>
        <time>2022-05-16T08:49:35Z</time>
      </trkpt>
      <trkpt lat="43.49128" lon="1.47972">
        <ele>250.5</ele>
        <time>2022-05-16T08:49:36Z</time>
      </trkpt>
      <trkpt lat="43.49125" lon="1.4797">
        <ele>251.1</ele>
        <time>2022-05-16T08:49:37Z</time>
      </trkpt>
      <trkpt lat="43.49122" lon="1.47968">
        <ele>251.6</ele>
        <time>2022-05-16T08:49:38Z</time>
      </trkpt>
      <trkpt lat="43.49119" lon="1.47967">
        <ele>252.1</ele>
        <time>2022-05-16T08:49:39Z</time>
      </trkpt>
      <trkpt lat="43.49116" lon="1.47966">
        <ele>252.7</ele>
        <time>2022-05-16T08:49:40Z</time>
      </trkpt>
      <trkpt lat="43.49113" lon="1.47965">
        <ele>253.2</ele>
        <time>2022-05-16T08:49:41Z</time>
      </trkpt>
      <trkpt lat="43.4911" lon="1.47964">
        <ele>253.7</ele>
        <time>2022-05-16T08:49:42Z</time>
      </trkpt>
      <trkpt lat="43.49107" lon="1.47962">
        <ele>254.3</ele>
        <time>2022-05-16T08:49:43Z</time>
      </trkpt>
      <trkpt lat="43.49105" lon="1.47961">
        <ele>254.8</ele>
        <time>2022-05-16T08:49:44Z</time>
      </trkpt>
      <trkpt lat="43.49101" lon="1.4796">
        <ele>255.6</ele>
        <time>2022-05-16T08:49:45Z</time>
      </trkpt>
      <trkpt lat="43.49099" lon="1.47959">
        <ele>255.9</ele>
        <time>2022-05-16T08:49:46Z</time>
      </trkpt>
      <trkpt lat="43.49096" lon="1.47958">
        <ele>256.5</ele>
        <time>2022-05-16T08:49:47Z</time>
      </trkpt>
      <trkpt lat="43.49093" lon="1.47957">
        <ele>257.1</ele>
        <time>2022-05-16T08:49:48Z</time>
      </trkpt>
      <trkpt lat="43.49091" lon="1.47955">
        <ele>257.8</ele>
        <time>2022-05-16T08:49:49Z</time>
      </trkpt>
      <trkpt lat="43.49088" lon="1.47954">
        <ele>258.4</ele>
        <time>2022-05-16T08:49:50Z</time>
      </trkpt>
      <trkpt lat="43.49085" lon="1.47952">
        <ele>259.1</ele>
        <time>2022-05-16T08:49:51Z</time>
      </trkpt>
      <trkpt lat="43.49081" lon="1.47951">
        <ele>259.7</ele>
        <time>2022-05-16T08:49:52Z</time>
      </trkpt>
      <trkpt lat="43.49079" lon="1.4795">
        <ele>260.3</ele>
        <time>2022-05-16T08:49:53Z</time>
      </trkpt>
      <trkpt lat="43.49076" lon="1.47949">
        <ele>260.9</ele>
        <time>2022-05-16T08:49:54Z</time>
      </trkpt>
      <trkpt lat="43.49073" lon="1.47949">
        <ele>261.5</ele>
        <time>2022-05-16T08:49:55Z</time>
      </trkpt>
      <trkpt lat="43.49069" lon="1.47947">
        <ele>262.4</ele>
        <time>2022-05-16T08:49:57Z</time>
      </trkpt>
      <trkpt lat="43.49067" lon="1.47946">
        <ele>262.8</ele>
        <time>2022-05-16T08:49:58Z</time>
      </trkpt>
      <trkpt lat="43.49065" lon="1.47945">
        <ele>263.2</ele>
        <time>2022-05-16T08:49:59Z</time>
      </trkpt>
      <trkpt lat="43.49062" lon="1.47943">
        <ele>263.8</ele>
        <time>2022-05-16T08:50:00Z</time>
      </trkpt>
      <trkpt lat="43.49059" lon="1.47942">
        <ele>264.3</ele>
        <time>2022-05-16T08:50:01Z</time>
      </trkpt>
      <trkpt lat="43.49057" lon="1.47941">
        <ele>264.8</ele>
        <time>2022-05-16T08:50:02Z</time>
      </trkpt>
      <trkpt lat="43.49053" lon="1.47939">
        <ele>265.5</ele>
        <time>2022-05-16T08:50:03Z</time>
      </trkpt>
      <trkpt lat="43.49052" lon="1.47939">
        <ele>265.7</ele>
        <time>2022-05-16T08:50:04Z</time>
      </trkpt>
      <trkpt lat="43.49049" lon="1.47938">
        <ele>266.2</ele>
        <time>2022-05-16T08:50:05Z</time>
      </trkpt>
      <trkpt lat="43.49046" lon="1.47936">
        <ele>266.8</ele>
        <time>2022-05-16T08:50:06Z</time>
      </trkpt>
      <trkpt lat="43.49043" lon="1.47935">
        <ele>267.3</ele>
        <time>2022-05-16T08:50:07Z</time>
      </trkpt>
      <trkpt lat="43.4904" lon="1.47934">
        <ele>267.8</ele>
        <time>2022-05-16T08:50:08Z</time>
      </trkpt>
      <trkpt lat="43.49037" lon="1.47932">
        <ele>268.2</ele>
        <time>2022-05-16T08:50:09Z</time>
      </trkpt>
      <trkpt lat="43.49034" lon="1.4793">
        <ele>268.7</ele>
        <time>2022-05-16T08:50:10Z</time>
      </trkpt>
      <trkpt lat="43.49031" lon="1.47928">
        <ele>269.1</ele>
        <time>2022-05-16T08:50:11Z</time>
      </trkpt>
      <trkpt lat="43.49029" lon="1.47927">
        <ele>269.3</ele>
        <time>2022-05-16T08:50:12Z</time>
      </trkpt>
      <trkpt lat="43.49027" lon="1.47926">
        <ele>269.6</ele>
        <time>2022-05-16T08:50:13Z</time>
      </trkpt>
      <trkpt lat="43.49023" lon="1.47924">
        <ele>269.9</ele>
        <time>2022-05-16T08:50:14Z</time>
      </trkpt>
      <trkpt lat="43.49022" lon="1.47923">
        <ele>270.5</ele>
        <time>2022-05-16T08:50:15Z</time>
      </trkpt>
      <trkpt lat="43.49022" lon="1.47919">
        <ele>270.4</ele>
        <time>2022-05-16T08:50:16Z</time>
      </trkpt>
      <trkpt lat="43.49022" lon="1.47915">
        <ele>270.2</ele>
        <time>2022-05-16T08:50:17Z</time>
      </trkpt>
      <trkpt lat="43.49025" lon="1.47906">
        <ele>270</ele>
        <time>2022-05-16T08:50:18Z</time>
      </trkpt>
      <trkpt lat="43.49027" lon="1.47902">
        <ele>269.8</ele>
        <time>2022-05-16T08:50:19Z</time>
      </trkpt>
      <trkpt lat="43.49029" lon="1.47898">
        <ele>269.7</ele>
        <time>2022-05-16T08:50:20Z</time>
      </trkpt>
      <trkpt lat="43.4903" lon="1.47893">
        <ele>269.5</ele>
        <time>2022-05-16T08:50:21Z</time>
      </trkpt>
      <trkpt lat="43.49031" lon="1.47888">
        <ele>269.4</ele>
        <time>2022-05-16T08:50:22Z</time>
      </trkpt>
      <trkpt lat="43.49031" lon="1.47883">
        <ele>269.2</ele>
        <time>2022-05-16T08:50:23Z</time>
      </trkpt>
      <trkpt lat="43.49033" lon="1.47877">
        <ele>269</ele>
        <time>2022-05-16T08:50:24Z</time>
      </trkpt>
      <trkpt lat="43.49034" lon="1.47871">
        <ele>268.8</ele>
        <time>2022-05-16T08:50:25Z</time>
      </trkpt>
      <trkpt lat="43.49035" lon="1.47865">
        <ele>268.6</ele>
        <time>2022-05-16T08:50:26Z</time>
      </trkpt>
      <trkpt lat="43.49036" lon="1.47859">
        <ele>268.4</ele>
        <time>2022-05-16T08:50:27Z</time>
      </trkpt>
      <trkpt lat="43.49037" lon="1.47853">
        <ele>268.2</ele>
        <time>2022-05-16T08:50:28Z</time>
      </trkpt>
      <trkpt lat="43.49038" lon="1.47846">
        <ele>268</ele>
        <time>2022-05-16T08:50:29Z</time>
      </trkpt>
      <trkpt lat="43.49038" lon="1.47839">
        <ele>267.8</ele>
        <time>2022-05-16T08:50:30Z</time>
      </trkpt>
      <trkpt lat="43.49039" lon="1.47832">
        <ele>267.6</ele>
        <time>2022-05-16T08:50:31Z</time>
      </trkpt>
      <trkpt lat="43.49041" lon="1.47825">
        <ele>267.3</ele>
        <time>2022-05-16T08:50:32Z</time>
      </trkpt>
      <trkpt lat="43.49042" lon="1.47817">
        <ele>267.1</ele>
        <time>2022-05-16T08:50:33Z</time>
      </trkpt>
      <trkpt lat="43.49044" lon="1.4781">
        <ele>266.8</ele>
        <time>2022-05-16T08:50:34Z</time>
      </trkpt>
      <trkpt lat="43.49045" lon="1.47802">
        <ele>266.6</ele>
        <time>2022-05-16T08:50:35Z</time>
      </trkpt>
      <trkpt lat="43.49047" lon="1.47794">
        <ele>266.3</ele>
        <time>2022-05-16T08:50:36Z</time>
      </trkpt>
      <trkpt lat="43.4905" lon="1.47786">
        <ele>266</ele>
        <time>2022-05-16T08:50:37Z</time>
      </trkpt>
      <trkpt lat="43.49052" lon="1.47778">
        <ele>265.8</ele>
        <time>2022-05-16T08:50:38Z</time>
      </trkpt>
      <trkpt lat="43.49054" lon="1.47769">
        <ele>265.5</ele>
        <time>2022-05-16T08:50:39Z</time>
      </trkpt>
      <trkpt lat="43.49056" lon="1.47762">
        <ele>265.3</ele>
        <time>2022-05-16T08:50:40Z</time>
      </trkpt>
      <trkpt lat="43.49054" lon="1.47756">
        <ele>264.8</ele>
        <time>2022-05-16T08:50:41Z</time>
      </trkpt>
      <trkpt lat="43.49049" lon="1.47752">
        <ele>264.2</ele>
        <time>2022-05-16T08:50:42Z</time>
      </trkpt>
      <trkpt lat="43.49043" lon="1.47749">
        <ele>263.6</ele>
        <time>2022-05-16T08:50:43Z</time>
      </trkpt>
      <trkpt lat="43.49038" lon="1.47744">
        <ele>262.9</ele>
        <time>2022-05-16T08:50:44Z</time>
      </trkpt>
      <trkpt lat="43.49032" lon="1.47739">
        <ele>262.1</ele>
        <time>2022-05-16T08:50:45Z</time>
      </trkpt>
      <trkpt lat="43.49026" lon="1.47734">
        <ele>261.1</ele>
        <time>2022-05-16T08:50:46Z</time>
      </trkpt>
      <trkpt lat="43.49019" lon="1.47728">
        <ele>260.2</ele>
        <time>2022-05-16T08:50:47Z</time>
      </trkpt>
      <trkpt lat="43.49012" lon="1.47722">
        <ele>259.1</ele>
        <time>2022-05-16T08:50:48Z</time>
      </trkpt>
      <trkpt lat="43.49004" lon="1.47715">
        <ele>257.9</ele>
        <time>2022-05-16T08:50:49Z</time>
      </trkpt>
      <trkpt lat="43.48997" lon="1.47707">
        <ele>256.7</ele>
        <time>2022-05-16T08:50:50Z</time>
      </trkpt>
      <trkpt lat="43.48987" lon="1.47701">
        <ele>255.4</ele>
        <time>2022-05-16T08:50:51Z</time>
      </trkpt>
      <trkpt lat="43.48977" lon="1.47694">
        <ele>254.1</ele>
        <time>2022-05-16T08:50:52Z</time>
      </trkpt>
      <trkpt lat="43.48968" lon="1.47687">
        <ele>253.1</ele>
        <time>2022-05-16T08:50:53Z</time>
      </trkpt>
      <trkpt lat="43.48958" lon="1.47678">
        <ele>252.2</ele>
        <time>2022-05-16T08:50:54Z</time>
      </trkpt>
      <trkpt lat="43.48949" lon="1.47671">
        <ele>251.6</ele>
        <time>2022-05-16T08:50:55Z</time>
      </trkpt>
      <trkpt lat="43.48942" lon="1.47667">
        <ele>251.1</ele>
        <time>2022-05-16T08:50:56Z</time>
      </trkpt>
      <trkpt lat="43.48937" lon="1.47665">
        <ele>250.7</ele>
        <time>2022-05-16T08:50:57Z</time>
      </trkpt>
      <trkpt lat="43.48936" lon="1.47664">
        <ele>250.6</ele>
        <time>2022-05-16T08:50:58Z</time>
      </trkpt>
      <trkpt lat="43.48937" lon="1.4766">
        <ele>250.4</ele>
        <time>2022-05-16T08:50:59Z</time>
      </trkpt>
      <trkpt lat="43.48939" lon="1.47656">
        <ele>250.1</ele>
        <time>2022-05-16T08:51:00Z</time>
      </trkpt>
      <trkpt lat="43.48941" lon="1.47651">
        <ele>249.8</ele>
        <time>2022-05-16T08:51:01Z</time>
      </trkpt>
      <trkpt lat="43.48943" lon="1.47646">
        <ele>249.5</ele>
        <time>2022-05-16T08:51:02Z</time>
      </trkpt>
      <trkpt lat="43.48945" lon="1.47639">
        <ele>249.2</ele>
        <time>2022-05-16T08:51:03Z</time>
      </trkpt>
      <trkpt lat="43.48947" lon="1.47634">
        <ele>248.8</ele>
        <time>2022-05-16T08:51:04Z</time>
      </trkpt>
      <trkpt lat="43.48949" lon="1.47628">
        <ele>248.4</ele>
        <time>2022-05-16T08:51:05Z</time>
      </trkpt>
      <trkpt lat="43.48951" lon="1.4762">
        <ele>247.9</ele>
        <time>2022-05-16T08:51:06Z</time>
      </trkpt>
      <trkpt lat="43.48952" lon="1.47612">
        <ele>247.4</ele>
        <time>2022-05-16T08:51:07Z</time>
      </trkpt>
      <trkpt lat="43.48954" lon="1.47603">
        <ele>246.8</ele>
        <time>2022-05-16T08:51:08Z</time>
      </trkpt>
      <trkpt lat="43.48956" lon="1.47594">
        <ele>246.2</ele>
        <time>2022-05-16T08:51:09Z</time>
      </trkpt>
      <trkpt lat="43.48956" lon="1.47585">
        <ele>245.6</ele>
        <time>2022-05-16T08:51:10Z</time>
      </trkpt>
      <trkpt lat="43.48956" lon="1.47576">
        <ele>245</ele>
        <time>2022-05-16T08:51:11Z</time>
      </trkpt>
      <trkpt lat="43.48958" lon="1.47565">
        <ele>244.4</ele>
        <time>2022-05-16T08:51:12Z</time>
      </trkpt>
      <trkpt lat="43.48958" lon="1.47554">
        <ele>243.8</ele>
        <time>2022-05-16T08:51:13Z</time>
      </trkpt>
      <trkpt lat="43.48958" lon="1.47542">
        <ele>243.3</ele>
        <time>2022-05-16T08:51:14Z</time>
      </trkpt>
      <trkpt lat="43.4896" lon="1.47531">
        <ele>242.7</ele>
        <time>2022-05-16T08:51:15Z</time>
      </trkpt>
      <trkpt lat="43.48963" lon="1.4752">
        <ele>242.2</ele>
        <time>2022-05-16T08:51:16Z</time>
      </trkpt>
      <trkpt lat="43.48965" lon="1.47509">
        <ele>241.8</ele>
        <time>2022-05-16T08:51:17Z</time>
      </trkpt>
      <trkpt lat="43.48968" lon="1.47499">
        <ele>241.3</ele>
        <time>2022-05-16T08:51:18Z</time>
      </trkpt>
      <trkpt lat="43.48971" lon="1.47488">
        <ele>240.9</ele>
        <time>2022-05-16T08:51:19Z</time>
      </trkpt>
      <trkpt lat="43.48974" lon="1.47479">
        <ele>240.6</ele>
        <time>2022-05-16T08:51:20Z</time>
      </trkpt>
      <trkpt lat="43.48977" lon="1.47469">
        <ele>240.3</ele>
        <time>2022-05-16T08:51:21Z</time>
      </trkpt>
      <trkpt lat="43.48978" lon="1.47458">
        <ele>240.2</ele>
        <time>2022-05-16T08:51:22Z</time>
      </trkpt>
      <trkpt lat="43.4898" lon="1.47448">
        <ele>240.1</ele>
        <time>2022-05-16T08:51:23Z</time>
      </trkpt>
      <trkpt lat="43.48979" lon="1.47438">
        <ele>240.1</ele>
        <time>2022-05-16T08:51:24Z</time>
      </trkpt>
      <trkpt lat="43.48977" lon="1.4743">
        <ele>240.1</ele>
        <time>2022-05-16T08:51:25Z</time>
      </trkpt>
      <trkpt lat="43.48974" lon="1.47423">
        <ele>240.5</ele>
        <time>2022-05-16T08:51:26Z</time>
      </trkpt>
      <trkpt lat="43.48971" lon="1.47417">
        <ele>241</ele>
        <time>2022-05-16T08:51:27Z</time>
      </trkpt>
      <trkpt lat="43.48967" lon="1.47412">
        <ele>241.5</ele>
        <time>2022-05-16T08:51:28Z</time>
      </trkpt>
      <trkpt lat="43.48963" lon="1.4741">
        <ele>241.8</ele>
        <time>2022-05-16T08:51:29Z</time>
      </trkpt>
      <trkpt lat="43.4896" lon="1.47408">
        <ele>242.3</ele>
        <time>2022-05-16T08:51:30Z</time>
      </trkpt>
      <trkpt lat="43.48957" lon="1.47406">
        <ele>242.7</ele>
        <time>2022-05-16T08:51:31Z</time>
      </trkpt>
      <trkpt lat="43.48953" lon="1.47405">
        <ele>243.2</ele>
        <time>2022-05-16T08:51:32Z</time>
      </trkpt>
      <trkpt lat="43.48949" lon="1.47404">
        <ele>243.7</ele>
        <time>2022-05-16T08:51:33Z</time>
      </trkpt>
      <trkpt lat="43.48946" lon="1.47403">
        <ele>244.1</ele>
        <time>2022-05-16T08:51:34Z</time>
      </trkpt>
      <trkpt lat="43.48943" lon="1.47403">
        <ele>244.6</ele>
        <time>2022-05-16T08:51:35Z</time>
      </trkpt>
      <trkpt lat="43.48939" lon="1.47401">
        <ele>245.2</ele>
        <time>2022-05-16T08:51:36Z</time>
      </trkpt>
      <trkpt lat="43.48937" lon="1.474">
        <ele>245.4</ele>
        <time>2022-05-16T08:51:37Z</time>
      </trkpt>
      <trkpt lat="43.48933" lon="1.47398">
        <ele>246</ele>
        <time>2022-05-16T08:51:38Z</time>
      </trkpt>
      <trkpt lat="43.48931" lon="1.47396">
        <ele>246.4</ele>
        <time>2022-05-16T08:51:39Z</time>
      </trkpt>
      <trkpt lat="43.48927" lon="1.47395">
        <ele>246.9</ele>
        <time>2022-05-16T08:51:40Z</time>
      </trkpt>
      <trkpt lat="43.48924" lon="1.47393">
        <ele>247.4</ele>
        <time>2022-05-16T08:51:41Z</time>
      </trkpt>
      <trkpt lat="43.4892" lon="1.47391">
        <ele>247.9</ele>
        <time>2022-05-16T08:51:42Z</time>
      </trkpt>
      <trkpt lat="43.48917" lon="1.4739">
        <ele>248.4</ele>
        <time>2022-05-16T08:51:43Z</time>
      </trkpt>
      <trkpt lat="43.48914" lon="1.47388">
        <ele>248.8</ele>
        <time>2022-05-16T08:51:44Z</time>
      </trkpt>
      <trkpt lat="43.48911" lon="1.47387">
        <ele>249.2</ele>
        <time>2022-05-16T08:51:45Z</time>
      </trkpt>
      <trkpt lat="43.48908" lon="1.47385">
        <ele>249.6</ele>
        <time>2022-05-16T08:51:46Z</time>
      </trkpt>
      <trkpt lat="43.48905" lon="1.47381">
        <ele>249.9</ele>
        <time>2022-05-16T08:51:47Z</time>
      </trkpt>
      <trkpt lat="43.48904" lon="1.47376">
        <ele>250.3</ele>
        <time>2022-05-16T08:51:48Z</time>
      </trkpt>
      <trkpt lat="43.48906" lon="1.4737">
        <ele>250.3</ele>
        <time>2022-05-16T08:51:49Z</time>
      </trkpt>
      <trkpt lat="43.48908" lon="1.47365">
        <ele>250.3</ele>
        <time>2022-05-16T08:51:50Z</time>
      </trkpt>
      <trkpt lat="43.4891" lon="1.47359">
        <ele>250.3</ele>
        <time>2022-05-16T08:51:51Z</time>
      </trkpt>
      <trkpt lat="43.4891" lon="1.47354">
        <ele>250.3</ele>
        <time>2022-05-16T08:51:52Z</time>
      </trkpt>
      <trkpt lat="43.48911" lon="1.47348">
        <ele>250.3</ele>
        <time>2022-05-16T08:51:53Z</time>
      </trkpt>
      <trkpt lat="43.48913" lon="1.47343">
        <ele>250.3</ele>
        <time>2022-05-16T08:51:54Z</time>
      </trkpt>
      <trkpt lat="43.48913" lon="1.47338">
        <ele>250.3</ele>
        <time>2022-05-16T08:51:55Z</time>
      </trkpt>
      <trkpt lat="43.4891" lon="1.47334">
        <ele>250.4</ele>
        <time>2022-05-16T08:51:56Z</time>
      </trkpt>
      <trkpt lat="43.48906" lon="1.4733">
        <ele>250.4</ele>
        <time>2022-05-16T08:51:57Z</time>
      </trkpt>
      <trkpt lat="43.48906" lon="1.47326">
        <ele>250.4</ele>
        <time>2022-05-16T08:51:58Z</time>
      </trkpt>
      <trkpt lat="43.48907" lon="1.4732">
        <ele>250.4</ele>
        <time>2022-05-16T08:51:59Z</time>
      </trkpt>
      <trkpt lat="43.48909" lon="1.47314">
        <ele>250.4</ele>
        <time>2022-05-16T08:52:00Z</time>
      </trkpt>
      <trkpt lat="43.48909" lon="1.47309">
        <ele>250.5</ele>
        <time>2022-05-16T08:52:01Z</time>
      </trkpt>
      <trkpt lat="43.48908" lon="1.47304">
        <ele>250.5</ele>
        <time>2022-05-16T08:52:03Z</time>
      </trkpt>
      <trkpt lat="43.4891" lon="1.47299">
        <ele>250.5</ele>
        <time>2022-05-16T08:52:04Z</time>
      </trkpt>
      <trkpt lat="43.48912" lon="1.47294">
        <ele>250.6</ele>
        <time>2022-05-16T08:52:05Z</time>
      </trkpt>
      <trkpt lat="43.48914" lon="1.4729">
        <ele>250.6</ele>
        <time>2022-05-16T08:52:06Z</time>
      </trkpt>
      <trkpt lat="43.48913" lon="1.47286">
        <ele>250.6</ele>
        <time>2022-05-16T08:52:07Z</time>
      </trkpt>
      <trkpt lat="43.48911" lon="1.47281">
        <ele>250</ele>
        <time>2022-05-16T08:52:08Z</time>
      </trkpt>
      <trkpt lat="43.48907" lon="1.47279">
        <ele>249.7</ele>
        <time>2022-05-16T08:52:09Z</time>
      </trkpt>
      <trkpt lat="43.48902" lon="1.47278">
        <ele>249.4</ele>
        <time>2022-05-16T08:52:10Z</time>
      </trkpt>
      <trkpt lat="43.48898" lon="1.47276">
        <ele>249</ele>
        <time>2022-05-16T08:52:11Z</time>
      </trkpt>
      <trkpt lat="43.48894" lon="1.47274">
        <ele>248.6</ele>
        <time>2022-05-16T08:52:12Z</time>
      </trkpt>
      <trkpt lat="43.48891" lon="1.47268">
        <ele>248</ele>
        <time>2022-05-16T08:52:13Z</time>
      </trkpt>
      <trkpt lat="43.48888" lon="1.47261">
        <ele>247.3</ele>
        <time>2022-05-16T08:52:14Z</time>
      </trkpt>
      <trkpt lat="43.48884" lon="1.47254">
        <ele>246.4</ele>
        <time>2022-05-16T08:52:15Z</time>
      </trkpt>
      <trkpt lat="43.4888" lon="1.47246">
        <ele>245.5</ele>
        <time>2022-05-16T08:52:16Z</time>
      </trkpt>
      <trkpt lat="43.48875" lon="1.47236">
        <ele>244.4</ele>
        <time>2022-05-16T08:52:17Z</time>
      </trkpt>
      <trkpt lat="43.4887" lon="1.47227">
        <ele>243.2</ele>
        <time>2022-05-16T08:52:18Z</time>
      </trkpt>
      <trkpt lat="43.48864" lon="1.47217">
        <ele>242</ele>
        <time>2022-05-16T08:52:19Z</time>
      </trkpt>
      <trkpt lat="43.48856" lon="1.47207">
        <ele>240.7</ele>
        <time>2022-05-16T08:52:20Z</time>
      </trkpt>
      <trkpt lat="43.48848" lon="1.47199">
        <ele>239.5</ele>
        <time>2022-05-16T08:52:21Z</time>
      </trkpt>
      <trkpt lat="43.48839" lon="1.47192">
        <ele>238.1</ele>
        <time>2022-05-16T08:52:22Z</time>
      </trkpt>
      <trkpt lat="43.4882" lon="1.47179">
        <ele>235.8</ele>
        <time>2022-05-16T08:52:23Z</time>
      </trkpt>
      <trkpt lat="43.48812" lon="1.47173">
        <ele>234.7</ele>
        <time>2022-05-16T08:52:24Z</time>
      </trkpt>
      <trkpt lat="43.48804" lon="1.47164">
        <ele>233.1</ele>
        <time>2022-05-16T08:52:25Z</time>
      </trkpt>
      <trkpt lat="43.48797" lon="1.47153">
        <ele>231.5</ele>
        <time>2022-05-16T08:52:26Z</time>
      </trkpt>
      <trkpt lat="43.48789" lon="1.47141">
        <ele>229.9</ele>
        <time>2022-05-16T08:52:27Z</time>
      </trkpt>
      <trkpt lat="43.48782" lon="1.4713">
        <ele>228.6</ele>
        <time>2022-05-16T08:52:28Z</time>
      </trkpt>
      <trkpt lat="43.48776" lon="1.47119">
        <ele>227.3</ele>
        <time>2022-05-16T08:52:29Z</time>
      </trkpt>
      <trkpt lat="43.48767" lon="1.4711">
        <ele>225.9</ele>
        <time>2022-05-16T08:52:30Z</time>
      </trkpt>
      <trkpt lat="43.48756" lon="1.47102">
        <ele>224.5</ele>
        <time>2022-05-16T08:52:31Z</time>
      </trkpt>
      <trkpt lat="43.48746" lon="1.47094">
        <ele>223</ele>
        <time>2022-05-16T08:52:32Z</time>
      </trkpt>
      <trkpt lat="43.48735" lon="1.47086">
        <ele>221.4</ele>
        <time>2022-05-16T08:52:33Z</time>
      </trkpt>
      <trkpt lat="43.48724" lon="1.47078">
        <ele>219.8</ele>
        <time>2022-05-16T08:52:34Z</time>
      </trkpt>
      <trkpt lat="43.48713" lon="1.47069">
        <ele>218</ele>
        <time>2022-05-16T08:52:35Z</time>
      </trkpt>
      <trkpt lat="43.48701" lon="1.47058">
        <ele>216.1</ele>
        <time>2022-05-16T08:52:36Z</time>
      </trkpt>
      <trkpt lat="43.48689" lon="1.47048">
        <ele>214.4</ele>
        <time>2022-05-16T08:52:37Z</time>
      </trkpt>
      <trkpt lat="43.48678" lon="1.47039">
        <ele>213.1</ele>
        <time>2022-05-16T08:52:38Z</time>
      </trkpt>
      <trkpt lat="43.48669" lon="1.47031">
        <ele>212.1</ele>
        <time>2022-05-16T08:52:39Z</time>
      </trkpt>
      <trkpt lat="43.48659" lon="1.4702">
        <ele>211</ele>
        <time>2022-05-16T08:52:40Z</time>
      </trkpt>
      <trkpt lat="43.48651" lon="1.47008">
        <ele>210.2</ele>
        <time>2022-05-16T08:52:41Z</time>
      </trkpt>
      <trkpt lat="43.48643" lon="1.46994">
        <ele>209.6</ele>
        <time>2022-05-16T08:52:42Z</time>
      </trkpt>
      <trkpt lat="43.48636" lon="1.46981">
        <ele>209.4</ele>
        <time>2022-05-16T08:52:43Z</time>
      </trkpt>
      <trkpt lat="43.48629" lon="1.4697">
        <ele>209.4</ele>
        <time>2022-05-16T08:52:44Z</time>
      </trkpt>
      <trkpt lat="43.48623" lon="1.46958">
        <ele>209.6</ele>
        <time>2022-05-16T08:52:45Z</time>
      </trkpt>
      <trkpt lat="43.48618" lon="1.46945">
        <ele>210.1</ele>
        <time>2022-05-16T08:52:46Z</time>
      </trkpt>
      <trkpt lat="43.48612" lon="1.46934">
        <ele>210.8</ele>
        <time>2022-05-16T08:52:47Z</time>
      </trkpt>
      <trkpt lat="43.48607" lon="1.46924">
        <ele>211.6</ele>
        <time>2022-05-16T08:52:48Z</time>
      </trkpt>
      <trkpt lat="43.48603" lon="1.46915">
        <ele>212.2</ele>
        <time>2022-05-16T08:52:49Z</time>
      </trkpt>
      <trkpt lat="43.486" lon="1.46907">
        <ele>212.9</ele>
        <time>2022-05-16T08:52:50Z</time>
      </trkpt>
      <trkpt lat="43.48598" lon="1.469">
        <ele>213.5</ele>
        <time>2022-05-16T08:52:51Z</time>
      </trkpt>
      <trkpt lat="43.48595" lon="1.46895">
        <ele>213.9</ele>
        <time>2022-05-16T08:52:52Z</time>
      </trkpt>
      <trkpt lat="43.48593" lon="1.46891">
        <ele>214.3</ele>
        <time>2022-05-16T08:52:53Z</time>
      </trkpt>
      <trkpt lat="43.48591" lon="1.46886">
        <ele>214.6</ele>
        <time>2022-05-16T08:52:54Z</time>
      </trkpt>
      <trkpt lat="43.48588" lon="1.46881">
        <ele>214.9</ele>
        <time>2022-05-16T08:52:55Z</time>
      </trkpt>
      <trkpt lat="43.48586" lon="1.46877">
        <ele>215.2</ele>
        <time>2022-05-16T08:52:56Z</time>
      </trkpt>
      <trkpt lat="43.48583" lon="1.46872">
        <ele>215.5</ele>
        <time>2022-05-16T08:52:57Z</time>
      </trkpt>
      <trkpt lat="43.4858" lon="1.46867">
        <ele>215.6</ele>
        <time>2022-05-16T08:52:58Z</time>
      </trkpt>
      <trkpt lat="43.48578" lon="1.46863">
        <ele>215.8</ele>
        <time>2022-05-16T08:52:59Z</time>
      </trkpt>
      <trkpt lat="43.48575" lon="1.4686">
        <ele>215.9</ele>
        <time>2022-05-16T08:53:00Z</time>
      </trkpt>
      <trkpt lat="43.48572" lon="1.46856">
        <ele>216</ele>
        <time>2022-05-16T08:53:01Z</time>
      </trkpt>
      <trkpt lat="43.48569" lon="1.46852">
        <ele>216.1</ele>
        <time>2022-05-16T08:53:02Z</time>
      </trkpt>
      <trkpt lat="43.48566" lon="1.46849">
        <ele>216.1</ele>
        <time>2022-05-16T08:53:03Z</time>
      </trkpt>
      <trkpt lat="43.48563" lon="1.46845">
        <ele>216</ele>
        <time>2022-05-16T08:53:04Z</time>
      </trkpt>
      <trkpt lat="43.4856" lon="1.46841">
        <ele>215.9</ele>
        <time>2022-05-16T08:53:05Z</time>
      </trkpt>
      <trkpt lat="43.48556" lon="1.46837">
        <ele>215.6</ele>
        <time>2022-05-16T08:53:06Z</time>
      </trkpt>
      <trkpt lat="43.48552" lon="1.46832">
        <ele>215.3</ele>
        <time>2022-05-16T08:53:07Z</time>
      </trkpt>
      <trkpt lat="43.48546" lon="1.46829">
        <ele>214.8</ele>
        <time>2022-05-16T08:53:08Z</time>
      </trkpt>
      <trkpt lat="43.48541" lon="1.46825">
        <ele>214.3</ele>
        <time>2022-05-16T08:53:09Z</time>
      </trkpt>
      <trkpt lat="43.48535" lon="1.4682">
        <ele>213.6</ele>
        <time>2022-05-16T08:53:10Z</time>
      </trkpt>
      <trkpt lat="43.48529" lon="1.46815">
        <ele>212.9</ele>
        <time>2022-05-16T08:53:11Z</time>
      </trkpt>
      <trkpt lat="43.48522" lon="1.4681">
        <ele>212.1</ele>
        <time>2022-05-16T08:53:12Z</time>
      </trkpt>
      <trkpt lat="43.48515" lon="1.46804">
        <ele>211.1</ele>
        <time>2022-05-16T08:53:13Z</time>
      </trkpt>
      <trkpt lat="43.48506" lon="1.46799">
        <ele>210.3</ele>
        <time>2022-05-16T08:53:14Z</time>
      </trkpt>
      <trkpt lat="43.48497" lon="1.46795">
        <ele>209.6</ele>
        <time>2022-05-16T08:53:15Z</time>
      </trkpt>
      <trkpt lat="43.48487" lon="1.4679">
        <ele>209.2</ele>
        <time>2022-05-16T08:53:16Z</time>
      </trkpt>
      <trkpt lat="43.48484" lon="1.46797">
        <ele>209</ele>
        <time>2022-05-16T08:53:17Z</time>
      </trkpt>
      <trkpt lat="43.48478" lon="1.46799">
        <ele>209</ele>
        <time>2022-05-16T08:53:18Z</time>
      </trkpt>
      <trkpt lat="43.48473" lon="1.46801">
        <ele>208.9</ele>
        <time>2022-05-16T08:53:19Z</time>
      </trkpt>
      <trkpt lat="43.48469" lon="1.468">
        <ele>208.9</ele>
        <time>2022-05-16T08:53:20Z</time>
      </trkpt>
      <trkpt lat="43.48466" lon="1.46793">
        <ele>208.9</ele>
        <time>2022-05-16T08:53:21Z</time>
      </trkpt>
      <trkpt lat="43.48465" lon="1.46787">
        <ele>208.8</ele>
        <time>2022-05-16T08:53:22Z</time>
      </trkpt>
      <trkpt lat="43.48463" lon="1.46779">
        <ele>208.8</ele>
        <time>2022-05-16T08:53:23Z</time>
      </trkpt>
      <trkpt lat="43.48462" lon="1.46773">
        <ele>208.8</ele>
        <time>2022-05-16T08:53:24Z</time>
      </trkpt>
      <trkpt lat="43.48461" lon="1.46766">
        <ele>208.7</ele>
        <time>2022-05-16T08:53:25Z</time>
      </trkpt>
      <trkpt lat="43.4846" lon="1.4676">
        <ele>208.7</ele>
        <time>2022-05-16T08:53:26Z</time>
      </trkpt>
      <trkpt lat="43.48458" lon="1.46753">
        <ele>208.5</ele>
        <time>2022-05-16T08:53:27Z</time>
      </trkpt>
      <trkpt lat="43.48458" lon="1.46747">
        <ele>208.3</ele>
        <time>2022-05-16T08:53:28Z</time>
      </trkpt>
      <trkpt lat="43.4846" lon="1.46741">
        <ele>208.1</ele>
        <time>2022-05-16T08:53:29Z</time>
      </trkpt>
      <trkpt lat="43.48459" lon="1.46734">
        <ele>207.6</ele>
        <time>2022-05-16T08:53:30Z</time>
      </trkpt>
      <trkpt lat="43.48457" lon="1.46726">
        <ele>207.1</ele>
        <time>2022-05-16T08:53:31Z</time>
      </trkpt>
      <trkpt lat="43.48456" lon="1.46717">
        <ele>206.4</ele>
        <time>2022-05-16T08:53:32Z</time>
      </trkpt>
      <trkpt lat="43.48454" lon="1.46707">
        <ele>205.5</ele>
        <time>2022-05-16T08:53:33Z</time>
      </trkpt>
      <trkpt lat="43.4845" lon="1.46699">
        <ele>204.6</ele>
        <time>2022-05-16T08:53:34Z</time>
      </trkpt>
      <trkpt lat="43.48444" lon="1.46692">
        <ele>203.6</ele>
        <time>2022-05-16T08:53:35Z</time>
      </trkpt>
      <trkpt lat="43.48437" lon="1.46687">
        <ele>202.5</ele>
        <time>2022-05-16T08:53:36Z</time>
      </trkpt>
      <trkpt lat="43.48429" lon="1.46679">
        <ele>201.4</ele>
        <time>2022-05-16T08:53:37Z</time>
      </trkpt>
      <trkpt lat="43.4842" lon="1.46676">
        <ele>200.3</ele>
        <time>2022-05-16T08:53:38Z</time>
      </trkpt>
      <trkpt lat="43.4841" lon="1.46671">
        <ele>199.2</ele>
        <time>2022-05-16T08:53:39Z</time>
      </trkpt>
      <trkpt lat="43.484" lon="1.46666">
        <ele>198.1</ele>
        <time>2022-05-16T08:53:40Z</time>
      </trkpt>
      <trkpt lat="43.48392" lon="1.4666">
        <ele>197</ele>
        <time>2022-05-16T08:53:41Z</time>
      </trkpt>
      <trkpt lat="43.48384" lon="1.46653">
        <ele>196.1</ele>
        <time>2022-05-16T08:53:42Z</time>
      </trkpt>
      <trkpt lat="43.48373" lon="1.46648">
        <ele>194.9</ele>
        <time>2022-05-16T08:53:43Z</time>
      </trkpt>
      <trkpt lat="43.48365" lon="1.4664">
        <ele>193.8</ele>
        <time>2022-05-16T08:53:44Z</time>
      </trkpt>
      <trkpt lat="43.48359" lon="1.46635">
        <ele>193</ele>
        <time>2022-05-16T08:53:45Z</time>
      </trkpt>
      <trkpt lat="43.48353" lon="1.46632">
        <ele>192.3</ele>
        <time>2022-05-16T08:53:46Z</time>
      </trkpt>
      <trkpt lat="43.48347" lon="1.46635">
        <ele>191.6</ele>
        <time>2022-05-16T08:53:47Z</time>
      </trkpt>
      <trkpt lat="43.48339" lon="1.46637">
        <ele>190.8</ele>
        <time>2022-05-16T08:53:48Z</time>
      </trkpt>
      <trkpt lat="43.48331" lon="1.46635">
        <ele>190.2</ele>
        <time>2022-05-16T08:53:49Z</time>
      </trkpt>
      <trkpt lat="43.48323" lon="1.46637">
        <ele>189.7</ele>
        <time>2022-05-16T08:53:50Z</time>
      </trkpt>
      <trkpt lat="43.48315" lon="1.46637">
        <ele>189.3</ele>
        <time>2022-05-16T08:53:51Z</time>
      </trkpt>
      <trkpt lat="43.48307" lon="1.46638">
        <ele>189</ele>
        <time>2022-05-16T08:53:52Z</time>
      </trkpt>
      <trkpt lat="43.48299" lon="1.46639">
        <ele>188.7</ele>
        <time>2022-05-16T08:53:53Z</time>
      </trkpt>
      <trkpt lat="43.48291" lon="1.46641">
        <ele>188.4</ele>
        <time>2022-05-16T08:53:54Z</time>
      </trkpt>
      <trkpt lat="43.48284" lon="1.46641">
        <ele>188.1</ele>
        <time>2022-05-16T08:53:55Z</time>
      </trkpt>
      <trkpt lat="43.4828" lon="1.46638">
        <ele>187.9</ele>
        <time>2022-05-16T08:53:56Z</time>
      </trkpt>
      <trkpt lat="43.48275" lon="1.46642">
        <ele>187.7</ele>
        <time>2022-05-16T08:53:57Z</time>
      </trkpt>
      <trkpt lat="43.4827" lon="1.46647">
        <ele>187.4</ele>
        <time>2022-05-16T08:53:58Z</time>
      </trkpt>
      <trkpt lat="43.48264" lon="1.46652">
        <ele>187.2</ele>
        <time>2022-05-16T08:53:59Z</time>
      </trkpt>
      <trkpt lat="43.48258" lon="1.46656">
        <ele>187</ele>
        <time>2022-05-16T08:54:00Z</time>
      </trkpt>
      <trkpt lat="43.48252" lon="1.46663">
        <ele>186.8</ele>
        <time>2022-05-16T08:54:01Z</time>
      </trkpt>
      <trkpt lat="43.48247" lon="1.46667">
        <ele>186.7</ele>
        <time>2022-05-16T08:54:02Z</time>
      </trkpt>
      <trkpt lat="43.48243" lon="1.46675">
        <ele>186.5</ele>
        <time>2022-05-16T08:54:03Z</time>
      </trkpt>
      <trkpt lat="43.48239" lon="1.4668">
        <ele>186.4</ele>
        <time>2022-05-16T08:54:04Z</time>
      </trkpt>
      <trkpt lat="43.48233" lon="1.46682">
        <ele>186.3</ele>
        <time>2022-05-16T08:54:05Z</time>
      </trkpt>
      <trkpt lat="43.48227" lon="1.46686">
        <ele>186.2</ele>
        <time>2022-05-16T08:54:06Z</time>
      </trkpt>
      <trkpt lat="43.48223" lon="1.46691">
        <ele>186.1</ele>
        <time>2022-05-16T08:54:07Z</time>
      </trkpt>
      <trkpt lat="43.48218" lon="1.46697">
        <ele>186.1</ele>
        <time>2022-05-16T08:54:09Z</time>
      </trkpt>
      <trkpt lat="43.48213" lon="1.46702">
        <ele>186</ele>
        <time>2022-05-16T08:54:10Z</time>
      </trkpt>
      <trkpt lat="43.48207" lon="1.46704">
        <ele>186</ele>
        <time>2022-05-16T08:54:11Z</time>
      </trkpt>
      <trkpt lat="43.48201" lon="1.46706">
        <ele>185.9</ele>
        <time>2022-05-16T08:54:12Z</time>
      </trkpt>
      <trkpt lat="43.48195" lon="1.46709">
        <ele>185.9</ele>
        <time>2022-05-16T08:54:13Z</time>
      </trkpt>
      <trkpt lat="43.48192" lon="1.4671">
        <ele>185.9</ele>
        <time>2022-05-16T08:54:14Z</time>
      </trkpt>
      <trkpt lat="43.48188" lon="1.46713">
        <ele>185.8</ele>
        <time>2022-05-16T08:54:15Z</time>
      </trkpt>
      <trkpt lat="43.48185" lon="1.46715">
        <ele>185.8</ele>
        <time>2022-05-16T08:54:16Z</time>
      </trkpt>
      <trkpt lat="43.4818" lon="1.46718">
        <ele>185.7</ele>
        <time>2022-05-16T08:54:17Z</time>
      </trkpt>
      <trkpt lat="43.48174" lon="1.4672">
        <ele>185.7</ele>
        <time>2022-05-16T08:54:18Z</time>
      </trkpt>
      <trkpt lat="43.48169" lon="1.46717">
        <ele>185.6</ele>
        <time>2022-05-16T08:54:19Z</time>
      </trkpt>
      <trkpt lat="43.48166" lon="1.46722">
        <ele>185.6</ele>
        <time>2022-05-16T08:54:20Z</time>
      </trkpt>
      <trkpt lat="43.48164" lon="1.46724">
        <ele>185.5</ele>
        <time>2022-05-16T08:54:21Z</time>
      </trkpt>
      <trkpt lat="43.4816" lon="1.46727">
        <ele>185.5</ele>
        <time>2022-05-16T08:54:22Z</time>
      </trkpt>
      <trkpt lat="43.48157" lon="1.46727">
        <ele>185.4</ele>
        <time>2022-05-16T08:54:23Z</time>
      </trkpt>
      <trkpt lat="43.48152" lon="1.46725">
        <ele>185.3</ele>
        <time>2022-05-16T08:54:24Z</time>
      </trkpt>
      <trkpt lat="43.48148" lon="1.46726">
        <ele>185.3</ele>
        <time>2022-05-16T08:54:25Z</time>
      </trkpt>
      <trkpt lat="43.48141" lon="1.46727">
        <ele>185.1</ele>
        <time>2022-05-16T08:54:26Z</time>
      </trkpt>
      <trkpt lat="43.48138" lon="1.46725">
        <ele>185.1</ele>
        <time>2022-05-16T08:54:27Z</time>
      </trkpt>
      <trkpt lat="43.48132" lon="1.46723">
        <ele>185</ele>
        <time>2022-05-16T08:54:28Z</time>
      </trkpt>
      <trkpt lat="43.4813" lon="1.46721">
        <ele>184.9</ele>
        <time>2022-05-16T08:54:29Z</time>
      </trkpt>
      <trkpt lat="43.48131" lon="1.46721">
        <ele>184.9</ele>
        <time>2022-05-16T08:54:30Z</time>
      </trkpt>
      <trkpt lat="43.48132" lon="1.46721">
        <ele>184.9</ele>
        <time>2022-05-16T08:54:32Z</time>
      </trkpt>
      <trkpt lat="43.48131" lon="1.46722">
        <ele>184.9</ele>
        <time>2022-05-16T08:54:33Z</time>
      </trkpt>
      <trkpt lat="43.48129" lon="1.46723">
        <ele>184.8</ele>
        <time>2022-05-16T08:54:34Z</time>
      </trkpt>
      <trkpt lat="43.48128" lon="1.46723">
        <ele>184.8</ele>
        <time>2022-05-16T08:54:35Z</time>
      </trkpt>
      <trkpt lat="43.48127" lon="1.46724">
        <ele>184.8</ele>
        <time>2022-05-16T08:54:36Z</time>
      </trkpt>
      <trkpt lat="43.48126" lon="1.46724">
        <ele>184.8</ele>
        <time>2022-05-16T08:54:38Z</time>
      </trkpt>
      <trkpt lat="43.48125" lon="1.46724">
        <ele>184.8</ele>
        <time>2022-05-16T08:54:39Z</time>
      </trkpt>
      <trkpt lat="43.48124" lon="1.46724">
        <ele>184.8</ele>
        <time>2022-05-16T08:54:40Z</time>
      </trkpt>
      <trkpt lat="43.48121" lon="1.46726">
        <ele>184.7</ele>
        <time>2022-05-16T08:54:42Z</time>
      </trkpt>
      <trkpt lat="43.48118" lon="1.4673">
        <ele>184.7</ele>
        <time>2022-05-16T08:54:43Z</time>
      </trkpt>
      <trkpt lat="43.48114" lon="1.46734">
        <ele>184.6</ele>
        <time>2022-05-16T08:54:44Z</time>
      </trkpt>
      <trkpt lat="43.48109" lon="1.46739">
        <ele>184.6</ele>
        <time>2022-05-16T08:54:45Z</time>
      </trkpt>
      <trkpt lat="43.48109" lon="1.46745">
        <ele>184.6</ele>
        <time>2022-05-16T08:54:46Z</time>
      </trkpt>
      <trkpt lat="43.48108" lon="1.4675">
        <ele>184.6</ele>
        <time>2022-05-16T08:54:47Z</time>
      </trkpt>
      <trkpt lat="43.48104" lon="1.46753">
        <ele>184.6</ele>
        <time>2022-05-16T08:54:48Z</time>
      </trkpt>
      <trkpt lat="43.48101" lon="1.46757">
        <ele>184.6</ele>
        <time>2022-05-16T08:54:49Z</time>
      </trkpt>
      <trkpt lat="43.48099" lon="1.46763">
        <ele>184.6</ele>
        <time>2022-05-16T08:54:50Z</time>
      </trkpt>
      <trkpt lat="43.48096" lon="1.46768">
        <ele>184.7</ele>
        <time>2022-05-16T08:54:51Z</time>
      </trkpt>
      <trkpt lat="43.48094" lon="1.46772">
        <ele>184.7</ele>
        <time>2022-05-16T08:54:52Z</time>
      </trkpt>
      <trkpt lat="43.48092" lon="1.46777">
        <ele>184.7</ele>
        <time>2022-05-16T08:54:53Z</time>
      </trkpt>
      <trkpt lat="43.4809" lon="1.4678">
        <ele>184.7</ele>
        <time>2022-05-16T08:54:54Z</time>
      </trkpt>
      <trkpt lat="43.48087" lon="1.4678">
        <ele>184.7</ele>
        <time>2022-05-16T08:54:55Z</time>
      </trkpt>
      <trkpt lat="43.48086" lon="1.46784">
        <ele>184.7</ele>
        <time>2022-05-16T08:54:56Z</time>
      </trkpt>
      <trkpt lat="43.48085" lon="1.4679">
        <ele>184.7</ele>
        <time>2022-05-16T08:54:57Z</time>
      </trkpt>
      <trkpt lat="43.48082" lon="1.46794">
        <ele>184.7</ele>
        <time>2022-05-16T08:54:58Z</time>
      </trkpt>
      <trkpt lat="43.48079" lon="1.46799">
        <ele>184.7</ele>
        <time>2022-05-16T08:54:59Z</time>
      </trkpt>
      <trkpt lat="43.48077" lon="1.46803">
        <ele>184.7</ele>
        <time>2022-05-16T08:55:00Z</time>
      </trkpt>
      <trkpt lat="43.48074" lon="1.4681">
        <ele>184.6</ele>
        <time>2022-05-16T08:55:01Z</time>
      </trkpt>
      <trkpt lat="43.48072" lon="1.46817">
        <ele>184.6</ele>
        <time>2022-05-16T08:55:02Z</time>
      </trkpt>
      <trkpt lat="43.48069" lon="1.46823">
        <ele>184.6</ele>
        <time>2022-05-16T08:55:03Z</time>
      </trkpt>
      <trkpt lat="43.48065" lon="1.46827">
        <ele>184.6</ele>
        <time>2022-05-16T08:55:04Z</time>
      </trkpt>
      <trkpt lat="43.4806" lon="1.4683">
        <ele>184.6</ele>
        <time>2022-05-16T08:55:05Z</time>
      </trkpt>
      <trkpt lat="43.48056" lon="1.46833">
        <ele>184.6</ele>
        <time>2022-05-16T08:55:06Z</time>
      </trkpt>
      <trkpt lat="43.48052" lon="1.46836">
        <ele>184.6</ele>
        <time>2022-05-16T08:55:07Z</time>
      </trkpt>
      <trkpt lat="43.48046" lon="1.46836">
        <ele>184.6</ele>
        <time>2022-05-16T08:55:08Z</time>
      </trkpt>
      <trkpt lat="43.48041" lon="1.46838">
        <ele>184.6</ele>
        <time>2022-05-16T08:55:09Z</time>
      </trkpt>
      <trkpt lat="43.48037" lon="1.4684">
        <ele>184.6</ele>
        <time>2022-05-16T08:55:10Z</time>
      </trkpt>
      <trkpt lat="43.48032" lon="1.46843">
        <ele>184.6</ele>
        <time>2022-05-16T08:55:11Z</time>
      </trkpt>
      <trkpt lat="43.48027" lon="1.46847">
        <ele>184.6</ele>
        <time>2022-05-16T08:55:12Z</time>
      </trkpt>
      <trkpt lat="43.48022" lon="1.46849">
        <ele>184.6</ele>
        <time>2022-05-16T08:55:13Z</time>
      </trkpt>
      <trkpt lat="43.48017" lon="1.46852">
        <ele>184.6</ele>
        <time>2022-05-16T08:55:14Z</time>
      </trkpt>
      <trkpt lat="43.48013" lon="1.46852">
        <ele>184.7</ele>
        <time>2022-05-16T08:55:15Z</time>
      </trkpt>
      <trkpt lat="43.48008" lon="1.46854">
        <ele>184.7</ele>
        <time>2022-05-16T08:55:16Z</time>
      </trkpt>
      <trkpt lat="43.48003" lon="1.46856">
        <ele>184.7</ele>
        <time>2022-05-16T08:55:17Z</time>
      </trkpt>
      <trkpt lat="43.47999" lon="1.46859">
        <ele>184.7</ele>
        <time>2022-05-16T08:55:18Z</time>
      </trkpt>
      <trkpt lat="43.47995" lon="1.46861">
        <ele>184.8</ele>
        <time>2022-05-16T08:55:19Z</time>
      </trkpt>
      <trkpt lat="43.4799" lon="1.46863">
        <ele>184.8</ele>
        <time>2022-05-16T08:55:20Z</time>
      </trkpt>
      <trkpt lat="43.47986" lon="1.46865">
        <ele>184.8</ele>
        <time>2022-05-16T08:55:21Z</time>
      </trkpt>
      <trkpt lat="43.47981" lon="1.46869">
        <ele>184.8</ele>
        <time>2022-05-16T08:55:22Z</time>
      </trkpt>
      <trkpt lat="43.47977" lon="1.46873">
        <ele>184.8</ele>
        <time>2022-05-16T08:55:23Z</time>
      </trkpt>
      <trkpt lat="43.47973" lon="1.46877">
        <ele>184.8</ele>
        <time>2022-05-16T08:55:24Z</time>
      </trkpt>
      <trkpt lat="43.4797" lon="1.4688">
        <ele>184.8</ele>
        <time>2022-05-16T08:55:25Z</time>
      </trkpt>
      <trkpt lat="43.47966" lon="1.46885">
        <ele>184.8</ele>
        <time>2022-05-16T08:55:26Z</time>
      </trkpt>
      <trkpt lat="43.47963" lon="1.46889">
        <ele>184.8</ele>
        <time>2022-05-16T08:55:27Z</time>
      </trkpt>
      <trkpt lat="43.47959" lon="1.46893">
        <ele>184.8</ele>
        <time>2022-05-16T08:55:28Z</time>
      </trkpt>
      <trkpt lat="43.47956" lon="1.46899">
        <ele>184.8</ele>
        <time>2022-05-16T08:55:29Z</time>
      </trkpt>
      <trkpt lat="43.47952" lon="1.46903">
        <ele>184.8</ele>
        <time>2022-05-16T08:55:30Z</time>
      </trkpt>
      <trkpt lat="43.47949" lon="1.46907">
        <ele>184.8</ele>
        <time>2022-05-16T08:55:31Z</time>
      </trkpt>
      <trkpt lat="43.47945" lon="1.46912">
        <ele>184.8</ele>
        <time>2022-05-16T08:55:32Z</time>
      </trkpt>
      <trkpt lat="43.47941" lon="1.46916">
        <ele>184.8</ele>
        <time>2022-05-16T08:55:33Z</time>
      </trkpt>
      <trkpt lat="43.47937" lon="1.46921">
        <ele>184.8</ele>
        <time>2022-05-16T08:55:34Z</time>
      </trkpt>
      <trkpt lat="43.47933" lon="1.46925">
        <ele>184.8</ele>
        <time>2022-05-16T08:55:35Z</time>
      </trkpt>
      <trkpt lat="43.47929" lon="1.4693">
        <ele>184.8</ele>
        <time>2022-05-16T08:55:36Z</time>
      </trkpt>
      <trkpt lat="43.47925" lon="1.46933">
        <ele>184.8</ele>
        <time>2022-05-16T08:55:37Z</time>
      </trkpt>
      <trkpt lat="43.47921" lon="1.46938">
        <ele>184.8</ele>
        <time>2022-05-16T08:55:38Z</time>
      </trkpt>
      <trkpt lat="43.47918" lon="1.46942">
        <ele>184.8</ele>
        <time>2022-05-16T08:55:39Z</time>
      </trkpt>
      <trkpt lat="43.47914" lon="1.46946">
        <ele>184.9</ele>
        <time>2022-05-16T08:55:40Z</time>
      </trkpt>
      <trkpt lat="43.4791" lon="1.4695">
        <ele>184.9</ele>
        <time>2022-05-16T08:55:41Z</time>
      </trkpt>
      <trkpt lat="43.47905" lon="1.46953">
        <ele>184.9</ele>
        <time>2022-05-16T08:55:42Z</time>
      </trkpt>
      <trkpt lat="43.47902" lon="1.46958">
        <ele>185</ele>
        <time>2022-05-16T08:55:43Z</time>
      </trkpt>
      <trkpt lat="43.47899" lon="1.46963">
        <ele>185</ele>
        <time>2022-05-16T08:55:44Z</time>
      </trkpt>
      <trkpt lat="43.47894" lon="1.46967">
        <ele>185.1</ele>
        <time>2022-05-16T08:55:45Z</time>
      </trkpt>
      <trkpt lat="43.4789" lon="1.46971">
        <ele>185.2</ele>
        <time>2022-05-16T08:55:46Z</time>
      </trkpt>
      <trkpt lat="43.47885" lon="1.46973">
        <ele>185.3</ele>
        <time>2022-05-16T08:55:47Z</time>
      </trkpt>
      <trkpt lat="43.47881" lon="1.46974">
        <ele>185.4</ele>
        <time>2022-05-16T08:55:48Z</time>
      </trkpt>
      <trkpt lat="43.47877" lon="1.46976">
        <ele>185.4</ele>
        <time>2022-05-16T08:55:49Z</time>
      </trkpt>
      <trkpt lat="43.47874" lon="1.46981">
        <ele>185.5</ele>
        <time>2022-05-16T08:55:50Z</time>
      </trkpt>
      <trkpt lat="43.47871" lon="1.46986">
        <ele>185.5</ele>
        <time>2022-05-16T08:55:51Z</time>
      </trkpt>
      <trkpt lat="43.47868" lon="1.46992">
        <ele>185.5</ele>
        <time>2022-05-16T08:55:52Z</time>
      </trkpt>
      <trkpt lat="43.47866" lon="1.46998">
        <ele>185.5</ele>
        <time>2022-05-16T08:55:53Z</time>
      </trkpt>
      <trkpt lat="43.47864" lon="1.47003">
        <ele>185.5</ele>
        <time>2022-05-16T08:55:54Z</time>
      </trkpt>
      <trkpt lat="43.47861" lon="1.47008">
        <ele>185.6</ele>
        <time>2022-05-16T08:55:55Z</time>
      </trkpt>
      <trkpt lat="43.47859" lon="1.47012">
        <ele>185.6</ele>
        <time>2022-05-16T08:55:56Z</time>
      </trkpt>
      <trkpt lat="43.47856" lon="1.47016">
        <ele>185.6</ele>
        <time>2022-05-16T08:55:57Z</time>
      </trkpt>
      <trkpt lat="43.47854" lon="1.4702">
        <ele>185.7</ele>
        <time>2022-05-16T08:55:58Z</time>
      </trkpt>
      <trkpt lat="43.47851" lon="1.47026">
        <ele>185.7</ele>
        <time>2022-05-16T08:55:59Z</time>
      </trkpt>
      <trkpt lat="43.47848" lon="1.47031">
        <ele>185.8</ele>
        <time>2022-05-16T08:56:00Z</time>
      </trkpt>
      <trkpt lat="43.47845" lon="1.47036">
        <ele>185.9</ele>
        <time>2022-05-16T08:56:01Z</time>
      </trkpt>
      <trkpt lat="43.47843" lon="1.47042">
        <ele>185.9</ele>
        <time>2022-05-16T08:56:02Z</time>
      </trkpt>
      <trkpt lat="43.4784" lon="1.47048">
        <ele>185.9</ele>
        <time>2022-05-16T08:56:03Z</time>
      </trkpt>
      <trkpt lat="43.47837" lon="1.47053">
        <ele>186</ele>
        <time>2022-05-16T08:56:04Z</time>
      </trkpt>
      <trkpt lat="43.47835" lon="1.47058">
        <ele>186</ele>
        <time>2022-05-16T08:56:05Z</time>
      </trkpt>
      <trkpt lat="43.47832" lon="1.47064">
        <ele>186</ele>
        <time>2022-05-16T08:56:06Z</time>
      </trkpt>
      <trkpt lat="43.4783" lon="1.4707">
        <ele>186</ele>
        <time>2022-05-16T08:56:07Z</time>
      </trkpt>
      <trkpt lat="43.47827" lon="1.47075">
        <ele>186</ele>
        <time>2022-05-16T08:56:08Z</time>
      </trkpt>
      <trkpt lat="43.47824" lon="1.4708">
        <ele>186.1</ele>
        <time>2022-05-16T08:56:09Z</time>
      </trkpt>
      <trkpt lat="43.47821" lon="1.47086">
        <ele>186.1</ele>
        <time>2022-05-16T08:56:10Z</time>
      </trkpt>
      <trkpt lat="43.47818" lon="1.47091">
        <ele>186.1</ele>
        <time>2022-05-16T08:56:11Z</time>
      </trkpt>
      <trkpt lat="43.47816" lon="1.47097">
        <ele>186.1</ele>
        <time>2022-05-16T08:56:12Z</time>
      </trkpt>
      <trkpt lat="43.47813" lon="1.47102">
        <ele>186.2</ele>
        <time>2022-05-16T08:56:13Z</time>
      </trkpt>
      <trkpt lat="43.4781" lon="1.47108">
        <ele>186.2</ele>
        <time>2022-05-16T08:56:14Z</time>
      </trkpt>
      <trkpt lat="43.47807" lon="1.47113">
        <ele>186.3</ele>
        <time>2022-05-16T08:56:15Z</time>
      </trkpt>
      <trkpt lat="43.47804" lon="1.47118">
        <ele>186.3</ele>
        <time>2022-05-16T08:56:16Z</time>
      </trkpt>
      <trkpt lat="43.47801" lon="1.47124">
        <ele>186.4</ele>
        <time>2022-05-16T08:56:17Z</time>
      </trkpt>
      <trkpt lat="43.47798" lon="1.47129">
        <ele>186.4</ele>
        <time>2022-05-16T08:56:18Z</time>
      </trkpt>
      <trkpt lat="43.47796" lon="1.47135">
        <ele>186.5</ele>
        <time>2022-05-16T08:56:19Z</time>
      </trkpt>
      <trkpt lat="43.47793" lon="1.4714">
        <ele>186.5</ele>
        <time>2022-05-16T08:56:20Z</time>
      </trkpt>
      <trkpt lat="43.4779" lon="1.47145">
        <ele>186.6</ele>
        <time>2022-05-16T08:56:21Z</time>
      </trkpt>
      <trkpt lat="43.47787" lon="1.4715">
        <ele>186.6</ele>
        <time>2022-05-16T08:56:22Z</time>
      </trkpt>
      <trkpt lat="43.47784" lon="1.47156">
        <ele>186.7</ele>
        <time>2022-05-16T08:56:23Z</time>
      </trkpt>
      <trkpt lat="43.47782" lon="1.47161">
        <ele>186.8</ele>
        <time>2022-05-16T08:56:24Z</time>
      </trkpt>
      <trkpt lat="43.47779" lon="1.47166">
        <ele>186.9</ele>
        <time>2022-05-16T08:56:25Z</time>
      </trkpt>
      <trkpt lat="43.47777" lon="1.47171">
        <ele>187</ele>
        <time>2022-05-16T08:56:26Z</time>
      </trkpt>
      <trkpt lat="43.47774" lon="1.47177">
        <ele>187.1</ele>
        <time>2022-05-16T08:56:27Z</time>
      </trkpt>
      <trkpt lat="43.47772" lon="1.47182">
        <ele>187.3</ele>
        <time>2022-05-16T08:56:28Z</time>
      </trkpt>
      <trkpt lat="43.4777" lon="1.47188">
        <ele>187.4</ele>
        <time>2022-05-16T08:56:29Z</time>
      </trkpt>
      <trkpt lat="43.47768" lon="1.47193">
        <ele>187.5</ele>
        <time>2022-05-16T08:56:30Z</time>
      </trkpt>
      <trkpt lat="43.47765" lon="1.47197">
        <ele>187.7</ele>
        <time>2022-05-16T08:56:31Z</time>
      </trkpt>
      <trkpt lat="43.47756" lon="1.47198">
        <ele>187.7</ele>
        <time>2022-05-16T08:56:33Z</time>
      </trkpt>
      <trkpt lat="43.47752" lon="1.47193">
        <ele>187.7</ele>
        <time>2022-05-16T08:56:34Z</time>
      </trkpt>
      <trkpt lat="43.47748" lon="1.47188">
        <ele>187.7</ele>
        <time>2022-05-16T08:56:35Z</time>
      </trkpt>
      <trkpt lat="43.47745" lon="1.47184">
        <ele>187.7</ele>
        <time>2022-05-16T08:56:36Z</time>
      </trkpt>
      <trkpt lat="43.47741" lon="1.47179">
        <ele>187.6</ele>
        <time>2022-05-16T08:56:37Z</time>
      </trkpt>
      <trkpt lat="43.47738" lon="1.47174">
        <ele>187.6</ele>
        <time>2022-05-16T08:56:38Z</time>
      </trkpt>
      <trkpt lat="43.47734" lon="1.4717">
        <ele>187.6</ele>
        <time>2022-05-16T08:56:39Z</time>
      </trkpt>
      <trkpt lat="43.4773" lon="1.4717">
        <ele>187.5</ele>
        <time>2022-05-16T08:56:40Z</time>
      </trkpt>
      <trkpt lat="43.47724" lon="1.47173">
        <ele>187.6</ele>
        <time>2022-05-16T08:56:41Z</time>
      </trkpt>
      <trkpt lat="43.4772" lon="1.47177">
        <ele>187.7</ele>
        <time>2022-05-16T08:56:42Z</time>
      </trkpt>
      <trkpt lat="43.47717" lon="1.47182">
        <ele>187.7</ele>
        <time>2022-05-16T08:56:43Z</time>
      </trkpt>
      <trkpt lat="43.47714" lon="1.47188">
        <ele>187.8</ele>
        <time>2022-05-16T08:56:44Z</time>
      </trkpt>
      <trkpt lat="43.4771" lon="1.47194">
        <ele>187.8</ele>
        <time>2022-05-16T08:56:45Z</time>
      </trkpt>
      <trkpt lat="43.47707" lon="1.47199">
        <ele>187.9</ele>
        <time>2022-05-16T08:56:46Z</time>
      </trkpt>
      <trkpt lat="43.47705" lon="1.47205">
        <ele>188</ele>
        <time>2022-05-16T08:56:47Z</time>
      </trkpt>
      <trkpt lat="43.47701" lon="1.47211">
        <ele>188.1</ele>
        <time>2022-05-16T08:56:48Z</time>
      </trkpt>
      <trkpt lat="43.47699" lon="1.47216">
        <ele>188.1</ele>
        <time>2022-05-16T08:56:49Z</time>
      </trkpt>
      <trkpt lat="43.47696" lon="1.47222">
        <ele>188.2</ele>
        <time>2022-05-16T08:56:50Z</time>
      </trkpt>
      <trkpt lat="43.47693" lon="1.47228">
        <ele>188.3</ele>
        <time>2022-05-16T08:56:51Z</time>
      </trkpt>
      <trkpt lat="43.47689" lon="1.47233">
        <ele>188.3</ele>
        <time>2022-05-16T08:56:52Z</time>
      </trkpt>
      <trkpt lat="43.47687" lon="1.47239">
        <ele>188.4</ele>
        <time>2022-05-16T08:56:53Z</time>
      </trkpt>
      <trkpt lat="43.47684" lon="1.47246">
        <ele>188.4</ele>
        <time>2022-05-16T08:56:54Z</time>
      </trkpt>
      <trkpt lat="43.47681" lon="1.47251">
        <ele>188.5</ele>
        <time>2022-05-16T08:56:55Z</time>
      </trkpt>
      <trkpt lat="43.47678" lon="1.47257">
        <ele>188.5</ele>
        <time>2022-05-16T08:56:56Z</time>
      </trkpt>
      <trkpt lat="43.47674" lon="1.47263">
        <ele>188.6</ele>
        <time>2022-05-16T08:56:57Z</time>
      </trkpt>
      <trkpt lat="43.47671" lon="1.47269">
        <ele>188.6</ele>
        <time>2022-05-16T08:56:58Z</time>
      </trkpt>
      <trkpt lat="43.47669" lon="1.47275">
        <ele>188.6</ele>
        <time>2022-05-16T08:56:59Z</time>
      </trkpt>
      <trkpt lat="43.47666" lon="1.47281">
        <ele>188.7</ele>
        <time>2022-05-16T08:57:00Z</time>
      </trkpt>
      <trkpt lat="43.47662" lon="1.47286">
        <ele>188.7</ele>
        <time>2022-05-16T08:57:01Z</time>
      </trkpt>
      <trkpt lat="43.47659" lon="1.47292">
        <ele>188.7</ele>
        <time>2022-05-16T08:57:02Z</time>
      </trkpt>
      <trkpt lat="43.47656" lon="1.47297">
        <ele>188.7</ele>
        <time>2022-05-16T08:57:03Z</time>
      </trkpt>
      <trkpt lat="43.47653" lon="1.47303">
        <ele>188.7</ele>
        <time>2022-05-16T08:57:04Z</time>
      </trkpt>
      <trkpt lat="43.4765" lon="1.47309">
        <ele>188.7</ele>
        <time>2022-05-16T08:57:05Z</time>
      </trkpt>
      <trkpt lat="43.47646" lon="1.47314">
        <ele>188.7</ele>
        <time>2022-05-16T08:57:06Z</time>
      </trkpt>
      <trkpt lat="43.47642" lon="1.47319">
        <ele>188.7</ele>
        <time>2022-05-16T08:57:07Z</time>
      </trkpt>
      <trkpt lat="43.47638" lon="1.47325">
        <ele>188.8</ele>
        <time>2022-05-16T08:57:08Z</time>
      </trkpt>
      <trkpt lat="43.47635" lon="1.4733">
        <ele>188.8</ele>
        <time>2022-05-16T08:57:09Z</time>
      </trkpt>
      <trkpt lat="43.47631" lon="1.47336">
        <ele>188.8</ele>
        <time>2022-05-16T08:57:10Z</time>
      </trkpt>
      <trkpt lat="43.47628" lon="1.47342">
        <ele>188.8</ele>
        <time>2022-05-16T08:57:11Z</time>
      </trkpt>
      <trkpt lat="43.47624" lon="1.47347">
        <ele>188.8</ele>
        <time>2022-05-16T08:57:12Z</time>
      </trkpt>
      <trkpt lat="43.4762" lon="1.47352">
        <ele>188.9</ele>
        <time>2022-05-16T08:57:13Z</time>
      </trkpt>
      <trkpt lat="43.47617" lon="1.47358">
        <ele>188.9</ele>
        <time>2022-05-16T08:57:14Z</time>
      </trkpt>
      <trkpt lat="43.47613" lon="1.47364">
        <ele>188.9</ele>
        <time>2022-05-16T08:57:15Z</time>
      </trkpt>
      <trkpt lat="43.4761" lon="1.47369">
        <ele>189</ele>
        <time>2022-05-16T08:57:16Z</time>
      </trkpt>
      <trkpt lat="43.47606" lon="1.47375">
        <ele>189</ele>
        <time>2022-05-16T08:57:17Z</time>
      </trkpt>
      <trkpt lat="43.47603" lon="1.4738">
        <ele>189.1</ele>
        <time>2022-05-16T08:57:18Z</time>
      </trkpt>
      <trkpt lat="43.47599" lon="1.47386">
        <ele>189.1</ele>
        <time>2022-05-16T08:57:19Z</time>
      </trkpt>
      <trkpt lat="43.47595" lon="1.47391">
        <ele>189.2</ele>
        <time>2022-05-16T08:57:20Z</time>
      </trkpt>
      <trkpt lat="43.47592" lon="1.47396">
        <ele>189.3</ele>
        <time>2022-05-16T08:57:21Z</time>
      </trkpt>
      <trkpt lat="43.47589" lon="1.47402">
        <ele>189.3</ele>
        <time>2022-05-16T08:57:22Z</time>
      </trkpt>
      <trkpt lat="43.47586" lon="1.47407">
        <ele>189.4</ele>
        <time>2022-05-16T08:57:23Z</time>
      </trkpt>
      <trkpt lat="43.47582" lon="1.47413">
        <ele>189.4</ele>
        <time>2022-05-16T08:57:24Z</time>
      </trkpt>
      <trkpt lat="43.47579" lon="1.47418">
        <ele>189.5</ele>
        <time>2022-05-16T08:57:25Z</time>
      </trkpt>
      <trkpt lat="43.47575" lon="1.47424">
        <ele>189.6</ele>
        <time>2022-05-16T08:57:26Z</time>
      </trkpt>
      <trkpt lat="43.47572" lon="1.47429">
        <ele>189.7</ele>
        <time>2022-05-16T08:57:27Z</time>
      </trkpt>
      <trkpt lat="43.47569" lon="1.47435">
        <ele>189.7</ele>
        <time>2022-05-16T08:57:28Z</time>
      </trkpt>
      <trkpt lat="43.47566" lon="1.47441">
        <ele>189.8</ele>
        <time>2022-05-16T08:57:29Z</time>
      </trkpt>
      <trkpt lat="43.47563" lon="1.47447">
        <ele>189.9</ele>
        <time>2022-05-16T08:57:30Z</time>
      </trkpt>
      <trkpt lat="43.4756" lon="1.47453">
        <ele>189.9</ele>
        <time>2022-05-16T08:57:31Z</time>
      </trkpt>
      <trkpt lat="43.47557" lon="1.47459">
        <ele>190</ele>
        <time>2022-05-16T08:57:32Z</time>
      </trkpt>
      <trkpt lat="43.47555" lon="1.47466">
        <ele>190</ele>
        <time>2022-05-16T08:57:33Z</time>
      </trkpt>
      <trkpt lat="43.47552" lon="1.47472">
        <ele>190.1</ele>
        <time>2022-05-16T08:57:34Z</time>
      </trkpt>
      <trkpt lat="43.47549" lon="1.47479">
        <ele>190.1</ele>
        <time>2022-05-16T08:57:35Z</time>
      </trkpt>
      <trkpt lat="43.47546" lon="1.47485">
        <ele>190.2</ele>
        <time>2022-05-16T08:57:36Z</time>
      </trkpt>
      <trkpt lat="43.47543" lon="1.47491">
        <ele>190.2</ele>
        <time>2022-05-16T08:57:37Z</time>
      </trkpt>
      <trkpt lat="43.47541" lon="1.47498">
        <ele>190.2</ele>
        <time>2022-05-16T08:57:38Z</time>
      </trkpt>
      <trkpt lat="43.47538" lon="1.47504">
        <ele>190.3</ele>
        <time>2022-05-16T08:57:39Z</time>
      </trkpt>
      <trkpt lat="43.47535" lon="1.4751">
        <ele>190.3</ele>
        <time>2022-05-16T08:57:40Z</time>
      </trkpt>
      <trkpt lat="43.47532" lon="1.47517">
        <ele>190.3</ele>
        <time>2022-05-16T08:57:41Z</time>
      </trkpt>
      <trkpt lat="43.47529" lon="1.47523">
        <ele>190.3</ele>
        <time>2022-05-16T08:57:42Z</time>
      </trkpt>
      <trkpt lat="43.47527" lon="1.47529">
        <ele>190.3</ele>
        <time>2022-05-16T08:57:43Z</time>
      </trkpt>
      <trkpt lat="43.47524" lon="1.47536">
        <ele>190.3</ele>
        <time>2022-05-16T08:57:44Z</time>
      </trkpt>
      <trkpt lat="43.47521" lon="1.47542">
        <ele>190.4</ele>
        <time>2022-05-16T08:57:45Z</time>
      </trkpt>
      <trkpt lat="43.47518" lon="1.47548">
        <ele>190.4</ele>
        <time>2022-05-16T08:57:46Z</time>
      </trkpt>
      <trkpt lat="43.47516" lon="1.47555">
        <ele>190.4</ele>
        <time>2022-05-16T08:57:47Z</time>
      </trkpt>
      <trkpt lat="43.47513" lon="1.47561">
        <ele>190.4</ele>
        <time>2022-05-16T08:57:48Z</time>
      </trkpt>
      <trkpt lat="43.4751" lon="1.47567">
        <ele>190.3</ele>
        <time>2022-05-16T08:57:49Z</time>
      </trkpt>
      <trkpt lat="43.47507" lon="1.47573">
        <ele>190.3</ele>
        <time>2022-05-16T08:57:50Z</time>
      </trkpt>
      <trkpt lat="43.47505" lon="1.4758">
        <ele>190.3</ele>
        <time>2022-05-16T08:57:51Z</time>
      </trkpt>
      <trkpt lat="43.47502" lon="1.47586">
        <ele>190.3</ele>
        <time>2022-05-16T08:57:52Z</time>
      </trkpt>
      <trkpt lat="43.47499" lon="1.47592">
        <ele>190.3</ele>
        <time>2022-05-16T08:57:53Z</time>
      </trkpt>
      <trkpt lat="43.47496" lon="1.47598">
        <ele>190.3</ele>
        <time>2022-05-16T08:57:54Z</time>
      </trkpt>
      <trkpt lat="43.47493" lon="1.47604">
        <ele>190.3</ele>
        <time>2022-05-16T08:57:55Z</time>
      </trkpt>
      <trkpt lat="43.47491" lon="1.4761">
        <ele>190.3</ele>
        <time>2022-05-16T08:57:56Z</time>
      </trkpt>
      <trkpt lat="43.47489" lon="1.47616">
        <ele>190.3</ele>
        <time>2022-05-16T08:57:57Z</time>
      </trkpt>
      <trkpt lat="43.47486" lon="1.47622">
        <ele>190.4</ele>
        <time>2022-05-16T08:57:58Z</time>
      </trkpt>
      <trkpt lat="43.47483" lon="1.47628">
        <ele>190.4</ele>
        <time>2022-05-16T08:57:59Z</time>
      </trkpt>
      <trkpt lat="43.4748" lon="1.47633">
        <ele>190.4</ele>
        <time>2022-05-16T08:58:00Z</time>
      </trkpt>
      <trkpt lat="43.47478" lon="1.4764">
        <ele>190.4</ele>
        <time>2022-05-16T08:58:01Z</time>
      </trkpt>
      <trkpt lat="43.47475" lon="1.47646">
        <ele>190.4</ele>
        <time>2022-05-16T08:58:02Z</time>
      </trkpt>
      <trkpt lat="43.47473" lon="1.47652">
        <ele>190.4</ele>
        <time>2022-05-16T08:58:03Z</time>
      </trkpt>
      <trkpt lat="43.4747" lon="1.47658">
        <ele>190.4</ele>
        <time>2022-05-16T08:58:04Z</time>
      </trkpt>
      <trkpt lat="43.47467" lon="1.47665">
        <ele>190.4</ele>
        <time>2022-05-16T08:58:05Z</time>
      </trkpt>
      <trkpt lat="43.47465" lon="1.47671">
        <ele>190.4</ele>
        <time>2022-05-16T08:58:06Z</time>
      </trkpt>
      <trkpt lat="43.47462" lon="1.47678">
        <ele>190.4</ele>
        <time>2022-05-16T08:58:07Z</time>
      </trkpt>
      <trkpt lat="43.47459" lon="1.47684">
        <ele>190.5</ele>
        <time>2022-05-16T08:58:08Z</time>
      </trkpt>
      <trkpt lat="43.47456" lon="1.4769">
        <ele>190.5</ele>
        <time>2022-05-16T08:58:09Z</time>
      </trkpt>
      <trkpt lat="43.47454" lon="1.47696">
        <ele>190.5</ele>
        <time>2022-05-16T08:58:10Z</time>
      </trkpt>
      <trkpt lat="43.47451" lon="1.47703">
        <ele>190.5</ele>
        <time>2022-05-16T08:58:11Z</time>
      </trkpt>
      <trkpt lat="43.47449" lon="1.47709">
        <ele>190.5</ele>
        <time>2022-05-16T08:58:12Z</time>
      </trkpt>
      <trkpt lat="43.47446" lon="1.47715">
        <ele>190.5</ele>
        <time>2022-05-16T08:58:13Z</time>
      </trkpt>
      <trkpt lat="43.47443" lon="1.47722">
        <ele>190.5</ele>
        <time>2022-05-16T08:58:14Z</time>
      </trkpt>
      <trkpt lat="43.4744" lon="1.47728">
        <ele>190.5</ele>
        <time>2022-05-16T08:58:15Z</time>
      </trkpt>
      <trkpt lat="43.47438" lon="1.47734">
        <ele>190.5</ele>
        <time>2022-05-16T08:58:16Z</time>
      </trkpt>
      <trkpt lat="43.47435" lon="1.4774">
        <ele>190.5</ele>
        <time>2022-05-16T08:58:17Z</time>
      </trkpt>
      <trkpt lat="43.47432" lon="1.47746">
        <ele>190.6</ele>
        <time>2022-05-16T08:58:18Z</time>
      </trkpt>
      <trkpt lat="43.47429" lon="1.47753">
        <ele>190.6</ele>
        <time>2022-05-16T08:58:19Z</time>
      </trkpt>
      <trkpt lat="43.47427" lon="1.47759">
        <ele>190.6</ele>
        <time>2022-05-16T08:58:20Z</time>
      </trkpt>
      <trkpt lat="43.47424" lon="1.47766">
        <ele>190.6</ele>
        <time>2022-05-16T08:58:21Z</time>
      </trkpt>
      <trkpt lat="43.47421" lon="1.47772">
        <ele>190.6</ele>
        <time>2022-05-16T08:58:22Z</time>
      </trkpt>
      <trkpt lat="43.47419" lon="1.47778">
        <ele>190.6</ele>
        <time>2022-05-16T08:58:23Z</time>
      </trkpt>
      <trkpt lat="43.47414" lon="1.47791">
        <ele>190.6</ele>
        <time>2022-05-16T08:58:25Z</time>
      </trkpt>
      <trkpt lat="43.47409" lon="1.47804">
        <ele>190.7</ele>
        <time>2022-05-16T08:58:27Z</time>
      </trkpt>
      <trkpt lat="43.47407" lon="1.47811">
        <ele>190.7</ele>
        <time>2022-05-16T08:58:29Z</time>
      </trkpt>
      <trkpt lat="43.47405" lon="1.47818">
        <ele>190.7</ele>
        <time>2022-05-16T08:58:30Z</time>
      </trkpt>
      <trkpt lat="43.47403" lon="1.47825">
        <ele>190.7</ele>
        <time>2022-05-16T08:58:31Z</time>
      </trkpt>
      <trkpt lat="43.47401" lon="1.47832">
        <ele>190.7</ele>
        <time>2022-05-16T08:58:32Z</time>
      </trkpt>
      <trkpt lat="43.47399" lon="1.47839">
        <ele>190.8</ele>
        <time>2022-05-16T08:58:33Z</time>
      </trkpt>
      <trkpt lat="43.47397" lon="1.47846">
        <ele>190.8</ele>
        <time>2022-05-16T08:58:34Z</time>
      </trkpt>
      <trkpt lat="43.47396" lon="1.47853">
        <ele>190.8</ele>
        <time>2022-05-16T08:58:35Z</time>
      </trkpt>
      <trkpt lat="43.47394" lon="1.4786">
        <ele>190.8</ele>
        <time>2022-05-16T08:58:36Z</time>
      </trkpt>
      <trkpt lat="43.47393" lon="1.47867">
        <ele>190.9</ele>
        <time>2022-05-16T08:58:37Z</time>
      </trkpt>
      <trkpt lat="43.47392" lon="1.47874">
        <ele>191</ele>
        <time>2022-05-16T08:58:38Z</time>
      </trkpt>
      <trkpt lat="43.47391" lon="1.47881">
        <ele>191</ele>
        <time>2022-05-16T08:58:39Z</time>
      </trkpt>
      <trkpt lat="43.47388" lon="1.47895">
        <ele>191.2</ele>
        <time>2022-05-16T08:58:40Z</time>
      </trkpt>
      <trkpt lat="43.47386" lon="1.47901">
        <ele>191.3</ele>
        <time>2022-05-16T08:58:41Z</time>
      </trkpt>
      <trkpt lat="43.47385" lon="1.47908">
        <ele>191.3</ele>
        <time>2022-05-16T08:58:42Z</time>
      </trkpt>
      <trkpt lat="43.47384" lon="1.47915">
        <ele>191.4</ele>
        <time>2022-05-16T08:58:43Z</time>
      </trkpt>
      <trkpt lat="43.47382" lon="1.47922">
        <ele>191.5</ele>
        <time>2022-05-16T08:58:44Z</time>
      </trkpt>
      <trkpt lat="43.47381" lon="1.47929">
        <ele>191.6</ele>
        <time>2022-05-16T08:58:45Z</time>
      </trkpt>
      <trkpt lat="43.4738" lon="1.47936">
        <ele>191.7</ele>
        <time>2022-05-16T08:58:46Z</time>
      </trkpt>
      <trkpt lat="43.47378" lon="1.47943">
        <ele>191.8</ele>
        <time>2022-05-16T08:58:47Z</time>
      </trkpt>
      <trkpt lat="43.47377" lon="1.4795">
        <ele>191.9</ele>
        <time>2022-05-16T08:58:48Z</time>
      </trkpt>
      <trkpt lat="43.47375" lon="1.47957">
        <ele>192</ele>
        <time>2022-05-16T08:58:49Z</time>
      </trkpt>
      <trkpt lat="43.47374" lon="1.47964">
        <ele>192.1</ele>
        <time>2022-05-16T08:58:50Z</time>
      </trkpt>
      <trkpt lat="43.47373" lon="1.47971">
        <ele>192.2</ele>
        <time>2022-05-16T08:58:51Z</time>
      </trkpt>
      <trkpt lat="43.47371" lon="1.47978">
        <ele>192.2</ele>
        <time>2022-05-16T08:58:52Z</time>
      </trkpt>
      <trkpt lat="43.4737" lon="1.47985">
        <ele>192.3</ele>
        <time>2022-05-16T08:58:53Z</time>
      </trkpt>
      <trkpt lat="43.47369" lon="1.47992">
        <ele>192.4</ele>
        <time>2022-05-16T08:58:54Z</time>
      </trkpt>
      <trkpt lat="43.47367" lon="1.47999">
        <ele>192.5</ele>
        <time>2022-05-16T08:58:55Z</time>
      </trkpt>
      <trkpt lat="43.47366" lon="1.48006">
        <ele>192.6</ele>
        <time>2022-05-16T08:58:56Z</time>
      </trkpt>
      <trkpt lat="43.47365" lon="1.48013">
        <ele>192.7</ele>
        <time>2022-05-16T08:58:57Z</time>
      </trkpt>
      <trkpt lat="43.47364" lon="1.4802">
        <ele>192.8</ele>
        <time>2022-05-16T08:58:58Z</time>
      </trkpt>
      <trkpt lat="43.47363" lon="1.48026">
        <ele>192.8</ele>
        <time>2022-05-16T08:58:59Z</time>
      </trkpt>
      <trkpt lat="43.47361" lon="1.48033">
        <ele>192.9</ele>
        <time>2022-05-16T08:59:00Z</time>
      </trkpt>
      <trkpt lat="43.47359" lon="1.48039">
        <ele>193</ele>
        <time>2022-05-16T08:59:01Z</time>
      </trkpt>
      <trkpt lat="43.47354" lon="1.4804">
        <ele>193.3</ele>
        <time>2022-05-16T08:59:02Z</time>
      </trkpt>
      <trkpt lat="43.47349" lon="1.48038">
        <ele>193.4</ele>
        <time>2022-05-16T08:59:03Z</time>
      </trkpt>
      <trkpt lat="43.47344" lon="1.48033">
        <ele>193.7</ele>
        <time>2022-05-16T08:59:04Z</time>
      </trkpt>
      <trkpt lat="43.4734" lon="1.48029">
        <ele>193.9</ele>
        <time>2022-05-16T08:59:05Z</time>
      </trkpt>
      <trkpt lat="43.47336" lon="1.48025">
        <ele>194.2</ele>
        <time>2022-05-16T08:59:06Z</time>
      </trkpt>
      <trkpt lat="43.47331" lon="1.48021">
        <ele>194.4</ele>
        <time>2022-05-16T08:59:07Z</time>
      </trkpt>
      <trkpt lat="43.47327" lon="1.48017">
        <ele>194.7</ele>
        <time>2022-05-16T08:59:08Z</time>
      </trkpt>
      <trkpt lat="43.47323" lon="1.48013">
        <ele>194.9</ele>
        <time>2022-05-16T08:59:09Z</time>
      </trkpt>
      <trkpt lat="43.47319" lon="1.4801">
        <ele>195.1</ele>
        <time>2022-05-16T08:59:10Z</time>
      </trkpt>
      <trkpt lat="43.47315" lon="1.48007">
        <ele>195.1</ele>
        <time>2022-05-16T08:59:11Z</time>
      </trkpt>
      <trkpt lat="43.47311" lon="1.48003">
        <ele>195</ele>
        <time>2022-05-16T08:59:12Z</time>
      </trkpt>
      <trkpt lat="43.47306" lon="1.48">
        <ele>194.9</ele>
        <time>2022-05-16T08:59:13Z</time>
      </trkpt>
      <trkpt lat="43.47301" lon="1.47996">
        <ele>194.7</ele>
        <time>2022-05-16T08:59:14Z</time>
      </trkpt>
      <trkpt lat="43.47296" lon="1.47991">
        <ele>194.4</ele>
        <time>2022-05-16T08:59:15Z</time>
      </trkpt>
      <trkpt lat="43.4729" lon="1.47987">
        <ele>194.2</ele>
        <time>2022-05-16T08:59:16Z</time>
      </trkpt>
      <trkpt lat="43.47283" lon="1.47982">
        <ele>194</ele>
        <time>2022-05-16T08:59:17Z</time>
      </trkpt>
      <trkpt lat="43.47277" lon="1.47977">
        <ele>193.8</ele>
        <time>2022-05-16T08:59:18Z</time>
      </trkpt>
      <trkpt lat="43.4727" lon="1.47971">
        <ele>193.6</ele>
        <time>2022-05-16T08:59:19Z</time>
      </trkpt>
      <trkpt lat="43.47264" lon="1.47966">
        <ele>193.6</ele>
        <time>2022-05-16T08:59:20Z</time>
      </trkpt>
      <trkpt lat="43.47259" lon="1.4796">
        <ele>193.6</ele>
        <time>2022-05-16T08:59:21Z</time>
      </trkpt>
      <trkpt lat="43.47253" lon="1.47955">
        <ele>193.7</ele>
        <time>2022-05-16T08:59:22Z</time>
      </trkpt>
      <trkpt lat="43.47248" lon="1.4795">
        <ele>193.8</ele>
        <time>2022-05-16T08:59:23Z</time>
      </trkpt>
      <trkpt lat="43.47243" lon="1.47946">
        <ele>193.9</ele>
        <time>2022-05-16T08:59:24Z</time>
      </trkpt>
      <trkpt lat="43.47239" lon="1.47942">
        <ele>194</ele>
        <time>2022-05-16T08:59:25Z</time>
      </trkpt>
      <trkpt lat="43.47235" lon="1.47939">
        <ele>194.1</ele>
        <time>2022-05-16T08:59:26Z</time>
      </trkpt>
      <trkpt lat="43.4723" lon="1.47936">
        <ele>194.2</ele>
        <time>2022-05-16T08:59:27Z</time>
      </trkpt>
      <trkpt lat="43.47226" lon="1.47933">
        <ele>194.3</ele>
        <time>2022-05-16T08:59:28Z</time>
      </trkpt>
      <trkpt lat="43.47221" lon="1.4793">
        <ele>194.3</ele>
        <time>2022-05-16T08:59:29Z</time>
      </trkpt>
      <trkpt lat="43.47217" lon="1.47927">
        <ele>194.7</ele>
        <time>2022-05-16T08:59:30Z</time>
      </trkpt>
      <trkpt lat="43.47213" lon="1.47925">
        <ele>195.1</ele>
        <time>2022-05-16T08:59:31Z</time>
      </trkpt>
      <trkpt lat="43.47209" lon="1.47923">
        <ele>195.5</ele>
        <time>2022-05-16T08:59:32Z</time>
      </trkpt>
      <trkpt lat="43.47205" lon="1.47921">
        <ele>196</ele>
        <time>2022-05-16T08:59:33Z</time>
      </trkpt>
      <trkpt lat="43.47201" lon="1.47919">
        <ele>196.5</ele>
        <time>2022-05-16T08:59:34Z</time>
      </trkpt>
      <trkpt lat="43.47198" lon="1.47916">
        <ele>197</ele>
        <time>2022-05-16T08:59:35Z</time>
      </trkpt>
      <trkpt lat="43.47194" lon="1.47915">
        <ele>197.6</ele>
        <time>2022-05-16T08:59:36Z</time>
      </trkpt>
      <trkpt lat="43.4719" lon="1.47914">
        <ele>198.2</ele>
        <time>2022-05-16T08:59:37Z</time>
      </trkpt>
      <trkpt lat="43.47186" lon="1.47912">
        <ele>198.8</ele>
        <time>2022-05-16T08:59:38Z</time>
      </trkpt>
      <trkpt lat="43.47181" lon="1.4791">
        <ele>199.5</ele>
        <time>2022-05-16T08:59:39Z</time>
      </trkpt>
      <trkpt lat="43.47178" lon="1.47908">
        <ele>200.1</ele>
        <time>2022-05-16T08:59:40Z</time>
      </trkpt>
      <trkpt lat="43.47173" lon="1.47906">
        <ele>200.7</ele>
        <time>2022-05-16T08:59:41Z</time>
      </trkpt>
      <trkpt lat="43.47169" lon="1.47905">
        <ele>201.3</ele>
        <time>2022-05-16T08:59:42Z</time>
      </trkpt>
      <trkpt lat="43.47165" lon="1.47903">
        <ele>202</ele>
        <time>2022-05-16T08:59:43Z</time>
      </trkpt>
      <trkpt lat="43.47161" lon="1.479">
        <ele>202.6</ele>
        <time>2022-05-16T08:59:44Z</time>
      </trkpt>
      <trkpt lat="43.47157" lon="1.47897">
        <ele>203.3</ele>
        <time>2022-05-16T08:59:45Z</time>
      </trkpt>
      <trkpt lat="43.47154" lon="1.47893">
        <ele>204</ele>
        <time>2022-05-16T08:59:46Z</time>
      </trkpt>
      <trkpt lat="43.4715" lon="1.47891">
        <ele>204.6</ele>
        <time>2022-05-16T08:59:47Z</time>
      </trkpt>
      <trkpt lat="43.47146" lon="1.47888">
        <ele>205.2</ele>
        <time>2022-05-16T08:59:48Z</time>
      </trkpt>
      <trkpt lat="43.47142" lon="1.47885">
        <ele>205.9</ele>
        <time>2022-05-16T08:59:49Z</time>
      </trkpt>
      <trkpt lat="43.47138" lon="1.47882">
        <ele>206.5</ele>
        <time>2022-05-16T08:59:50Z</time>
      </trkpt>
      <trkpt lat="43.47135" lon="1.47879">
        <ele>207.1</ele>
        <time>2022-05-16T08:59:51Z</time>
      </trkpt>
      <trkpt lat="43.47131" lon="1.47876">
        <ele>207.7</ele>
        <time>2022-05-16T08:59:52Z</time>
      </trkpt>
      <trkpt lat="43.47128" lon="1.47873">
        <ele>208.3</ele>
        <time>2022-05-16T08:59:53Z</time>
      </trkpt>
      <trkpt lat="43.47124" lon="1.4787">
        <ele>208.9</ele>
        <time>2022-05-16T08:59:54Z</time>
      </trkpt>
      <trkpt lat="43.47121" lon="1.47867">
        <ele>209.5</ele>
        <time>2022-05-16T08:59:55Z</time>
      </trkpt>
      <trkpt lat="43.47117" lon="1.47864">
        <ele>210</ele>
        <time>2022-05-16T08:59:56Z</time>
      </trkpt>
      <trkpt lat="43.47113" lon="1.47861">
        <ele>210.6</ele>
        <time>2022-05-16T08:59:57Z</time>
      </trkpt>
      <trkpt lat="43.47109" lon="1.47859">
        <ele>211.2</ele>
        <time>2022-05-16T08:59:58Z</time>
      </trkpt>
      <trkpt lat="43.47106" lon="1.47855">
        <ele>211.8</ele>
        <time>2022-05-16T08:59:59Z</time>
      </trkpt>
      <trkpt lat="43.47103" lon="1.47852">
        <ele>212.3</ele>
        <time>2022-05-16T09:00:00Z</time>
      </trkpt>
      <trkpt lat="43.47099" lon="1.47849">
        <ele>212.9</ele>
        <time>2022-05-16T09:00:01Z</time>
      </trkpt>
      <trkpt lat="43.47096" lon="1.47847">
        <ele>213.4</ele>
        <time>2022-05-16T09:00:02Z</time>
      </trkpt>
      <trkpt lat="43.47092" lon="1.47844">
        <ele>214</ele>
        <time>2022-05-16T09:00:03Z</time>
      </trkpt>
      <trkpt lat="43.47088" lon="1.47842">
        <ele>214.5</ele>
        <time>2022-05-16T09:00:04Z</time>
      </trkpt>
      <trkpt lat="43.47084" lon="1.47839">
        <ele>215.1</ele>
        <time>2022-05-16T09:00:05Z</time>
      </trkpt>
      <trkpt lat="43.47081" lon="1.47837">
        <ele>215.6</ele>
        <time>2022-05-16T09:00:06Z</time>
      </trkpt>
      <trkpt lat="43.47077" lon="1.47835">
        <ele>216.2</ele>
        <time>2022-05-16T09:00:07Z</time>
      </trkpt>
      <trkpt lat="43.47073" lon="1.47833">
        <ele>216.7</ele>
        <time>2022-05-16T09:00:08Z</time>
      </trkpt>
      <trkpt lat="43.47069" lon="1.47832">
        <ele>217.3</ele>
        <time>2022-05-16T09:00:09Z</time>
      </trkpt>
      <trkpt lat="43.47064" lon="1.4783">
        <ele>217.9</ele>
        <time>2022-05-16T09:00:10Z</time>
      </trkpt>
      <trkpt lat="43.4706" lon="1.4783">
        <ele>218.5</ele>
        <time>2022-05-16T09:00:11Z</time>
      </trkpt>
      <trkpt lat="43.47056" lon="1.4783">
        <ele>219.1</ele>
        <time>2022-05-16T09:00:12Z</time>
      </trkpt>
      <trkpt lat="43.47052" lon="1.4783">
        <ele>219.7</ele>
        <time>2022-05-16T09:00:13Z</time>
      </trkpt>
      <trkpt lat="43.47048" lon="1.47831">
        <ele>220.2</ele>
        <time>2022-05-16T09:00:14Z</time>
      </trkpt>
      <trkpt lat="43.47044" lon="1.47831">
        <ele>220.8</ele>
        <time>2022-05-16T09:00:15Z</time>
      </trkpt>
      <trkpt lat="43.4704" lon="1.47832">
        <ele>221.3</ele>
        <time>2022-05-16T09:00:16Z</time>
      </trkpt>
      <trkpt lat="43.47037" lon="1.47833">
        <ele>221.9</ele>
        <time>2022-05-16T09:00:17Z</time>
      </trkpt>
      <trkpt lat="43.47033" lon="1.47835">
        <ele>222.4</ele>
        <time>2022-05-16T09:00:18Z</time>
      </trkpt>
      <trkpt lat="43.47029" lon="1.47836">
        <ele>222.9</ele>
        <time>2022-05-16T09:00:19Z</time>
      </trkpt>
      <trkpt lat="43.47025" lon="1.47837">
        <ele>223.5</ele>
        <time>2022-05-16T09:00:20Z</time>
      </trkpt>
      <trkpt lat="43.47021" lon="1.47838">
        <ele>224</ele>
        <time>2022-05-16T09:00:21Z</time>
      </trkpt>
      <trkpt lat="43.47017" lon="1.47839">
        <ele>224.6</ele>
        <time>2022-05-16T09:00:22Z</time>
      </trkpt>
      <trkpt lat="43.47013" lon="1.4784">
        <ele>225.1</ele>
        <time>2022-05-16T09:00:23Z</time>
      </trkpt>
      <trkpt lat="43.47008" lon="1.47838">
        <ele>225.7</ele>
        <time>2022-05-16T09:00:24Z</time>
      </trkpt>
      <trkpt lat="43.47004" lon="1.47837">
        <ele>226.2</ele>
        <time>2022-05-16T09:00:25Z</time>
      </trkpt>
      <trkpt lat="43.47001" lon="1.47836">
        <ele>226.7</ele>
        <time>2022-05-16T09:00:26Z</time>
      </trkpt>
      <trkpt lat="43.46997" lon="1.47833">
        <ele>227.3</ele>
        <time>2022-05-16T09:00:27Z</time>
      </trkpt>
      <trkpt lat="43.46993" lon="1.4783">
        <ele>227.8</ele>
        <time>2022-05-16T09:00:28Z</time>
      </trkpt>
      <trkpt lat="43.4699" lon="1.47827">
        <ele>228.4</ele>
        <time>2022-05-16T09:00:29Z</time>
      </trkpt>
      <trkpt lat="43.46987" lon="1.47824">
        <ele>229</ele>
        <time>2022-05-16T09:00:30Z</time>
      </trkpt>
      <trkpt lat="43.46984" lon="1.4782">
        <ele>229.5</ele>
        <time>2022-05-16T09:00:31Z</time>
      </trkpt>
      <trkpt lat="43.46978" lon="1.47813">
        <ele>230.6</ele>
        <time>2022-05-16T09:00:33Z</time>
      </trkpt>
      <trkpt lat="43.46972" lon="1.47805">
        <ele>231.6</ele>
        <time>2022-05-16T09:00:35Z</time>
      </trkpt>
      <trkpt lat="43.46966" lon="1.47798">
        <ele>232.5</ele>
        <time>2022-05-16T09:00:37Z</time>
      </trkpt>
      <trkpt lat="43.4696" lon="1.47791">
        <ele>233.4</ele>
        <time>2022-05-16T09:00:39Z</time>
      </trkpt>
      <trkpt lat="43.46954" lon="1.47783">
        <ele>234.3</ele>
        <time>2022-05-16T09:00:41Z</time>
      </trkpt>
      <trkpt lat="43.46948" lon="1.47776">
        <ele>235.2</ele>
        <time>2022-05-16T09:00:43Z</time>
      </trkpt>
      <trkpt lat="43.46942" lon="1.47768">
        <ele>236.1</ele>
        <time>2022-05-16T09:00:45Z</time>
      </trkpt>
      <trkpt lat="43.46939" lon="1.47765">
        <ele>236.6</ele>
        <time>2022-05-16T09:00:46Z</time>
      </trkpt>
      <trkpt lat="43.46935" lon="1.47762">
        <ele>237</ele>
        <time>2022-05-16T09:00:47Z</time>
      </trkpt>
      <trkpt lat="43.46932" lon="1.4776">
        <ele>237.5</ele>
        <time>2022-05-16T09:00:48Z</time>
      </trkpt>
      <trkpt lat="43.46928" lon="1.47757">
        <ele>238</ele>
        <time>2022-05-16T09:00:49Z</time>
      </trkpt>
      <trkpt lat="43.46925" lon="1.47754">
        <ele>238.5</ele>
        <time>2022-05-16T09:00:50Z</time>
      </trkpt>
      <trkpt lat="43.46922" lon="1.47752">
        <ele>238.9</ele>
        <time>2022-05-16T09:00:51Z</time>
      </trkpt>
      <trkpt lat="43.46919" lon="1.47749">
        <ele>239.4</ele>
        <time>2022-05-16T09:00:52Z</time>
      </trkpt>
      <trkpt lat="43.46916" lon="1.47746">
        <ele>239.8</ele>
        <time>2022-05-16T09:00:53Z</time>
      </trkpt>
      <trkpt lat="43.46913" lon="1.47744">
        <ele>240.2</ele>
        <time>2022-05-16T09:00:54Z</time>
      </trkpt>
      <trkpt lat="43.4691" lon="1.47741">
        <ele>240.6</ele>
        <time>2022-05-16T09:00:55Z</time>
      </trkpt>
      <trkpt lat="43.46906" lon="1.47739">
        <ele>241</ele>
        <time>2022-05-16T09:00:56Z</time>
      </trkpt>
      <trkpt lat="43.46902" lon="1.4774">
        <ele>241.5</ele>
        <time>2022-05-16T09:00:57Z</time>
      </trkpt>
      <trkpt lat="43.46899" lon="1.47741">
        <ele>241.5</ele>
        <time>2022-05-16T09:00:58Z</time>
      </trkpt>
      <trkpt lat="43.46896" lon="1.47744">
        <ele>241.6</ele>
        <time>2022-05-16T09:00:59Z</time>
      </trkpt>
      <trkpt lat="43.46893" lon="1.47748">
        <ele>241.7</ele>
        <time>2022-05-16T09:01:00Z</time>
      </trkpt>
      <trkpt lat="43.4689" lon="1.47752">
        <ele>241.8</ele>
        <time>2022-05-16T09:01:01Z</time>
      </trkpt>
      <trkpt lat="43.46888" lon="1.47755">
        <ele>241.9</ele>
        <time>2022-05-16T09:01:02Z</time>
      </trkpt>
      <trkpt lat="43.46885" lon="1.47759">
        <ele>242</ele>
        <time>2022-05-16T09:01:03Z</time>
      </trkpt>
      <trkpt lat="43.46881" lon="1.47762">
        <ele>242.1</ele>
        <time>2022-05-16T09:01:04Z</time>
      </trkpt>
      <trkpt lat="43.46878" lon="1.47765">
        <ele>242.3</ele>
        <time>2022-05-16T09:01:05Z</time>
      </trkpt>
      <trkpt lat="43.46874" lon="1.47769">
        <ele>242.4</ele>
        <time>2022-05-16T09:01:06Z</time>
      </trkpt>
      <trkpt lat="43.4687" lon="1.47772">
        <ele>242.5</ele>
        <time>2022-05-16T09:01:07Z</time>
      </trkpt>
      <trkpt lat="43.46867" lon="1.47775">
        <ele>242.6</ele>
        <time>2022-05-16T09:01:08Z</time>
      </trkpt>
      <trkpt lat="43.46864" lon="1.47778">
        <ele>242.7</ele>
        <time>2022-05-16T09:01:09Z</time>
      </trkpt>
      <trkpt lat="43.46861" lon="1.47781">
        <ele>242.8</ele>
        <time>2022-05-16T09:01:10Z</time>
      </trkpt>
      <trkpt lat="43.46858" lon="1.47784">
        <ele>242.9</ele>
        <time>2022-05-16T09:01:11Z</time>
      </trkpt>
      <trkpt lat="43.46854" lon="1.47788">
        <ele>243</ele>
        <time>2022-05-16T09:01:12Z</time>
      </trkpt>
      <trkpt lat="43.4685" lon="1.47792">
        <ele>243.2</ele>
        <time>2022-05-16T09:01:13Z</time>
      </trkpt>
      <trkpt lat="43.46847" lon="1.47796">
        <ele>243.3</ele>
        <time>2022-05-16T09:01:14Z</time>
      </trkpt>
      <trkpt lat="43.46844" lon="1.47799">
        <ele>243.4</ele>
        <time>2022-05-16T09:01:15Z</time>
      </trkpt>
      <trkpt lat="43.46841" lon="1.47802">
        <ele>243.5</ele>
        <time>2022-05-16T09:01:16Z</time>
      </trkpt>
      <trkpt lat="43.46838" lon="1.47806">
        <ele>243.6</ele>
        <time>2022-05-16T09:01:17Z</time>
      </trkpt>
      <trkpt lat="43.46835" lon="1.47809">
        <ele>243.7</ele>
        <time>2022-05-16T09:01:18Z</time>
      </trkpt>
      <trkpt lat="43.46831" lon="1.47813">
        <ele>243.8</ele>
        <time>2022-05-16T09:01:19Z</time>
      </trkpt>
      <trkpt lat="43.46827" lon="1.47816">
        <ele>243.9</ele>
        <time>2022-05-16T09:01:20Z</time>
      </trkpt>
      <trkpt lat="43.46823" lon="1.4782">
        <ele>244</ele>
        <time>2022-05-16T09:01:21Z</time>
      </trkpt>
      <trkpt lat="43.4682" lon="1.47823">
        <ele>244.1</ele>
        <time>2022-05-16T09:01:22Z</time>
      </trkpt>
      <trkpt lat="43.46816" lon="1.47826">
        <ele>244.2</ele>
        <time>2022-05-16T09:01:23Z</time>
      </trkpt>
      <trkpt lat="43.46813" lon="1.4783">
        <ele>244.3</ele>
        <time>2022-05-16T09:01:24Z</time>
      </trkpt>
      <trkpt lat="43.46809" lon="1.47833">
        <ele>244.4</ele>
        <time>2022-05-16T09:01:25Z</time>
      </trkpt>
      <trkpt lat="43.46806" lon="1.47836">
        <ele>244.6</ele>
        <time>2022-05-16T09:01:26Z</time>
      </trkpt>
      <trkpt lat="43.46802" lon="1.4784">
        <ele>244.7</ele>
        <time>2022-05-16T09:01:27Z</time>
      </trkpt>
      <trkpt lat="43.46799" lon="1.47843">
        <ele>244.9</ele>
        <time>2022-05-16T09:01:28Z</time>
      </trkpt>
      <trkpt lat="43.46796" lon="1.47847">
        <ele>245.1</ele>
        <time>2022-05-16T09:01:29Z</time>
      </trkpt>
      <trkpt lat="43.46792" lon="1.4785">
        <ele>245.2</ele>
        <time>2022-05-16T09:01:30Z</time>
      </trkpt>
      <trkpt lat="43.46789" lon="1.47855">
        <ele>245.3</ele>
        <time>2022-05-16T09:01:31Z</time>
      </trkpt>
      <trkpt lat="43.46786" lon="1.47859">
        <ele>245.5</ele>
        <time>2022-05-16T09:01:32Z</time>
      </trkpt>
      <trkpt lat="43.46783" lon="1.47863">
        <ele>245.6</ele>
        <time>2022-05-16T09:01:33Z</time>
      </trkpt>
      <trkpt lat="43.4678" lon="1.47867">
        <ele>245.7</ele>
        <time>2022-05-16T09:01:34Z</time>
      </trkpt>
      <trkpt lat="43.46777" lon="1.47871">
        <ele>245.8</ele>
        <time>2022-05-16T09:01:35Z</time>
      </trkpt>
      <trkpt lat="43.46774" lon="1.47875">
        <ele>245.9</ele>
        <time>2022-05-16T09:01:36Z</time>
      </trkpt>
      <trkpt lat="43.46771" lon="1.47878">
        <ele>246</ele>
        <time>2022-05-16T09:01:37Z</time>
      </trkpt>
      <trkpt lat="43.46768" lon="1.47881">
        <ele>246</ele>
        <time>2022-05-16T09:01:38Z</time>
      </trkpt>
      <trkpt lat="43.46765" lon="1.47885">
        <ele>246.1</ele>
        <time>2022-05-16T09:01:39Z</time>
      </trkpt>
      <trkpt lat="43.46762" lon="1.4789">
        <ele>246.2</ele>
        <time>2022-05-16T09:01:40Z</time>
      </trkpt>
      <trkpt lat="43.46759" lon="1.47894">
        <ele>246.2</ele>
        <time>2022-05-16T09:01:41Z</time>
      </trkpt>
      <trkpt lat="43.46756" lon="1.47899">
        <ele>246.2</ele>
        <time>2022-05-16T09:01:42Z</time>
      </trkpt>
      <trkpt lat="43.46754" lon="1.47903">
        <ele>246.3</ele>
        <time>2022-05-16T09:01:43Z</time>
      </trkpt>
      <trkpt lat="43.46753" lon="1.47908">
        <ele>246.3</ele>
        <time>2022-05-16T09:01:44Z</time>
      </trkpt>
      <trkpt lat="43.46755" lon="1.47914">
        <ele>246.1</ele>
        <time>2022-05-16T09:01:45Z</time>
      </trkpt>
      <trkpt lat="43.46759" lon="1.4792">
        <ele>245.9</ele>
        <time>2022-05-16T09:01:46Z</time>
      </trkpt>
      <trkpt lat="43.46762" lon="1.47923">
        <ele>245.7</ele>
        <time>2022-05-16T09:01:47Z</time>
      </trkpt>
      <trkpt lat="43.46765" lon="1.47928">
        <ele>245.5</ele>
        <time>2022-05-16T09:01:48Z</time>
      </trkpt>
      <trkpt lat="43.46768" lon="1.47934">
        <ele>245.2</ele>
        <time>2022-05-16T09:01:49Z</time>
      </trkpt>
      <trkpt lat="43.46772" lon="1.47939">
        <ele>244.8</ele>
        <time>2022-05-16T09:01:50Z</time>
      </trkpt>
      <trkpt lat="43.46778" lon="1.47943">
        <ele>244.3</ele>
        <time>2022-05-16T09:01:51Z</time>
      </trkpt>
      <trkpt lat="43.46783" lon="1.47948">
        <ele>243.8</ele>
        <time>2022-05-16T09:01:52Z</time>
      </trkpt>
      <trkpt lat="43.46787" lon="1.47954">
        <ele>243.3</ele>
        <time>2022-05-16T09:01:53Z</time>
      </trkpt>
      <trkpt lat="43.46791" lon="1.47961">
        <ele>242.8</ele>
        <time>2022-05-16T09:01:54Z</time>
      </trkpt>
      <trkpt lat="43.46794" lon="1.47971">
        <ele>242.1</ele>
        <time>2022-05-16T09:01:55Z</time>
      </trkpt>
      <trkpt lat="43.46798" lon="1.4798">
        <ele>241.5</ele>
        <time>2022-05-16T09:01:56Z</time>
      </trkpt>
      <trkpt lat="43.46802" lon="1.47991">
        <ele>240.7</ele>
        <time>2022-05-16T09:01:57Z</time>
      </trkpt>
      <trkpt lat="43.46805" lon="1.48002">
        <ele>239.9</ele>
        <time>2022-05-16T09:01:58Z</time>
      </trkpt>
      <trkpt lat="43.46808" lon="1.48012">
        <ele>239.2</ele>
        <time>2022-05-16T09:01:59Z</time>
      </trkpt>
      <trkpt lat="43.46808" lon="1.48021">
        <ele>238.5</ele>
        <time>2022-05-16T09:02:00Z</time>
      </trkpt>
      <trkpt lat="43.46809" lon="1.48031">
        <ele>237.6</ele>
        <time>2022-05-16T09:02:01Z</time>
      </trkpt>
      <trkpt lat="43.46813" lon="1.48042">
        <ele>236.3</ele>
        <time>2022-05-16T09:02:02Z</time>
      </trkpt>
      <trkpt lat="43.46814" lon="1.48054">
        <ele>234.8</ele>
        <time>2022-05-16T09:02:03Z</time>
      </trkpt>
      <trkpt lat="43.46816" lon="1.48059">
        <ele>234</ele>
        <time>2022-05-16T09:02:04Z</time>
      </trkpt>
      <trkpt lat="43.46822" lon="1.48063">
        <ele>232.7</ele>
        <time>2022-05-16T09:02:05Z</time>
      </trkpt>
      <trkpt lat="43.46832" lon="1.48064">
        <ele>230.8</ele>
        <time>2022-05-16T09:02:06Z</time>
      </trkpt>
      <trkpt lat="43.46842" lon="1.48062">
        <ele>228.8</ele>
        <time>2022-05-16T09:02:07Z</time>
      </trkpt>
      <trkpt lat="43.46849" lon="1.48059">
        <ele>227.5</ele>
        <time>2022-05-16T09:02:08Z</time>
      </trkpt>
      <trkpt lat="43.46855" lon="1.48054">
        <ele>226.3</ele>
        <time>2022-05-16T09:02:09Z</time>
      </trkpt>
      <trkpt lat="43.4686" lon="1.48046">
        <ele>225.1</ele>
        <time>2022-05-16T09:02:10Z</time>
      </trkpt>
      <trkpt lat="43.46865" lon="1.48038">
        <ele>223.7</ele>
        <time>2022-05-16T09:02:11Z</time>
      </trkpt>
      <trkpt lat="43.46874" lon="1.48039">
        <ele>222.2</ele>
        <time>2022-05-16T09:02:12Z</time>
      </trkpt>
      <trkpt lat="43.46881" lon="1.48048">
        <ele>220.4</ele>
        <time>2022-05-16T09:02:13Z</time>
      </trkpt>
      <trkpt lat="43.4689" lon="1.48056">
        <ele>218.7</ele>
        <time>2022-05-16T09:02:14Z</time>
      </trkpt>
      <trkpt lat="43.46897" lon="1.48057">
        <ele>217.5</ele>
        <time>2022-05-16T09:02:15Z</time>
      </trkpt>
      <trkpt lat="43.46905" lon="1.48051">
        <ele>216.1</ele>
        <time>2022-05-16T09:02:16Z</time>
      </trkpt>
      <trkpt lat="43.46911" lon="1.48049">
        <ele>215.1</ele>
        <time>2022-05-16T09:02:17Z</time>
      </trkpt>
      <trkpt lat="43.46916" lon="1.48057">
        <ele>213.7</ele>
        <time>2022-05-16T09:02:18Z</time>
      </trkpt>
      <trkpt lat="43.46915" lon="1.48072">
        <ele>211.9</ele>
        <time>2022-05-16T09:02:19Z</time>
      </trkpt>
      <trkpt lat="43.46912" lon="1.48084">
        <ele>210.3</ele>
        <time>2022-05-16T09:02:20Z</time>
      </trkpt>
      <trkpt lat="43.4691" lon="1.48093">
        <ele>209.2</ele>
        <time>2022-05-16T09:02:21Z</time>
      </trkpt>
      <trkpt lat="43.46909" lon="1.48108">
        <ele>207.6</ele>
        <time>2022-05-16T09:02:22Z</time>
      </trkpt>
      <trkpt lat="43.46907" lon="1.48119">
        <ele>206.4</ele>
        <time>2022-05-16T09:02:23Z</time>
      </trkpt>
      <trkpt lat="43.46906" lon="1.48131">
        <ele>205.3</ele>
        <time>2022-05-16T09:02:24Z</time>
      </trkpt>
      <trkpt lat="43.46905" lon="1.48143">
        <ele>204.3</ele>
        <time>2022-05-16T09:02:25Z</time>
      </trkpt>
      <trkpt lat="43.46907" lon="1.48153">
        <ele>203.5</ele>
        <time>2022-05-16T09:02:26Z</time>
      </trkpt>
      <trkpt lat="43.4691" lon="1.48164">
        <ele>202.7</ele>
        <time>2022-05-16T09:02:27Z</time>
      </trkpt>
      <trkpt lat="43.46915" lon="1.48174">
        <ele>201.9</ele>
        <time>2022-05-16T09:02:28Z</time>
      </trkpt>
      <trkpt lat="43.46919" lon="1.48184">
        <ele>200.9</ele>
        <time>2022-05-16T09:02:29Z</time>
      </trkpt>
      <trkpt lat="43.46922" lon="1.4819">
        <ele>200.2</ele>
        <time>2022-05-16T09:02:30Z</time>
      </trkpt>
      <trkpt lat="43.46922" lon="1.48193">
        <ele>200.2</ele>
        <time>2022-05-16T09:02:31Z</time>
      </trkpt>
      <trkpt lat="43.46917" lon="1.48197">
        <ele>200.1</ele>
        <time>2022-05-16T09:02:33Z</time>
      </trkpt>
      <trkpt lat="43.46909" lon="1.48201">
        <ele>199.9</ele>
        <time>2022-05-16T09:02:35Z</time>
      </trkpt>
      <trkpt lat="43.46901" lon="1.48205">
        <ele>199.9</ele>
        <time>2022-05-16T09:02:37Z</time>
      </trkpt>
      <trkpt lat="43.46892" lon="1.48211">
        <ele>199.9</ele>
        <time>2022-05-16T09:02:39Z</time>
      </trkpt>
      <trkpt lat="43.46884" lon="1.48217">
        <ele>199.9</ele>
        <time>2022-05-16T09:02:41Z</time>
      </trkpt>
      <trkpt lat="43.46875" lon="1.48224">
        <ele>200</ele>
        <time>2022-05-16T09:02:43Z</time>
      </trkpt>
      <trkpt lat="43.46867" lon="1.48231">
        <ele>200.1</ele>
        <time>2022-05-16T09:02:45Z</time>
      </trkpt>
      <trkpt lat="43.46859" lon="1.48238">
        <ele>200.2</ele>
        <time>2022-05-16T09:02:47Z</time>
      </trkpt>
      <trkpt lat="43.46854" lon="1.48241">
        <ele>200.2</ele>
        <time>2022-05-16T09:02:48Z</time>
      </trkpt>
      <trkpt lat="43.4685" lon="1.48244">
        <ele>200.2</ele>
        <time>2022-05-16T09:02:49Z</time>
      </trkpt>
      <trkpt lat="43.46846" lon="1.48247">
        <ele>200.2</ele>
        <time>2022-05-16T09:02:50Z</time>
      </trkpt>
      <trkpt lat="43.46841" lon="1.48252">
        <ele>200.3</ele>
        <time>2022-05-16T09:02:51Z</time>
      </trkpt>
      <trkpt lat="43.46837" lon="1.48255">
        <ele>200.3</ele>
        <time>2022-05-16T09:02:52Z</time>
      </trkpt>
      <trkpt lat="43.46832" lon="1.48258">
        <ele>200.3</ele>
        <time>2022-05-16T09:02:53Z</time>
      </trkpt>
      <trkpt lat="43.46827" lon="1.48262">
        <ele>200.3</ele>
        <time>2022-05-16T09:02:54Z</time>
      </trkpt>
      <trkpt lat="43.46823" lon="1.48265">
        <ele>200.4</ele>
        <time>2022-05-16T09:02:55Z</time>
      </trkpt>
      <trkpt lat="43.46819" lon="1.48269">
        <ele>200.4</ele>
        <time>2022-05-16T09:02:56Z</time>
      </trkpt>
      <trkpt lat="43.46815" lon="1.48271">
        <ele>200.4</ele>
        <time>2022-05-16T09:02:57Z</time>
      </trkpt>
      <trkpt lat="43.46811" lon="1.48275">
        <ele>200.4</ele>
        <time>2022-05-16T09:02:58Z</time>
      </trkpt>
      <trkpt lat="43.46806" lon="1.48279">
        <ele>200.4</ele>
        <time>2022-05-16T09:02:59Z</time>
      </trkpt>
      <trkpt lat="43.46802" lon="1.48282">
        <ele>200.3</ele>
        <time>2022-05-16T09:03:00Z</time>
      </trkpt>
      <trkpt lat="43.46798" lon="1.48286">
        <ele>200.3</ele>
        <time>2022-05-16T09:03:01Z</time>
      </trkpt>
      <trkpt lat="43.46794" lon="1.4829">
        <ele>200.3</ele>
        <time>2022-05-16T09:03:02Z</time>
      </trkpt>
      <trkpt lat="43.46789" lon="1.48293">
        <ele>200.2</ele>
        <time>2022-05-16T09:03:03Z</time>
      </trkpt>
      <trkpt lat="43.46785" lon="1.48298">
        <ele>200.2</ele>
        <time>2022-05-16T09:03:04Z</time>
      </trkpt>
      <trkpt lat="43.46781" lon="1.48303">
        <ele>200.2</ele>
        <time>2022-05-16T09:03:05Z</time>
      </trkpt>
      <trkpt lat="43.46777" lon="1.48307">
        <ele>200.2</ele>
        <time>2022-05-16T09:03:06Z</time>
      </trkpt>
      <trkpt lat="43.46773" lon="1.48311">
        <ele>200.1</ele>
        <time>2022-05-16T09:03:07Z</time>
      </trkpt>
      <trkpt lat="43.46769" lon="1.48315">
        <ele>200.1</ele>
        <time>2022-05-16T09:03:08Z</time>
      </trkpt>
      <trkpt lat="43.46764" lon="1.48319">
        <ele>200.1</ele>
        <time>2022-05-16T09:03:09Z</time>
      </trkpt>
      <trkpt lat="43.46759" lon="1.48322">
        <ele>200.1</ele>
        <time>2022-05-16T09:03:10Z</time>
      </trkpt>
      <trkpt lat="43.46754" lon="1.48324">
        <ele>200.1</ele>
        <time>2022-05-16T09:03:11Z</time>
      </trkpt>
      <trkpt lat="43.46749" lon="1.48326">
        <ele>200.1</ele>
        <time>2022-05-16T09:03:12Z</time>
      </trkpt>
      <trkpt lat="43.46744" lon="1.48327">
        <ele>200.1</ele>
        <time>2022-05-16T09:03:13Z</time>
      </trkpt>
      <trkpt lat="43.46739" lon="1.48329">
        <ele>200.1</ele>
        <time>2022-05-16T09:03:14Z</time>
      </trkpt>
      <trkpt lat="43.46734" lon="1.48331">
        <ele>200.1</ele>
        <time>2022-05-16T09:03:15Z</time>
      </trkpt>
      <trkpt lat="43.46729" lon="1.48332">
        <ele>200.1</ele>
        <time>2022-05-16T09:03:16Z</time>
      </trkpt>
      <trkpt lat="43.46724" lon="1.48334">
        <ele>200.1</ele>
        <time>2022-05-16T09:03:17Z</time>
      </trkpt>
      <trkpt lat="43.46719" lon="1.48335">
        <ele>200.1</ele>
        <time>2022-05-16T09:03:18Z</time>
      </trkpt>
      <trkpt lat="43.46714" lon="1.48336">
        <ele>200.1</ele>
        <time>2022-05-16T09:03:19Z</time>
      </trkpt>
      <trkpt lat="43.46709" lon="1.48338">
        <ele>200.1</ele>
        <time>2022-05-16T09:03:20Z</time>
      </trkpt>
      <trkpt lat="43.46704" lon="1.4834">
        <ele>200</ele>
        <time>2022-05-16T09:03:21Z</time>
      </trkpt>
      <trkpt lat="43.46699" lon="1.48342">
        <ele>200</ele>
        <time>2022-05-16T09:03:22Z</time>
      </trkpt>
      <trkpt lat="43.46694" lon="1.48343">
        <ele>200</ele>
        <time>2022-05-16T09:03:23Z</time>
      </trkpt>
      <trkpt lat="43.46689" lon="1.48346">
        <ele>200</ele>
        <time>2022-05-16T09:03:24Z</time>
      </trkpt>
      <trkpt lat="43.46685" lon="1.48347">
        <ele>200</ele>
        <time>2022-05-16T09:03:25Z</time>
      </trkpt>
      <trkpt lat="43.4668" lon="1.48349">
        <ele>199.9</ele>
        <time>2022-05-16T09:03:26Z</time>
      </trkpt>
      <trkpt lat="43.46675" lon="1.48352">
        <ele>199.9</ele>
        <time>2022-05-16T09:03:27Z</time>
      </trkpt>
      <trkpt lat="43.46671" lon="1.48354">
        <ele>199.9</ele>
        <time>2022-05-16T09:03:28Z</time>
      </trkpt>
      <trkpt lat="43.46665" lon="1.48356">
        <ele>199.8</ele>
        <time>2022-05-16T09:03:29Z</time>
      </trkpt>
      <trkpt lat="43.46661" lon="1.48358">
        <ele>199.8</ele>
        <time>2022-05-16T09:03:30Z</time>
      </trkpt>
      <trkpt lat="43.46656" lon="1.4836">
        <ele>199.8</ele>
        <time>2022-05-16T09:03:31Z</time>
      </trkpt>
      <trkpt lat="43.46651" lon="1.48361">
        <ele>199.8</ele>
        <time>2022-05-16T09:03:32Z</time>
      </trkpt>
      <trkpt lat="43.46646" lon="1.48363">
        <ele>199.8</ele>
        <time>2022-05-16T09:03:33Z</time>
      </trkpt>
      <trkpt lat="43.46641" lon="1.48365">
        <ele>199.8</ele>
        <time>2022-05-16T09:03:34Z</time>
      </trkpt>
      <trkpt lat="43.46636" lon="1.48367">
        <ele>199.8</ele>
        <time>2022-05-16T09:03:35Z</time>
      </trkpt>
      <trkpt lat="43.46631" lon="1.4837">
        <ele>199.9</ele>
        <time>2022-05-16T09:03:36Z</time>
      </trkpt>
      <trkpt lat="43.46626" lon="1.48372">
        <ele>199.9</ele>
        <time>2022-05-16T09:03:37Z</time>
      </trkpt>
      <trkpt lat="43.46622" lon="1.48374">
        <ele>200</ele>
        <time>2022-05-16T09:03:38Z</time>
      </trkpt>
      <trkpt lat="43.46617" lon="1.48377">
        <ele>200.1</ele>
        <time>2022-05-16T09:03:39Z</time>
      </trkpt>
      <trkpt lat="43.46612" lon="1.48379">
        <ele>200.1</ele>
        <time>2022-05-16T09:03:40Z</time>
      </trkpt>
      <trkpt lat="43.46608" lon="1.48382">
        <ele>200.2</ele>
        <time>2022-05-16T09:03:41Z</time>
      </trkpt>
      <trkpt lat="43.46604" lon="1.48385">
        <ele>200.3</ele>
        <time>2022-05-16T09:03:42Z</time>
      </trkpt>
      <trkpt lat="43.46599" lon="1.48389">
        <ele>200.4</ele>
        <time>2022-05-16T09:03:43Z</time>
      </trkpt>
      <trkpt lat="43.46595" lon="1.48392">
        <ele>200.5</ele>
        <time>2022-05-16T09:03:44Z</time>
      </trkpt>
      <trkpt lat="43.46591" lon="1.48396">
        <ele>200.6</ele>
        <time>2022-05-16T09:03:45Z</time>
      </trkpt>
      <trkpt lat="43.46587" lon="1.48399">
        <ele>200.7</ele>
        <time>2022-05-16T09:03:46Z</time>
      </trkpt>
      <trkpt lat="43.46582" lon="1.48403">
        <ele>200.8</ele>
        <time>2022-05-16T09:03:47Z</time>
      </trkpt>
      <trkpt lat="43.46578" lon="1.48407">
        <ele>201</ele>
        <time>2022-05-16T09:03:48Z</time>
      </trkpt>
      <trkpt lat="43.46575" lon="1.4841">
        <ele>201.1</ele>
        <time>2022-05-16T09:03:49Z</time>
      </trkpt>
      <trkpt lat="43.46571" lon="1.48414">
        <ele>201.2</ele>
        <time>2022-05-16T09:03:50Z</time>
      </trkpt>
      <trkpt lat="43.46566" lon="1.48418">
        <ele>201.4</ele>
        <time>2022-05-16T09:03:51Z</time>
      </trkpt>
      <trkpt lat="43.46562" lon="1.48422">
        <ele>201.4</ele>
        <time>2022-05-16T09:03:52Z</time>
      </trkpt>
      <trkpt lat="43.46558" lon="1.48427">
        <ele>201.5</ele>
        <time>2022-05-16T09:03:53Z</time>
      </trkpt>
      <trkpt lat="43.46554" lon="1.48431">
        <ele>201.6</ele>
        <time>2022-05-16T09:03:54Z</time>
      </trkpt>
      <trkpt lat="43.4655" lon="1.48435">
        <ele>201.6</ele>
        <time>2022-05-16T09:03:55Z</time>
      </trkpt>
      <trkpt lat="43.46544" lon="1.4844">
        <ele>201.6</ele>
        <time>2022-05-16T09:03:56Z</time>
      </trkpt>
      <trkpt lat="43.46541" lon="1.48445">
        <ele>201.6</ele>
        <time>2022-05-16T09:03:57Z</time>
      </trkpt>
      <trkpt lat="43.46537" lon="1.4845">
        <ele>201.6</ele>
        <time>2022-05-16T09:03:58Z</time>
      </trkpt>
      <trkpt lat="43.46532" lon="1.48455">
        <ele>201.6</ele>
        <time>2022-05-16T09:03:59Z</time>
      </trkpt>
      <trkpt lat="43.46528" lon="1.4846">
        <ele>201.5</ele>
        <time>2022-05-16T09:04:00Z</time>
      </trkpt>
      <trkpt lat="43.46524" lon="1.48465">
        <ele>201.5</ele>
        <time>2022-05-16T09:04:01Z</time>
      </trkpt>
      <trkpt lat="43.4652" lon="1.48471">
        <ele>201.4</ele>
        <time>2022-05-16T09:04:02Z</time>
      </trkpt>
      <trkpt lat="43.46515" lon="1.48476">
        <ele>201.4</ele>
        <time>2022-05-16T09:04:03Z</time>
      </trkpt>
      <trkpt lat="43.46511" lon="1.48481">
        <ele>201.4</ele>
        <time>2022-05-16T09:04:04Z</time>
      </trkpt>
      <trkpt lat="43.46507" lon="1.48485">
        <ele>201.4</ele>
        <time>2022-05-16T09:04:05Z</time>
      </trkpt>
      <trkpt lat="43.46503" lon="1.48486">
        <ele>201.5</ele>
        <time>2022-05-16T09:04:06Z</time>
      </trkpt>
      <trkpt lat="43.46496" lon="1.48486">
        <ele>201.6</ele>
        <time>2022-05-16T09:04:07Z</time>
      </trkpt>
      <trkpt lat="43.46491" lon="1.48486">
        <ele>201.7</ele>
        <time>2022-05-16T09:04:08Z</time>
      </trkpt>
      <trkpt lat="43.46486" lon="1.48486">
        <ele>201.9</ele>
        <time>2022-05-16T09:04:09Z</time>
      </trkpt>
      <trkpt lat="43.46481" lon="1.48487">
        <ele>202.1</ele>
        <time>2022-05-16T09:04:10Z</time>
      </trkpt>
      <trkpt lat="43.46477" lon="1.48486">
        <ele>202.3</ele>
        <time>2022-05-16T09:04:11Z</time>
      </trkpt>
      <trkpt lat="43.46473" lon="1.48486">
        <ele>202.5</ele>
        <time>2022-05-16T09:04:12Z</time>
      </trkpt>
      <trkpt lat="43.46468" lon="1.48486">
        <ele>202.8</ele>
        <time>2022-05-16T09:04:13Z</time>
      </trkpt>
      <trkpt lat="43.46464" lon="1.48486">
        <ele>203.1</ele>
        <time>2022-05-16T09:04:14Z</time>
      </trkpt>
      <trkpt lat="43.4646" lon="1.48486">
        <ele>203.4</ele>
        <time>2022-05-16T09:04:15Z</time>
      </trkpt>
      <trkpt lat="43.46456" lon="1.48486">
        <ele>203.7</ele>
        <time>2022-05-16T09:04:16Z</time>
      </trkpt>
      <trkpt lat="43.46452" lon="1.48486">
        <ele>203.9</ele>
        <time>2022-05-16T09:04:17Z</time>
      </trkpt>
      <trkpt lat="43.46448" lon="1.48485">
        <ele>204.3</ele>
        <time>2022-05-16T09:04:18Z</time>
      </trkpt>
      <trkpt lat="43.46444" lon="1.48485">
        <ele>204.6</ele>
        <time>2022-05-16T09:04:19Z</time>
      </trkpt>
      <trkpt lat="43.46439" lon="1.48485">
        <ele>204.9</ele>
        <time>2022-05-16T09:04:20Z</time>
      </trkpt>
      <trkpt lat="43.46435" lon="1.48483">
        <ele>205.3</ele>
        <time>2022-05-16T09:04:21Z</time>
      </trkpt>
      <trkpt lat="43.46431" lon="1.48481">
        <ele>205.6</ele>
        <time>2022-05-16T09:04:22Z</time>
      </trkpt>
      <trkpt lat="43.46427" lon="1.48479">
        <ele>206</ele>
        <time>2022-05-16T09:04:23Z</time>
      </trkpt>
      <trkpt lat="43.46423" lon="1.48477">
        <ele>206.4</ele>
        <time>2022-05-16T09:04:24Z</time>
      </trkpt>
      <trkpt lat="43.4642" lon="1.48474">
        <ele>206.7</ele>
        <time>2022-05-16T09:04:25Z</time>
      </trkpt>
      <trkpt lat="43.46416" lon="1.48471">
        <ele>207.1</ele>
        <time>2022-05-16T09:04:26Z</time>
      </trkpt>
      <trkpt lat="43.46413" lon="1.48468">
        <ele>207.4</ele>
        <time>2022-05-16T09:04:27Z</time>
      </trkpt>
      <trkpt lat="43.4641" lon="1.48464">
        <ele>207.8</ele>
        <time>2022-05-16T09:04:28Z</time>
      </trkpt>
      <trkpt lat="43.46406" lon="1.4846">
        <ele>208.1</ele>
        <time>2022-05-16T09:04:29Z</time>
      </trkpt>
      <trkpt lat="43.46403" lon="1.48456">
        <ele>208.5</ele>
        <time>2022-05-16T09:04:30Z</time>
      </trkpt>
      <trkpt lat="43.46399" lon="1.48453">
        <ele>208.8</ele>
        <time>2022-05-16T09:04:31Z</time>
      </trkpt>
      <trkpt lat="43.46396" lon="1.48449">
        <ele>209.2</ele>
        <time>2022-05-16T09:04:32Z</time>
      </trkpt>
      <trkpt lat="43.46393" lon="1.48445">
        <ele>209.6</ele>
        <time>2022-05-16T09:04:33Z</time>
      </trkpt>
      <trkpt lat="43.46389" lon="1.48442">
        <ele>209.9</ele>
        <time>2022-05-16T09:04:34Z</time>
      </trkpt>
      <trkpt lat="43.46386" lon="1.48439">
        <ele>210.3</ele>
        <time>2022-05-16T09:04:35Z</time>
      </trkpt>
      <trkpt lat="43.46382" lon="1.48437">
        <ele>210.7</ele>
        <time>2022-05-16T09:04:36Z</time>
      </trkpt>
      <trkpt lat="43.46379" lon="1.48435">
        <ele>211</ele>
        <time>2022-05-16T09:04:37Z</time>
      </trkpt>
      <trkpt lat="43.46376" lon="1.48433">
        <ele>211.4</ele>
        <time>2022-05-16T09:04:38Z</time>
      </trkpt>
      <trkpt lat="43.46371" lon="1.48432">
        <ele>211.9</ele>
        <time>2022-05-16T09:04:39Z</time>
      </trkpt>
      <trkpt lat="43.46368" lon="1.4843">
        <ele>212.2</ele>
        <time>2022-05-16T09:04:40Z</time>
      </trkpt>
      <trkpt lat="43.46363" lon="1.4843">
        <ele>212.6</ele>
        <time>2022-05-16T09:04:41Z</time>
      </trkpt>
      <trkpt lat="43.46359" lon="1.48429">
        <ele>213</ele>
        <time>2022-05-16T09:04:42Z</time>
      </trkpt>
      <trkpt lat="43.46355" lon="1.48428">
        <ele>213.4</ele>
        <time>2022-05-16T09:04:43Z</time>
      </trkpt>
      <trkpt lat="43.46351" lon="1.48427">
        <ele>213.7</ele>
        <time>2022-05-16T09:04:44Z</time>
      </trkpt>
      <trkpt lat="43.46347" lon="1.48426">
        <ele>214</ele>
        <time>2022-05-16T09:04:45Z</time>
      </trkpt>
      <trkpt lat="43.46343" lon="1.48424">
        <ele>214.4</ele>
        <time>2022-05-16T09:04:46Z</time>
      </trkpt>
      <trkpt lat="43.46339" lon="1.48423">
        <ele>214.7</ele>
        <time>2022-05-16T09:04:47Z</time>
      </trkpt>
      <trkpt lat="43.46335" lon="1.48422">
        <ele>215</ele>
        <time>2022-05-16T09:04:48Z</time>
      </trkpt>
      <trkpt lat="43.46332" lon="1.4842">
        <ele>215.4</ele>
        <time>2022-05-16T09:04:49Z</time>
      </trkpt>
      <trkpt lat="43.46328" lon="1.48418">
        <ele>215.7</ele>
        <time>2022-05-16T09:04:50Z</time>
      </trkpt>
      <trkpt lat="43.46324" lon="1.48416">
        <ele>216.1</ele>
        <time>2022-05-16T09:04:51Z</time>
      </trkpt>
      <trkpt lat="43.4632" lon="1.48414">
        <ele>216.4</ele>
        <time>2022-05-16T09:04:52Z</time>
      </trkpt>
      <trkpt lat="43.46316" lon="1.48413">
        <ele>216.7</ele>
        <time>2022-05-16T09:04:53Z</time>
      </trkpt>
      <trkpt lat="43.46313" lon="1.48412">
        <ele>217</ele>
        <time>2022-05-16T09:04:54Z</time>
      </trkpt>
      <trkpt lat="43.46309" lon="1.4841">
        <ele>217.3</ele>
        <time>2022-05-16T09:04:55Z</time>
      </trkpt>
      <trkpt lat="43.46305" lon="1.48409">
        <ele>217.6</ele>
        <time>2022-05-16T09:04:56Z</time>
      </trkpt>
      <trkpt lat="43.46301" lon="1.48407">
        <ele>217.9</ele>
        <time>2022-05-16T09:04:57Z</time>
      </trkpt>
      <trkpt lat="43.46297" lon="1.48405">
        <ele>218.2</ele>
        <time>2022-05-16T09:04:58Z</time>
      </trkpt>
      <trkpt lat="43.46294" lon="1.48404">
        <ele>218.5</ele>
        <time>2022-05-16T09:04:59Z</time>
      </trkpt>
      <trkpt lat="43.4629" lon="1.48402">
        <ele>218.8</ele>
        <time>2022-05-16T09:05:00Z</time>
      </trkpt>
      <trkpt lat="43.46286" lon="1.48401">
        <ele>219.1</ele>
        <time>2022-05-16T09:05:01Z</time>
      </trkpt>
      <trkpt lat="43.46282" lon="1.484">
        <ele>219.4</ele>
        <time>2022-05-16T09:05:02Z</time>
      </trkpt>
      <trkpt lat="43.46278" lon="1.48398">
        <ele>219.6</ele>
        <time>2022-05-16T09:05:03Z</time>
      </trkpt>
      <trkpt lat="43.46275" lon="1.48397">
        <ele>219.9</ele>
        <time>2022-05-16T09:05:04Z</time>
      </trkpt>
      <trkpt lat="43.46271" lon="1.48395">
        <ele>220.1</ele>
        <time>2022-05-16T09:05:05Z</time>
      </trkpt>
      <trkpt lat="43.46267" lon="1.48394">
        <ele>220.4</ele>
        <time>2022-05-16T09:05:06Z</time>
      </trkpt>
      <trkpt lat="43.46264" lon="1.48393">
        <ele>220.6</ele>
        <time>2022-05-16T09:05:07Z</time>
      </trkpt>
      <trkpt lat="43.4626" lon="1.48391">
        <ele>220.8</ele>
        <time>2022-05-16T09:05:08Z</time>
      </trkpt>
      <trkpt lat="43.46257" lon="1.4839">
        <ele>221.1</ele>
        <time>2022-05-16T09:05:09Z</time>
      </trkpt>
      <trkpt lat="43.46253" lon="1.48389">
        <ele>221.3</ele>
        <time>2022-05-16T09:05:10Z</time>
      </trkpt>
      <trkpt lat="43.4625" lon="1.48387">
        <ele>221.5</ele>
        <time>2022-05-16T09:05:11Z</time>
      </trkpt>
      <trkpt lat="43.46246" lon="1.48386">
        <ele>221.8</ele>
        <time>2022-05-16T09:05:12Z</time>
      </trkpt>
      <trkpt lat="43.46243" lon="1.48385">
        <ele>222</ele>
        <time>2022-05-16T09:05:13Z</time>
      </trkpt>
      <trkpt lat="43.4624" lon="1.48384">
        <ele>222.2</ele>
        <time>2022-05-16T09:05:14Z</time>
      </trkpt>
      <trkpt lat="43.46237" lon="1.48382">
        <ele>222.5</ele>
        <time>2022-05-16T09:05:15Z</time>
      </trkpt>
      <trkpt lat="43.46233" lon="1.48381">
        <ele>222.7</ele>
        <time>2022-05-16T09:05:16Z</time>
      </trkpt>
      <trkpt lat="43.4623" lon="1.48381">
        <ele>223</ele>
        <time>2022-05-16T09:05:17Z</time>
      </trkpt>
      <trkpt lat="43.46227" lon="1.48381">
        <ele>223.2</ele>
        <time>2022-05-16T09:05:18Z</time>
      </trkpt>
      <trkpt lat="43.46223" lon="1.48382">
        <ele>223.5</ele>
        <time>2022-05-16T09:05:19Z</time>
      </trkpt>
      <trkpt lat="43.4622" lon="1.48384">
        <ele>223.8</ele>
        <time>2022-05-16T09:05:20Z</time>
      </trkpt>
      <trkpt lat="43.46217" lon="1.48387">
        <ele>224</ele>
        <time>2022-05-16T09:05:21Z</time>
      </trkpt>
      <trkpt lat="43.46215" lon="1.48391">
        <ele>224.3</ele>
        <time>2022-05-16T09:05:22Z</time>
      </trkpt>
      <trkpt lat="43.46213" lon="1.48395">
        <ele>224.7</ele>
        <time>2022-05-16T09:05:23Z</time>
      </trkpt>
      <trkpt lat="43.46211" lon="1.48399">
        <ele>225</ele>
        <time>2022-05-16T09:05:24Z</time>
      </trkpt>
      <trkpt lat="43.46208" lon="1.48404">
        <ele>225.3</ele>
        <time>2022-05-16T09:05:25Z</time>
      </trkpt>
      <trkpt lat="43.46206" lon="1.48408">
        <ele>225.6</ele>
        <time>2022-05-16T09:05:26Z</time>
      </trkpt>
      <trkpt lat="43.46204" lon="1.48412">
        <ele>225.9</ele>
        <time>2022-05-16T09:05:27Z</time>
      </trkpt>
      <trkpt lat="43.46202" lon="1.48415">
        <ele>226.2</ele>
        <time>2022-05-16T09:05:28Z</time>
      </trkpt>
      <trkpt lat="43.462" lon="1.48418">
        <ele>226.5</ele>
        <time>2022-05-16T09:05:29Z</time>
      </trkpt>
      <trkpt lat="43.46197" lon="1.48422">
        <ele>226.8</ele>
        <time>2022-05-16T09:05:30Z</time>
      </trkpt>
      <trkpt lat="43.46195" lon="1.48426">
        <ele>227.1</ele>
        <time>2022-05-16T09:05:31Z</time>
      </trkpt>
      <trkpt lat="43.46193" lon="1.4843">
        <ele>227.4</ele>
        <time>2022-05-16T09:05:32Z</time>
      </trkpt>
      <trkpt lat="43.46191" lon="1.48434">
        <ele>227.7</ele>
        <time>2022-05-16T09:05:33Z</time>
      </trkpt>
      <trkpt lat="43.46189" lon="1.48438">
        <ele>227.9</ele>
        <time>2022-05-16T09:05:34Z</time>
      </trkpt>
      <trkpt lat="43.46187" lon="1.48442">
        <ele>228.2</ele>
        <time>2022-05-16T09:05:35Z</time>
      </trkpt>
      <trkpt lat="43.46185" lon="1.48446">
        <ele>228.5</ele>
        <time>2022-05-16T09:05:36Z</time>
      </trkpt>
      <trkpt lat="43.46183" lon="1.4845">
        <ele>228.7</ele>
        <time>2022-05-16T09:05:37Z</time>
      </trkpt>
      <trkpt lat="43.46181" lon="1.48454">
        <ele>229</ele>
        <time>2022-05-16T09:05:38Z</time>
      </trkpt>
      <trkpt lat="43.46179" lon="1.48458">
        <ele>229.2</ele>
        <time>2022-05-16T09:05:39Z</time>
      </trkpt>
      <trkpt lat="43.46176" lon="1.48461">
        <ele>229.5</ele>
        <time>2022-05-16T09:05:40Z</time>
      </trkpt>
      <trkpt lat="43.46174" lon="1.48465">
        <ele>229.8</ele>
        <time>2022-05-16T09:05:41Z</time>
      </trkpt>
      <trkpt lat="43.46172" lon="1.48469">
        <ele>230</ele>
        <time>2022-05-16T09:05:42Z</time>
      </trkpt>
      <trkpt lat="43.4617" lon="1.48472">
        <ele>230.3</ele>
        <time>2022-05-16T09:05:43Z</time>
      </trkpt>
      <trkpt lat="43.46167" lon="1.48476">
        <ele>230.6</ele>
        <time>2022-05-16T09:05:44Z</time>
      </trkpt>
      <trkpt lat="43.46165" lon="1.4848">
        <ele>230.9</ele>
        <time>2022-05-16T09:05:45Z</time>
      </trkpt>
      <trkpt lat="43.46163" lon="1.48484">
        <ele>231.2</ele>
        <time>2022-05-16T09:05:46Z</time>
      </trkpt>
      <trkpt lat="43.4616" lon="1.48488">
        <ele>231.5</ele>
        <time>2022-05-16T09:05:47Z</time>
      </trkpt>
      <trkpt lat="43.46158" lon="1.48491">
        <ele>231.8</ele>
        <time>2022-05-16T09:05:48Z</time>
      </trkpt>
      <trkpt lat="43.46156" lon="1.48496">
        <ele>232.2</ele>
        <time>2022-05-16T09:05:49Z</time>
      </trkpt>
      <trkpt lat="43.46153" lon="1.48499">
        <ele>232.6</ele>
        <time>2022-05-16T09:05:50Z</time>
      </trkpt>
      <trkpt lat="43.46151" lon="1.48504">
        <ele>233</ele>
        <time>2022-05-16T09:05:51Z</time>
      </trkpt>
      <trkpt lat="43.46148" lon="1.48508">
        <ele>233.4</ele>
        <time>2022-05-16T09:05:52Z</time>
      </trkpt>
      <trkpt lat="43.46146" lon="1.48512">
        <ele>233.8</ele>
        <time>2022-05-16T09:05:53Z</time>
      </trkpt>
      <trkpt lat="43.46144" lon="1.48515">
        <ele>234.2</ele>
        <time>2022-05-16T09:05:54Z</time>
      </trkpt>
      <trkpt lat="43.46142" lon="1.48519">
        <ele>234.6</ele>
        <time>2022-05-16T09:05:55Z</time>
      </trkpt>
      <trkpt lat="43.46139" lon="1.48523">
        <ele>235</ele>
        <time>2022-05-16T09:05:56Z</time>
      </trkpt>
      <trkpt lat="43.46137" lon="1.48527">
        <ele>235.4</ele>
        <time>2022-05-16T09:05:57Z</time>
      </trkpt>
      <trkpt lat="43.46135" lon="1.48531">
        <ele>235.7</ele>
        <time>2022-05-16T09:05:58Z</time>
      </trkpt>
      <trkpt lat="43.46133" lon="1.48535">
        <ele>236.1</ele>
        <time>2022-05-16T09:05:59Z</time>
      </trkpt>
      <trkpt lat="43.4613" lon="1.48538">
        <ele>236.4</ele>
        <time>2022-05-16T09:06:00Z</time>
      </trkpt>
      <trkpt lat="43.46128" lon="1.48541">
        <ele>236.7</ele>
        <time>2022-05-16T09:06:01Z</time>
      </trkpt>
      <trkpt lat="43.46126" lon="1.48545">
        <ele>237.1</ele>
        <time>2022-05-16T09:06:02Z</time>
      </trkpt>
      <trkpt lat="43.46123" lon="1.48549">
        <ele>237.4</ele>
        <time>2022-05-16T09:06:03Z</time>
      </trkpt>
      <trkpt lat="43.46121" lon="1.48553">
        <ele>237.7</ele>
        <time>2022-05-16T09:06:04Z</time>
      </trkpt>
      <trkpt lat="43.46119" lon="1.48557">
        <ele>238</ele>
        <time>2022-05-16T09:06:05Z</time>
      </trkpt>
      <trkpt lat="43.46116" lon="1.4856">
        <ele>238.4</ele>
        <time>2022-05-16T09:06:06Z</time>
      </trkpt>
      <trkpt lat="43.46114" lon="1.48564">
        <ele>238.7</ele>
        <time>2022-05-16T09:06:07Z</time>
      </trkpt>
      <trkpt lat="43.46112" lon="1.48568">
        <ele>239</ele>
        <time>2022-05-16T09:06:08Z</time>
      </trkpt>
      <trkpt lat="43.46109" lon="1.48571">
        <ele>239.3</ele>
        <time>2022-05-16T09:06:09Z</time>
      </trkpt>
      <trkpt lat="43.46107" lon="1.48574">
        <ele>239.6</ele>
        <time>2022-05-16T09:06:10Z</time>
      </trkpt>
      <trkpt lat="43.46105" lon="1.48577">
        <ele>239.8</ele>
        <time>2022-05-16T09:06:11Z</time>
      </trkpt>
      <trkpt lat="43.46103" lon="1.48582">
        <ele>240.1</ele>
        <time>2022-05-16T09:06:12Z</time>
      </trkpt>
      <trkpt lat="43.46101" lon="1.48585">
        <ele>240.4</ele>
        <time>2022-05-16T09:06:13Z</time>
      </trkpt>
      <trkpt lat="43.46098" lon="1.48589">
        <ele>240.7</ele>
        <time>2022-05-16T09:06:14Z</time>
      </trkpt>
      <trkpt lat="43.46096" lon="1.48592">
        <ele>241</ele>
        <time>2022-05-16T09:06:15Z</time>
      </trkpt>
      <trkpt lat="43.46094" lon="1.48596">
        <ele>241.2</ele>
        <time>2022-05-16T09:06:16Z</time>
      </trkpt>
      <trkpt lat="43.46092" lon="1.486">
        <ele>241.5</ele>
        <time>2022-05-16T09:06:17Z</time>
      </trkpt>
      <trkpt lat="43.46091" lon="1.48605">
        <ele>241.7</ele>
        <time>2022-05-16T09:06:18Z</time>
      </trkpt>
      <trkpt lat="43.46089" lon="1.48609">
        <ele>241.9</ele>
        <time>2022-05-16T09:06:19Z</time>
      </trkpt>
      <trkpt lat="43.46087" lon="1.48614">
        <ele>242.1</ele>
        <time>2022-05-16T09:06:20Z</time>
      </trkpt>
      <trkpt lat="43.46085" lon="1.48619">
        <ele>242.3</ele>
        <time>2022-05-16T09:06:21Z</time>
      </trkpt>
      <trkpt lat="43.46083" lon="1.48623">
        <ele>242.4</ele>
        <time>2022-05-16T09:06:22Z</time>
      </trkpt>
      <trkpt lat="43.46081" lon="1.48628">
        <ele>242.6</ele>
        <time>2022-05-16T09:06:23Z</time>
      </trkpt>
      <trkpt lat="43.46079" lon="1.48632">
        <ele>242.7</ele>
        <time>2022-05-16T09:06:24Z</time>
      </trkpt>
      <trkpt lat="43.46077" lon="1.48636">
        <ele>242.8</ele>
        <time>2022-05-16T09:06:25Z</time>
      </trkpt>
      <trkpt lat="43.46075" lon="1.4864">
        <ele>242.9</ele>
        <time>2022-05-16T09:06:26Z</time>
      </trkpt>
      <trkpt lat="43.46073" lon="1.48644">
        <ele>243</ele>
        <time>2022-05-16T09:06:27Z</time>
      </trkpt>
      <trkpt lat="43.46071" lon="1.48648">
        <ele>243.1</ele>
        <time>2022-05-16T09:06:28Z</time>
      </trkpt>
      <trkpt lat="43.46069" lon="1.48653">
        <ele>243.2</ele>
        <time>2022-05-16T09:06:29Z</time>
      </trkpt>
      <trkpt lat="43.46067" lon="1.48657">
        <ele>243.4</ele>
        <time>2022-05-16T09:06:30Z</time>
      </trkpt>
      <trkpt lat="43.46066" lon="1.48661">
        <ele>243.5</ele>
        <time>2022-05-16T09:06:31Z</time>
      </trkpt>
      <trkpt lat="43.46064" lon="1.48665">
        <ele>243.7</ele>
        <time>2022-05-16T09:06:32Z</time>
      </trkpt>
      <trkpt lat="43.46062" lon="1.4867">
        <ele>243.8</ele>
        <time>2022-05-16T09:06:33Z</time>
      </trkpt>
      <trkpt lat="43.46061" lon="1.48674">
        <ele>244</ele>
        <time>2022-05-16T09:06:34Z</time>
      </trkpt>
      <trkpt lat="43.46059" lon="1.48679">
        <ele>244.1</ele>
        <time>2022-05-16T09:06:35Z</time>
      </trkpt>
      <trkpt lat="43.46057" lon="1.48683">
        <ele>244.3</ele>
        <time>2022-05-16T09:06:36Z</time>
      </trkpt>
      <trkpt lat="43.46056" lon="1.48688">
        <ele>244.5</ele>
        <time>2022-05-16T09:06:37Z</time>
      </trkpt>
      <trkpt lat="43.46054" lon="1.48692">
        <ele>244.6</ele>
        <time>2022-05-16T09:06:38Z</time>
      </trkpt>
      <trkpt lat="43.46051" lon="1.48696">
        <ele>244.8</ele>
        <time>2022-05-16T09:06:39Z</time>
      </trkpt>
      <trkpt lat="43.46049" lon="1.487">
        <ele>244.9</ele>
        <time>2022-05-16T09:06:40Z</time>
      </trkpt>
      <trkpt lat="43.46047" lon="1.48704">
        <ele>245.1</ele>
        <time>2022-05-16T09:06:41Z</time>
      </trkpt>
      <trkpt lat="43.46045" lon="1.48708">
        <ele>245.2</ele>
        <time>2022-05-16T09:06:42Z</time>
      </trkpt>
      <trkpt lat="43.46043" lon="1.48712">
        <ele>245.4</ele>
        <time>2022-05-16T09:06:43Z</time>
      </trkpt>
      <trkpt lat="43.4604" lon="1.48717">
        <ele>245.5</ele>
        <time>2022-05-16T09:06:44Z</time>
      </trkpt>
      <trkpt lat="43.46038" lon="1.48721">
        <ele>245.7</ele>
        <time>2022-05-16T09:06:45Z</time>
      </trkpt>
      <trkpt lat="43.46036" lon="1.48724">
        <ele>245.8</ele>
        <time>2022-05-16T09:06:46Z</time>
      </trkpt>
      <trkpt lat="43.46033" lon="1.48728">
        <ele>246</ele>
        <time>2022-05-16T09:06:47Z</time>
      </trkpt>
      <trkpt lat="43.46031" lon="1.48732">
        <ele>246.2</ele>
        <time>2022-05-16T09:06:48Z</time>
      </trkpt>
      <trkpt lat="43.46029" lon="1.48736">
        <ele>246.4</ele>
        <time>2022-05-16T09:06:49Z</time>
      </trkpt>
      <trkpt lat="43.46026" lon="1.4874">
        <ele>246.5</ele>
        <time>2022-05-16T09:06:50Z</time>
      </trkpt>
      <trkpt lat="43.46024" lon="1.48744">
        <ele>246.8</ele>
        <time>2022-05-16T09:06:51Z</time>
      </trkpt>
      <trkpt lat="43.46022" lon="1.48748">
        <ele>247</ele>
        <time>2022-05-16T09:06:52Z</time>
      </trkpt>
      <trkpt lat="43.4602" lon="1.48752">
        <ele>247.2</ele>
        <time>2022-05-16T09:06:53Z</time>
      </trkpt>
      <trkpt lat="43.46017" lon="1.48756">
        <ele>247.4</ele>
        <time>2022-05-16T09:06:54Z</time>
      </trkpt>
      <trkpt lat="43.46015" lon="1.4876">
        <ele>247.6</ele>
        <time>2022-05-16T09:06:55Z</time>
      </trkpt>
      <trkpt lat="43.46013" lon="1.48764">
        <ele>247.8</ele>
        <time>2022-05-16T09:06:56Z</time>
      </trkpt>
      <trkpt lat="43.46011" lon="1.48768">
        <ele>248</ele>
        <time>2022-05-16T09:06:57Z</time>
      </trkpt>
      <trkpt lat="43.46008" lon="1.48772">
        <ele>248.3</ele>
        <time>2022-05-16T09:06:58Z</time>
      </trkpt>
      <trkpt lat="43.46006" lon="1.48776">
        <ele>248.5</ele>
        <time>2022-05-16T09:06:59Z</time>
      </trkpt>
      <trkpt lat="43.46004" lon="1.48779">
        <ele>248.7</ele>
        <time>2022-05-16T09:07:00Z</time>
      </trkpt>
      <trkpt lat="43.46001" lon="1.48783">
        <ele>249</ele>
        <time>2022-05-16T09:07:01Z</time>
      </trkpt>
      <trkpt lat="43.45999" lon="1.48787">
        <ele>249.2</ele>
        <time>2022-05-16T09:07:02Z</time>
      </trkpt>
      <trkpt lat="43.45997" lon="1.48791">
        <ele>249.4</ele>
        <time>2022-05-16T09:07:03Z</time>
      </trkpt>
      <trkpt lat="43.45995" lon="1.48795">
        <ele>249.6</ele>
        <time>2022-05-16T09:07:04Z</time>
      </trkpt>
      <trkpt lat="43.45992" lon="1.48799">
        <ele>249.8</ele>
        <time>2022-05-16T09:07:05Z</time>
      </trkpt>
      <trkpt lat="43.4599" lon="1.48803">
        <ele>250.1</ele>
        <time>2022-05-16T09:07:06Z</time>
      </trkpt>
      <trkpt lat="43.45988" lon="1.48806">
        <ele>250.3</ele>
        <time>2022-05-16T09:07:07Z</time>
      </trkpt>
      <trkpt lat="43.45985" lon="1.4881">
        <ele>250.5</ele>
        <time>2022-05-16T09:07:08Z</time>
      </trkpt>
      <trkpt lat="43.45983" lon="1.48814">
        <ele>250.8</ele>
        <time>2022-05-16T09:07:09Z</time>
      </trkpt>
      <trkpt lat="43.45981" lon="1.48818">
        <ele>251</ele>
        <time>2022-05-16T09:07:10Z</time>
      </trkpt>
      <trkpt lat="43.45979" lon="1.48822">
        <ele>251.2</ele>
        <time>2022-05-16T09:07:11Z</time>
      </trkpt>
      <trkpt lat="43.45976" lon="1.48826">
        <ele>251.4</ele>
        <time>2022-05-16T09:07:12Z</time>
      </trkpt>
      <trkpt lat="43.45974" lon="1.48829">
        <ele>251.7</ele>
        <time>2022-05-16T09:07:13Z</time>
      </trkpt>
      <trkpt lat="43.45972" lon="1.48833">
        <ele>251.9</ele>
        <time>2022-05-16T09:07:14Z</time>
      </trkpt>
      <trkpt lat="43.4597" lon="1.48837">
        <ele>252.1</ele>
        <time>2022-05-16T09:07:15Z</time>
      </trkpt>
      <trkpt lat="43.45967" lon="1.48841">
        <ele>252.3</ele>
        <time>2022-05-16T09:07:16Z</time>
      </trkpt>
      <trkpt lat="43.45965" lon="1.48845">
        <ele>252.5</ele>
        <time>2022-05-16T09:07:17Z</time>
      </trkpt>
      <trkpt lat="43.45963" lon="1.48849">
        <ele>252.7</ele>
        <time>2022-05-16T09:07:18Z</time>
      </trkpt>
      <trkpt lat="43.4596" lon="1.48853">
        <ele>252.9</ele>
        <time>2022-05-16T09:07:19Z</time>
      </trkpt>
      <trkpt lat="43.45958" lon="1.48857">
        <ele>253.1</ele>
        <time>2022-05-16T09:07:20Z</time>
      </trkpt>
      <trkpt lat="43.45956" lon="1.48861">
        <ele>253.3</ele>
        <time>2022-05-16T09:07:21Z</time>
      </trkpt>
      <trkpt lat="43.45953" lon="1.48865">
        <ele>253.5</ele>
        <time>2022-05-16T09:07:22Z</time>
      </trkpt>
      <trkpt lat="43.45951" lon="1.48869">
        <ele>253.7</ele>
        <time>2022-05-16T09:07:23Z</time>
      </trkpt>
      <trkpt lat="43.45949" lon="1.48873">
        <ele>253.9</ele>
        <time>2022-05-16T09:07:24Z</time>
      </trkpt>
      <trkpt lat="43.45946" lon="1.48877">
        <ele>254</ele>
        <time>2022-05-16T09:07:25Z</time>
      </trkpt>
      <trkpt lat="43.45944" lon="1.48881">
        <ele>254.2</ele>
        <time>2022-05-16T09:07:26Z</time>
      </trkpt>
      <trkpt lat="43.45942" lon="1.48885">
        <ele>254.4</ele>
        <time>2022-05-16T09:07:27Z</time>
      </trkpt>
      <trkpt lat="43.45939" lon="1.48889">
        <ele>254.6</ele>
        <time>2022-05-16T09:07:28Z</time>
      </trkpt>
      <trkpt lat="43.45937" lon="1.48893">
        <ele>254.8</ele>
        <time>2022-05-16T09:07:29Z</time>
      </trkpt>
      <trkpt lat="43.45935" lon="1.48897">
        <ele>255</ele>
        <time>2022-05-16T09:07:30Z</time>
      </trkpt>
      <trkpt lat="43.45932" lon="1.48901">
        <ele>255.2</ele>
        <time>2022-05-16T09:07:31Z</time>
      </trkpt>
      <trkpt lat="43.4593" lon="1.48905">
        <ele>255.4</ele>
        <time>2022-05-16T09:07:32Z</time>
      </trkpt>
      <trkpt lat="43.45928" lon="1.48909">
        <ele>255.6</ele>
        <time>2022-05-16T09:07:33Z</time>
      </trkpt>
      <trkpt lat="43.45925" lon="1.48913">
        <ele>255.8</ele>
        <time>2022-05-16T09:07:34Z</time>
      </trkpt>
      <trkpt lat="43.45923" lon="1.48917">
        <ele>256</ele>
        <time>2022-05-16T09:07:35Z</time>
      </trkpt>
      <trkpt lat="43.45921" lon="1.48921">
        <ele>256.2</ele>
        <time>2022-05-16T09:07:36Z</time>
      </trkpt>
      <trkpt lat="43.45918" lon="1.48925">
        <ele>256.5</ele>
        <time>2022-05-16T09:07:37Z</time>
      </trkpt>
      <trkpt lat="43.45916" lon="1.48929">
        <ele>256.7</ele>
        <time>2022-05-16T09:07:38Z</time>
      </trkpt>
      <trkpt lat="43.45914" lon="1.48933">
        <ele>256.9</ele>
        <time>2022-05-16T09:07:39Z</time>
      </trkpt>
      <trkpt lat="43.45911" lon="1.48937">
        <ele>257.2</ele>
        <time>2022-05-16T09:07:40Z</time>
      </trkpt>
      <trkpt lat="43.45909" lon="1.4894">
        <ele>257.4</ele>
        <time>2022-05-16T09:07:41Z</time>
      </trkpt>
      <trkpt lat="43.45907" lon="1.48944">
        <ele>257.6</ele>
        <time>2022-05-16T09:07:42Z</time>
      </trkpt>
      <trkpt lat="43.45905" lon="1.48948">
        <ele>257.9</ele>
        <time>2022-05-16T09:07:43Z</time>
      </trkpt>
      <trkpt lat="43.45903" lon="1.48952">
        <ele>258.1</ele>
        <time>2022-05-16T09:07:44Z</time>
      </trkpt>
      <trkpt lat="43.459" lon="1.48956">
        <ele>258.3</ele>
        <time>2022-05-16T09:07:45Z</time>
      </trkpt>
      <trkpt lat="43.45898" lon="1.4896">
        <ele>258.6</ele>
        <time>2022-05-16T09:07:46Z</time>
      </trkpt>
      <trkpt lat="43.45896" lon="1.48964">
        <ele>258.8</ele>
        <time>2022-05-16T09:07:47Z</time>
      </trkpt>
      <trkpt lat="43.45894" lon="1.48968">
        <ele>259</ele>
        <time>2022-05-16T09:07:48Z</time>
      </trkpt>
      <trkpt lat="43.45891" lon="1.48971">
        <ele>259.2</ele>
        <time>2022-05-16T09:07:49Z</time>
      </trkpt>
      <trkpt lat="43.45889" lon="1.48975">
        <ele>259.8</ele>
        <time>2022-05-16T09:07:50Z</time>
      </trkpt>
      <trkpt lat="43.45887" lon="1.48977">
        <ele>259.7</ele>
        <time>2022-05-16T09:07:51Z</time>
      </trkpt>
      <trkpt lat="43.45884" lon="1.48976">
        <ele>259.6</ele>
        <time>2022-05-16T09:07:52Z</time>
      </trkpt>
      <trkpt lat="43.45881" lon="1.48972">
        <ele>259.4</ele>
        <time>2022-05-16T09:07:53Z</time>
      </trkpt>
      <trkpt lat="43.45879" lon="1.48968">
        <ele>259.2</ele>
        <time>2022-05-16T09:07:54Z</time>
      </trkpt>
      <trkpt lat="43.45876" lon="1.48964">
        <ele>259</ele>
        <time>2022-05-16T09:07:55Z</time>
      </trkpt>
      <trkpt lat="43.45873" lon="1.4896">
        <ele>258.6</ele>
        <time>2022-05-16T09:07:56Z</time>
      </trkpt>
      <trkpt lat="43.4587" lon="1.48954">
        <ele>258</ele>
        <time>2022-05-16T09:07:57Z</time>
      </trkpt>
      <trkpt lat="43.45866" lon="1.48949">
        <ele>257.3</ele>
        <time>2022-05-16T09:07:58Z</time>
      </trkpt>
      <trkpt lat="43.45861" lon="1.48943">
        <ele>256.4</ele>
        <time>2022-05-16T09:07:59Z</time>
      </trkpt>
      <trkpt lat="43.45855" lon="1.48935">
        <ele>255.1</ele>
        <time>2022-05-16T09:08:00Z</time>
      </trkpt>
      <trkpt lat="43.45849" lon="1.48927">
        <ele>253.6</ele>
        <time>2022-05-16T09:08:01Z</time>
      </trkpt>
      <trkpt lat="43.45842" lon="1.48919">
        <ele>252.2</ele>
        <time>2022-05-16T09:08:02Z</time>
      </trkpt>
      <trkpt lat="43.45835" lon="1.48909">
        <ele>250.7</ele>
        <time>2022-05-16T09:08:03Z</time>
      </trkpt>
      <trkpt lat="43.45827" lon="1.48899">
        <ele>249.3</ele>
        <time>2022-05-16T09:08:04Z</time>
      </trkpt>
      <trkpt lat="43.4582" lon="1.48888">
        <ele>247.9</ele>
        <time>2022-05-16T09:08:05Z</time>
      </trkpt>
      <trkpt lat="43.45813" lon="1.48877">
        <ele>246.5</ele>
        <time>2022-05-16T09:08:06Z</time>
      </trkpt>
      <trkpt lat="43.45806" lon="1.48865">
        <ele>244.9</ele>
        <time>2022-05-16T09:08:07Z</time>
      </trkpt>
      <trkpt lat="43.45798" lon="1.48852">
        <ele>243</ele>
        <time>2022-05-16T09:08:08Z</time>
      </trkpt>
      <trkpt lat="43.45789" lon="1.48838">
        <ele>240.8</ele>
        <time>2022-05-16T09:08:09Z</time>
      </trkpt>
      <trkpt lat="43.45781" lon="1.48824">
        <ele>238.5</ele>
        <time>2022-05-16T09:08:10Z</time>
      </trkpt>
      <trkpt lat="43.45772" lon="1.48812">
        <ele>235.9</ele>
        <time>2022-05-16T09:08:11Z</time>
      </trkpt>
      <trkpt lat="43.45764" lon="1.48799">
        <ele>233.6</ele>
        <time>2022-05-16T09:08:12Z</time>
      </trkpt>
      <trkpt lat="43.45757" lon="1.48788">
        <ele>231.6</ele>
        <time>2022-05-16T09:08:13Z</time>
      </trkpt>
      <trkpt lat="43.45751" lon="1.48778">
        <ele>229.8</ele>
        <time>2022-05-16T09:08:14Z</time>
      </trkpt>
      <trkpt lat="43.45745" lon="1.48768">
        <ele>228.1</ele>
        <time>2022-05-16T09:08:15Z</time>
      </trkpt>
      <trkpt lat="43.4574" lon="1.48759">
        <ele>226.8</ele>
        <time>2022-05-16T09:08:16Z</time>
      </trkpt>
      <trkpt lat="43.45736" lon="1.48752">
        <ele>225.9</ele>
        <time>2022-05-16T09:08:17Z</time>
      </trkpt>
      <trkpt lat="43.45732" lon="1.48749">
        <ele>225.7</ele>
        <time>2022-05-16T09:08:18Z</time>
      </trkpt>
      <trkpt lat="43.4573" lon="1.48753">
        <ele>225.7</ele>
        <time>2022-05-16T09:08:19Z</time>
      </trkpt>
      <trkpt lat="43.45727" lon="1.48757">
        <ele>225.7</ele>
        <time>2022-05-16T09:08:20Z</time>
      </trkpt>
      <trkpt lat="43.45725" lon="1.48762">
        <ele>225.7</ele>
        <time>2022-05-16T09:08:21Z</time>
      </trkpt>
      <trkpt lat="43.45724" lon="1.48768">
        <ele>225.8</ele>
        <time>2022-05-16T09:08:22Z</time>
      </trkpt>
      <trkpt lat="43.45721" lon="1.48772">
        <ele>225.9</ele>
        <time>2022-05-16T09:08:23Z</time>
      </trkpt>
      <trkpt lat="43.45719" lon="1.48776">
        <ele>226</ele>
        <time>2022-05-16T09:08:24Z</time>
      </trkpt>
      <trkpt lat="43.45716" lon="1.48779">
        <ele>226.1</ele>
        <time>2022-05-16T09:08:25Z</time>
      </trkpt>
      <trkpt lat="43.45714" lon="1.48784">
        <ele>226.3</ele>
        <time>2022-05-16T09:08:26Z</time>
      </trkpt>
      <trkpt lat="43.45711" lon="1.48787">
        <ele>226.4</ele>
        <time>2022-05-16T09:08:27Z</time>
      </trkpt>
      <trkpt lat="43.45708" lon="1.48791">
        <ele>226.6</ele>
        <time>2022-05-16T09:08:28Z</time>
      </trkpt>
      <trkpt lat="43.45705" lon="1.48794">
        <ele>226.8</ele>
        <time>2022-05-16T09:08:29Z</time>
      </trkpt>
      <trkpt lat="43.45702" lon="1.48797">
        <ele>227</ele>
        <time>2022-05-16T09:08:30Z</time>
      </trkpt>
      <trkpt lat="43.45699" lon="1.48801">
        <ele>227.1</ele>
        <time>2022-05-16T09:08:31Z</time>
      </trkpt>
      <trkpt lat="43.45696" lon="1.48804">
        <ele>227.3</ele>
        <time>2022-05-16T09:08:32Z</time>
      </trkpt>
      <trkpt lat="43.45693" lon="1.48808">
        <ele>227.5</ele>
        <time>2022-05-16T09:08:33Z</time>
      </trkpt>
      <trkpt lat="43.4569" lon="1.48811">
        <ele>227.7</ele>
        <time>2022-05-16T09:08:34Z</time>
      </trkpt>
      <trkpt lat="43.45688" lon="1.48815">
        <ele>227.8</ele>
        <time>2022-05-16T09:08:35Z</time>
      </trkpt>
      <trkpt lat="43.45685" lon="1.48818">
        <ele>228</ele>
        <time>2022-05-16T09:08:36Z</time>
      </trkpt>
      <trkpt lat="43.45682" lon="1.48822">
        <ele>228.1</ele>
        <time>2022-05-16T09:08:37Z</time>
      </trkpt>
      <trkpt lat="43.45679" lon="1.48825">
        <ele>228.3</ele>
        <time>2022-05-16T09:08:38Z</time>
      </trkpt>
      <trkpt lat="43.45676" lon="1.48829">
        <ele>228.4</ele>
        <time>2022-05-16T09:08:39Z</time>
      </trkpt>
      <trkpt lat="43.45671" lon="1.48833">
        <ele>228.6</ele>
        <time>2022-05-16T09:08:40Z</time>
      </trkpt>
      <trkpt lat="43.45668" lon="1.48837">
        <ele>228.7</ele>
        <time>2022-05-16T09:08:41Z</time>
      </trkpt>
      <trkpt lat="43.45665" lon="1.48841">
        <ele>228.8</ele>
        <time>2022-05-16T09:08:42Z</time>
      </trkpt>
      <trkpt lat="43.45662" lon="1.48844">
        <ele>228.9</ele>
        <time>2022-05-16T09:08:43Z</time>
      </trkpt>
      <trkpt lat="43.45659" lon="1.48848">
        <ele>229.1</ele>
        <time>2022-05-16T09:08:44Z</time>
      </trkpt>
      <trkpt lat="43.45657" lon="1.48851">
        <ele>229.2</ele>
        <time>2022-05-16T09:08:45Z</time>
      </trkpt>
      <trkpt lat="43.45654" lon="1.48855">
        <ele>229.3</ele>
        <time>2022-05-16T09:08:46Z</time>
      </trkpt>
      <trkpt lat="43.4565" lon="1.48859">
        <ele>229.4</ele>
        <time>2022-05-16T09:08:47Z</time>
      </trkpt>
      <trkpt lat="43.45647" lon="1.48862">
        <ele>229.6</ele>
        <time>2022-05-16T09:08:48Z</time>
      </trkpt>
      <trkpt lat="43.45644" lon="1.48865">
        <ele>229.7</ele>
        <time>2022-05-16T09:08:49Z</time>
      </trkpt>
      <trkpt lat="43.45638" lon="1.48872">
        <ele>230</ele>
        <time>2022-05-16T09:08:51Z</time>
      </trkpt>
      <trkpt lat="43.45632" lon="1.48879">
        <ele>230.3</ele>
        <time>2022-05-16T09:08:53Z</time>
      </trkpt>
      <trkpt lat="43.45626" lon="1.48885">
        <ele>230.5</ele>
        <time>2022-05-16T09:08:55Z</time>
      </trkpt>
      <trkpt lat="43.4562" lon="1.48893">
        <ele>230.8</ele>
        <time>2022-05-16T09:08:57Z</time>
      </trkpt>
      <trkpt lat="43.45613" lon="1.489">
        <ele>231</ele>
        <time>2022-05-16T09:08:59Z</time>
      </trkpt>
      <trkpt lat="43.45607" lon="1.48906">
        <ele>231.1</ele>
        <time>2022-05-16T09:09:01Z</time>
      </trkpt>
      <trkpt lat="43.45601" lon="1.48914">
        <ele>234.9</ele>
        <time>2022-05-16T09:09:03Z</time>
      </trkpt>
      <trkpt lat="43.45596" lon="1.48921">
        <ele>237.2</ele>
        <time>2022-05-16T09:09:05Z</time>
      </trkpt>
      <trkpt lat="43.45593" lon="1.48924">
        <ele>238.4</ele>
        <time>2022-05-16T09:09:07Z</time>
      </trkpt>
      <trkpt lat="43.4559" lon="1.48927">
        <ele>239.3</ele>
        <time>2022-05-16T09:09:08Z</time>
      </trkpt>
      <trkpt lat="43.45585" lon="1.48928">
        <ele>239.9</ele>
        <time>2022-05-16T09:09:09Z</time>
      </trkpt>
      <trkpt lat="43.45578" lon="1.48925">
        <ele>239.8</ele>
        <time>2022-05-16T09:09:10Z</time>
      </trkpt>
      <trkpt lat="43.45575" lon="1.48923">
        <ele>239.7</ele>
        <time>2022-05-16T09:09:11Z</time>
      </trkpt>
      <trkpt lat="43.45573" lon="1.4892">
        <ele>239.5</ele>
        <time>2022-05-16T09:09:12Z</time>
      </trkpt>
      <trkpt lat="43.4557" lon="1.48917">
        <ele>239.4</ele>
        <time>2022-05-16T09:09:13Z</time>
      </trkpt>
      <trkpt lat="43.45569" lon="1.48916">
        <ele>239.4</ele>
        <time>2022-05-16T09:09:14Z</time>
      </trkpt>
      <trkpt lat="43.45569" lon="1.48912">
        <ele>239.3</ele>
        <time>2022-05-16T09:09:15Z</time>
      </trkpt>
      <trkpt lat="43.4557" lon="1.48911">
        <ele>239.4</ele>
        <time>2022-05-16T09:09:16Z</time>
      </trkpt>
      <trkpt lat="43.45569" lon="1.48909">
        <ele>239.4</ele>
        <time>2022-05-16T09:09:17Z</time>
      </trkpt>
      <trkpt lat="43.45568" lon="1.48906">
        <ele>239.5</ele>
        <time>2022-05-16T09:09:18Z</time>
      </trkpt>
      <trkpt lat="43.45567" lon="1.48904">
        <ele>239.6</ele>
        <time>2022-05-16T09:09:19Z</time>
      </trkpt>
      <trkpt lat="43.45567" lon="1.48903">
        <ele>239.7</ele>
        <time>2022-05-16T09:09:20Z</time>
      </trkpt>
      <trkpt lat="43.45566" lon="1.489">
        <ele>240.2</ele>
        <time>2022-05-16T09:09:21Z</time>
      </trkpt>
      <trkpt lat="43.45565" lon="1.48899">
        <ele>240.5</ele>
        <time>2022-05-16T09:09:22Z</time>
      </trkpt>
      <trkpt lat="43.45565" lon="1.489">
        <ele>240.3</ele>
        <time>2022-05-16T09:09:23Z</time>
      </trkpt>
      <trkpt lat="43.45564" lon="1.48899">
        <ele>240.4</ele>
        <time>2022-05-16T09:09:24Z</time>
      </trkpt>
      <trkpt lat="43.45563" lon="1.48897">
        <ele>240.7</ele>
        <time>2022-05-16T09:09:25Z</time>
      </trkpt>
      <trkpt lat="43.4556" lon="1.48894">
        <ele>240.8</ele>
        <time>2022-05-16T09:09:26Z</time>
      </trkpt>
      <trkpt lat="43.4556" lon="1.48893">
        <ele>240.9</ele>
        <time>2022-05-16T09:09:27Z</time>
      </trkpt>
      <trkpt lat="43.45557" lon="1.4889">
        <ele>240.9</ele>
        <time>2022-05-16T09:09:28Z</time>
      </trkpt>
      <trkpt lat="43.45556" lon="1.48889">
        <ele>241</ele>
        <time>2022-05-16T09:09:29Z</time>
      </trkpt>
      <trkpt lat="43.45553" lon="1.48888">
        <ele>242.1</ele>
        <time>2022-05-16T09:09:30Z</time>
      </trkpt>
      <trkpt lat="43.45552" lon="1.48887">
        <ele>242.2</ele>
        <time>2022-05-16T09:09:31Z</time>
      </trkpt>
      <trkpt lat="43.4555" lon="1.48884">
        <ele>242.3</ele>
        <time>2022-05-16T09:09:32Z</time>
      </trkpt>
      <trkpt lat="43.4555" lon="1.48883">
        <ele>242.4</ele>
        <time>2022-05-16T09:09:33Z</time>
      </trkpt>
      <trkpt lat="43.45547" lon="1.48881">
        <ele>243.2</ele>
        <time>2022-05-16T09:09:34Z</time>
      </trkpt>
      <trkpt lat="43.45546" lon="1.4888">
        <ele>243.3</ele>
        <time>2022-05-16T09:09:35Z</time>
      </trkpt>
      <trkpt lat="43.45543" lon="1.4888">
        <ele>243.4</ele>
        <time>2022-05-16T09:09:36Z</time>
      </trkpt>
      <trkpt lat="43.45542" lon="1.4888">
        <ele>243.4</ele>
        <time>2022-05-16T09:09:37Z</time>
      </trkpt>
      <trkpt lat="43.45539" lon="1.48879">
        <ele>244.7</ele>
        <time>2022-05-16T09:09:38Z</time>
      </trkpt>
      <trkpt lat="43.45538" lon="1.48879">
        <ele>244.8</ele>
        <time>2022-05-16T09:09:39Z</time>
      </trkpt>
      <trkpt lat="43.45536" lon="1.48877">
        <ele>244.9</ele>
        <time>2022-05-16T09:09:40Z</time>
      </trkpt>
      <trkpt lat="43.45535" lon="1.48876">
        <ele>245</ele>
        <time>2022-05-16T09:09:41Z</time>
      </trkpt>
      <trkpt lat="43.45534" lon="1.48875">
        <ele>245</ele>
        <time>2022-05-16T09:09:42Z</time>
      </trkpt>
      <trkpt lat="43.45533" lon="1.48874">
        <ele>245.1</ele>
        <time>2022-05-16T09:09:43Z</time>
      </trkpt>
      <trkpt lat="43.4553" lon="1.48872">
        <ele>245.2</ele>
        <time>2022-05-16T09:09:44Z</time>
      </trkpt>
      <trkpt lat="43.45529" lon="1.48872">
        <ele>245.2</ele>
        <time>2022-05-16T09:09:45Z</time>
      </trkpt>
      <trkpt lat="43.45525" lon="1.48872">
        <ele>246.9</ele>
        <time>2022-05-16T09:09:46Z</time>
      </trkpt>
      <trkpt lat="43.45524" lon="1.48872">
        <ele>247</ele>
        <time>2022-05-16T09:09:47Z</time>
      </trkpt>
      <trkpt lat="43.45521" lon="1.48871">
        <ele>247.1</ele>
        <time>2022-05-16T09:09:48Z</time>
      </trkpt>
      <trkpt lat="43.4552" lon="1.4887">
        <ele>247.1</ele>
        <time>2022-05-16T09:09:49Z</time>
      </trkpt>
      <trkpt lat="43.45517" lon="1.48869">
        <ele>247.2</ele>
        <time>2022-05-16T09:09:50Z</time>
      </trkpt>
      <trkpt lat="43.45516" lon="1.48869">
        <ele>248.9</ele>
        <time>2022-05-16T09:09:51Z</time>
      </trkpt>
      <trkpt lat="43.45513" lon="1.48868">
        <ele>249</ele>
        <time>2022-05-16T09:09:52Z</time>
      </trkpt>
      <trkpt lat="43.45512" lon="1.48867">
        <ele>249</ele>
        <time>2022-05-16T09:09:53Z</time>
      </trkpt>
      <trkpt lat="43.4551" lon="1.48864">
        <ele>249.1</ele>
        <time>2022-05-16T09:09:54Z</time>
      </trkpt>
      <trkpt lat="43.4551" lon="1.48863">
        <ele>249.1</ele>
        <time>2022-05-16T09:09:55Z</time>
      </trkpt>
      <trkpt lat="43.45511" lon="1.48857">
        <ele>249.1</ele>
        <time>2022-05-16T09:09:56Z</time>
      </trkpt>
      <trkpt lat="43.45512" lon="1.48854">
        <ele>249.1</ele>
        <time>2022-05-16T09:09:57Z</time>
      </trkpt>
      <trkpt lat="43.45512" lon="1.48851">
        <ele>249</ele>
        <time>2022-05-16T09:09:58Z</time>
      </trkpt>
      <trkpt lat="43.45513" lon="1.48847">
        <ele>248.9</ele>
        <time>2022-05-16T09:09:59Z</time>
      </trkpt>
      <trkpt lat="43.45514" lon="1.48843">
        <ele>248.9</ele>
        <time>2022-05-16T09:10:00Z</time>
      </trkpt>
      <trkpt lat="43.45515" lon="1.48838">
        <ele>248.8</ele>
        <time>2022-05-16T09:10:01Z</time>
      </trkpt>
      <trkpt lat="43.45516" lon="1.48836">
        <ele>248.7</ele>
        <time>2022-05-16T09:10:02Z</time>
      </trkpt>
      <trkpt lat="43.45517" lon="1.48833">
        <ele>248.7</ele>
        <time>2022-05-16T09:10:03Z</time>
      </trkpt>
      <trkpt lat="43.45518" lon="1.48827">
        <ele>248.5</ele>
        <time>2022-05-16T09:10:04Z</time>
      </trkpt>
      <trkpt lat="43.45518" lon="1.48825">
        <ele>248.5</ele>
        <time>2022-05-16T09:10:05Z</time>
      </trkpt>
      <trkpt lat="43.45519" lon="1.48821">
        <ele>248.4</ele>
        <time>2022-05-16T09:10:06Z</time>
      </trkpt>
      <trkpt lat="43.45519" lon="1.48816">
        <ele>248.4</ele>
        <time>2022-05-16T09:10:07Z</time>
      </trkpt>
      <trkpt lat="43.45519" lon="1.48814">
        <ele>248.4</ele>
        <time>2022-05-16T09:10:08Z</time>
      </trkpt>
      <trkpt lat="43.45517" lon="1.48811">
        <ele>249.5</ele>
        <time>2022-05-16T09:10:09Z</time>
      </trkpt>
      <trkpt lat="43.45514" lon="1.48807">
        <ele>250</ele>
        <time>2022-05-16T09:10:10Z</time>
      </trkpt>
      <trkpt lat="43.45513" lon="1.48807">
        <ele>250.1</ele>
        <time>2022-05-16T09:10:11Z</time>
      </trkpt>
      <trkpt lat="43.45509" lon="1.48804">
        <ele>250.6</ele>
        <time>2022-05-16T09:10:12Z</time>
      </trkpt>
      <trkpt lat="43.45508" lon="1.48803">
        <ele>250.8</ele>
        <time>2022-05-16T09:10:13Z</time>
      </trkpt>
      <trkpt lat="43.45508" lon="1.48798">
        <ele>251.2</ele>
        <time>2022-05-16T09:10:14Z</time>
      </trkpt>
      <trkpt lat="43.45508" lon="1.48796">
        <ele>251.4</ele>
        <time>2022-05-16T09:10:15Z</time>
      </trkpt>
      <trkpt lat="43.45507" lon="1.48791">
        <ele>251.9</ele>
        <time>2022-05-16T09:10:16Z</time>
      </trkpt>
      <trkpt lat="43.45505" lon="1.48787">
        <ele>252.4</ele>
        <time>2022-05-16T09:10:17Z</time>
      </trkpt>
      <trkpt lat="43.45505" lon="1.48786">
        <ele>252.5</ele>
        <time>2022-05-16T09:10:18Z</time>
      </trkpt>
      <trkpt lat="43.45502" lon="1.48784">
        <ele>252.9</ele>
        <time>2022-05-16T09:10:19Z</time>
      </trkpt>
      <trkpt lat="43.45499" lon="1.48782">
        <ele>253.4</ele>
        <time>2022-05-16T09:10:20Z</time>
      </trkpt>
      <trkpt lat="43.45497" lon="1.4878">
        <ele>253.9</ele>
        <time>2022-05-16T09:10:21Z</time>
      </trkpt>
      <trkpt lat="43.45494" lon="1.48778">
        <ele>254.3</ele>
        <time>2022-05-16T09:10:22Z</time>
      </trkpt>
      <trkpt lat="43.45491" lon="1.48775">
        <ele>254.9</ele>
        <time>2022-05-16T09:10:23Z</time>
      </trkpt>
      <trkpt lat="43.4549" lon="1.48774">
        <ele>255.1</ele>
        <time>2022-05-16T09:10:24Z</time>
      </trkpt>
      <trkpt lat="43.45487" lon="1.48772">
        <ele>255.6</ele>
        <time>2022-05-16T09:10:25Z</time>
      </trkpt>
      <trkpt lat="43.45485" lon="1.4877">
        <ele>256.1</ele>
        <time>2022-05-16T09:10:26Z</time>
      </trkpt>
      <trkpt lat="43.45482" lon="1.48769">
        <ele>256.6</ele>
        <time>2022-05-16T09:10:27Z</time>
      </trkpt>
      <trkpt lat="43.45479" lon="1.48766">
        <ele>257.2</ele>
        <time>2022-05-16T09:10:28Z</time>
      </trkpt>
      <trkpt lat="43.45479" lon="1.48765">
        <ele>257.4</ele>
        <time>2022-05-16T09:10:29Z</time>
      </trkpt>
      <trkpt lat="43.45476" lon="1.48762">
        <ele>258.1</ele>
        <time>2022-05-16T09:10:30Z</time>
      </trkpt>
      <trkpt lat="43.45474" lon="1.48761">
        <ele>258.4</ele>
        <time>2022-05-16T09:10:31Z</time>
      </trkpt>
      <trkpt lat="43.45472" lon="1.48759">
        <ele>259</ele>
        <time>2022-05-16T09:10:32Z</time>
      </trkpt>
      <trkpt lat="43.45469" lon="1.48756">
        <ele>259.6</ele>
        <time>2022-05-16T09:10:33Z</time>
      </trkpt>
      <trkpt lat="43.45468" lon="1.48756">
        <ele>259.9</ele>
        <time>2022-05-16T09:10:34Z</time>
      </trkpt>
      <trkpt lat="43.45465" lon="1.48753">
        <ele>260.7</ele>
        <time>2022-05-16T09:10:35Z</time>
      </trkpt>
      <trkpt lat="43.45464" lon="1.48752">
        <ele>261</ele>
        <time>2022-05-16T09:10:36Z</time>
      </trkpt>
      <trkpt lat="43.4546" lon="1.48751">
        <ele>261.8</ele>
        <time>2022-05-16T09:10:37Z</time>
      </trkpt>
      <trkpt lat="43.45459" lon="1.4875">
        <ele>262.1</ele>
        <time>2022-05-16T09:10:38Z</time>
      </trkpt>
      <trkpt lat="43.45456" lon="1.48748">
        <ele>262.7</ele>
        <time>2022-05-16T09:10:39Z</time>
      </trkpt>
      <trkpt lat="43.45455" lon="1.48747">
        <ele>263</ele>
        <time>2022-05-16T09:10:40Z</time>
      </trkpt>
      <trkpt lat="43.45453" lon="1.48745">
        <ele>263.5</ele>
        <time>2022-05-16T09:10:41Z</time>
      </trkpt>
      <trkpt lat="43.4545" lon="1.48743">
        <ele>264.2</ele>
        <time>2022-05-16T09:10:42Z</time>
      </trkpt>
      <trkpt lat="43.45449" lon="1.48742">
        <ele>264.5</ele>
        <time>2022-05-16T09:10:43Z</time>
      </trkpt>
      <trkpt lat="43.45446" lon="1.48739">
        <ele>265.2</ele>
        <time>2022-05-16T09:10:44Z</time>
      </trkpt>
      <trkpt lat="43.45445" lon="1.48739">
        <ele>265.4</ele>
        <time>2022-05-16T09:10:45Z</time>
      </trkpt>
      <trkpt lat="43.45442" lon="1.48736">
        <ele>266.1</ele>
        <time>2022-05-16T09:10:46Z</time>
      </trkpt>
      <trkpt lat="43.45441" lon="1.48735">
        <ele>266.3</ele>
        <time>2022-05-16T09:10:47Z</time>
      </trkpt>
      <trkpt lat="43.45438" lon="1.48732">
        <ele>267</ele>
        <time>2022-05-16T09:10:48Z</time>
      </trkpt>
      <trkpt lat="43.45437" lon="1.48731">
        <ele>267.2</ele>
        <time>2022-05-16T09:10:49Z</time>
      </trkpt>
      <trkpt lat="43.45434" lon="1.48728">
        <ele>267.9</ele>
        <time>2022-05-16T09:10:50Z</time>
      </trkpt>
      <trkpt lat="43.45433" lon="1.48727">
        <ele>268.1</ele>
        <time>2022-05-16T09:10:51Z</time>
      </trkpt>
      <trkpt lat="43.45431" lon="1.48724">
        <ele>268.8</ele>
        <time>2022-05-16T09:10:52Z</time>
      </trkpt>
      <trkpt lat="43.4543" lon="1.48723">
        <ele>269</ele>
        <time>2022-05-16T09:10:53Z</time>
      </trkpt>
      <trkpt lat="43.45428" lon="1.48721">
        <ele>269.5</ele>
        <time>2022-05-16T09:10:54Z</time>
      </trkpt>
      <trkpt lat="43.45425" lon="1.48719">
        <ele>270</ele>
        <time>2022-05-16T09:10:55Z</time>
      </trkpt>
      <trkpt lat="43.45422" lon="1.48716">
        <ele>270.8</ele>
        <time>2022-05-16T09:10:57Z</time>
      </trkpt>
      <trkpt lat="43.4542" lon="1.48715">
        <ele>271.1</ele>
        <time>2022-05-16T09:10:58Z</time>
      </trkpt>
      <trkpt lat="43.45419" lon="1.48714">
        <ele>271.3</ele>
        <time>2022-05-16T09:10:59Z</time>
      </trkpt>
      <trkpt lat="43.45416" lon="1.48711">
        <ele>271.8</ele>
        <time>2022-05-16T09:11:00Z</time>
      </trkpt>
      <trkpt lat="43.45415" lon="1.4871">
        <ele>272</ele>
        <time>2022-05-16T09:11:01Z</time>
      </trkpt>
      <trkpt lat="43.45413" lon="1.48708">
        <ele>272.4</ele>
        <time>2022-05-16T09:11:02Z</time>
      </trkpt>
      <trkpt lat="43.4541" lon="1.48706">
        <ele>272.8</ele>
        <time>2022-05-16T09:11:03Z</time>
      </trkpt>
      <trkpt lat="43.45409" lon="1.48705">
        <ele>273</ele>
        <time>2022-05-16T09:11:04Z</time>
      </trkpt>
      <trkpt lat="43.45406" lon="1.48702">
        <ele>273.3</ele>
        <time>2022-05-16T09:11:05Z</time>
      </trkpt>
      <trkpt lat="43.45404" lon="1.48699">
        <ele>273.6</ele>
        <time>2022-05-16T09:11:06Z</time>
      </trkpt>
      <trkpt lat="43.45401" lon="1.48697">
        <ele>273.9</ele>
        <time>2022-05-16T09:11:07Z</time>
      </trkpt>
      <trkpt lat="43.45399" lon="1.48695">
        <ele>274.1</ele>
        <time>2022-05-16T09:11:08Z</time>
      </trkpt>
      <trkpt lat="43.45396" lon="1.48692">
        <ele>274.4</ele>
        <time>2022-05-16T09:11:09Z</time>
      </trkpt>
      <trkpt lat="43.45394" lon="1.48689">
        <ele>274.6</ele>
        <time>2022-05-16T09:11:10Z</time>
      </trkpt>
      <trkpt lat="43.45392" lon="1.48687">
        <ele>274.9</ele>
        <time>2022-05-16T09:11:11Z</time>
      </trkpt>
      <trkpt lat="43.45389" lon="1.48684">
        <ele>275.1</ele>
        <time>2022-05-16T09:11:12Z</time>
      </trkpt>
      <trkpt lat="43.45386" lon="1.48681">
        <ele>275.4</ele>
        <time>2022-05-16T09:11:13Z</time>
      </trkpt>
      <trkpt lat="43.45385" lon="1.4868">
        <ele>275.5</ele>
        <time>2022-05-16T09:11:14Z</time>
      </trkpt>
      <trkpt lat="43.45382" lon="1.48678">
        <ele>275.7</ele>
        <time>2022-05-16T09:11:15Z</time>
      </trkpt>
      <trkpt lat="43.45377" lon="1.48673">
        <ele>276.2</ele>
        <time>2022-05-16T09:11:16Z</time>
      </trkpt>
      <trkpt lat="43.45374" lon="1.4867">
        <ele>276.3</ele>
        <time>2022-05-16T09:11:17Z</time>
      </trkpt>
      <trkpt lat="43.45372" lon="1.48668">
        <ele>276.5</ele>
        <time>2022-05-16T09:11:18Z</time>
      </trkpt>
      <trkpt lat="43.45369" lon="1.48665">
        <ele>276.7</ele>
        <time>2022-05-16T09:11:19Z</time>
      </trkpt>
      <trkpt lat="43.45366" lon="1.48663">
        <ele>276.9</ele>
        <time>2022-05-16T09:11:20Z</time>
      </trkpt>
      <trkpt lat="43.45363" lon="1.4866">
        <ele>277</ele>
        <time>2022-05-16T09:11:21Z</time>
      </trkpt>
      <trkpt lat="43.4536" lon="1.48658">
        <ele>277.2</ele>
        <time>2022-05-16T09:11:22Z</time>
      </trkpt>
      <trkpt lat="43.45357" lon="1.48656">
        <ele>277.3</ele>
        <time>2022-05-16T09:11:23Z</time>
      </trkpt>
      <trkpt lat="43.45353" lon="1.48653">
        <ele>277.5</ele>
        <time>2022-05-16T09:11:24Z</time>
      </trkpt>
      <trkpt lat="43.4535" lon="1.4865">
        <ele>277.6</ele>
        <time>2022-05-16T09:11:25Z</time>
      </trkpt>
      <trkpt lat="43.45347" lon="1.48647">
        <ele>277.8</ele>
        <time>2022-05-16T09:11:26Z</time>
      </trkpt>
      <trkpt lat="43.45344" lon="1.48645">
        <ele>278</ele>
        <time>2022-05-16T09:11:27Z</time>
      </trkpt>
      <trkpt lat="43.4534" lon="1.48643">
        <ele>278.2</ele>
        <time>2022-05-16T09:11:28Z</time>
      </trkpt>
      <trkpt lat="43.45337" lon="1.48641">
        <ele>278.4</ele>
        <time>2022-05-16T09:11:29Z</time>
      </trkpt>
      <trkpt lat="43.45334" lon="1.48638">
        <ele>278.6</ele>
        <time>2022-05-16T09:11:30Z</time>
      </trkpt>
      <trkpt lat="43.4533" lon="1.48636">
        <ele>278.8</ele>
        <time>2022-05-16T09:11:31Z</time>
      </trkpt>
      <trkpt lat="43.45327" lon="1.48634">
        <ele>278.9</ele>
        <time>2022-05-16T09:11:32Z</time>
      </trkpt>
      <trkpt lat="43.45324" lon="1.48631">
        <ele>279.1</ele>
        <time>2022-05-16T09:11:33Z</time>
      </trkpt>
      <trkpt lat="43.45321" lon="1.48629">
        <ele>279.2</ele>
        <time>2022-05-16T09:11:34Z</time>
      </trkpt>
      <trkpt lat="43.45318" lon="1.48626">
        <ele>279.2</ele>
        <time>2022-05-16T09:11:35Z</time>
      </trkpt>
      <trkpt lat="43.45315" lon="1.48624">
        <ele>279.3</ele>
        <time>2022-05-16T09:11:36Z</time>
      </trkpt>
      <trkpt lat="43.45312" lon="1.48621">
        <ele>279.2</ele>
        <time>2022-05-16T09:11:37Z</time>
      </trkpt>
      <trkpt lat="43.45308" lon="1.48619">
        <ele>279.2</ele>
        <time>2022-05-16T09:11:38Z</time>
      </trkpt>
      <trkpt lat="43.45305" lon="1.48615">
        <ele>279</ele>
        <time>2022-05-16T09:11:39Z</time>
      </trkpt>
      <trkpt lat="43.453" lon="1.48612">
        <ele>278.7</ele>
        <time>2022-05-16T09:11:40Z</time>
      </trkpt>
      <trkpt lat="43.45296" lon="1.48608">
        <ele>278.4</ele>
        <time>2022-05-16T09:11:41Z</time>
      </trkpt>
      <trkpt lat="43.45295" lon="1.48603">
        <ele>278.2</ele>
        <time>2022-05-16T09:11:42Z</time>
      </trkpt>
      <trkpt lat="43.45295" lon="1.48601">
        <ele>278</ele>
        <time>2022-05-16T09:11:43Z</time>
      </trkpt>
      <trkpt lat="43.45296" lon="1.48595">
        <ele>278</ele>
        <time>2022-05-16T09:11:44Z</time>
      </trkpt>
      <trkpt lat="43.45299" lon="1.48591">
        <ele>278</ele>
        <time>2022-05-16T09:11:45Z</time>
      </trkpt>
      <trkpt lat="43.45302" lon="1.48586">
        <ele>277.9</ele>
        <time>2022-05-16T09:11:46Z</time>
      </trkpt>
      <trkpt lat="43.45304" lon="1.48581">
        <ele>277.9</ele>
        <time>2022-05-16T09:11:47Z</time>
      </trkpt>
      <trkpt lat="43.45306" lon="1.48575">
        <ele>277.9</ele>
        <time>2022-05-16T09:11:48Z</time>
      </trkpt>
      <trkpt lat="43.45307" lon="1.4857">
        <ele>277.9</ele>
        <time>2022-05-16T09:11:49Z</time>
      </trkpt>
      <trkpt lat="43.45308" lon="1.48564">
        <ele>277.8</ele>
        <time>2022-05-16T09:11:50Z</time>
      </trkpt>
      <trkpt lat="43.4531" lon="1.48559">
        <ele>277.8</ele>
        <time>2022-05-16T09:11:51Z</time>
      </trkpt>
      <trkpt lat="43.45311" lon="1.48555">
        <ele>277.7</ele>
        <time>2022-05-16T09:11:52Z</time>
      </trkpt>
      <trkpt lat="43.45313" lon="1.4855">
        <ele>277.6</ele>
        <time>2022-05-16T09:11:53Z</time>
      </trkpt>
      <trkpt lat="43.45315" lon="1.48545">
        <ele>277.6</ele>
        <time>2022-05-16T09:11:54Z</time>
      </trkpt>
      <trkpt lat="43.45318" lon="1.48542">
        <ele>277.5</ele>
        <time>2022-05-16T09:11:55Z</time>
      </trkpt>
      <trkpt lat="43.45319" lon="1.48536">
        <ele>277.3</ele>
        <time>2022-05-16T09:11:56Z</time>
      </trkpt>
      <trkpt lat="43.45321" lon="1.48532">
        <ele>277.2</ele>
        <time>2022-05-16T09:11:57Z</time>
      </trkpt>
      <trkpt lat="43.45323" lon="1.48527">
        <ele>277.1</ele>
        <time>2022-05-16T09:11:58Z</time>
      </trkpt>
      <trkpt lat="43.45326" lon="1.48522">
        <ele>277</ele>
        <time>2022-05-16T09:11:59Z</time>
      </trkpt>
      <trkpt lat="43.45329" lon="1.48517">
        <ele>276.8</ele>
        <time>2022-05-16T09:12:00Z</time>
      </trkpt>
      <trkpt lat="43.45332" lon="1.48512">
        <ele>276.7</ele>
        <time>2022-05-16T09:12:01Z</time>
      </trkpt>
      <trkpt lat="43.45336" lon="1.48508">
        <ele>276.5</ele>
        <time>2022-05-16T09:12:02Z</time>
      </trkpt>
      <trkpt lat="43.45339" lon="1.48504">
        <ele>276.4</ele>
        <time>2022-05-16T09:12:03Z</time>
      </trkpt>
      <trkpt lat="43.45341" lon="1.48501">
        <ele>276.3</ele>
        <time>2022-05-16T09:12:04Z</time>
      </trkpt>
      <trkpt lat="43.45343" lon="1.48496">
        <ele>276.1</ele>
        <time>2022-05-16T09:12:05Z</time>
      </trkpt>
      <trkpt lat="43.4534" lon="1.48491">
        <ele>275.6</ele>
        <time>2022-05-16T09:12:06Z</time>
      </trkpt>
      <trkpt lat="43.45336" lon="1.48487">
        <ele>274.9</ele>
        <time>2022-05-16T09:12:07Z</time>
      </trkpt>
      <trkpt lat="43.4533" lon="1.48484">
        <ele>274.1</ele>
        <time>2022-05-16T09:12:08Z</time>
      </trkpt>
      <trkpt lat="43.45324" lon="1.48482">
        <ele>273.2</ele>
        <time>2022-05-16T09:12:09Z</time>
      </trkpt>
      <trkpt lat="43.45318" lon="1.48479">
        <ele>272.1</ele>
        <time>2022-05-16T09:12:10Z</time>
      </trkpt>
      <trkpt lat="43.45311" lon="1.48475">
        <ele>271</ele>
        <time>2022-05-16T09:12:11Z</time>
      </trkpt>
      <trkpt lat="43.45304" lon="1.48472">
        <ele>269.8</ele>
        <time>2022-05-16T09:12:12Z</time>
      </trkpt>
      <trkpt lat="43.45297" lon="1.48469">
        <ele>268.7</ele>
        <time>2022-05-16T09:12:13Z</time>
      </trkpt>
      <trkpt lat="43.45291" lon="1.48467">
        <ele>267.9</ele>
        <time>2022-05-16T09:12:14Z</time>
      </trkpt>
      <trkpt lat="43.45285" lon="1.48464">
        <ele>267</ele>
        <time>2022-05-16T09:12:15Z</time>
      </trkpt>
      <trkpt lat="43.45278" lon="1.48459">
        <ele>266.1</ele>
        <time>2022-05-16T09:12:16Z</time>
      </trkpt>
      <trkpt lat="43.45269" lon="1.48456">
        <ele>265.2</ele>
        <time>2022-05-16T09:12:17Z</time>
      </trkpt>
      <trkpt lat="43.45261" lon="1.48453">
        <ele>264.3</ele>
        <time>2022-05-16T09:12:18Z</time>
      </trkpt>
      <trkpt lat="43.45252" lon="1.48448">
        <ele>263.5</ele>
        <time>2022-05-16T09:12:19Z</time>
      </trkpt>
      <trkpt lat="43.45243" lon="1.48444">
        <ele>262.9</ele>
        <time>2022-05-16T09:12:20Z</time>
      </trkpt>
      <trkpt lat="43.45234" lon="1.4844">
        <ele>262.4</ele>
        <time>2022-05-16T09:12:21Z</time>
      </trkpt>
      <trkpt lat="43.45224" lon="1.48436">
        <ele>262</ele>
        <time>2022-05-16T09:12:22Z</time>
      </trkpt>
      <trkpt lat="43.45215" lon="1.48432">
        <ele>261.6</ele>
        <time>2022-05-16T09:12:23Z</time>
      </trkpt>
      <trkpt lat="43.45206" lon="1.48427">
        <ele>261.2</ele>
        <time>2022-05-16T09:12:24Z</time>
      </trkpt>
      <trkpt lat="43.45197" lon="1.48424">
        <ele>260.8</ele>
        <time>2022-05-16T09:12:25Z</time>
      </trkpt>
      <trkpt lat="43.45188" lon="1.48419">
        <ele>260.5</ele>
        <time>2022-05-16T09:12:26Z</time>
      </trkpt>
      <trkpt lat="43.45179" lon="1.48416">
        <ele>260.1</ele>
        <time>2022-05-16T09:12:27Z</time>
      </trkpt>
      <trkpt lat="43.45171" lon="1.48412">
        <ele>259.8</ele>
        <time>2022-05-16T09:12:28Z</time>
      </trkpt>
      <trkpt lat="43.45163" lon="1.48406">
        <ele>259.3</ele>
        <time>2022-05-16T09:12:29Z</time>
      </trkpt>
      <trkpt lat="43.45156" lon="1.484">
        <ele>258.9</ele>
        <time>2022-05-16T09:12:30Z</time>
      </trkpt>
      <trkpt lat="43.4515" lon="1.48393">
        <ele>258.4</ele>
        <time>2022-05-16T09:12:31Z</time>
      </trkpt>
      <trkpt lat="43.45143" lon="1.48385">
        <ele>257.9</ele>
        <time>2022-05-16T09:12:32Z</time>
      </trkpt>
      <trkpt lat="43.45136" lon="1.48378">
        <ele>257.4</ele>
        <time>2022-05-16T09:12:33Z</time>
      </trkpt>
      <trkpt lat="43.45129" lon="1.4837">
        <ele>256.9</ele>
        <time>2022-05-16T09:12:34Z</time>
      </trkpt>
      <trkpt lat="43.45122" lon="1.48363">
        <ele>256.4</ele>
        <time>2022-05-16T09:12:35Z</time>
      </trkpt>
      <trkpt lat="43.45115" lon="1.48355">
        <ele>255.9</ele>
        <time>2022-05-16T09:12:36Z</time>
      </trkpt>
      <trkpt lat="43.45108" lon="1.48348">
        <ele>255.3</ele>
        <time>2022-05-16T09:12:37Z</time>
      </trkpt>
      <trkpt lat="43.451" lon="1.4834">
        <ele>254.7</ele>
        <time>2022-05-16T09:12:38Z</time>
      </trkpt>
      <trkpt lat="43.45093" lon="1.48332">
        <ele>254.2</ele>
        <time>2022-05-16T09:12:39Z</time>
      </trkpt>
      <trkpt lat="43.45086" lon="1.48325">
        <ele>253.7</ele>
        <time>2022-05-16T09:12:40Z</time>
      </trkpt>
      <trkpt lat="43.45078" lon="1.48318">
        <ele>253.3</ele>
        <time>2022-05-16T09:12:41Z</time>
      </trkpt>
      <trkpt lat="43.4507" lon="1.48311">
        <ele>252.9</ele>
        <time>2022-05-16T09:12:42Z</time>
      </trkpt>
      <trkpt lat="43.45063" lon="1.48305">
        <ele>252.5</ele>
        <time>2022-05-16T09:12:43Z</time>
      </trkpt>
      <trkpt lat="43.45055" lon="1.48298">
        <ele>252.1</ele>
        <time>2022-05-16T09:12:44Z</time>
      </trkpt>
      <trkpt lat="43.45047" lon="1.48292">
        <ele>251.6</ele>
        <time>2022-05-16T09:12:45Z</time>
      </trkpt>
      <trkpt lat="43.45039" lon="1.48286">
        <ele>251.1</ele>
        <time>2022-05-16T09:12:46Z</time>
      </trkpt>
      <trkpt lat="43.45032" lon="1.48278">
        <ele>250.6</ele>
        <time>2022-05-16T09:12:47Z</time>
      </trkpt>
      <trkpt lat="43.45025" lon="1.4827">
        <ele>250</ele>
        <time>2022-05-16T09:12:48Z</time>
      </trkpt>
      <trkpt lat="43.45019" lon="1.48261">
        <ele>249.3</ele>
        <time>2022-05-16T09:12:49Z</time>
      </trkpt>
      <trkpt lat="43.45012" lon="1.48252">
        <ele>248.5</ele>
        <time>2022-05-16T09:12:50Z</time>
      </trkpt>
      <trkpt lat="43.45004" lon="1.48244">
        <ele>247.5</ele>
        <time>2022-05-16T09:12:51Z</time>
      </trkpt>
      <trkpt lat="43.44997" lon="1.48235">
        <ele>246.4</ele>
        <time>2022-05-16T09:12:52Z</time>
      </trkpt>
      <trkpt lat="43.44989" lon="1.48227">
        <ele>245.2</ele>
        <time>2022-05-16T09:12:53Z</time>
      </trkpt>
      <trkpt lat="43.44982" lon="1.48221">
        <ele>244.1</ele>
        <time>2022-05-16T09:12:54Z</time>
      </trkpt>
      <trkpt lat="43.44979" lon="1.48215">
        <ele>243.7</ele>
        <time>2022-05-16T09:12:55Z</time>
      </trkpt>
      <trkpt lat="43.44977" lon="1.48214">
        <ele>243.5</ele>
        <time>2022-05-16T09:12:56Z</time>
      </trkpt>
      <trkpt lat="43.44976" lon="1.48216">
        <ele>243.4</ele>
        <time>2022-05-16T09:12:57Z</time>
      </trkpt>
      <trkpt lat="43.44976" lon="1.48217">
        <ele>243.2</ele>
        <time>2022-05-16T09:12:58Z</time>
      </trkpt>
      <trkpt lat="43.44975" lon="1.48219">
        <ele>243.1</ele>
        <time>2022-05-16T09:12:59Z</time>
      </trkpt>
      <trkpt lat="43.44974" lon="1.48223">
        <ele>242.9</ele>
        <time>2022-05-16T09:13:00Z</time>
      </trkpt>
      <trkpt lat="43.44974" lon="1.48227">
        <ele>242.6</ele>
        <time>2022-05-16T09:13:01Z</time>
      </trkpt>
      <trkpt lat="43.44975" lon="1.48233">
        <ele>242.3</ele>
        <time>2022-05-16T09:13:02Z</time>
      </trkpt>
      <trkpt lat="43.44977" lon="1.48237">
        <ele>242.1</ele>
        <time>2022-05-16T09:13:03Z</time>
      </trkpt>
      <trkpt lat="43.44977" lon="1.48242">
        <ele>241.9</ele>
        <time>2022-05-16T09:13:04Z</time>
      </trkpt>
      <trkpt lat="43.44977" lon="1.48247">
        <ele>241.7</ele>
        <time>2022-05-16T09:13:05Z</time>
      </trkpt>
      <trkpt lat="43.44976" lon="1.48253">
        <ele>241.5</ele>
        <time>2022-05-16T09:13:06Z</time>
      </trkpt>
      <trkpt lat="43.44974" lon="1.48259">
        <ele>241.3</ele>
        <time>2022-05-16T09:13:07Z</time>
      </trkpt>
      <trkpt lat="43.44974" lon="1.48266">
        <ele>241.1</ele>
        <time>2022-05-16T09:13:08Z</time>
      </trkpt>
      <trkpt lat="43.44972" lon="1.48271">
        <ele>240.9</ele>
        <time>2022-05-16T09:13:09Z</time>
      </trkpt>
      <trkpt lat="43.44971" lon="1.48277">
        <ele>240.8</ele>
        <time>2022-05-16T09:13:10Z</time>
      </trkpt>
      <trkpt lat="43.4497" lon="1.48284">
        <ele>240.6</ele>
        <time>2022-05-16T09:13:11Z</time>
      </trkpt>
      <trkpt lat="43.4497" lon="1.48291">
        <ele>240.5</ele>
        <time>2022-05-16T09:13:12Z</time>
      </trkpt>
      <trkpt lat="43.4497" lon="1.48296">
        <ele>240.4</ele>
        <time>2022-05-16T09:13:13Z</time>
      </trkpt>
      <trkpt lat="43.4497" lon="1.48302">
        <ele>240.3</ele>
        <time>2022-05-16T09:13:14Z</time>
      </trkpt>
      <trkpt lat="43.44969" lon="1.48309">
        <ele>240.2</ele>
        <time>2022-05-16T09:13:15Z</time>
      </trkpt>
      <trkpt lat="43.44967" lon="1.48316">
        <ele>240.1</ele>
        <time>2022-05-16T09:13:16Z</time>
      </trkpt>
      <trkpt lat="43.44966" lon="1.48322">
        <ele>240.1</ele>
        <time>2022-05-16T09:13:17Z</time>
      </trkpt>
      <trkpt lat="43.44965" lon="1.4833">
        <ele>240</ele>
        <time>2022-05-16T09:13:18Z</time>
      </trkpt>
      <trkpt lat="43.44964" lon="1.48336">
        <ele>239.9</ele>
        <time>2022-05-16T09:13:19Z</time>
      </trkpt>
      <trkpt lat="43.44963" lon="1.48343">
        <ele>239.9</ele>
        <time>2022-05-16T09:13:20Z</time>
      </trkpt>
      <trkpt lat="43.44961" lon="1.4835">
        <ele>239.9</ele>
        <time>2022-05-16T09:13:21Z</time>
      </trkpt>
      <trkpt lat="43.44961" lon="1.48357">
        <ele>239.9</ele>
        <time>2022-05-16T09:13:22Z</time>
      </trkpt>
      <trkpt lat="43.4496" lon="1.48362">
        <ele>239.9</ele>
        <time>2022-05-16T09:13:23Z</time>
      </trkpt>
      <trkpt lat="43.44959" lon="1.48368">
        <ele>239.9</ele>
        <time>2022-05-16T09:13:24Z</time>
      </trkpt>
      <trkpt lat="43.44957" lon="1.48375">
        <ele>240</ele>
        <time>2022-05-16T09:13:25Z</time>
      </trkpt>
      <trkpt lat="43.44956" lon="1.48381">
        <ele>240</ele>
        <time>2022-05-16T09:13:26Z</time>
      </trkpt>
      <trkpt lat="43.44955" lon="1.48388">
        <ele>240</ele>
        <time>2022-05-16T09:13:27Z</time>
      </trkpt>
      <trkpt lat="43.44954" lon="1.48394">
        <ele>240</ele>
        <time>2022-05-16T09:13:28Z</time>
      </trkpt>
      <trkpt lat="43.44954" lon="1.484">
        <ele>240</ele>
        <time>2022-05-16T09:13:29Z</time>
      </trkpt>
      <trkpt lat="43.44953" lon="1.48408">
        <ele>240</ele>
        <time>2022-05-16T09:13:30Z</time>
      </trkpt>
      <trkpt lat="43.44951" lon="1.48413">
        <ele>239.9</ele>
        <time>2022-05-16T09:13:31Z</time>
      </trkpt>
      <trkpt lat="43.44951" lon="1.48419">
        <ele>239.9</ele>
        <time>2022-05-16T09:13:32Z</time>
      </trkpt>
      <trkpt lat="43.4495" lon="1.48426">
        <ele>239.9</ele>
        <time>2022-05-16T09:13:33Z</time>
      </trkpt>
      <trkpt lat="43.4495" lon="1.48432">
        <ele>239.9</ele>
        <time>2022-05-16T09:13:34Z</time>
      </trkpt>
      <trkpt lat="43.44949" lon="1.48439">
        <ele>240</ele>
        <time>2022-05-16T09:13:35Z</time>
      </trkpt>
      <trkpt lat="43.44948" lon="1.48445">
        <ele>240</ele>
        <time>2022-05-16T09:13:36Z</time>
      </trkpt>
      <trkpt lat="43.44948" lon="1.48453">
        <ele>240</ele>
        <time>2022-05-16T09:13:37Z</time>
      </trkpt>
      <trkpt lat="43.44947" lon="1.48458">
        <ele>240</ele>
        <time>2022-05-16T09:13:38Z</time>
      </trkpt>
      <trkpt lat="43.44946" lon="1.48465">
        <ele>240.1</ele>
        <time>2022-05-16T09:13:39Z</time>
      </trkpt>
      <trkpt lat="43.44945" lon="1.48472">
        <ele>240.1</ele>
        <time>2022-05-16T09:13:40Z</time>
      </trkpt>
      <trkpt lat="43.44945" lon="1.48479">
        <ele>240.2</ele>
        <time>2022-05-16T09:13:41Z</time>
      </trkpt>
      <trkpt lat="43.44944" lon="1.48485">
        <ele>240.2</ele>
        <time>2022-05-16T09:13:42Z</time>
      </trkpt>
      <trkpt lat="43.44943" lon="1.48492">
        <ele>240.2</ele>
        <time>2022-05-16T09:13:43Z</time>
      </trkpt>
      <trkpt lat="43.44942" lon="1.48497">
        <ele>240.1</ele>
        <time>2022-05-16T09:13:44Z</time>
      </trkpt>
      <trkpt lat="43.44942" lon="1.48504">
        <ele>240</ele>
        <time>2022-05-16T09:13:45Z</time>
      </trkpt>
      <trkpt lat="43.44941" lon="1.4851">
        <ele>239.7</ele>
        <time>2022-05-16T09:13:46Z</time>
      </trkpt>
      <trkpt lat="43.44936" lon="1.48511">
        <ele>239.4</ele>
        <time>2022-05-16T09:13:47Z</time>
      </trkpt>
      <trkpt lat="43.44931" lon="1.4851">
        <ele>238.9</ele>
        <time>2022-05-16T09:13:48Z</time>
      </trkpt>
      <trkpt lat="43.44925" lon="1.48508">
        <ele>238.3</ele>
        <time>2022-05-16T09:13:49Z</time>
      </trkpt>
      <trkpt lat="43.44919" lon="1.48508">
        <ele>237.4</ele>
        <time>2022-05-16T09:13:50Z</time>
      </trkpt>
      <trkpt lat="43.44913" lon="1.48508">
        <ele>236.2</ele>
        <time>2022-05-16T09:13:51Z</time>
      </trkpt>
      <trkpt lat="43.44907" lon="1.48508">
        <ele>235.2</ele>
        <time>2022-05-16T09:13:52Z</time>
      </trkpt>
      <trkpt lat="43.44901" lon="1.48506">
        <ele>233.9</ele>
        <time>2022-05-16T09:13:53Z</time>
      </trkpt>
      <trkpt lat="43.44895" lon="1.48506">
        <ele>233</ele>
        <time>2022-05-16T09:13:54Z</time>
      </trkpt>
      <trkpt lat="43.44892" lon="1.48505">
        <ele>232.5</ele>
        <time>2022-05-16T09:13:55Z</time>
      </trkpt>
      <trkpt lat="43.44891" lon="1.48506">
        <ele>232.4</ele>
        <time>2022-05-16T09:13:56Z</time>
      </trkpt>
      <trkpt lat="43.44889" lon="1.48503">
        <ele>232</ele>
        <time>2022-05-16T09:13:57Z</time>
      </trkpt>
      <trkpt lat="43.44889" lon="1.48502">
        <ele>231.9</ele>
        <time>2022-05-16T09:13:58Z</time>
      </trkpt>
      <trkpt lat="43.44888" lon="1.485">
        <ele>231.8</ele>
        <time>2022-05-16T09:13:59Z</time>
      </trkpt>
      <trkpt lat="43.44887" lon="1.48499">
        <ele>231.6</ele>
        <time>2022-05-16T09:14:00Z</time>
      </trkpt>
      <trkpt lat="43.44884" lon="1.48496">
        <ele>231.3</ele>
        <time>2022-05-16T09:14:01Z</time>
      </trkpt>
      <trkpt lat="43.44883" lon="1.48495">
        <ele>231.1</ele>
        <time>2022-05-16T09:14:03Z</time>
      </trkpt>
      <trkpt lat="43.44882" lon="1.48494">
        <ele>231.1</ele>
        <time>2022-05-16T09:14:04Z</time>
      </trkpt>
      <trkpt lat="43.44883" lon="1.48493">
        <ele>231</ele>
        <time>2022-05-16T09:14:06Z</time>
      </trkpt>
      <trkpt lat="43.44884" lon="1.48493">
        <ele>230.9</ele>
        <time>2022-05-16T09:14:07Z</time>
      </trkpt>
      <trkpt lat="43.44884" lon="1.48494">
        <ele>230.8</ele>
        <time>2022-05-16T09:14:08Z</time>
      </trkpt>
      <trkpt lat="43.44883" lon="1.48495">
        <ele>230.7</ele>
        <time>2022-05-16T09:14:09Z</time>
      </trkpt>
      <trkpt lat="43.44882" lon="1.48495">
        <ele>230.7</ele>
        <time>2022-05-16T09:14:10Z</time>
      </trkpt>
      <trkpt lat="43.44881" lon="1.48496">
        <ele>230.6</ele>
        <time>2022-05-16T09:14:11Z</time>
      </trkpt>
      <trkpt lat="43.4488" lon="1.48497">
        <ele>230.5</ele>
        <time>2022-05-16T09:14:12Z</time>
      </trkpt>
      <trkpt lat="43.44879" lon="1.48497">
        <ele>230.5</ele>
        <time>2022-05-16T09:14:13Z</time>
      </trkpt>
      <trkpt lat="43.44879" lon="1.48498">
        <ele>230.4</ele>
        <time>2022-05-16T09:14:14Z</time>
      </trkpt>
      <trkpt lat="43.44878" lon="1.48498">
        <ele>230.3</ele>
        <time>2022-05-16T09:14:16Z</time>
      </trkpt>
      <trkpt lat="43.44875" lon="1.48497">
        <ele>230.2</ele>
        <time>2022-05-16T09:14:17Z</time>
      </trkpt>
      <trkpt lat="43.44874" lon="1.48493">
        <ele>230</ele>
        <time>2022-05-16T09:14:18Z</time>
      </trkpt>
      <trkpt lat="43.44871" lon="1.48487">
        <ele>229.8</ele>
        <time>2022-05-16T09:14:19Z</time>
      </trkpt>
      <trkpt lat="43.4487" lon="1.48484">
        <ele>229.7</ele>
        <time>2022-05-16T09:14:20Z</time>
      </trkpt>
      <trkpt lat="43.44867" lon="1.48478">
        <ele>229.5</ele>
        <time>2022-05-16T09:14:21Z</time>
      </trkpt>
      <trkpt lat="43.44868" lon="1.48471">
        <ele>229.4</ele>
        <time>2022-05-16T09:14:22Z</time>
      </trkpt>
      <trkpt lat="43.44869" lon="1.48469">
        <ele>229.4</ele>
        <time>2022-05-16T09:14:23Z</time>
      </trkpt>
      <trkpt lat="43.44869" lon="1.48466">
        <ele>229.3</ele>
        <time>2022-05-16T09:14:24Z</time>
      </trkpt>
      <trkpt lat="43.44866" lon="1.48462">
        <ele>229.3</ele>
        <time>2022-05-16T09:14:25Z</time>
      </trkpt>
      <trkpt lat="43.44865" lon="1.48452">
        <ele>229.3</ele>
        <time>2022-05-16T09:14:26Z</time>
      </trkpt>
      <trkpt lat="43.44866" lon="1.48445">
        <ele>229.3</ele>
        <time>2022-05-16T09:14:27Z</time>
      </trkpt>
      <trkpt lat="43.44865" lon="1.4844">
        <ele>229.3</ele>
        <time>2022-05-16T09:14:28Z</time>
      </trkpt>
      <trkpt lat="43.44863" lon="1.48433">
        <ele>229.5</ele>
        <time>2022-05-16T09:14:29Z</time>
      </trkpt>
      <trkpt lat="43.44864" lon="1.48426">
        <ele>229.6</ele>
        <time>2022-05-16T09:14:30Z</time>
      </trkpt>
      <trkpt lat="43.44863" lon="1.4842">
        <ele>229.8</ele>
        <time>2022-05-16T09:14:31Z</time>
      </trkpt>
      <trkpt lat="43.44863" lon="1.48415">
        <ele>230</ele>
        <time>2022-05-16T09:14:32Z</time>
      </trkpt>
      <trkpt lat="43.44861" lon="1.48412">
        <ele>230.1</ele>
        <time>2022-05-16T09:14:33Z</time>
      </trkpt>
      <trkpt lat="43.4486" lon="1.48406">
        <ele>230.4</ele>
        <time>2022-05-16T09:14:34Z</time>
      </trkpt>
      <trkpt lat="43.44859" lon="1.48398">
        <ele>230.8</ele>
        <time>2022-05-16T09:14:35Z</time>
      </trkpt>
      <trkpt lat="43.44858" lon="1.48393">
        <ele>231.1</ele>
        <time>2022-05-16T09:14:36Z</time>
      </trkpt>
      <trkpt lat="43.44857" lon="1.48388">
        <ele>231.4</ele>
        <time>2022-05-16T09:14:37Z</time>
      </trkpt>
      <trkpt lat="43.44855" lon="1.48383">
        <ele>231.7</ele>
        <time>2022-05-16T09:14:38Z</time>
      </trkpt>
      <trkpt lat="43.44853" lon="1.48378">
        <ele>232.1</ele>
        <time>2022-05-16T09:14:39Z</time>
      </trkpt>
      <trkpt lat="43.44849" lon="1.48375">
        <ele>232.5</ele>
        <time>2022-05-16T09:14:40Z</time>
      </trkpt>
      <trkpt lat="43.44845" lon="1.48372">
        <ele>232.9</ele>
        <time>2022-05-16T09:14:41Z</time>
      </trkpt>
      <trkpt lat="43.4484" lon="1.4837">
        <ele>233.5</ele>
        <time>2022-05-16T09:14:42Z</time>
      </trkpt>
      <trkpt lat="43.44838" lon="1.48367">
        <ele>233.8</ele>
        <time>2022-05-16T09:14:43Z</time>
      </trkpt>
      <trkpt lat="43.44835" lon="1.48364">
        <ele>234.2</ele>
        <time>2022-05-16T09:14:44Z</time>
      </trkpt>
      <trkpt lat="43.44833" lon="1.48363">
        <ele>234.4</ele>
        <time>2022-05-16T09:14:45Z</time>
      </trkpt>
      <trkpt lat="43.44828" lon="1.48364">
        <ele>235</ele>
        <time>2022-05-16T09:14:46Z</time>
      </trkpt>
      <trkpt lat="43.44824" lon="1.48364">
        <ele>235.4</ele>
        <time>2022-05-16T09:14:47Z</time>
      </trkpt>
      <trkpt lat="43.44823" lon="1.4836">
        <ele>235.7</ele>
        <time>2022-05-16T09:14:48Z</time>
      </trkpt>
      <trkpt lat="43.44824" lon="1.48355">
        <ele>236.1</ele>
        <time>2022-05-16T09:14:49Z</time>
      </trkpt>
      <trkpt lat="43.44824" lon="1.48354">
        <ele>236.2</ele>
        <time>2022-05-16T09:14:50Z</time>
      </trkpt>
      <trkpt lat="43.44822" lon="1.48349">
        <ele>236.5</ele>
        <time>2022-05-16T09:14:51Z</time>
      </trkpt>
      <trkpt lat="43.4482" lon="1.48347">
        <ele>236.6</ele>
        <time>2022-05-16T09:14:52Z</time>
      </trkpt>
      <trkpt lat="43.44817" lon="1.48345">
        <ele>237.1</ele>
        <time>2022-05-16T09:14:53Z</time>
      </trkpt>
      <trkpt lat="43.44814" lon="1.48342">
        <ele>237.2</ele>
        <time>2022-05-16T09:14:54Z</time>
      </trkpt>
      <trkpt lat="43.44813" lon="1.48336">
        <ele>237.2</ele>
        <time>2022-05-16T09:14:55Z</time>
      </trkpt>
      <trkpt lat="43.44815" lon="1.48331">
        <ele>236.7</ele>
        <time>2022-05-16T09:14:56Z</time>
      </trkpt>
      <trkpt lat="43.44816" lon="1.48325">
        <ele>236.8</ele>
        <time>2022-05-16T09:14:57Z</time>
      </trkpt>
      <trkpt lat="43.44816" lon="1.4832">
        <ele>236.9</ele>
        <time>2022-05-16T09:14:58Z</time>
      </trkpt>
      <trkpt lat="43.44818" lon="1.48314">
        <ele>236.3</ele>
        <time>2022-05-16T09:14:59Z</time>
      </trkpt>
      <trkpt lat="43.44821" lon="1.48309">
        <ele>236.1</ele>
        <time>2022-05-16T09:15:00Z</time>
      </trkpt>
      <trkpt lat="43.44822" lon="1.48303">
        <ele>236.2</ele>
        <time>2022-05-16T09:15:01Z</time>
      </trkpt>
      <trkpt lat="43.44822" lon="1.48296">
        <ele>235.7</ele>
        <time>2022-05-16T09:15:02Z</time>
      </trkpt>
      <trkpt lat="43.44824" lon="1.48291">
        <ele>235.8</ele>
        <time>2022-05-16T09:15:03Z</time>
      </trkpt>
      <trkpt lat="43.44825" lon="1.48285">
        <ele>235.9</ele>
        <time>2022-05-16T09:15:04Z</time>
      </trkpt>
      <trkpt lat="43.44826" lon="1.4828">
        <ele>235.3</ele>
        <time>2022-05-16T09:15:05Z</time>
      </trkpt>
      <trkpt lat="43.44826" lon="1.48273">
        <ele>235.4</ele>
        <time>2022-05-16T09:15:06Z</time>
      </trkpt>
      <trkpt lat="43.44825" lon="1.48269">
        <ele>235.5</ele>
        <time>2022-05-16T09:15:07Z</time>
      </trkpt>
      <trkpt lat="43.44823" lon="1.48262">
        <ele>235</ele>
        <time>2022-05-16T09:15:08Z</time>
      </trkpt>
      <trkpt lat="43.44825" lon="1.48257">
        <ele>235.1</ele>
        <time>2022-05-16T09:15:09Z</time>
      </trkpt>
      <trkpt lat="43.44828" lon="1.48253">
        <ele>235.2</ele>
        <time>2022-05-16T09:15:10Z</time>
      </trkpt>
      <trkpt lat="43.44831" lon="1.48244">
        <ele>234.7</ele>
        <time>2022-05-16T09:15:11Z</time>
      </trkpt>
      <trkpt lat="43.44831" lon="1.48239">
        <ele>234.8</ele>
        <time>2022-05-16T09:15:12Z</time>
      </trkpt>
      <trkpt lat="43.44831" lon="1.48233">
        <ele>234.6</ele>
        <time>2022-05-16T09:15:13Z</time>
      </trkpt>
      <trkpt lat="43.44831" lon="1.48226">
        <ele>234.2</ele>
        <time>2022-05-16T09:15:14Z</time>
      </trkpt>
      <trkpt lat="43.44829" lon="1.48221">
        <ele>234.5</ele>
        <time>2022-05-16T09:15:15Z</time>
      </trkpt>
      <trkpt lat="43.44829" lon="1.48213">
        <ele>234.6</ele>
        <time>2022-05-16T09:15:16Z</time>
      </trkpt>
      <trkpt lat="43.4483" lon="1.48209">
        <ele>234.1</ele>
        <time>2022-05-16T09:15:17Z</time>
      </trkpt>
      <trkpt lat="43.44829" lon="1.48202">
        <ele>234.2</ele>
        <time>2022-05-16T09:15:18Z</time>
      </trkpt>
      <trkpt lat="43.44832" lon="1.48197">
        <ele>234.3</ele>
        <time>2022-05-16T09:15:19Z</time>
      </trkpt>
      <trkpt lat="43.44834" lon="1.48189">
        <ele>234</ele>
        <time>2022-05-16T09:15:20Z</time>
      </trkpt>
      <trkpt lat="43.44837" lon="1.48183">
        <ele>234.1</ele>
        <time>2022-05-16T09:15:21Z</time>
      </trkpt>
      <trkpt lat="43.44836" lon="1.48177">
        <ele>233.9</ele>
        <time>2022-05-16T09:15:22Z</time>
      </trkpt>
      <trkpt lat="43.44836" lon="1.4817">
        <ele>234</ele>
        <time>2022-05-16T09:15:23Z</time>
      </trkpt>
      <trkpt lat="43.44838" lon="1.48165">
        <ele>234.1</ele>
        <time>2022-05-16T09:15:24Z</time>
      </trkpt>
      <trkpt lat="43.4484" lon="1.4816">
        <ele>234.1</ele>
        <time>2022-05-16T09:15:25Z</time>
      </trkpt>
      <trkpt lat="43.4484" lon="1.48153">
        <ele>234.2</ele>
        <time>2022-05-16T09:15:26Z</time>
      </trkpt>
      <trkpt lat="43.44837" lon="1.48146">
        <ele>234.3</ele>
        <time>2022-05-16T09:15:27Z</time>
      </trkpt>
      <trkpt lat="43.44835" lon="1.48141">
        <ele>234.4</ele>
        <time>2022-05-16T09:15:28Z</time>
      </trkpt>
      <trkpt lat="43.44831" lon="1.48137">
        <ele>234.5</ele>
        <time>2022-05-16T09:15:29Z</time>
      </trkpt>
      <trkpt lat="43.44827" lon="1.4813">
        <ele>234.3</ele>
        <time>2022-05-16T09:15:30Z</time>
      </trkpt>
      <trkpt lat="43.44824" lon="1.48124">
        <ele>234.4</ele>
        <time>2022-05-16T09:15:31Z</time>
      </trkpt>
      <trkpt lat="43.44825" lon="1.48119">
        <ele>234.4</ele>
        <time>2022-05-16T09:15:32Z</time>
      </trkpt>
      <trkpt lat="43.44825" lon="1.48113">
        <ele>234.5</ele>
        <time>2022-05-16T09:15:33Z</time>
      </trkpt>
      <trkpt lat="43.44823" lon="1.48109">
        <ele>234.8</ele>
        <time>2022-05-16T09:15:34Z</time>
      </trkpt>
      <trkpt lat="43.44823" lon="1.48104">
        <ele>234.9</ele>
        <time>2022-05-16T09:15:35Z</time>
      </trkpt>
      <trkpt lat="43.44823" lon="1.48103">
        <ele>235</ele>
        <time>2022-05-16T09:15:36Z</time>
      </trkpt>
      <trkpt lat="43.44822" lon="1.48103">
        <ele>235.1</ele>
        <time>2022-05-16T09:15:37Z</time>
      </trkpt>
      <trkpt lat="43.44822" lon="1.48101">
        <ele>235.2</ele>
        <time>2022-05-16T09:15:38Z</time>
      </trkpt>
      <trkpt lat="43.44822" lon="1.48099">
        <ele>235.3</ele>
        <time>2022-05-16T09:15:39Z</time>
      </trkpt>
      <trkpt lat="43.44821" lon="1.48095">
        <ele>235.4</ele>
        <time>2022-05-16T09:15:40Z</time>
      </trkpt>
      <trkpt lat="43.44818" lon="1.48089">
        <ele>235.6</ele>
        <time>2022-05-16T09:15:41Z</time>
      </trkpt>
      <trkpt lat="43.44815" lon="1.48082">
        <ele>235.7</ele>
        <time>2022-05-16T09:15:42Z</time>
      </trkpt>
      <trkpt lat="43.44812" lon="1.48078">
        <ele>235.8</ele>
        <time>2022-05-16T09:15:43Z</time>
      </trkpt>
      <trkpt lat="43.4481" lon="1.48072">
        <ele>236.5</ele>
        <time>2022-05-16T09:15:44Z</time>
      </trkpt>
      <trkpt lat="43.44808" lon="1.48065">
        <ele>236.6</ele>
        <time>2022-05-16T09:15:45Z</time>
      </trkpt>
      <trkpt lat="43.44804" lon="1.48063">
        <ele>236</ele>
        <time>2022-05-16T09:15:46Z</time>
      </trkpt>
      <trkpt lat="43.448" lon="1.48065">
        <ele>236.1</ele>
        <time>2022-05-16T09:15:47Z</time>
      </trkpt>
      <trkpt lat="43.44793" lon="1.48064">
        <ele>235.6</ele>
        <time>2022-05-16T09:15:48Z</time>
      </trkpt>
      <trkpt lat="43.44789" lon="1.48062">
        <ele>235.7</ele>
        <time>2022-05-16T09:15:49Z</time>
      </trkpt>
      <trkpt lat="43.44787" lon="1.48058">
        <ele>235.8</ele>
        <time>2022-05-16T09:15:50Z</time>
      </trkpt>
      <trkpt lat="43.44783" lon="1.48054">
        <ele>236.3</ele>
        <time>2022-05-16T09:15:51Z</time>
      </trkpt>
      <trkpt lat="43.44779" lon="1.48053">
        <ele>235.8</ele>
        <time>2022-05-16T09:15:52Z</time>
      </trkpt>
      <trkpt lat="43.44775" lon="1.4805">
        <ele>235.9</ele>
        <time>2022-05-16T09:15:53Z</time>
      </trkpt>
      <trkpt lat="43.44772" lon="1.48044">
        <ele>236</ele>
        <time>2022-05-16T09:15:54Z</time>
      </trkpt>
      <trkpt lat="43.44767" lon="1.48041">
        <ele>235.6</ele>
        <time>2022-05-16T09:15:55Z</time>
      </trkpt>
      <trkpt lat="43.44762" lon="1.48039">
        <ele>235.9</ele>
        <time>2022-05-16T09:15:56Z</time>
      </trkpt>
      <trkpt lat="43.44758" lon="1.48034">
        <ele>236</ele>
        <time>2022-05-16T09:15:57Z</time>
      </trkpt>
      <trkpt lat="43.44756" lon="1.48026">
        <ele>235.3</ele>
        <time>2022-05-16T09:15:58Z</time>
      </trkpt>
      <trkpt lat="43.44755" lon="1.48017">
        <ele>235.4</ele>
        <time>2022-05-16T09:15:59Z</time>
      </trkpt>
      <trkpt lat="43.44753" lon="1.48008">
        <ele>235.5</ele>
        <time>2022-05-16T09:16:00Z</time>
      </trkpt>
      <trkpt lat="43.44748" lon="1.48001">
        <ele>235.8</ele>
        <time>2022-05-16T09:16:01Z</time>
      </trkpt>
      <trkpt lat="43.44742" lon="1.47994">
        <ele>234.3</ele>
        <time>2022-05-16T09:16:02Z</time>
      </trkpt>
      <trkpt lat="43.4474" lon="1.47989">
        <ele>234.4</ele>
        <time>2022-05-16T09:16:03Z</time>
      </trkpt>
      <trkpt lat="43.44738" lon="1.47987">
        <ele>234.6</ele>
        <time>2022-05-16T09:16:04Z</time>
      </trkpt>
      <trkpt lat="43.44736" lon="1.47981">
        <ele>234.7</ele>
        <time>2022-05-16T09:16:05Z</time>
      </trkpt>
      <trkpt lat="43.44732" lon="1.47977">
        <ele>234.8</ele>
        <time>2022-05-16T09:16:06Z</time>
      </trkpt>
      <trkpt lat="43.44729" lon="1.47971">
        <ele>233.5</ele>
        <time>2022-05-16T09:16:07Z</time>
      </trkpt>
      <trkpt lat="43.44725" lon="1.47971">
        <ele>233.6</ele>
        <time>2022-05-16T09:16:08Z</time>
      </trkpt>
      <trkpt lat="43.44721" lon="1.47968">
        <ele>233.7</ele>
        <time>2022-05-16T09:16:09Z</time>
      </trkpt>
      <trkpt lat="43.44717" lon="1.47964">
        <ele>232.5</ele>
        <time>2022-05-16T09:16:10Z</time>
      </trkpt>
      <trkpt lat="43.44711" lon="1.4796">
        <ele>232.6</ele>
        <time>2022-05-16T09:16:11Z</time>
      </trkpt>
      <trkpt lat="43.44709" lon="1.47957">
        <ele>232.7</ele>
        <time>2022-05-16T09:16:12Z</time>
      </trkpt>
      <trkpt lat="43.44709" lon="1.47955">
        <ele>232.8</ele>
        <time>2022-05-16T09:16:13Z</time>
      </trkpt>
      <trkpt lat="43.44708" lon="1.47954">
        <ele>232.9</ele>
        <time>2022-05-16T09:16:14Z</time>
      </trkpt>
      <trkpt lat="43.44705" lon="1.47951">
        <ele>232.2</ele>
        <time>2022-05-16T09:16:15Z</time>
      </trkpt>
      <trkpt lat="43.44703" lon="1.47951">
        <ele>232.3</ele>
        <time>2022-05-16T09:16:16Z</time>
      </trkpt>
      <trkpt lat="43.44698" lon="1.47943">
        <ele>232.4</ele>
        <time>2022-05-16T09:16:17Z</time>
      </trkpt>
      <trkpt lat="43.44695" lon="1.47939">
        <ele>232.5</ele>
        <time>2022-05-16T09:16:18Z</time>
      </trkpt>
      <trkpt lat="43.4469" lon="1.47933">
        <ele>231.9</ele>
        <time>2022-05-16T09:16:19Z</time>
      </trkpt>
      <trkpt lat="43.44683" lon="1.47927">
        <ele>232</ele>
        <time>2022-05-16T09:16:20Z</time>
      </trkpt>
      <trkpt lat="43.44681" lon="1.4792">
        <ele>231.9</ele>
        <time>2022-05-16T09:16:21Z</time>
      </trkpt>
      <trkpt lat="43.44681" lon="1.47924">
        <ele>232.1</ele>
        <time>2022-05-16T09:16:22Z</time>
      </trkpt>
      <trkpt lat="43.44683" lon="1.47921">
        <ele>232.1</ele>
        <time>2022-05-16T09:16:23Z</time>
      </trkpt>
      <trkpt lat="43.44683" lon="1.47914">
        <ele>232.2</ele>
        <time>2022-05-16T09:16:24Z</time>
      </trkpt>
      <trkpt lat="43.44684" lon="1.47909">
        <ele>232.3</ele>
        <time>2022-05-16T09:16:25Z</time>
      </trkpt>
      <trkpt lat="43.44684" lon="1.47903">
        <ele>231.9</ele>
        <time>2022-05-16T09:16:26Z</time>
      </trkpt>
      <trkpt lat="43.44685" lon="1.47897">
        <ele>232</ele>
        <time>2022-05-16T09:16:27Z</time>
      </trkpt>
      <trkpt lat="43.44686" lon="1.4789">
        <ele>232.1</ele>
        <time>2022-05-16T09:16:28Z</time>
      </trkpt>
      <trkpt lat="43.44687" lon="1.47885">
        <ele>231.6</ele>
        <time>2022-05-16T09:16:29Z</time>
      </trkpt>
      <trkpt lat="43.44688" lon="1.47879">
        <ele>231.7</ele>
        <time>2022-05-16T09:16:30Z</time>
      </trkpt>
      <trkpt lat="43.44689" lon="1.47873">
        <ele>231.8</ele>
        <time>2022-05-16T09:16:31Z</time>
      </trkpt>
      <trkpt lat="43.4469" lon="1.47868">
        <ele>231.6</ele>
        <time>2022-05-16T09:16:32Z</time>
      </trkpt>
      <trkpt lat="43.44691" lon="1.47862">
        <ele>231.7</ele>
        <time>2022-05-16T09:16:33Z</time>
      </trkpt>
      <trkpt lat="43.44692" lon="1.47858">
        <ele>231.8</ele>
        <time>2022-05-16T09:16:34Z</time>
      </trkpt>
      <trkpt lat="43.44691" lon="1.47849">
        <ele>231.7</ele>
        <time>2022-05-16T09:16:35Z</time>
      </trkpt>
      <trkpt lat="43.44691" lon="1.47844">
        <ele>231.8</ele>
        <time>2022-05-16T09:16:36Z</time>
      </trkpt>
      <trkpt lat="43.44691" lon="1.47838">
        <ele>231.9</ele>
        <time>2022-05-16T09:16:37Z</time>
      </trkpt>
      <trkpt lat="43.44691" lon="1.47832">
        <ele>231.4</ele>
        <time>2022-05-16T09:16:38Z</time>
      </trkpt>
      <trkpt lat="43.44687" lon="1.47824">
        <ele>231.5</ele>
        <time>2022-05-16T09:16:39Z</time>
      </trkpt>
      <trkpt lat="43.44686" lon="1.47818">
        <ele>231.6</ele>
        <time>2022-05-16T09:16:40Z</time>
      </trkpt>
      <trkpt lat="43.44684" lon="1.47812">
        <ele>230.9</ele>
        <time>2022-05-16T09:16:41Z</time>
      </trkpt>
      <trkpt lat="43.44683" lon="1.47807">
        <ele>231</ele>
        <time>2022-05-16T09:16:42Z</time>
      </trkpt>
      <trkpt lat="43.44679" lon="1.47802">
        <ele>230.1</ele>
        <time>2022-05-16T09:16:43Z</time>
      </trkpt>
      <trkpt lat="43.44678" lon="1.47795">
        <ele>229.2</ele>
        <time>2022-05-16T09:16:44Z</time>
      </trkpt>
      <trkpt lat="43.44676" lon="1.47788">
        <ele>229.3</ele>
        <time>2022-05-16T09:16:45Z</time>
      </trkpt>
      <trkpt lat="43.44677" lon="1.4778">
        <ele>228.7</ele>
        <time>2022-05-16T09:16:46Z</time>
      </trkpt>
      <trkpt lat="43.44676" lon="1.47772">
        <ele>228.8</ele>
        <time>2022-05-16T09:16:47Z</time>
      </trkpt>
      <trkpt lat="43.44677" lon="1.47764">
        <ele>228.4</ele>
        <time>2022-05-16T09:16:48Z</time>
      </trkpt>
      <trkpt lat="43.44681" lon="1.4776">
        <ele>228.4</ele>
        <time>2022-05-16T09:16:49Z</time>
      </trkpt>
      <trkpt lat="43.44683" lon="1.47753">
        <ele>229.2</ele>
        <time>2022-05-16T09:16:50Z</time>
      </trkpt>
      <trkpt lat="43.44683" lon="1.47746">
        <ele>228.5</ele>
        <time>2022-05-16T09:16:51Z</time>
      </trkpt>
      <trkpt lat="43.44685" lon="1.47739">
        <ele>228.6</ele>
        <time>2022-05-16T09:16:52Z</time>
      </trkpt>
      <trkpt lat="43.44686" lon="1.47735">
        <ele>228.7</ele>
        <time>2022-05-16T09:16:53Z</time>
      </trkpt>
      <trkpt lat="43.44686" lon="1.47731">
        <ele>228.1</ele>
        <time>2022-05-16T09:16:54Z</time>
      </trkpt>
      <trkpt lat="43.44686" lon="1.47726">
        <ele>228.2</ele>
        <time>2022-05-16T09:16:55Z</time>
      </trkpt>
      <trkpt lat="43.44687" lon="1.47721">
        <ele>228.2</ele>
        <time>2022-05-16T09:16:56Z</time>
      </trkpt>
      <trkpt lat="43.44687" lon="1.47713">
        <ele>227.7</ele>
        <time>2022-05-16T09:16:57Z</time>
      </trkpt>
      <trkpt lat="43.44689" lon="1.47708">
        <ele>227.8</ele>
        <time>2022-05-16T09:16:58Z</time>
      </trkpt>
      <trkpt lat="43.4469" lon="1.477">
        <ele>227.9</ele>
        <time>2022-05-16T09:16:59Z</time>
      </trkpt>
      <trkpt lat="43.4469" lon="1.47694">
        <ele>227.6</ele>
        <time>2022-05-16T09:17:00Z</time>
      </trkpt>
      <trkpt lat="43.44691" lon="1.4769">
        <ele>227.6</ele>
        <time>2022-05-16T09:17:01Z</time>
      </trkpt>
      <trkpt lat="43.44691" lon="1.47685">
        <ele>227.7</ele>
        <time>2022-05-16T09:17:02Z</time>
      </trkpt>
      <trkpt lat="43.44692" lon="1.47677">
        <ele>227.7</ele>
        <time>2022-05-16T09:17:03Z</time>
      </trkpt>
      <trkpt lat="43.44692" lon="1.47671">
        <ele>227.8</ele>
        <time>2022-05-16T09:17:04Z</time>
      </trkpt>
      <trkpt lat="43.44695" lon="1.47668">
        <ele>229</ele>
        <time>2022-05-16T09:17:05Z</time>
      </trkpt>
      <trkpt lat="43.44698" lon="1.47666">
        <ele>229.1</ele>
        <time>2022-05-16T09:17:06Z</time>
      </trkpt>
      <trkpt lat="43.44697" lon="1.47661">
        <ele>229</ele>
        <time>2022-05-16T09:17:07Z</time>
      </trkpt>
      <trkpt lat="43.44697" lon="1.47656">
        <ele>229.1</ele>
        <time>2022-05-16T09:17:08Z</time>
      </trkpt>
      <trkpt lat="43.44697" lon="1.47654">
        <ele>228.9</ele>
        <time>2022-05-16T09:17:09Z</time>
      </trkpt>
      <trkpt lat="43.44698" lon="1.47651">
        <ele>228.6</ele>
        <time>2022-05-16T09:17:10Z</time>
      </trkpt>
      <trkpt lat="43.44699" lon="1.47649">
        <ele>228.4</ele>
        <time>2022-05-16T09:17:11Z</time>
      </trkpt>
      <trkpt lat="43.44699" lon="1.47648">
        <ele>228.3</ele>
        <time>2022-05-16T09:17:12Z</time>
      </trkpt>
      <trkpt lat="43.44698" lon="1.47644">
        <ele>227.9</ele>
        <time>2022-05-16T09:17:13Z</time>
      </trkpt>
      <trkpt lat="43.44697" lon="1.47638">
        <ele>227.2</ele>
        <time>2022-05-16T09:17:14Z</time>
      </trkpt>
      <trkpt lat="43.44696" lon="1.47633">
        <ele>226.5</ele>
        <time>2022-05-16T09:17:15Z</time>
      </trkpt>
      <trkpt lat="43.44695" lon="1.47627">
        <ele>225.9</ele>
        <time>2022-05-16T09:17:16Z</time>
      </trkpt>
      <trkpt lat="43.44694" lon="1.47621">
        <ele>225.1</ele>
        <time>2022-05-16T09:17:17Z</time>
      </trkpt>
      <trkpt lat="43.44695" lon="1.47614">
        <ele>224.4</ele>
        <time>2022-05-16T09:17:18Z</time>
      </trkpt>
      <trkpt lat="43.44692" lon="1.47607">
        <ele>223.7</ele>
        <time>2022-05-16T09:17:19Z</time>
      </trkpt>
      <trkpt lat="43.4469" lon="1.47601">
        <ele>223.3</ele>
        <time>2022-05-16T09:17:20Z</time>
      </trkpt>
      <trkpt lat="43.44691" lon="1.47594">
        <ele>222.9</ele>
        <time>2022-05-16T09:17:21Z</time>
      </trkpt>
      <trkpt lat="43.44694" lon="1.47589">
        <ele>222.6</ele>
        <time>2022-05-16T09:17:22Z</time>
      </trkpt>
      <trkpt lat="43.44697" lon="1.47585">
        <ele>222.3</ele>
        <time>2022-05-16T09:17:23Z</time>
      </trkpt>
      <trkpt lat="43.44699" lon="1.47581">
        <ele>222.1</ele>
        <time>2022-05-16T09:17:24Z</time>
      </trkpt>
      <trkpt lat="43.44699" lon="1.47575">
        <ele>221.9</ele>
        <time>2022-05-16T09:17:25Z</time>
      </trkpt>
      <trkpt lat="43.44701" lon="1.47569">
        <ele>221.7</ele>
        <time>2022-05-16T09:17:26Z</time>
      </trkpt>
      <trkpt lat="43.44703" lon="1.47569">
        <ele>221.6</ele>
        <time>2022-05-16T09:17:27Z</time>
      </trkpt>
      <trkpt lat="43.44703" lon="1.47566">
        <ele>221.5</ele>
        <time>2022-05-16T09:17:28Z</time>
      </trkpt>
      <trkpt lat="43.44702" lon="1.47561">
        <ele>221.3</ele>
        <time>2022-05-16T09:17:29Z</time>
      </trkpt>
      <trkpt lat="43.44701" lon="1.47559">
        <ele>221.3</ele>
        <time>2022-05-16T09:17:30Z</time>
      </trkpt>
      <trkpt lat="43.44698" lon="1.47555">
        <ele>221.2</ele>
        <time>2022-05-16T09:17:31Z</time>
      </trkpt>
      <trkpt lat="43.44697" lon="1.47554">
        <ele>221.1</ele>
        <time>2022-05-16T09:17:32Z</time>
      </trkpt>
      <trkpt lat="43.44695" lon="1.47549">
        <ele>221</ele>
        <time>2022-05-16T09:17:33Z</time>
      </trkpt>
      <trkpt lat="43.44694" lon="1.47546">
        <ele>220.9</ele>
        <time>2022-05-16T09:17:34Z</time>
      </trkpt>
      <trkpt lat="43.44694" lon="1.47542">
        <ele>220.8</ele>
        <time>2022-05-16T09:17:35Z</time>
      </trkpt>
      <trkpt lat="43.44697" lon="1.47539">
        <ele>220.7</ele>
        <time>2022-05-16T09:17:36Z</time>
      </trkpt>
      <trkpt lat="43.44698" lon="1.47538">
        <ele>220.6</ele>
        <time>2022-05-16T09:17:37Z</time>
      </trkpt>
      <trkpt lat="43.44697" lon="1.47534">
        <ele>220.5</ele>
        <time>2022-05-16T09:17:38Z</time>
      </trkpt>
      <trkpt lat="43.44696" lon="1.47533">
        <ele>220.5</ele>
        <time>2022-05-16T09:17:39Z</time>
      </trkpt>
      <trkpt lat="43.44694" lon="1.4753">
        <ele>220.3</ele>
        <time>2022-05-16T09:17:40Z</time>
      </trkpt>
      <trkpt lat="43.44691" lon="1.47526">
        <ele>220.2</ele>
        <time>2022-05-16T09:17:41Z</time>
      </trkpt>
      <trkpt lat="43.44689" lon="1.47521">
        <ele>220</ele>
        <time>2022-05-16T09:17:42Z</time>
      </trkpt>
      <trkpt lat="43.4469" lon="1.47519">
        <ele>220</ele>
        <time>2022-05-16T09:17:43Z</time>
      </trkpt>
      <trkpt lat="43.44689" lon="1.47514">
        <ele>219.9</ele>
        <time>2022-05-16T09:17:44Z</time>
      </trkpt>
      <trkpt lat="43.44688" lon="1.47509">
        <ele>219.7</ele>
        <time>2022-05-16T09:17:45Z</time>
      </trkpt>
      <trkpt lat="43.44686" lon="1.47505">
        <ele>219.6</ele>
        <time>2022-05-16T09:17:46Z</time>
      </trkpt>
      <trkpt lat="43.44686" lon="1.47503">
        <ele>219.6</ele>
        <time>2022-05-16T09:17:47Z</time>
      </trkpt>
      <trkpt lat="43.44687" lon="1.47498">
        <ele>219.5</ele>
        <time>2022-05-16T09:17:48Z</time>
      </trkpt>
      <trkpt lat="43.44685" lon="1.47492">
        <ele>219.3</ele>
        <time>2022-05-16T09:17:49Z</time>
      </trkpt>
      <trkpt lat="43.44684" lon="1.47493">
        <ele>219.3</ele>
        <time>2022-05-16T09:17:50Z</time>
      </trkpt>
      <trkpt lat="43.44682" lon="1.47494">
        <ele>219.2</ele>
        <time>2022-05-16T09:17:51Z</time>
      </trkpt>
      <trkpt lat="43.44679" lon="1.47495">
        <ele>219.2</ele>
        <time>2022-05-16T09:17:52Z</time>
      </trkpt>
      <trkpt lat="43.44677" lon="1.47495">
        <ele>219.1</ele>
        <time>2022-05-16T09:17:53Z</time>
      </trkpt>
      <trkpt lat="43.44676" lon="1.4749">
        <ele>219</ele>
        <time>2022-05-16T09:17:54Z</time>
      </trkpt>
      <trkpt lat="43.44674" lon="1.47487">
        <ele>206.1</ele>
        <time>2022-05-16T09:17:55Z</time>
      </trkpt>
      <trkpt lat="43.44672" lon="1.47482">
        <ele>206.1</ele>
        <time>2022-05-16T09:17:56Z</time>
      </trkpt>
      <trkpt lat="43.44671" lon="1.4748">
        <ele>206.1</ele>
        <time>2022-05-16T09:17:57Z</time>
      </trkpt>
      <trkpt lat="43.44669" lon="1.47476">
        <ele>206</ele>
        <time>2022-05-16T09:17:58Z</time>
      </trkpt>
      <trkpt lat="43.44668" lon="1.47473">
        <ele>206</ele>
        <time>2022-05-16T09:17:59Z</time>
      </trkpt>
      <trkpt lat="43.44666" lon="1.47469">
        <ele>206</ele>
        <time>2022-05-16T09:18:00Z</time>
      </trkpt>
      <trkpt lat="43.44664" lon="1.47465">
        <ele>205.9</ele>
        <time>2022-05-16T09:18:01Z</time>
      </trkpt>
      <trkpt lat="43.44663" lon="1.47463">
        <ele>205.9</ele>
        <time>2022-05-16T09:18:02Z</time>
      </trkpt>
      <trkpt lat="43.4466" lon="1.4746">
        <ele>205.9</ele>
        <time>2022-05-16T09:18:03Z</time>
      </trkpt>
      <trkpt lat="43.44658" lon="1.47454">
        <ele>205.8</ele>
        <time>2022-05-16T09:18:04Z</time>
      </trkpt>
      <trkpt lat="43.44655" lon="1.47451">
        <ele>205.7</ele>
        <time>2022-05-16T09:18:05Z</time>
      </trkpt>
      <trkpt lat="43.44652" lon="1.47448">
        <ele>205.7</ele>
        <time>2022-05-16T09:18:06Z</time>
      </trkpt>
      <trkpt lat="43.44651" lon="1.47447">
        <ele>205.7</ele>
        <time>2022-05-16T09:18:07Z</time>
      </trkpt>
      <trkpt lat="43.44648" lon="1.47444">
        <ele>205.6</ele>
        <time>2022-05-16T09:18:08Z</time>
      </trkpt>
      <trkpt lat="43.44648" lon="1.47443">
        <ele>205.6</ele>
        <time>2022-05-16T09:18:09Z</time>
      </trkpt>
      <trkpt lat="43.44647" lon="1.4744">
        <ele>205.6</ele>
        <time>2022-05-16T09:18:10Z</time>
      </trkpt>
      <trkpt lat="43.44645" lon="1.47434">
        <ele>205.5</ele>
        <time>2022-05-16T09:18:11Z</time>
      </trkpt>
      <trkpt lat="43.44642" lon="1.47429">
        <ele>205.4</ele>
        <time>2022-05-16T09:18:12Z</time>
      </trkpt>
      <trkpt lat="43.44637" lon="1.47426">
        <ele>205.3</ele>
        <time>2022-05-16T09:18:13Z</time>
      </trkpt>
      <trkpt lat="43.44635" lon="1.4742">
        <ele>205.2</ele>
        <time>2022-05-16T09:18:14Z</time>
      </trkpt>
      <trkpt lat="43.44634" lon="1.47413">
        <ele>205.1</ele>
        <time>2022-05-16T09:18:15Z</time>
      </trkpt>
      <trkpt lat="43.4463" lon="1.47407">
        <ele>205</ele>
        <time>2022-05-16T09:18:16Z</time>
      </trkpt>
      <trkpt lat="43.44627" lon="1.47402">
        <ele>204.9</ele>
        <time>2022-05-16T09:18:17Z</time>
      </trkpt>
      <trkpt lat="43.44624" lon="1.47396">
        <ele>204.8</ele>
        <time>2022-05-16T09:18:18Z</time>
      </trkpt>
      <trkpt lat="43.4462" lon="1.47392">
        <ele>204.7</ele>
        <time>2022-05-16T09:18:19Z</time>
      </trkpt>
      <trkpt lat="43.44615" lon="1.47386">
        <ele>204.6</ele>
        <time>2022-05-16T09:18:20Z</time>
      </trkpt>
      <trkpt lat="43.44611" lon="1.47382">
        <ele>204.6</ele>
        <time>2022-05-16T09:18:21Z</time>
      </trkpt>
      <trkpt lat="43.44608" lon="1.47377">
        <ele>204.5</ele>
        <time>2022-05-16T09:18:22Z</time>
      </trkpt>
      <trkpt lat="43.44605" lon="1.47373">
        <ele>204.5</ele>
        <time>2022-05-16T09:18:23Z</time>
      </trkpt>
      <trkpt lat="43.44605" lon="1.47367">
        <ele>204.4</ele>
        <time>2022-05-16T09:18:24Z</time>
      </trkpt>
      <trkpt lat="43.44607" lon="1.47361">
        <ele>204.4</ele>
        <time>2022-05-16T09:18:25Z</time>
      </trkpt>
      <trkpt lat="43.44605" lon="1.47355">
        <ele>204.3</ele>
        <time>2022-05-16T09:18:26Z</time>
      </trkpt>
      <trkpt lat="43.44602" lon="1.47353">
        <ele>204.3</ele>
        <time>2022-05-16T09:18:27Z</time>
      </trkpt>
      <trkpt lat="43.44596" lon="1.47352">
        <ele>204.2</ele>
        <time>2022-05-16T09:18:28Z</time>
      </trkpt>
      <trkpt lat="43.44593" lon="1.47345">
        <ele>204.1</ele>
        <time>2022-05-16T09:18:29Z</time>
      </trkpt>
      <trkpt lat="43.44592" lon="1.47336">
        <ele>204</ele>
        <time>2022-05-16T09:18:30Z</time>
      </trkpt>
      <trkpt lat="43.4459" lon="1.47332">
        <ele>204</ele>
        <time>2022-05-16T09:18:31Z</time>
      </trkpt>
      <trkpt lat="43.44588" lon="1.47325">
        <ele>203.9</ele>
        <time>2022-05-16T09:18:32Z</time>
      </trkpt>
      <trkpt lat="43.44585" lon="1.47317">
        <ele>203.9</ele>
        <time>2022-05-16T09:18:33Z</time>
      </trkpt>
      <trkpt lat="43.44586" lon="1.47309">
        <ele>203.8</ele>
        <time>2022-05-16T09:18:34Z</time>
      </trkpt>
      <trkpt lat="43.44585" lon="1.47303">
        <ele>203.8</ele>
        <time>2022-05-16T09:18:35Z</time>
      </trkpt>
      <trkpt lat="43.44587" lon="1.473">
        <ele>203.8</ele>
        <time>2022-05-16T09:18:36Z</time>
      </trkpt>
      <trkpt lat="43.44588" lon="1.47299">
        <ele>203.8</ele>
        <time>2022-05-16T09:18:37Z</time>
      </trkpt>
      <trkpt lat="43.4459" lon="1.47298">
        <ele>203.8</ele>
        <time>2022-05-16T09:18:38Z</time>
      </trkpt>
      <trkpt lat="43.4459" lon="1.47296">
        <ele>203.8</ele>
        <time>2022-05-16T09:18:39Z</time>
      </trkpt>
      <trkpt lat="43.44588" lon="1.47292">
        <ele>203.7</ele>
        <time>2022-05-16T09:18:40Z</time>
      </trkpt>
      <trkpt lat="43.44584" lon="1.47287">
        <ele>203.7</ele>
        <time>2022-05-16T09:18:41Z</time>
      </trkpt>
      <trkpt lat="43.4458" lon="1.47282">
        <ele>203.7</ele>
        <time>2022-05-16T09:18:42Z</time>
      </trkpt>
      <trkpt lat="43.44575" lon="1.47279">
        <ele>203.6</ele>
        <time>2022-05-16T09:18:43Z</time>
      </trkpt>
      <trkpt lat="43.44571" lon="1.47277">
        <ele>203.5</ele>
        <time>2022-05-16T09:18:44Z</time>
      </trkpt>
      <trkpt lat="43.44567" lon="1.47281">
        <ele>203.5</ele>
        <time>2022-05-16T09:18:45Z</time>
      </trkpt>
      <trkpt lat="43.44563" lon="1.47277">
        <ele>203.4</ele>
        <time>2022-05-16T09:18:46Z</time>
      </trkpt>
      <trkpt lat="43.4456" lon="1.47272">
        <ele>203.3</ele>
        <time>2022-05-16T09:18:47Z</time>
      </trkpt>
      <trkpt lat="43.44557" lon="1.47268">
        <ele>203.3</ele>
        <time>2022-05-16T09:18:48Z</time>
      </trkpt>
      <trkpt lat="43.44552" lon="1.47268">
        <ele>203.2</ele>
        <time>2022-05-16T09:18:49Z</time>
      </trkpt>
      <trkpt lat="43.4455" lon="1.47265">
        <ele>203.1</ele>
        <time>2022-05-16T09:18:50Z</time>
      </trkpt>
      <trkpt lat="43.44547" lon="1.4726">
        <ele>203.1</ele>
        <time>2022-05-16T09:18:51Z</time>
      </trkpt>
      <trkpt lat="43.44544" lon="1.47255">
        <ele>203.1</ele>
        <time>2022-05-16T09:18:52Z</time>
      </trkpt>
      <trkpt lat="43.4454" lon="1.47252">
        <ele>203.1</ele>
        <time>2022-05-16T09:18:53Z</time>
      </trkpt>
      <trkpt lat="43.44537" lon="1.47248">
        <ele>203.1</ele>
        <time>2022-05-16T09:18:54Z</time>
      </trkpt>
      <trkpt lat="43.44536" lon="1.47245">
        <ele>203.1</ele>
        <time>2022-05-16T09:18:55Z</time>
      </trkpt>
      <trkpt lat="43.44538" lon="1.4724">
        <ele>203.1</ele>
        <time>2022-05-16T09:18:56Z</time>
      </trkpt>
      <trkpt lat="43.44538" lon="1.47238">
        <ele>203.1</ele>
        <time>2022-05-16T09:18:57Z</time>
      </trkpt>
      <trkpt lat="43.44541" lon="1.47233">
        <ele>203.1</ele>
        <time>2022-05-16T09:18:58Z</time>
      </trkpt>
      <trkpt lat="43.44542" lon="1.47228">
        <ele>203.1</ele>
        <time>2022-05-16T09:18:59Z</time>
      </trkpt>
      <trkpt lat="43.44543" lon="1.47223">
        <ele>203.1</ele>
        <time>2022-05-16T09:19:00Z</time>
      </trkpt>
      <trkpt lat="43.44545" lon="1.47217">
        <ele>203.2</ele>
        <time>2022-05-16T09:19:01Z</time>
      </trkpt>
      <trkpt lat="43.44546" lon="1.47212">
        <ele>203.2</ele>
        <time>2022-05-16T09:19:02Z</time>
      </trkpt>
      <trkpt lat="43.44548" lon="1.47205">
        <ele>203.3</ele>
        <time>2022-05-16T09:19:03Z</time>
      </trkpt>
      <trkpt lat="43.4455" lon="1.472">
        <ele>203.3</ele>
        <time>2022-05-16T09:19:04Z</time>
      </trkpt>
      <trkpt lat="43.44551" lon="1.47194">
        <ele>203.4</ele>
        <time>2022-05-16T09:19:05Z</time>
      </trkpt>
      <trkpt lat="43.44553" lon="1.47189">
        <ele>203.5</ele>
        <time>2022-05-16T09:19:06Z</time>
      </trkpt>
      <trkpt lat="43.44553" lon="1.47183">
        <ele>203.6</ele>
        <time>2022-05-16T09:19:07Z</time>
      </trkpt>
      <trkpt lat="43.44555" lon="1.47178">
        <ele>203.7</ele>
        <time>2022-05-16T09:19:08Z</time>
      </trkpt>
      <trkpt lat="43.44556" lon="1.47172">
        <ele>203.8</ele>
        <time>2022-05-16T09:19:09Z</time>
      </trkpt>
      <trkpt lat="43.44557" lon="1.47167">
        <ele>204</ele>
        <time>2022-05-16T09:19:10Z</time>
      </trkpt>
      <trkpt lat="43.44558" lon="1.47161">
        <ele>204.3</ele>
        <time>2022-05-16T09:19:11Z</time>
      </trkpt>
      <trkpt lat="43.4456" lon="1.47156">
        <ele>204.6</ele>
        <time>2022-05-16T09:19:12Z</time>
      </trkpt>
      <trkpt lat="43.44562" lon="1.47151">
        <ele>204.9</ele>
        <time>2022-05-16T09:19:13Z</time>
      </trkpt>
      <trkpt lat="43.44564" lon="1.47146">
        <ele>205.3</ele>
        <time>2022-05-16T09:19:14Z</time>
      </trkpt>
      <trkpt lat="43.44566" lon="1.47141">
        <ele>205.9</ele>
        <time>2022-05-16T09:19:15Z</time>
      </trkpt>
      <trkpt lat="43.44568" lon="1.47136">
        <ele>206.4</ele>
        <time>2022-05-16T09:19:16Z</time>
      </trkpt>
      <trkpt lat="43.44569" lon="1.47131">
        <ele>206.9</ele>
        <time>2022-05-16T09:19:17Z</time>
      </trkpt>
      <trkpt lat="43.44571" lon="1.47126">
        <ele>207.5</ele>
        <time>2022-05-16T09:19:18Z</time>
      </trkpt>
      <trkpt lat="43.44572" lon="1.47122">
        <ele>208</ele>
        <time>2022-05-16T09:19:19Z</time>
      </trkpt>
      <trkpt lat="43.44574" lon="1.47118">
        <ele>208.5</ele>
        <time>2022-05-16T09:19:20Z</time>
      </trkpt>
      <trkpt lat="43.44576" lon="1.47113">
        <ele>209.1</ele>
        <time>2022-05-16T09:19:21Z</time>
      </trkpt>
      <trkpt lat="43.44577" lon="1.47108">
        <ele>209.6</ele>
        <time>2022-05-16T09:19:22Z</time>
      </trkpt>
      <trkpt lat="43.44579" lon="1.47103">
        <ele>210.1</ele>
        <time>2022-05-16T09:19:23Z</time>
      </trkpt>
      <trkpt lat="43.44581" lon="1.47098">
        <ele>210.6</ele>
        <time>2022-05-16T09:19:24Z</time>
      </trkpt>
      <trkpt lat="43.44582" lon="1.47094">
        <ele>211.1</ele>
        <time>2022-05-16T09:19:25Z</time>
      </trkpt>
      <trkpt lat="43.44584" lon="1.47089">
        <ele>211.5</ele>
        <time>2022-05-16T09:19:26Z</time>
      </trkpt>
      <trkpt lat="43.44585" lon="1.47084">
        <ele>212</ele>
        <time>2022-05-16T09:19:27Z</time>
      </trkpt>
      <trkpt lat="43.44587" lon="1.47079">
        <ele>212.4</ele>
        <time>2022-05-16T09:19:28Z</time>
      </trkpt>
      <trkpt lat="43.44589" lon="1.47075">
        <ele>212.8</ele>
        <time>2022-05-16T09:19:29Z</time>
      </trkpt>
      <trkpt lat="43.4459" lon="1.47069">
        <ele>213.3</ele>
        <time>2022-05-16T09:19:30Z</time>
      </trkpt>
      <trkpt lat="43.44592" lon="1.47064">
        <ele>213.7</ele>
        <time>2022-05-16T09:19:31Z</time>
      </trkpt>
      <trkpt lat="43.44593" lon="1.47059">
        <ele>214.1</ele>
        <time>2022-05-16T09:19:32Z</time>
      </trkpt>
      <trkpt lat="43.44595" lon="1.47054">
        <ele>214.5</ele>
        <time>2022-05-16T09:19:33Z</time>
      </trkpt>
      <trkpt lat="43.44596" lon="1.47049">
        <ele>214.8</ele>
        <time>2022-05-16T09:19:34Z</time>
      </trkpt>
      <trkpt lat="43.44597" lon="1.47044">
        <ele>215.2</ele>
        <time>2022-05-16T09:19:35Z</time>
      </trkpt>
      <trkpt lat="43.44599" lon="1.4704">
        <ele>215.5</ele>
        <time>2022-05-16T09:19:36Z</time>
      </trkpt>
      <trkpt lat="43.44601" lon="1.47035">
        <ele>215.9</ele>
        <time>2022-05-16T09:19:37Z</time>
      </trkpt>
      <trkpt lat="43.44602" lon="1.4703">
        <ele>216.2</ele>
        <time>2022-05-16T09:19:38Z</time>
      </trkpt>
      <trkpt lat="43.44604" lon="1.47024">
        <ele>216.5</ele>
        <time>2022-05-16T09:19:39Z</time>
      </trkpt>
      <trkpt lat="43.44605" lon="1.47019">
        <ele>216.7</ele>
        <time>2022-05-16T09:19:40Z</time>
      </trkpt>
      <trkpt lat="43.44606" lon="1.47014">
        <ele>217</ele>
        <time>2022-05-16T09:19:41Z</time>
      </trkpt>
      <trkpt lat="43.44608" lon="1.47009">
        <ele>217.2</ele>
        <time>2022-05-16T09:19:42Z</time>
      </trkpt>
      <trkpt lat="43.44609" lon="1.47004">
        <ele>217.3</ele>
        <time>2022-05-16T09:19:43Z</time>
      </trkpt>
      <trkpt lat="43.44611" lon="1.46998">
        <ele>217.5</ele>
        <time>2022-05-16T09:19:44Z</time>
      </trkpt>
      <trkpt lat="43.44613" lon="1.46993">
        <ele>217.6</ele>
        <time>2022-05-16T09:19:45Z</time>
      </trkpt>
      <trkpt lat="43.44614" lon="1.46987">
        <ele>217.8</ele>
        <time>2022-05-16T09:19:46Z</time>
      </trkpt>
      <trkpt lat="43.44615" lon="1.46982">
        <ele>217.9</ele>
        <time>2022-05-16T09:19:47Z</time>
      </trkpt>
      <trkpt lat="43.44617" lon="1.46977">
        <ele>218</ele>
        <time>2022-05-16T09:19:48Z</time>
      </trkpt>
      <trkpt lat="43.44619" lon="1.46972">
        <ele>218</ele>
        <time>2022-05-16T09:19:49Z</time>
      </trkpt>
      <trkpt lat="43.44622" lon="1.46969">
        <ele>218</ele>
        <time>2022-05-16T09:19:50Z</time>
      </trkpt>
      <trkpt lat="43.44625" lon="1.46966">
        <ele>218</ele>
        <time>2022-05-16T09:19:51Z</time>
      </trkpt>
      <trkpt lat="43.44626" lon="1.46962">
        <ele>217.9</ele>
        <time>2022-05-16T09:19:52Z</time>
      </trkpt>
      <trkpt lat="43.44626" lon="1.4696">
        <ele>217.8</ele>
        <time>2022-05-16T09:19:53Z</time>
      </trkpt>
      <trkpt lat="43.44624" lon="1.46956">
        <ele>217.7</ele>
        <time>2022-05-16T09:19:54Z</time>
      </trkpt>
      <trkpt lat="43.4462" lon="1.46955">
        <ele>217.4</ele>
        <time>2022-05-16T09:19:55Z</time>
      </trkpt>
      <trkpt lat="43.44615" lon="1.46953">
        <ele>216.9</ele>
        <time>2022-05-16T09:19:56Z</time>
      </trkpt>
      <trkpt lat="43.44609" lon="1.46951">
        <ele>216.3</ele>
        <time>2022-05-16T09:19:57Z</time>
      </trkpt>
      <trkpt lat="43.44603" lon="1.46949">
        <ele>215.6</ele>
        <time>2022-05-16T09:19:58Z</time>
      </trkpt>
      <trkpt lat="43.44597" lon="1.46948">
        <ele>214.9</ele>
        <time>2022-05-16T09:19:59Z</time>
      </trkpt>
      <trkpt lat="43.44589" lon="1.4695">
        <ele>214</ele>
        <time>2022-05-16T09:20:00Z</time>
      </trkpt>
      <trkpt lat="43.44582" lon="1.46949">
        <ele>213.1</ele>
        <time>2022-05-16T09:20:01Z</time>
      </trkpt>
      <trkpt lat="43.44575" lon="1.46946">
        <ele>212</ele>
        <time>2022-05-16T09:20:02Z</time>
      </trkpt>
      <trkpt lat="43.44572" lon="1.46941">
        <ele>211.2</ele>
        <time>2022-05-16T09:20:03Z</time>
      </trkpt>
      <trkpt lat="43.44565" lon="1.46937">
        <ele>209.9</ele>
        <time>2022-05-16T09:20:04Z</time>
      </trkpt>
      <trkpt lat="43.44559" lon="1.46936">
        <ele>208.5</ele>
        <time>2022-05-16T09:20:05Z</time>
      </trkpt>
      <trkpt lat="43.44552" lon="1.46932">
        <ele>206.9</ele>
        <time>2022-05-16T09:20:06Z</time>
      </trkpt>
      <trkpt lat="43.44545" lon="1.46931">
        <ele>205.2</ele>
        <time>2022-05-16T09:20:07Z</time>
      </trkpt>
      <trkpt lat="43.44538" lon="1.46929">
        <ele>203.9</ele>
        <time>2022-05-16T09:20:08Z</time>
      </trkpt>
      <trkpt lat="43.44534" lon="1.46924">
        <ele>202.9</ele>
        <time>2022-05-16T09:20:09Z</time>
      </trkpt>
      <trkpt lat="43.4453" lon="1.46917">
        <ele>202.1</ele>
        <time>2022-05-16T09:20:10Z</time>
      </trkpt>
      <trkpt lat="43.44525" lon="1.46913">
        <ele>201.6</ele>
        <time>2022-05-16T09:20:11Z</time>
      </trkpt>
      <trkpt lat="43.44519" lon="1.4691">
        <ele>201.3</ele>
        <time>2022-05-16T09:20:12Z</time>
      </trkpt>
      <trkpt lat="43.44514" lon="1.46905">
        <ele>201</ele>
        <time>2022-05-16T09:20:13Z</time>
      </trkpt>
      <trkpt lat="43.44511" lon="1.46899">
        <ele>200.9</ele>
        <time>2022-05-16T09:20:14Z</time>
      </trkpt>
      <trkpt lat="43.44512" lon="1.46892">
        <ele>200.9</ele>
        <time>2022-05-16T09:20:15Z</time>
      </trkpt>
      <trkpt lat="43.44513" lon="1.46886">
        <ele>200.8</ele>
        <time>2022-05-16T09:20:16Z</time>
      </trkpt>
      <trkpt lat="43.44517" lon="1.46881">
        <ele>200.8</ele>
        <time>2022-05-16T09:20:17Z</time>
      </trkpt>
      <trkpt lat="43.44518" lon="1.46876">
        <ele>200.8</ele>
        <time>2022-05-16T09:20:18Z</time>
      </trkpt>
      <trkpt lat="43.44516" lon="1.46871">
        <ele>200.7</ele>
        <time>2022-05-16T09:20:19Z</time>
      </trkpt>
      <trkpt lat="43.44511" lon="1.46867">
        <ele>200.7</ele>
        <time>2022-05-16T09:20:20Z</time>
      </trkpt>
      <trkpt lat="43.44506" lon="1.46865">
        <ele>200.6</ele>
        <time>2022-05-16T09:20:21Z</time>
      </trkpt>
      <trkpt lat="43.44501" lon="1.46863">
        <ele>200.5</ele>
        <time>2022-05-16T09:20:22Z</time>
      </trkpt>
      <trkpt lat="43.44497" lon="1.46863">
        <ele>200.5</ele>
        <time>2022-05-16T09:20:23Z</time>
      </trkpt>
      <trkpt lat="43.44492" lon="1.46861">
        <ele>200.4</ele>
        <time>2022-05-16T09:20:24Z</time>
      </trkpt>
      <trkpt lat="43.4449" lon="1.46855">
        <ele>200.3</ele>
        <time>2022-05-16T09:20:25Z</time>
      </trkpt>
      <trkpt lat="43.44488" lon="1.4685">
        <ele>200.3</ele>
        <time>2022-05-16T09:20:26Z</time>
      </trkpt>
      <trkpt lat="43.44483" lon="1.46845">
        <ele>200.2</ele>
        <time>2022-05-16T09:20:27Z</time>
      </trkpt>
      <trkpt lat="43.4448" lon="1.4684">
        <ele>200.1</ele>
        <time>2022-05-16T09:20:28Z</time>
      </trkpt>
      <trkpt lat="43.4448" lon="1.46833">
        <ele>200</ele>
        <time>2022-05-16T09:20:29Z</time>
      </trkpt>
      <trkpt lat="43.44481" lon="1.46828">
        <ele>200</ele>
        <time>2022-05-16T09:20:30Z</time>
      </trkpt>
      <trkpt lat="43.44481" lon="1.46824">
        <ele>199.9</ele>
        <time>2022-05-16T09:20:31Z</time>
      </trkpt>
      <trkpt lat="43.44481" lon="1.46822">
        <ele>199.9</ele>
        <time>2022-05-16T09:20:32Z</time>
      </trkpt>
      <trkpt lat="43.44481" lon="1.4682">
        <ele>199.9</ele>
        <time>2022-05-16T09:20:33Z</time>
      </trkpt>
      <trkpt lat="43.4448" lon="1.46816">
        <ele>199.8</ele>
        <time>2022-05-16T09:20:34Z</time>
      </trkpt>
      <trkpt lat="43.44477" lon="1.4681">
        <ele>199.8</ele>
        <time>2022-05-16T09:20:35Z</time>
      </trkpt>
      <trkpt lat="43.44477" lon="1.46804">
        <ele>199.7</ele>
        <time>2022-05-16T09:20:36Z</time>
      </trkpt>
      <trkpt lat="43.44476" lon="1.46798">
        <ele>199.7</ele>
        <time>2022-05-16T09:20:37Z</time>
      </trkpt>
      <trkpt lat="43.44476" lon="1.46791">
        <ele>199.6</ele>
        <time>2022-05-16T09:20:38Z</time>
      </trkpt>
      <trkpt lat="43.44476" lon="1.46785">
        <ele>199.6</ele>
        <time>2022-05-16T09:20:39Z</time>
      </trkpt>
      <trkpt lat="43.44474" lon="1.46778">
        <ele>199.5</ele>
        <time>2022-05-16T09:20:40Z</time>
      </trkpt>
      <trkpt lat="43.44472" lon="1.46775">
        <ele>199.5</ele>
        <time>2022-05-16T09:20:41Z</time>
      </trkpt>
      <trkpt lat="43.44469" lon="1.46769">
        <ele>199.5</ele>
        <time>2022-05-16T09:20:42Z</time>
      </trkpt>
      <trkpt lat="43.44469" lon="1.46764">
        <ele>199.4</ele>
        <time>2022-05-16T09:20:43Z</time>
      </trkpt>
      <trkpt lat="43.44466" lon="1.4676">
        <ele>199.4</ele>
        <time>2022-05-16T09:20:44Z</time>
      </trkpt>
      <trkpt lat="43.44464" lon="1.4676">
        <ele>199.4</ele>
        <time>2022-05-16T09:20:45Z</time>
      </trkpt>
      <trkpt lat="43.44462" lon="1.46756">
        <ele>199.4</ele>
        <time>2022-05-16T09:20:46Z</time>
      </trkpt>
      <trkpt lat="43.44463" lon="1.46748">
        <ele>199.3</ele>
        <time>2022-05-16T09:20:47Z</time>
      </trkpt>
      <trkpt lat="43.44462" lon="1.46741">
        <ele>199.3</ele>
        <time>2022-05-16T09:20:48Z</time>
      </trkpt>
      <trkpt lat="43.4446" lon="1.46735">
        <ele>199.3</ele>
        <time>2022-05-16T09:20:49Z</time>
      </trkpt>
      <trkpt lat="43.44459" lon="1.4673">
        <ele>199.3</ele>
        <time>2022-05-16T09:20:50Z</time>
      </trkpt>
      <trkpt lat="43.44457" lon="1.46724">
        <ele>199.3</ele>
        <time>2022-05-16T09:20:51Z</time>
      </trkpt>
      <trkpt lat="43.44456" lon="1.46721">
        <ele>199.3</ele>
        <time>2022-05-16T09:20:52Z</time>
      </trkpt>
      <trkpt lat="43.44455" lon="1.46717">
        <ele>199.3</ele>
        <time>2022-05-16T09:20:53Z</time>
      </trkpt>
      <trkpt lat="43.44453" lon="1.4671">
        <ele>199.3</ele>
        <time>2022-05-16T09:20:54Z</time>
      </trkpt>
      <trkpt lat="43.44451" lon="1.46705">
        <ele>199.3</ele>
        <time>2022-05-16T09:20:55Z</time>
      </trkpt>
      <trkpt lat="43.4445" lon="1.46702">
        <ele>199.2</ele>
        <time>2022-05-16T09:20:56Z</time>
      </trkpt>
      <trkpt lat="43.44447" lon="1.46697">
        <ele>199.2</ele>
        <time>2022-05-16T09:20:57Z</time>
      </trkpt>
      <trkpt lat="43.44449" lon="1.46691">
        <ele>199.2</ele>
        <time>2022-05-16T09:20:58Z</time>
      </trkpt>
      <trkpt lat="43.44446" lon="1.46688">
        <ele>199.2</ele>
        <time>2022-05-16T09:20:59Z</time>
      </trkpt>
      <trkpt lat="43.44446" lon="1.46684">
        <ele>199.2</ele>
        <time>2022-05-16T09:21:00Z</time>
      </trkpt>
      <trkpt lat="43.44448" lon="1.4668">
        <ele>199.1</ele>
        <time>2022-05-16T09:21:01Z</time>
      </trkpt>
      <trkpt lat="43.44449" lon="1.46676">
        <ele>199.1</ele>
        <time>2022-05-16T09:21:02Z</time>
      </trkpt>
      <trkpt lat="43.44446" lon="1.46672">
        <ele>199.1</ele>
        <time>2022-05-16T09:21:03Z</time>
      </trkpt>
      <trkpt lat="43.44445" lon="1.4667">
        <ele>199.1</ele>
        <time>2022-05-16T09:21:04Z</time>
      </trkpt>
      <trkpt lat="43.44443" lon="1.46665">
        <ele>199</ele>
        <time>2022-05-16T09:21:05Z</time>
      </trkpt>
      <trkpt lat="43.44441" lon="1.46657">
        <ele>199</ele>
        <time>2022-05-16T09:21:06Z</time>
      </trkpt>
      <trkpt lat="43.4444" lon="1.46652">
        <ele>199</ele>
        <time>2022-05-16T09:21:07Z</time>
      </trkpt>
      <trkpt lat="43.44438" lon="1.46647">
        <ele>199</ele>
        <time>2022-05-16T09:21:08Z</time>
      </trkpt>
      <trkpt lat="43.44436" lon="1.46647">
        <ele>199</ele>
        <time>2022-05-16T09:21:09Z</time>
      </trkpt>
      <trkpt lat="43.44434" lon="1.46647">
        <ele>199</ele>
        <time>2022-05-16T09:21:10Z</time>
      </trkpt>
      <trkpt lat="43.44432" lon="1.46646">
        <ele>199</ele>
        <time>2022-05-16T09:21:11Z</time>
      </trkpt>
      <trkpt lat="43.44429" lon="1.46646">
        <ele>199</ele>
        <time>2022-05-16T09:21:12Z</time>
      </trkpt>
      <trkpt lat="43.44426" lon="1.46644">
        <ele>199</ele>
        <time>2022-05-16T09:21:13Z</time>
      </trkpt>
      <trkpt lat="43.44424" lon="1.46643">
        <ele>199.1</ele>
        <time>2022-05-16T09:21:14Z</time>
      </trkpt>
      <trkpt lat="43.44423" lon="1.46639">
        <ele>199.1</ele>
        <time>2022-05-16T09:21:15Z</time>
      </trkpt>
      <trkpt lat="43.44422" lon="1.46633">
        <ele>199.1</ele>
        <time>2022-05-16T09:21:16Z</time>
      </trkpt>
      <trkpt lat="43.44423" lon="1.46626">
        <ele>199.1</ele>
        <time>2022-05-16T09:21:17Z</time>
      </trkpt>
      <trkpt lat="43.44421" lon="1.46622">
        <ele>199.1</ele>
        <time>2022-05-16T09:21:18Z</time>
      </trkpt>
      <trkpt lat="43.4442" lon="1.4662">
        <ele>199.1</ele>
        <time>2022-05-16T09:21:19Z</time>
      </trkpt>
      <trkpt lat="43.44417" lon="1.46617">
        <ele>199.1</ele>
        <time>2022-05-16T09:21:20Z</time>
      </trkpt>
      <trkpt lat="43.44417" lon="1.46613">
        <ele>199.1</ele>
        <time>2022-05-16T09:21:21Z</time>
      </trkpt>
      <trkpt lat="43.44418" lon="1.46609">
        <ele>199.1</ele>
        <time>2022-05-16T09:21:22Z</time>
      </trkpt>
      <trkpt lat="43.44417" lon="1.46603">
        <ele>199.1</ele>
        <time>2022-05-16T09:21:23Z</time>
      </trkpt>
      <trkpt lat="43.44419" lon="1.46597">
        <ele>199.1</ele>
        <time>2022-05-16T09:21:24Z</time>
      </trkpt>
      <trkpt lat="43.44419" lon="1.46593">
        <ele>199.1</ele>
        <time>2022-05-16T09:21:25Z</time>
      </trkpt>
      <trkpt lat="43.44416" lon="1.46591">
        <ele>199.1</ele>
        <time>2022-05-16T09:21:26Z</time>
      </trkpt>
      <trkpt lat="43.44413" lon="1.46587">
        <ele>199</ele>
        <time>2022-05-16T09:21:27Z</time>
      </trkpt>
      <trkpt lat="43.4441" lon="1.46584">
        <ele>199</ele>
        <time>2022-05-16T09:21:28Z</time>
      </trkpt>
      <trkpt lat="43.44408" lon="1.46579">
        <ele>199</ele>
        <time>2022-05-16T09:21:29Z</time>
      </trkpt>
      <trkpt lat="43.44408" lon="1.46574">
        <ele>198.9</ele>
        <time>2022-05-16T09:21:30Z</time>
      </trkpt>
      <trkpt lat="43.44409" lon="1.46571">
        <ele>198.9</ele>
        <time>2022-05-16T09:21:31Z</time>
      </trkpt>
      <trkpt lat="43.4441" lon="1.46566">
        <ele>198.9</ele>
        <time>2022-05-16T09:21:32Z</time>
      </trkpt>
      <trkpt lat="43.44407" lon="1.46565">
        <ele>198.9</ele>
        <time>2022-05-16T09:21:33Z</time>
      </trkpt>
      <trkpt lat="43.44406" lon="1.46563">
        <ele>198.8</ele>
        <time>2022-05-16T09:21:34Z</time>
      </trkpt>
      <trkpt lat="43.44405" lon="1.46558">
        <ele>198.8</ele>
        <time>2022-05-16T09:21:35Z</time>
      </trkpt>
      <trkpt lat="43.44405" lon="1.46553">
        <ele>198.8</ele>
        <time>2022-05-16T09:21:36Z</time>
      </trkpt>
      <trkpt lat="43.44404" lon="1.46552">
        <ele>198.8</ele>
        <time>2022-05-16T09:21:37Z</time>
      </trkpt>
      <trkpt lat="43.44402" lon="1.4655">
        <ele>198.7</ele>
        <time>2022-05-16T09:21:38Z</time>
      </trkpt>
      <trkpt lat="43.44402" lon="1.46544">
        <ele>198.6</ele>
        <time>2022-05-16T09:21:39Z</time>
      </trkpt>
      <trkpt lat="43.44402" lon="1.46541">
        <ele>198.6</ele>
        <time>2022-05-16T09:21:40Z</time>
      </trkpt>
      <trkpt lat="43.44402" lon="1.46535">
        <ele>198.5</ele>
        <time>2022-05-16T09:21:41Z</time>
      </trkpt>
      <trkpt lat="43.44401" lon="1.46531">
        <ele>198.5</ele>
        <time>2022-05-16T09:21:42Z</time>
      </trkpt>
      <trkpt lat="43.44398" lon="1.46527">
        <ele>198.4</ele>
        <time>2022-05-16T09:21:43Z</time>
      </trkpt>
      <trkpt lat="43.44397" lon="1.46526">
        <ele>198.4</ele>
        <time>2022-05-16T09:21:44Z</time>
      </trkpt>
      <trkpt lat="43.44395" lon="1.46521">
        <ele>198.3</ele>
        <time>2022-05-16T09:21:45Z</time>
      </trkpt>
      <trkpt lat="43.44395" lon="1.46519">
        <ele>198.3</ele>
        <time>2022-05-16T09:21:46Z</time>
      </trkpt>
      <trkpt lat="43.44393" lon="1.46516">
        <ele>198.2</ele>
        <time>2022-05-16T09:21:47Z</time>
      </trkpt>
      <trkpt lat="43.44392" lon="1.46513">
        <ele>198.2</ele>
        <time>2022-05-16T09:21:48Z</time>
      </trkpt>
      <trkpt lat="43.44393" lon="1.46507">
        <ele>198</ele>
        <time>2022-05-16T09:21:49Z</time>
      </trkpt>
      <trkpt lat="43.44393" lon="1.46503">
        <ele>197.9</ele>
        <time>2022-05-16T09:21:50Z</time>
      </trkpt>
      <trkpt lat="43.44394" lon="1.46498">
        <ele>197.8</ele>
        <time>2022-05-16T09:21:51Z</time>
      </trkpt>
      <trkpt lat="43.44394" lon="1.46494">
        <ele>197.7</ele>
        <time>2022-05-16T09:21:52Z</time>
      </trkpt>
      <trkpt lat="43.44392" lon="1.4649">
        <ele>197.7</ele>
        <time>2022-05-16T09:21:53Z</time>
      </trkpt>
      <trkpt lat="43.44391" lon="1.46485">
        <ele>197.6</ele>
        <time>2022-05-16T09:21:54Z</time>
      </trkpt>
      <trkpt lat="43.44393" lon="1.46481">
        <ele>197.5</ele>
        <time>2022-05-16T09:21:55Z</time>
      </trkpt>
      <trkpt lat="43.44393" lon="1.46479">
        <ele>197.4</ele>
        <time>2022-05-16T09:21:56Z</time>
      </trkpt>
      <trkpt lat="43.44391" lon="1.46477">
        <ele>197.4</ele>
        <time>2022-05-16T09:21:57Z</time>
      </trkpt>
      <trkpt lat="43.44389" lon="1.46475">
        <ele>197.3</ele>
        <time>2022-05-16T09:21:58Z</time>
      </trkpt>
      <trkpt lat="43.44387" lon="1.46471">
        <ele>197.2</ele>
        <time>2022-05-16T09:21:59Z</time>
      </trkpt>
      <trkpt lat="43.44389" lon="1.46467">
        <ele>197.2</ele>
        <time>2022-05-16T09:22:00Z</time>
      </trkpt>
      <trkpt lat="43.44388" lon="1.46465">
        <ele>197.1</ele>
        <time>2022-05-16T09:22:01Z</time>
      </trkpt>
      <trkpt lat="43.44387" lon="1.46459">
        <ele>197.1</ele>
        <time>2022-05-16T09:22:02Z</time>
      </trkpt>
      <trkpt lat="43.44388" lon="1.46455">
        <ele>197</ele>
        <time>2022-05-16T09:22:03Z</time>
      </trkpt>
      <trkpt lat="43.44386" lon="1.46451">
        <ele>196.9</ele>
        <time>2022-05-16T09:22:04Z</time>
      </trkpt>
      <trkpt lat="43.44385" lon="1.46445">
        <ele>196.9</ele>
        <time>2022-05-16T09:22:05Z</time>
      </trkpt>
      <trkpt lat="43.44383" lon="1.46439">
        <ele>196.8</ele>
        <time>2022-05-16T09:22:06Z</time>
      </trkpt>
      <trkpt lat="43.44379" lon="1.46434">
        <ele>196.7</ele>
        <time>2022-05-16T09:22:07Z</time>
      </trkpt>
      <trkpt lat="43.44377" lon="1.46429">
        <ele>196.7</ele>
        <time>2022-05-16T09:22:08Z</time>
      </trkpt>
      <trkpt lat="43.44374" lon="1.46429">
        <ele>196.6</ele>
        <time>2022-05-16T09:22:09Z</time>
      </trkpt>
      <trkpt lat="43.44371" lon="1.4643">
        <ele>196.6</ele>
        <time>2022-05-16T09:22:10Z</time>
      </trkpt>
      <trkpt lat="43.44371" lon="1.46426">
        <ele>196.6</ele>
        <time>2022-05-16T09:22:11Z</time>
      </trkpt>
      <trkpt lat="43.44371" lon="1.46424">
        <ele>196.5</ele>
        <time>2022-05-16T09:22:12Z</time>
      </trkpt>
      <trkpt lat="43.44373" lon="1.46418">
        <ele>196.5</ele>
        <time>2022-05-16T09:22:13Z</time>
      </trkpt>
      <trkpt lat="43.44374" lon="1.46414">
        <ele>196.5</ele>
        <time>2022-05-16T09:22:14Z</time>
      </trkpt>
      <trkpt lat="43.44371" lon="1.46412">
        <ele>196.4</ele>
        <time>2022-05-16T09:22:15Z</time>
      </trkpt>
      <trkpt lat="43.4437" lon="1.4641">
        <ele>196.4</ele>
        <time>2022-05-16T09:22:16Z</time>
      </trkpt>
      <trkpt lat="43.44368" lon="1.46406">
        <ele>196.4</ele>
        <time>2022-05-16T09:22:17Z</time>
      </trkpt>
      <trkpt lat="43.44364" lon="1.46401">
        <ele>196.3</ele>
        <time>2022-05-16T09:22:18Z</time>
      </trkpt>
      <trkpt lat="43.44363" lon="1.46394">
        <ele>196.3</ele>
        <time>2022-05-16T09:22:19Z</time>
      </trkpt>
      <trkpt lat="43.44361" lon="1.46388">
        <ele>196.3</ele>
        <time>2022-05-16T09:22:20Z</time>
      </trkpt>
      <trkpt lat="43.44358" lon="1.46384">
        <ele>196.2</ele>
        <time>2022-05-16T09:22:21Z</time>
      </trkpt>
      <trkpt lat="43.44357" lon="1.46381">
        <ele>196.2</ele>
        <time>2022-05-16T09:22:22Z</time>
      </trkpt>
      <trkpt lat="43.44357" lon="1.46378">
        <ele>196.1</ele>
        <time>2022-05-16T09:22:23Z</time>
      </trkpt>
      <trkpt lat="43.44359" lon="1.46372">
        <ele>196.1</ele>
        <time>2022-05-16T09:22:24Z</time>
      </trkpt>
      <trkpt lat="43.44359" lon="1.46368">
        <ele>196</ele>
        <time>2022-05-16T09:22:25Z</time>
      </trkpt>
      <trkpt lat="43.44358" lon="1.46362">
        <ele>195.9</ele>
        <time>2022-05-16T09:22:26Z</time>
      </trkpt>
      <trkpt lat="43.44357" lon="1.46359">
        <ele>195.9</ele>
        <time>2022-05-16T09:22:27Z</time>
      </trkpt>
      <trkpt lat="43.44355" lon="1.46353">
        <ele>195.8</ele>
        <time>2022-05-16T09:22:28Z</time>
      </trkpt>
      <trkpt lat="43.44354" lon="1.46348">
        <ele>195.7</ele>
        <time>2022-05-16T09:22:29Z</time>
      </trkpt>
      <trkpt lat="43.44352" lon="1.46345">
        <ele>195.6</ele>
        <time>2022-05-16T09:22:30Z</time>
      </trkpt>
      <trkpt lat="43.44351" lon="1.46341">
        <ele>195.6</ele>
        <time>2022-05-16T09:22:31Z</time>
      </trkpt>
      <trkpt lat="43.4435" lon="1.46336">
        <ele>195.5</ele>
        <time>2022-05-16T09:22:32Z</time>
      </trkpt>
      <trkpt lat="43.44348" lon="1.46331">
        <ele>195.4</ele>
        <time>2022-05-16T09:22:33Z</time>
      </trkpt>
      <trkpt lat="43.44348" lon="1.46327">
        <ele>195.3</ele>
        <time>2022-05-16T09:22:34Z</time>
      </trkpt>
      <trkpt lat="43.44347" lon="1.46321">
        <ele>195.2</ele>
        <time>2022-05-16T09:22:35Z</time>
      </trkpt>
      <trkpt lat="43.44344" lon="1.46315">
        <ele>195.1</ele>
        <time>2022-05-16T09:22:36Z</time>
      </trkpt>
      <trkpt lat="43.44343" lon="1.46309">
        <ele>195</ele>
        <time>2022-05-16T09:22:37Z</time>
      </trkpt>
      <trkpt lat="43.44339" lon="1.46303">
        <ele>194.9</ele>
        <time>2022-05-16T09:22:38Z</time>
      </trkpt>
      <trkpt lat="43.44337" lon="1.46301">
        <ele>194.9</ele>
        <time>2022-05-16T09:22:39Z</time>
      </trkpt>
      <trkpt lat="43.44334" lon="1.46298">
        <ele>194.9</ele>
        <time>2022-05-16T09:22:40Z</time>
      </trkpt>
      <trkpt lat="43.44331" lon="1.46295">
        <ele>194.9</ele>
        <time>2022-05-16T09:22:41Z</time>
      </trkpt>
      <trkpt lat="43.44328" lon="1.46291">
        <ele>194.8</ele>
        <time>2022-05-16T09:22:42Z</time>
      </trkpt>
      <trkpt lat="43.44328" lon="1.46288">
        <ele>194.8</ele>
        <time>2022-05-16T09:22:43Z</time>
      </trkpt>
      <trkpt lat="43.44326" lon="1.46282">
        <ele>194.8</ele>
        <time>2022-05-16T09:22:44Z</time>
      </trkpt>
      <trkpt lat="43.44323" lon="1.46279">
        <ele>194.8</ele>
        <time>2022-05-16T09:22:45Z</time>
      </trkpt>
      <trkpt lat="43.44318" lon="1.46278">
        <ele>194.8</ele>
        <time>2022-05-16T09:22:46Z</time>
      </trkpt>
      <trkpt lat="43.44314" lon="1.46276">
        <ele>194.8</ele>
        <time>2022-05-16T09:22:47Z</time>
      </trkpt>
      <trkpt lat="43.44312" lon="1.46272">
        <ele>194.8</ele>
        <time>2022-05-16T09:22:48Z</time>
      </trkpt>
      <trkpt lat="43.44311" lon="1.46268">
        <ele>194.7</ele>
        <time>2022-05-16T09:22:49Z</time>
      </trkpt>
      <trkpt lat="43.44309" lon="1.46262">
        <ele>194.7</ele>
        <time>2022-05-16T09:22:50Z</time>
      </trkpt>
      <trkpt lat="43.44309" lon="1.46257">
        <ele>194.7</ele>
        <time>2022-05-16T09:22:51Z</time>
      </trkpt>
      <trkpt lat="43.4431" lon="1.46251">
        <ele>194.6</ele>
        <time>2022-05-16T09:22:52Z</time>
      </trkpt>
      <trkpt lat="43.4431" lon="1.46245">
        <ele>194.6</ele>
        <time>2022-05-16T09:22:53Z</time>
      </trkpt>
      <trkpt lat="43.44309" lon="1.46241">
        <ele>194.5</ele>
        <time>2022-05-16T09:22:54Z</time>
      </trkpt>
      <trkpt lat="43.44308" lon="1.46236">
        <ele>194.5</ele>
        <time>2022-05-16T09:22:55Z</time>
      </trkpt>
      <trkpt lat="43.44308" lon="1.46229">
        <ele>194.4</ele>
        <time>2022-05-16T09:22:56Z</time>
      </trkpt>
      <trkpt lat="43.44307" lon="1.46224">
        <ele>194.4</ele>
        <time>2022-05-16T09:22:57Z</time>
      </trkpt>
      <trkpt lat="43.44305" lon="1.46221">
        <ele>194.3</ele>
        <time>2022-05-16T09:22:58Z</time>
      </trkpt>
      <trkpt lat="43.44303" lon="1.46217">
        <ele>194.3</ele>
        <time>2022-05-16T09:22:59Z</time>
      </trkpt>
      <trkpt lat="43.44302" lon="1.46213">
        <ele>194.2</ele>
        <time>2022-05-16T09:23:00Z</time>
      </trkpt>
      <trkpt lat="43.443" lon="1.46209">
        <ele>194.2</ele>
        <time>2022-05-16T09:23:01Z</time>
      </trkpt>
      <trkpt lat="43.44297" lon="1.46203">
        <ele>194.1</ele>
        <time>2022-05-16T09:23:02Z</time>
      </trkpt>
      <trkpt lat="43.44293" lon="1.46198">
        <ele>194</ele>
        <time>2022-05-16T09:23:03Z</time>
      </trkpt>
      <trkpt lat="43.44291" lon="1.46194">
        <ele>193.9</ele>
        <time>2022-05-16T09:23:04Z</time>
      </trkpt>
      <trkpt lat="43.44289" lon="1.46189">
        <ele>193.8</ele>
        <time>2022-05-16T09:23:05Z</time>
      </trkpt>
      <trkpt lat="43.44287" lon="1.46187">
        <ele>193.8</ele>
        <time>2022-05-16T09:23:06Z</time>
      </trkpt>
      <trkpt lat="43.44284" lon="1.46184">
        <ele>193.7</ele>
        <time>2022-05-16T09:23:07Z</time>
      </trkpt>
      <trkpt lat="43.44281" lon="1.4618">
        <ele>193.6</ele>
        <time>2022-05-16T09:23:08Z</time>
      </trkpt>
      <trkpt lat="43.44281" lon="1.46174">
        <ele>193.5</ele>
        <time>2022-05-16T09:23:09Z</time>
      </trkpt>
      <trkpt lat="43.44281" lon="1.46168">
        <ele>193.5</ele>
        <time>2022-05-16T09:23:10Z</time>
      </trkpt>
      <trkpt lat="43.44278" lon="1.46162">
        <ele>193.4</ele>
        <time>2022-05-16T09:23:11Z</time>
      </trkpt>
      <trkpt lat="43.44276" lon="1.46157">
        <ele>193.4</ele>
        <time>2022-05-16T09:23:12Z</time>
      </trkpt>
      <trkpt lat="43.44276" lon="1.46152">
        <ele>193.3</ele>
        <time>2022-05-16T09:23:13Z</time>
      </trkpt>
      <trkpt lat="43.44275" lon="1.46148">
        <ele>193.3</ele>
        <time>2022-05-16T09:23:14Z</time>
      </trkpt>
      <trkpt lat="43.44274" lon="1.46143">
        <ele>193.2</ele>
        <time>2022-05-16T09:23:15Z</time>
      </trkpt>
      <trkpt lat="43.44276" lon="1.46138">
        <ele>193.2</ele>
        <time>2022-05-16T09:23:16Z</time>
      </trkpt>
      <trkpt lat="43.44275" lon="1.46131">
        <ele>193.1</ele>
        <time>2022-05-16T09:23:17Z</time>
      </trkpt>
      <trkpt lat="43.44277" lon="1.46126">
        <ele>193</ele>
        <time>2022-05-16T09:23:18Z</time>
      </trkpt>
      <trkpt lat="43.44281" lon="1.4612">
        <ele>193</ele>
        <time>2022-05-16T09:23:19Z</time>
      </trkpt>
      <trkpt lat="43.44283" lon="1.46115">
        <ele>192.9</ele>
        <time>2022-05-16T09:23:20Z</time>
      </trkpt>
      <trkpt lat="43.44282" lon="1.4611">
        <ele>192.9</ele>
        <time>2022-05-16T09:23:21Z</time>
      </trkpt>
      <trkpt lat="43.44278" lon="1.46107">
        <ele>192.8</ele>
        <time>2022-05-16T09:23:22Z</time>
      </trkpt>
      <trkpt lat="43.44277" lon="1.46101">
        <ele>192.8</ele>
        <time>2022-05-16T09:23:23Z</time>
      </trkpt>
      <trkpt lat="43.44279" lon="1.46096">
        <ele>192.8</ele>
        <time>2022-05-16T09:23:24Z</time>
      </trkpt>
      <trkpt lat="43.44281" lon="1.46091">
        <ele>192.7</ele>
        <time>2022-05-16T09:23:25Z</time>
      </trkpt>
      <trkpt lat="43.44282" lon="1.46087">
        <ele>192.7</ele>
        <time>2022-05-16T09:23:26Z</time>
      </trkpt>
      <trkpt lat="43.44279" lon="1.46083">
        <ele>192.7</ele>
        <time>2022-05-16T09:23:27Z</time>
      </trkpt>
      <trkpt lat="43.4428" lon="1.46077">
        <ele>192.6</ele>
        <time>2022-05-16T09:23:28Z</time>
      </trkpt>
      <trkpt lat="43.44282" lon="1.46072">
        <ele>192.6</ele>
        <time>2022-05-16T09:23:29Z</time>
      </trkpt>
      <trkpt lat="43.44284" lon="1.46066">
        <ele>192.6</ele>
        <time>2022-05-16T09:23:30Z</time>
      </trkpt>
      <trkpt lat="43.44284" lon="1.46061">
        <ele>192.6</ele>
        <time>2022-05-16T09:23:31Z</time>
      </trkpt>
      <trkpt lat="43.44285" lon="1.46056">
        <ele>192.5</ele>
        <time>2022-05-16T09:23:32Z</time>
      </trkpt>
      <trkpt lat="43.44286" lon="1.46052">
        <ele>192.5</ele>
        <time>2022-05-16T09:23:33Z</time>
      </trkpt>
      <trkpt lat="43.44286" lon="1.46048">
        <ele>192.5</ele>
        <time>2022-05-16T09:23:34Z</time>
      </trkpt>
      <trkpt lat="43.44286" lon="1.46047">
        <ele>192.5</ele>
        <time>2022-05-16T09:23:35Z</time>
      </trkpt>
      <trkpt lat="43.44288" lon="1.46044">
        <ele>192.4</ele>
        <time>2022-05-16T09:23:36Z</time>
      </trkpt>
      <trkpt lat="43.44288" lon="1.46043">
        <ele>192.4</ele>
        <time>2022-05-16T09:23:37Z</time>
      </trkpt>
      <trkpt lat="43.44288" lon="1.46042">
        <ele>192.4</ele>
        <time>2022-05-16T09:23:39Z</time>
      </trkpt>
      <trkpt lat="43.44288" lon="1.46039">
        <ele>192.4</ele>
        <time>2022-05-16T09:23:40Z</time>
      </trkpt>
      <trkpt lat="43.44287" lon="1.46036">
        <ele>192.4</ele>
        <time>2022-05-16T09:23:41Z</time>
      </trkpt>
      <trkpt lat="43.44285" lon="1.4603">
        <ele>192.3</ele>
        <time>2022-05-16T09:23:42Z</time>
      </trkpt>
      <trkpt lat="43.44283" lon="1.46025">
        <ele>192.2</ele>
        <time>2022-05-16T09:23:43Z</time>
      </trkpt>
      <trkpt lat="43.44281" lon="1.46018">
        <ele>192.1</ele>
        <time>2022-05-16T09:23:44Z</time>
      </trkpt>
      <trkpt lat="43.44279" lon="1.46014">
        <ele>192.1</ele>
        <time>2022-05-16T09:23:45Z</time>
      </trkpt>
      <trkpt lat="43.44276" lon="1.46011">
        <ele>192</ele>
        <time>2022-05-16T09:23:46Z</time>
      </trkpt>
      <trkpt lat="43.44277" lon="1.46007">
        <ele>192</ele>
        <time>2022-05-16T09:23:47Z</time>
      </trkpt>
      <trkpt lat="43.44276" lon="1.46006">
        <ele>192</ele>
        <time>2022-05-16T09:23:48Z</time>
      </trkpt>
      <trkpt lat="43.44273" lon="1.46003">
        <ele>191.9</ele>
        <time>2022-05-16T09:23:49Z</time>
      </trkpt>
      <trkpt lat="43.44269" lon="1.46">
        <ele>191.9</ele>
        <time>2022-05-16T09:23:50Z</time>
      </trkpt>
      <trkpt lat="43.44266" lon="1.45997">
        <ele>191.8</ele>
        <time>2022-05-16T09:23:51Z</time>
      </trkpt>
      <trkpt lat="43.44263" lon="1.45995">
        <ele>191.8</ele>
        <time>2022-05-16T09:23:52Z</time>
      </trkpt>
      <trkpt lat="43.44261" lon="1.45994">
        <ele>191.8</ele>
        <time>2022-05-16T09:23:53Z</time>
      </trkpt>
      <trkpt lat="43.44258" lon="1.4599">
        <ele>191.7</ele>
        <time>2022-05-16T09:23:54Z</time>
      </trkpt>
      <trkpt lat="43.44256" lon="1.45984">
        <ele>191.7</ele>
        <time>2022-05-16T09:23:55Z</time>
      </trkpt>
      <trkpt lat="43.44257" lon="1.45979">
        <ele>191.6</ele>
        <time>2022-05-16T09:23:56Z</time>
      </trkpt>
      <trkpt lat="43.44257" lon="1.45974">
        <ele>191.5</ele>
        <time>2022-05-16T09:23:57Z</time>
      </trkpt>
      <trkpt lat="43.44256" lon="1.4597">
        <ele>191.5</ele>
        <time>2022-05-16T09:23:58Z</time>
      </trkpt>
      <trkpt lat="43.44254" lon="1.45967">
        <ele>191.5</ele>
        <time>2022-05-16T09:23:59Z</time>
      </trkpt>
      <trkpt lat="43.44254" lon="1.45962">
        <ele>191.5</ele>
        <time>2022-05-16T09:24:00Z</time>
      </trkpt>
      <trkpt lat="43.44255" lon="1.45957">
        <ele>191.3</ele>
        <time>2022-05-16T09:24:01Z</time>
      </trkpt>
      <trkpt lat="43.44253" lon="1.45952">
        <ele>191.2</ele>
        <time>2022-05-16T09:24:02Z</time>
      </trkpt>
      <trkpt lat="43.44248" lon="1.45951">
        <ele>191.1</ele>
        <time>2022-05-16T09:24:03Z</time>
      </trkpt>
      <trkpt lat="43.44246" lon="1.45951">
        <ele>191</ele>
        <time>2022-05-16T09:24:04Z</time>
      </trkpt>
      <trkpt lat="43.44241" lon="1.45953">
        <ele>190.9</ele>
        <time>2022-05-16T09:24:05Z</time>
      </trkpt>
      <trkpt lat="43.44237" lon="1.45952">
        <ele>190.9</ele>
        <time>2022-05-16T09:24:06Z</time>
      </trkpt>
      <trkpt lat="43.44235" lon="1.45948">
        <ele>190.8</ele>
        <time>2022-05-16T09:24:07Z</time>
      </trkpt>
      <trkpt lat="43.44235" lon="1.45947">
        <ele>190.8</ele>
        <time>2022-05-16T09:24:08Z</time>
      </trkpt>
      <trkpt lat="43.44234" lon="1.45944">
        <ele>190.7</ele>
        <time>2022-05-16T09:24:09Z</time>
      </trkpt>
      <trkpt lat="43.44235" lon="1.45938">
        <ele>190.7</ele>
        <time>2022-05-16T09:24:10Z</time>
      </trkpt>
      <trkpt lat="43.44235" lon="1.45936">
        <ele>190.6</ele>
        <time>2022-05-16T09:24:11Z</time>
      </trkpt>
      <trkpt lat="43.44236" lon="1.45931">
        <ele>190.6</ele>
        <time>2022-05-16T09:24:12Z</time>
      </trkpt>
      <trkpt lat="43.44237" lon="1.45929">
        <ele>190.6</ele>
        <time>2022-05-16T09:24:13Z</time>
      </trkpt>
      <trkpt lat="43.44238" lon="1.45925">
        <ele>190.6</ele>
        <time>2022-05-16T09:24:14Z</time>
      </trkpt>
      <trkpt lat="43.44237" lon="1.45921">
        <ele>190.6</ele>
        <time>2022-05-16T09:24:15Z</time>
      </trkpt>
      <trkpt lat="43.44234" lon="1.4592">
        <ele>190.6</ele>
        <time>2022-05-16T09:24:16Z</time>
      </trkpt>
      <trkpt lat="43.44232" lon="1.45916">
        <ele>190.6</ele>
        <time>2022-05-16T09:24:17Z</time>
      </trkpt>
      <trkpt lat="43.44232" lon="1.45911">
        <ele>190.7</ele>
        <time>2022-05-16T09:24:18Z</time>
      </trkpt>
      <trkpt lat="43.44232" lon="1.45905">
        <ele>190.8</ele>
        <time>2022-05-16T09:24:19Z</time>
      </trkpt>
      <trkpt lat="43.44232" lon="1.45902">
        <ele>190.9</ele>
        <time>2022-05-16T09:24:20Z</time>
      </trkpt>
      <trkpt lat="43.44233" lon="1.45895">
        <ele>191.1</ele>
        <time>2022-05-16T09:24:21Z</time>
      </trkpt>
      <trkpt lat="43.44233" lon="1.45892">
        <ele>191.2</ele>
        <time>2022-05-16T09:24:22Z</time>
      </trkpt>
      <trkpt lat="43.44234" lon="1.45888">
        <ele>191.4</ele>
        <time>2022-05-16T09:24:23Z</time>
      </trkpt>
      <trkpt lat="43.44234" lon="1.45883">
        <ele>191.7</ele>
        <time>2022-05-16T09:24:24Z</time>
      </trkpt>
      <trkpt lat="43.44232" lon="1.45877">
        <ele>192.1</ele>
        <time>2022-05-16T09:24:25Z</time>
      </trkpt>
      <trkpt lat="43.44231" lon="1.45875">
        <ele>192.3</ele>
        <time>2022-05-16T09:24:26Z</time>
      </trkpt>
      <trkpt lat="43.44228" lon="1.4587">
        <ele>192.7</ele>
        <time>2022-05-16T09:24:27Z</time>
      </trkpt>
      <trkpt lat="43.44225" lon="1.45866">
        <ele>193.2</ele>
        <time>2022-05-16T09:24:28Z</time>
      </trkpt>
      <trkpt lat="43.44224" lon="1.45862">
        <ele>193.6</ele>
        <time>2022-05-16T09:24:29Z</time>
      </trkpt>
      <trkpt lat="43.44222" lon="1.45858">
        <ele>194</ele>
        <time>2022-05-16T09:24:30Z</time>
      </trkpt>
      <trkpt lat="43.4422" lon="1.45855">
        <ele>194.4</ele>
        <time>2022-05-16T09:24:31Z</time>
      </trkpt>
      <trkpt lat="43.44218" lon="1.45851">
        <ele>194.8</ele>
        <time>2022-05-16T09:24:32Z</time>
      </trkpt>
      <trkpt lat="43.44217" lon="1.45847">
        <ele>195.3</ele>
        <time>2022-05-16T09:24:33Z</time>
      </trkpt>
      <trkpt lat="43.44215" lon="1.45844">
        <ele>195.7</ele>
        <time>2022-05-16T09:24:34Z</time>
      </trkpt>
      <trkpt lat="43.44213" lon="1.4584">
        <ele>196.1</ele>
        <time>2022-05-16T09:24:35Z</time>
      </trkpt>
      <trkpt lat="43.44211" lon="1.45838">
        <ele>196.5</ele>
        <time>2022-05-16T09:24:36Z</time>
      </trkpt>
      <trkpt lat="43.44208" lon="1.45835">
        <ele>197</ele>
        <time>2022-05-16T09:24:37Z</time>
      </trkpt>
      <trkpt lat="43.44207" lon="1.45833">
        <ele>197.2</ele>
        <time>2022-05-16T09:24:38Z</time>
      </trkpt>
      <trkpt lat="43.44204" lon="1.45831">
        <ele>197.6</ele>
        <time>2022-05-16T09:24:39Z</time>
      </trkpt>
      <trkpt lat="43.44201" lon="1.4583">
        <ele>198</ele>
        <time>2022-05-16T09:24:40Z</time>
      </trkpt>
      <trkpt lat="43.44198" lon="1.45829">
        <ele>198.4</ele>
        <time>2022-05-16T09:24:41Z</time>
      </trkpt>
      <trkpt lat="43.44197" lon="1.45829">
        <ele>198.5</ele>
        <time>2022-05-16T09:24:42Z</time>
      </trkpt>
      <trkpt lat="43.44194" lon="1.45827">
        <ele>198.9</ele>
        <time>2022-05-16T09:24:43Z</time>
      </trkpt>
      <trkpt lat="43.44191" lon="1.45825">
        <ele>199.2</ele>
        <time>2022-05-16T09:24:44Z</time>
      </trkpt>
      <trkpt lat="43.4419" lon="1.45824">
        <ele>199.3</ele>
        <time>2022-05-16T09:24:45Z</time>
      </trkpt>
      <trkpt lat="43.44186" lon="1.45824">
        <ele>199.7</ele>
        <time>2022-05-16T09:24:46Z</time>
      </trkpt>
      <trkpt lat="43.44184" lon="1.45823">
        <ele>199.7</ele>
        <time>2022-05-16T09:24:47Z</time>
      </trkpt>
      <trkpt lat="43.44181" lon="1.45822">
        <ele>200</ele>
        <time>2022-05-16T09:24:48Z</time>
      </trkpt>
      <trkpt lat="43.44179" lon="1.45821">
        <ele>200</ele>
        <time>2022-05-16T09:24:49Z</time>
      </trkpt>
      <trkpt lat="43.44176" lon="1.4582">
        <ele>200.2</ele>
        <time>2022-05-16T09:24:50Z</time>
      </trkpt>
      <trkpt lat="43.44175" lon="1.45819">
        <ele>200.2</ele>
        <time>2022-05-16T09:24:51Z</time>
      </trkpt>
      <trkpt lat="43.44172" lon="1.45818">
        <ele>200.3</ele>
        <time>2022-05-16T09:24:52Z</time>
      </trkpt>
      <trkpt lat="43.44169" lon="1.45816">
        <ele>200.4</ele>
        <time>2022-05-16T09:24:53Z</time>
      </trkpt>
      <trkpt lat="43.44166" lon="1.45815">
        <ele>200.4</ele>
        <time>2022-05-16T09:24:54Z</time>
      </trkpt>
      <trkpt lat="43.44165" lon="1.45814">
        <ele>200.5</ele>
        <time>2022-05-16T09:24:55Z</time>
      </trkpt>
      <trkpt lat="43.44161" lon="1.45813">
        <ele>200.5</ele>
        <time>2022-05-16T09:24:56Z</time>
      </trkpt>
      <trkpt lat="43.44158" lon="1.45813">
        <ele>200.5</ele>
        <time>2022-05-16T09:24:57Z</time>
      </trkpt>
      <trkpt lat="43.44155" lon="1.45813">
        <ele>200.6</ele>
        <time>2022-05-16T09:24:58Z</time>
      </trkpt>
      <trkpt lat="43.44151" lon="1.45814">
        <ele>200.6</ele>
        <time>2022-05-16T09:24:59Z</time>
      </trkpt>
      <trkpt lat="43.44147" lon="1.45815">
        <ele>200.7</ele>
        <time>2022-05-16T09:25:00Z</time>
      </trkpt>
      <trkpt lat="43.44143" lon="1.45816">
        <ele>200.7</ele>
        <time>2022-05-16T09:25:01Z</time>
      </trkpt>
      <trkpt lat="43.44139" lon="1.45816">
        <ele>200.8</ele>
        <time>2022-05-16T09:25:02Z</time>
      </trkpt>
      <trkpt lat="43.44135" lon="1.45816">
        <ele>200.9</ele>
        <time>2022-05-16T09:25:03Z</time>
      </trkpt>
      <trkpt lat="43.44132" lon="1.45815">
        <ele>201</ele>
        <time>2022-05-16T09:25:04Z</time>
      </trkpt>
      <trkpt lat="43.44128" lon="1.45813">
        <ele>201.2</ele>
        <time>2022-05-16T09:25:05Z</time>
      </trkpt>
      <trkpt lat="43.44125" lon="1.45811">
        <ele>201.3</ele>
        <time>2022-05-16T09:25:06Z</time>
      </trkpt>
      <trkpt lat="43.44122" lon="1.45808">
        <ele>201.4</ele>
        <time>2022-05-16T09:25:07Z</time>
      </trkpt>
      <trkpt lat="43.4412" lon="1.45805">
        <ele>201.4</ele>
        <time>2022-05-16T09:25:08Z</time>
      </trkpt>
      <trkpt lat="43.44117" lon="1.45801">
        <ele>201.6</ele>
        <time>2022-05-16T09:25:09Z</time>
      </trkpt>
      <trkpt lat="43.44115" lon="1.45798">
        <ele>201.7</ele>
        <time>2022-05-16T09:25:10Z</time>
      </trkpt>
      <trkpt lat="43.44112" lon="1.45795">
        <ele>201.8</ele>
        <time>2022-05-16T09:25:11Z</time>
      </trkpt>
      <trkpt lat="43.44109" lon="1.45792">
        <ele>201.9</ele>
        <time>2022-05-16T09:25:12Z</time>
      </trkpt>
      <trkpt lat="43.44106" lon="1.45789">
        <ele>202</ele>
        <time>2022-05-16T09:25:13Z</time>
      </trkpt>
      <trkpt lat="43.44102" lon="1.45786">
        <ele>202.1</ele>
        <time>2022-05-16T09:25:14Z</time>
      </trkpt>
      <trkpt lat="43.44099" lon="1.45784">
        <ele>202.3</ele>
        <time>2022-05-16T09:25:15Z</time>
      </trkpt>
      <trkpt lat="43.44096" lon="1.4578">
        <ele>202.4</ele>
        <time>2022-05-16T09:25:16Z</time>
      </trkpt>
      <trkpt lat="43.44093" lon="1.45777">
        <ele>202.6</ele>
        <time>2022-05-16T09:25:17Z</time>
      </trkpt>
      <trkpt lat="43.4409" lon="1.45774">
        <ele>202.8</ele>
        <time>2022-05-16T09:25:18Z</time>
      </trkpt>
      <trkpt lat="43.44087" lon="1.45771">
        <ele>202.9</ele>
        <time>2022-05-16T09:25:19Z</time>
      </trkpt>
      <trkpt lat="43.44084" lon="1.45768">
        <ele>203.1</ele>
        <time>2022-05-16T09:25:20Z</time>
      </trkpt>
      <trkpt lat="43.44081" lon="1.45765">
        <ele>203.3</ele>
        <time>2022-05-16T09:25:21Z</time>
      </trkpt>
      <trkpt lat="43.44078" lon="1.45762">
        <ele>203.5</ele>
        <time>2022-05-16T09:25:22Z</time>
      </trkpt>
      <trkpt lat="43.44074" lon="1.4576">
        <ele>203.7</ele>
        <time>2022-05-16T09:25:23Z</time>
      </trkpt>
      <trkpt lat="43.44071" lon="1.45757">
        <ele>203.9</ele>
        <time>2022-05-16T09:25:24Z</time>
      </trkpt>
      <trkpt lat="43.44068" lon="1.45754">
        <ele>204.1</ele>
        <time>2022-05-16T09:25:25Z</time>
      </trkpt>
      <trkpt lat="43.44065" lon="1.4575">
        <ele>204.3</ele>
        <time>2022-05-16T09:25:26Z</time>
      </trkpt>
      <trkpt lat="43.44062" lon="1.45747">
        <ele>204.5</ele>
        <time>2022-05-16T09:25:27Z</time>
      </trkpt>
      <trkpt lat="43.44059" lon="1.45745">
        <ele>204.7</ele>
        <time>2022-05-16T09:25:28Z</time>
      </trkpt>
      <trkpt lat="43.44056" lon="1.45742">
        <ele>204.9</ele>
        <time>2022-05-16T09:25:29Z</time>
      </trkpt>
      <trkpt lat="43.44053" lon="1.45739">
        <ele>205.1</ele>
        <time>2022-05-16T09:25:30Z</time>
      </trkpt>
      <trkpt lat="43.44051" lon="1.45736">
        <ele>205.3</ele>
        <time>2022-05-16T09:25:31Z</time>
      </trkpt>
      <trkpt lat="43.44047" lon="1.45733">
        <ele>205.5</ele>
        <time>2022-05-16T09:25:32Z</time>
      </trkpt>
      <trkpt lat="43.44045" lon="1.4573">
        <ele>205.7</ele>
        <time>2022-05-16T09:25:33Z</time>
      </trkpt>
      <trkpt lat="43.44042" lon="1.45727">
        <ele>205.9</ele>
        <time>2022-05-16T09:25:34Z</time>
      </trkpt>
      <trkpt lat="43.44039" lon="1.45723">
        <ele>206.1</ele>
        <time>2022-05-16T09:25:35Z</time>
      </trkpt>
      <trkpt lat="43.44036" lon="1.4572">
        <ele>206.3</ele>
        <time>2022-05-16T09:25:36Z</time>
      </trkpt>
      <trkpt lat="43.44033" lon="1.45716">
        <ele>206.5</ele>
        <time>2022-05-16T09:25:37Z</time>
      </trkpt>
      <trkpt lat="43.4403" lon="1.45713">
        <ele>206.7</ele>
        <time>2022-05-16T09:25:38Z</time>
      </trkpt>
      <trkpt lat="43.44027" lon="1.4571">
        <ele>206.9</ele>
        <time>2022-05-16T09:25:39Z</time>
      </trkpt>
      <trkpt lat="43.44024" lon="1.45707">
        <ele>207.2</ele>
        <time>2022-05-16T09:25:40Z</time>
      </trkpt>
      <trkpt lat="43.44021" lon="1.45704">
        <ele>207.4</ele>
        <time>2022-05-16T09:25:41Z</time>
      </trkpt>
      <trkpt lat="43.44019" lon="1.45701">
        <ele>207.6</ele>
        <time>2022-05-16T09:25:42Z</time>
      </trkpt>
      <trkpt lat="43.44015" lon="1.45698">
        <ele>207.9</ele>
        <time>2022-05-16T09:25:43Z</time>
      </trkpt>
      <trkpt lat="43.44013" lon="1.45695">
        <ele>208.2</ele>
        <time>2022-05-16T09:25:44Z</time>
      </trkpt>
      <trkpt lat="43.4401" lon="1.45692">
        <ele>208.4</ele>
        <time>2022-05-16T09:25:45Z</time>
      </trkpt>
      <trkpt lat="43.44008" lon="1.45689">
        <ele>208.7</ele>
        <time>2022-05-16T09:25:46Z</time>
      </trkpt>
      <trkpt lat="43.44005" lon="1.45687">
        <ele>209</ele>
        <time>2022-05-16T09:25:47Z</time>
      </trkpt>
      <trkpt lat="43.44002" lon="1.45684">
        <ele>209.2</ele>
        <time>2022-05-16T09:25:48Z</time>
      </trkpt>
      <trkpt lat="43.44" lon="1.45681">
        <ele>209.5</ele>
        <time>2022-05-16T09:25:49Z</time>
      </trkpt>
      <trkpt lat="43.43997" lon="1.45679">
        <ele>209.8</ele>
        <time>2022-05-16T09:25:50Z</time>
      </trkpt>
      <trkpt lat="43.43994" lon="1.45677">
        <ele>210</ele>
        <time>2022-05-16T09:25:51Z</time>
      </trkpt>
      <trkpt lat="43.43992" lon="1.45674">
        <ele>210.3</ele>
        <time>2022-05-16T09:25:52Z</time>
      </trkpt>
      <trkpt lat="43.4399" lon="1.45671">
        <ele>210.6</ele>
        <time>2022-05-16T09:25:53Z</time>
      </trkpt>
      <trkpt lat="43.43987" lon="1.45668">
        <ele>210.8</ele>
        <time>2022-05-16T09:25:54Z</time>
      </trkpt>
      <trkpt lat="43.43985" lon="1.45666">
        <ele>211.1</ele>
        <time>2022-05-16T09:25:55Z</time>
      </trkpt>
      <trkpt lat="43.43983" lon="1.45663">
        <ele>211.3</ele>
        <time>2022-05-16T09:25:56Z</time>
      </trkpt>
      <trkpt lat="43.43981" lon="1.4566">
        <ele>211.6</ele>
        <time>2022-05-16T09:25:57Z</time>
      </trkpt>
      <trkpt lat="43.43978" lon="1.45656">
        <ele>211.9</ele>
        <time>2022-05-16T09:25:58Z</time>
      </trkpt>
      <trkpt lat="43.43977" lon="1.45653">
        <ele>212.1</ele>
        <time>2022-05-16T09:25:59Z</time>
      </trkpt>
      <trkpt lat="43.43975" lon="1.45649">
        <ele>212.4</ele>
        <time>2022-05-16T09:26:00Z</time>
      </trkpt>
      <trkpt lat="43.43974" lon="1.45645">
        <ele>212.6</ele>
        <time>2022-05-16T09:26:01Z</time>
      </trkpt>
      <trkpt lat="43.43972" lon="1.45642">
        <ele>212.9</ele>
        <time>2022-05-16T09:26:02Z</time>
      </trkpt>
      <trkpt lat="43.43971" lon="1.45638">
        <ele>213.1</ele>
        <time>2022-05-16T09:26:03Z</time>
      </trkpt>
      <trkpt lat="43.43969" lon="1.45634">
        <ele>213.4</ele>
        <time>2022-05-16T09:26:04Z</time>
      </trkpt>
      <trkpt lat="43.43967" lon="1.4563">
        <ele>213.7</ele>
        <time>2022-05-16T09:26:05Z</time>
      </trkpt>
      <trkpt lat="43.43966" lon="1.45626">
        <ele>213.9</ele>
        <time>2022-05-16T09:26:06Z</time>
      </trkpt>
      <trkpt lat="43.43964" lon="1.45623">
        <ele>214.2</ele>
        <time>2022-05-16T09:26:07Z</time>
      </trkpt>
      <trkpt lat="43.43962" lon="1.4562">
        <ele>214.5</ele>
        <time>2022-05-16T09:26:08Z</time>
      </trkpt>
      <trkpt lat="43.43959" lon="1.45618">
        <ele>214.8</ele>
        <time>2022-05-16T09:26:09Z</time>
      </trkpt>
      <trkpt lat="43.43956" lon="1.45616">
        <ele>215.2</ele>
        <time>2022-05-16T09:26:10Z</time>
      </trkpt>
      <trkpt lat="43.43954" lon="1.45614">
        <ele>215.5</ele>
        <time>2022-05-16T09:26:11Z</time>
      </trkpt>
      <trkpt lat="43.43951" lon="1.45612">
        <ele>215.8</ele>
        <time>2022-05-16T09:26:12Z</time>
      </trkpt>
      <trkpt lat="43.43948" lon="1.45609">
        <ele>216.2</ele>
        <time>2022-05-16T09:26:13Z</time>
      </trkpt>
      <trkpt lat="43.43945" lon="1.45608">
        <ele>216.6</ele>
        <time>2022-05-16T09:26:14Z</time>
      </trkpt>
      <trkpt lat="43.43942" lon="1.45605">
        <ele>217.1</ele>
        <time>2022-05-16T09:26:15Z</time>
      </trkpt>
      <trkpt lat="43.4394" lon="1.45604">
        <ele>217.3</ele>
        <time>2022-05-16T09:26:16Z</time>
      </trkpt>
      <trkpt lat="43.43936" lon="1.45602">
        <ele>217.8</ele>
        <time>2022-05-16T09:26:17Z</time>
      </trkpt>
      <trkpt lat="43.43935" lon="1.456">
        <ele>218</ele>
        <time>2022-05-16T09:26:18Z</time>
      </trkpt>
      <trkpt lat="43.43932" lon="1.45599">
        <ele>218.4</ele>
        <time>2022-05-16T09:26:19Z</time>
      </trkpt>
      <trkpt lat="43.4393" lon="1.45597">
        <ele>218.8</ele>
        <time>2022-05-16T09:26:20Z</time>
      </trkpt>
      <trkpt lat="43.43927" lon="1.45595">
        <ele>219.2</ele>
        <time>2022-05-16T09:26:21Z</time>
      </trkpt>
      <trkpt lat="43.43924" lon="1.45593">
        <ele>219.7</ele>
        <time>2022-05-16T09:26:22Z</time>
      </trkpt>
      <trkpt lat="43.43921" lon="1.45591">
        <ele>220.1</ele>
        <time>2022-05-16T09:26:23Z</time>
      </trkpt>
      <trkpt lat="43.43918" lon="1.45589">
        <ele>220.5</ele>
        <time>2022-05-16T09:26:24Z</time>
      </trkpt>
      <trkpt lat="43.43915" lon="1.45588">
        <ele>220.9</ele>
        <time>2022-05-16T09:26:25Z</time>
      </trkpt>
      <trkpt lat="43.43912" lon="1.45586">
        <ele>221.4</ele>
        <time>2022-05-16T09:26:26Z</time>
      </trkpt>
      <trkpt lat="43.43909" lon="1.45584">
        <ele>221.7</ele>
        <time>2022-05-16T09:26:27Z</time>
      </trkpt>
      <trkpt lat="43.43906" lon="1.45582">
        <ele>222.1</ele>
        <time>2022-05-16T09:26:28Z</time>
      </trkpt>
      <trkpt lat="43.43903" lon="1.4558">
        <ele>222.4</ele>
        <time>2022-05-16T09:26:29Z</time>
      </trkpt>
      <trkpt lat="43.439" lon="1.45577">
        <ele>222.7</ele>
        <time>2022-05-16T09:26:30Z</time>
      </trkpt>
      <trkpt lat="43.43897" lon="1.45576">
        <ele>223</ele>
        <time>2022-05-16T09:26:31Z</time>
      </trkpt>
      <trkpt lat="43.43894" lon="1.45574">
        <ele>223.2</ele>
        <time>2022-05-16T09:26:32Z</time>
      </trkpt>
      <trkpt lat="43.43891" lon="1.45572">
        <ele>223.3</ele>
        <time>2022-05-16T09:26:33Z</time>
      </trkpt>
      <trkpt lat="43.43888" lon="1.4557">
        <ele>223.5</ele>
        <time>2022-05-16T09:26:34Z</time>
      </trkpt>
      <trkpt lat="43.43885" lon="1.45568">
        <ele>223.6</ele>
        <time>2022-05-16T09:26:35Z</time>
      </trkpt>
      <trkpt lat="43.43882" lon="1.45565">
        <ele>223.7</ele>
        <time>2022-05-16T09:26:36Z</time>
      </trkpt>
      <trkpt lat="43.43879" lon="1.45563">
        <ele>223.7</ele>
        <time>2022-05-16T09:26:37Z</time>
      </trkpt>
      <trkpt lat="43.43876" lon="1.45562">
        <ele>223.7</ele>
        <time>2022-05-16T09:26:38Z</time>
      </trkpt>
      <trkpt lat="43.43874" lon="1.4556">
        <ele>223.7</ele>
        <time>2022-05-16T09:26:39Z</time>
      </trkpt>
      <trkpt lat="43.4387" lon="1.45557">
        <ele>223.7</ele>
        <time>2022-05-16T09:26:40Z</time>
      </trkpt>
      <trkpt lat="43.43867" lon="1.45555">
        <ele>223.6</ele>
        <time>2022-05-16T09:26:41Z</time>
      </trkpt>
      <trkpt lat="43.43863" lon="1.45553">
        <ele>223.5</ele>
        <time>2022-05-16T09:26:42Z</time>
      </trkpt>
      <trkpt lat="43.43859" lon="1.45553">
        <ele>223.3</ele>
        <time>2022-05-16T09:26:43Z</time>
      </trkpt>
      <trkpt lat="43.43855" lon="1.45552">
        <ele>223.2</ele>
        <time>2022-05-16T09:26:44Z</time>
      </trkpt>
      <trkpt lat="43.43851" lon="1.45551">
        <ele>223</ele>
        <time>2022-05-16T09:26:45Z</time>
      </trkpt>
      <trkpt lat="43.43848" lon="1.4555">
        <ele>222.9</ele>
        <time>2022-05-16T09:26:46Z</time>
      </trkpt>
      <trkpt lat="43.43843" lon="1.45549">
        <ele>222.7</ele>
        <time>2022-05-16T09:26:47Z</time>
      </trkpt>
      <trkpt lat="43.43839" lon="1.45548">
        <ele>222.5</ele>
        <time>2022-05-16T09:26:48Z</time>
      </trkpt>
      <trkpt lat="43.43835" lon="1.45547">
        <ele>222.3</ele>
        <time>2022-05-16T09:26:49Z</time>
      </trkpt>
      <trkpt lat="43.43831" lon="1.45546">
        <ele>222.1</ele>
        <time>2022-05-16T09:26:50Z</time>
      </trkpt>
      <trkpt lat="43.43826" lon="1.45546">
        <ele>221.9</ele>
        <time>2022-05-16T09:26:51Z</time>
      </trkpt>
      <trkpt lat="43.43821" lon="1.45546">
        <ele>221.7</ele>
        <time>2022-05-16T09:26:52Z</time>
      </trkpt>
      <trkpt lat="43.43816" lon="1.45545">
        <ele>221.5</ele>
        <time>2022-05-16T09:26:53Z</time>
      </trkpt>
      <trkpt lat="43.43811" lon="1.45545">
        <ele>221.4</ele>
        <time>2022-05-16T09:26:54Z</time>
      </trkpt>
      <trkpt lat="43.43805" lon="1.45545">
        <ele>221.2</ele>
        <time>2022-05-16T09:26:55Z</time>
      </trkpt>
      <trkpt lat="43.438" lon="1.45545">
        <ele>221.1</ele>
        <time>2022-05-16T09:26:56Z</time>
      </trkpt>
      <trkpt lat="43.43795" lon="1.45545">
        <ele>221</ele>
        <time>2022-05-16T09:26:57Z</time>
      </trkpt>
      <trkpt lat="43.4379" lon="1.45544">
        <ele>221</ele>
        <time>2022-05-16T09:26:58Z</time>
      </trkpt>
      <trkpt lat="43.43785" lon="1.45543">
        <ele>221</ele>
        <time>2022-05-16T09:26:59Z</time>
      </trkpt>
      <trkpt lat="43.43782" lon="1.45539">
        <ele>221</ele>
        <time>2022-05-16T09:27:00Z</time>
      </trkpt>
      <trkpt lat="43.43778" lon="1.45537">
        <ele>221</ele>
        <time>2022-05-16T09:27:01Z</time>
      </trkpt>
      <trkpt lat="43.43773" lon="1.45534">
        <ele>221.1</ele>
        <time>2022-05-16T09:27:02Z</time>
      </trkpt>
      <trkpt lat="43.43769" lon="1.45533">
        <ele>221.2</ele>
        <time>2022-05-16T09:27:03Z</time>
      </trkpt>
      <trkpt lat="43.43765" lon="1.4553">
        <ele>221.4</ele>
        <time>2022-05-16T09:27:04Z</time>
      </trkpt>
      <trkpt lat="43.43761" lon="1.45528">
        <ele>221.5</ele>
        <time>2022-05-16T09:27:05Z</time>
      </trkpt>
      <trkpt lat="43.43758" lon="1.45526">
        <ele>221.7</ele>
        <time>2022-05-16T09:27:06Z</time>
      </trkpt>
      <trkpt lat="43.43754" lon="1.45524">
        <ele>221.9</ele>
        <time>2022-05-16T09:27:07Z</time>
      </trkpt>
      <trkpt lat="43.43751" lon="1.45522">
        <ele>222.1</ele>
        <time>2022-05-16T09:27:08Z</time>
      </trkpt>
      <trkpt lat="43.43748" lon="1.4552">
        <ele>222.3</ele>
        <time>2022-05-16T09:27:09Z</time>
      </trkpt>
      <trkpt lat="43.43744" lon="1.45518">
        <ele>222.5</ele>
        <time>2022-05-16T09:27:10Z</time>
      </trkpt>
      <trkpt lat="43.43741" lon="1.45517">
        <ele>222.7</ele>
        <time>2022-05-16T09:27:11Z</time>
      </trkpt>
      <trkpt lat="43.43738" lon="1.45516">
        <ele>222.9</ele>
        <time>2022-05-16T09:27:12Z</time>
      </trkpt>
      <trkpt lat="43.43735" lon="1.45515">
        <ele>223.1</ele>
        <time>2022-05-16T09:27:13Z</time>
      </trkpt>
      <trkpt lat="43.43732" lon="1.45513">
        <ele>223.3</ele>
        <time>2022-05-16T09:27:14Z</time>
      </trkpt>
      <trkpt lat="43.43728" lon="1.45512">
        <ele>223.5</ele>
        <time>2022-05-16T09:27:15Z</time>
      </trkpt>
      <trkpt lat="43.43725" lon="1.45511">
        <ele>223.8</ele>
        <time>2022-05-16T09:27:16Z</time>
      </trkpt>
      <trkpt lat="43.43722" lon="1.45509">
        <ele>224</ele>
        <time>2022-05-16T09:27:17Z</time>
      </trkpt>
      <trkpt lat="43.43719" lon="1.45507">
        <ele>224.3</ele>
        <time>2022-05-16T09:27:18Z</time>
      </trkpt>
      <trkpt lat="43.43716" lon="1.45505">
        <ele>224.5</ele>
        <time>2022-05-16T09:27:19Z</time>
      </trkpt>
      <trkpt lat="43.43713" lon="1.45504">
        <ele>224.8</ele>
        <time>2022-05-16T09:27:20Z</time>
      </trkpt>
      <trkpt lat="43.4371" lon="1.45502">
        <ele>225</ele>
        <time>2022-05-16T09:27:21Z</time>
      </trkpt>
      <trkpt lat="43.43707" lon="1.45501">
        <ele>225.3</ele>
        <time>2022-05-16T09:27:22Z</time>
      </trkpt>
      <trkpt lat="43.43704" lon="1.45499">
        <ele>225.6</ele>
        <time>2022-05-16T09:27:23Z</time>
      </trkpt>
      <trkpt lat="43.43701" lon="1.45497">
        <ele>225.8</ele>
        <time>2022-05-16T09:27:24Z</time>
      </trkpt>
      <trkpt lat="43.43698" lon="1.45496">
        <ele>226.1</ele>
        <time>2022-05-16T09:27:25Z</time>
      </trkpt>
      <trkpt lat="43.43695" lon="1.45494">
        <ele>226.4</ele>
        <time>2022-05-16T09:27:26Z</time>
      </trkpt>
      <trkpt lat="43.43692" lon="1.45493">
        <ele>226.7</ele>
        <time>2022-05-16T09:27:27Z</time>
      </trkpt>
      <trkpt lat="43.43689" lon="1.45491">
        <ele>227</ele>
        <time>2022-05-16T09:27:28Z</time>
      </trkpt>
      <trkpt lat="43.43686" lon="1.4549">
        <ele>227.2</ele>
        <time>2022-05-16T09:27:29Z</time>
      </trkpt>
      <trkpt lat="43.43683" lon="1.45489">
        <ele>227.6</ele>
        <time>2022-05-16T09:27:30Z</time>
      </trkpt>
      <trkpt lat="43.43681" lon="1.45488">
        <ele>227.7</ele>
        <time>2022-05-16T09:27:31Z</time>
      </trkpt>
      <trkpt lat="43.43679" lon="1.45486">
        <ele>227.9</ele>
        <time>2022-05-16T09:27:32Z</time>
      </trkpt>
      <trkpt lat="43.43676" lon="1.45483">
        <ele>228.2</ele>
        <time>2022-05-16T09:27:33Z</time>
      </trkpt>
      <trkpt lat="43.43673" lon="1.45482">
        <ele>228.4</ele>
        <time>2022-05-16T09:27:34Z</time>
      </trkpt>
      <trkpt lat="43.4367" lon="1.4548">
        <ele>228.7</ele>
        <time>2022-05-16T09:27:35Z</time>
      </trkpt>
      <trkpt lat="43.43667" lon="1.45479">
        <ele>228.9</ele>
        <time>2022-05-16T09:27:36Z</time>
      </trkpt>
      <trkpt lat="43.43665" lon="1.45477">
        <ele>229.1</ele>
        <time>2022-05-16T09:27:37Z</time>
      </trkpt>
      <trkpt lat="43.43662" lon="1.45475">
        <ele>229.3</ele>
        <time>2022-05-16T09:27:38Z</time>
      </trkpt>
      <trkpt lat="43.43659" lon="1.45474">
        <ele>229.5</ele>
        <time>2022-05-16T09:27:39Z</time>
      </trkpt>
      <trkpt lat="43.43656" lon="1.45472">
        <ele>229.7</ele>
        <time>2022-05-16T09:27:40Z</time>
      </trkpt>
      <trkpt lat="43.43653" lon="1.4547">
        <ele>229.9</ele>
        <time>2022-05-16T09:27:41Z</time>
      </trkpt>
      <trkpt lat="43.4365" lon="1.45469">
        <ele>230.1</ele>
        <time>2022-05-16T09:27:42Z</time>
      </trkpt>
      <trkpt lat="43.43648" lon="1.45467">
        <ele>230.2</ele>
        <time>2022-05-16T09:27:43Z</time>
      </trkpt>
      <trkpt lat="43.43644" lon="1.45465">
        <ele>230.5</ele>
        <time>2022-05-16T09:27:45Z</time>
      </trkpt>
      <trkpt lat="43.43642" lon="1.45464">
        <ele>230.5</ele>
        <time>2022-05-16T09:27:46Z</time>
      </trkpt>
      <trkpt lat="43.4364" lon="1.45463">
        <ele>230.6</ele>
        <time>2022-05-16T09:27:47Z</time>
      </trkpt>
      <trkpt lat="43.43637" lon="1.45461">
        <ele>230.7</ele>
        <time>2022-05-16T09:27:48Z</time>
      </trkpt>
      <trkpt lat="43.43633" lon="1.45459">
        <ele>230.8</ele>
        <time>2022-05-16T09:27:49Z</time>
      </trkpt>
      <trkpt lat="43.43632" lon="1.45459">
        <ele>230.8</ele>
        <time>2022-05-16T09:27:50Z</time>
      </trkpt>
      <trkpt lat="43.43629" lon="1.45457">
        <ele>230.8</ele>
        <time>2022-05-16T09:27:51Z</time>
      </trkpt>
      <trkpt lat="43.43627" lon="1.45455">
        <ele>230.7</ele>
        <time>2022-05-16T09:27:52Z</time>
      </trkpt>
      <trkpt lat="43.43623" lon="1.45453">
        <ele>230.6</ele>
        <time>2022-05-16T09:27:53Z</time>
      </trkpt>
      <trkpt lat="43.4362" lon="1.45452">
        <ele>230.4</ele>
        <time>2022-05-16T09:27:54Z</time>
      </trkpt>
      <trkpt lat="43.43617" lon="1.4545">
        <ele>230.2</ele>
        <time>2022-05-16T09:27:55Z</time>
      </trkpt>
      <trkpt lat="43.43612" lon="1.45448">
        <ele>229.9</ele>
        <time>2022-05-16T09:27:56Z</time>
      </trkpt>
      <trkpt lat="43.43608" lon="1.45446">
        <ele>229.5</ele>
        <time>2022-05-16T09:27:57Z</time>
      </trkpt>
      <trkpt lat="43.43604" lon="1.45443">
        <ele>229.1</ele>
        <time>2022-05-16T09:27:58Z</time>
      </trkpt>
      <trkpt lat="43.436" lon="1.45442">
        <ele>228.7</ele>
        <time>2022-05-16T09:27:59Z</time>
      </trkpt>
      <trkpt lat="43.43595" lon="1.4544">
        <ele>228.3</ele>
        <time>2022-05-16T09:28:00Z</time>
      </trkpt>
      <trkpt lat="43.43591" lon="1.45438">
        <ele>227.8</ele>
        <time>2022-05-16T09:28:01Z</time>
      </trkpt>
      <trkpt lat="43.43587" lon="1.45436">
        <ele>227.4</ele>
        <time>2022-05-16T09:28:02Z</time>
      </trkpt>
      <trkpt lat="43.43583" lon="1.45435">
        <ele>227</ele>
        <time>2022-05-16T09:28:03Z</time>
      </trkpt>
      <trkpt lat="43.43579" lon="1.45433">
        <ele>226.6</ele>
        <time>2022-05-16T09:28:04Z</time>
      </trkpt>
      <trkpt lat="43.43571" lon="1.4543">
        <ele>225.7</ele>
        <time>2022-05-16T09:28:05Z</time>
      </trkpt>
      <trkpt lat="43.43567" lon="1.45428">
        <ele>225.3</ele>
        <time>2022-05-16T09:28:06Z</time>
      </trkpt>
      <trkpt lat="43.43563" lon="1.45427">
        <ele>224.9</ele>
        <time>2022-05-16T09:28:07Z</time>
      </trkpt>
      <trkpt lat="43.43559" lon="1.45424">
        <ele>224.4</ele>
        <time>2022-05-16T09:28:08Z</time>
      </trkpt>
      <trkpt lat="43.43556" lon="1.45422">
        <ele>224</ele>
        <time>2022-05-16T09:28:09Z</time>
      </trkpt>
      <trkpt lat="43.43551" lon="1.4542">
        <ele>223.5</ele>
        <time>2022-05-16T09:28:10Z</time>
      </trkpt>
      <trkpt lat="43.43547" lon="1.4542">
        <ele>223</ele>
        <time>2022-05-16T09:28:11Z</time>
      </trkpt>
      <trkpt lat="43.43543" lon="1.45418">
        <ele>222.5</ele>
        <time>2022-05-16T09:28:12Z</time>
      </trkpt>
      <trkpt lat="43.43539" lon="1.45415">
        <ele>222</ele>
        <time>2022-05-16T09:28:13Z</time>
      </trkpt>
      <trkpt lat="43.43535" lon="1.45412">
        <ele>221.6</ele>
        <time>2022-05-16T09:28:14Z</time>
      </trkpt>
      <trkpt lat="43.4353" lon="1.4541">
        <ele>221.1</ele>
        <time>2022-05-16T09:28:15Z</time>
      </trkpt>
      <trkpt lat="43.43526" lon="1.45407">
        <ele>220.7</ele>
        <time>2022-05-16T09:28:16Z</time>
      </trkpt>
      <trkpt lat="43.43522" lon="1.45404">
        <ele>220.3</ele>
        <time>2022-05-16T09:28:17Z</time>
      </trkpt>
      <trkpt lat="43.43518" lon="1.45402">
        <ele>219.9</ele>
        <time>2022-05-16T09:28:18Z</time>
      </trkpt>
      <trkpt lat="43.43515" lon="1.454">
        <ele>219.6</ele>
        <time>2022-05-16T09:28:19Z</time>
      </trkpt>
      <trkpt lat="43.43511" lon="1.45398">
        <ele>219.3</ele>
        <time>2022-05-16T09:28:20Z</time>
      </trkpt>
      <trkpt lat="43.43507" lon="1.45396">
        <ele>219</ele>
        <time>2022-05-16T09:28:21Z</time>
      </trkpt>
      <trkpt lat="43.43504" lon="1.45394">
        <ele>218.7</ele>
        <time>2022-05-16T09:28:22Z</time>
      </trkpt>
      <trkpt lat="43.43501" lon="1.45392">
        <ele>218.4</ele>
        <time>2022-05-16T09:28:23Z</time>
      </trkpt>
      <trkpt lat="43.43497" lon="1.45391">
        <ele>218.2</ele>
        <time>2022-05-16T09:28:24Z</time>
      </trkpt>
      <trkpt lat="43.43496" lon="1.45391">
        <ele>218.1</ele>
        <time>2022-05-16T09:28:25Z</time>
      </trkpt>
      <trkpt lat="43.43493" lon="1.4539">
        <ele>217.9</ele>
        <time>2022-05-16T09:28:26Z</time>
      </trkpt>
      <trkpt lat="43.43491" lon="1.4539">
        <ele>217.8</ele>
        <time>2022-05-16T09:28:27Z</time>
      </trkpt>
      <trkpt lat="43.4349" lon="1.4539">
        <ele>217.4</ele>
        <time>2022-05-16T09:28:29Z</time>
      </trkpt>
      <trkpt lat="43.43489" lon="1.4539">
        <ele>217.4</ele>
        <time>2022-05-16T09:28:31Z</time>
      </trkpt>
      <trkpt lat="43.43488" lon="1.4539">
        <ele>217.4</ele>
        <time>2022-05-16T09:28:33Z</time>
      </trkpt>
      <trkpt lat="43.43486" lon="1.45391">
        <ele>217.4</ele>
        <time>2022-05-16T09:28:34Z</time>
      </trkpt>
      <trkpt lat="43.43485" lon="1.45391">
        <ele>217.4</ele>
        <time>2022-05-16T09:28:35Z</time>
      </trkpt>
      <trkpt lat="43.43483" lon="1.4539">
        <ele>217.4</ele>
        <time>2022-05-16T09:28:36Z</time>
      </trkpt>
      <trkpt lat="43.43482" lon="1.4539">
        <ele>216.8</ele>
        <time>2022-05-16T09:28:37Z</time>
      </trkpt>
      <trkpt lat="43.43478" lon="1.45391">
        <ele>216.2</ele>
        <time>2022-05-16T09:28:38Z</time>
      </trkpt>
      <trkpt lat="43.43476" lon="1.45392">
        <ele>215.9</ele>
        <time>2022-05-16T09:28:39Z</time>
      </trkpt>
      <trkpt lat="43.4347" lon="1.45388">
        <ele>214.9</ele>
        <time>2022-05-16T09:28:40Z</time>
      </trkpt>
      <trkpt lat="43.43463" lon="1.45387">
        <ele>214</ele>
        <time>2022-05-16T09:28:41Z</time>
      </trkpt>
      <trkpt lat="43.43458" lon="1.45387">
        <ele>213.3</ele>
        <time>2022-05-16T09:28:42Z</time>
      </trkpt>
      <trkpt lat="43.43452" lon="1.45387">
        <ele>212.5</ele>
        <time>2022-05-16T09:28:43Z</time>
      </trkpt>
      <trkpt lat="43.43446" lon="1.45385">
        <ele>211.7</ele>
        <time>2022-05-16T09:28:44Z</time>
      </trkpt>
      <trkpt lat="43.43439" lon="1.45384">
        <ele>210.8</ele>
        <time>2022-05-16T09:28:45Z</time>
      </trkpt>
      <trkpt lat="43.43431" lon="1.45383">
        <ele>209.7</ele>
        <time>2022-05-16T09:28:46Z</time>
      </trkpt>
      <trkpt lat="43.43423" lon="1.45382">
        <ele>208.4</ele>
        <time>2022-05-16T09:28:47Z</time>
      </trkpt>
      <trkpt lat="43.43415" lon="1.45381">
        <ele>207.2</ele>
        <time>2022-05-16T09:28:48Z</time>
      </trkpt>
      <trkpt lat="43.43408" lon="1.4538">
        <ele>206.1</ele>
        <time>2022-05-16T09:28:49Z</time>
      </trkpt>
      <trkpt lat="43.43403" lon="1.45379">
        <ele>205.2</ele>
        <time>2022-05-16T09:28:50Z</time>
      </trkpt>
      <trkpt lat="43.43398" lon="1.45378">
        <ele>204.6</ele>
        <time>2022-05-16T09:28:51Z</time>
      </trkpt>
      <trkpt lat="43.43397" lon="1.45379">
        <ele>204.4</ele>
        <time>2022-05-16T09:28:52Z</time>
      </trkpt>
      <trkpt lat="43.43396" lon="1.4538">
        <ele>204.2</ele>
        <time>2022-05-16T09:28:53Z</time>
      </trkpt>
      <trkpt lat="43.43392" lon="1.4538">
        <ele>203.8</ele>
        <time>2022-05-16T09:28:54Z</time>
      </trkpt>
      <trkpt lat="43.4339" lon="1.4538">
        <ele>203.7</ele>
        <time>2022-05-16T09:28:55Z</time>
      </trkpt>
      <trkpt lat="43.43387" lon="1.4538">
        <ele>203.5</ele>
        <time>2022-05-16T09:28:56Z</time>
      </trkpt>
      <trkpt lat="43.43383" lon="1.4538">
        <ele>203.2</ele>
        <time>2022-05-16T09:28:57Z</time>
      </trkpt>
      <trkpt lat="43.43377" lon="1.45379">
        <ele>202.8</ele>
        <time>2022-05-16T09:28:58Z</time>
      </trkpt>
      <trkpt lat="43.43372" lon="1.45378">
        <ele>202.6</ele>
        <time>2022-05-16T09:28:59Z</time>
      </trkpt>
      <trkpt lat="43.43366" lon="1.45378">
        <ele>202.3</ele>
        <time>2022-05-16T09:29:00Z</time>
      </trkpt>
      <trkpt lat="43.43361" lon="1.45377">
        <ele>202.2</ele>
        <time>2022-05-16T09:29:01Z</time>
      </trkpt>
      <trkpt lat="43.43358" lon="1.45377">
        <ele>202</ele>
        <time>2022-05-16T09:29:02Z</time>
      </trkpt>
      <trkpt lat="43.43357" lon="1.45376">
        <ele>202</ele>
        <time>2022-05-16T09:29:03Z</time>
      </trkpt>
      <trkpt lat="43.43358" lon="1.45373">
        <ele>202.1</ele>
        <time>2022-05-16T09:29:04Z</time>
      </trkpt>
      <trkpt lat="43.43358" lon="1.45369">
        <ele>202.1</ele>
        <time>2022-05-16T09:29:05Z</time>
      </trkpt>
      <trkpt lat="43.43354" lon="1.45367">
        <ele>202.2</ele>
        <time>2022-05-16T09:29:06Z</time>
      </trkpt>
      <trkpt lat="43.43352" lon="1.45367">
        <ele>202.3</ele>
        <time>2022-05-16T09:29:07Z</time>
      </trkpt>
      <trkpt lat="43.43349" lon="1.45365">
        <ele>202.5</ele>
        <time>2022-05-16T09:29:08Z</time>
      </trkpt>
      <trkpt lat="43.43345" lon="1.45364">
        <ele>202.7</ele>
        <time>2022-05-16T09:29:09Z</time>
      </trkpt>
      <trkpt lat="43.43341" lon="1.45364">
        <ele>203</ele>
        <time>2022-05-16T09:29:10Z</time>
      </trkpt>
      <trkpt lat="43.4334" lon="1.45365">
        <ele>203.2</ele>
        <time>2022-05-16T09:29:11Z</time>
      </trkpt>
      <trkpt lat="43.43336" lon="1.45364">
        <ele>203.5</ele>
        <time>2022-05-16T09:29:12Z</time>
      </trkpt>
      <trkpt lat="43.43332" lon="1.45363">
        <ele>203.9</ele>
        <time>2022-05-16T09:29:13Z</time>
      </trkpt>
      <trkpt lat="43.43331" lon="1.45362">
        <ele>204.1</ele>
        <time>2022-05-16T09:29:14Z</time>
      </trkpt>
      <trkpt lat="43.43328" lon="1.45362">
        <ele>204.5</ele>
        <time>2022-05-16T09:29:15Z</time>
      </trkpt>
      <trkpt lat="43.43324" lon="1.45361">
        <ele>205</ele>
        <time>2022-05-16T09:29:16Z</time>
      </trkpt>
      <trkpt lat="43.43322" lon="1.45361">
        <ele>205.3</ele>
        <time>2022-05-16T09:29:17Z</time>
      </trkpt>
      <trkpt lat="43.4332" lon="1.4536">
        <ele>205.7</ele>
        <time>2022-05-16T09:29:18Z</time>
      </trkpt>
      <trkpt lat="43.43317" lon="1.45359">
        <ele>206.2</ele>
        <time>2022-05-16T09:29:19Z</time>
      </trkpt>
      <trkpt lat="43.43314" lon="1.45358">
        <ele>206.6</ele>
        <time>2022-05-16T09:29:20Z</time>
      </trkpt>
      <trkpt lat="43.4331" lon="1.45357">
        <ele>207.3</ele>
        <time>2022-05-16T09:29:21Z</time>
      </trkpt>
      <trkpt lat="43.43309" lon="1.45357">
        <ele>207.5</ele>
        <time>2022-05-16T09:29:22Z</time>
      </trkpt>
      <trkpt lat="43.43305" lon="1.45356">
        <ele>208.2</ele>
        <time>2022-05-16T09:29:23Z</time>
      </trkpt>
      <trkpt lat="43.43303" lon="1.45356">
        <ele>208.4</ele>
        <time>2022-05-16T09:29:24Z</time>
      </trkpt>
      <trkpt lat="43.433" lon="1.45355">
        <ele>209.1</ele>
        <time>2022-05-16T09:29:25Z</time>
      </trkpt>
      <trkpt lat="43.43298" lon="1.45355">
        <ele>209.3</ele>
        <time>2022-05-16T09:29:26Z</time>
      </trkpt>
      <trkpt lat="43.43295" lon="1.45354">
        <ele>210</ele>
        <time>2022-05-16T09:29:27Z</time>
      </trkpt>
      <trkpt lat="43.43293" lon="1.45353">
        <ele>210.2</ele>
        <time>2022-05-16T09:29:28Z</time>
      </trkpt>
      <trkpt lat="43.43291" lon="1.45354">
        <ele>210.7</ele>
        <time>2022-05-16T09:29:29Z</time>
      </trkpt>
      <trkpt lat="43.43287" lon="1.45353">
        <ele>211.4</ele>
        <time>2022-05-16T09:29:30Z</time>
      </trkpt>
      <trkpt lat="43.43286" lon="1.45353">
        <ele>211.6</ele>
        <time>2022-05-16T09:29:31Z</time>
      </trkpt>
      <trkpt lat="43.43284" lon="1.45351">
        <ele>211.9</ele>
        <time>2022-05-16T09:29:32Z</time>
      </trkpt>
      <trkpt lat="43.43283" lon="1.4535">
        <ele>212.2</ele>
        <time>2022-05-16T09:29:33Z</time>
      </trkpt>
      <trkpt lat="43.43283" lon="1.45346">
        <ele>212.7</ele>
        <time>2022-05-16T09:29:34Z</time>
      </trkpt>
      <trkpt lat="43.43283" lon="1.45341">
        <ele>213.3</ele>
        <time>2022-05-16T09:29:35Z</time>
      </trkpt>
      <trkpt lat="43.43283" lon="1.45337">
        <ele>213.4</ele>
        <time>2022-05-16T09:29:36Z</time>
      </trkpt>
      <trkpt lat="43.43283" lon="1.45333">
        <ele>213.5</ele>
        <time>2022-05-16T09:29:37Z</time>
      </trkpt>
      <trkpt lat="43.43283" lon="1.45328">
        <ele>213.5</ele>
        <time>2022-05-16T09:29:38Z</time>
      </trkpt>
      <trkpt lat="43.43284" lon="1.45323">
        <ele>213.6</ele>
        <time>2022-05-16T09:29:39Z</time>
      </trkpt>
      <trkpt lat="43.43284" lon="1.45319">
        <ele>213.6</ele>
        <time>2022-05-16T09:29:40Z</time>
      </trkpt>
      <trkpt lat="43.43284" lon="1.45314">
        <ele>213.7</ele>
        <time>2022-05-16T09:29:41Z</time>
      </trkpt>
      <trkpt lat="43.43285" lon="1.4531">
        <ele>213.7</ele>
        <time>2022-05-16T09:29:42Z</time>
      </trkpt>
      <trkpt lat="43.43285" lon="1.45305">
        <ele>213.7</ele>
        <time>2022-05-16T09:29:43Z</time>
      </trkpt>
      <trkpt lat="43.43285" lon="1.45301">
        <ele>213.8</ele>
        <time>2022-05-16T09:29:44Z</time>
      </trkpt>
      <trkpt lat="43.43286" lon="1.45296">
        <ele>213.8</ele>
        <time>2022-05-16T09:29:45Z</time>
      </trkpt>
      <trkpt lat="43.43286" lon="1.45291">
        <ele>213.8</ele>
        <time>2022-05-16T09:29:46Z</time>
      </trkpt>
      <trkpt lat="43.43287" lon="1.45286">
        <ele>213.9</ele>
        <time>2022-05-16T09:29:47Z</time>
      </trkpt>
      <trkpt lat="43.43287" lon="1.45281">
        <ele>213.9</ele>
        <time>2022-05-16T09:29:48Z</time>
      </trkpt>
      <trkpt lat="43.43287" lon="1.45276">
        <ele>213.9</ele>
        <time>2022-05-16T09:29:49Z</time>
      </trkpt>
      <trkpt lat="43.43287" lon="1.45271">
        <ele>214</ele>
        <time>2022-05-16T09:29:51Z</time>
      </trkpt>
      <trkpt lat="43.43288" lon="1.45266">
        <ele>214</ele>
        <time>2022-05-16T09:29:52Z</time>
      </trkpt>
      <trkpt lat="43.43288" lon="1.4526">
        <ele>214</ele>
        <time>2022-05-16T09:29:53Z</time>
      </trkpt>
      <trkpt lat="43.43288" lon="1.45255">
        <ele>214</ele>
        <time>2022-05-16T09:29:54Z</time>
      </trkpt>
      <trkpt lat="43.43288" lon="1.4525">
        <ele>214</ele>
        <time>2022-05-16T09:29:55Z</time>
      </trkpt>
      <trkpt lat="43.43288" lon="1.45245">
        <ele>214</ele>
        <time>2022-05-16T09:29:56Z</time>
      </trkpt>
      <trkpt lat="43.43288" lon="1.4524">
        <ele>214</ele>
        <time>2022-05-16T09:29:57Z</time>
      </trkpt>
      <trkpt lat="43.43288" lon="1.45234">
        <ele>214</ele>
        <time>2022-05-16T09:29:58Z</time>
      </trkpt>
      <trkpt lat="43.43288" lon="1.45229">
        <ele>213.9</ele>
        <time>2022-05-16T09:29:59Z</time>
      </trkpt>
      <trkpt lat="43.43288" lon="1.45223">
        <ele>213.9</ele>
        <time>2022-05-16T09:30:00Z</time>
      </trkpt>
      <trkpt lat="43.43288" lon="1.45217">
        <ele>213.8</ele>
        <time>2022-05-16T09:30:01Z</time>
      </trkpt>
      <trkpt lat="43.43287" lon="1.45211">
        <ele>213.8</ele>
        <time>2022-05-16T09:30:02Z</time>
      </trkpt>
      <trkpt lat="43.43286" lon="1.45206">
        <ele>213.8</ele>
        <time>2022-05-16T09:30:03Z</time>
      </trkpt>
      <trkpt lat="43.43286" lon="1.452">
        <ele>213.7</ele>
        <time>2022-05-16T09:30:04Z</time>
      </trkpt>
      <trkpt lat="43.43286" lon="1.45194">
        <ele>213.7</ele>
        <time>2022-05-16T09:30:05Z</time>
      </trkpt>
      <trkpt lat="43.43285" lon="1.45188">
        <ele>213.6</ele>
        <time>2022-05-16T09:30:06Z</time>
      </trkpt>
      <trkpt lat="43.43285" lon="1.45182">
        <ele>213.5</ele>
        <time>2022-05-16T09:30:07Z</time>
      </trkpt>
      <trkpt lat="43.43283" lon="1.45176">
        <ele>213.4</ele>
        <time>2022-05-16T09:30:08Z</time>
      </trkpt>
      <trkpt lat="43.43282" lon="1.45171">
        <ele>213.3</ele>
        <time>2022-05-16T09:30:09Z</time>
      </trkpt>
      <trkpt lat="43.4328" lon="1.45164">
        <ele>213.2</ele>
        <time>2022-05-16T09:30:10Z</time>
      </trkpt>
      <trkpt lat="43.43279" lon="1.45158">
        <ele>213</ele>
        <time>2022-05-16T09:30:11Z</time>
      </trkpt>
      <trkpt lat="43.43277" lon="1.45152">
        <ele>212.8</ele>
        <time>2022-05-16T09:30:12Z</time>
      </trkpt>
      <trkpt lat="43.43276" lon="1.45146">
        <ele>212.6</ele>
        <time>2022-05-16T09:30:13Z</time>
      </trkpt>
      <trkpt lat="43.43272" lon="1.45133">
        <ele>212.1</ele>
        <time>2022-05-16T09:30:14Z</time>
      </trkpt>
      <trkpt lat="43.4327" lon="1.45126">
        <ele>211.8</ele>
        <time>2022-05-16T09:30:15Z</time>
      </trkpt>
      <trkpt lat="43.43269" lon="1.45118">
        <ele>211.4</ele>
        <time>2022-05-16T09:30:16Z</time>
      </trkpt>
      <trkpt lat="43.43267" lon="1.4511">
        <ele>211</ele>
        <time>2022-05-16T09:30:17Z</time>
      </trkpt>
      <trkpt lat="43.43265" lon="1.45101">
        <ele>210.6</ele>
        <time>2022-05-16T09:30:18Z</time>
      </trkpt>
      <trkpt lat="43.43263" lon="1.45091">
        <ele>210.2</ele>
        <time>2022-05-16T09:30:19Z</time>
      </trkpt>
      <trkpt lat="43.43261" lon="1.45082">
        <ele>209.8</ele>
        <time>2022-05-16T09:30:20Z</time>
      </trkpt>
      <trkpt lat="43.4326" lon="1.45072">
        <ele>209.4</ele>
        <time>2022-05-16T09:30:21Z</time>
      </trkpt>
      <trkpt lat="43.43258" lon="1.45063">
        <ele>209</ele>
        <time>2022-05-16T09:30:22Z</time>
      </trkpt>
      <trkpt lat="43.43256" lon="1.45052">
        <ele>208.6</ele>
        <time>2022-05-16T09:30:23Z</time>
      </trkpt>
      <trkpt lat="43.43254" lon="1.45042">
        <ele>208.2</ele>
        <time>2022-05-16T09:30:24Z</time>
      </trkpt>
      <trkpt lat="43.43253" lon="1.45032">
        <ele>207.8</ele>
        <time>2022-05-16T09:30:25Z</time>
      </trkpt>
      <trkpt lat="43.43252" lon="1.45021">
        <ele>207.4</ele>
        <time>2022-05-16T09:30:26Z</time>
      </trkpt>
      <trkpt lat="43.43251" lon="1.4501">
        <ele>206.9</ele>
        <time>2022-05-16T09:30:27Z</time>
      </trkpt>
      <trkpt lat="43.43249" lon="1.44999">
        <ele>206.4</ele>
        <time>2022-05-16T09:30:28Z</time>
      </trkpt>
      <trkpt lat="43.43248" lon="1.44988">
        <ele>205.9</ele>
        <time>2022-05-16T09:30:29Z</time>
      </trkpt>
      <trkpt lat="43.43247" lon="1.44976">
        <ele>205.4</ele>
        <time>2022-05-16T09:30:30Z</time>
      </trkpt>
      <trkpt lat="43.43247" lon="1.44964">
        <ele>204.9</ele>
        <time>2022-05-16T09:30:31Z</time>
      </trkpt>
      <trkpt lat="43.43246" lon="1.44951">
        <ele>204.4</ele>
        <time>2022-05-16T09:30:32Z</time>
      </trkpt>
      <trkpt lat="43.43245" lon="1.44939">
        <ele>203.9</ele>
        <time>2022-05-16T09:30:33Z</time>
      </trkpt>
      <trkpt lat="43.43245" lon="1.44927">
        <ele>203.3</ele>
        <time>2022-05-16T09:30:34Z</time>
      </trkpt>
      <trkpt lat="43.43246" lon="1.44915">
        <ele>202.8</ele>
        <time>2022-05-16T09:30:35Z</time>
      </trkpt>
      <trkpt lat="43.4325" lon="1.44904">
        <ele>202.4</ele>
        <time>2022-05-16T09:30:36Z</time>
      </trkpt>
      <trkpt lat="43.43253" lon="1.44892">
        <ele>202</ele>
        <time>2022-05-16T09:30:37Z</time>
      </trkpt>
      <trkpt lat="43.43257" lon="1.44881">
        <ele>201.6</ele>
        <time>2022-05-16T09:30:38Z</time>
      </trkpt>
      <trkpt lat="43.43261" lon="1.44871">
        <ele>201.3</ele>
        <time>2022-05-16T09:30:39Z</time>
      </trkpt>
      <trkpt lat="43.43265" lon="1.4486">
        <ele>200.9</ele>
        <time>2022-05-16T09:30:40Z</time>
      </trkpt>
      <trkpt lat="43.4327" lon="1.4485">
        <ele>200.5</ele>
        <time>2022-05-16T09:30:41Z</time>
      </trkpt>
      <trkpt lat="43.43274" lon="1.4484">
        <ele>200.1</ele>
        <time>2022-05-16T09:30:42Z</time>
      </trkpt>
      <trkpt lat="43.43277" lon="1.44829">
        <ele>199.6</ele>
        <time>2022-05-16T09:30:43Z</time>
      </trkpt>
      <trkpt lat="43.43279" lon="1.44818">
        <ele>199</ele>
        <time>2022-05-16T09:30:44Z</time>
      </trkpt>
      <trkpt lat="43.43279" lon="1.44806">
        <ele>198.3</ele>
        <time>2022-05-16T09:30:45Z</time>
      </trkpt>
      <trkpt lat="43.43277" lon="1.44795">
        <ele>197.6</ele>
        <time>2022-05-16T09:30:46Z</time>
      </trkpt>
      <trkpt lat="43.43276" lon="1.44782">
        <ele>196.8</ele>
        <time>2022-05-16T09:30:47Z</time>
      </trkpt>
      <trkpt lat="43.43275" lon="1.4477">
        <ele>196</ele>
        <time>2022-05-16T09:30:48Z</time>
      </trkpt>
      <trkpt lat="43.43275" lon="1.44757">
        <ele>195.3</ele>
        <time>2022-05-16T09:30:49Z</time>
      </trkpt>
      <trkpt lat="43.43274" lon="1.44748">
        <ele>194.1</ele>
        <time>2022-05-16T09:30:50Z</time>
      </trkpt>
      <trkpt lat="43.43276" lon="1.44738">
        <ele>194</ele>
        <time>2022-05-16T09:30:51Z</time>
      </trkpt>
      <trkpt lat="43.43278" lon="1.44727">
        <ele>193.8</ele>
        <time>2022-05-16T09:30:52Z</time>
      </trkpt>
      <trkpt lat="43.43282" lon="1.44717">
        <ele>193.5</ele>
        <time>2022-05-16T09:30:53Z</time>
      </trkpt>
      <trkpt lat="43.43286" lon="1.44708">
        <ele>193.3</ele>
        <time>2022-05-16T09:30:54Z</time>
      </trkpt>
      <trkpt lat="43.4329" lon="1.44699">
        <ele>192.9</ele>
        <time>2022-05-16T09:30:55Z</time>
      </trkpt>
      <trkpt lat="43.43295" lon="1.44689">
        <ele>192.6</ele>
        <time>2022-05-16T09:30:56Z</time>
      </trkpt>
      <trkpt lat="43.43299" lon="1.44679">
        <ele>192.3</ele>
        <time>2022-05-16T09:30:57Z</time>
      </trkpt>
      <trkpt lat="43.43303" lon="1.4467">
        <ele>191.9</ele>
        <time>2022-05-16T09:30:58Z</time>
      </trkpt>
      <trkpt lat="43.43308" lon="1.4466">
        <ele>191.5</ele>
        <time>2022-05-16T09:30:59Z</time>
      </trkpt>
      <trkpt lat="43.43312" lon="1.4465">
        <ele>191.1</ele>
        <time>2022-05-16T09:31:00Z</time>
      </trkpt>
      <trkpt lat="43.43317" lon="1.4464">
        <ele>190.7</ele>
        <time>2022-05-16T09:31:01Z</time>
      </trkpt>
      <trkpt lat="43.43321" lon="1.4463">
        <ele>190.2</ele>
        <time>2022-05-16T09:31:02Z</time>
      </trkpt>
      <trkpt lat="43.43326" lon="1.44621">
        <ele>189.8</ele>
        <time>2022-05-16T09:31:03Z</time>
      </trkpt>
      <trkpt lat="43.43331" lon="1.44611">
        <ele>189.4</ele>
        <time>2022-05-16T09:31:04Z</time>
      </trkpt>
      <trkpt lat="43.43336" lon="1.446">
        <ele>189</ele>
        <time>2022-05-16T09:31:05Z</time>
      </trkpt>
      <trkpt lat="43.43341" lon="1.4459">
        <ele>188.6</ele>
        <time>2022-05-16T09:31:06Z</time>
      </trkpt>
      <trkpt lat="43.43346" lon="1.44579">
        <ele>188.1</ele>
        <time>2022-05-16T09:31:07Z</time>
      </trkpt>
      <trkpt lat="43.43351" lon="1.44569">
        <ele>187.7</ele>
        <time>2022-05-16T09:31:08Z</time>
      </trkpt>
      <trkpt lat="43.43356" lon="1.44559">
        <ele>187.3</ele>
        <time>2022-05-16T09:31:09Z</time>
      </trkpt>
      <trkpt lat="43.4336" lon="1.44549">
        <ele>186.9</ele>
        <time>2022-05-16T09:31:10Z</time>
      </trkpt>
      <trkpt lat="43.43366" lon="1.44539">
        <ele>186.5</ele>
        <time>2022-05-16T09:31:11Z</time>
      </trkpt>
      <trkpt lat="43.4337" lon="1.44529">
        <ele>186.1</ele>
        <time>2022-05-16T09:31:12Z</time>
      </trkpt>
      <trkpt lat="43.43375" lon="1.44519">
        <ele>185.7</ele>
        <time>2022-05-16T09:31:13Z</time>
      </trkpt>
      <trkpt lat="43.43379" lon="1.44509">
        <ele>185.4</ele>
        <time>2022-05-16T09:31:14Z</time>
      </trkpt>
      <trkpt lat="43.43384" lon="1.445">
        <ele>185.1</ele>
        <time>2022-05-16T09:31:15Z</time>
      </trkpt>
      <trkpt lat="43.43387" lon="1.44492">
        <ele>184.9</ele>
        <time>2022-05-16T09:31:16Z</time>
      </trkpt>
      <trkpt lat="43.43391" lon="1.44484">
        <ele>184.7</ele>
        <time>2022-05-16T09:31:17Z</time>
      </trkpt>
      <trkpt lat="43.43394" lon="1.44477">
        <ele>184.5</ele>
        <time>2022-05-16T09:31:18Z</time>
      </trkpt>
      <trkpt lat="43.43395" lon="1.4447">
        <ele>184.3</ele>
        <time>2022-05-16T09:31:19Z</time>
      </trkpt>
      <trkpt lat="43.43396" lon="1.44465">
        <ele>184.2</ele>
        <time>2022-05-16T09:31:20Z</time>
      </trkpt>
      <trkpt lat="43.43398" lon="1.4446">
        <ele>184.1</ele>
        <time>2022-05-16T09:31:21Z</time>
      </trkpt>
      <trkpt lat="43.43399" lon="1.44455">
        <ele>184</ele>
        <time>2022-05-16T09:31:22Z</time>
      </trkpt>
      <trkpt lat="43.43403" lon="1.44451">
        <ele>183.9</ele>
        <time>2022-05-16T09:31:23Z</time>
      </trkpt>
      <trkpt lat="43.43405" lon="1.44446">
        <ele>183.9</ele>
        <time>2022-05-16T09:31:24Z</time>
      </trkpt>
      <trkpt lat="43.43407" lon="1.44441">
        <ele>183.8</ele>
        <time>2022-05-16T09:31:25Z</time>
      </trkpt>
      <trkpt lat="43.4341" lon="1.44436">
        <ele>183.8</ele>
        <time>2022-05-16T09:31:26Z</time>
      </trkpt>
      <trkpt lat="43.43412" lon="1.4443">
        <ele>183.7</ele>
        <time>2022-05-16T09:31:27Z</time>
      </trkpt>
      <trkpt lat="43.43414" lon="1.44426">
        <ele>183.7</ele>
        <time>2022-05-16T09:31:28Z</time>
      </trkpt>
      <trkpt lat="43.43416" lon="1.44421">
        <ele>183.6</ele>
        <time>2022-05-16T09:31:29Z</time>
      </trkpt>
      <trkpt lat="43.43418" lon="1.44417">
        <ele>183.5</ele>
        <time>2022-05-16T09:31:30Z</time>
      </trkpt>
      <trkpt lat="43.43421" lon="1.44413">
        <ele>183.5</ele>
        <time>2022-05-16T09:31:31Z</time>
      </trkpt>
      <trkpt lat="43.43424" lon="1.4441">
        <ele>183.4</ele>
        <time>2022-05-16T09:31:32Z</time>
      </trkpt>
      <trkpt lat="43.43426" lon="1.44407">
        <ele>183.3</ele>
        <time>2022-05-16T09:31:33Z</time>
      </trkpt>
      <trkpt lat="43.43427" lon="1.44404">
        <ele>183.3</ele>
        <time>2022-05-16T09:31:34Z</time>
      </trkpt>
      <trkpt lat="43.43428" lon="1.44403">
        <ele>183.3</ele>
        <time>2022-05-16T09:31:35Z</time>
      </trkpt>
      <trkpt lat="43.43429" lon="1.44402">
        <ele>183.3</ele>
        <time>2022-05-16T09:31:37Z</time>
      </trkpt>
      <trkpt lat="43.43431" lon="1.44401">
        <ele>183.2</ele>
        <time>2022-05-16T09:31:38Z</time>
      </trkpt>
      <trkpt lat="43.43432" lon="1.44396">
        <ele>183.2</ele>
        <time>2022-05-16T09:31:39Z</time>
      </trkpt>
      <trkpt lat="43.43434" lon="1.44393">
        <ele>183.1</ele>
        <time>2022-05-16T09:31:40Z</time>
      </trkpt>
      <trkpt lat="43.43436" lon="1.4439">
        <ele>183.1</ele>
        <time>2022-05-16T09:31:41Z</time>
      </trkpt>
      <trkpt lat="43.43439" lon="1.44388">
        <ele>183</ele>
        <time>2022-05-16T09:31:42Z</time>
      </trkpt>
      <trkpt lat="43.43441" lon="1.44384">
        <ele>182.9</ele>
        <time>2022-05-16T09:31:43Z</time>
      </trkpt>
      <trkpt lat="43.43443" lon="1.4438">
        <ele>182.8</ele>
        <time>2022-05-16T09:31:44Z</time>
      </trkpt>
      <trkpt lat="43.43445" lon="1.44375">
        <ele>182.7</ele>
        <time>2022-05-16T09:31:45Z</time>
      </trkpt>
      <trkpt lat="43.43446" lon="1.44369">
        <ele>182.6</ele>
        <time>2022-05-16T09:31:46Z</time>
      </trkpt>
      <trkpt lat="43.43447" lon="1.44364">
        <ele>182.5</ele>
        <time>2022-05-16T09:31:47Z</time>
      </trkpt>
      <trkpt lat="43.43448" lon="1.44358">
        <ele>182.4</ele>
        <time>2022-05-16T09:31:48Z</time>
      </trkpt>
      <trkpt lat="43.43449" lon="1.44352">
        <ele>182.3</ele>
        <time>2022-05-16T09:31:49Z</time>
      </trkpt>
      <trkpt lat="43.4345" lon="1.44345">
        <ele>182.2</ele>
        <time>2022-05-16T09:31:50Z</time>
      </trkpt>
      <trkpt lat="43.43451" lon="1.44339">
        <ele>182.1</ele>
        <time>2022-05-16T09:31:51Z</time>
      </trkpt>
      <trkpt lat="43.43452" lon="1.44333">
        <ele>182</ele>
        <time>2022-05-16T09:31:52Z</time>
      </trkpt>
      <trkpt lat="43.43453" lon="1.44327">
        <ele>181.9</ele>
        <time>2022-05-16T09:31:53Z</time>
      </trkpt>
      <trkpt lat="43.43454" lon="1.44322">
        <ele>181.8</ele>
        <time>2022-05-16T09:31:54Z</time>
      </trkpt>
      <trkpt lat="43.43454" lon="1.44318">
        <ele>181.7</ele>
        <time>2022-05-16T09:31:55Z</time>
      </trkpt>
      <trkpt lat="43.43455" lon="1.44313">
        <ele>181.6</ele>
        <time>2022-05-16T09:31:57Z</time>
      </trkpt>
      <trkpt lat="43.43455" lon="1.44307">
        <ele>181.5</ele>
        <time>2022-05-16T09:31:58Z</time>
      </trkpt>
      <trkpt lat="43.43456" lon="1.44302">
        <ele>181.5</ele>
        <time>2022-05-16T09:31:59Z</time>
      </trkpt>
      <trkpt lat="43.43457" lon="1.44297">
        <ele>181.4</ele>
        <time>2022-05-16T09:32:00Z</time>
      </trkpt>
      <trkpt lat="43.43458" lon="1.44292">
        <ele>181.3</ele>
        <time>2022-05-16T09:32:01Z</time>
      </trkpt>
      <trkpt lat="43.43459" lon="1.44287">
        <ele>181.2</ele>
        <time>2022-05-16T09:32:02Z</time>
      </trkpt>
      <trkpt lat="43.43461" lon="1.44282">
        <ele>181.1</ele>
        <time>2022-05-16T09:32:03Z</time>
      </trkpt>
      <trkpt lat="43.43463" lon="1.44277">
        <ele>181</ele>
        <time>2022-05-16T09:32:04Z</time>
      </trkpt>
      <trkpt lat="43.43464" lon="1.44271">
        <ele>180.9</ele>
        <time>2022-05-16T09:32:05Z</time>
      </trkpt>
      <trkpt lat="43.43465" lon="1.44266">
        <ele>180.8</ele>
        <time>2022-05-16T09:32:06Z</time>
      </trkpt>
      <trkpt lat="43.43467" lon="1.4426">
        <ele>180.7</ele>
        <time>2022-05-16T09:32:07Z</time>
      </trkpt>
      <trkpt lat="43.43468" lon="1.44254">
        <ele>180.6</ele>
        <time>2022-05-16T09:32:08Z</time>
      </trkpt>
      <trkpt lat="43.43469" lon="1.44248">
        <ele>180.4</ele>
        <time>2022-05-16T09:32:09Z</time>
      </trkpt>
      <trkpt lat="43.43471" lon="1.44242">
        <ele>180.3</ele>
        <time>2022-05-16T09:32:10Z</time>
      </trkpt>
      <trkpt lat="43.43472" lon="1.44236">
        <ele>180.1</ele>
        <time>2022-05-16T09:32:11Z</time>
      </trkpt>
      <trkpt lat="43.43473" lon="1.44229">
        <ele>180</ele>
        <time>2022-05-16T09:32:12Z</time>
      </trkpt>
      <trkpt lat="43.43474" lon="1.44222">
        <ele>179.7</ele>
        <time>2022-05-16T09:32:13Z</time>
      </trkpt>
      <trkpt lat="43.43473" lon="1.44214">
        <ele>179.4</ele>
        <time>2022-05-16T09:32:14Z</time>
      </trkpt>
      <trkpt lat="43.4347" lon="1.44208">
        <ele>179.1</ele>
        <time>2022-05-16T09:32:15Z</time>
      </trkpt>
      <trkpt lat="43.43467" lon="1.44201">
        <ele>178.8</ele>
        <time>2022-05-16T09:32:16Z</time>
      </trkpt>
      <trkpt lat="43.43461" lon="1.44196">
        <ele>178.3</ele>
        <time>2022-05-16T09:32:17Z</time>
      </trkpt>
      <trkpt lat="43.43456" lon="1.44191">
        <ele>177.8</ele>
        <time>2022-05-16T09:32:18Z</time>
      </trkpt>
      <trkpt lat="43.4345" lon="1.44185">
        <ele>177.2</ele>
        <time>2022-05-16T09:32:19Z</time>
      </trkpt>
      <trkpt lat="43.43445" lon="1.44176">
        <ele>176.3</ele>
        <time>2022-05-16T09:32:20Z</time>
      </trkpt>
      <trkpt lat="43.43441" lon="1.44168">
        <ele>175.4</ele>
        <time>2022-05-16T09:32:21Z</time>
      </trkpt>
      <trkpt lat="43.43436" lon="1.44161">
        <ele>174.6</ele>
        <time>2022-05-16T09:32:22Z</time>
      </trkpt>
      <trkpt lat="43.43425" lon="1.44146">
        <ele>172.9</ele>
        <time>2022-05-16T09:32:23Z</time>
      </trkpt>
      <trkpt lat="43.4342" lon="1.4414">
        <ele>172.2</ele>
        <time>2022-05-16T09:32:24Z</time>
      </trkpt>
      <trkpt lat="43.43416" lon="1.44135">
        <ele>171.6</ele>
        <time>2022-05-16T09:32:25Z</time>
      </trkpt>
      <trkpt lat="43.43412" lon="1.44131">
        <ele>171.3</ele>
        <time>2022-05-16T09:32:26Z</time>
      </trkpt>
      <trkpt lat="43.43411" lon="1.44128">
        <ele>171</ele>
        <time>2022-05-16T09:32:27Z</time>
      </trkpt>
      <trkpt lat="43.43411" lon="1.44123">
        <ele>170.5</ele>
        <time>2022-05-16T09:32:28Z</time>
      </trkpt>
      <trkpt lat="43.43411" lon="1.44121">
        <ele>170.5</ele>
        <time>2022-05-16T09:32:29Z</time>
      </trkpt>
      <trkpt lat="43.43412" lon="1.44117">
        <ele>170.6</ele>
        <time>2022-05-16T09:32:30Z</time>
      </trkpt>
      <trkpt lat="43.43415" lon="1.44113">
        <ele>170.6</ele>
        <time>2022-05-16T09:32:31Z</time>
      </trkpt>
      <trkpt lat="43.43418" lon="1.44109">
        <ele>170.6</ele>
        <time>2022-05-16T09:32:32Z</time>
      </trkpt>
      <trkpt lat="43.4342" lon="1.44104">
        <ele>170.6</ele>
        <time>2022-05-16T09:32:33Z</time>
      </trkpt>
      <trkpt lat="43.43423" lon="1.441">
        <ele>170.7</ele>
        <time>2022-05-16T09:32:34Z</time>
      </trkpt>
      <trkpt lat="43.43425" lon="1.44098">
        <ele>170.7</ele>
        <time>2022-05-16T09:32:35Z</time>
      </trkpt>
      <trkpt lat="43.43428" lon="1.44095">
        <ele>170.9</ele>
        <time>2022-05-16T09:32:36Z</time>
      </trkpt>
      <trkpt lat="43.43429" lon="1.44091">
        <ele>171.5</ele>
        <time>2022-05-16T09:32:37Z</time>
      </trkpt>
      <trkpt lat="43.43431" lon="1.44087">
        <ele>172.1</ele>
        <time>2022-05-16T09:32:38Z</time>
      </trkpt>
      <trkpt lat="43.43431" lon="1.44086">
        <ele>172.2</ele>
        <time>2022-05-16T09:32:39Z</time>
      </trkpt>
      <trkpt lat="43.43432" lon="1.44085">
        <ele>172.5</ele>
        <time>2022-05-16T09:32:40Z</time>
      </trkpt>
      <trkpt lat="43.43434" lon="1.44085">
        <ele>172.9</ele>
        <time>2022-05-16T09:32:41Z</time>
      </trkpt>
      <trkpt lat="43.43436" lon="1.44087">
        <ele>173.7</ele>
        <time>2022-05-16T09:32:42Z</time>
      </trkpt>
      <trkpt lat="43.43438" lon="1.44091">
        <ele>174.5</ele>
        <time>2022-05-16T09:32:43Z</time>
      </trkpt>
      <trkpt lat="43.43441" lon="1.44093">
        <ele>175.3</ele>
        <time>2022-05-16T09:32:44Z</time>
      </trkpt>
      <trkpt lat="43.43442" lon="1.44094">
        <ele>175.5</ele>
        <time>2022-05-16T09:32:45Z</time>
      </trkpt>
      <trkpt lat="43.43444" lon="1.44093">
        <ele>176.1</ele>
        <time>2022-05-16T09:32:46Z</time>
      </trkpt>
      <trkpt lat="43.43445" lon="1.44094">
        <ele>176.5</ele>
        <time>2022-05-16T09:32:47Z</time>
      </trkpt>
      <trkpt lat="43.43447" lon="1.44098">
        <ele>177.4</ele>
        <time>2022-05-16T09:32:48Z</time>
      </trkpt>
      <trkpt lat="43.43448" lon="1.44099">
        <ele>177.7</ele>
        <time>2022-05-16T09:32:49Z</time>
      </trkpt>
      <trkpt lat="43.43451" lon="1.441">
        <ele>178.3</ele>
        <time>2022-05-16T09:32:50Z</time>
      </trkpt>
      <trkpt lat="43.43454" lon="1.441">
        <ele>179.1</ele>
        <time>2022-05-16T09:32:51Z</time>
      </trkpt>
      <trkpt lat="43.43455" lon="1.441">
        <ele>179.3</ele>
        <time>2022-05-16T09:32:52Z</time>
      </trkpt>
      <trkpt lat="43.43458" lon="1.441">
        <ele>179.9</ele>
        <time>2022-05-16T09:32:53Z</time>
      </trkpt>
      <trkpt lat="43.4346" lon="1.441">
        <ele>180.5</ele>
        <time>2022-05-16T09:32:54Z</time>
      </trkpt>
      <trkpt lat="43.43461" lon="1.441">
        <ele>180.7</ele>
        <time>2022-05-16T09:32:55Z</time>
      </trkpt>
      <trkpt lat="43.43463" lon="1.44101">
        <ele>181.1</ele>
        <time>2022-05-16T09:32:56Z</time>
      </trkpt>
      <trkpt lat="43.43464" lon="1.44101">
        <ele>181.3</ele>
        <time>2022-05-16T09:32:57Z</time>
      </trkpt>
      <trkpt lat="43.43467" lon="1.44102">
        <ele>181.8</ele>
        <time>2022-05-16T09:32:58Z</time>
      </trkpt>
      <trkpt lat="43.43467" lon="1.44103">
        <ele>181.9</ele>
        <time>2022-05-16T09:32:59Z</time>
      </trkpt>
      <trkpt lat="43.43467" lon="1.44102">
        <ele>182</ele>
        <time>2022-05-16T09:33:00Z</time>
      </trkpt>
      <trkpt lat="43.43469" lon="1.44103">
        <ele>182.3</ele>
        <time>2022-05-16T09:33:01Z</time>
      </trkpt>
      <trkpt lat="43.4347" lon="1.44104">
        <ele>182.7</ele>
        <time>2022-05-16T09:33:02Z</time>
      </trkpt>
      <trkpt lat="43.43472" lon="1.44106">
        <ele>183.1</ele>
        <time>2022-05-16T09:33:03Z</time>
      </trkpt>
      <trkpt lat="43.43473" lon="1.44106">
        <ele>183.3</ele>
        <time>2022-05-16T09:33:04Z</time>
      </trkpt>
      <trkpt lat="43.43475" lon="1.44103">
        <ele>183.7</ele>
        <time>2022-05-16T09:33:05Z</time>
      </trkpt>
      <trkpt lat="43.43476" lon="1.44101">
        <ele>184.1</ele>
        <time>2022-05-16T09:33:06Z</time>
      </trkpt>
      <trkpt lat="43.43474" lon="1.44097">
        <ele>184.6</ele>
        <time>2022-05-16T09:33:07Z</time>
      </trkpt>
      <trkpt lat="43.43473" lon="1.44095">
        <ele>185</ele>
        <time>2022-05-16T09:33:08Z</time>
      </trkpt>
      <trkpt lat="43.4347" lon="1.44093">
        <ele>185.5</ele>
        <time>2022-05-16T09:33:09Z</time>
      </trkpt>
      <trkpt lat="43.43468" lon="1.4409">
        <ele>186.1</ele>
        <time>2022-05-16T09:33:10Z</time>
      </trkpt>
      <trkpt lat="43.43467" lon="1.44089">
        <ele>186.2</ele>
        <time>2022-05-16T09:33:11Z</time>
      </trkpt>
      <trkpt lat="43.43464" lon="1.44086">
        <ele>187</ele>
        <time>2022-05-16T09:33:12Z</time>
      </trkpt>
      <trkpt lat="43.43463" lon="1.44085">
        <ele>187.2</ele>
        <time>2022-05-16T09:33:13Z</time>
      </trkpt>
      <trkpt lat="43.4346" lon="1.44082">
        <ele>187.9</ele>
        <time>2022-05-16T09:33:14Z</time>
      </trkpt>
      <trkpt lat="43.43459" lon="1.44081">
        <ele>188</ele>
        <time>2022-05-16T09:33:15Z</time>
      </trkpt>
      <trkpt lat="43.43457" lon="1.44078">
        <ele>188.6</ele>
        <time>2022-05-16T09:33:16Z</time>
      </trkpt>
      <trkpt lat="43.43456" lon="1.44077">
        <ele>188.8</ele>
        <time>2022-05-16T09:33:17Z</time>
      </trkpt>
      <trkpt lat="43.43453" lon="1.44074">
        <ele>189.4</ele>
        <time>2022-05-16T09:33:18Z</time>
      </trkpt>
      <trkpt lat="43.43452" lon="1.44074">
        <ele>189.6</ele>
        <time>2022-05-16T09:33:19Z</time>
      </trkpt>
      <trkpt lat="43.43451" lon="1.44072">
        <ele>189.9</ele>
        <time>2022-05-16T09:33:20Z</time>
      </trkpt>
      <trkpt lat="43.4345" lon="1.44071">
        <ele>190.1</ele>
        <time>2022-05-16T09:33:21Z</time>
      </trkpt>
      <trkpt lat="43.43453" lon="1.4407">
        <ele>190.6</ele>
        <time>2022-05-16T09:33:22Z</time>
      </trkpt>
      <trkpt lat="43.43454" lon="1.4407">
        <ele>190.8</ele>
        <time>2022-05-16T09:33:23Z</time>
      </trkpt>
      <trkpt lat="43.43457" lon="1.4407">
        <ele>191.4</ele>
        <time>2022-05-16T09:33:24Z</time>
      </trkpt>
      <trkpt lat="43.4346" lon="1.4407">
        <ele>192</ele>
        <time>2022-05-16T09:33:25Z</time>
      </trkpt>
      <trkpt lat="43.43463" lon="1.44071">
        <ele>192.7</ele>
        <time>2022-05-16T09:33:26Z</time>
      </trkpt>
      <trkpt lat="43.43466" lon="1.44073">
        <ele>193.5</ele>
        <time>2022-05-16T09:33:27Z</time>
      </trkpt>
      <trkpt lat="43.43467" lon="1.44073">
        <ele>193.8</ele>
        <time>2022-05-16T09:33:28Z</time>
      </trkpt>
      <trkpt lat="43.43471" lon="1.44075">
        <ele>194.7</ele>
        <time>2022-05-16T09:33:29Z</time>
      </trkpt>
      <trkpt lat="43.43472" lon="1.44075">
        <ele>195</ele>
        <time>2022-05-16T09:33:30Z</time>
      </trkpt>
      <trkpt lat="43.43474" lon="1.44076">
        <ele>195.6</ele>
        <time>2022-05-16T09:33:31Z</time>
      </trkpt>
      <trkpt lat="43.43474" lon="1.44078">
        <ele>195.9</ele>
        <time>2022-05-16T09:33:32Z</time>
      </trkpt>
      <trkpt lat="43.43477" lon="1.4408">
        <ele>196.7</ele>
        <time>2022-05-16T09:33:33Z</time>
      </trkpt>
      <trkpt lat="43.43478" lon="1.4408">
        <ele>196.9</ele>
        <time>2022-05-16T09:33:34Z</time>
      </trkpt>
      <trkpt lat="43.43479" lon="1.4408">
        <ele>197</ele>
        <time>2022-05-16T09:33:35Z</time>
      </trkpt>
      <trkpt lat="43.43479" lon="1.44079">
        <ele>197.3</ele>
        <time>2022-05-16T09:33:36Z</time>
      </trkpt>
      <trkpt lat="43.4348" lon="1.44078">
        <ele>197.5</ele>
        <time>2022-05-16T09:33:37Z</time>
      </trkpt>
      <trkpt lat="43.4348" lon="1.44077">
        <ele>197.6</ele>
        <time>2022-05-16T09:33:39Z</time>
      </trkpt>
      <trkpt lat="43.43479" lon="1.44077">
        <ele>197.8</ele>
        <time>2022-05-16T09:33:40Z</time>
      </trkpt>
      <trkpt lat="43.43479" lon="1.44076">
        <ele>197.9</ele>
        <time>2022-05-16T09:33:42Z</time>
      </trkpt>
      <trkpt lat="43.43479" lon="1.44075">
        <ele>198.1</ele>
        <time>2022-05-16T09:33:43Z</time>
      </trkpt>
      <trkpt lat="43.43478" lon="1.44073">
        <ele>198.4</ele>
        <time>2022-05-16T09:33:44Z</time>
      </trkpt>
      <trkpt lat="43.43476" lon="1.44069">
        <ele>199.2</ele>
        <time>2022-05-16T09:33:45Z</time>
      </trkpt>
      <trkpt lat="43.43475" lon="1.44066">
        <ele>199.7</ele>
        <time>2022-05-16T09:33:47Z</time>
      </trkpt>
      <trkpt lat="43.43474" lon="1.44063">
        <ele>200.1</ele>
        <time>2022-05-16T09:33:48Z</time>
      </trkpt>
      <trkpt lat="43.43473" lon="1.44061">
        <ele>200.3</ele>
        <time>2022-05-16T09:33:49Z</time>
      </trkpt>
      <trkpt lat="43.43473" lon="1.4406">
        <ele>200.5</ele>
        <time>2022-05-16T09:33:50Z</time>
      </trkpt>
      <trkpt lat="43.43472" lon="1.44059">
        <ele>200.8</ele>
        <time>2022-05-16T09:33:53Z</time>
      </trkpt>
      <trkpt lat="43.43471" lon="1.44058">
        <ele>201.1</ele>
        <time>2022-05-16T09:33:54Z</time>
      </trkpt>
      <trkpt lat="43.4347" lon="1.44057">
        <ele>201.2</ele>
        <time>2022-05-16T09:33:55Z</time>
      </trkpt>
      <trkpt lat="43.43469" lon="1.44056">
        <ele>201.5</ele>
        <time>2022-05-16T09:33:56Z</time>
      </trkpt>
      <trkpt lat="43.43468" lon="1.44054">
        <ele>201.7</ele>
        <time>2022-05-16T09:33:57Z</time>
      </trkpt>
      <trkpt lat="43.43468" lon="1.44051">
        <ele>202.1</ele>
        <time>2022-05-16T09:33:58Z</time>
      </trkpt>
      <trkpt lat="43.43469" lon="1.44047">
        <ele>202.7</ele>
        <time>2022-05-16T09:33:59Z</time>
      </trkpt>
      <trkpt lat="43.4347" lon="1.44046">
        <ele>202.9</ele>
        <time>2022-05-16T09:34:00Z</time>
      </trkpt>
      <trkpt lat="43.43473" lon="1.44044">
        <ele>203.5</ele>
        <time>2022-05-16T09:34:01Z</time>
      </trkpt>
      <trkpt lat="43.43475" lon="1.44043">
        <ele>204</ele>
        <time>2022-05-16T09:34:03Z</time>
      </trkpt>
      <trkpt lat="43.43478" lon="1.44044">
        <ele>204.6</ele>
        <time>2022-05-16T09:34:04Z</time>
      </trkpt>
      <trkpt lat="43.43481" lon="1.44045">
        <ele>205.1</ele>
        <time>2022-05-16T09:34:05Z</time>
      </trkpt>
      <trkpt lat="43.43484" lon="1.44045">
        <ele>205.8</ele>
        <time>2022-05-16T09:34:06Z</time>
      </trkpt>
      <trkpt lat="43.43485" lon="1.44045">
        <ele>206</ele>
        <time>2022-05-16T09:34:07Z</time>
      </trkpt>
      <trkpt lat="43.43488" lon="1.44045">
        <ele>206.6</ele>
        <time>2022-05-16T09:34:08Z</time>
      </trkpt>
      <trkpt lat="43.4349" lon="1.44045">
        <ele>206.8</ele>
        <time>2022-05-16T09:34:09Z</time>
      </trkpt>
      <trkpt lat="43.43492" lon="1.44048">
        <ele>207.6</ele>
        <time>2022-05-16T09:34:10Z</time>
      </trkpt>
      <trkpt lat="43.43493" lon="1.4405">
        <ele>207.8</ele>
        <time>2022-05-16T09:34:11Z</time>
      </trkpt>
      <trkpt lat="43.43496" lon="1.44052">
        <ele>208.4</ele>
        <time>2022-05-16T09:34:12Z</time>
      </trkpt>
      <trkpt lat="43.43497" lon="1.44052">
        <ele>208.6</ele>
        <time>2022-05-16T09:34:13Z</time>
      </trkpt>
      <trkpt lat="43.435" lon="1.44051">
        <ele>209.3</ele>
        <time>2022-05-16T09:34:14Z</time>
      </trkpt>
      <trkpt lat="43.43501" lon="1.44051">
        <ele>209.5</ele>
        <time>2022-05-16T09:34:15Z</time>
      </trkpt>
      <trkpt lat="43.43503" lon="1.4405">
        <ele>209.9</ele>
        <time>2022-05-16T09:34:16Z</time>
      </trkpt>
      <trkpt lat="43.43504" lon="1.44052">
        <ele>210.2</ele>
        <time>2022-05-16T09:34:17Z</time>
      </trkpt>
      <trkpt lat="43.43507" lon="1.44054">
        <ele>210.8</ele>
        <time>2022-05-16T09:34:18Z</time>
      </trkpt>
      <trkpt lat="43.43508" lon="1.44054">
        <ele>211</ele>
        <time>2022-05-16T09:34:19Z</time>
      </trkpt>
      <trkpt lat="43.43511" lon="1.44054">
        <ele>211.6</ele>
        <time>2022-05-16T09:34:20Z</time>
      </trkpt>
      <trkpt lat="43.43512" lon="1.44054">
        <ele>211.8</ele>
        <time>2022-05-16T09:34:21Z</time>
      </trkpt>
      <trkpt lat="43.43515" lon="1.44053">
        <ele>212.3</ele>
        <time>2022-05-16T09:34:22Z</time>
      </trkpt>
      <trkpt lat="43.43516" lon="1.44053">
        <ele>212.5</ele>
        <time>2022-05-16T09:34:23Z</time>
      </trkpt>
      <trkpt lat="43.43518" lon="1.44053">
        <ele>212.8</ele>
        <time>2022-05-16T09:34:24Z</time>
      </trkpt>
      <trkpt lat="43.43519" lon="1.44054">
        <ele>213.1</ele>
        <time>2022-05-16T09:34:25Z</time>
      </trkpt>
      <trkpt lat="43.43522" lon="1.44057">
        <ele>213.5</ele>
        <time>2022-05-16T09:34:26Z</time>
      </trkpt>
      <trkpt lat="43.43523" lon="1.44057">
        <ele>213.7</ele>
        <time>2022-05-16T09:34:27Z</time>
      </trkpt>
      <trkpt lat="43.43526" lon="1.44054">
        <ele>214.3</ele>
        <time>2022-05-16T09:34:28Z</time>
      </trkpt>
      <trkpt lat="43.43528" lon="1.44053">
        <ele>214.6</ele>
        <time>2022-05-16T09:34:29Z</time>
      </trkpt>
      <trkpt lat="43.4353" lon="1.44055">
        <ele>215</ele>
        <time>2022-05-16T09:34:30Z</time>
      </trkpt>
      <trkpt lat="43.43533" lon="1.44056">
        <ele>215.4</ele>
        <time>2022-05-16T09:34:31Z</time>
      </trkpt>
      <trkpt lat="43.43534" lon="1.44056">
        <ele>215.5</ele>
        <time>2022-05-16T09:34:32Z</time>
      </trkpt>
      <trkpt lat="43.43536" lon="1.44055">
        <ele>215.9</ele>
        <time>2022-05-16T09:34:33Z</time>
      </trkpt>
      <trkpt lat="43.43538" lon="1.44055">
        <ele>216</ele>
        <time>2022-05-16T09:34:34Z</time>
      </trkpt>
      <trkpt lat="43.4354" lon="1.44054">
        <ele>216.4</ele>
        <time>2022-05-16T09:34:35Z</time>
      </trkpt>
      <trkpt lat="43.43541" lon="1.44054">
        <ele>216.5</ele>
        <time>2022-05-16T09:34:36Z</time>
      </trkpt>
      <trkpt lat="43.43544" lon="1.44052">
        <ele>216.9</ele>
        <time>2022-05-16T09:34:37Z</time>
      </trkpt>
      <trkpt lat="43.43545" lon="1.44052">
        <ele>217</ele>
        <time>2022-05-16T09:34:38Z</time>
      </trkpt>
      <trkpt lat="43.43548" lon="1.44052">
        <ele>217.4</ele>
        <time>2022-05-16T09:34:39Z</time>
      </trkpt>
      <trkpt lat="43.43549" lon="1.44052">
        <ele>217.5</ele>
        <time>2022-05-16T09:34:40Z</time>
      </trkpt>
      <trkpt lat="43.43552" lon="1.44055">
        <ele>217.8</ele>
        <time>2022-05-16T09:34:41Z</time>
      </trkpt>
      <trkpt lat="43.43552" lon="1.44056">
        <ele>217.9</ele>
        <time>2022-05-16T09:34:42Z</time>
      </trkpt>
      <trkpt lat="43.43555" lon="1.44058">
        <ele>218.2</ele>
        <time>2022-05-16T09:34:43Z</time>
      </trkpt>
      <trkpt lat="43.43556" lon="1.44059">
        <ele>218.3</ele>
        <time>2022-05-16T09:34:44Z</time>
      </trkpt>
      <trkpt lat="43.43557" lon="1.4406">
        <ele>218.4</ele>
        <time>2022-05-16T09:34:45Z</time>
      </trkpt>
      <trkpt lat="43.43558" lon="1.44061">
        <ele>218.5</ele>
        <time>2022-05-16T09:34:46Z</time>
      </trkpt>
      <trkpt lat="43.43561" lon="1.44063">
        <ele>218.6</ele>
        <time>2022-05-16T09:34:47Z</time>
      </trkpt>
      <trkpt lat="43.43561" lon="1.44064">
        <ele>218.7</ele>
        <time>2022-05-16T09:34:48Z</time>
      </trkpt>
      <trkpt lat="43.43563" lon="1.44064">
        <ele>218.8</ele>
        <time>2022-05-16T09:34:49Z</time>
      </trkpt>
      <trkpt lat="43.43564" lon="1.44063">
        <ele>218.8</ele>
        <time>2022-05-16T09:34:50Z</time>
      </trkpt>
      <trkpt lat="43.43566" lon="1.4406">
        <ele>219</ele>
        <time>2022-05-16T09:34:51Z</time>
      </trkpt>
      <trkpt lat="43.43567" lon="1.44059">
        <ele>219</ele>
        <time>2022-05-16T09:34:52Z</time>
      </trkpt>
      <trkpt lat="43.43569" lon="1.44056">
        <ele>219.2</ele>
        <time>2022-05-16T09:34:53Z</time>
      </trkpt>
      <trkpt lat="43.4357" lon="1.44054">
        <ele>219.2</ele>
        <time>2022-05-16T09:34:54Z</time>
      </trkpt>
      <trkpt lat="43.43572" lon="1.44054">
        <ele>219.3</ele>
        <time>2022-05-16T09:34:55Z</time>
      </trkpt>
      <trkpt lat="43.43573" lon="1.44054">
        <ele>219.4</ele>
        <time>2022-05-16T09:34:56Z</time>
      </trkpt>
      <trkpt lat="43.43575" lon="1.44052">
        <ele>219.5</ele>
        <time>2022-05-16T09:34:57Z</time>
      </trkpt>
      <trkpt lat="43.43576" lon="1.44051">
        <ele>219.5</ele>
        <time>2022-05-16T09:34:58Z</time>
      </trkpt>
      <trkpt lat="43.43579" lon="1.44048">
        <ele>219.7</ele>
        <time>2022-05-16T09:34:59Z</time>
      </trkpt>
      <trkpt lat="43.4358" lon="1.44048">
        <ele>219.7</ele>
        <time>2022-05-16T09:35:00Z</time>
      </trkpt>
      <trkpt lat="43.43583" lon="1.44047">
        <ele>219.8</ele>
        <time>2022-05-16T09:35:01Z</time>
      </trkpt>
      <trkpt lat="43.43584" lon="1.44046">
        <ele>219.9</ele>
        <time>2022-05-16T09:35:02Z</time>
      </trkpt>
      <trkpt lat="43.43588" lon="1.44045">
        <ele>220</ele>
        <time>2022-05-16T09:35:03Z</time>
      </trkpt>
      <trkpt lat="43.43589" lon="1.44045">
        <ele>220.1</ele>
        <time>2022-05-16T09:35:04Z</time>
      </trkpt>
      <trkpt lat="43.43592" lon="1.44043">
        <ele>220.2</ele>
        <time>2022-05-16T09:35:05Z</time>
      </trkpt>
      <trkpt lat="43.43593" lon="1.44042">
        <ele>220.3</ele>
        <time>2022-05-16T09:35:06Z</time>
      </trkpt>
      <trkpt lat="43.43596" lon="1.44042">
        <ele>220.4</ele>
        <time>2022-05-16T09:35:07Z</time>
      </trkpt>
      <trkpt lat="43.43598" lon="1.44042">
        <ele>220.5</ele>
        <time>2022-05-16T09:35:08Z</time>
      </trkpt>
      <trkpt lat="43.43601" lon="1.44041">
        <ele>220.6</ele>
        <time>2022-05-16T09:35:09Z</time>
      </trkpt>
      <trkpt lat="43.43602" lon="1.4404">
        <ele>220.6</ele>
        <time>2022-05-16T09:35:10Z</time>
      </trkpt>
      <trkpt lat="43.43605" lon="1.44039">
        <ele>220.7</ele>
        <time>2022-05-16T09:35:11Z</time>
      </trkpt>
      <trkpt lat="43.43608" lon="1.44038">
        <ele>220.9</ele>
        <time>2022-05-16T09:35:12Z</time>
      </trkpt>
      <trkpt lat="43.43611" lon="1.44038">
        <ele>221</ele>
        <time>2022-05-16T09:35:13Z</time>
      </trkpt>
      <trkpt lat="43.43614" lon="1.44037">
        <ele>221.1</ele>
        <time>2022-05-16T09:35:14Z</time>
      </trkpt>
      <trkpt lat="43.43617" lon="1.44036">
        <ele>221.2</ele>
        <time>2022-05-16T09:35:15Z</time>
      </trkpt>
      <trkpt lat="43.4362" lon="1.44036">
        <ele>221.4</ele>
        <time>2022-05-16T09:35:16Z</time>
      </trkpt>
      <trkpt lat="43.43622" lon="1.44035">
        <ele>221.5</ele>
        <time>2022-05-16T09:35:17Z</time>
      </trkpt>
      <trkpt lat="43.43626" lon="1.44035">
        <ele>221.8</ele>
        <time>2022-05-16T09:35:18Z</time>
      </trkpt>
      <trkpt lat="43.43629" lon="1.44033">
        <ele>222</ele>
        <time>2022-05-16T09:35:19Z</time>
      </trkpt>
      <trkpt lat="43.43632" lon="1.44033">
        <ele>222.2</ele>
        <time>2022-05-16T09:35:20Z</time>
      </trkpt>
      <trkpt lat="43.43635" lon="1.44032">
        <ele>222.4</ele>
        <time>2022-05-16T09:35:21Z</time>
      </trkpt>
      <trkpt lat="43.43638" lon="1.44032">
        <ele>222.6</ele>
        <time>2022-05-16T09:35:22Z</time>
      </trkpt>
      <trkpt lat="43.43641" lon="1.44031">
        <ele>222.9</ele>
        <time>2022-05-16T09:35:23Z</time>
      </trkpt>
      <trkpt lat="43.43644" lon="1.44031">
        <ele>223.2</ele>
        <time>2022-05-16T09:35:24Z</time>
      </trkpt>
      <trkpt lat="43.43647" lon="1.4403">
        <ele>223.4</ele>
        <time>2022-05-16T09:35:25Z</time>
      </trkpt>
      <trkpt lat="43.4365" lon="1.44029">
        <ele>223.7</ele>
        <time>2022-05-16T09:35:26Z</time>
      </trkpt>
      <trkpt lat="43.43653" lon="1.44029">
        <ele>224</ele>
        <time>2022-05-16T09:35:27Z</time>
      </trkpt>
      <trkpt lat="43.43656" lon="1.44027">
        <ele>224.2</ele>
        <time>2022-05-16T09:35:28Z</time>
      </trkpt>
      <trkpt lat="43.43659" lon="1.44027">
        <ele>224.5</ele>
        <time>2022-05-16T09:35:29Z</time>
      </trkpt>
      <trkpt lat="43.43662" lon="1.44026">
        <ele>224.7</ele>
        <time>2022-05-16T09:35:30Z</time>
      </trkpt>
      <trkpt lat="43.43665" lon="1.44026">
        <ele>224.9</ele>
        <time>2022-05-16T09:35:31Z</time>
      </trkpt>
      <trkpt lat="43.43668" lon="1.44026">
        <ele>225.1</ele>
        <time>2022-05-16T09:35:32Z</time>
      </trkpt>
      <trkpt lat="43.43671" lon="1.44024">
        <ele>225.3</ele>
        <time>2022-05-16T09:35:33Z</time>
      </trkpt>
      <trkpt lat="43.43674" lon="1.44023">
        <ele>225.5</ele>
        <time>2022-05-16T09:35:34Z</time>
      </trkpt>
      <trkpt lat="43.43677" lon="1.44022">
        <ele>225.6</ele>
        <time>2022-05-16T09:35:35Z</time>
      </trkpt>
      <trkpt lat="43.4368" lon="1.44021">
        <ele>225.8</ele>
        <time>2022-05-16T09:35:36Z</time>
      </trkpt>
      <trkpt lat="43.43683" lon="1.4402">
        <ele>225.9</ele>
        <time>2022-05-16T09:35:37Z</time>
      </trkpt>
      <trkpt lat="43.43686" lon="1.44019">
        <ele>226</ele>
        <time>2022-05-16T09:35:38Z</time>
      </trkpt>
      <trkpt lat="43.43689" lon="1.44018">
        <ele>226.1</ele>
        <time>2022-05-16T09:35:39Z</time>
      </trkpt>
      <trkpt lat="43.43693" lon="1.44017">
        <ele>226.2</ele>
        <time>2022-05-16T09:35:40Z</time>
      </trkpt>
      <trkpt lat="43.43696" lon="1.44016">
        <ele>226.2</ele>
        <time>2022-05-16T09:35:41Z</time>
      </trkpt>
      <trkpt lat="43.437" lon="1.44015">
        <ele>226.3</ele>
        <time>2022-05-16T09:35:42Z</time>
      </trkpt>
      <trkpt lat="43.43705" lon="1.44014">
        <ele>226.3</ele>
        <time>2022-05-16T09:35:43Z</time>
      </trkpt>
      <trkpt lat="43.43709" lon="1.44013">
        <ele>226.3</ele>
        <time>2022-05-16T09:35:44Z</time>
      </trkpt>
      <trkpt lat="43.43713" lon="1.44012">
        <ele>226.4</ele>
        <time>2022-05-16T09:35:45Z</time>
      </trkpt>
      <trkpt lat="43.43717" lon="1.44011">
        <ele>226.4</ele>
        <time>2022-05-16T09:35:46Z</time>
      </trkpt>
      <trkpt lat="43.43721" lon="1.44009">
        <ele>226.5</ele>
        <time>2022-05-16T09:35:47Z</time>
      </trkpt>
      <trkpt lat="43.43725" lon="1.44006">
        <ele>226.5</ele>
        <time>2022-05-16T09:35:48Z</time>
      </trkpt>
      <trkpt lat="43.43728" lon="1.44004">
        <ele>226.6</ele>
        <time>2022-05-16T09:35:49Z</time>
      </trkpt>
      <trkpt lat="43.43732" lon="1.44003">
        <ele>226.6</ele>
        <time>2022-05-16T09:35:50Z</time>
      </trkpt>
      <trkpt lat="43.43737" lon="1.44003">
        <ele>226.7</ele>
        <time>2022-05-16T09:35:51Z</time>
      </trkpt>
      <trkpt lat="43.43741" lon="1.44002">
        <ele>226.7</ele>
        <time>2022-05-16T09:35:52Z</time>
      </trkpt>
      <trkpt lat="43.43746" lon="1.44003">
        <ele>226.8</ele>
        <time>2022-05-16T09:35:53Z</time>
      </trkpt>
      <trkpt lat="43.4375" lon="1.44005">
        <ele>226.9</ele>
        <time>2022-05-16T09:35:54Z</time>
      </trkpt>
      <trkpt lat="43.43754" lon="1.44008">
        <ele>227</ele>
        <time>2022-05-16T09:35:55Z</time>
      </trkpt>
      <trkpt lat="43.43756" lon="1.44012">
        <ele>227.1</ele>
        <time>2022-05-16T09:35:56Z</time>
      </trkpt>
      <trkpt lat="43.43759" lon="1.44017">
        <ele>227.2</ele>
        <time>2022-05-16T09:35:57Z</time>
      </trkpt>
      <trkpt lat="43.43761" lon="1.44022">
        <ele>227.3</ele>
        <time>2022-05-16T09:35:58Z</time>
      </trkpt>
      <trkpt lat="43.43763" lon="1.44027">
        <ele>227.4</ele>
        <time>2022-05-16T09:35:59Z</time>
      </trkpt>
      <trkpt lat="43.43765" lon="1.44033">
        <ele>227.5</ele>
        <time>2022-05-16T09:36:00Z</time>
      </trkpt>
      <trkpt lat="43.43767" lon="1.44038">
        <ele>227.5</ele>
        <time>2022-05-16T09:36:01Z</time>
      </trkpt>
      <trkpt lat="43.43769" lon="1.44042">
        <ele>227.6</ele>
        <time>2022-05-16T09:36:02Z</time>
      </trkpt>
      <trkpt lat="43.4377" lon="1.44047">
        <ele>227.6</ele>
        <time>2022-05-16T09:36:03Z</time>
      </trkpt>
      <trkpt lat="43.43772" lon="1.44052">
        <ele>227.6</ele>
        <time>2022-05-16T09:36:04Z</time>
      </trkpt>
      <trkpt lat="43.43774" lon="1.44058">
        <ele>227.6</ele>
        <time>2022-05-16T09:36:05Z</time>
      </trkpt>
      <trkpt lat="43.43776" lon="1.44063">
        <ele>227.6</ele>
        <time>2022-05-16T09:36:06Z</time>
      </trkpt>
      <trkpt lat="43.43778" lon="1.44069">
        <ele>227.6</ele>
        <time>2022-05-16T09:36:07Z</time>
      </trkpt>
      <trkpt lat="43.4378" lon="1.44074">
        <ele>227.6</ele>
        <time>2022-05-16T09:36:09Z</time>
      </trkpt>
      <trkpt lat="43.43783" lon="1.4408">
        <ele>227.6</ele>
        <time>2022-05-16T09:36:10Z</time>
      </trkpt>
      <trkpt lat="43.43785" lon="1.44086">
        <ele>227.6</ele>
        <time>2022-05-16T09:36:11Z</time>
      </trkpt>
      <trkpt lat="43.43787" lon="1.44091">
        <ele>227.6</ele>
        <time>2022-05-16T09:36:12Z</time>
      </trkpt>
      <trkpt lat="43.43789" lon="1.44097">
        <ele>227.6</ele>
        <time>2022-05-16T09:36:13Z</time>
      </trkpt>
      <trkpt lat="43.43791" lon="1.44102">
        <ele>227.6</ele>
        <time>2022-05-16T09:36:14Z</time>
      </trkpt>
      <trkpt lat="43.43793" lon="1.44108">
        <ele>227.6</ele>
        <time>2022-05-16T09:36:15Z</time>
      </trkpt>
      <trkpt lat="43.43795" lon="1.44114">
        <ele>227.7</ele>
        <time>2022-05-16T09:36:16Z</time>
      </trkpt>
      <trkpt lat="43.43797" lon="1.4412">
        <ele>227.7</ele>
        <time>2022-05-16T09:36:17Z</time>
      </trkpt>
      <trkpt lat="43.43799" lon="1.44125">
        <ele>227.8</ele>
        <time>2022-05-16T09:36:18Z</time>
      </trkpt>
      <trkpt lat="43.43801" lon="1.4413">
        <ele>227.9</ele>
        <time>2022-05-16T09:36:19Z</time>
      </trkpt>
      <trkpt lat="43.43803" lon="1.44135">
        <ele>227.9</ele>
        <time>2022-05-16T09:36:20Z</time>
      </trkpt>
      <trkpt lat="43.43805" lon="1.4414">
        <ele>228</ele>
        <time>2022-05-16T09:36:21Z</time>
      </trkpt>
      <trkpt lat="43.43807" lon="1.44145">
        <ele>228.1</ele>
        <time>2022-05-16T09:36:22Z</time>
      </trkpt>
      <trkpt lat="43.43809" lon="1.44151">
        <ele>228.2</ele>
        <time>2022-05-16T09:36:23Z</time>
      </trkpt>
      <trkpt lat="43.43811" lon="1.44156">
        <ele>228.3</ele>
        <time>2022-05-16T09:36:24Z</time>
      </trkpt>
      <trkpt lat="43.43813" lon="1.44161">
        <ele>228.4</ele>
        <time>2022-05-16T09:36:25Z</time>
      </trkpt>
      <trkpt lat="43.43815" lon="1.44166">
        <ele>228.5</ele>
        <time>2022-05-16T09:36:26Z</time>
      </trkpt>
      <trkpt lat="43.43817" lon="1.44171">
        <ele>228.6</ele>
        <time>2022-05-16T09:36:27Z</time>
      </trkpt>
      <trkpt lat="43.43819" lon="1.44175">
        <ele>228.8</ele>
        <time>2022-05-16T09:36:28Z</time>
      </trkpt>
      <trkpt lat="43.43821" lon="1.44179">
        <ele>228.9</ele>
        <time>2022-05-16T09:36:29Z</time>
      </trkpt>
      <trkpt lat="43.43819" lon="1.44184">
        <ele>228.5</ele>
        <time>2022-05-16T09:36:30Z</time>
      </trkpt>
      <trkpt lat="43.43818" lon="1.44186">
        <ele>228.4</ele>
        <time>2022-05-16T09:36:31Z</time>
      </trkpt>
      <trkpt lat="43.43816" lon="1.44189">
        <ele>228</ele>
        <time>2022-05-16T09:36:32Z</time>
      </trkpt>
      <trkpt lat="43.43813" lon="1.442">
        <ele>227.2</ele>
        <time>2022-05-16T09:36:33Z</time>
      </trkpt>
      <trkpt lat="43.4381" lon="1.44205">
        <ele>226.6</ele>
        <time>2022-05-16T09:36:34Z</time>
      </trkpt>
      <trkpt lat="43.43805" lon="1.44209">
        <ele>225.7</ele>
        <time>2022-05-16T09:36:35Z</time>
      </trkpt>
      <trkpt lat="43.43799" lon="1.44211">
        <ele>224.8</ele>
        <time>2022-05-16T09:36:36Z</time>
      </trkpt>
      <trkpt lat="43.43792" lon="1.44213">
        <ele>223.6</ele>
        <time>2022-05-16T09:36:37Z</time>
      </trkpt>
      <trkpt lat="43.43784" lon="1.44217">
        <ele>222.2</ele>
        <time>2022-05-16T09:36:38Z</time>
      </trkpt>
      <trkpt lat="43.4378" lon="1.44222">
        <ele>221.2</ele>
        <time>2022-05-16T09:36:39Z</time>
      </trkpt>
      <trkpt lat="43.43779" lon="1.44232">
        <ele>220</ele>
        <time>2022-05-16T09:36:40Z</time>
      </trkpt>
      <trkpt lat="43.43776" lon="1.4424">
        <ele>218.9</ele>
        <time>2022-05-16T09:36:41Z</time>
      </trkpt>
      <trkpt lat="43.43772" lon="1.44246">
        <ele>217.7</ele>
        <time>2022-05-16T09:36:42Z</time>
      </trkpt>
      <trkpt lat="43.43767" lon="1.44254">
        <ele>216.5</ele>
        <time>2022-05-16T09:36:43Z</time>
      </trkpt>
      <trkpt lat="43.43763" lon="1.44263">
        <ele>215.1</ele>
        <time>2022-05-16T09:36:44Z</time>
      </trkpt>
      <trkpt lat="43.43759" lon="1.4427">
        <ele>213.9</ele>
        <time>2022-05-16T09:36:45Z</time>
      </trkpt>
      <trkpt lat="43.43754" lon="1.44274">
        <ele>212.7</ele>
        <time>2022-05-16T09:36:46Z</time>
      </trkpt>
      <trkpt lat="43.43753" lon="1.4428">
        <ele>211.7</ele>
        <time>2022-05-16T09:36:47Z</time>
      </trkpt>
      <trkpt lat="43.4375" lon="1.44293">
        <ele>209.6</ele>
        <time>2022-05-16T09:36:48Z</time>
      </trkpt>
      <trkpt lat="43.43747" lon="1.44305">
        <ele>207.7</ele>
        <time>2022-05-16T09:36:49Z</time>
      </trkpt>
      <trkpt lat="43.43744" lon="1.44318">
        <ele>205.7</ele>
        <time>2022-05-16T09:36:50Z</time>
      </trkpt>
      <trkpt lat="43.4374" lon="1.44332">
        <ele>203.7</ele>
        <time>2022-05-16T09:36:51Z</time>
      </trkpt>
      <trkpt lat="43.43738" lon="1.44345">
        <ele>201.9</ele>
        <time>2022-05-16T09:36:52Z</time>
      </trkpt>
      <trkpt lat="43.43736" lon="1.44358">
        <ele>200.1</ele>
        <time>2022-05-16T09:36:53Z</time>
      </trkpt>
      <trkpt lat="43.43734" lon="1.44368">
        <ele>198.4</ele>
        <time>2022-05-16T09:36:54Z</time>
      </trkpt>
      <trkpt lat="43.43731" lon="1.44377">
        <ele>196.8</ele>
        <time>2022-05-16T09:36:55Z</time>
      </trkpt>
      <trkpt lat="43.43727" lon="1.44384">
        <ele>195.2</ele>
        <time>2022-05-16T09:36:56Z</time>
      </trkpt>
      <trkpt lat="43.43724" lon="1.44391">
        <ele>193.5</ele>
        <time>2022-05-16T09:36:57Z</time>
      </trkpt>
      <trkpt lat="43.43721" lon="1.44399">
        <ele>191.6</ele>
        <time>2022-05-16T09:36:58Z</time>
      </trkpt>
      <trkpt lat="43.43719" lon="1.44404">
        <ele>190.6</ele>
        <time>2022-05-16T09:36:59Z</time>
      </trkpt>
      <trkpt lat="43.43715" lon="1.44406">
        <ele>189.3</ele>
        <time>2022-05-16T09:37:00Z</time>
      </trkpt>
      <trkpt lat="43.43711" lon="1.44412">
        <ele>187.9</ele>
        <time>2022-05-16T09:37:01Z</time>
      </trkpt>
      <trkpt lat="43.43709" lon="1.44415">
        <ele>187.1</ele>
        <time>2022-05-16T09:37:02Z</time>
      </trkpt>
      <trkpt lat="43.43706" lon="1.44421">
        <ele>185.8</ele>
        <time>2022-05-16T09:37:03Z</time>
      </trkpt>
      <trkpt lat="43.43702" lon="1.44432">
        <ele>183.9</ele>
        <time>2022-05-16T09:37:04Z</time>
      </trkpt>
      <trkpt lat="43.43697" lon="1.44442">
        <ele>182</ele>
        <time>2022-05-16T09:37:05Z</time>
      </trkpt>
      <trkpt lat="43.43693" lon="1.44449">
        <ele>180.6</ele>
        <time>2022-05-16T09:37:06Z</time>
      </trkpt>
      <trkpt lat="43.43693" lon="1.44463">
        <ele>178.7</ele>
        <time>2022-05-16T09:37:07Z</time>
      </trkpt>
      <trkpt lat="43.43693" lon="1.44477">
        <ele>176.8</ele>
        <time>2022-05-16T09:37:08Z</time>
      </trkpt>
      <trkpt lat="43.43691" lon="1.44491">
        <ele>175.4</ele>
        <time>2022-05-16T09:37:09Z</time>
      </trkpt>
      <trkpt lat="43.43688" lon="1.44502">
        <ele>174.4</ele>
        <time>2022-05-16T09:37:10Z</time>
      </trkpt>
      <trkpt lat="43.43684" lon="1.4451">
        <ele>173.7</ele>
        <time>2022-05-16T09:37:11Z</time>
      </trkpt>
      <trkpt lat="43.43681" lon="1.44512">
        <ele>173.5</ele>
        <time>2022-05-16T09:37:12Z</time>
      </trkpt>
      <trkpt lat="43.4368" lon="1.44512">
        <ele>173.5</ele>
        <time>2022-05-16T09:37:13Z</time>
      </trkpt>
      <trkpt lat="43.4368" lon="1.44516">
        <ele>173.5</ele>
        <time>2022-05-16T09:37:14Z</time>
      </trkpt>
      <trkpt lat="43.43681" lon="1.44519">
        <ele>173.6</ele>
        <time>2022-05-16T09:37:15Z</time>
      </trkpt>
      <trkpt lat="43.43684" lon="1.44524">
        <ele>173.7</ele>
        <time>2022-05-16T09:37:16Z</time>
      </trkpt>
      <trkpt lat="43.43687" lon="1.44527">
        <ele>173.8</ele>
        <time>2022-05-16T09:37:17Z</time>
      </trkpt>
      <trkpt lat="43.43691" lon="1.44531">
        <ele>173.8</ele>
        <time>2022-05-16T09:37:18Z</time>
      </trkpt>
      <trkpt lat="43.43693" lon="1.44535">
        <ele>173.9</ele>
        <time>2022-05-16T09:37:19Z</time>
      </trkpt>
      <trkpt lat="43.43696" lon="1.44539">
        <ele>174</ele>
        <time>2022-05-16T09:37:20Z</time>
      </trkpt>
      <trkpt lat="43.437" lon="1.44542">
        <ele>174.1</ele>
        <time>2022-05-16T09:37:21Z</time>
      </trkpt>
      <trkpt lat="43.43703" lon="1.44546">
        <ele>174.3</ele>
        <time>2022-05-16T09:37:22Z</time>
      </trkpt>
      <trkpt lat="43.43706" lon="1.44549">
        <ele>174.4</ele>
        <time>2022-05-16T09:37:23Z</time>
      </trkpt>
      <trkpt lat="43.43709" lon="1.44553">
        <ele>174.5</ele>
        <time>2022-05-16T09:37:24Z</time>
      </trkpt>
      <trkpt lat="43.43711" lon="1.44559">
        <ele>174.7</ele>
        <time>2022-05-16T09:37:25Z</time>
      </trkpt>
      <trkpt lat="43.43714" lon="1.44563">
        <ele>175</ele>
        <time>2022-05-16T09:37:26Z</time>
      </trkpt>
      <trkpt lat="43.43716" lon="1.44567">
        <ele>175.1</ele>
        <time>2022-05-16T09:37:27Z</time>
      </trkpt>
      <trkpt lat="43.43719" lon="1.44571">
        <ele>175.4</ele>
        <time>2022-05-16T09:37:28Z</time>
      </trkpt>
      <trkpt lat="43.43722" lon="1.44574">
        <ele>175.7</ele>
        <time>2022-05-16T09:37:29Z</time>
      </trkpt>
      <trkpt lat="43.43724" lon="1.44579">
        <ele>175.9</ele>
        <time>2022-05-16T09:37:30Z</time>
      </trkpt>
      <trkpt lat="43.43727" lon="1.44582">
        <ele>176.3</ele>
        <time>2022-05-16T09:37:31Z</time>
      </trkpt>
      <trkpt lat="43.4373" lon="1.44586">
        <ele>176.6</ele>
        <time>2022-05-16T09:37:32Z</time>
      </trkpt>
      <trkpt lat="43.43732" lon="1.44589">
        <ele>176.9</ele>
        <time>2022-05-16T09:37:33Z</time>
      </trkpt>
      <trkpt lat="43.43734" lon="1.44593">
        <ele>177.3</ele>
        <time>2022-05-16T09:37:34Z</time>
      </trkpt>
      <trkpt lat="43.43736" lon="1.44597">
        <ele>177.6</ele>
        <time>2022-05-16T09:37:35Z</time>
      </trkpt>
      <trkpt lat="43.43739" lon="1.446">
        <ele>178</ele>
        <time>2022-05-16T09:37:36Z</time>
      </trkpt>
      <trkpt lat="43.43742" lon="1.44602">
        <ele>178.5</ele>
        <time>2022-05-16T09:37:37Z</time>
      </trkpt>
      <trkpt lat="43.43744" lon="1.44605">
        <ele>178.9</ele>
        <time>2022-05-16T09:37:38Z</time>
      </trkpt>
      <trkpt lat="43.43747" lon="1.44607">
        <ele>179.2</ele>
        <time>2022-05-16T09:37:39Z</time>
      </trkpt>
      <trkpt lat="43.4375" lon="1.44609">
        <ele>179.7</ele>
        <time>2022-05-16T09:37:40Z</time>
      </trkpt>
      <trkpt lat="43.43753" lon="1.44611">
        <ele>180.2</ele>
        <time>2022-05-16T09:37:41Z</time>
      </trkpt>
      <trkpt lat="43.43757" lon="1.44613">
        <ele>180.8</ele>
        <time>2022-05-16T09:37:42Z</time>
      </trkpt>
      <trkpt lat="43.43759" lon="1.44613">
        <ele>181.1</ele>
        <time>2022-05-16T09:37:43Z</time>
      </trkpt>
      <trkpt lat="43.43763" lon="1.44614">
        <ele>181.7</ele>
        <time>2022-05-16T09:37:44Z</time>
      </trkpt>
      <trkpt lat="43.43766" lon="1.44615">
        <ele>182.1</ele>
        <time>2022-05-16T09:37:45Z</time>
      </trkpt>
      <trkpt lat="43.43769" lon="1.44615">
        <ele>182.6</ele>
        <time>2022-05-16T09:37:46Z</time>
      </trkpt>
      <trkpt lat="43.43772" lon="1.44616">
        <ele>183</ele>
        <time>2022-05-16T09:37:47Z</time>
      </trkpt>
      <trkpt lat="43.43775" lon="1.44616">
        <ele>183.5</ele>
        <time>2022-05-16T09:37:48Z</time>
      </trkpt>
      <trkpt lat="43.43778" lon="1.44616">
        <ele>183.9</ele>
        <time>2022-05-16T09:37:49Z</time>
      </trkpt>
      <trkpt lat="43.43781" lon="1.44617">
        <ele>184.3</ele>
        <time>2022-05-16T09:37:50Z</time>
      </trkpt>
      <trkpt lat="43.43784" lon="1.44618">
        <ele>184.8</ele>
        <time>2022-05-16T09:37:51Z</time>
      </trkpt>
      <trkpt lat="43.43787" lon="1.44619">
        <ele>185.2</ele>
        <time>2022-05-16T09:37:52Z</time>
      </trkpt>
      <trkpt lat="43.4379" lon="1.4462">
        <ele>185.6</ele>
        <time>2022-05-16T09:37:53Z</time>
      </trkpt>
      <trkpt lat="43.43794" lon="1.44621">
        <ele>186</ele>
        <time>2022-05-16T09:37:54Z</time>
      </trkpt>
      <trkpt lat="43.43797" lon="1.44622">
        <ele>186.4</ele>
        <time>2022-05-16T09:37:55Z</time>
      </trkpt>
      <trkpt lat="43.438" lon="1.44622">
        <ele>186.1</ele>
        <time>2022-05-16T09:37:56Z</time>
      </trkpt>
      <trkpt lat="43.43803" lon="1.44623">
        <ele>185.9</ele>
        <time>2022-05-16T09:37:57Z</time>
      </trkpt>
      <trkpt lat="43.43803" lon="1.44628">
        <ele>185.6</ele>
        <time>2022-05-16T09:37:58Z</time>
      </trkpt>
      <trkpt lat="43.43803" lon="1.44629">
        <ele>185.4</ele>
        <time>2022-05-16T09:37:59Z</time>
      </trkpt>
      <trkpt lat="43.43802" lon="1.44633">
        <ele>185</ele>
        <time>2022-05-16T09:38:00Z</time>
      </trkpt>
      <trkpt lat="43.43802" lon="1.44635">
        <ele>184.9</ele>
        <time>2022-05-16T09:38:01Z</time>
      </trkpt>
      <trkpt lat="43.43799" lon="1.44639">
        <ele>184.3</ele>
        <time>2022-05-16T09:38:02Z</time>
      </trkpt>
      <trkpt lat="43.43799" lon="1.44641">
        <ele>184</ele>
        <time>2022-05-16T09:38:03Z</time>
      </trkpt>
      <trkpt lat="43.43799" lon="1.44646">
        <ele>183.5</ele>
        <time>2022-05-16T09:38:04Z</time>
      </trkpt>
      <trkpt lat="43.438" lon="1.4465">
        <ele>182.9</ele>
        <time>2022-05-16T09:38:05Z</time>
      </trkpt>
      <trkpt lat="43.43801" lon="1.44655">
        <ele>182.3</ele>
        <time>2022-05-16T09:38:06Z</time>
      </trkpt>
      <trkpt lat="43.43801" lon="1.44659">
        <ele>181.9</ele>
        <time>2022-05-16T09:38:07Z</time>
      </trkpt>
      <trkpt lat="43.43804" lon="1.44665">
        <ele>181.3</ele>
        <time>2022-05-16T09:38:08Z</time>
      </trkpt>
      <trkpt lat="43.43807" lon="1.4467">
        <ele>180.9</ele>
        <time>2022-05-16T09:38:09Z</time>
      </trkpt>
      <trkpt lat="43.4381" lon="1.44675">
        <ele>180.7</ele>
        <time>2022-05-16T09:38:10Z</time>
      </trkpt>
      <trkpt lat="43.43812" lon="1.4468">
        <ele>180.7</ele>
        <time>2022-05-16T09:38:11Z</time>
      </trkpt>
      <trkpt lat="43.43815" lon="1.44684">
        <ele>180.8</ele>
        <time>2022-05-16T09:38:12Z</time>
      </trkpt>
      <trkpt lat="43.43817" lon="1.44686">
        <ele>180.9</ele>
        <time>2022-05-16T09:38:13Z</time>
      </trkpt>
      <trkpt lat="43.43818" lon="1.44687">
        <ele>180.9</ele>
        <time>2022-05-16T09:38:14Z</time>
      </trkpt>
      <trkpt lat="43.43819" lon="1.44688">
        <ele>181</ele>
        <time>2022-05-16T09:38:15Z</time>
      </trkpt>
      <trkpt lat="43.43821" lon="1.44692">
        <ele>181.2</ele>
        <time>2022-05-16T09:38:17Z</time>
      </trkpt>
      <trkpt lat="43.43823" lon="1.44696">
        <ele>181.4</ele>
        <time>2022-05-16T09:38:19Z</time>
      </trkpt>
      <trkpt lat="43.43823" lon="1.44699">
        <ele>181.5</ele>
        <time>2022-05-16T09:38:20Z</time>
      </trkpt>
      <trkpt lat="43.43825" lon="1.44702">
        <ele>181.6</ele>
        <time>2022-05-16T09:38:21Z</time>
      </trkpt>
      <trkpt lat="43.43826" lon="1.44703">
        <ele>181.7</ele>
        <time>2022-05-16T09:38:22Z</time>
      </trkpt>
      <trkpt lat="43.4383" lon="1.44707">
        <ele>181.9</ele>
        <time>2022-05-16T09:38:23Z</time>
      </trkpt>
      <trkpt lat="43.43832" lon="1.44714">
        <ele>181.9</ele>
        <time>2022-05-16T09:38:25Z</time>
      </trkpt>
      <trkpt lat="43.43835" lon="1.44717">
        <ele>181.8</ele>
        <time>2022-05-16T09:38:27Z</time>
      </trkpt>
      <trkpt lat="43.43835" lon="1.44724">
        <ele>181.6</ele>
        <time>2022-05-16T09:38:28Z</time>
      </trkpt>
      <trkpt lat="43.43835" lon="1.44727">
        <ele>181.5</ele>
        <time>2022-05-16T09:38:29Z</time>
      </trkpt>
      <trkpt lat="43.43834" lon="1.44737">
        <ele>180.9</ele>
        <time>2022-05-16T09:38:31Z</time>
      </trkpt>
      <trkpt lat="43.43838" lon="1.44745">
        <ele>180.4</ele>
        <time>2022-05-16T09:38:33Z</time>
      </trkpt>
      <trkpt lat="43.43839" lon="1.44747">
        <ele>180.3</ele>
        <time>2022-05-16T09:38:34Z</time>
      </trkpt>
      <trkpt lat="43.43841" lon="1.44751">
        <ele>180.1</ele>
        <time>2022-05-16T09:38:35Z</time>
      </trkpt>
      <trkpt lat="43.43842" lon="1.44756">
        <ele>179.9</ele>
        <time>2022-05-16T09:38:36Z</time>
      </trkpt>
      <trkpt lat="43.43843" lon="1.44759">
        <ele>179.8</ele>
        <time>2022-05-16T09:38:37Z</time>
      </trkpt>
      <trkpt lat="43.43844" lon="1.44763">
        <ele>179.7</ele>
        <time>2022-05-16T09:38:38Z</time>
      </trkpt>
      <trkpt lat="43.43845" lon="1.44768">
        <ele>179.6</ele>
        <time>2022-05-16T09:38:39Z</time>
      </trkpt>
      <trkpt lat="43.43845" lon="1.4477">
        <ele>179.6</ele>
        <time>2022-05-16T09:38:40Z</time>
      </trkpt>
      <trkpt lat="43.43847" lon="1.44775">
        <ele>179.6</ele>
        <time>2022-05-16T09:38:41Z</time>
      </trkpt>
      <trkpt lat="43.43847" lon="1.44777">
        <ele>179.6</ele>
        <time>2022-05-16T09:38:42Z</time>
      </trkpt>
      <trkpt lat="43.43846" lon="1.44781">
        <ele>179.6</ele>
        <time>2022-05-16T09:38:43Z</time>
      </trkpt>
      <trkpt lat="43.43846" lon="1.44785">
        <ele>179.6</ele>
        <time>2022-05-16T09:38:44Z</time>
      </trkpt>
      <trkpt lat="43.43849" lon="1.4479">
        <ele>179.7</ele>
        <time>2022-05-16T09:38:45Z</time>
      </trkpt>
      <trkpt lat="43.43849" lon="1.44794">
        <ele>179.9</ele>
        <time>2022-05-16T09:38:46Z</time>
      </trkpt>
      <trkpt lat="43.43852" lon="1.44799">
        <ele>180.1</ele>
        <time>2022-05-16T09:38:47Z</time>
      </trkpt>
      <trkpt lat="43.43855" lon="1.44802">
        <ele>180.4</ele>
        <time>2022-05-16T09:38:48Z</time>
      </trkpt>
      <trkpt lat="43.43858" lon="1.44804">
        <ele>180.7</ele>
        <time>2022-05-16T09:38:49Z</time>
      </trkpt>
      <trkpt lat="43.43859" lon="1.44806">
        <ele>180.8</ele>
        <time>2022-05-16T09:38:50Z</time>
      </trkpt>
      <trkpt lat="43.43861" lon="1.44809">
        <ele>181.1</ele>
        <time>2022-05-16T09:38:51Z</time>
      </trkpt>
      <trkpt lat="43.43861" lon="1.4481">
        <ele>181.3</ele>
        <time>2022-05-16T09:38:52Z</time>
      </trkpt>
      <trkpt lat="43.43861" lon="1.44815">
        <ele>181.6</ele>
        <time>2022-05-16T09:38:53Z</time>
      </trkpt>
      <trkpt lat="43.43862" lon="1.44815">
        <ele>181.7</ele>
        <time>2022-05-16T09:38:54Z</time>
      </trkpt>
      <trkpt lat="43.43864" lon="1.44816">
        <ele>181.9</ele>
        <time>2022-05-16T09:38:55Z</time>
      </trkpt>
      <trkpt lat="43.43865" lon="1.44816">
        <ele>182</ele>
        <time>2022-05-16T09:38:56Z</time>
      </trkpt>
      <trkpt lat="43.43869" lon="1.44819">
        <ele>182.4</ele>
        <time>2022-05-16T09:38:57Z</time>
      </trkpt>
      <trkpt lat="43.43871" lon="1.44822">
        <ele>182.7</ele>
        <time>2022-05-16T09:38:58Z</time>
      </trkpt>
      <trkpt lat="43.43872" lon="1.44824">
        <ele>182.8</ele>
        <time>2022-05-16T09:38:59Z</time>
      </trkpt>
      <trkpt lat="43.43877" lon="1.44826">
        <ele>183.1</ele>
        <time>2022-05-16T09:39:00Z</time>
      </trkpt>
      <trkpt lat="43.43878" lon="1.4483">
        <ele>183.1</ele>
        <time>2022-05-16T09:39:01Z</time>
      </trkpt>
      <trkpt lat="43.43879" lon="1.44831">
        <ele>183.1</ele>
        <time>2022-05-16T09:39:02Z</time>
      </trkpt>
      <trkpt lat="43.43881" lon="1.44832">
        <ele>183</ele>
        <time>2022-05-16T09:39:03Z</time>
      </trkpt>
      <trkpt lat="43.43882" lon="1.44833">
        <ele>183</ele>
        <time>2022-05-16T09:39:04Z</time>
      </trkpt>
      <trkpt lat="43.43883" lon="1.44838">
        <ele>182.7</ele>
        <time>2022-05-16T09:39:05Z</time>
      </trkpt>
      <trkpt lat="43.43885" lon="1.44842">
        <ele>182.3</ele>
        <time>2022-05-16T09:39:06Z</time>
      </trkpt>
      <trkpt lat="43.43889" lon="1.44843">
        <ele>181.7</ele>
        <time>2022-05-16T09:39:07Z</time>
      </trkpt>
      <trkpt lat="43.43891" lon="1.4485">
        <ele>180.8</ele>
        <time>2022-05-16T09:39:08Z</time>
      </trkpt>
      <trkpt lat="43.43893" lon="1.44856">
        <ele>180</ele>
        <time>2022-05-16T09:39:09Z</time>
      </trkpt>
      <trkpt lat="43.43896" lon="1.4486">
        <ele>179.3</ele>
        <time>2022-05-16T09:39:10Z</time>
      </trkpt>
      <trkpt lat="43.439" lon="1.4486">
        <ele>178.9</ele>
        <time>2022-05-16T09:39:11Z</time>
      </trkpt>
      <trkpt lat="43.43903" lon="1.4486">
        <ele>178.5</ele>
        <time>2022-05-16T09:39:13Z</time>
      </trkpt>
      <trkpt lat="43.43909" lon="1.44861">
        <ele>177.9</ele>
        <time>2022-05-16T09:39:14Z</time>
      </trkpt>
      <trkpt lat="43.43911" lon="1.44858">
        <ele>177.7</ele>
        <time>2022-05-16T09:39:15Z</time>
      </trkpt>
      <trkpt lat="43.43914" lon="1.44859">
        <ele>177.6</ele>
        <time>2022-05-16T09:39:16Z</time>
      </trkpt>
      <trkpt lat="43.43916" lon="1.44859">
        <ele>177.5</ele>
        <time>2022-05-16T09:39:17Z</time>
      </trkpt>
      <trkpt lat="43.43918" lon="1.44861">
        <ele>177.5</ele>
        <time>2022-05-16T09:39:18Z</time>
      </trkpt>
      <trkpt lat="43.43919" lon="1.44861">
        <ele>177.5</ele>
        <time>2022-05-16T09:39:19Z</time>
      </trkpt>
      <trkpt lat="43.43923" lon="1.44864">
        <ele>177.5</ele>
        <time>2022-05-16T09:39:20Z</time>
      </trkpt>
      <trkpt lat="43.43927" lon="1.44864">
        <ele>177.6</ele>
        <time>2022-05-16T09:39:21Z</time>
      </trkpt>
      <trkpt lat="43.43929" lon="1.44864">
        <ele>177.6</ele>
        <time>2022-05-16T09:39:22Z</time>
      </trkpt>
      <trkpt lat="43.43932" lon="1.44862">
        <ele>177.7</ele>
        <time>2022-05-16T09:39:23Z</time>
      </trkpt>
      <trkpt lat="43.43933" lon="1.44862">
        <ele>177.8</ele>
        <time>2022-05-16T09:39:24Z</time>
      </trkpt>
      <trkpt lat="43.43936" lon="1.44859">
        <ele>177.8</ele>
        <time>2022-05-16T09:39:25Z</time>
      </trkpt>
      <trkpt lat="43.43937" lon="1.44854">
        <ele>178</ele>
        <time>2022-05-16T09:39:26Z</time>
      </trkpt>
      <trkpt lat="43.4394" lon="1.44852">
        <ele>178.1</ele>
        <time>2022-05-16T09:39:27Z</time>
      </trkpt>
      <trkpt lat="43.43943" lon="1.44851">
        <ele>178.2</ele>
        <time>2022-05-16T09:39:28Z</time>
      </trkpt>
      <trkpt lat="43.43947" lon="1.44851">
        <ele>178.2</ele>
        <time>2022-05-16T09:39:29Z</time>
      </trkpt>
      <trkpt lat="43.4395" lon="1.44846">
        <ele>178.3</ele>
        <time>2022-05-16T09:39:30Z</time>
      </trkpt>
      <trkpt lat="43.43951" lon="1.44844">
        <ele>178.4</ele>
        <time>2022-05-16T09:39:31Z</time>
      </trkpt>
      <trkpt lat="43.43952" lon="1.4484">
        <ele>178.4</ele>
        <time>2022-05-16T09:39:32Z</time>
      </trkpt>
      <trkpt lat="43.43954" lon="1.44835">
        <ele>178.5</ele>
        <time>2022-05-16T09:39:33Z</time>
      </trkpt>
      <trkpt lat="43.43957" lon="1.44832">
        <ele>178.6</ele>
        <time>2022-05-16T09:39:34Z</time>
      </trkpt>
      <trkpt lat="43.4396" lon="1.4483">
        <ele>178.8</ele>
        <time>2022-05-16T09:39:35Z</time>
      </trkpt>
      <trkpt lat="43.43962" lon="1.44826">
        <ele>178.9</ele>
        <time>2022-05-16T09:39:36Z</time>
      </trkpt>
      <trkpt lat="43.43965" lon="1.44824">
        <ele>179.1</ele>
        <time>2022-05-16T09:39:37Z</time>
      </trkpt>
      <trkpt lat="43.43969" lon="1.44823">
        <ele>179.2</ele>
        <time>2022-05-16T09:39:38Z</time>
      </trkpt>
      <trkpt lat="43.43971" lon="1.44822">
        <ele>179.3</ele>
        <time>2022-05-16T09:39:39Z</time>
      </trkpt>
      <trkpt lat="43.43975" lon="1.44821">
        <ele>179.5</ele>
        <time>2022-05-16T09:39:40Z</time>
      </trkpt>
      <trkpt lat="43.43976" lon="1.44821">
        <ele>179.5</ele>
        <time>2022-05-16T09:39:41Z</time>
      </trkpt>
      <trkpt lat="43.43978" lon="1.44818">
        <ele>179.6</ele>
        <time>2022-05-16T09:39:42Z</time>
      </trkpt>
      <trkpt lat="43.43979" lon="1.44816">
        <ele>179.6</ele>
        <time>2022-05-16T09:39:43Z</time>
      </trkpt>
      <trkpt lat="43.4398" lon="1.44812">
        <ele>179.6</ele>
        <time>2022-05-16T09:39:44Z</time>
      </trkpt>
      <trkpt lat="43.4398" lon="1.44806">
        <ele>179.6</ele>
        <time>2022-05-16T09:39:45Z</time>
      </trkpt>
      <trkpt lat="43.4398" lon="1.448">
        <ele>179.5</ele>
        <time>2022-05-16T09:39:46Z</time>
      </trkpt>
      <trkpt lat="43.43979" lon="1.44795">
        <ele>179.4</ele>
        <time>2022-05-16T09:39:47Z</time>
      </trkpt>
      <trkpt lat="43.43983" lon="1.44792">
        <ele>179.3</ele>
        <time>2022-05-16T09:39:48Z</time>
      </trkpt>
      <trkpt lat="43.43986" lon="1.4479">
        <ele>179.2</ele>
        <time>2022-05-16T09:39:49Z</time>
      </trkpt>
      <trkpt lat="43.43988" lon="1.44785">
        <ele>179.2</ele>
        <time>2022-05-16T09:39:50Z</time>
      </trkpt>
      <trkpt lat="43.43991" lon="1.44782">
        <ele>179.2</ele>
        <time>2022-05-16T09:39:51Z</time>
      </trkpt>
      <trkpt lat="43.43995" lon="1.44782">
        <ele>179.2</ele>
        <time>2022-05-16T09:39:52Z</time>
      </trkpt>
      <trkpt lat="43.43999" lon="1.44781">
        <ele>179.3</ele>
        <time>2022-05-16T09:39:53Z</time>
      </trkpt>
      <trkpt lat="43.44001" lon="1.4478">
        <ele>179.4</ele>
        <time>2022-05-16T09:39:54Z</time>
      </trkpt>
      <trkpt lat="43.44004" lon="1.44778">
        <ele>179.6</ele>
        <time>2022-05-16T09:39:55Z</time>
      </trkpt>
      <trkpt lat="43.44008" lon="1.44778">
        <ele>179.7</ele>
        <time>2022-05-16T09:39:56Z</time>
      </trkpt>
      <trkpt lat="43.44011" lon="1.44775">
        <ele>179.9</ele>
        <time>2022-05-16T09:39:57Z</time>
      </trkpt>
      <trkpt lat="43.44012" lon="1.44775">
        <ele>180</ele>
        <time>2022-05-16T09:39:58Z</time>
      </trkpt>
      <trkpt lat="43.44014" lon="1.44772">
        <ele>180.2</ele>
        <time>2022-05-16T09:39:59Z</time>
      </trkpt>
      <trkpt lat="43.44018" lon="1.44772">
        <ele>180.4</ele>
        <time>2022-05-16T09:40:00Z</time>
      </trkpt>
      <trkpt lat="43.4402" lon="1.44771">
        <ele>180.6</ele>
        <time>2022-05-16T09:40:01Z</time>
      </trkpt>
      <trkpt lat="43.44024" lon="1.44769">
        <ele>180.8</ele>
        <time>2022-05-16T09:40:02Z</time>
      </trkpt>
      <trkpt lat="43.44026" lon="1.44767">
        <ele>181</ele>
        <time>2022-05-16T09:40:03Z</time>
      </trkpt>
      <trkpt lat="43.44029" lon="1.44764">
        <ele>181.2</ele>
        <time>2022-05-16T09:40:04Z</time>
      </trkpt>
      <trkpt lat="43.44031" lon="1.44761">
        <ele>181.3</ele>
        <time>2022-05-16T09:40:05Z</time>
      </trkpt>
      <trkpt lat="43.44032" lon="1.44757">
        <ele>181.4</ele>
        <time>2022-05-16T09:40:06Z</time>
      </trkpt>
      <trkpt lat="43.44035" lon="1.44752">
        <ele>181.5</ele>
        <time>2022-05-16T09:40:07Z</time>
      </trkpt>
      <trkpt lat="43.44036" lon="1.4475">
        <ele>181.5</ele>
        <time>2022-05-16T09:40:08Z</time>
      </trkpt>
      <trkpt lat="43.4404" lon="1.44748">
        <ele>181.5</ele>
        <time>2022-05-16T09:40:09Z</time>
      </trkpt>
      <trkpt lat="43.44044" lon="1.44744">
        <ele>181.5</ele>
        <time>2022-05-16T09:40:10Z</time>
      </trkpt>
      <trkpt lat="43.44047" lon="1.4474">
        <ele>181.4</ele>
        <time>2022-05-16T09:40:11Z</time>
      </trkpt>
      <trkpt lat="43.4405" lon="1.44738">
        <ele>181.4</ele>
        <time>2022-05-16T09:40:12Z</time>
      </trkpt>
      <trkpt lat="43.44053" lon="1.44736">
        <ele>181.3</ele>
        <time>2022-05-16T09:40:13Z</time>
      </trkpt>
      <trkpt lat="43.44057" lon="1.44736">
        <ele>181.3</ele>
        <time>2022-05-16T09:40:14Z</time>
      </trkpt>
      <trkpt lat="43.44061" lon="1.44733">
        <ele>181.3</ele>
        <time>2022-05-16T09:40:15Z</time>
      </trkpt>
      <trkpt lat="43.44065" lon="1.44733">
        <ele>181.3</ele>
        <time>2022-05-16T09:40:16Z</time>
      </trkpt>
      <trkpt lat="43.44068" lon="1.44733">
        <ele>181.3</ele>
        <time>2022-05-16T09:40:17Z</time>
      </trkpt>
      <trkpt lat="43.44072" lon="1.44734">
        <ele>181.4</ele>
        <time>2022-05-16T09:40:18Z</time>
      </trkpt>
      <trkpt lat="43.44076" lon="1.44734">
        <ele>181.4</ele>
        <time>2022-05-16T09:40:19Z</time>
      </trkpt>
      <trkpt lat="43.44081" lon="1.44738">
        <ele>181.5</ele>
        <time>2022-05-16T09:40:21Z</time>
      </trkpt>
      <trkpt lat="43.4409" lon="1.44741">
        <ele>181.5</ele>
        <time>2022-05-16T09:40:23Z</time>
      </trkpt>
      <trkpt lat="43.44098" lon="1.4474">
        <ele>181.5</ele>
        <time>2022-05-16T09:40:25Z</time>
      </trkpt>
      <trkpt lat="43.44101" lon="1.44738">
        <ele>181.4</ele>
        <time>2022-05-16T09:40:26Z</time>
      </trkpt>
      <trkpt lat="43.44105" lon="1.44734">
        <ele>181.3</ele>
        <time>2022-05-16T09:40:27Z</time>
      </trkpt>
      <trkpt lat="43.44116" lon="1.44731">
        <ele>181</ele>
        <time>2022-05-16T09:40:29Z</time>
      </trkpt>
      <trkpt lat="43.4412" lon="1.44732">
        <ele>180.9</ele>
        <time>2022-05-16T09:40:30Z</time>
      </trkpt>
      <trkpt lat="43.44125" lon="1.44731">
        <ele>180.8</ele>
        <time>2022-05-16T09:40:31Z</time>
      </trkpt>
      <trkpt lat="43.44128" lon="1.44731">
        <ele>180.8</ele>
        <time>2022-05-16T09:40:32Z</time>
      </trkpt>
      <trkpt lat="43.44132" lon="1.44731">
        <ele>180.9</ele>
        <time>2022-05-16T09:40:33Z</time>
      </trkpt>
      <trkpt lat="43.44136" lon="1.44729">
        <ele>180.9</ele>
        <time>2022-05-16T09:40:34Z</time>
      </trkpt>
      <trkpt lat="43.44138" lon="1.44725">
        <ele>181</ele>
        <time>2022-05-16T09:40:35Z</time>
      </trkpt>
      <trkpt lat="43.44142" lon="1.44723">
        <ele>181</ele>
        <time>2022-05-16T09:40:36Z</time>
      </trkpt>
      <trkpt lat="43.44146" lon="1.44725">
        <ele>181.1</ele>
        <time>2022-05-16T09:40:37Z</time>
      </trkpt>
      <trkpt lat="43.44149" lon="1.44725">
        <ele>181.2</ele>
        <time>2022-05-16T09:40:38Z</time>
      </trkpt>
      <trkpt lat="43.44154" lon="1.44726">
        <ele>181.3</ele>
        <time>2022-05-16T09:40:39Z</time>
      </trkpt>
      <trkpt lat="43.44157" lon="1.44731">
        <ele>181.5</ele>
        <time>2022-05-16T09:40:40Z</time>
      </trkpt>
      <trkpt lat="43.4416" lon="1.44736">
        <ele>181.5</ele>
        <time>2022-05-16T09:40:41Z</time>
      </trkpt>
      <trkpt lat="43.4416" lon="1.44742">
        <ele>181.6</ele>
        <time>2022-05-16T09:40:42Z</time>
      </trkpt>
      <trkpt lat="43.4416" lon="1.44747">
        <ele>181.6</ele>
        <time>2022-05-16T09:40:43Z</time>
      </trkpt>
      <trkpt lat="43.4416" lon="1.44752">
        <ele>181.7</ele>
        <time>2022-05-16T09:40:44Z</time>
      </trkpt>
      <trkpt lat="43.4416" lon="1.44756">
        <ele>181.7</ele>
        <time>2022-05-16T09:40:45Z</time>
      </trkpt>
      <trkpt lat="43.4416" lon="1.44762">
        <ele>181.7</ele>
        <time>2022-05-16T09:40:46Z</time>
      </trkpt>
      <trkpt lat="43.44159" lon="1.44768">
        <ele>181.8</ele>
        <time>2022-05-16T09:40:47Z</time>
      </trkpt>
      <trkpt lat="43.44158" lon="1.44772">
        <ele>181.9</ele>
        <time>2022-05-16T09:40:48Z</time>
      </trkpt>
      <trkpt lat="43.44155" lon="1.44772">
        <ele>181.9</ele>
        <time>2022-05-16T09:40:49Z</time>
      </trkpt>
      <trkpt lat="43.44153" lon="1.44775">
        <ele>182</ele>
        <time>2022-05-16T09:40:50Z</time>
      </trkpt>
      <trkpt lat="43.44151" lon="1.4478">
        <ele>182.1</ele>
        <time>2022-05-16T09:40:51Z</time>
      </trkpt>
      <trkpt lat="43.4415" lon="1.44783">
        <ele>182.1</ele>
        <time>2022-05-16T09:40:52Z</time>
      </trkpt>
      <trkpt lat="43.44149" lon="1.44787">
        <ele>182.1</ele>
        <time>2022-05-16T09:40:53Z</time>
      </trkpt>
      <trkpt lat="43.44148" lon="1.44789">
        <ele>182.2</ele>
        <time>2022-05-16T09:40:54Z</time>
      </trkpt>
      <trkpt lat="43.44149" lon="1.4479">
        <ele>182.2</ele>
        <time>2022-05-16T09:40:55Z</time>
      </trkpt>
      <trkpt lat="43.4415" lon="1.44791">
        <ele>182.2</ele>
        <time>2022-05-16T09:40:56Z</time>
      </trkpt>
      <trkpt lat="43.4415" lon="1.44792">
        <ele>182.2</ele>
        <time>2022-05-16T09:40:58Z</time>
      </trkpt>
      <trkpt lat="43.44151" lon="1.44792">
        <ele>182.2</ele>
        <time>2022-05-16T09:41:00Z</time>
      </trkpt>
      <trkpt lat="43.44151" lon="1.44793">
        <ele>182.2</ele>
        <time>2022-05-16T09:41:01Z</time>
      </trkpt>
      <trkpt lat="43.44151" lon="1.44794">
        <ele>182.1</ele>
        <time>2022-05-16T09:41:02Z</time>
      </trkpt>
      <trkpt lat="43.44151" lon="1.44795">
        <ele>182.1</ele>
        <time>2022-05-16T09:41:03Z</time>
      </trkpt>
      <trkpt lat="43.44151" lon="1.44796">
        <ele>182.1</ele>
        <time>2022-05-16T09:41:04Z</time>
      </trkpt>
      <trkpt lat="43.44151" lon="1.448">
        <ele>182.1</ele>
        <time>2022-05-16T09:41:05Z</time>
      </trkpt>
      <trkpt lat="43.44151" lon="1.44804">
        <ele>182.1</ele>
        <time>2022-05-16T09:41:18Z</time>
      </trkpt>
      <trkpt lat="43.44151" lon="1.44808">
        <ele>182.1</ele>
        <time>2022-05-16T09:41:19Z</time>
      </trkpt>
      <trkpt lat="43.44152" lon="1.44813">
        <ele>182.1</ele>
        <time>2022-05-16T09:41:20Z</time>
      </trkpt>
      <trkpt lat="43.44152" lon="1.44815">
        <ele>182.1</ele>
        <time>2022-05-16T09:41:21Z</time>
      </trkpt>
      <trkpt lat="43.44153" lon="1.4482">
        <ele>182.1</ele>
        <time>2022-05-16T09:41:22Z</time>
      </trkpt>
      <trkpt lat="43.44152" lon="1.44824">
        <ele>182.1</ele>
        <time>2022-05-16T09:41:23Z</time>
      </trkpt>
      <trkpt lat="43.44152" lon="1.44829">
        <ele>182.2</ele>
        <time>2022-05-16T09:41:24Z</time>
      </trkpt>
      <trkpt lat="43.44151" lon="1.44831">
        <ele>182.2</ele>
        <time>2022-05-16T09:41:25Z</time>
      </trkpt>
      <trkpt lat="43.44152" lon="1.44835">
        <ele>182.2</ele>
        <time>2022-05-16T09:41:26Z</time>
      </trkpt>
      <trkpt lat="43.44154" lon="1.44838">
        <ele>182.3</ele>
        <time>2022-05-16T09:41:27Z</time>
      </trkpt>
      <trkpt lat="43.44155" lon="1.4484">
        <ele>182.3</ele>
        <time>2022-05-16T09:41:28Z</time>
      </trkpt>
      <trkpt lat="43.44157" lon="1.44843">
        <ele>182.3</ele>
        <time>2022-05-16T09:41:29Z</time>
      </trkpt>
      <trkpt lat="43.44158" lon="1.44844">
        <ele>182.3</ele>
        <time>2022-05-16T09:41:30Z</time>
      </trkpt>
      <trkpt lat="43.44159" lon="1.4485">
        <ele>182.3</ele>
        <time>2022-05-16T09:41:31Z</time>
      </trkpt>
      <trkpt lat="43.44162" lon="1.44854">
        <ele>182.3</ele>
        <time>2022-05-16T09:41:32Z</time>
      </trkpt>
      <trkpt lat="43.44163" lon="1.44859">
        <ele>182.3</ele>
        <time>2022-05-16T09:41:33Z</time>
      </trkpt>
      <trkpt lat="43.44159" lon="1.44863">
        <ele>182.2</ele>
        <time>2022-05-16T09:41:34Z</time>
      </trkpt>
      <trkpt lat="43.44157" lon="1.44867">
        <ele>182.2</ele>
        <time>2022-05-16T09:41:35Z</time>
      </trkpt>
      <trkpt lat="43.44156" lon="1.44869">
        <ele>182.2</ele>
        <time>2022-05-16T09:41:36Z</time>
      </trkpt>
      <trkpt lat="43.44157" lon="1.44873">
        <ele>182.3</ele>
        <time>2022-05-16T09:41:37Z</time>
      </trkpt>
      <trkpt lat="43.44156" lon="1.44877">
        <ele>182.3</ele>
        <time>2022-05-16T09:41:38Z</time>
      </trkpt>
      <trkpt lat="43.44156" lon="1.44882">
        <ele>182.5</ele>
        <time>2022-05-16T09:41:39Z</time>
      </trkpt>
      <trkpt lat="43.44154" lon="1.44885">
        <ele>182.6</ele>
        <time>2022-05-16T09:41:40Z</time>
      </trkpt>
      <trkpt lat="43.44153" lon="1.4489">
        <ele>182.9</ele>
        <time>2022-05-16T09:41:41Z</time>
      </trkpt>
      <trkpt lat="43.44152" lon="1.44895">
        <ele>183.2</ele>
        <time>2022-05-16T09:41:42Z</time>
      </trkpt>
      <trkpt lat="43.44151" lon="1.44896">
        <ele>183.4</ele>
        <time>2022-05-16T09:41:43Z</time>
      </trkpt>
      <trkpt lat="43.44149" lon="1.449">
        <ele>183.7</ele>
        <time>2022-05-16T09:41:44Z</time>
      </trkpt>
      <trkpt lat="43.44145" lon="1.449">
        <ele>184.1</ele>
        <time>2022-05-16T09:41:45Z</time>
      </trkpt>
      <trkpt lat="43.44143" lon="1.44902">
        <ele>184.6</ele>
        <time>2022-05-16T09:41:46Z</time>
      </trkpt>
      <trkpt lat="43.44141" lon="1.44904">
        <ele>185.1</ele>
        <time>2022-05-16T09:41:47Z</time>
      </trkpt>
      <trkpt lat="43.4414" lon="1.44905">
        <ele>185.2</ele>
        <time>2022-05-16T09:41:48Z</time>
      </trkpt>
      <trkpt lat="43.44136" lon="1.44904">
        <ele>185.9</ele>
        <time>2022-05-16T09:41:49Z</time>
      </trkpt>
      <trkpt lat="43.44135" lon="1.44904">
        <ele>186.1</ele>
        <time>2022-05-16T09:41:50Z</time>
      </trkpt>
      <trkpt lat="43.44132" lon="1.44904">
        <ele>187.3</ele>
        <time>2022-05-16T09:41:51Z</time>
      </trkpt>
      <trkpt lat="43.44129" lon="1.44903">
        <ele>188.3</ele>
        <time>2022-05-16T09:41:52Z</time>
      </trkpt>
      <trkpt lat="43.44128" lon="1.44903">
        <ele>188.6</ele>
        <time>2022-05-16T09:41:53Z</time>
      </trkpt>
      <trkpt lat="43.44124" lon="1.44904">
        <ele>189.6</ele>
        <time>2022-05-16T09:41:54Z</time>
      </trkpt>
      <trkpt lat="43.44123" lon="1.44904">
        <ele>190</ele>
        <time>2022-05-16T09:41:55Z</time>
      </trkpt>
      <trkpt lat="43.4412" lon="1.44902">
        <ele>191</ele>
        <time>2022-05-16T09:41:56Z</time>
      </trkpt>
      <trkpt lat="43.44119" lon="1.44902">
        <ele>191.3</ele>
        <time>2022-05-16T09:41:57Z</time>
      </trkpt>
      <trkpt lat="43.44115" lon="1.44903">
        <ele>192.2</ele>
        <time>2022-05-16T09:41:58Z</time>
      </trkpt>
      <trkpt lat="43.44114" lon="1.44902">
        <ele>192.5</ele>
        <time>2022-05-16T09:41:59Z</time>
      </trkpt>
      <trkpt lat="43.4411" lon="1.44902">
        <ele>193.4</ele>
        <time>2022-05-16T09:42:00Z</time>
      </trkpt>
      <trkpt lat="43.44109" lon="1.44902">
        <ele>193.7</ele>
        <time>2022-05-16T09:42:01Z</time>
      </trkpt>
      <trkpt lat="43.44106" lon="1.449">
        <ele>194.3</ele>
        <time>2022-05-16T09:42:02Z</time>
      </trkpt>
      <trkpt lat="43.44104" lon="1.44899">
        <ele>195.6</ele>
        <time>2022-05-16T09:42:03Z</time>
      </trkpt>
      <trkpt lat="43.44102" lon="1.44899">
        <ele>195.7</ele>
        <time>2022-05-16T09:42:04Z</time>
      </trkpt>
      <trkpt lat="43.441" lon="1.44898">
        <ele>195.7</ele>
        <time>2022-05-16T09:42:05Z</time>
      </trkpt>
      <trkpt lat="43.44098" lon="1.44898">
        <ele>195.7</ele>
        <time>2022-05-16T09:42:06Z</time>
      </trkpt>
      <trkpt lat="43.44097" lon="1.44902">
        <ele>195.8</ele>
        <time>2022-05-16T09:42:07Z</time>
      </trkpt>
      <trkpt lat="43.44097" lon="1.44904">
        <ele>195.8</ele>
        <time>2022-05-16T09:42:08Z</time>
      </trkpt>
      <trkpt lat="43.44098" lon="1.44908">
        <ele>195.9</ele>
        <time>2022-05-16T09:42:09Z</time>
      </trkpt>
      <trkpt lat="43.44098" lon="1.44913">
        <ele>196</ele>
        <time>2022-05-16T09:42:10Z</time>
      </trkpt>
      <trkpt lat="43.44097" lon="1.44917">
        <ele>196</ele>
        <time>2022-05-16T09:42:11Z</time>
      </trkpt>
      <trkpt lat="43.44096" lon="1.44921">
        <ele>196.1</ele>
        <time>2022-05-16T09:42:12Z</time>
      </trkpt>
      <trkpt lat="43.44095" lon="1.44925">
        <ele>196.2</ele>
        <time>2022-05-16T09:42:13Z</time>
      </trkpt>
      <trkpt lat="43.44094" lon="1.44929">
        <ele>196.3</ele>
        <time>2022-05-16T09:42:14Z</time>
      </trkpt>
      <trkpt lat="43.44093" lon="1.44933">
        <ele>196.4</ele>
        <time>2022-05-16T09:42:15Z</time>
      </trkpt>
      <trkpt lat="43.44093" lon="1.44939">
        <ele>196.5</ele>
        <time>2022-05-16T09:42:16Z</time>
      </trkpt>
      <trkpt lat="43.44093" lon="1.44941">
        <ele>196.5</ele>
        <time>2022-05-16T09:42:17Z</time>
      </trkpt>
      <trkpt lat="43.44092" lon="1.44945">
        <ele>196.6</ele>
        <time>2022-05-16T09:42:18Z</time>
      </trkpt>
      <trkpt lat="43.44091" lon="1.44949">
        <ele>196.7</ele>
        <time>2022-05-16T09:42:19Z</time>
      </trkpt>
      <trkpt lat="43.4409" lon="1.44953">
        <ele>196.8</ele>
        <time>2022-05-16T09:42:20Z</time>
      </trkpt>
      <trkpt lat="43.44089" lon="1.44958">
        <ele>196.9</ele>
        <time>2022-05-16T09:42:21Z</time>
      </trkpt>
      <trkpt lat="43.44088" lon="1.44962">
        <ele>197</ele>
        <time>2022-05-16T09:42:22Z</time>
      </trkpt>
      <trkpt lat="43.44088" lon="1.44967">
        <ele>197.1</ele>
        <time>2022-05-16T09:42:23Z</time>
      </trkpt>
      <trkpt lat="43.44087" lon="1.44971">
        <ele>197.1</ele>
        <time>2022-05-16T09:42:24Z</time>
      </trkpt>
      <trkpt lat="43.44086" lon="1.44975">
        <ele>197.1</ele>
        <time>2022-05-16T09:42:25Z</time>
      </trkpt>
      <trkpt lat="43.44086" lon="1.44979">
        <ele>197.1</ele>
        <time>2022-05-16T09:42:26Z</time>
      </trkpt>
      <trkpt lat="43.44085" lon="1.44984">
        <ele>197.1</ele>
        <time>2022-05-16T09:42:27Z</time>
      </trkpt>
      <trkpt lat="43.44084" lon="1.44988">
        <ele>197</ele>
        <time>2022-05-16T09:42:28Z</time>
      </trkpt>
      <trkpt lat="43.44088" lon="1.4499">
        <ele>196.9</ele>
        <time>2022-05-16T09:42:29Z</time>
      </trkpt>
      <trkpt lat="43.4409" lon="1.4499">
        <ele>196.9</ele>
        <time>2022-05-16T09:42:30Z</time>
      </trkpt>
      <trkpt lat="43.44094" lon="1.44991">
        <ele>196.7</ele>
        <time>2022-05-16T09:42:31Z</time>
      </trkpt>
      <trkpt lat="43.44098" lon="1.4499">
        <ele>196.6</ele>
        <time>2022-05-16T09:42:32Z</time>
      </trkpt>
      <trkpt lat="43.44102" lon="1.4499">
        <ele>196.5</ele>
        <time>2022-05-16T09:42:33Z</time>
      </trkpt>
      <trkpt lat="43.44106" lon="1.44991">
        <ele>196.4</ele>
        <time>2022-05-16T09:42:34Z</time>
      </trkpt>
      <trkpt lat="43.44111" lon="1.44992">
        <ele>196.3</ele>
        <time>2022-05-16T09:42:35Z</time>
      </trkpt>
      <trkpt lat="43.44113" lon="1.44997">
        <ele>196.2</ele>
        <time>2022-05-16T09:42:36Z</time>
      </trkpt>
      <trkpt lat="43.44112" lon="1.45003">
        <ele>196.1</ele>
        <time>2022-05-16T09:42:37Z</time>
      </trkpt>
      <trkpt lat="43.44112" lon="1.45009">
        <ele>195.9</ele>
        <time>2022-05-16T09:42:38Z</time>
      </trkpt>
      <trkpt lat="43.44113" lon="1.45014">
        <ele>195.6</ele>
        <time>2022-05-16T09:42:39Z</time>
      </trkpt>
      <trkpt lat="43.44114" lon="1.4502">
        <ele>195.2</ele>
        <time>2022-05-16T09:42:40Z</time>
      </trkpt>
      <trkpt lat="43.44113" lon="1.45025">
        <ele>194.8</ele>
        <time>2022-05-16T09:42:41Z</time>
      </trkpt>
      <trkpt lat="43.44114" lon="1.45029">
        <ele>194.4</ele>
        <time>2022-05-16T09:42:42Z</time>
      </trkpt>
      <trkpt lat="43.44116" lon="1.45031">
        <ele>193.9</ele>
        <time>2022-05-16T09:42:43Z</time>
      </trkpt>
      <trkpt lat="43.44119" lon="1.45034">
        <ele>193.4</ele>
        <time>2022-05-16T09:42:44Z</time>
      </trkpt>
      <trkpt lat="43.44122" lon="1.45039">
        <ele>192.5</ele>
        <time>2022-05-16T09:42:45Z</time>
      </trkpt>
      <trkpt lat="43.44124" lon="1.45048">
        <ele>191.2</ele>
        <time>2022-05-16T09:42:46Z</time>
      </trkpt>
      <trkpt lat="43.44125" lon="1.45057">
        <ele>190</ele>
        <time>2022-05-16T09:42:47Z</time>
      </trkpt>
      <trkpt lat="43.44123" lon="1.45066">
        <ele>188.7</ele>
        <time>2022-05-16T09:42:48Z</time>
      </trkpt>
      <trkpt lat="43.44123" lon="1.45074">
        <ele>187.6</ele>
        <time>2022-05-16T09:42:49Z</time>
      </trkpt>
      <trkpt lat="43.44123" lon="1.45081">
        <ele>186.8</ele>
        <time>2022-05-16T09:42:50Z</time>
      </trkpt>
      <trkpt lat="43.44124" lon="1.45088">
        <ele>186</ele>
        <time>2022-05-16T09:42:51Z</time>
      </trkpt>
      <trkpt lat="43.44125" lon="1.45091">
        <ele>185.6</ele>
        <time>2022-05-16T09:42:52Z</time>
      </trkpt>
      <trkpt lat="43.44129" lon="1.45095">
        <ele>184.9</ele>
        <time>2022-05-16T09:42:53Z</time>
      </trkpt>
      <trkpt lat="43.44133" lon="1.45102">
        <ele>184.4</ele>
        <time>2022-05-16T09:42:54Z</time>
      </trkpt>
      <trkpt lat="43.44136" lon="1.45104">
        <ele>184.4</ele>
        <time>2022-05-16T09:42:55Z</time>
      </trkpt>
      <trkpt lat="43.44139" lon="1.45103">
        <ele>184.4</ele>
        <time>2022-05-16T09:42:56Z</time>
      </trkpt>
      <trkpt lat="43.44144" lon="1.45101">
        <ele>184.4</ele>
        <time>2022-05-16T09:42:57Z</time>
      </trkpt>
      <trkpt lat="43.44147" lon="1.45099">
        <ele>184.4</ele>
        <time>2022-05-16T09:42:58Z</time>
      </trkpt>
      <trkpt lat="43.44148" lon="1.45099">
        <ele>184.4</ele>
        <time>2022-05-16T09:42:59Z</time>
      </trkpt>
      <trkpt lat="43.44149" lon="1.45098">
        <ele>184.4</ele>
        <time>2022-05-16T09:43:00Z</time>
      </trkpt>
      <trkpt lat="43.4415" lon="1.45099">
        <ele>184.4</ele>
        <time>2022-05-16T09:43:01Z</time>
      </trkpt>
      <trkpt lat="43.44153" lon="1.451">
        <ele>184.7</ele>
        <time>2022-05-16T09:43:02Z</time>
      </trkpt>
      <trkpt lat="43.44154" lon="1.45101">
        <ele>184.9</ele>
        <time>2022-05-16T09:43:03Z</time>
      </trkpt>
      <trkpt lat="43.44156" lon="1.45099">
        <ele>185.2</ele>
        <time>2022-05-16T09:43:04Z</time>
      </trkpt>
      <trkpt lat="43.44158" lon="1.45098">
        <ele>185.4</ele>
        <time>2022-05-16T09:43:05Z</time>
      </trkpt>
      <trkpt lat="43.44159" lon="1.45093">
        <ele>185.9</ele>
        <time>2022-05-16T09:43:06Z</time>
      </trkpt>
      <trkpt lat="43.4416" lon="1.45088">
        <ele>186.6</ele>
        <time>2022-05-16T09:43:07Z</time>
      </trkpt>
      <trkpt lat="43.4416" lon="1.45087">
        <ele>186.8</ele>
        <time>2022-05-16T09:43:08Z</time>
      </trkpt>
      <trkpt lat="43.44159" lon="1.45081">
        <ele>187.6</ele>
        <time>2022-05-16T09:43:09Z</time>
      </trkpt>
      <trkpt lat="43.44161" lon="1.45077">
        <ele>188.5</ele>
        <time>2022-05-16T09:43:10Z</time>
      </trkpt>
      <trkpt lat="43.44161" lon="1.45076">
        <ele>188.9</ele>
        <time>2022-05-16T09:43:11Z</time>
      </trkpt>
      <trkpt lat="43.44165" lon="1.45073">
        <ele>190</ele>
        <time>2022-05-16T09:43:12Z</time>
      </trkpt>
      <trkpt lat="43.44166" lon="1.45072">
        <ele>190.4</ele>
        <time>2022-05-16T09:43:13Z</time>
      </trkpt>
      <trkpt lat="43.44168" lon="1.45071">
        <ele>191.4</ele>
        <time>2022-05-16T09:43:14Z</time>
      </trkpt>
      <trkpt lat="43.44169" lon="1.45071">
        <ele>191.7</ele>
        <time>2022-05-16T09:43:15Z</time>
      </trkpt>
      <trkpt lat="43.44171" lon="1.4507">
        <ele>192.3</ele>
        <time>2022-05-16T09:43:16Z</time>
      </trkpt>
      <trkpt lat="43.44172" lon="1.45071">
        <ele>193</ele>
        <time>2022-05-16T09:43:17Z</time>
      </trkpt>
      <trkpt lat="43.44174" lon="1.45071">
        <ele>193.5</ele>
        <time>2022-05-16T09:43:18Z</time>
      </trkpt>
      <trkpt lat="43.44176" lon="1.45072">
        <ele>194.2</ele>
        <time>2022-05-16T09:43:19Z</time>
      </trkpt>
      <trkpt lat="43.44179" lon="1.45072">
        <ele>195.4</ele>
        <time>2022-05-16T09:43:20Z</time>
      </trkpt>
      <trkpt lat="43.4418" lon="1.45073">
        <ele>195.7</ele>
        <time>2022-05-16T09:43:21Z</time>
      </trkpt>
      <trkpt lat="43.44181" lon="1.45073">
        <ele>196</ele>
        <time>2022-05-16T09:43:22Z</time>
      </trkpt>
      <trkpt lat="43.44183" lon="1.45073">
        <ele>196.8</ele>
        <time>2022-05-16T09:43:23Z</time>
      </trkpt>
      <trkpt lat="43.44186" lon="1.45073">
        <ele>197.7</ele>
        <time>2022-05-16T09:43:24Z</time>
      </trkpt>
      <trkpt lat="43.44187" lon="1.45073">
        <ele>198</ele>
        <time>2022-05-16T09:43:25Z</time>
      </trkpt>
      <trkpt lat="43.4419" lon="1.45073">
        <ele>198.8</ele>
        <time>2022-05-16T09:43:26Z</time>
      </trkpt>
      <trkpt lat="43.44191" lon="1.45073">
        <ele>199.1</ele>
        <time>2022-05-16T09:43:27Z</time>
      </trkpt>
      <trkpt lat="43.44194" lon="1.45073">
        <ele>199.9</ele>
        <time>2022-05-16T09:43:28Z</time>
      </trkpt>
      <trkpt lat="43.44195" lon="1.45073">
        <ele>200.2</ele>
        <time>2022-05-16T09:43:29Z</time>
      </trkpt>
      <trkpt lat="43.44197" lon="1.45073">
        <ele>200.7</ele>
        <time>2022-05-16T09:43:30Z</time>
      </trkpt>
      <trkpt lat="43.44199" lon="1.45074">
        <ele>201.1</ele>
        <time>2022-05-16T09:43:31Z</time>
      </trkpt>
      <trkpt lat="43.44202" lon="1.45073">
        <ele>202</ele>
        <time>2022-05-16T09:43:32Z</time>
      </trkpt>
      <trkpt lat="43.44203" lon="1.45073">
        <ele>202.3</ele>
        <time>2022-05-16T09:43:33Z</time>
      </trkpt>
      <trkpt lat="43.44205" lon="1.45069">
        <ele>202.8</ele>
        <time>2022-05-16T09:43:34Z</time>
      </trkpt>
      <trkpt lat="43.44206" lon="1.45068">
        <ele>203</ele>
        <time>2022-05-16T09:43:35Z</time>
      </trkpt>
      <trkpt lat="43.44209" lon="1.45066">
        <ele>203.4</ele>
        <time>2022-05-16T09:43:36Z</time>
      </trkpt>
      <trkpt lat="43.44209" lon="1.45065">
        <ele>203.6</ele>
        <time>2022-05-16T09:43:37Z</time>
      </trkpt>
      <trkpt lat="43.44212" lon="1.45062">
        <ele>204</ele>
        <time>2022-05-16T09:43:38Z</time>
      </trkpt>
      <trkpt lat="43.44213" lon="1.45062">
        <ele>204.1</ele>
        <time>2022-05-16T09:43:39Z</time>
      </trkpt>
      <trkpt lat="43.44216" lon="1.45059">
        <ele>204.6</ele>
        <time>2022-05-16T09:43:40Z</time>
      </trkpt>
      <trkpt lat="43.44217" lon="1.45059">
        <ele>204.7</ele>
        <time>2022-05-16T09:43:41Z</time>
      </trkpt>
      <trkpt lat="43.44219" lon="1.45056">
        <ele>205.2</ele>
        <time>2022-05-16T09:43:42Z</time>
      </trkpt>
      <trkpt lat="43.4422" lon="1.45055">
        <ele>205.4</ele>
        <time>2022-05-16T09:43:43Z</time>
      </trkpt>
      <trkpt lat="43.44223" lon="1.45052">
        <ele>205.9</ele>
        <time>2022-05-16T09:43:44Z</time>
      </trkpt>
      <trkpt lat="43.44224" lon="1.45051">
        <ele>206</ele>
        <time>2022-05-16T09:43:45Z</time>
      </trkpt>
      <trkpt lat="43.44227" lon="1.45049">
        <ele>206.4</ele>
        <time>2022-05-16T09:43:46Z</time>
      </trkpt>
      <trkpt lat="43.44228" lon="1.45048">
        <ele>206.6</ele>
        <time>2022-05-16T09:43:47Z</time>
      </trkpt>
      <trkpt lat="43.4423" lon="1.45045">
        <ele>206.9</ele>
        <time>2022-05-16T09:43:48Z</time>
      </trkpt>
      <trkpt lat="43.4423" lon="1.45043">
        <ele>207</ele>
        <time>2022-05-16T09:43:49Z</time>
      </trkpt>
      <trkpt lat="43.44231" lon="1.45042">
        <ele>207.2</ele>
        <time>2022-05-16T09:43:50Z</time>
      </trkpt>
      <trkpt lat="43.44231" lon="1.45039">
        <ele>207.4</ele>
        <time>2022-05-16T09:43:51Z</time>
      </trkpt>
      <trkpt lat="43.44234" lon="1.45037">
        <ele>207.6</ele>
        <time>2022-05-16T09:43:52Z</time>
      </trkpt>
      <trkpt lat="43.44235" lon="1.45037">
        <ele>207.7</ele>
        <time>2022-05-16T09:43:53Z</time>
      </trkpt>
      <trkpt lat="43.44236" lon="1.45031">
        <ele>208</ele>
        <time>2022-05-16T09:43:54Z</time>
      </trkpt>
      <trkpt lat="43.44236" lon="1.4503">
        <ele>208</ele>
        <time>2022-05-16T09:43:55Z</time>
      </trkpt>
      <trkpt lat="43.44235" lon="1.45025">
        <ele>208.1</ele>
        <time>2022-05-16T09:43:56Z</time>
      </trkpt>
      <trkpt lat="43.44235" lon="1.45024">
        <ele>208.2</ele>
        <time>2022-05-16T09:43:57Z</time>
      </trkpt>
      <trkpt lat="43.44235" lon="1.45023">
        <ele>208.2</ele>
        <time>2022-05-16T09:43:58Z</time>
      </trkpt>
      <trkpt lat="43.44235" lon="1.45022">
        <ele>208.2</ele>
        <time>2022-05-16T09:43:59Z</time>
      </trkpt>
      <trkpt lat="43.44235" lon="1.4502">
        <ele>208.2</ele>
        <time>2022-05-16T09:44:00Z</time>
      </trkpt>
      <trkpt lat="43.44235" lon="1.45015">
        <ele>208.3</ele>
        <time>2022-05-16T09:44:01Z</time>
      </trkpt>
      <trkpt lat="43.44236" lon="1.45013">
        <ele>208.3</ele>
        <time>2022-05-16T09:44:02Z</time>
      </trkpt>
      <trkpt lat="43.44235" lon="1.45009">
        <ele>208.3</ele>
        <time>2022-05-16T09:44:03Z</time>
      </trkpt>
      <trkpt lat="43.44235" lon="1.45007">
        <ele>208.3</ele>
        <time>2022-05-16T09:44:04Z</time>
      </trkpt>
      <trkpt lat="43.44235" lon="1.45006">
        <ele>208.2</ele>
        <time>2022-05-16T09:44:05Z</time>
      </trkpt>
      <trkpt lat="43.44235" lon="1.45004">
        <ele>208.2</ele>
        <time>2022-05-16T09:44:06Z</time>
      </trkpt>
      <trkpt lat="43.44235" lon="1.45002">
        <ele>208.2</ele>
        <time>2022-05-16T09:44:07Z</time>
      </trkpt>
      <trkpt lat="43.44233" lon="1.45">
        <ele>208.2</ele>
        <time>2022-05-16T09:44:08Z</time>
      </trkpt>
      <trkpt lat="43.44232" lon="1.44996">
        <ele>208.1</ele>
        <time>2022-05-16T09:44:09Z</time>
      </trkpt>
      <trkpt lat="43.44233" lon="1.44994">
        <ele>208</ele>
        <time>2022-05-16T09:44:10Z</time>
      </trkpt>
      <trkpt lat="43.44232" lon="1.44991">
        <ele>207.9</ele>
        <time>2022-05-16T09:44:11Z</time>
      </trkpt>
      <trkpt lat="43.44233" lon="1.44986">
        <ele>207.8</ele>
        <time>2022-05-16T09:44:12Z</time>
      </trkpt>
      <trkpt lat="43.44233" lon="1.44984">
        <ele>207.7</ele>
        <time>2022-05-16T09:44:13Z</time>
      </trkpt>
      <trkpt lat="43.44231" lon="1.44979">
        <ele>207.5</ele>
        <time>2022-05-16T09:44:14Z</time>
      </trkpt>
      <trkpt lat="43.44231" lon="1.44974">
        <ele>207.3</ele>
        <time>2022-05-16T09:44:15Z</time>
      </trkpt>
      <trkpt lat="43.44231" lon="1.4497">
        <ele>207.1</ele>
        <time>2022-05-16T09:44:16Z</time>
      </trkpt>
      <trkpt lat="43.44229" lon="1.44966">
        <ele>206.9</ele>
        <time>2022-05-16T09:44:17Z</time>
      </trkpt>
      <trkpt lat="43.44228" lon="1.44961">
        <ele>206.7</ele>
        <time>2022-05-16T09:44:18Z</time>
      </trkpt>
      <trkpt lat="43.44228" lon="1.44955">
        <ele>206.6</ele>
        <time>2022-05-16T09:44:19Z</time>
      </trkpt>
      <trkpt lat="43.44229" lon="1.44951">
        <ele>206.4</ele>
        <time>2022-05-16T09:44:20Z</time>
      </trkpt>
      <trkpt lat="43.44228" lon="1.44946">
        <ele>206.3</ele>
        <time>2022-05-16T09:44:21Z</time>
      </trkpt>
      <trkpt lat="43.44228" lon="1.44941">
        <ele>206.2</ele>
        <time>2022-05-16T09:44:22Z</time>
      </trkpt>
      <trkpt lat="43.44228" lon="1.44935">
        <ele>206</ele>
        <time>2022-05-16T09:44:23Z</time>
      </trkpt>
      <trkpt lat="43.44228" lon="1.4493">
        <ele>205.9</ele>
        <time>2022-05-16T09:44:24Z</time>
      </trkpt>
      <trkpt lat="43.44228" lon="1.44925">
        <ele>205.8</ele>
        <time>2022-05-16T09:44:25Z</time>
      </trkpt>
      <trkpt lat="43.44228" lon="1.44919">
        <ele>205.6</ele>
        <time>2022-05-16T09:44:26Z</time>
      </trkpt>
      <trkpt lat="43.44228" lon="1.44914">
        <ele>205.5</ele>
        <time>2022-05-16T09:44:27Z</time>
      </trkpt>
      <trkpt lat="43.44229" lon="1.4491">
        <ele>205.4</ele>
        <time>2022-05-16T09:44:28Z</time>
      </trkpt>
      <trkpt lat="43.44229" lon="1.44905">
        <ele>205.3</ele>
        <time>2022-05-16T09:44:29Z</time>
      </trkpt>
      <trkpt lat="43.4423" lon="1.44899">
        <ele>205.2</ele>
        <time>2022-05-16T09:44:30Z</time>
      </trkpt>
      <trkpt lat="43.44229" lon="1.44895">
        <ele>205.1</ele>
        <time>2022-05-16T09:44:31Z</time>
      </trkpt>
      <trkpt lat="43.44229" lon="1.44889">
        <ele>205</ele>
        <time>2022-05-16T09:44:32Z</time>
      </trkpt>
      <trkpt lat="43.44229" lon="1.44884">
        <ele>205</ele>
        <time>2022-05-16T09:44:33Z</time>
      </trkpt>
      <trkpt lat="43.44229" lon="1.4488">
        <ele>204.9</ele>
        <time>2022-05-16T09:44:34Z</time>
      </trkpt>
      <trkpt lat="43.44227" lon="1.44875">
        <ele>204.8</ele>
        <time>2022-05-16T09:44:35Z</time>
      </trkpt>
      <trkpt lat="43.44226" lon="1.44871">
        <ele>204.8</ele>
        <time>2022-05-16T09:44:36Z</time>
      </trkpt>
      <trkpt lat="43.44227" lon="1.44867">
        <ele>204.9</ele>
        <time>2022-05-16T09:44:37Z</time>
      </trkpt>
      <trkpt lat="43.44228" lon="1.44866">
        <ele>204.9</ele>
        <time>2022-05-16T09:44:38Z</time>
      </trkpt>
      <trkpt lat="43.4423" lon="1.44864">
        <ele>205</ele>
        <time>2022-05-16T09:44:39Z</time>
      </trkpt>
      <trkpt lat="43.44231" lon="1.44863">
        <ele>205</ele>
        <time>2022-05-16T09:44:40Z</time>
      </trkpt>
      <trkpt lat="43.44232" lon="1.44861">
        <ele>205.1</ele>
        <time>2022-05-16T09:44:41Z</time>
      </trkpt>
      <trkpt lat="43.44233" lon="1.4486">
        <ele>205.2</ele>
        <time>2022-05-16T09:44:42Z</time>
      </trkpt>
      <trkpt lat="43.44235" lon="1.4486">
        <ele>205.4</ele>
        <time>2022-05-16T09:44:43Z</time>
      </trkpt>
      <trkpt lat="43.44236" lon="1.4486">
        <ele>205.5</ele>
        <time>2022-05-16T09:44:44Z</time>
      </trkpt>
      <trkpt lat="43.44238" lon="1.44857">
        <ele>205.7</ele>
        <time>2022-05-16T09:44:45Z</time>
      </trkpt>
      <trkpt lat="43.4424" lon="1.44853">
        <ele>206.1</ele>
        <time>2022-05-16T09:44:46Z</time>
      </trkpt>
      <trkpt lat="43.4424" lon="1.44851">
        <ele>206.2</ele>
        <time>2022-05-16T09:44:47Z</time>
      </trkpt>
      <trkpt lat="43.44241" lon="1.44846">
        <ele>206.6</ele>
        <time>2022-05-16T09:44:48Z</time>
      </trkpt>
      <trkpt lat="43.44242" lon="1.44844">
        <ele>206.8</ele>
        <time>2022-05-16T09:44:49Z</time>
      </trkpt>
      <trkpt lat="43.44244" lon="1.44841">
        <ele>207.2</ele>
        <time>2022-05-16T09:44:50Z</time>
      </trkpt>
      <trkpt lat="43.44245" lon="1.44841">
        <ele>207.4</ele>
        <time>2022-05-16T09:44:51Z</time>
      </trkpt>
      <trkpt lat="43.44246" lon="1.44838">
        <ele>207.7</ele>
        <time>2022-05-16T09:44:52Z</time>
      </trkpt>
      <trkpt lat="43.44247" lon="1.44835">
        <ele>208.2</ele>
        <time>2022-05-16T09:44:53Z</time>
      </trkpt>
      <trkpt lat="43.44248" lon="1.44834">
        <ele>208.4</ele>
        <time>2022-05-16T09:44:54Z</time>
      </trkpt>
      <trkpt lat="43.4425" lon="1.44831">
        <ele>209</ele>
        <time>2022-05-16T09:44:55Z</time>
      </trkpt>
      <trkpt lat="43.4425" lon="1.44829">
        <ele>209.3</ele>
        <time>2022-05-16T09:44:56Z</time>
      </trkpt>
      <trkpt lat="43.44251" lon="1.44826">
        <ele>209.9</ele>
        <time>2022-05-16T09:44:57Z</time>
      </trkpt>
      <trkpt lat="43.44251" lon="1.44825">
        <ele>210.1</ele>
        <time>2022-05-16T09:44:58Z</time>
      </trkpt>
      <trkpt lat="43.44252" lon="1.44822">
        <ele>210.6</ele>
        <time>2022-05-16T09:44:59Z</time>
      </trkpt>
      <trkpt lat="43.44252" lon="1.4482">
        <ele>211</ele>
        <time>2022-05-16T09:45:00Z</time>
      </trkpt>
      <trkpt lat="43.44253" lon="1.44819">
        <ele>211.3</ele>
        <time>2022-05-16T09:45:01Z</time>
      </trkpt>
      <trkpt lat="43.44254" lon="1.44817">
        <ele>211.6</ele>
        <time>2022-05-16T09:45:02Z</time>
      </trkpt>
      <trkpt lat="43.44256" lon="1.44816">
        <ele>212.1</ele>
        <time>2022-05-16T09:45:03Z</time>
      </trkpt>
      <trkpt lat="43.44257" lon="1.44815">
        <ele>212.5</ele>
        <time>2022-05-16T09:45:04Z</time>
      </trkpt>
      <trkpt lat="43.44258" lon="1.44813">
        <ele>212.8</ele>
        <time>2022-05-16T09:45:05Z</time>
      </trkpt>
      <trkpt lat="43.44259" lon="1.44811">
        <ele>213.3</ele>
        <time>2022-05-16T09:45:06Z</time>
      </trkpt>
      <trkpt lat="43.44259" lon="1.44809">
        <ele>213.6</ele>
        <time>2022-05-16T09:45:07Z</time>
      </trkpt>
      <trkpt lat="43.44261" lon="1.44807">
        <ele>214</ele>
        <time>2022-05-16T09:45:08Z</time>
      </trkpt>
      <trkpt lat="43.44262" lon="1.44806">
        <ele>214.4</ele>
        <time>2022-05-16T09:45:09Z</time>
      </trkpt>
      <trkpt lat="43.44263" lon="1.44805">
        <ele>214.7</ele>
        <time>2022-05-16T09:45:10Z</time>
      </trkpt>
      <trkpt lat="43.44262" lon="1.44802">
        <ele>215.3</ele>
        <time>2022-05-16T09:45:11Z</time>
      </trkpt>
      <trkpt lat="43.44262" lon="1.448">
        <ele>215.5</ele>
        <time>2022-05-16T09:45:12Z</time>
      </trkpt>
      <trkpt lat="43.4426" lon="1.44799">
        <ele>216</ele>
        <time>2022-05-16T09:45:13Z</time>
      </trkpt>
      <trkpt lat="43.4426" lon="1.44797">
        <ele>216.3</ele>
        <time>2022-05-16T09:45:14Z</time>
      </trkpt>
      <trkpt lat="43.44261" lon="1.44795">
        <ele>216.6</ele>
        <time>2022-05-16T09:45:15Z</time>
      </trkpt>
      <trkpt lat="43.44262" lon="1.44794">
        <ele>217</ele>
        <time>2022-05-16T09:45:16Z</time>
      </trkpt>
      <trkpt lat="43.44264" lon="1.44794">
        <ele>217.3</ele>
        <time>2022-05-16T09:45:17Z</time>
      </trkpt>
      <trkpt lat="43.44265" lon="1.44796">
        <ele>217.7</ele>
        <time>2022-05-16T09:45:18Z</time>
      </trkpt>
      <trkpt lat="43.44267" lon="1.44799">
        <ele>218.4</ele>
        <time>2022-05-16T09:45:19Z</time>
      </trkpt>
      <trkpt lat="43.44268" lon="1.448">
        <ele>218.7</ele>
        <time>2022-05-16T09:45:20Z</time>
      </trkpt>
      <trkpt lat="43.44269" lon="1.44802">
        <ele>219.1</ele>
        <time>2022-05-16T09:45:21Z</time>
      </trkpt>
      <trkpt lat="43.4427" lon="1.44803">
        <ele>219.6</ele>
        <time>2022-05-16T09:45:22Z</time>
      </trkpt>
      <trkpt lat="43.44271" lon="1.44803">
        <ele>220</ele>
        <time>2022-05-16T09:45:23Z</time>
      </trkpt>
      <trkpt lat="43.44273" lon="1.44802">
        <ele>220.5</ele>
        <time>2022-05-16T09:45:24Z</time>
      </trkpt>
      <trkpt lat="43.44274" lon="1.44801">
        <ele>221.1</ele>
        <time>2022-05-16T09:45:25Z</time>
      </trkpt>
      <trkpt lat="43.44275" lon="1.448">
        <ele>221.4</ele>
        <time>2022-05-16T09:45:26Z</time>
      </trkpt>
      <trkpt lat="43.44275" lon="1.44799">
        <ele>221.6</ele>
        <time>2022-05-16T09:45:28Z</time>
      </trkpt>
      <trkpt lat="43.44276" lon="1.44799">
        <ele>221.8</ele>
        <time>2022-05-16T09:45:29Z</time>
      </trkpt>
      <trkpt lat="43.44277" lon="1.44798">
        <ele>222.2</ele>
        <time>2022-05-16T09:45:31Z</time>
      </trkpt>
      <trkpt lat="43.44278" lon="1.44797">
        <ele>222.5</ele>
        <time>2022-05-16T09:45:33Z</time>
      </trkpt>
      <trkpt lat="43.44279" lon="1.44797">
        <ele>222.9</ele>
        <time>2022-05-16T09:45:35Z</time>
      </trkpt>
      <trkpt lat="43.44279" lon="1.44796">
        <ele>223.1</ele>
        <time>2022-05-16T09:45:36Z</time>
      </trkpt>
      <trkpt lat="43.4428" lon="1.44796">
        <ele>223.3</ele>
        <time>2022-05-16T09:45:47Z</time>
      </trkpt>
      <trkpt lat="43.4428" lon="1.44795">
        <ele>223.4</ele>
        <time>2022-05-16T09:45:48Z</time>
      </trkpt>
      <trkpt lat="43.44282" lon="1.44797">
        <ele>224</ele>
        <time>2022-05-16T09:45:49Z</time>
      </trkpt>
      <trkpt lat="43.44283" lon="1.44798">
        <ele>224.5</ele>
        <time>2022-05-16T09:45:50Z</time>
      </trkpt>
      <trkpt lat="43.44285" lon="1.44797">
        <ele>225</ele>
        <time>2022-05-16T09:45:51Z</time>
      </trkpt>
      <trkpt lat="43.44286" lon="1.44796">
        <ele>225.5</ele>
        <time>2022-05-16T09:45:52Z</time>
      </trkpt>
      <trkpt lat="43.44287" lon="1.44797">
        <ele>225.9</ele>
        <time>2022-05-16T09:45:53Z</time>
      </trkpt>
      <trkpt lat="43.44288" lon="1.44797">
        <ele>226.1</ele>
        <time>2022-05-16T09:45:54Z</time>
      </trkpt>
      <trkpt lat="43.44289" lon="1.44795">
        <ele>226.5</ele>
        <time>2022-05-16T09:45:55Z</time>
      </trkpt>
      <trkpt lat="43.44289" lon="1.44791">
        <ele>227.3</ele>
        <time>2022-05-16T09:45:56Z</time>
      </trkpt>
      <trkpt lat="43.44289" lon="1.4479">
        <ele>227.5</ele>
        <time>2022-05-16T09:45:57Z</time>
      </trkpt>
      <trkpt lat="43.4429" lon="1.44788">
        <ele>228.7</ele>
        <time>2022-05-16T09:45:58Z</time>
      </trkpt>
      <trkpt lat="43.44291" lon="1.44787">
        <ele>228.6</ele>
        <time>2022-05-16T09:45:59Z</time>
      </trkpt>
      <trkpt lat="43.44291" lon="1.44786">
        <ele>228.6</ele>
        <time>2022-05-16T09:46:00Z</time>
      </trkpt>
      <trkpt lat="43.44292" lon="1.44785">
        <ele>228.6</ele>
        <time>2022-05-16T09:46:01Z</time>
      </trkpt>
      <trkpt lat="43.44293" lon="1.44783">
        <ele>228.4</ele>
        <time>2022-05-16T09:46:02Z</time>
      </trkpt>
      <trkpt lat="43.44292" lon="1.44777">
        <ele>228</ele>
        <time>2022-05-16T09:46:03Z</time>
      </trkpt>
      <trkpt lat="43.44292" lon="1.44775">
        <ele>227.8</ele>
        <time>2022-05-16T09:46:04Z</time>
      </trkpt>
      <trkpt lat="43.4429" lon="1.4477">
        <ele>227.4</ele>
        <time>2022-05-16T09:46:05Z</time>
      </trkpt>
      <trkpt lat="43.44289" lon="1.44768">
        <ele>227.1</ele>
        <time>2022-05-16T09:46:06Z</time>
      </trkpt>
      <trkpt lat="43.44288" lon="1.44763">
        <ele>226.6</ele>
        <time>2022-05-16T09:46:07Z</time>
      </trkpt>
      <trkpt lat="43.44287" lon="1.44757">
        <ele>226.1</ele>
        <time>2022-05-16T09:46:08Z</time>
      </trkpt>
      <trkpt lat="43.44286" lon="1.44751">
        <ele>225.7</ele>
        <time>2022-05-16T09:46:09Z</time>
      </trkpt>
      <trkpt lat="43.44283" lon="1.44745">
        <ele>225.2</ele>
        <time>2022-05-16T09:46:10Z</time>
      </trkpt>
      <trkpt lat="43.4428" lon="1.44739">
        <ele>224.9</ele>
        <time>2022-05-16T09:46:11Z</time>
      </trkpt>
      <trkpt lat="43.44275" lon="1.44736">
        <ele>224.8</ele>
        <time>2022-05-16T09:46:12Z</time>
      </trkpt>
      <trkpt lat="43.44271" lon="1.44733">
        <ele>224.8</ele>
        <time>2022-05-16T09:46:13Z</time>
      </trkpt>
      <trkpt lat="43.44271" lon="1.44729">
        <ele>224.8</ele>
        <time>2022-05-16T09:46:14Z</time>
      </trkpt>
      <trkpt lat="43.4427" lon="1.44727">
        <ele>224.9</ele>
        <time>2022-05-16T09:46:15Z</time>
      </trkpt>
      <trkpt lat="43.44269" lon="1.44724">
        <ele>225</ele>
        <time>2022-05-16T09:46:16Z</time>
      </trkpt>
      <trkpt lat="43.44268" lon="1.44722">
        <ele>225</ele>
        <time>2022-05-16T09:46:17Z</time>
      </trkpt>
      <trkpt lat="43.44267" lon="1.44717">
        <ele>225.2</ele>
        <time>2022-05-16T09:46:18Z</time>
      </trkpt>
      <trkpt lat="43.44266" lon="1.44716">
        <ele>225.3</ele>
        <time>2022-05-16T09:46:19Z</time>
      </trkpt>
      <trkpt lat="43.44265" lon="1.44712">
        <ele>225.4</ele>
        <time>2022-05-16T09:46:20Z</time>
      </trkpt>
      <trkpt lat="43.44264" lon="1.44707">
        <ele>225.6</ele>
        <time>2022-05-16T09:46:21Z</time>
      </trkpt>
      <trkpt lat="43.44264" lon="1.44705">
        <ele>225.7</ele>
        <time>2022-05-16T09:46:22Z</time>
      </trkpt>
      <trkpt lat="43.44264" lon="1.447">
        <ele>225.9</ele>
        <time>2022-05-16T09:46:23Z</time>
      </trkpt>
      <trkpt lat="43.44264" lon="1.44698">
        <ele>226</ele>
        <time>2022-05-16T09:46:24Z</time>
      </trkpt>
      <trkpt lat="43.44263" lon="1.44693">
        <ele>226.1</ele>
        <time>2022-05-16T09:46:25Z</time>
      </trkpt>
      <trkpt lat="43.44263" lon="1.44691">
        <ele>226.2</ele>
        <time>2022-05-16T09:46:26Z</time>
      </trkpt>
      <trkpt lat="43.44263" lon="1.44686">
        <ele>226.3</ele>
        <time>2022-05-16T09:46:27Z</time>
      </trkpt>
      <trkpt lat="43.44262" lon="1.44685">
        <ele>226.3</ele>
        <time>2022-05-16T09:46:28Z</time>
      </trkpt>
      <trkpt lat="43.44262" lon="1.4468">
        <ele>226.4</ele>
        <time>2022-05-16T09:46:29Z</time>
      </trkpt>
      <trkpt lat="43.44263" lon="1.44677">
        <ele>226.4</ele>
        <time>2022-05-16T09:46:30Z</time>
      </trkpt>
      <trkpt lat="43.44263" lon="1.44672">
        <ele>226.4</ele>
        <time>2022-05-16T09:46:31Z</time>
      </trkpt>
      <trkpt lat="43.44262" lon="1.44668">
        <ele>226.3</ele>
        <time>2022-05-16T09:46:32Z</time>
      </trkpt>
      <trkpt lat="43.44263" lon="1.44664">
        <ele>226.3</ele>
        <time>2022-05-16T09:46:33Z</time>
      </trkpt>
      <trkpt lat="43.44264" lon="1.4466">
        <ele>226.2</ele>
        <time>2022-05-16T09:46:34Z</time>
      </trkpt>
      <trkpt lat="43.44265" lon="1.44656">
        <ele>226.1</ele>
        <time>2022-05-16T09:46:35Z</time>
      </trkpt>
      <trkpt lat="43.44266" lon="1.44655">
        <ele>226.1</ele>
        <time>2022-05-16T09:46:36Z</time>
      </trkpt>
      <trkpt lat="43.44268" lon="1.44651">
        <ele>225.9</ele>
        <time>2022-05-16T09:46:37Z</time>
      </trkpt>
      <trkpt lat="43.44269" lon="1.44649">
        <ele>225.9</ele>
        <time>2022-05-16T09:46:38Z</time>
      </trkpt>
      <trkpt lat="43.44269" lon="1.44645">
        <ele>225.8</ele>
        <time>2022-05-16T09:46:39Z</time>
      </trkpt>
      <trkpt lat="43.44269" lon="1.44639">
        <ele>225.6</ele>
        <time>2022-05-16T09:46:40Z</time>
      </trkpt>
      <trkpt lat="43.44269" lon="1.44637">
        <ele>225.5</ele>
        <time>2022-05-16T09:46:41Z</time>
      </trkpt>
      <trkpt lat="43.44271" lon="1.44633">
        <ele>225.3</ele>
        <time>2022-05-16T09:46:42Z</time>
      </trkpt>
      <trkpt lat="43.44272" lon="1.44629">
        <ele>225.1</ele>
        <time>2022-05-16T09:46:43Z</time>
      </trkpt>
      <trkpt lat="43.44273" lon="1.44624">
        <ele>224.9</ele>
        <time>2022-05-16T09:46:44Z</time>
      </trkpt>
      <trkpt lat="43.44272" lon="1.44619">
        <ele>224.7</ele>
        <time>2022-05-16T09:46:45Z</time>
      </trkpt>
      <trkpt lat="43.44272" lon="1.44613">
        <ele>224.4</ele>
        <time>2022-05-16T09:46:46Z</time>
      </trkpt>
      <trkpt lat="43.4427" lon="1.4461">
        <ele>224.3</ele>
        <time>2022-05-16T09:46:47Z</time>
      </trkpt>
      <trkpt lat="43.44269" lon="1.44609">
        <ele>224.2</ele>
        <time>2022-05-16T09:46:48Z</time>
      </trkpt>
      <trkpt lat="43.44267" lon="1.44603">
        <ele>224</ele>
        <time>2022-05-16T09:46:49Z</time>
      </trkpt>
      <trkpt lat="43.44266" lon="1.44599">
        <ele>223.9</ele>
        <time>2022-05-16T09:46:50Z</time>
      </trkpt>
      <trkpt lat="43.44266" lon="1.44595">
        <ele>223.8</ele>
        <time>2022-05-16T09:46:51Z</time>
      </trkpt>
      <trkpt lat="43.44265" lon="1.44589">
        <ele>223.8</ele>
        <time>2022-05-16T09:46:52Z</time>
      </trkpt>
      <trkpt lat="43.44265" lon="1.44587">
        <ele>223.8</ele>
        <time>2022-05-16T09:46:53Z</time>
      </trkpt>
      <trkpt lat="43.44263" lon="1.44582">
        <ele>223.8</ele>
        <time>2022-05-16T09:46:54Z</time>
      </trkpt>
      <trkpt lat="43.44261" lon="1.44578">
        <ele>223.8</ele>
        <time>2022-05-16T09:46:55Z</time>
      </trkpt>
      <trkpt lat="43.4426" lon="1.44573">
        <ele>223.9</ele>
        <time>2022-05-16T09:46:56Z</time>
      </trkpt>
      <trkpt lat="43.4426" lon="1.44568">
        <ele>223.9</ele>
        <time>2022-05-16T09:46:57Z</time>
      </trkpt>
      <trkpt lat="43.4426" lon="1.44563">
        <ele>224</ele>
        <time>2022-05-16T09:46:58Z</time>
      </trkpt>
      <trkpt lat="43.44261" lon="1.44559">
        <ele>224</ele>
        <time>2022-05-16T09:46:59Z</time>
      </trkpt>
      <trkpt lat="43.44261" lon="1.44555">
        <ele>224.1</ele>
        <time>2022-05-16T09:47:00Z</time>
      </trkpt>
      <trkpt lat="43.4426" lon="1.44551">
        <ele>224.2</ele>
        <time>2022-05-16T09:47:01Z</time>
      </trkpt>
      <trkpt lat="43.4426" lon="1.44546">
        <ele>224.2</ele>
        <time>2022-05-16T09:47:02Z</time>
      </trkpt>
      <trkpt lat="43.44259" lon="1.44542">
        <ele>224.2</ele>
        <time>2022-05-16T09:47:03Z</time>
      </trkpt>
      <trkpt lat="43.44256" lon="1.44537">
        <ele>224.2</ele>
        <time>2022-05-16T09:47:04Z</time>
      </trkpt>
      <trkpt lat="43.44255" lon="1.44532">
        <ele>224.2</ele>
        <time>2022-05-16T09:47:05Z</time>
      </trkpt>
      <trkpt lat="43.44254" lon="1.44527">
        <ele>224.2</ele>
        <time>2022-05-16T09:47:06Z</time>
      </trkpt>
      <trkpt lat="43.44253" lon="1.44525">
        <ele>224.1</ele>
        <time>2022-05-16T09:47:07Z</time>
      </trkpt>
      <trkpt lat="43.4425" lon="1.44523">
        <ele>224.1</ele>
        <time>2022-05-16T09:47:08Z</time>
      </trkpt>
      <trkpt lat="43.44246" lon="1.44521">
        <ele>223.9</ele>
        <time>2022-05-16T09:47:09Z</time>
      </trkpt>
      <trkpt lat="43.44243" lon="1.44519">
        <ele>223.8</ele>
        <time>2022-05-16T09:47:10Z</time>
      </trkpt>
      <trkpt lat="43.44242" lon="1.4452">
        <ele>223.7</ele>
        <time>2022-05-16T09:47:11Z</time>
      </trkpt>
      <trkpt lat="43.4424" lon="1.44521">
        <ele>223.6</ele>
        <time>2022-05-16T09:47:12Z</time>
      </trkpt>
      <trkpt lat="43.44236" lon="1.44523">
        <ele>223.4</ele>
        <time>2022-05-16T09:47:13Z</time>
      </trkpt>
      <trkpt lat="43.44232" lon="1.44525">
        <ele>223.1</ele>
        <time>2022-05-16T09:47:14Z</time>
      </trkpt>
      <trkpt lat="43.44229" lon="1.44523">
        <ele>223</ele>
        <time>2022-05-16T09:47:15Z</time>
      </trkpt>
      <trkpt lat="43.44227" lon="1.44524">
        <ele>222.8</ele>
        <time>2022-05-16T09:47:16Z</time>
      </trkpt>
      <trkpt lat="43.44226" lon="1.44526">
        <ele>222.7</ele>
        <time>2022-05-16T09:47:17Z</time>
      </trkpt>
      <trkpt lat="43.44223" lon="1.4453">
        <ele>222.5</ele>
        <time>2022-05-16T09:47:18Z</time>
      </trkpt>
      <trkpt lat="43.44219" lon="1.44531">
        <ele>222.4</ele>
        <time>2022-05-16T09:47:19Z</time>
      </trkpt>
      <trkpt lat="43.44217" lon="1.44531">
        <ele>222.3</ele>
        <time>2022-05-16T09:47:20Z</time>
      </trkpt>
      <trkpt lat="43.44214" lon="1.44531">
        <ele>222.3</ele>
        <time>2022-05-16T09:47:21Z</time>
      </trkpt>
      <trkpt lat="43.44211" lon="1.44531">
        <ele>222.2</ele>
        <time>2022-05-16T09:47:22Z</time>
      </trkpt>
      <trkpt lat="43.44207" lon="1.44533">
        <ele>222.1</ele>
        <time>2022-05-16T09:47:23Z</time>
      </trkpt>
      <trkpt lat="43.44204" lon="1.44532">
        <ele>222.1</ele>
        <time>2022-05-16T09:47:24Z</time>
      </trkpt>
      <trkpt lat="43.44201" lon="1.44537">
        <ele>221.9</ele>
        <time>2022-05-16T09:47:25Z</time>
      </trkpt>
      <trkpt lat="43.442" lon="1.44539">
        <ele>221.9</ele>
        <time>2022-05-16T09:47:26Z</time>
      </trkpt>
      <trkpt lat="43.44196" lon="1.44541">
        <ele>221.7</ele>
        <time>2022-05-16T09:47:27Z</time>
      </trkpt>
      <trkpt lat="43.44192" lon="1.44543">
        <ele>221.6</ele>
        <time>2022-05-16T09:47:28Z</time>
      </trkpt>
      <trkpt lat="43.44188" lon="1.44543">
        <ele>221.6</ele>
        <time>2022-05-16T09:47:29Z</time>
      </trkpt>
      <trkpt lat="43.44186" lon="1.44543">
        <ele>221.7</ele>
        <time>2022-05-16T09:47:30Z</time>
      </trkpt>
      <trkpt lat="43.44183" lon="1.44544">
        <ele>221.8</ele>
        <time>2022-05-16T09:47:31Z</time>
      </trkpt>
      <trkpt lat="43.4418" lon="1.44543">
        <ele>222.1</ele>
        <time>2022-05-16T09:47:32Z</time>
      </trkpt>
      <trkpt lat="43.44179" lon="1.44542">
        <ele>222.2</ele>
        <time>2022-05-16T09:47:33Z</time>
      </trkpt>
      <trkpt lat="43.44178" lon="1.4454">
        <ele>222.3</ele>
        <time>2022-05-16T09:47:34Z</time>
      </trkpt>
      <trkpt lat="43.44177" lon="1.44541">
        <ele>222.4</ele>
        <time>2022-05-16T09:47:35Z</time>
      </trkpt>
      <trkpt lat="43.44176" lon="1.4454">
        <ele>222.5</ele>
        <time>2022-05-16T09:47:36Z</time>
      </trkpt>
      <trkpt lat="43.44177" lon="1.4454">
        <ele>222.6</ele>
        <time>2022-05-16T09:47:37Z</time>
      </trkpt>
      <trkpt lat="43.44177" lon="1.44539">
        <ele>222.7</ele>
        <time>2022-05-16T09:47:38Z</time>
      </trkpt>
      <trkpt lat="43.44177" lon="1.44538">
        <ele>222.8</ele>
        <time>2022-05-16T09:47:39Z</time>
      </trkpt>
      <trkpt lat="43.44177" lon="1.44537">
        <ele>222.8</ele>
        <time>2022-05-16T09:47:40Z</time>
      </trkpt>
      <trkpt lat="43.44177" lon="1.44536">
        <ele>223</ele>
        <time>2022-05-16T09:47:42Z</time>
      </trkpt>
      <trkpt lat="43.44177" lon="1.44535">
        <ele>223</ele>
        <time>2022-05-16T09:47:43Z</time>
      </trkpt>
      <trkpt lat="43.44176" lon="1.44534">
        <ele>223.1</ele>
        <time>2022-05-16T09:47:44Z</time>
      </trkpt>
      <trkpt lat="43.44176" lon="1.44533">
        <ele>223.3</ele>
        <time>2022-05-16T09:47:46Z</time>
      </trkpt>
      <trkpt lat="43.44176" lon="1.44532">
        <ele>223.4</ele>
        <time>2022-05-16T09:47:59Z</time>
      </trkpt>
      <trkpt lat="43.44176" lon="1.44531">
        <ele>223.4</ele>
        <time>2022-05-16T09:48:00Z</time>
      </trkpt>
      <trkpt lat="43.44176" lon="1.4453">
        <ele>223.6</ele>
        <time>2022-05-16T09:48:02Z</time>
      </trkpt>
      <trkpt lat="43.44176" lon="1.44529">
        <ele>223.7</ele>
        <time>2022-05-16T09:48:03Z</time>
      </trkpt>
      <trkpt lat="43.44175" lon="1.44528">
        <ele>223.8</ele>
        <time>2022-05-16T09:48:04Z</time>
      </trkpt>
      <trkpt lat="43.44175" lon="1.44527">
        <ele>224.4</ele>
        <time>2022-05-16T09:48:05Z</time>
      </trkpt>
      <trkpt lat="43.44175" lon="1.44526">
        <ele>224.5</ele>
        <time>2022-05-16T09:48:06Z</time>
      </trkpt>
      <trkpt lat="43.44175" lon="1.44525">
        <ele>224.5</ele>
        <time>2022-05-16T09:48:07Z</time>
      </trkpt>
      <trkpt lat="43.44175" lon="1.44524">
        <ele>224.5</ele>
        <time>2022-05-16T09:48:08Z</time>
      </trkpt>
      <trkpt lat="43.44176" lon="1.44524">
        <ele>224.5</ele>
        <time>2022-05-16T09:48:09Z</time>
      </trkpt>
      <trkpt lat="43.44178" lon="1.44523">
        <ele>224.6</ele>
        <time>2022-05-16T09:48:10Z</time>
      </trkpt>
      <trkpt lat="43.44181" lon="1.44523">
        <ele>224.7</ele>
        <time>2022-05-16T09:48:11Z</time>
      </trkpt>
      <trkpt lat="43.44181" lon="1.44522">
        <ele>224.7</ele>
        <time>2022-05-16T09:48:12Z</time>
      </trkpt>
      <trkpt lat="43.44182" lon="1.4452">
        <ele>224.7</ele>
        <time>2022-05-16T09:48:13Z</time>
      </trkpt>
      <trkpt lat="43.44183" lon="1.44519">
        <ele>224.8</ele>
        <time>2022-05-16T09:48:14Z</time>
      </trkpt>
      <trkpt lat="43.44185" lon="1.44519">
        <ele>224.9</ele>
        <time>2022-05-16T09:48:15Z</time>
      </trkpt>
      <trkpt lat="43.44187" lon="1.44518">
        <ele>224.9</ele>
        <time>2022-05-16T09:48:16Z</time>
      </trkpt>
      <trkpt lat="43.44188" lon="1.44517">
        <ele>225</ele>
        <time>2022-05-16T09:48:17Z</time>
      </trkpt>
      <trkpt lat="43.4419" lon="1.44516">
        <ele>225.1</ele>
        <time>2022-05-16T09:48:18Z</time>
      </trkpt>
      <trkpt lat="43.44191" lon="1.44515">
        <ele>225.2</ele>
        <time>2022-05-16T09:48:19Z</time>
      </trkpt>
      <trkpt lat="43.44193" lon="1.44514">
        <ele>225.3</ele>
        <time>2022-05-16T09:48:20Z</time>
      </trkpt>
      <trkpt lat="43.44196" lon="1.44514">
        <ele>225.5</ele>
        <time>2022-05-16T09:48:21Z</time>
      </trkpt>
      <trkpt lat="43.44197" lon="1.44514">
        <ele>225.5</ele>
        <time>2022-05-16T09:48:22Z</time>
      </trkpt>
      <trkpt lat="43.442" lon="1.44512">
        <ele>225.7</ele>
        <time>2022-05-16T09:48:23Z</time>
      </trkpt>
      <trkpt lat="43.44201" lon="1.44511">
        <ele>225.8</ele>
        <time>2022-05-16T09:48:24Z</time>
      </trkpt>
      <trkpt lat="43.44204" lon="1.44509">
        <ele>226.1</ele>
        <time>2022-05-16T09:48:25Z</time>
      </trkpt>
      <trkpt lat="43.44205" lon="1.44509">
        <ele>226.2</ele>
        <time>2022-05-16T09:48:26Z</time>
      </trkpt>
      <trkpt lat="43.44208" lon="1.44507">
        <ele>226.5</ele>
        <time>2022-05-16T09:48:27Z</time>
      </trkpt>
      <trkpt lat="43.4421" lon="1.44506">
        <ele>226.6</ele>
        <time>2022-05-16T09:48:28Z</time>
      </trkpt>
      <trkpt lat="43.44213" lon="1.44503">
        <ele>226.9</ele>
        <time>2022-05-16T09:48:29Z</time>
      </trkpt>
      <trkpt lat="43.44214" lon="1.44503">
        <ele>227</ele>
        <time>2022-05-16T09:48:30Z</time>
      </trkpt>
      <trkpt lat="43.44217" lon="1.44501">
        <ele>227.3</ele>
        <time>2022-05-16T09:48:31Z</time>
      </trkpt>
      <trkpt lat="43.44218" lon="1.445">
        <ele>227.5</ele>
        <time>2022-05-16T09:48:32Z</time>
      </trkpt>
      <trkpt lat="43.44221" lon="1.44499">
        <ele>227.7</ele>
        <time>2022-05-16T09:48:33Z</time>
      </trkpt>
      <trkpt lat="43.44223" lon="1.44498">
        <ele>228</ele>
        <time>2022-05-16T09:48:34Z</time>
      </trkpt>
      <trkpt lat="43.44226" lon="1.44495">
        <ele>228.4</ele>
        <time>2022-05-16T09:48:35Z</time>
      </trkpt>
      <trkpt lat="43.44227" lon="1.44494">
        <ele>228.6</ele>
        <time>2022-05-16T09:48:36Z</time>
      </trkpt>
      <trkpt lat="43.44231" lon="1.44492">
        <ele>229</ele>
        <time>2022-05-16T09:48:37Z</time>
      </trkpt>
      <trkpt lat="43.44232" lon="1.44491">
        <ele>229.2</ele>
        <time>2022-05-16T09:48:38Z</time>
      </trkpt>
      <trkpt lat="43.44236" lon="1.44488">
        <ele>229.6</ele>
        <time>2022-05-16T09:48:39Z</time>
      </trkpt>
      <trkpt lat="43.44237" lon="1.44488">
        <ele>229.8</ele>
        <time>2022-05-16T09:48:40Z</time>
      </trkpt>
      <trkpt lat="43.44239" lon="1.44486">
        <ele>230.1</ele>
        <time>2022-05-16T09:48:41Z</time>
      </trkpt>
      <trkpt lat="43.44243" lon="1.44484">
        <ele>230.7</ele>
        <time>2022-05-16T09:48:42Z</time>
      </trkpt>
      <trkpt lat="43.44245" lon="1.44483">
        <ele>230.8</ele>
        <time>2022-05-16T09:48:43Z</time>
      </trkpt>
      <trkpt lat="43.44248" lon="1.44483">
        <ele>231.2</ele>
        <time>2022-05-16T09:48:44Z</time>
      </trkpt>
      <trkpt lat="43.4425" lon="1.44481">
        <ele>231.6</ele>
        <time>2022-05-16T09:48:45Z</time>
      </trkpt>
      <trkpt lat="43.44253" lon="1.4448">
        <ele>232</ele>
        <time>2022-05-16T09:48:46Z</time>
      </trkpt>
      <trkpt lat="43.44255" lon="1.44477">
        <ele>232.4</ele>
        <time>2022-05-16T09:48:47Z</time>
      </trkpt>
      <trkpt lat="43.44258" lon="1.44476">
        <ele>232.8</ele>
        <time>2022-05-16T09:48:48Z</time>
      </trkpt>
      <trkpt lat="43.44262" lon="1.44474">
        <ele>233.3</ele>
        <time>2022-05-16T09:48:49Z</time>
      </trkpt>
      <trkpt lat="43.44263" lon="1.44473">
        <ele>233.5</ele>
        <time>2022-05-16T09:48:50Z</time>
      </trkpt>
      <trkpt lat="43.44266" lon="1.4447">
        <ele>233.9</ele>
        <time>2022-05-16T09:48:51Z</time>
      </trkpt>
      <trkpt lat="43.44267" lon="1.44469">
        <ele>234.1</ele>
        <time>2022-05-16T09:48:52Z</time>
      </trkpt>
      <trkpt lat="43.44271" lon="1.44467">
        <ele>234.5</ele>
        <time>2022-05-16T09:48:53Z</time>
      </trkpt>
      <trkpt lat="43.44272" lon="1.44466">
        <ele>234.6</ele>
        <time>2022-05-16T09:48:54Z</time>
      </trkpt>
      <trkpt lat="43.44275" lon="1.44465">
        <ele>234.9</ele>
        <time>2022-05-16T09:48:55Z</time>
      </trkpt>
      <trkpt lat="43.44277" lon="1.44464">
        <ele>235.2</ele>
        <time>2022-05-16T09:48:56Z</time>
      </trkpt>
      <trkpt lat="43.4428" lon="1.44463">
        <ele>235.4</ele>
        <time>2022-05-16T09:48:57Z</time>
      </trkpt>
      <trkpt lat="43.44283" lon="1.44464">
        <ele>235.6</ele>
        <time>2022-05-16T09:48:58Z</time>
      </trkpt>
      <trkpt lat="43.44286" lon="1.44466">
        <ele>235.9</ele>
        <time>2022-05-16T09:48:59Z</time>
      </trkpt>
      <trkpt lat="43.44289" lon="1.44468">
        <ele>236.1</ele>
        <time>2022-05-16T09:49:00Z</time>
      </trkpt>
      <trkpt lat="43.44292" lon="1.4447">
        <ele>236.3</ele>
        <time>2022-05-16T09:49:01Z</time>
      </trkpt>
      <trkpt lat="43.44295" lon="1.44471">
        <ele>236.6</ele>
        <time>2022-05-16T09:49:02Z</time>
      </trkpt>
      <trkpt lat="43.44297" lon="1.44474">
        <ele>236.7</ele>
        <time>2022-05-16T09:49:03Z</time>
      </trkpt>
      <trkpt lat="43.44299" lon="1.44477">
        <ele>236.9</ele>
        <time>2022-05-16T09:49:04Z</time>
      </trkpt>
      <trkpt lat="43.44301" lon="1.44481">
        <ele>237.1</ele>
        <time>2022-05-16T09:49:05Z</time>
      </trkpt>
      <trkpt lat="43.44303" lon="1.44484">
        <ele>237.3</ele>
        <time>2022-05-16T09:49:06Z</time>
      </trkpt>
      <trkpt lat="43.44304" lon="1.44488">
        <ele>237.5</ele>
        <time>2022-05-16T09:49:07Z</time>
      </trkpt>
      <trkpt lat="43.44306" lon="1.44492">
        <ele>237.8</ele>
        <time>2022-05-16T09:49:08Z</time>
      </trkpt>
      <trkpt lat="43.44307" lon="1.44496">
        <ele>237.9</ele>
        <time>2022-05-16T09:49:09Z</time>
      </trkpt>
      <trkpt lat="43.44308" lon="1.445">
        <ele>238.1</ele>
        <time>2022-05-16T09:49:10Z</time>
      </trkpt>
      <trkpt lat="43.44309" lon="1.44504">
        <ele>238.3</ele>
        <time>2022-05-16T09:49:11Z</time>
      </trkpt>
      <trkpt lat="43.4431" lon="1.44509">
        <ele>238.5</ele>
        <time>2022-05-16T09:49:12Z</time>
      </trkpt>
      <trkpt lat="43.44311" lon="1.44513">
        <ele>238.7</ele>
        <time>2022-05-16T09:49:13Z</time>
      </trkpt>
      <trkpt lat="43.44313" lon="1.44518">
        <ele>238.8</ele>
        <time>2022-05-16T09:49:14Z</time>
      </trkpt>
      <trkpt lat="43.44314" lon="1.44522">
        <ele>239</ele>
        <time>2022-05-16T09:49:15Z</time>
      </trkpt>
      <trkpt lat="43.44315" lon="1.44527">
        <ele>239.2</ele>
        <time>2022-05-16T09:49:16Z</time>
      </trkpt>
      <trkpt lat="43.44315" lon="1.44532">
        <ele>239.3</ele>
        <time>2022-05-16T09:49:17Z</time>
      </trkpt>
      <trkpt lat="43.44316" lon="1.44537">
        <ele>239.5</ele>
        <time>2022-05-16T09:49:18Z</time>
      </trkpt>
      <trkpt lat="43.44318" lon="1.44541">
        <ele>239.6</ele>
        <time>2022-05-16T09:49:19Z</time>
      </trkpt>
      <trkpt lat="43.4432" lon="1.44546">
        <ele>239.8</ele>
        <time>2022-05-16T09:49:20Z</time>
      </trkpt>
      <trkpt lat="43.44321" lon="1.44551">
        <ele>239.9</ele>
        <time>2022-05-16T09:49:21Z</time>
      </trkpt>
      <trkpt lat="43.44322" lon="1.44556">
        <ele>240.1</ele>
        <time>2022-05-16T09:49:22Z</time>
      </trkpt>
      <trkpt lat="43.44323" lon="1.44561">
        <ele>240.2</ele>
        <time>2022-05-16T09:49:23Z</time>
      </trkpt>
      <trkpt lat="43.44324" lon="1.44566">
        <ele>240.4</ele>
        <time>2022-05-16T09:49:24Z</time>
      </trkpt>
      <trkpt lat="43.44325" lon="1.44571">
        <ele>240.6</ele>
        <time>2022-05-16T09:49:25Z</time>
      </trkpt>
      <trkpt lat="43.44326" lon="1.44576">
        <ele>240.8</ele>
        <time>2022-05-16T09:49:26Z</time>
      </trkpt>
      <trkpt lat="43.44327" lon="1.44581">
        <ele>241</ele>
        <time>2022-05-16T09:49:27Z</time>
      </trkpt>
      <trkpt lat="43.44328" lon="1.44586">
        <ele>241.2</ele>
        <time>2022-05-16T09:49:28Z</time>
      </trkpt>
      <trkpt lat="43.44329" lon="1.44591">
        <ele>241.4</ele>
        <time>2022-05-16T09:49:29Z</time>
      </trkpt>
      <trkpt lat="43.44329" lon="1.44597">
        <ele>241.7</ele>
        <time>2022-05-16T09:49:30Z</time>
      </trkpt>
      <trkpt lat="43.44329" lon="1.44602">
        <ele>241.9</ele>
        <time>2022-05-16T09:49:31Z</time>
      </trkpt>
      <trkpt lat="43.4433" lon="1.44607">
        <ele>242.2</ele>
        <time>2022-05-16T09:49:32Z</time>
      </trkpt>
      <trkpt lat="43.44332" lon="1.44612">
        <ele>242.5</ele>
        <time>2022-05-16T09:49:33Z</time>
      </trkpt>
      <trkpt lat="43.44332" lon="1.44616">
        <ele>242.8</ele>
        <time>2022-05-16T09:49:34Z</time>
      </trkpt>
      <trkpt lat="43.44334" lon="1.44621">
        <ele>243.1</ele>
        <time>2022-05-16T09:49:35Z</time>
      </trkpt>
      <trkpt lat="43.44336" lon="1.44625">
        <ele>243.4</ele>
        <time>2022-05-16T09:49:36Z</time>
      </trkpt>
      <trkpt lat="43.44339" lon="1.44627">
        <ele>243.7</ele>
        <time>2022-05-16T09:49:37Z</time>
      </trkpt>
      <trkpt lat="43.44343" lon="1.44628">
        <ele>244.1</ele>
        <time>2022-05-16T09:49:38Z</time>
      </trkpt>
      <trkpt lat="43.44346" lon="1.44628">
        <ele>244.4</ele>
        <time>2022-05-16T09:49:39Z</time>
      </trkpt>
      <trkpt lat="43.4435" lon="1.44627">
        <ele>244.7</ele>
        <time>2022-05-16T09:49:40Z</time>
      </trkpt>
      <trkpt lat="43.44354" lon="1.44627">
        <ele>245</ele>
        <time>2022-05-16T09:49:41Z</time>
      </trkpt>
      <trkpt lat="43.44357" lon="1.44625">
        <ele>245.3</ele>
        <time>2022-05-16T09:49:42Z</time>
      </trkpt>
      <trkpt lat="43.44361" lon="1.44624">
        <ele>245.5</ele>
        <time>2022-05-16T09:49:43Z</time>
      </trkpt>
      <trkpt lat="43.44364" lon="1.44623">
        <ele>245.8</ele>
        <time>2022-05-16T09:49:44Z</time>
      </trkpt>
      <trkpt lat="43.44367" lon="1.44623">
        <ele>246</ele>
        <time>2022-05-16T09:49:45Z</time>
      </trkpt>
      <trkpt lat="43.44371" lon="1.44621">
        <ele>246.2</ele>
        <time>2022-05-16T09:49:46Z</time>
      </trkpt>
      <trkpt lat="43.44375" lon="1.4462">
        <ele>246.4</ele>
        <time>2022-05-16T09:49:47Z</time>
      </trkpt>
      <trkpt lat="43.44378" lon="1.44619">
        <ele>246.6</ele>
        <time>2022-05-16T09:49:48Z</time>
      </trkpt>
      <trkpt lat="43.44382" lon="1.44618">
        <ele>246.8</ele>
        <time>2022-05-16T09:49:49Z</time>
      </trkpt>
      <trkpt lat="43.44386" lon="1.44616">
        <ele>247</ele>
        <time>2022-05-16T09:49:50Z</time>
      </trkpt>
      <trkpt lat="43.44389" lon="1.44615">
        <ele>247.1</ele>
        <time>2022-05-16T09:49:51Z</time>
      </trkpt>
      <trkpt lat="43.44393" lon="1.44614">
        <ele>247.2</ele>
        <time>2022-05-16T09:49:52Z</time>
      </trkpt>
      <trkpt lat="43.44396" lon="1.44612">
        <ele>247.3</ele>
        <time>2022-05-16T09:49:53Z</time>
      </trkpt>
      <trkpt lat="43.444" lon="1.44611">
        <ele>247.3</ele>
        <time>2022-05-16T09:49:54Z</time>
      </trkpt>
      <trkpt lat="43.44404" lon="1.44609">
        <ele>247.4</ele>
        <time>2022-05-16T09:49:55Z</time>
      </trkpt>
      <trkpt lat="43.44407" lon="1.44607">
        <ele>247.4</ele>
        <time>2022-05-16T09:49:56Z</time>
      </trkpt>
      <trkpt lat="43.44409" lon="1.44602">
        <ele>247.5</ele>
        <time>2022-05-16T09:49:57Z</time>
      </trkpt>
      <trkpt lat="43.4441" lon="1.44598">
        <ele>247.4</ele>
        <time>2022-05-16T09:49:58Z</time>
      </trkpt>
      <trkpt lat="43.44409" lon="1.44592">
        <ele>247.4</ele>
        <time>2022-05-16T09:49:59Z</time>
      </trkpt>
      <trkpt lat="43.44407" lon="1.44587">
        <ele>247.3</ele>
        <time>2022-05-16T09:50:00Z</time>
      </trkpt>
      <trkpt lat="43.44406" lon="1.44581">
        <ele>247.2</ele>
        <time>2022-05-16T09:50:01Z</time>
      </trkpt>
      <trkpt lat="43.44404" lon="1.44576">
        <ele>247.1</ele>
        <time>2022-05-16T09:50:02Z</time>
      </trkpt>
      <trkpt lat="43.44401" lon="1.4457">
        <ele>247</ele>
        <time>2022-05-16T09:50:03Z</time>
      </trkpt>
      <trkpt lat="43.44399" lon="1.44565">
        <ele>246.8</ele>
        <time>2022-05-16T09:50:04Z</time>
      </trkpt>
      <trkpt lat="43.44395" lon="1.44559">
        <ele>246.7</ele>
        <time>2022-05-16T09:50:05Z</time>
      </trkpt>
      <trkpt lat="43.44392" lon="1.44554">
        <ele>246.5</ele>
        <time>2022-05-16T09:50:06Z</time>
      </trkpt>
      <trkpt lat="43.44389" lon="1.44548">
        <ele>246.4</ele>
        <time>2022-05-16T09:50:07Z</time>
      </trkpt>
      <trkpt lat="43.44386" lon="1.44542">
        <ele>246.2</ele>
        <time>2022-05-16T09:50:08Z</time>
      </trkpt>
      <trkpt lat="43.44384" lon="1.44536">
        <ele>246</ele>
        <time>2022-05-16T09:50:09Z</time>
      </trkpt>
      <trkpt lat="43.44381" lon="1.4453">
        <ele>245.8</ele>
        <time>2022-05-16T09:50:10Z</time>
      </trkpt>
      <trkpt lat="43.44378" lon="1.44524">
        <ele>245.6</ele>
        <time>2022-05-16T09:50:11Z</time>
      </trkpt>
      <trkpt lat="43.44375" lon="1.44519">
        <ele>245.5</ele>
        <time>2022-05-16T09:50:12Z</time>
      </trkpt>
      <trkpt lat="43.44372" lon="1.44512">
        <ele>245.2</ele>
        <time>2022-05-16T09:50:13Z</time>
      </trkpt>
      <trkpt lat="43.44368" lon="1.44506">
        <ele>245</ele>
        <time>2022-05-16T09:50:14Z</time>
      </trkpt>
      <trkpt lat="43.44365" lon="1.445">
        <ele>244.8</ele>
        <time>2022-05-16T09:50:15Z</time>
      </trkpt>
      <trkpt lat="43.44362" lon="1.44493">
        <ele>244.5</ele>
        <time>2022-05-16T09:50:16Z</time>
      </trkpt>
      <trkpt lat="43.44358" lon="1.44487">
        <ele>244.3</ele>
        <time>2022-05-16T09:50:17Z</time>
      </trkpt>
      <trkpt lat="43.44355" lon="1.4448">
        <ele>244.1</ele>
        <time>2022-05-16T09:50:18Z</time>
      </trkpt>
      <trkpt lat="43.44351" lon="1.44473">
        <ele>243.9</ele>
        <time>2022-05-16T09:50:19Z</time>
      </trkpt>
      <trkpt lat="43.44347" lon="1.44466">
        <ele>243.7</ele>
        <time>2022-05-16T09:50:20Z</time>
      </trkpt>
      <trkpt lat="43.44344" lon="1.44459">
        <ele>243.6</ele>
        <time>2022-05-16T09:50:21Z</time>
      </trkpt>
      <trkpt lat="43.44339" lon="1.44453">
        <ele>243.5</ele>
        <time>2022-05-16T09:50:22Z</time>
      </trkpt>
      <trkpt lat="43.44335" lon="1.44446">
        <ele>243.4</ele>
        <time>2022-05-16T09:50:23Z</time>
      </trkpt>
      <trkpt lat="43.44331" lon="1.4444">
        <ele>243.4</ele>
        <time>2022-05-16T09:50:24Z</time>
      </trkpt>
      <trkpt lat="43.44326" lon="1.44435">
        <ele>243.4</ele>
        <time>2022-05-16T09:50:25Z</time>
      </trkpt>
      <trkpt lat="43.44322" lon="1.44429">
        <ele>243.5</ele>
        <time>2022-05-16T09:50:26Z</time>
      </trkpt>
      <trkpt lat="43.44317" lon="1.44423">
        <ele>243.6</ele>
        <time>2022-05-16T09:50:27Z</time>
      </trkpt>
      <trkpt lat="43.44312" lon="1.44419">
        <ele>243.6</ele>
        <time>2022-05-16T09:50:28Z</time>
      </trkpt>
      <trkpt lat="43.44307" lon="1.44416">
        <ele>243.7</ele>
        <time>2022-05-16T09:50:29Z</time>
      </trkpt>
      <trkpt lat="43.44303" lon="1.44412">
        <ele>243.8</ele>
        <time>2022-05-16T09:50:30Z</time>
      </trkpt>
      <trkpt lat="43.44298" lon="1.44409">
        <ele>243.8</ele>
        <time>2022-05-16T09:50:31Z</time>
      </trkpt>
      <trkpt lat="43.44295" lon="1.44405">
        <ele>243.9</ele>
        <time>2022-05-16T09:50:32Z</time>
      </trkpt>
      <trkpt lat="43.4429" lon="1.44402">
        <ele>243.9</ele>
        <time>2022-05-16T09:50:33Z</time>
      </trkpt>
      <trkpt lat="43.44287" lon="1.44399">
        <ele>243.9</ele>
        <time>2022-05-16T09:50:34Z</time>
      </trkpt>
      <trkpt lat="43.44283" lon="1.44397">
        <ele>243.8</ele>
        <time>2022-05-16T09:50:35Z</time>
      </trkpt>
      <trkpt lat="43.44279" lon="1.44395">
        <ele>243.8</ele>
        <time>2022-05-16T09:50:36Z</time>
      </trkpt>
      <trkpt lat="43.44276" lon="1.44392">
        <ele>243.7</ele>
        <time>2022-05-16T09:50:37Z</time>
      </trkpt>
      <trkpt lat="43.44275" lon="1.44387">
        <ele>244</ele>
        <time>2022-05-16T09:50:38Z</time>
      </trkpt>
      <trkpt lat="43.44275" lon="1.4438">
        <ele>244.5</ele>
        <time>2022-05-16T09:50:39Z</time>
      </trkpt>
      <trkpt lat="43.44278" lon="1.44374">
        <ele>245</ele>
        <time>2022-05-16T09:50:40Z</time>
      </trkpt>
      <trkpt lat="43.4428" lon="1.44368">
        <ele>245.5</ele>
        <time>2022-05-16T09:50:41Z</time>
      </trkpt>
      <trkpt lat="43.44283" lon="1.44362">
        <ele>245.8</ele>
        <time>2022-05-16T09:50:42Z</time>
      </trkpt>
      <trkpt lat="43.44284" lon="1.44355">
        <ele>246.2</ele>
        <time>2022-05-16T09:50:43Z</time>
      </trkpt>
      <trkpt lat="43.44286" lon="1.44349">
        <ele>246.5</ele>
        <time>2022-05-16T09:50:44Z</time>
      </trkpt>
      <trkpt lat="43.44287" lon="1.44343">
        <ele>247</ele>
        <time>2022-05-16T09:50:45Z</time>
      </trkpt>
      <trkpt lat="43.44288" lon="1.44337">
        <ele>247.4</ele>
        <time>2022-05-16T09:50:46Z</time>
      </trkpt>
      <trkpt lat="43.4429" lon="1.44331">
        <ele>247.8</ele>
        <time>2022-05-16T09:50:47Z</time>
      </trkpt>
      <trkpt lat="43.44291" lon="1.44325">
        <ele>248.2</ele>
        <time>2022-05-16T09:50:48Z</time>
      </trkpt>
      <trkpt lat="43.44292" lon="1.44319">
        <ele>248.6</ele>
        <time>2022-05-16T09:50:49Z</time>
      </trkpt>
      <trkpt lat="43.44293" lon="1.44313">
        <ele>249</ele>
        <time>2022-05-16T09:50:50Z</time>
      </trkpt>
      <trkpt lat="43.44294" lon="1.44306">
        <ele>249.4</ele>
        <time>2022-05-16T09:50:51Z</time>
      </trkpt>
      <trkpt lat="43.44296" lon="1.443">
        <ele>249.7</ele>
        <time>2022-05-16T09:50:52Z</time>
      </trkpt>
      <trkpt lat="43.44297" lon="1.44294">
        <ele>250</ele>
        <time>2022-05-16T09:50:53Z</time>
      </trkpt>
      <trkpt lat="43.44298" lon="1.44287">
        <ele>250.2</ele>
        <time>2022-05-16T09:50:54Z</time>
      </trkpt>
      <trkpt lat="43.44299" lon="1.44281">
        <ele>250.5</ele>
        <time>2022-05-16T09:50:55Z</time>
      </trkpt>
      <trkpt lat="43.44301" lon="1.44275">
        <ele>250.7</ele>
        <time>2022-05-16T09:50:56Z</time>
      </trkpt>
      <trkpt lat="43.44303" lon="1.44269">
        <ele>250.9</ele>
        <time>2022-05-16T09:50:57Z</time>
      </trkpt>
      <trkpt lat="43.44304" lon="1.44262">
        <ele>251.1</ele>
        <time>2022-05-16T09:50:58Z</time>
      </trkpt>
      <trkpt lat="43.44305" lon="1.44256">
        <ele>251.3</ele>
        <time>2022-05-16T09:50:59Z</time>
      </trkpt>
      <trkpt lat="43.44306" lon="1.4425">
        <ele>251.6</ele>
        <time>2022-05-16T09:51:00Z</time>
      </trkpt>
      <trkpt lat="43.44308" lon="1.44244">
        <ele>251.8</ele>
        <time>2022-05-16T09:51:01Z</time>
      </trkpt>
      <trkpt lat="43.4431" lon="1.44237">
        <ele>252</ele>
        <time>2022-05-16T09:51:02Z</time>
      </trkpt>
      <trkpt lat="43.44311" lon="1.44231">
        <ele>252.1</ele>
        <time>2022-05-16T09:51:03Z</time>
      </trkpt>
      <trkpt lat="43.44313" lon="1.44225">
        <ele>252.2</ele>
        <time>2022-05-16T09:51:04Z</time>
      </trkpt>
      <trkpt lat="43.44314" lon="1.44219">
        <ele>252.3</ele>
        <time>2022-05-16T09:51:05Z</time>
      </trkpt>
      <trkpt lat="43.44316" lon="1.44213">
        <ele>252.4</ele>
        <time>2022-05-16T09:51:06Z</time>
      </trkpt>
      <trkpt lat="43.44318" lon="1.44207">
        <ele>252.4</ele>
        <time>2022-05-16T09:51:07Z</time>
      </trkpt>
      <trkpt lat="43.4432" lon="1.442">
        <ele>252.4</ele>
        <time>2022-05-16T09:51:08Z</time>
      </trkpt>
      <trkpt lat="43.44322" lon="1.44194">
        <ele>252.5</ele>
        <time>2022-05-16T09:51:09Z</time>
      </trkpt>
      <trkpt lat="43.44325" lon="1.44188">
        <ele>252.5</ele>
        <time>2022-05-16T09:51:10Z</time>
      </trkpt>
      <trkpt lat="43.44326" lon="1.44182">
        <ele>252.6</ele>
        <time>2022-05-16T09:51:11Z</time>
      </trkpt>
      <trkpt lat="43.44329" lon="1.44176">
        <ele>252.7</ele>
        <time>2022-05-16T09:51:12Z</time>
      </trkpt>
      <trkpt lat="43.44331" lon="1.44171">
        <ele>252.7</ele>
        <time>2022-05-16T09:51:13Z</time>
      </trkpt>
      <trkpt lat="43.44334" lon="1.44165">
        <ele>252.7</ele>
        <time>2022-05-16T09:51:14Z</time>
      </trkpt>
      <trkpt lat="43.44337" lon="1.44159">
        <ele>252.6</ele>
        <time>2022-05-16T09:51:15Z</time>
      </trkpt>
      <trkpt lat="43.44339" lon="1.44154">
        <ele>252.6</ele>
        <time>2022-05-16T09:51:16Z</time>
      </trkpt>
      <trkpt lat="43.44342" lon="1.44148">
        <ele>252.4</ele>
        <time>2022-05-16T09:51:17Z</time>
      </trkpt>
      <trkpt lat="43.44345" lon="1.44142">
        <ele>252.3</ele>
        <time>2022-05-16T09:51:18Z</time>
      </trkpt>
      <trkpt lat="43.44348" lon="1.44136">
        <ele>252.2</ele>
        <time>2022-05-16T09:51:19Z</time>
      </trkpt>
      <trkpt lat="43.44351" lon="1.44129">
        <ele>252</ele>
        <time>2022-05-16T09:51:20Z</time>
      </trkpt>
      <trkpt lat="43.44354" lon="1.44123">
        <ele>251.8</ele>
        <time>2022-05-16T09:51:21Z</time>
      </trkpt>
      <trkpt lat="43.44357" lon="1.44117">
        <ele>251.6</ele>
        <time>2022-05-16T09:51:22Z</time>
      </trkpt>
      <trkpt lat="43.4436" lon="1.44109">
        <ele>251.3</ele>
        <time>2022-05-16T09:51:23Z</time>
      </trkpt>
      <trkpt lat="43.44363" lon="1.44103">
        <ele>250.9</ele>
        <time>2022-05-16T09:51:24Z</time>
      </trkpt>
      <trkpt lat="43.44366" lon="1.44096">
        <ele>250.6</ele>
        <time>2022-05-16T09:51:25Z</time>
      </trkpt>
      <trkpt lat="43.44369" lon="1.44089">
        <ele>250.4</ele>
        <time>2022-05-16T09:51:26Z</time>
      </trkpt>
      <trkpt lat="43.44372" lon="1.44082">
        <ele>250.2</ele>
        <time>2022-05-16T09:51:27Z</time>
      </trkpt>
      <trkpt lat="43.44374" lon="1.44074">
        <ele>249.9</ele>
        <time>2022-05-16T09:51:28Z</time>
      </trkpt>
      <trkpt lat="43.44376" lon="1.44067">
        <ele>249.7</ele>
        <time>2022-05-16T09:51:29Z</time>
      </trkpt>
      <trkpt lat="43.44379" lon="1.44059">
        <ele>249.4</ele>
        <time>2022-05-16T09:51:30Z</time>
      </trkpt>
      <trkpt lat="43.44381" lon="1.44052">
        <ele>249.1</ele>
        <time>2022-05-16T09:51:31Z</time>
      </trkpt>
      <trkpt lat="43.44384" lon="1.44043">
        <ele>248.7</ele>
        <time>2022-05-16T09:51:32Z</time>
      </trkpt>
      <trkpt lat="43.44386" lon="1.44035">
        <ele>248.4</ele>
        <time>2022-05-16T09:51:33Z</time>
      </trkpt>
      <trkpt lat="43.44388" lon="1.44026">
        <ele>248.1</ele>
        <time>2022-05-16T09:51:34Z</time>
      </trkpt>
      <trkpt lat="43.4439" lon="1.44017">
        <ele>247.8</ele>
        <time>2022-05-16T09:51:35Z</time>
      </trkpt>
      <trkpt lat="43.44393" lon="1.44009">
        <ele>247.5</ele>
        <time>2022-05-16T09:51:36Z</time>
      </trkpt>
      <trkpt lat="43.44396" lon="1.44">
        <ele>247.1</ele>
        <time>2022-05-16T09:51:37Z</time>
      </trkpt>
      <trkpt lat="43.44399" lon="1.43992">
        <ele>246.8</ele>
        <time>2022-05-16T09:51:38Z</time>
      </trkpt>
      <trkpt lat="43.44401" lon="1.43985">
        <ele>246.5</ele>
        <time>2022-05-16T09:51:39Z</time>
      </trkpt>
      <trkpt lat="43.44403" lon="1.43976">
        <ele>246.3</ele>
        <time>2022-05-16T09:51:40Z</time>
      </trkpt>
      <trkpt lat="43.44404" lon="1.43967">
        <ele>246</ele>
        <time>2022-05-16T09:51:41Z</time>
      </trkpt>
      <trkpt lat="43.44405" lon="1.43959">
        <ele>245.9</ele>
        <time>2022-05-16T09:51:42Z</time>
      </trkpt>
      <trkpt lat="43.44407" lon="1.43951">
        <ele>245.7</ele>
        <time>2022-05-16T09:51:43Z</time>
      </trkpt>
      <trkpt lat="43.44408" lon="1.43943">
        <ele>245.6</ele>
        <time>2022-05-16T09:51:44Z</time>
      </trkpt>
      <trkpt lat="43.4441" lon="1.43935">
        <ele>245.5</ele>
        <time>2022-05-16T09:51:45Z</time>
      </trkpt>
      <trkpt lat="43.4441" lon="1.43926">
        <ele>245.4</ele>
        <time>2022-05-16T09:51:46Z</time>
      </trkpt>
      <trkpt lat="43.44412" lon="1.43918">
        <ele>245.4</ele>
        <time>2022-05-16T09:51:47Z</time>
      </trkpt>
      <trkpt lat="43.44413" lon="1.4391">
        <ele>245.3</ele>
        <time>2022-05-16T09:51:48Z</time>
      </trkpt>
      <trkpt lat="43.44414" lon="1.43901">
        <ele>245.3</ele>
        <time>2022-05-16T09:51:49Z</time>
      </trkpt>
      <trkpt lat="43.44416" lon="1.43893">
        <ele>245.2</ele>
        <time>2022-05-16T09:51:50Z</time>
      </trkpt>
      <trkpt lat="43.44417" lon="1.43885">
        <ele>245.2</ele>
        <time>2022-05-16T09:51:51Z</time>
      </trkpt>
      <trkpt lat="43.44419" lon="1.43877">
        <ele>245.1</ele>
        <time>2022-05-16T09:51:52Z</time>
      </trkpt>
      <trkpt lat="43.4442" lon="1.43868">
        <ele>244.9</ele>
        <time>2022-05-16T09:51:53Z</time>
      </trkpt>
      <trkpt lat="43.44422" lon="1.4386">
        <ele>244.8</ele>
        <time>2022-05-16T09:51:54Z</time>
      </trkpt>
      <trkpt lat="43.44423" lon="1.43851">
        <ele>244.6</ele>
        <time>2022-05-16T09:51:55Z</time>
      </trkpt>
      <trkpt lat="43.44425" lon="1.43843">
        <ele>244.3</ele>
        <time>2022-05-16T09:51:56Z</time>
      </trkpt>
      <trkpt lat="43.44428" lon="1.43834">
        <ele>244.1</ele>
        <time>2022-05-16T09:51:57Z</time>
      </trkpt>
      <trkpt lat="43.4443" lon="1.43826">
        <ele>243.8</ele>
        <time>2022-05-16T09:51:58Z</time>
      </trkpt>
      <trkpt lat="43.44433" lon="1.43817">
        <ele>243.4</ele>
        <time>2022-05-16T09:51:59Z</time>
      </trkpt>
      <trkpt lat="43.44435" lon="1.43808">
        <ele>243</ele>
        <time>2022-05-16T09:52:00Z</time>
      </trkpt>
      <trkpt lat="43.44438" lon="1.43799">
        <ele>242.5</ele>
        <time>2022-05-16T09:52:01Z</time>
      </trkpt>
      <trkpt lat="43.44441" lon="1.4379">
        <ele>242</ele>
        <time>2022-05-16T09:52:02Z</time>
      </trkpt>
      <trkpt lat="43.44444" lon="1.4378">
        <ele>241.4</ele>
        <time>2022-05-16T09:52:03Z</time>
      </trkpt>
      <trkpt lat="43.44447" lon="1.4377">
        <ele>240.8</ele>
        <time>2022-05-16T09:52:04Z</time>
      </trkpt>
      <trkpt lat="43.44448" lon="1.43761">
        <ele>240.4</ele>
        <time>2022-05-16T09:52:05Z</time>
      </trkpt>
      <trkpt lat="43.44449" lon="1.43752">
        <ele>240</ele>
        <time>2022-05-16T09:52:06Z</time>
      </trkpt>
      <trkpt lat="43.4445" lon="1.43744">
        <ele>239.5</ele>
        <time>2022-05-16T09:52:07Z</time>
      </trkpt>
      <trkpt lat="43.44454" lon="1.43735">
        <ele>238.9</ele>
        <time>2022-05-16T09:52:08Z</time>
      </trkpt>
      <trkpt lat="43.44461" lon="1.43727">
        <ele>238.1</ele>
        <time>2022-05-16T09:52:09Z</time>
      </trkpt>
      <trkpt lat="43.44467" lon="1.43719">
        <ele>237.4</ele>
        <time>2022-05-16T09:52:10Z</time>
      </trkpt>
      <trkpt lat="43.44472" lon="1.43712">
        <ele>236.8</ele>
        <time>2022-05-16T09:52:11Z</time>
      </trkpt>
      <trkpt lat="43.44476" lon="1.43707">
        <ele>236.4</ele>
        <time>2022-05-16T09:52:12Z</time>
      </trkpt>
      <trkpt lat="43.44477" lon="1.43702">
        <ele>236.1</ele>
        <time>2022-05-16T09:52:13Z</time>
      </trkpt>
      <trkpt lat="43.4448" lon="1.43695">
        <ele>235.8</ele>
        <time>2022-05-16T09:52:14Z</time>
      </trkpt>
      <trkpt lat="43.44482" lon="1.43688">
        <ele>235.4</ele>
        <time>2022-05-16T09:52:15Z</time>
      </trkpt>
      <trkpt lat="43.44487" lon="1.43684">
        <ele>235.1</ele>
        <time>2022-05-16T09:52:16Z</time>
      </trkpt>
      <trkpt lat="43.44492" lon="1.43679">
        <ele>234.5</ele>
        <time>2022-05-16T09:52:17Z</time>
      </trkpt>
      <trkpt lat="43.44498" lon="1.43674">
        <ele>233.9</ele>
        <time>2022-05-16T09:52:18Z</time>
      </trkpt>
      <trkpt lat="43.44504" lon="1.43669">
        <ele>233</ele>
        <time>2022-05-16T09:52:19Z</time>
      </trkpt>
      <trkpt lat="43.4451" lon="1.43662">
        <ele>232.1</ele>
        <time>2022-05-16T09:52:20Z</time>
      </trkpt>
      <trkpt lat="43.44516" lon="1.43656">
        <ele>231.2</ele>
        <time>2022-05-16T09:52:21Z</time>
      </trkpt>
      <trkpt lat="43.4452" lon="1.43649">
        <ele>230.3</ele>
        <time>2022-05-16T09:52:22Z</time>
      </trkpt>
      <trkpt lat="43.44523" lon="1.43646">
        <ele>229.8</ele>
        <time>2022-05-16T09:52:23Z</time>
      </trkpt>
      <trkpt lat="43.44527" lon="1.43644">
        <ele>229.4</ele>
        <time>2022-05-16T09:52:24Z</time>
      </trkpt>
      <trkpt lat="43.4453" lon="1.43641">
        <ele>228.9</ele>
        <time>2022-05-16T09:52:25Z</time>
      </trkpt>
      <trkpt lat="43.44534" lon="1.43638">
        <ele>228.4</ele>
        <time>2022-05-16T09:52:26Z</time>
      </trkpt>
      <trkpt lat="43.44537" lon="1.43638">
        <ele>228</ele>
        <time>2022-05-16T09:52:27Z</time>
      </trkpt>
      <trkpt lat="43.44541" lon="1.43636">
        <ele>227.6</ele>
        <time>2022-05-16T09:52:28Z</time>
      </trkpt>
      <trkpt lat="43.44545" lon="1.43632">
        <ele>227</ele>
        <time>2022-05-16T09:52:29Z</time>
      </trkpt>
      <trkpt lat="43.4455" lon="1.43627">
        <ele>226.3</ele>
        <time>2022-05-16T09:52:30Z</time>
      </trkpt>
      <trkpt lat="43.44555" lon="1.43621">
        <ele>225.5</ele>
        <time>2022-05-16T09:52:31Z</time>
      </trkpt>
      <trkpt lat="43.44558" lon="1.43616">
        <ele>224.9</ele>
        <time>2022-05-16T09:52:32Z</time>
      </trkpt>
      <trkpt lat="43.4456" lon="1.43611">
        <ele>224.3</ele>
        <time>2022-05-16T09:52:33Z</time>
      </trkpt>
      <trkpt lat="43.44563" lon="1.43607">
        <ele>223.6</ele>
        <time>2022-05-16T09:52:34Z</time>
      </trkpt>
      <trkpt lat="43.44567" lon="1.43606">
        <ele>223.1</ele>
        <time>2022-05-16T09:52:35Z</time>
      </trkpt>
      <trkpt lat="43.44569" lon="1.4361">
        <ele>222.6</ele>
        <time>2022-05-16T09:52:36Z</time>
      </trkpt>
      <trkpt lat="43.4457" lon="1.43614">
        <ele>222.3</ele>
        <time>2022-05-16T09:52:37Z</time>
      </trkpt>
      <trkpt lat="43.4457" lon="1.43615">
        <ele>222.2</ele>
        <time>2022-05-16T09:52:38Z</time>
      </trkpt>
      <trkpt lat="43.44573" lon="1.43613">
        <ele>221.9</ele>
        <time>2022-05-16T09:52:39Z</time>
      </trkpt>
      <trkpt lat="43.44574" lon="1.43612">
        <ele>221.7</ele>
        <time>2022-05-16T09:52:40Z</time>
      </trkpt>
      <trkpt lat="43.44579" lon="1.43606">
        <ele>221.1</ele>
        <time>2022-05-16T09:52:41Z</time>
      </trkpt>
      <trkpt lat="43.44585" lon="1.436">
        <ele>220.3</ele>
        <time>2022-05-16T09:52:42Z</time>
      </trkpt>
      <trkpt lat="43.44591" lon="1.43598">
        <ele>219.4</ele>
        <time>2022-05-16T09:52:43Z</time>
      </trkpt>
      <trkpt lat="43.44597" lon="1.43592">
        <ele>218.1</ele>
        <time>2022-05-16T09:52:44Z</time>
      </trkpt>
      <trkpt lat="43.44604" lon="1.43585">
        <ele>216.4</ele>
        <time>2022-05-16T09:52:45Z</time>
      </trkpt>
      <trkpt lat="43.4461" lon="1.43578">
        <ele>214.8</ele>
        <time>2022-05-16T09:52:46Z</time>
      </trkpt>
      <trkpt lat="43.44618" lon="1.43573">
        <ele>213.2</ele>
        <time>2022-05-16T09:52:47Z</time>
      </trkpt>
      <trkpt lat="43.44626" lon="1.43565">
        <ele>211.7</ele>
        <time>2022-05-16T09:52:48Z</time>
      </trkpt>
      <trkpt lat="43.44634" lon="1.43557">
        <ele>210.1</ele>
        <time>2022-05-16T09:52:49Z</time>
      </trkpt>
      <trkpt lat="43.44639" lon="1.43552">
        <ele>209.1</ele>
        <time>2022-05-16T09:52:50Z</time>
      </trkpt>
      <trkpt lat="43.44642" lon="1.43548">
        <ele>208.5</ele>
        <time>2022-05-16T09:52:51Z</time>
      </trkpt>
      <trkpt lat="43.44648" lon="1.43542">
        <ele>207.6</ele>
        <time>2022-05-16T09:52:52Z</time>
      </trkpt>
      <trkpt lat="43.44655" lon="1.43537">
        <ele>206.8</ele>
        <time>2022-05-16T09:52:53Z</time>
      </trkpt>
      <trkpt lat="43.44663" lon="1.43533">
        <ele>205.4</ele>
        <time>2022-05-16T09:52:54Z</time>
      </trkpt>
      <trkpt lat="43.44671" lon="1.43528">
        <ele>204</ele>
        <time>2022-05-16T09:52:55Z</time>
      </trkpt>
      <trkpt lat="43.44679" lon="1.43521">
        <ele>202.1</ele>
        <time>2022-05-16T09:52:57Z</time>
      </trkpt>
      <trkpt lat="43.44686" lon="1.43515">
        <ele>200.5</ele>
        <time>2022-05-16T09:52:58Z</time>
      </trkpt>
      <trkpt lat="43.44692" lon="1.4351">
        <ele>199.2</ele>
        <time>2022-05-16T09:52:59Z</time>
      </trkpt>
      <trkpt lat="43.44699" lon="1.43504">
        <ele>197.8</ele>
        <time>2022-05-16T09:53:00Z</time>
      </trkpt>
      <trkpt lat="43.44706" lon="1.43498">
        <ele>196.4</ele>
        <time>2022-05-16T09:53:01Z</time>
      </trkpt>
      <trkpt lat="43.44711" lon="1.43492">
        <ele>195.3</ele>
        <time>2022-05-16T09:53:02Z</time>
      </trkpt>
      <trkpt lat="43.44718" lon="1.43488">
        <ele>194.3</ele>
        <time>2022-05-16T09:53:03Z</time>
      </trkpt>
      <trkpt lat="43.44724" lon="1.43485">
        <ele>193.4</ele>
        <time>2022-05-16T09:53:04Z</time>
      </trkpt>
      <trkpt lat="43.4473" lon="1.43485">
        <ele>192.6</ele>
        <time>2022-05-16T09:53:05Z</time>
      </trkpt>
      <trkpt lat="43.44737" lon="1.43485">
        <ele>191.8</ele>
        <time>2022-05-16T09:53:06Z</time>
      </trkpt>
      <trkpt lat="43.44743" lon="1.43487">
        <ele>190.8</ele>
        <time>2022-05-16T09:53:07Z</time>
      </trkpt>
      <trkpt lat="43.44747" lon="1.43487">
        <ele>190.1</ele>
        <time>2022-05-16T09:53:08Z</time>
      </trkpt>
      <trkpt lat="43.4475" lon="1.43491">
        <ele>189.5</ele>
        <time>2022-05-16T09:53:09Z</time>
      </trkpt>
      <trkpt lat="43.44752" lon="1.43496">
        <ele>188.9</ele>
        <time>2022-05-16T09:53:10Z</time>
      </trkpt>
      <trkpt lat="43.44754" lon="1.43499">
        <ele>188.3</ele>
        <time>2022-05-16T09:53:11Z</time>
      </trkpt>
      <trkpt lat="43.44755" lon="1.43502">
        <ele>187.8</ele>
        <time>2022-05-16T09:53:12Z</time>
      </trkpt>
      <trkpt lat="43.44755" lon="1.43507">
        <ele>187</ele>
        <time>2022-05-16T09:53:13Z</time>
      </trkpt>
      <trkpt lat="43.44755" lon="1.43509">
        <ele>186.8</ele>
        <time>2022-05-16T09:53:14Z</time>
      </trkpt>
      <trkpt lat="43.44756" lon="1.43514">
        <ele>186</ele>
        <time>2022-05-16T09:53:15Z</time>
      </trkpt>
      <trkpt lat="43.44758" lon="1.43518">
        <ele>185.3</ele>
        <time>2022-05-16T09:53:16Z</time>
      </trkpt>
      <trkpt lat="43.44758" lon="1.43521">
        <ele>184.7</ele>
        <time>2022-05-16T09:53:17Z</time>
      </trkpt>
      <trkpt lat="43.44759" lon="1.43526">
        <ele>183.9</ele>
        <time>2022-05-16T09:53:18Z</time>
      </trkpt>
      <trkpt lat="43.4476" lon="1.4353">
        <ele>183.2</ele>
        <time>2022-05-16T09:53:19Z</time>
      </trkpt>
      <trkpt lat="43.44761" lon="1.43534">
        <ele>182.7</ele>
        <time>2022-05-16T09:53:20Z</time>
      </trkpt>
      <trkpt lat="43.44763" lon="1.43535">
        <ele>182.3</ele>
        <time>2022-05-16T09:53:21Z</time>
      </trkpt>
      <trkpt lat="43.44763" lon="1.43537">
        <ele>182</ele>
        <time>2022-05-16T09:53:22Z</time>
      </trkpt>
      <trkpt lat="43.44763" lon="1.43539">
        <ele>181.7</ele>
        <time>2022-05-16T09:53:23Z</time>
      </trkpt>
      <trkpt lat="43.44764" lon="1.43541">
        <ele>181.5</ele>
        <time>2022-05-16T09:53:24Z</time>
      </trkpt>
      <trkpt lat="43.44766" lon="1.43539">
        <ele>181.2</ele>
        <time>2022-05-16T09:53:25Z</time>
      </trkpt>
      <trkpt lat="43.44766" lon="1.43537">
        <ele>181</ele>
        <time>2022-05-16T09:53:26Z</time>
      </trkpt>
      <trkpt lat="43.44766" lon="1.43535">
        <ele>180.7</ele>
        <time>2022-05-16T09:53:27Z</time>
      </trkpt>
      <trkpt lat="43.44768" lon="1.43532">
        <ele>180.4</ele>
        <time>2022-05-16T09:53:28Z</time>
      </trkpt>
      <trkpt lat="43.4477" lon="1.43527">
        <ele>178.3</ele>
        <time>2022-05-16T09:53:29Z</time>
      </trkpt>
      <trkpt lat="43.44771" lon="1.43522">
        <ele>177.2</ele>
        <time>2022-05-16T09:53:30Z</time>
      </trkpt>
      <trkpt lat="43.44772" lon="1.4352">
        <ele>176.9</ele>
        <time>2022-05-16T09:53:31Z</time>
      </trkpt>
      <trkpt lat="43.44773" lon="1.43514">
        <ele>175.6</ele>
        <time>2022-05-16T09:53:32Z</time>
      </trkpt>
      <trkpt lat="43.44774" lon="1.43509">
        <ele>174.4</ele>
        <time>2022-05-16T09:53:33Z</time>
      </trkpt>
      <trkpt lat="43.44774" lon="1.43503">
        <ele>173.4</ele>
        <time>2022-05-16T09:53:34Z</time>
      </trkpt>
      <trkpt lat="43.44774" lon="1.43498">
        <ele>172.6</ele>
        <time>2022-05-16T09:53:35Z</time>
      </trkpt>
      <trkpt lat="43.44775" lon="1.43494">
        <ele>171.9</ele>
        <time>2022-05-16T09:53:36Z</time>
      </trkpt>
      <trkpt lat="43.44778" lon="1.43491">
        <ele>171.2</ele>
        <time>2022-05-16T09:53:37Z</time>
      </trkpt>
      <trkpt lat="43.44779" lon="1.43487">
        <ele>170.6</ele>
        <time>2022-05-16T09:53:38Z</time>
      </trkpt>
      <trkpt lat="43.44779" lon="1.43483">
        <ele>170.1</ele>
        <time>2022-05-16T09:53:39Z</time>
      </trkpt>
      <trkpt lat="43.4478" lon="1.43482">
        <ele>170</ele>
        <time>2022-05-16T09:53:40Z</time>
      </trkpt>
      <trkpt lat="43.44781" lon="1.43477">
        <ele>169.5</ele>
        <time>2022-05-16T09:53:41Z</time>
      </trkpt>
      <trkpt lat="43.44781" lon="1.43476">
        <ele>169.4</ele>
        <time>2022-05-16T09:53:42Z</time>
      </trkpt>
      <trkpt lat="43.44783" lon="1.43471">
        <ele>168.9</ele>
        <time>2022-05-16T09:53:43Z</time>
      </trkpt>
      <trkpt lat="43.44784" lon="1.43465">
        <ele>168.5</ele>
        <time>2022-05-16T09:53:44Z</time>
      </trkpt>
      <trkpt lat="43.44783" lon="1.43463">
        <ele>168.4</ele>
        <time>2022-05-16T09:53:45Z</time>
      </trkpt>
      <trkpt lat="43.44783" lon="1.43457">
        <ele>168.1</ele>
        <time>2022-05-16T09:53:46Z</time>
      </trkpt>
      <trkpt lat="43.44783" lon="1.43454">
        <ele>167.9</ele>
        <time>2022-05-16T09:53:47Z</time>
      </trkpt>
      <trkpt lat="43.44783" lon="1.43453">
        <ele>167.8</ele>
        <time>2022-05-16T09:53:48Z</time>
      </trkpt>
      <trkpt lat="43.44781" lon="1.43451">
        <ele>167.7</ele>
        <time>2022-05-16T09:53:49Z</time>
      </trkpt>
      <trkpt lat="43.44783" lon="1.43446">
        <ele>167.4</ele>
        <time>2022-05-16T09:53:50Z</time>
      </trkpt>
      <trkpt lat="43.44782" lon="1.43442">
        <ele>167.3</ele>
        <time>2022-05-16T09:53:51Z</time>
      </trkpt>
      <trkpt lat="43.44782" lon="1.43437">
        <ele>167</ele>
        <time>2022-05-16T09:53:52Z</time>
      </trkpt>
      <trkpt lat="43.44782" lon="1.43432">
        <ele>166.7</ele>
        <time>2022-05-16T09:53:53Z</time>
      </trkpt>
      <trkpt lat="43.4478" lon="1.43428">
        <ele>166.3</ele>
        <time>2022-05-16T09:53:54Z</time>
      </trkpt>
      <trkpt lat="43.44778" lon="1.43423">
        <ele>166</ele>
        <time>2022-05-16T09:53:55Z</time>
      </trkpt>
      <trkpt lat="43.44778" lon="1.43416">
        <ele>165.6</ele>
        <time>2022-05-16T09:53:56Z</time>
      </trkpt>
      <trkpt lat="43.44778" lon="1.43408">
        <ele>165.1</ele>
        <time>2022-05-16T09:53:57Z</time>
      </trkpt>
      <trkpt lat="43.44776" lon="1.43399">
        <ele>164.6</ele>
        <time>2022-05-16T09:53:58Z</time>
      </trkpt>
      <trkpt lat="43.44775" lon="1.43391">
        <ele>164.1</ele>
        <time>2022-05-16T09:53:59Z</time>
      </trkpt>
      <trkpt lat="43.44774" lon="1.43382">
        <ele>163.7</ele>
        <time>2022-05-16T09:54:00Z</time>
      </trkpt>
      <trkpt lat="43.44773" lon="1.43373">
        <ele>163.4</ele>
        <time>2022-05-16T09:54:01Z</time>
      </trkpt>
      <trkpt lat="43.44772" lon="1.43364">
        <ele>163.1</ele>
        <time>2022-05-16T09:54:02Z</time>
      </trkpt>
      <trkpt lat="43.4477" lon="1.43354">
        <ele>162.9</ele>
        <time>2022-05-16T09:54:03Z</time>
      </trkpt>
      <trkpt lat="43.44768" lon="1.43346">
        <ele>162.7</ele>
        <time>2022-05-16T09:54:04Z</time>
      </trkpt>
      <trkpt lat="43.44767" lon="1.43337">
        <ele>162.7</ele>
        <time>2022-05-16T09:54:05Z</time>
      </trkpt>
      <trkpt lat="43.44767" lon="1.43331">
        <ele>162.6</ele>
        <time>2022-05-16T09:54:06Z</time>
      </trkpt>
      <trkpt lat="43.44766" lon="1.43322">
        <ele>162.6</ele>
        <time>2022-05-16T09:54:07Z</time>
      </trkpt>
      <trkpt lat="43.44765" lon="1.43315">
        <ele>162.6</ele>
        <time>2022-05-16T09:54:08Z</time>
      </trkpt>
      <trkpt lat="43.44764" lon="1.43308">
        <ele>162.5</ele>
        <time>2022-05-16T09:54:09Z</time>
      </trkpt>
      <trkpt lat="43.44763" lon="1.43301">
        <ele>162.6</ele>
        <time>2022-05-16T09:54:10Z</time>
      </trkpt>
      <trkpt lat="43.44761" lon="1.43293">
        <ele>162.6</ele>
        <time>2022-05-16T09:54:11Z</time>
      </trkpt>
      <trkpt lat="43.4476" lon="1.43287">
        <ele>162.6</ele>
        <time>2022-05-16T09:54:12Z</time>
      </trkpt>
      <trkpt lat="43.44759" lon="1.4328">
        <ele>162.6</ele>
        <time>2022-05-16T09:54:13Z</time>
      </trkpt>
      <trkpt lat="43.44758" lon="1.43273">
        <ele>162.6</ele>
        <time>2022-05-16T09:54:14Z</time>
      </trkpt>
      <trkpt lat="43.44757" lon="1.43267">
        <ele>162.6</ele>
        <time>2022-05-16T09:54:15Z</time>
      </trkpt>
      <trkpt lat="43.44756" lon="1.4326">
        <ele>162.6</ele>
        <time>2022-05-16T09:54:16Z</time>
      </trkpt>
      <trkpt lat="43.44755" lon="1.43253">
        <ele>162.6</ele>
        <time>2022-05-16T09:54:17Z</time>
      </trkpt>
      <trkpt lat="43.44754" lon="1.43245">
        <ele>162.6</ele>
        <time>2022-05-16T09:54:18Z</time>
      </trkpt>
      <trkpt lat="43.44753" lon="1.43237">
        <ele>162.6</ele>
        <time>2022-05-16T09:54:19Z</time>
      </trkpt>
      <trkpt lat="43.44752" lon="1.43228">
        <ele>162.6</ele>
        <time>2022-05-16T09:54:20Z</time>
      </trkpt>
      <trkpt lat="43.44751" lon="1.4322">
        <ele>162.6</ele>
        <time>2022-05-16T09:54:21Z</time>
      </trkpt>
      <trkpt lat="43.4475" lon="1.43211">
        <ele>162.7</ele>
        <time>2022-05-16T09:54:22Z</time>
      </trkpt>
      <trkpt lat="43.44749" lon="1.43202">
        <ele>162.7</ele>
        <time>2022-05-16T09:54:23Z</time>
      </trkpt>
      <trkpt lat="43.44747" lon="1.43194">
        <ele>162.7</ele>
        <time>2022-05-16T09:54:24Z</time>
      </trkpt>
      <trkpt lat="43.44746" lon="1.43185">
        <ele>162.7</ele>
        <time>2022-05-16T09:54:25Z</time>
      </trkpt>
      <trkpt lat="43.44745" lon="1.43178">
        <ele>162.7</ele>
        <time>2022-05-16T09:54:26Z</time>
      </trkpt>
      <trkpt lat="43.44744" lon="1.4317">
        <ele>162.8</ele>
        <time>2022-05-16T09:54:27Z</time>
      </trkpt>
      <trkpt lat="43.44743" lon="1.43161">
        <ele>162.8</ele>
        <time>2022-05-16T09:54:28Z</time>
      </trkpt>
      <trkpt lat="43.44742" lon="1.43152">
        <ele>162.9</ele>
        <time>2022-05-16T09:54:29Z</time>
      </trkpt>
      <trkpt lat="43.4474" lon="1.43144">
        <ele>162.9</ele>
        <time>2022-05-16T09:54:30Z</time>
      </trkpt>
      <trkpt lat="43.44739" lon="1.43135">
        <ele>162.9</ele>
        <time>2022-05-16T09:54:31Z</time>
      </trkpt>
      <trkpt lat="43.44737" lon="1.43127">
        <ele>162.9</ele>
        <time>2022-05-16T09:54:32Z</time>
      </trkpt>
      <trkpt lat="43.44736" lon="1.43119">
        <ele>162.9</ele>
        <time>2022-05-16T09:54:33Z</time>
      </trkpt>
      <trkpt lat="43.44735" lon="1.43111">
        <ele>162.9</ele>
        <time>2022-05-16T09:54:34Z</time>
      </trkpt>
      <trkpt lat="43.44734" lon="1.43103">
        <ele>162.9</ele>
        <time>2022-05-16T09:54:35Z</time>
      </trkpt>
      <trkpt lat="43.44733" lon="1.43095">
        <ele>162.9</ele>
        <time>2022-05-16T09:54:36Z</time>
      </trkpt>
      <trkpt lat="43.44733" lon="1.43087">
        <ele>162.9</ele>
        <time>2022-05-16T09:54:37Z</time>
      </trkpt>
      <trkpt lat="43.44732" lon="1.43079">
        <ele>163</ele>
        <time>2022-05-16T09:54:38Z</time>
      </trkpt>
      <trkpt lat="43.4473" lon="1.43071">
        <ele>163</ele>
        <time>2022-05-16T09:54:39Z</time>
      </trkpt>
      <trkpt lat="43.44729" lon="1.43063">
        <ele>163</ele>
        <time>2022-05-16T09:54:40Z</time>
      </trkpt>
      <trkpt lat="43.44728" lon="1.43055">
        <ele>163</ele>
        <time>2022-05-16T09:54:41Z</time>
      </trkpt>
      <trkpt lat="43.44727" lon="1.43047">
        <ele>163</ele>
        <time>2022-05-16T09:54:42Z</time>
      </trkpt>
      <trkpt lat="43.44725" lon="1.43039">
        <ele>163</ele>
        <time>2022-05-16T09:54:43Z</time>
      </trkpt>
      <trkpt lat="43.44724" lon="1.4303">
        <ele>163</ele>
        <time>2022-05-16T09:54:44Z</time>
      </trkpt>
      <trkpt lat="43.44723" lon="1.43023">
        <ele>163.1</ele>
        <time>2022-05-16T09:54:45Z</time>
      </trkpt>
      <trkpt lat="43.44722" lon="1.43014">
        <ele>163.1</ele>
        <time>2022-05-16T09:54:46Z</time>
      </trkpt>
      <trkpt lat="43.4472" lon="1.43006">
        <ele>163.1</ele>
        <time>2022-05-16T09:54:47Z</time>
      </trkpt>
      <trkpt lat="43.44719" lon="1.42998">
        <ele>163.1</ele>
        <time>2022-05-16T09:54:48Z</time>
      </trkpt>
      <trkpt lat="43.44717" lon="1.4299">
        <ele>163.1</ele>
        <time>2022-05-16T09:54:49Z</time>
      </trkpt>
      <trkpt lat="43.44716" lon="1.42982">
        <ele>163.2</ele>
        <time>2022-05-16T09:54:50Z</time>
      </trkpt>
      <trkpt lat="43.44714" lon="1.42974">
        <ele>163.3</ele>
        <time>2022-05-16T09:54:51Z</time>
      </trkpt>
      <trkpt lat="43.44714" lon="1.42966">
        <ele>163.3</ele>
        <time>2022-05-16T09:54:52Z</time>
      </trkpt>
      <trkpt lat="43.44713" lon="1.42958">
        <ele>163.4</ele>
        <time>2022-05-16T09:54:53Z</time>
      </trkpt>
      <trkpt lat="43.44711" lon="1.4295">
        <ele>163.4</ele>
        <time>2022-05-16T09:54:54Z</time>
      </trkpt>
      <trkpt lat="43.44711" lon="1.42942">
        <ele>163.4</ele>
        <time>2022-05-16T09:54:55Z</time>
      </trkpt>
      <trkpt lat="43.44709" lon="1.42934">
        <ele>163.4</ele>
        <time>2022-05-16T09:54:56Z</time>
      </trkpt>
      <trkpt lat="43.44709" lon="1.42926">
        <ele>163.4</ele>
        <time>2022-05-16T09:54:57Z</time>
      </trkpt>
      <trkpt lat="43.44708" lon="1.42917">
        <ele>163.4</ele>
        <time>2022-05-16T09:54:58Z</time>
      </trkpt>
      <trkpt lat="43.44707" lon="1.4291">
        <ele>163.4</ele>
        <time>2022-05-16T09:54:59Z</time>
      </trkpt>
      <trkpt lat="43.44706" lon="1.42901">
        <ele>163.4</ele>
        <time>2022-05-16T09:55:00Z</time>
      </trkpt>
      <trkpt lat="43.44704" lon="1.42893">
        <ele>163.4</ele>
        <time>2022-05-16T09:55:01Z</time>
      </trkpt>
      <trkpt lat="43.44703" lon="1.42885">
        <ele>163.4</ele>
        <time>2022-05-16T09:55:03Z</time>
      </trkpt>
      <trkpt lat="43.44702" lon="1.42877">
        <ele>163.4</ele>
        <time>2022-05-16T09:55:04Z</time>
      </trkpt>
      <trkpt lat="43.44701" lon="1.42869">
        <ele>163.4</ele>
        <time>2022-05-16T09:55:05Z</time>
      </trkpt>
      <trkpt lat="43.44699" lon="1.42861">
        <ele>163.4</ele>
        <time>2022-05-16T09:55:06Z</time>
      </trkpt>
      <trkpt lat="43.44699" lon="1.42853">
        <ele>163.4</ele>
        <time>2022-05-16T09:55:07Z</time>
      </trkpt>
      <trkpt lat="43.44698" lon="1.42846">
        <ele>163.4</ele>
        <time>2022-05-16T09:55:08Z</time>
      </trkpt>
      <trkpt lat="43.44697" lon="1.42838">
        <ele>163.4</ele>
        <time>2022-05-16T09:55:09Z</time>
      </trkpt>
      <trkpt lat="43.44694" lon="1.42832">
        <ele>163.4</ele>
        <time>2022-05-16T09:55:10Z</time>
      </trkpt>
      <trkpt lat="43.44691" lon="1.42825">
        <ele>163.4</ele>
        <time>2022-05-16T09:55:11Z</time>
      </trkpt>
      <trkpt lat="43.44688" lon="1.42819">
        <ele>163.4</ele>
        <time>2022-05-16T09:55:12Z</time>
      </trkpt>
      <trkpt lat="43.44686" lon="1.42813">
        <ele>163.4</ele>
        <time>2022-05-16T09:55:13Z</time>
      </trkpt>
      <trkpt lat="43.44685" lon="1.42806">
        <ele>163.4</ele>
        <time>2022-05-16T09:55:14Z</time>
      </trkpt>
      <trkpt lat="43.44684" lon="1.42801">
        <ele>163.4</ele>
        <time>2022-05-16T09:55:15Z</time>
      </trkpt>
      <trkpt lat="43.44683" lon="1.42795">
        <ele>163.4</ele>
        <time>2022-05-16T09:55:16Z</time>
      </trkpt>
      <trkpt lat="43.44684" lon="1.42789">
        <ele>163.3</ele>
        <time>2022-05-16T09:55:17Z</time>
      </trkpt>
      <trkpt lat="43.44686" lon="1.42784">
        <ele>163.3</ele>
        <time>2022-05-16T09:55:18Z</time>
      </trkpt>
      <trkpt lat="43.4469" lon="1.42778">
        <ele>163.2</ele>
        <time>2022-05-16T09:55:19Z</time>
      </trkpt>
      <trkpt lat="43.44695" lon="1.42775">
        <ele>163.2</ele>
        <time>2022-05-16T09:55:20Z</time>
      </trkpt>
      <trkpt lat="43.44699" lon="1.42771">
        <ele>163.1</ele>
        <time>2022-05-16T09:55:21Z</time>
      </trkpt>
      <trkpt lat="43.44703" lon="1.42767">
        <ele>163.1</ele>
        <time>2022-05-16T09:55:22Z</time>
      </trkpt>
      <trkpt lat="43.44707" lon="1.42763">
        <ele>163</ele>
        <time>2022-05-16T09:55:23Z</time>
      </trkpt>
      <trkpt lat="43.44711" lon="1.42759">
        <ele>163.1</ele>
        <time>2022-05-16T09:55:24Z</time>
      </trkpt>
      <trkpt lat="43.44715" lon="1.42755">
        <ele>163.1</ele>
        <time>2022-05-16T09:55:25Z</time>
      </trkpt>
      <trkpt lat="43.44718" lon="1.42749">
        <ele>163.1</ele>
        <time>2022-05-16T09:55:26Z</time>
      </trkpt>
      <trkpt lat="43.44726" lon="1.42739">
        <ele>163.2</ele>
        <time>2022-05-16T09:55:27Z</time>
      </trkpt>
      <trkpt lat="43.4473" lon="1.42734">
        <ele>163.2</ele>
        <time>2022-05-16T09:55:28Z</time>
      </trkpt>
      <trkpt lat="43.44734" lon="1.4273">
        <ele>163.3</ele>
        <time>2022-05-16T09:55:29Z</time>
      </trkpt>
      <trkpt lat="43.44737" lon="1.42725">
        <ele>163.3</ele>
        <time>2022-05-16T09:55:30Z</time>
      </trkpt>
      <trkpt lat="43.4474" lon="1.4272">
        <ele>163.3</ele>
        <time>2022-05-16T09:55:31Z</time>
      </trkpt>
      <trkpt lat="43.44744" lon="1.42714">
        <ele>163.3</ele>
        <time>2022-05-16T09:55:32Z</time>
      </trkpt>
      <trkpt lat="43.44748" lon="1.42709">
        <ele>163.4</ele>
        <time>2022-05-16T09:55:33Z</time>
      </trkpt>
      <trkpt lat="43.44751" lon="1.42703">
        <ele>163.4</ele>
        <time>2022-05-16T09:55:34Z</time>
      </trkpt>
      <trkpt lat="43.44754" lon="1.42698">
        <ele>163.3</ele>
        <time>2022-05-16T09:55:35Z</time>
      </trkpt>
      <trkpt lat="43.44758" lon="1.42692">
        <ele>163.3</ele>
        <time>2022-05-16T09:55:36Z</time>
      </trkpt>
      <trkpt lat="43.44762" lon="1.42687">
        <ele>163.3</ele>
        <time>2022-05-16T09:55:37Z</time>
      </trkpt>
      <trkpt lat="43.44767" lon="1.42683">
        <ele>163.3</ele>
        <time>2022-05-16T09:55:38Z</time>
      </trkpt>
      <trkpt lat="43.44771" lon="1.42678">
        <ele>163.2</ele>
        <time>2022-05-16T09:55:39Z</time>
      </trkpt>
      <trkpt lat="43.44776" lon="1.42675">
        <ele>163.2</ele>
        <time>2022-05-16T09:55:40Z</time>
      </trkpt>
      <trkpt lat="43.44781" lon="1.42671">
        <ele>163.1</ele>
        <time>2022-05-16T09:55:41Z</time>
      </trkpt>
      <trkpt lat="43.44785" lon="1.42666">
        <ele>163.1</ele>
        <time>2022-05-16T09:55:42Z</time>
      </trkpt>
      <trkpt lat="43.4479" lon="1.42663">
        <ele>163</ele>
        <time>2022-05-16T09:55:43Z</time>
      </trkpt>
      <trkpt lat="43.44795" lon="1.42659">
        <ele>162.9</ele>
        <time>2022-05-16T09:55:44Z</time>
      </trkpt>
      <trkpt lat="43.44801" lon="1.42657">
        <ele>162.8</ele>
        <time>2022-05-16T09:55:45Z</time>
      </trkpt>
      <trkpt lat="43.44806" lon="1.42655">
        <ele>162.7</ele>
        <time>2022-05-16T09:55:46Z</time>
      </trkpt>
      <trkpt lat="43.44812" lon="1.42655">
        <ele>162.6</ele>
        <time>2022-05-16T09:55:47Z</time>
      </trkpt>
      <trkpt lat="43.44817" lon="1.42654">
        <ele>162.6</ele>
        <time>2022-05-16T09:55:48Z</time>
      </trkpt>
      <trkpt lat="43.44822" lon="1.42652">
        <ele>162.6</ele>
        <time>2022-05-16T09:55:49Z</time>
      </trkpt>
      <trkpt lat="43.44828" lon="1.42653">
        <ele>162.5</ele>
        <time>2022-05-16T09:55:50Z</time>
      </trkpt>
      <trkpt lat="43.44833" lon="1.42653">
        <ele>162.5</ele>
        <time>2022-05-16T09:55:51Z</time>
      </trkpt>
      <trkpt lat="43.44839" lon="1.42652">
        <ele>162.5</ele>
        <time>2022-05-16T09:55:52Z</time>
      </trkpt>
      <trkpt lat="43.44845" lon="1.42652">
        <ele>162.5</ele>
        <time>2022-05-16T09:55:53Z</time>
      </trkpt>
      <trkpt lat="43.44851" lon="1.42652">
        <ele>162.5</ele>
        <time>2022-05-16T09:55:54Z</time>
      </trkpt>
      <trkpt lat="43.44856" lon="1.42651">
        <ele>162.5</ele>
        <time>2022-05-16T09:55:55Z</time>
      </trkpt>
      <trkpt lat="43.44861" lon="1.42651">
        <ele>162.5</ele>
        <time>2022-05-16T09:55:56Z</time>
      </trkpt>
      <trkpt lat="43.44867" lon="1.42651">
        <ele>162.5</ele>
        <time>2022-05-16T09:55:57Z</time>
      </trkpt>
      <trkpt lat="43.44872" lon="1.4265">
        <ele>162.5</ele>
        <time>2022-05-16T09:55:58Z</time>
      </trkpt>
      <trkpt lat="43.44878" lon="1.4265">
        <ele>162.5</ele>
        <time>2022-05-16T09:55:59Z</time>
      </trkpt>
      <trkpt lat="43.44884" lon="1.42649">
        <ele>162.4</ele>
        <time>2022-05-16T09:56:00Z</time>
      </trkpt>
      <trkpt lat="43.4489" lon="1.42649">
        <ele>162.4</ele>
        <time>2022-05-16T09:56:01Z</time>
      </trkpt>
      <trkpt lat="43.44896" lon="1.42649">
        <ele>162.3</ele>
        <time>2022-05-16T09:56:02Z</time>
      </trkpt>
      <trkpt lat="43.44902" lon="1.4265">
        <ele>162.3</ele>
        <time>2022-05-16T09:56:03Z</time>
      </trkpt>
      <trkpt lat="43.44908" lon="1.4265">
        <ele>162.3</ele>
        <time>2022-05-16T09:56:04Z</time>
      </trkpt>
      <trkpt lat="43.44914" lon="1.42651">
        <ele>162.2</ele>
        <time>2022-05-16T09:56:05Z</time>
      </trkpt>
      <trkpt lat="43.4492" lon="1.42652">
        <ele>162.2</ele>
        <time>2022-05-16T09:56:06Z</time>
      </trkpt>
      <trkpt lat="43.44926" lon="1.42654">
        <ele>162.2</ele>
        <time>2022-05-16T09:56:07Z</time>
      </trkpt>
      <trkpt lat="43.44931" lon="1.42655">
        <ele>162.2</ele>
        <time>2022-05-16T09:56:08Z</time>
      </trkpt>
      <trkpt lat="43.44937" lon="1.42657">
        <ele>162.1</ele>
        <time>2022-05-16T09:56:09Z</time>
      </trkpt>
      <trkpt lat="43.44943" lon="1.42659">
        <ele>162.1</ele>
        <time>2022-05-16T09:56:10Z</time>
      </trkpt>
      <trkpt lat="43.44949" lon="1.4266">
        <ele>162.1</ele>
        <time>2022-05-16T09:56:11Z</time>
      </trkpt>
      <trkpt lat="43.44955" lon="1.42662">
        <ele>162</ele>
        <time>2022-05-16T09:56:12Z</time>
      </trkpt>
      <trkpt lat="43.44961" lon="1.42664">
        <ele>162</ele>
        <time>2022-05-16T09:56:13Z</time>
      </trkpt>
      <trkpt lat="43.44966" lon="1.42666">
        <ele>162</ele>
        <time>2022-05-16T09:56:14Z</time>
      </trkpt>
      <trkpt lat="43.44971" lon="1.42668">
        <ele>162</ele>
        <time>2022-05-16T09:56:15Z</time>
      </trkpt>
      <trkpt lat="43.44976" lon="1.4267">
        <ele>162</ele>
        <time>2022-05-16T09:56:16Z</time>
      </trkpt>
      <trkpt lat="43.44982" lon="1.42672">
        <ele>162</ele>
        <time>2022-05-16T09:56:17Z</time>
      </trkpt>
      <trkpt lat="43.44987" lon="1.42674">
        <ele>162</ele>
        <time>2022-05-16T09:56:18Z</time>
      </trkpt>
      <trkpt lat="43.44993" lon="1.42677">
        <ele>162</ele>
        <time>2022-05-16T09:56:19Z</time>
      </trkpt>
      <trkpt lat="43.44999" lon="1.42679">
        <ele>162</ele>
        <time>2022-05-16T09:56:20Z</time>
      </trkpt>
      <trkpt lat="43.45004" lon="1.42681">
        <ele>162</ele>
        <time>2022-05-16T09:56:21Z</time>
      </trkpt>
      <trkpt lat="43.45009" lon="1.42684">
        <ele>162</ele>
        <time>2022-05-16T09:56:22Z</time>
      </trkpt>
      <trkpt lat="43.45014" lon="1.42688">
        <ele>162.1</ele>
        <time>2022-05-16T09:56:23Z</time>
      </trkpt>
      <trkpt lat="43.45019" lon="1.42694">
        <ele>162.1</ele>
        <time>2022-05-16T09:56:24Z</time>
      </trkpt>
      <trkpt lat="43.45022" lon="1.427">
        <ele>162.1</ele>
        <time>2022-05-16T09:56:25Z</time>
      </trkpt>
      <trkpt lat="43.45026" lon="1.42705">
        <ele>162.2</ele>
        <time>2022-05-16T09:56:26Z</time>
      </trkpt>
      <trkpt lat="43.4503" lon="1.42711">
        <ele>162.2</ele>
        <time>2022-05-16T09:56:27Z</time>
      </trkpt>
      <trkpt lat="43.45035" lon="1.42716">
        <ele>162.3</ele>
        <time>2022-05-16T09:56:28Z</time>
      </trkpt>
      <trkpt lat="43.45041" lon="1.4272">
        <ele>162.3</ele>
        <time>2022-05-16T09:56:29Z</time>
      </trkpt>
      <trkpt lat="43.45046" lon="1.42723">
        <ele>162.3</ele>
        <time>2022-05-16T09:56:30Z</time>
      </trkpt>
      <trkpt lat="43.45051" lon="1.42725">
        <ele>162.3</ele>
        <time>2022-05-16T09:56:31Z</time>
      </trkpt>
      <trkpt lat="43.45055" lon="1.42729">
        <ele>162.3</ele>
        <time>2022-05-16T09:56:32Z</time>
      </trkpt>
      <trkpt lat="43.4506" lon="1.42733">
        <ele>162.3</ele>
        <time>2022-05-16T09:56:33Z</time>
      </trkpt>
      <trkpt lat="43.45065" lon="1.42736">
        <ele>162.3</ele>
        <time>2022-05-16T09:56:34Z</time>
      </trkpt>
      <trkpt lat="43.45069" lon="1.4274">
        <ele>162.3</ele>
        <time>2022-05-16T09:56:35Z</time>
      </trkpt>
      <trkpt lat="43.45072" lon="1.42746">
        <ele>162.3</ele>
        <time>2022-05-16T09:56:36Z</time>
      </trkpt>
      <trkpt lat="43.45076" lon="1.42752">
        <ele>162.3</ele>
        <time>2022-05-16T09:56:37Z</time>
      </trkpt>
      <trkpt lat="43.45079" lon="1.42757">
        <ele>162.3</ele>
        <time>2022-05-16T09:56:38Z</time>
      </trkpt>
      <trkpt lat="43.45081" lon="1.42762">
        <ele>162.3</ele>
        <time>2022-05-16T09:56:39Z</time>
      </trkpt>
      <trkpt lat="43.4508" lon="1.42763">
        <ele>162.3</ele>
        <time>2022-05-16T09:56:40Z</time>
      </trkpt>
      <trkpt lat="43.45078" lon="1.42766">
        <ele>162.3</ele>
        <time>2022-05-16T09:56:41Z</time>
      </trkpt>
      <trkpt lat="43.45074" lon="1.4277">
        <ele>162.3</ele>
        <time>2022-05-16T09:56:42Z</time>
      </trkpt>
      <trkpt lat="43.45069" lon="1.42773">
        <ele>162.3</ele>
        <time>2022-05-16T09:56:43Z</time>
      </trkpt>
      <trkpt lat="43.45068" lon="1.42781">
        <ele>162.2</ele>
        <time>2022-05-16T09:56:44Z</time>
      </trkpt>
      <trkpt lat="43.45067" lon="1.42788">
        <ele>162.2</ele>
        <time>2022-05-16T09:56:45Z</time>
      </trkpt>
      <trkpt lat="43.45066" lon="1.42793">
        <ele>162.2</ele>
        <time>2022-05-16T09:56:46Z</time>
      </trkpt>
      <trkpt lat="43.45064" lon="1.42798">
        <ele>162.2</ele>
        <time>2022-05-16T09:56:47Z</time>
      </trkpt>
      <trkpt lat="43.45062" lon="1.42801">
        <ele>162.1</ele>
        <time>2022-05-16T09:56:48Z</time>
      </trkpt>
      <trkpt lat="43.45058" lon="1.42804">
        <ele>162.1</ele>
        <time>2022-05-16T09:56:49Z</time>
      </trkpt>
      <trkpt lat="43.45057" lon="1.42812">
        <ele>162</ele>
        <time>2022-05-16T09:56:50Z</time>
      </trkpt>
      <trkpt lat="43.45057" lon="1.42819">
        <ele>161.9</ele>
        <time>2022-05-16T09:56:51Z</time>
      </trkpt>
      <trkpt lat="43.45057" lon="1.42825">
        <ele>161.9</ele>
        <time>2022-05-16T09:56:52Z</time>
      </trkpt>
      <trkpt lat="43.45059" lon="1.42832">
        <ele>161.8</ele>
        <time>2022-05-16T09:56:53Z</time>
      </trkpt>
      <trkpt lat="43.45059" lon="1.42837">
        <ele>161.8</ele>
        <time>2022-05-16T09:56:54Z</time>
      </trkpt>
      <trkpt lat="43.45059" lon="1.42844">
        <ele>161.7</ele>
        <time>2022-05-16T09:56:55Z</time>
      </trkpt>
      <trkpt lat="43.45058" lon="1.4285">
        <ele>161.7</ele>
        <time>2022-05-16T09:56:56Z</time>
      </trkpt>
      <trkpt lat="43.45058" lon="1.42857">
        <ele>161.7</ele>
        <time>2022-05-16T09:56:57Z</time>
      </trkpt>
      <trkpt lat="43.45059" lon="1.42863">
        <ele>161.6</ele>
        <time>2022-05-16T09:56:58Z</time>
      </trkpt>
      <trkpt lat="43.45061" lon="1.42869">
        <ele>161.6</ele>
        <time>2022-05-16T09:56:59Z</time>
      </trkpt>
      <trkpt lat="43.45063" lon="1.42875">
        <ele>161.6</ele>
        <time>2022-05-16T09:57:00Z</time>
      </trkpt>
      <trkpt lat="43.45063" lon="1.42882">
        <ele>161.6</ele>
        <time>2022-05-16T09:57:01Z</time>
      </trkpt>
      <trkpt lat="43.45063" lon="1.42889">
        <ele>161.6</ele>
        <time>2022-05-16T09:57:02Z</time>
      </trkpt>
      <trkpt lat="43.45065" lon="1.42895">
        <ele>161.6</ele>
        <time>2022-05-16T09:57:03Z</time>
      </trkpt>
      <trkpt lat="43.45065" lon="1.42901">
        <ele>161.6</ele>
        <time>2022-05-16T09:57:04Z</time>
      </trkpt>
      <trkpt lat="43.45065" lon="1.42906">
        <ele>161.5</ele>
        <time>2022-05-16T09:57:05Z</time>
      </trkpt>
      <trkpt lat="43.45067" lon="1.42912">
        <ele>161.5</ele>
        <time>2022-05-16T09:57:06Z</time>
      </trkpt>
      <trkpt lat="43.45068" lon="1.42921">
        <ele>161.5</ele>
        <time>2022-05-16T09:57:07Z</time>
      </trkpt>
      <trkpt lat="43.45067" lon="1.42929">
        <ele>161.5</ele>
        <time>2022-05-16T09:57:09Z</time>
      </trkpt>
      <trkpt lat="43.45068" lon="1.42936">
        <ele>161.5</ele>
        <time>2022-05-16T09:57:10Z</time>
      </trkpt>
      <trkpt lat="43.45071" lon="1.42943">
        <ele>161.5</ele>
        <time>2022-05-16T09:57:11Z</time>
      </trkpt>
      <trkpt lat="43.45072" lon="1.42951">
        <ele>161.5</ele>
        <time>2022-05-16T09:57:12Z</time>
      </trkpt>
      <trkpt lat="43.45074" lon="1.42959">
        <ele>161.5</ele>
        <time>2022-05-16T09:57:13Z</time>
      </trkpt>
      <trkpt lat="43.45075" lon="1.42966">
        <ele>161.5</ele>
        <time>2022-05-16T09:57:14Z</time>
      </trkpt>
      <trkpt lat="43.45076" lon="1.42973">
        <ele>161.5</ele>
        <time>2022-05-16T09:57:15Z</time>
      </trkpt>
      <trkpt lat="43.45078" lon="1.42981">
        <ele>161.5</ele>
        <time>2022-05-16T09:57:16Z</time>
      </trkpt>
      <trkpt lat="43.4508" lon="1.42987">
        <ele>161.5</ele>
        <time>2022-05-16T09:57:17Z</time>
      </trkpt>
      <trkpt lat="43.45083" lon="1.42994">
        <ele>161.5</ele>
        <time>2022-05-16T09:57:18Z</time>
      </trkpt>
      <trkpt lat="43.45086" lon="1.43">
        <ele>161.5</ele>
        <time>2022-05-16T09:57:19Z</time>
      </trkpt>
      <trkpt lat="43.45085" lon="1.43007">
        <ele>161.5</ele>
        <time>2022-05-16T09:57:20Z</time>
      </trkpt>
      <trkpt lat="43.45085" lon="1.43014">
        <ele>161.4</ele>
        <time>2022-05-16T09:57:21Z</time>
      </trkpt>
      <trkpt lat="43.45089" lon="1.4302">
        <ele>161.4</ele>
        <time>2022-05-16T09:57:22Z</time>
      </trkpt>
      <trkpt lat="43.45094" lon="1.43025">
        <ele>161.4</ele>
        <time>2022-05-16T09:57:23Z</time>
      </trkpt>
      <trkpt lat="43.45097" lon="1.43031">
        <ele>161.3</ele>
        <time>2022-05-16T09:57:24Z</time>
      </trkpt>
      <trkpt lat="43.45102" lon="1.43036">
        <ele>161.3</ele>
        <time>2022-05-16T09:57:25Z</time>
      </trkpt>
      <trkpt lat="43.45106" lon="1.43041">
        <ele>161.3</ele>
        <time>2022-05-16T09:57:26Z</time>
      </trkpt>
      <trkpt lat="43.45109" lon="1.43045">
        <ele>161.3</ele>
        <time>2022-05-16T09:57:27Z</time>
      </trkpt>
      <trkpt lat="43.45113" lon="1.4305">
        <ele>161.3</ele>
        <time>2022-05-16T09:57:28Z</time>
      </trkpt>
      <trkpt lat="43.45116" lon="1.43054">
        <ele>161.3</ele>
        <time>2022-05-16T09:57:29Z</time>
      </trkpt>
      <trkpt lat="43.45116" lon="1.43061">
        <ele>161.3</ele>
        <time>2022-05-16T09:57:30Z</time>
      </trkpt>
      <trkpt lat="43.4511" lon="1.43072">
        <ele>161.3</ele>
        <time>2022-05-16T09:57:31Z</time>
      </trkpt>
      <trkpt lat="43.4511" lon="1.43077">
        <ele>161.3</ele>
        <time>2022-05-16T09:57:32Z</time>
      </trkpt>
      <trkpt lat="43.4511" lon="1.43083">
        <ele>161.2</ele>
        <time>2022-05-16T09:57:33Z</time>
      </trkpt>
      <trkpt lat="43.45111" lon="1.43089">
        <ele>161.2</ele>
        <time>2022-05-16T09:57:34Z</time>
      </trkpt>
      <trkpt lat="43.4511" lon="1.43096">
        <ele>161.2</ele>
        <time>2022-05-16T09:57:35Z</time>
      </trkpt>
      <trkpt lat="43.45108" lon="1.43101">
        <ele>161.2</ele>
        <time>2022-05-16T09:57:36Z</time>
      </trkpt>
      <trkpt lat="43.45108" lon="1.43108">
        <ele>161.1</ele>
        <time>2022-05-16T09:57:37Z</time>
      </trkpt>
      <trkpt lat="43.45107" lon="1.43113">
        <ele>161.1</ele>
        <time>2022-05-16T09:57:38Z</time>
      </trkpt>
      <trkpt lat="43.45107" lon="1.43118">
        <ele>161.1</ele>
        <time>2022-05-16T09:57:39Z</time>
      </trkpt>
      <trkpt lat="43.45109" lon="1.43123">
        <ele>161.1</ele>
        <time>2022-05-16T09:57:40Z</time>
      </trkpt>
      <trkpt lat="43.45111" lon="1.43129">
        <ele>161.1</ele>
        <time>2022-05-16T09:57:41Z</time>
      </trkpt>
      <trkpt lat="43.45111" lon="1.43135">
        <ele>161.1</ele>
        <time>2022-05-16T09:57:42Z</time>
      </trkpt>
      <trkpt lat="43.45114" lon="1.43139">
        <ele>161.1</ele>
        <time>2022-05-16T09:57:43Z</time>
      </trkpt>
      <trkpt lat="43.45111" lon="1.43144">
        <ele>161.1</ele>
        <time>2022-05-16T09:57:44Z</time>
      </trkpt>
      <trkpt lat="43.45106" lon="1.4315">
        <ele>161.1</ele>
        <time>2022-05-16T09:57:45Z</time>
      </trkpt>
      <trkpt lat="43.45125" lon="1.43157">
        <ele>161.1</ele>
        <time>2022-05-16T09:57:46Z</time>
      </trkpt>
      <trkpt lat="43.45126" lon="1.43159">
        <ele>161</ele>
        <time>2022-05-16T09:57:47Z</time>
      </trkpt>
      <trkpt lat="43.45131" lon="1.43163">
        <ele>161</ele>
        <time>2022-05-16T09:57:48Z</time>
      </trkpt>
      <trkpt lat="43.45134" lon="1.43167">
        <ele>161</ele>
        <time>2022-05-16T09:57:49Z</time>
      </trkpt>
      <trkpt lat="43.45134" lon="1.43174">
        <ele>160.9</ele>
        <time>2022-05-16T09:57:50Z</time>
      </trkpt>
      <trkpt lat="43.45132" lon="1.43181">
        <ele>160.9</ele>
        <time>2022-05-16T09:57:51Z</time>
      </trkpt>
      <trkpt lat="43.4513" lon="1.43187">
        <ele>160.8</ele>
        <time>2022-05-16T09:57:52Z</time>
      </trkpt>
      <trkpt lat="43.45129" lon="1.43194">
        <ele>160.8</ele>
        <time>2022-05-16T09:57:53Z</time>
      </trkpt>
      <trkpt lat="43.45128" lon="1.43202">
        <ele>160.8</ele>
        <time>2022-05-16T09:57:54Z</time>
      </trkpt>
      <trkpt lat="43.45127" lon="1.43209">
        <ele>160.8</ele>
        <time>2022-05-16T09:57:55Z</time>
      </trkpt>
      <trkpt lat="43.45131" lon="1.43213">
        <ele>160.8</ele>
        <time>2022-05-16T09:57:56Z</time>
      </trkpt>
      <trkpt lat="43.45133" lon="1.43219">
        <ele>160.8</ele>
        <time>2022-05-16T09:57:57Z</time>
      </trkpt>
      <trkpt lat="43.45131" lon="1.43226">
        <ele>160.8</ele>
        <time>2022-05-16T09:57:58Z</time>
      </trkpt>
      <trkpt lat="43.4513" lon="1.43233">
        <ele>160.8</ele>
        <time>2022-05-16T09:57:59Z</time>
      </trkpt>
      <trkpt lat="43.45129" lon="1.43239">
        <ele>160.9</ele>
        <time>2022-05-16T09:58:00Z</time>
      </trkpt>
      <trkpt lat="43.45128" lon="1.43245">
        <ele>160.9</ele>
        <time>2022-05-16T09:58:01Z</time>
      </trkpt>
      <trkpt lat="43.45128" lon="1.43251">
        <ele>160.9</ele>
        <time>2022-05-16T09:58:02Z</time>
      </trkpt>
      <trkpt lat="43.45126" lon="1.43256">
        <ele>160.9</ele>
        <time>2022-05-16T09:58:03Z</time>
      </trkpt>
      <trkpt lat="43.45125" lon="1.43261">
        <ele>160.9</ele>
        <time>2022-05-16T09:58:04Z</time>
      </trkpt>
      <trkpt lat="43.45128" lon="1.43264">
        <ele>160.9</ele>
        <time>2022-05-16T09:58:05Z</time>
      </trkpt>
      <trkpt lat="43.45127" lon="1.4327">
        <ele>160.8</ele>
        <time>2022-05-16T09:58:06Z</time>
      </trkpt>
      <trkpt lat="43.45125" lon="1.43273">
        <ele>160.8</ele>
        <time>2022-05-16T09:58:07Z</time>
      </trkpt>
      <trkpt lat="43.45121" lon="1.43277">
        <ele>160.7</ele>
        <time>2022-05-16T09:58:08Z</time>
      </trkpt>
      <trkpt lat="43.45121" lon="1.43281">
        <ele>160.6</ele>
        <time>2022-05-16T09:58:09Z</time>
      </trkpt>
      <trkpt lat="43.45125" lon="1.43286">
        <ele>160.6</ele>
        <time>2022-05-16T09:58:10Z</time>
      </trkpt>
      <trkpt lat="43.45129" lon="1.43289">
        <ele>160.5</ele>
        <time>2022-05-16T09:58:11Z</time>
      </trkpt>
      <trkpt lat="43.45133" lon="1.43295">
        <ele>160.4</ele>
        <time>2022-05-16T09:58:12Z</time>
      </trkpt>
      <trkpt lat="43.45138" lon="1.43296">
        <ele>160.3</ele>
        <time>2022-05-16T09:58:13Z</time>
      </trkpt>
      <trkpt lat="43.45143" lon="1.43295">
        <ele>160.3</ele>
        <time>2022-05-16T09:58:14Z</time>
      </trkpt>
      <trkpt lat="43.45149" lon="1.43295">
        <ele>160.3</ele>
        <time>2022-05-16T09:58:15Z</time>
      </trkpt>
      <trkpt lat="43.45154" lon="1.43294">
        <ele>160.3</ele>
        <time>2022-05-16T09:58:16Z</time>
      </trkpt>
      <trkpt lat="43.45157" lon="1.43291">
        <ele>160.3</ele>
        <time>2022-05-16T09:58:17Z</time>
      </trkpt>
      <trkpt lat="43.45162" lon="1.4329">
        <ele>160.4</ele>
        <time>2022-05-16T09:58:18Z</time>
      </trkpt>
      <trkpt lat="43.45166" lon="1.43287">
        <ele>160.4</ele>
        <time>2022-05-16T09:58:19Z</time>
      </trkpt>
      <trkpt lat="43.4517" lon="1.43285">
        <ele>160.4</ele>
        <time>2022-05-16T09:58:20Z</time>
      </trkpt>
      <trkpt lat="43.45173" lon="1.43291">
        <ele>160.4</ele>
        <time>2022-05-16T09:58:21Z</time>
      </trkpt>
      <trkpt lat="43.45175" lon="1.43298">
        <ele>160.4</ele>
        <time>2022-05-16T09:58:22Z</time>
      </trkpt>
      <trkpt lat="43.45178" lon="1.43303">
        <ele>160.4</ele>
        <time>2022-05-16T09:58:23Z</time>
      </trkpt>
      <trkpt lat="43.45183" lon="1.43306">
        <ele>160.5</ele>
        <time>2022-05-16T09:58:24Z</time>
      </trkpt>
      <trkpt lat="43.45188" lon="1.43303">
        <ele>160.5</ele>
        <time>2022-05-16T09:58:25Z</time>
      </trkpt>
      <trkpt lat="43.45192" lon="1.43303">
        <ele>160.5</ele>
        <time>2022-05-16T09:58:26Z</time>
      </trkpt>
      <trkpt lat="43.45197" lon="1.43301">
        <ele>160.6</ele>
        <time>2022-05-16T09:58:27Z</time>
      </trkpt>
      <trkpt lat="43.45202" lon="1.433">
        <ele>160.6</ele>
        <time>2022-05-16T09:58:28Z</time>
      </trkpt>
      <trkpt lat="43.45206" lon="1.43297">
        <ele>160.6</ele>
        <time>2022-05-16T09:58:29Z</time>
      </trkpt>
      <trkpt lat="43.4521" lon="1.43293">
        <ele>160.6</ele>
        <time>2022-05-16T09:58:30Z</time>
      </trkpt>
      <trkpt lat="43.45215" lon="1.43291">
        <ele>160.6</ele>
        <time>2022-05-16T09:58:31Z</time>
      </trkpt>
      <trkpt lat="43.45219" lon="1.43292">
        <ele>160.7</ele>
        <time>2022-05-16T09:58:32Z</time>
      </trkpt>
      <trkpt lat="43.45224" lon="1.43293">
        <ele>160.7</ele>
        <time>2022-05-16T09:58:33Z</time>
      </trkpt>
      <trkpt lat="43.45231" lon="1.43295">
        <ele>160.7</ele>
        <time>2022-05-16T09:58:34Z</time>
      </trkpt>
      <trkpt lat="43.45236" lon="1.43298">
        <ele>160.7</ele>
        <time>2022-05-16T09:58:35Z</time>
      </trkpt>
      <trkpt lat="43.45241" lon="1.43299">
        <ele>160.7</ele>
        <time>2022-05-16T09:58:36Z</time>
      </trkpt>
      <trkpt lat="43.45244" lon="1.43301">
        <ele>160.7</ele>
        <time>2022-05-16T09:58:37Z</time>
      </trkpt>
      <trkpt lat="43.45246" lon="1.43301">
        <ele>160.7</ele>
        <time>2022-05-16T09:58:38Z</time>
      </trkpt>
      <trkpt lat="43.45246" lon="1.433">
        <ele>160.7</ele>
        <time>2022-05-16T09:58:39Z</time>
      </trkpt>
      <trkpt lat="43.45251" lon="1.43297">
        <ele>160.7</ele>
        <time>2022-05-16T09:58:40Z</time>
      </trkpt>
      <trkpt lat="43.45256" lon="1.43296">
        <ele>160.8</ele>
        <time>2022-05-16T09:58:41Z</time>
      </trkpt>
      <trkpt lat="43.4526" lon="1.43296">
        <ele>160.8</ele>
        <time>2022-05-16T09:58:42Z</time>
      </trkpt>
      <trkpt lat="43.45264" lon="1.43292">
        <ele>160.8</ele>
        <time>2022-05-16T09:58:43Z</time>
      </trkpt>
      <trkpt lat="43.45269" lon="1.43289">
        <ele>160.9</ele>
        <time>2022-05-16T09:58:44Z</time>
      </trkpt>
      <trkpt lat="43.45274" lon="1.43286">
        <ele>160.9</ele>
        <time>2022-05-16T09:58:45Z</time>
      </trkpt>
      <trkpt lat="43.45278" lon="1.43284">
        <ele>161</ele>
        <time>2022-05-16T09:58:46Z</time>
      </trkpt>
      <trkpt lat="43.45283" lon="1.43283">
        <ele>161</ele>
        <time>2022-05-16T09:58:47Z</time>
      </trkpt>
      <trkpt lat="43.45287" lon="1.43283">
        <ele>161.1</ele>
        <time>2022-05-16T09:58:48Z</time>
      </trkpt>
      <trkpt lat="43.45291" lon="1.4328">
        <ele>161.1</ele>
        <time>2022-05-16T09:58:49Z</time>
      </trkpt>
      <trkpt lat="43.45296" lon="1.43277">
        <ele>161.2</ele>
        <time>2022-05-16T09:58:50Z</time>
      </trkpt>
      <trkpt lat="43.45298" lon="1.43271">
        <ele>161.2</ele>
        <time>2022-05-16T09:58:51Z</time>
      </trkpt>
      <trkpt lat="43.45298" lon="1.43266">
        <ele>161.2</ele>
        <time>2022-05-16T09:58:52Z</time>
      </trkpt>
      <trkpt lat="43.453" lon="1.43259">
        <ele>161.3</ele>
        <time>2022-05-16T09:58:53Z</time>
      </trkpt>
      <trkpt lat="43.45303" lon="1.43254">
        <ele>161.3</ele>
        <time>2022-05-16T09:58:54Z</time>
      </trkpt>
      <trkpt lat="43.45306" lon="1.43248">
        <ele>161.3</ele>
        <time>2022-05-16T09:58:55Z</time>
      </trkpt>
      <trkpt lat="43.45311" lon="1.43246">
        <ele>161.3</ele>
        <time>2022-05-16T09:58:56Z</time>
      </trkpt>
      <trkpt lat="43.45316" lon="1.43244">
        <ele>161.3</ele>
        <time>2022-05-16T09:58:57Z</time>
      </trkpt>
      <trkpt lat="43.45321" lon="1.43244">
        <ele>161.3</ele>
        <time>2022-05-16T09:58:58Z</time>
      </trkpt>
      <trkpt lat="43.45326" lon="1.43245">
        <ele>161.3</ele>
        <time>2022-05-16T09:58:59Z</time>
      </trkpt>
      <trkpt lat="43.45331" lon="1.43249">
        <ele>161.3</ele>
        <time>2022-05-16T09:59:00Z</time>
      </trkpt>
      <trkpt lat="43.45335" lon="1.43254">
        <ele>161.2</ele>
        <time>2022-05-16T09:59:01Z</time>
      </trkpt>
      <trkpt lat="43.45338" lon="1.43258">
        <ele>161.2</ele>
        <time>2022-05-16T09:59:02Z</time>
      </trkpt>
      <trkpt lat="43.45342" lon="1.43264">
        <ele>161.1</ele>
        <time>2022-05-16T09:59:03Z</time>
      </trkpt>
      <trkpt lat="43.45346" lon="1.43267">
        <ele>161.1</ele>
        <time>2022-05-16T09:59:04Z</time>
      </trkpt>
      <trkpt lat="43.45351" lon="1.43271">
        <ele>161</ele>
        <time>2022-05-16T09:59:05Z</time>
      </trkpt>
      <trkpt lat="43.45355" lon="1.43274">
        <ele>161</ele>
        <time>2022-05-16T09:59:06Z</time>
      </trkpt>
      <trkpt lat="43.4536" lon="1.43278">
        <ele>160.9</ele>
        <time>2022-05-16T09:59:07Z</time>
      </trkpt>
      <trkpt lat="43.45364" lon="1.4328">
        <ele>160.9</ele>
        <time>2022-05-16T09:59:08Z</time>
      </trkpt>
      <trkpt lat="43.45368" lon="1.43284">
        <ele>160.8</ele>
        <time>2022-05-16T09:59:09Z</time>
      </trkpt>
      <trkpt lat="43.45374" lon="1.43288">
        <ele>160.7</ele>
        <time>2022-05-16T09:59:10Z</time>
      </trkpt>
      <trkpt lat="43.45378" lon="1.4329">
        <ele>160.7</ele>
        <time>2022-05-16T09:59:11Z</time>
      </trkpt>
      <trkpt lat="43.45383" lon="1.43294">
        <ele>160.8</ele>
        <time>2022-05-16T09:59:12Z</time>
      </trkpt>
      <trkpt lat="43.45389" lon="1.43298">
        <ele>160.9</ele>
        <time>2022-05-16T09:59:13Z</time>
      </trkpt>
      <trkpt lat="43.45394" lon="1.43301">
        <ele>161</ele>
        <time>2022-05-16T09:59:15Z</time>
      </trkpt>
      <trkpt lat="43.45398" lon="1.43304">
        <ele>161.2</ele>
        <time>2022-05-16T09:59:16Z</time>
      </trkpt>
      <trkpt lat="43.45403" lon="1.43305">
        <ele>161.4</ele>
        <time>2022-05-16T09:59:17Z</time>
      </trkpt>
      <trkpt lat="43.45408" lon="1.43308">
        <ele>161.6</ele>
        <time>2022-05-16T09:59:18Z</time>
      </trkpt>
      <trkpt lat="43.45412" lon="1.4331">
        <ele>161.9</ele>
        <time>2022-05-16T09:59:19Z</time>
      </trkpt>
      <trkpt lat="43.45417" lon="1.43313">
        <ele>162.2</ele>
        <time>2022-05-16T09:59:20Z</time>
      </trkpt>
      <trkpt lat="43.45423" lon="1.43317">
        <ele>162.5</ele>
        <time>2022-05-16T09:59:21Z</time>
      </trkpt>
      <trkpt lat="43.45428" lon="1.43318">
        <ele>162.9</ele>
        <time>2022-05-16T09:59:22Z</time>
      </trkpt>
      <trkpt lat="43.45433" lon="1.43322">
        <ele>163.1</ele>
        <time>2022-05-16T09:59:23Z</time>
      </trkpt>
      <trkpt lat="43.45437" lon="1.43326">
        <ele>163.4</ele>
        <time>2022-05-16T09:59:24Z</time>
      </trkpt>
      <trkpt lat="43.45442" lon="1.43331">
        <ele>163.6</ele>
        <time>2022-05-16T09:59:25Z</time>
      </trkpt>
      <trkpt lat="43.45445" lon="1.43337">
        <ele>163.8</ele>
        <time>2022-05-16T09:59:26Z</time>
      </trkpt>
      <trkpt lat="43.45448" lon="1.43344">
        <ele>163.9</ele>
        <time>2022-05-16T09:59:27Z</time>
      </trkpt>
      <trkpt lat="43.45451" lon="1.43351">
        <ele>164.1</ele>
        <time>2022-05-16T09:59:28Z</time>
      </trkpt>
      <trkpt lat="43.45453" lon="1.43359">
        <ele>164.3</ele>
        <time>2022-05-16T09:59:29Z</time>
      </trkpt>
      <trkpt lat="43.45457" lon="1.43366">
        <ele>164.4</ele>
        <time>2022-05-16T09:59:30Z</time>
      </trkpt>
      <trkpt lat="43.45462" lon="1.43372">
        <ele>164.7</ele>
        <time>2022-05-16T09:59:31Z</time>
      </trkpt>
      <trkpt lat="43.45467" lon="1.43377">
        <ele>165</ele>
        <time>2022-05-16T09:59:32Z</time>
      </trkpt>
      <trkpt lat="43.45472" lon="1.43379">
        <ele>165.3</ele>
        <time>2022-05-16T09:59:33Z</time>
      </trkpt>
      <trkpt lat="43.45478" lon="1.43381">
        <ele>165.7</ele>
        <time>2022-05-16T09:59:34Z</time>
      </trkpt>
      <trkpt lat="43.45483" lon="1.43382">
        <ele>166</ele>
        <time>2022-05-16T09:59:35Z</time>
      </trkpt>
      <trkpt lat="43.45492" lon="1.43386">
        <ele>166.7</ele>
        <time>2022-05-16T09:59:36Z</time>
      </trkpt>
      <trkpt lat="43.45496" lon="1.43389">
        <ele>167</ele>
        <time>2022-05-16T09:59:37Z</time>
      </trkpt>
      <trkpt lat="43.455" lon="1.43392">
        <ele>167.4</ele>
        <time>2022-05-16T09:59:38Z</time>
      </trkpt>
      <trkpt lat="43.45503" lon="1.43395">
        <ele>167.7</ele>
        <time>2022-05-16T09:59:39Z</time>
      </trkpt>
      <trkpt lat="43.45507" lon="1.43399">
        <ele>168</ele>
        <time>2022-05-16T09:59:40Z</time>
      </trkpt>
      <trkpt lat="43.45511" lon="1.43401">
        <ele>168.3</ele>
        <time>2022-05-16T09:59:41Z</time>
      </trkpt>
      <trkpt lat="43.45515" lon="1.43403">
        <ele>168.4</ele>
        <time>2022-05-16T09:59:42Z</time>
      </trkpt>
      <trkpt lat="43.4552" lon="1.43407">
        <ele>168.5</ele>
        <time>2022-05-16T09:59:43Z</time>
      </trkpt>
      <trkpt lat="43.45525" lon="1.43408">
        <ele>168.5</ele>
        <time>2022-05-16T09:59:44Z</time>
      </trkpt>
      <trkpt lat="43.45529" lon="1.43409">
        <ele>168.6</ele>
        <time>2022-05-16T09:59:45Z</time>
      </trkpt>
      <trkpt lat="43.45534" lon="1.43411">
        <ele>168.7</ele>
        <time>2022-05-16T09:59:46Z</time>
      </trkpt>
      <trkpt lat="43.45537" lon="1.43416">
        <ele>168.9</ele>
        <time>2022-05-16T09:59:47Z</time>
      </trkpt>
      <trkpt lat="43.4554" lon="1.43421">
        <ele>169.1</ele>
        <time>2022-05-16T09:59:48Z</time>
      </trkpt>
      <trkpt lat="43.45544" lon="1.43424">
        <ele>169.3</ele>
        <time>2022-05-16T09:59:49Z</time>
      </trkpt>
      <trkpt lat="43.45548" lon="1.43423">
        <ele>169.5</ele>
        <time>2022-05-16T09:59:50Z</time>
      </trkpt>
      <trkpt lat="43.45553" lon="1.43424">
        <ele>169.8</ele>
        <time>2022-05-16T09:59:51Z</time>
      </trkpt>
      <trkpt lat="43.45557" lon="1.43425">
        <ele>170</ele>
        <time>2022-05-16T09:59:52Z</time>
      </trkpt>
      <trkpt lat="43.4556" lon="1.43429">
        <ele>170.8</ele>
        <time>2022-05-16T09:59:53Z</time>
      </trkpt>
      <trkpt lat="43.45563" lon="1.43433">
        <ele>171.4</ele>
        <time>2022-05-16T09:59:54Z</time>
      </trkpt>
      <trkpt lat="43.45566" lon="1.43438">
        <ele>171.9</ele>
        <time>2022-05-16T09:59:55Z</time>
      </trkpt>
      <trkpt lat="43.4557" lon="1.43441">
        <ele>172.4</ele>
        <time>2022-05-16T09:59:56Z</time>
      </trkpt>
      <trkpt lat="43.45573" lon="1.43444">
        <ele>172.9</ele>
        <time>2022-05-16T09:59:57Z</time>
      </trkpt>
      <trkpt lat="43.45576" lon="1.43448">
        <ele>173.5</ele>
        <time>2022-05-16T09:59:58Z</time>
      </trkpt>
      <trkpt lat="43.45579" lon="1.43453">
        <ele>173.9</ele>
        <time>2022-05-16T09:59:59Z</time>
      </trkpt>
      <trkpt lat="43.45582" lon="1.43457">
        <ele>174.4</ele>
        <time>2022-05-16T10:00:00Z</time>
      </trkpt>
      <trkpt lat="43.45585" lon="1.43461">
        <ele>175</ele>
        <time>2022-05-16T10:00:01Z</time>
      </trkpt>
      <trkpt lat="43.45588" lon="1.43466">
        <ele>175.5</ele>
        <time>2022-05-16T10:00:02Z</time>
      </trkpt>
      <trkpt lat="43.45591" lon="1.43471">
        <ele>176</ele>
        <time>2022-05-16T10:00:03Z</time>
      </trkpt>
      <trkpt lat="43.45594" lon="1.43475">
        <ele>176.5</ele>
        <time>2022-05-16T10:00:04Z</time>
      </trkpt>
      <trkpt lat="43.45597" lon="1.43479">
        <ele>177</ele>
        <time>2022-05-16T10:00:05Z</time>
      </trkpt>
      <trkpt lat="43.456" lon="1.43483">
        <ele>177.5</ele>
        <time>2022-05-16T10:00:06Z</time>
      </trkpt>
      <trkpt lat="43.45603" lon="1.43487">
        <ele>178</ele>
        <time>2022-05-16T10:00:07Z</time>
      </trkpt>
      <trkpt lat="43.45606" lon="1.43491">
        <ele>178.5</ele>
        <time>2022-05-16T10:00:08Z</time>
      </trkpt>
      <trkpt lat="43.45609" lon="1.43495">
        <ele>179</ele>
        <time>2022-05-16T10:00:09Z</time>
      </trkpt>
      <trkpt lat="43.45613" lon="1.43499">
        <ele>179.5</ele>
        <time>2022-05-16T10:00:10Z</time>
      </trkpt>
      <trkpt lat="43.45615" lon="1.43504">
        <ele>180.1</ele>
        <time>2022-05-16T10:00:11Z</time>
      </trkpt>
      <trkpt lat="43.45618" lon="1.43509">
        <ele>180.5</ele>
        <time>2022-05-16T10:00:12Z</time>
      </trkpt>
      <trkpt lat="43.45619" lon="1.43514">
        <ele>180.8</ele>
        <time>2022-05-16T10:00:13Z</time>
      </trkpt>
      <trkpt lat="43.4562" lon="1.4352">
        <ele>181.1</ele>
        <time>2022-05-16T10:00:14Z</time>
      </trkpt>
      <trkpt lat="43.45621" lon="1.43526">
        <ele>181.4</ele>
        <time>2022-05-16T10:00:15Z</time>
      </trkpt>
      <trkpt lat="43.45623" lon="1.43532">
        <ele>181.7</ele>
        <time>2022-05-16T10:00:16Z</time>
      </trkpt>
      <trkpt lat="43.45623" lon="1.43538">
        <ele>182</ele>
        <time>2022-05-16T10:00:17Z</time>
      </trkpt>
      <trkpt lat="43.45624" lon="1.43545">
        <ele>182.3</ele>
        <time>2022-05-16T10:00:18Z</time>
      </trkpt>
      <trkpt lat="43.45624" lon="1.43551">
        <ele>182.4</ele>
        <time>2022-05-16T10:00:19Z</time>
      </trkpt>
      <trkpt lat="43.45625" lon="1.43557">
        <ele>182.6</ele>
        <time>2022-05-16T10:00:20Z</time>
      </trkpt>
      <trkpt lat="43.45625" lon="1.43565">
        <ele>182.7</ele>
        <time>2022-05-16T10:00:21Z</time>
      </trkpt>
      <trkpt lat="43.45625" lon="1.43571">
        <ele>182.8</ele>
        <time>2022-05-16T10:00:22Z</time>
      </trkpt>
      <trkpt lat="43.45626" lon="1.43578">
        <ele>182.9</ele>
        <time>2022-05-16T10:00:23Z</time>
      </trkpt>
      <trkpt lat="43.45624" lon="1.43587">
        <ele>183.1</ele>
        <time>2022-05-16T10:00:24Z</time>
      </trkpt>
      <trkpt lat="43.45624" lon="1.43596">
        <ele>183.3</ele>
        <time>2022-05-16T10:00:25Z</time>
      </trkpt>
      <trkpt lat="43.45623" lon="1.43603">
        <ele>183.4</ele>
        <time>2022-05-16T10:00:26Z</time>
      </trkpt>
      <trkpt lat="43.45624" lon="1.4361">
        <ele>183.6</ele>
        <time>2022-05-16T10:00:27Z</time>
      </trkpt>
      <trkpt lat="43.45623" lon="1.43617">
        <ele>183.7</ele>
        <time>2022-05-16T10:00:28Z</time>
      </trkpt>
      <trkpt lat="43.45623" lon="1.43625">
        <ele>183.9</ele>
        <time>2022-05-16T10:00:29Z</time>
      </trkpt>
      <trkpt lat="43.45623" lon="1.43632">
        <ele>184.1</ele>
        <time>2022-05-16T10:00:30Z</time>
      </trkpt>
      <trkpt lat="43.45623" lon="1.4364">
        <ele>184.2</ele>
        <time>2022-05-16T10:00:31Z</time>
      </trkpt>
      <trkpt lat="43.45624" lon="1.43648">
        <ele>184.4</ele>
        <time>2022-05-16T10:00:32Z</time>
      </trkpt>
      <trkpt lat="43.45625" lon="1.43656">
        <ele>184.6</ele>
        <time>2022-05-16T10:00:33Z</time>
      </trkpt>
      <trkpt lat="43.45626" lon="1.43664">
        <ele>184.8</ele>
        <time>2022-05-16T10:00:34Z</time>
      </trkpt>
      <trkpt lat="43.45628" lon="1.43671">
        <ele>185</ele>
        <time>2022-05-16T10:00:35Z</time>
      </trkpt>
      <trkpt lat="43.4563" lon="1.43677">
        <ele>185.1</ele>
        <time>2022-05-16T10:00:36Z</time>
      </trkpt>
      <trkpt lat="43.45634" lon="1.43684">
        <ele>185.3</ele>
        <time>2022-05-16T10:00:37Z</time>
      </trkpt>
      <trkpt lat="43.45636" lon="1.43691">
        <ele>185.5</ele>
        <time>2022-05-16T10:00:38Z</time>
      </trkpt>
      <trkpt lat="43.45638" lon="1.43699">
        <ele>185.6</ele>
        <time>2022-05-16T10:00:39Z</time>
      </trkpt>
      <trkpt lat="43.45639" lon="1.43706">
        <ele>185.7</ele>
        <time>2022-05-16T10:00:40Z</time>
      </trkpt>
      <trkpt lat="43.45642" lon="1.43714">
        <ele>185.8</ele>
        <time>2022-05-16T10:00:41Z</time>
      </trkpt>
      <trkpt lat="43.45643" lon="1.43721">
        <ele>185.8</ele>
        <time>2022-05-16T10:00:42Z</time>
      </trkpt>
      <trkpt lat="43.45645" lon="1.4373">
        <ele>185.9</ele>
        <time>2022-05-16T10:00:43Z</time>
      </trkpt>
      <trkpt lat="43.45647" lon="1.43737">
        <ele>186</ele>
        <time>2022-05-16T10:00:44Z</time>
      </trkpt>
      <trkpt lat="43.45648" lon="1.43746">
        <ele>186.1</ele>
        <time>2022-05-16T10:00:45Z</time>
      </trkpt>
      <trkpt lat="43.45648" lon="1.43753">
        <ele>186.2</ele>
        <time>2022-05-16T10:00:46Z</time>
      </trkpt>
      <trkpt lat="43.45648" lon="1.43761">
        <ele>186.3</ele>
        <time>2022-05-16T10:00:47Z</time>
      </trkpt>
      <trkpt lat="43.45648" lon="1.4377">
        <ele>186.4</ele>
        <time>2022-05-16T10:00:48Z</time>
      </trkpt>
      <trkpt lat="43.45648" lon="1.43778">
        <ele>186.4</ele>
        <time>2022-05-16T10:00:49Z</time>
      </trkpt>
      <trkpt lat="43.45648" lon="1.43786">
        <ele>186.5</ele>
        <time>2022-05-16T10:00:50Z</time>
      </trkpt>
      <trkpt lat="43.45646" lon="1.43793">
        <ele>186.5</ele>
        <time>2022-05-16T10:00:51Z</time>
      </trkpt>
      <trkpt lat="43.45643" lon="1.43801">
        <ele>186.4</ele>
        <time>2022-05-16T10:00:52Z</time>
      </trkpt>
      <trkpt lat="43.45641" lon="1.43809">
        <ele>186.4</ele>
        <time>2022-05-16T10:00:53Z</time>
      </trkpt>
      <trkpt lat="43.45638" lon="1.43816">
        <ele>186.3</ele>
        <time>2022-05-16T10:00:54Z</time>
      </trkpt>
      <trkpt lat="43.45635" lon="1.43824">
        <ele>186.1</ele>
        <time>2022-05-16T10:00:55Z</time>
      </trkpt>
      <trkpt lat="43.45634" lon="1.43833">
        <ele>185.9</ele>
        <time>2022-05-16T10:00:56Z</time>
      </trkpt>
      <trkpt lat="43.45633" lon="1.43842">
        <ele>185.8</ele>
        <time>2022-05-16T10:00:57Z</time>
      </trkpt>
      <trkpt lat="43.45632" lon="1.43851">
        <ele>185.5</ele>
        <time>2022-05-16T10:00:58Z</time>
      </trkpt>
      <trkpt lat="43.45631" lon="1.4386">
        <ele>185.3</ele>
        <time>2022-05-16T10:00:59Z</time>
      </trkpt>
      <trkpt lat="43.45629" lon="1.43869">
        <ele>185</ele>
        <time>2022-05-16T10:01:00Z</time>
      </trkpt>
      <trkpt lat="43.45627" lon="1.43878">
        <ele>184.7</ele>
        <time>2022-05-16T10:01:01Z</time>
      </trkpt>
      <trkpt lat="43.45626" lon="1.43888">
        <ele>184.3</ele>
        <time>2022-05-16T10:01:02Z</time>
      </trkpt>
      <trkpt lat="43.45625" lon="1.43897">
        <ele>184</ele>
        <time>2022-05-16T10:01:03Z</time>
      </trkpt>
      <trkpt lat="43.45623" lon="1.43908">
        <ele>183.6</ele>
        <time>2022-05-16T10:01:04Z</time>
      </trkpt>
      <trkpt lat="43.45621" lon="1.43919">
        <ele>183.2</ele>
        <time>2022-05-16T10:01:05Z</time>
      </trkpt>
      <trkpt lat="43.45621" lon="1.4393">
        <ele>182.9</ele>
        <time>2022-05-16T10:01:06Z</time>
      </trkpt>
      <trkpt lat="43.4562" lon="1.43941">
        <ele>182.6</ele>
        <time>2022-05-16T10:01:07Z</time>
      </trkpt>
      <trkpt lat="43.45619" lon="1.43952">
        <ele>182.2</ele>
        <time>2022-05-16T10:01:08Z</time>
      </trkpt>
      <trkpt lat="43.45619" lon="1.43962">
        <ele>181.7</ele>
        <time>2022-05-16T10:01:09Z</time>
      </trkpt>
      <trkpt lat="43.45618" lon="1.43972">
        <ele>181.1</ele>
        <time>2022-05-16T10:01:10Z</time>
      </trkpt>
      <trkpt lat="43.45617" lon="1.43985">
        <ele>180.2</ele>
        <time>2022-05-16T10:01:11Z</time>
      </trkpt>
      <trkpt lat="43.45614" lon="1.43995">
        <ele>179.4</ele>
        <time>2022-05-16T10:01:12Z</time>
      </trkpt>
      <trkpt lat="43.45609" lon="1.44007">
        <ele>178.4</ele>
        <time>2022-05-16T10:01:13Z</time>
      </trkpt>
      <trkpt lat="43.45604" lon="1.44018">
        <ele>177.4</ele>
        <time>2022-05-16T10:01:14Z</time>
      </trkpt>
      <trkpt lat="43.45601" lon="1.4403">
        <ele>176.7</ele>
        <time>2022-05-16T10:01:15Z</time>
      </trkpt>
      <trkpt lat="43.45599" lon="1.44043">
        <ele>176.1</ele>
        <time>2022-05-16T10:01:16Z</time>
      </trkpt>
      <trkpt lat="43.45597" lon="1.44057">
        <ele>175.7</ele>
        <time>2022-05-16T10:01:17Z</time>
      </trkpt>
      <trkpt lat="43.45597" lon="1.44072">
        <ele>175.4</ele>
        <time>2022-05-16T10:01:18Z</time>
      </trkpt>
      <trkpt lat="43.45597" lon="1.44083">
        <ele>175.3</ele>
        <time>2022-05-16T10:01:19Z</time>
      </trkpt>
      <trkpt lat="43.45599" lon="1.44094">
        <ele>175.4</ele>
        <time>2022-05-16T10:01:20Z</time>
      </trkpt>
      <trkpt lat="43.45601" lon="1.44106">
        <ele>175.6</ele>
        <time>2022-05-16T10:01:21Z</time>
      </trkpt>
      <trkpt lat="43.45601" lon="1.44111">
        <ele>175.7</ele>
        <time>2022-05-16T10:01:22Z</time>
      </trkpt>
      <trkpt lat="43.45604" lon="1.44112">
        <ele>175.9</ele>
        <time>2022-05-16T10:01:23Z</time>
      </trkpt>
      <trkpt lat="43.45609" lon="1.44113">
        <ele>176.1</ele>
        <time>2022-05-16T10:01:24Z</time>
      </trkpt>
      <trkpt lat="43.45612" lon="1.44117">
        <ele>176.2</ele>
        <time>2022-05-16T10:01:25Z</time>
      </trkpt>
      <trkpt lat="43.45616" lon="1.4412">
        <ele>176.5</ele>
        <time>2022-05-16T10:01:26Z</time>
      </trkpt>
      <trkpt lat="43.4562" lon="1.44123">
        <ele>176.8</ele>
        <time>2022-05-16T10:01:27Z</time>
      </trkpt>
      <trkpt lat="43.4563" lon="1.44128">
        <ele>177.6</ele>
        <time>2022-05-16T10:01:29Z</time>
      </trkpt>
      <trkpt lat="43.45634" lon="1.4413">
        <ele>178.1</ele>
        <time>2022-05-16T10:01:31Z</time>
      </trkpt>
      <trkpt lat="43.45639" lon="1.44132">
        <ele>178.6</ele>
        <time>2022-05-16T10:01:32Z</time>
      </trkpt>
      <trkpt lat="43.45644" lon="1.44134">
        <ele>179.1</ele>
        <time>2022-05-16T10:01:33Z</time>
      </trkpt>
      <trkpt lat="43.45648" lon="1.44137">
        <ele>179.5</ele>
        <time>2022-05-16T10:01:34Z</time>
      </trkpt>
      <trkpt lat="43.45653" lon="1.44139">
        <ele>180</ele>
        <time>2022-05-16T10:01:35Z</time>
      </trkpt>
      <trkpt lat="43.45657" lon="1.44141">
        <ele>180.4</ele>
        <time>2022-05-16T10:01:36Z</time>
      </trkpt>
      <trkpt lat="43.45668" lon="1.44147">
        <ele>181.3</ele>
        <time>2022-05-16T10:01:37Z</time>
      </trkpt>
      <trkpt lat="43.45678" lon="1.44152">
        <ele>182.1</ele>
        <time>2022-05-16T10:01:39Z</time>
      </trkpt>
      <trkpt lat="43.45685" lon="1.44154">
        <ele>182.5</ele>
        <time>2022-05-16T10:01:40Z</time>
      </trkpt>
      <trkpt lat="43.45689" lon="1.44156">
        <ele>182.9</ele>
        <time>2022-05-16T10:01:41Z</time>
      </trkpt>
      <trkpt lat="43.45694" lon="1.44157">
        <ele>183.2</ele>
        <time>2022-05-16T10:01:42Z</time>
      </trkpt>
      <trkpt lat="43.45698" lon="1.44164">
        <ele>183.7</ele>
        <time>2022-05-16T10:01:43Z</time>
      </trkpt>
      <trkpt lat="43.45704" lon="1.44166">
        <ele>184.1</ele>
        <time>2022-05-16T10:01:44Z</time>
      </trkpt>
      <trkpt lat="43.45709" lon="1.44168">
        <ele>184.5</ele>
        <time>2022-05-16T10:01:45Z</time>
      </trkpt>
      <trkpt lat="43.45714" lon="1.44169">
        <ele>184.8</ele>
        <time>2022-05-16T10:01:46Z</time>
      </trkpt>
      <trkpt lat="43.4572" lon="1.44169">
        <ele>185.3</ele>
        <time>2022-05-16T10:01:47Z</time>
      </trkpt>
      <trkpt lat="43.45727" lon="1.44169">
        <ele>185.7</ele>
        <time>2022-05-16T10:01:48Z</time>
      </trkpt>
      <trkpt lat="43.45733" lon="1.4417">
        <ele>186.2</ele>
        <time>2022-05-16T10:01:49Z</time>
      </trkpt>
      <trkpt lat="43.45739" lon="1.44172">
        <ele>186.6</ele>
        <time>2022-05-16T10:01:50Z</time>
      </trkpt>
      <trkpt lat="43.45745" lon="1.44175">
        <ele>187</ele>
        <time>2022-05-16T10:01:51Z</time>
      </trkpt>
      <trkpt lat="43.4575" lon="1.44175">
        <ele>187.4</ele>
        <time>2022-05-16T10:01:52Z</time>
      </trkpt>
      <trkpt lat="43.45756" lon="1.44176">
        <ele>187.8</ele>
        <time>2022-05-16T10:01:53Z</time>
      </trkpt>
      <trkpt lat="43.45761" lon="1.44176">
        <ele>188.2</ele>
        <time>2022-05-16T10:01:54Z</time>
      </trkpt>
      <trkpt lat="43.45766" lon="1.44176">
        <ele>188.6</ele>
        <time>2022-05-16T10:01:55Z</time>
      </trkpt>
      <trkpt lat="43.45772" lon="1.44174">
        <ele>189.1</ele>
        <time>2022-05-16T10:01:56Z</time>
      </trkpt>
      <trkpt lat="43.45778" lon="1.44172">
        <ele>189.6</ele>
        <time>2022-05-16T10:01:57Z</time>
      </trkpt>
      <trkpt lat="43.45784" lon="1.44172">
        <ele>190.1</ele>
        <time>2022-05-16T10:01:58Z</time>
      </trkpt>
      <trkpt lat="43.4579" lon="1.44171">
        <ele>190.7</ele>
        <time>2022-05-16T10:01:59Z</time>
      </trkpt>
      <trkpt lat="43.45795" lon="1.44172">
        <ele>191.2</ele>
        <time>2022-05-16T10:02:00Z</time>
      </trkpt>
      <trkpt lat="43.458" lon="1.44173">
        <ele>191.6</ele>
        <time>2022-05-16T10:02:01Z</time>
      </trkpt>
      <trkpt lat="43.45805" lon="1.44174">
        <ele>192.1</ele>
        <time>2022-05-16T10:02:02Z</time>
      </trkpt>
      <trkpt lat="43.4581" lon="1.44175">
        <ele>192.5</ele>
        <time>2022-05-16T10:02:03Z</time>
      </trkpt>
      <trkpt lat="43.45815" lon="1.44176">
        <ele>193</ele>
        <time>2022-05-16T10:02:04Z</time>
      </trkpt>
      <trkpt lat="43.45821" lon="1.44176">
        <ele>193.5</ele>
        <time>2022-05-16T10:02:05Z</time>
      </trkpt>
      <trkpt lat="43.45826" lon="1.44176">
        <ele>194</ele>
        <time>2022-05-16T10:02:06Z</time>
      </trkpt>
      <trkpt lat="43.45832" lon="1.44176">
        <ele>194.5</ele>
        <time>2022-05-16T10:02:07Z</time>
      </trkpt>
      <trkpt lat="43.45837" lon="1.44177">
        <ele>195.1</ele>
        <time>2022-05-16T10:02:08Z</time>
      </trkpt>
      <trkpt lat="43.45842" lon="1.44178">
        <ele>195.6</ele>
        <time>2022-05-16T10:02:09Z</time>
      </trkpt>
      <trkpt lat="43.45846" lon="1.44177">
        <ele>196</ele>
        <time>2022-05-16T10:02:10Z</time>
      </trkpt>
      <trkpt lat="43.4585" lon="1.44176">
        <ele>196.5</ele>
        <time>2022-05-16T10:02:11Z</time>
      </trkpt>
      <trkpt lat="43.45855" lon="1.44176">
        <ele>196.9</ele>
        <time>2022-05-16T10:02:12Z</time>
      </trkpt>
      <trkpt lat="43.4586" lon="1.44175">
        <ele>197.4</ele>
        <time>2022-05-16T10:02:13Z</time>
      </trkpt>
      <trkpt lat="43.45865" lon="1.44174">
        <ele>197.9</ele>
        <time>2022-05-16T10:02:14Z</time>
      </trkpt>
      <trkpt lat="43.4587" lon="1.44173">
        <ele>198.4</ele>
        <time>2022-05-16T10:02:15Z</time>
      </trkpt>
      <trkpt lat="43.45875" lon="1.44173">
        <ele>198.8</ele>
        <time>2022-05-16T10:02:16Z</time>
      </trkpt>
      <trkpt lat="43.45879" lon="1.44171">
        <ele>199.2</ele>
        <time>2022-05-16T10:02:17Z</time>
      </trkpt>
      <trkpt lat="43.45883" lon="1.44167">
        <ele>199.6</ele>
        <time>2022-05-16T10:02:18Z</time>
      </trkpt>
      <trkpt lat="43.45887" lon="1.44162">
        <ele>200</ele>
        <time>2022-05-16T10:02:19Z</time>
      </trkpt>
      <trkpt lat="43.45893" lon="1.44163">
        <ele>200.4</ele>
        <time>2022-05-16T10:02:20Z</time>
      </trkpt>
      <trkpt lat="43.45899" lon="1.44166">
        <ele>200.8</ele>
        <time>2022-05-16T10:02:21Z</time>
      </trkpt>
      <trkpt lat="43.45904" lon="1.44166">
        <ele>201.2</ele>
        <time>2022-05-16T10:02:22Z</time>
      </trkpt>
      <trkpt lat="43.45908" lon="1.44165">
        <ele>201.5</ele>
        <time>2022-05-16T10:02:23Z</time>
      </trkpt>
      <trkpt lat="43.45913" lon="1.44164">
        <ele>201.8</ele>
        <time>2022-05-16T10:02:24Z</time>
      </trkpt>
      <trkpt lat="43.45918" lon="1.44161">
        <ele>202.1</ele>
        <time>2022-05-16T10:02:25Z</time>
      </trkpt>
      <trkpt lat="43.45922" lon="1.4416">
        <ele>202.5</ele>
        <time>2022-05-16T10:02:26Z</time>
      </trkpt>
      <trkpt lat="43.45927" lon="1.44158">
        <ele>202.8</ele>
        <time>2022-05-16T10:02:27Z</time>
      </trkpt>
      <trkpt lat="43.45932" lon="1.44157">
        <ele>203.2</ele>
        <time>2022-05-16T10:02:28Z</time>
      </trkpt>
      <trkpt lat="43.45937" lon="1.44157">
        <ele>203.6</ele>
        <time>2022-05-16T10:02:29Z</time>
      </trkpt>
      <trkpt lat="43.45942" lon="1.44156">
        <ele>204.1</ele>
        <time>2022-05-16T10:02:30Z</time>
      </trkpt>
      <trkpt lat="43.45947" lon="1.44158">
        <ele>204.6</ele>
        <time>2022-05-16T10:02:31Z</time>
      </trkpt>
      <trkpt lat="43.45951" lon="1.44159">
        <ele>205.1</ele>
        <time>2022-05-16T10:02:32Z</time>
      </trkpt>
      <trkpt lat="43.45955" lon="1.44159">
        <ele>205.5</ele>
        <time>2022-05-16T10:02:33Z</time>
      </trkpt>
      <trkpt lat="43.45959" lon="1.44159">
        <ele>205.9</ele>
        <time>2022-05-16T10:02:34Z</time>
      </trkpt>
      <trkpt lat="43.45963" lon="1.44156">
        <ele>206.3</ele>
        <time>2022-05-16T10:02:35Z</time>
      </trkpt>
      <trkpt lat="43.45967" lon="1.44154">
        <ele>206.7</ele>
        <time>2022-05-16T10:02:36Z</time>
      </trkpt>
      <trkpt lat="43.45972" lon="1.44153">
        <ele>207.2</ele>
        <time>2022-05-16T10:02:37Z</time>
      </trkpt>
      <trkpt lat="43.45977" lon="1.44155">
        <ele>207.6</ele>
        <time>2022-05-16T10:02:38Z</time>
      </trkpt>
      <trkpt lat="43.45983" lon="1.44159">
        <ele>208.2</ele>
        <time>2022-05-16T10:02:39Z</time>
      </trkpt>
      <trkpt lat="43.45986" lon="1.4416">
        <ele>208.5</ele>
        <time>2022-05-16T10:02:40Z</time>
      </trkpt>
      <trkpt lat="43.4599" lon="1.44161">
        <ele>208.8</ele>
        <time>2022-05-16T10:02:41Z</time>
      </trkpt>
      <trkpt lat="43.45995" lon="1.44161">
        <ele>209.2</ele>
        <time>2022-05-16T10:02:42Z</time>
      </trkpt>
      <trkpt lat="43.46" lon="1.44162">
        <ele>209.7</ele>
        <time>2022-05-16T10:02:43Z</time>
      </trkpt>
      <trkpt lat="43.46005" lon="1.44163">
        <ele>210.2</ele>
        <time>2022-05-16T10:02:44Z</time>
      </trkpt>
      <trkpt lat="43.46009" lon="1.44164">
        <ele>210.6</ele>
        <time>2022-05-16T10:02:45Z</time>
      </trkpt>
      <trkpt lat="43.46013" lon="1.44165">
        <ele>211</ele>
        <time>2022-05-16T10:02:46Z</time>
      </trkpt>
      <trkpt lat="43.46017" lon="1.44166">
        <ele>211.4</ele>
        <time>2022-05-16T10:02:47Z</time>
      </trkpt>
      <trkpt lat="43.46021" lon="1.44166">
        <ele>211.8</ele>
        <time>2022-05-16T10:02:48Z</time>
      </trkpt>
      <trkpt lat="43.46023" lon="1.44164">
        <ele>212.1</ele>
        <time>2022-05-16T10:02:49Z</time>
      </trkpt>
      <trkpt lat="43.46026" lon="1.44157">
        <ele>212.9</ele>
        <time>2022-05-16T10:02:50Z</time>
      </trkpt>
      <trkpt lat="43.46026" lon="1.44149">
        <ele>213.2</ele>
        <time>2022-05-16T10:02:51Z</time>
      </trkpt>
      <trkpt lat="43.46027" lon="1.44143">
        <ele>213.4</ele>
        <time>2022-05-16T10:02:52Z</time>
      </trkpt>
      <trkpt lat="43.46029" lon="1.44137">
        <ele>213.6</ele>
        <time>2022-05-16T10:02:53Z</time>
      </trkpt>
      <trkpt lat="43.4603" lon="1.4413">
        <ele>213.8</ele>
        <time>2022-05-16T10:02:54Z</time>
      </trkpt>
      <trkpt lat="43.4603" lon="1.44122">
        <ele>214.2</ele>
        <time>2022-05-16T10:02:55Z</time>
      </trkpt>
      <trkpt lat="43.46033" lon="1.44116">
        <ele>214.5</ele>
        <time>2022-05-16T10:02:56Z</time>
      </trkpt>
      <trkpt lat="43.46034" lon="1.4411">
        <ele>214.9</ele>
        <time>2022-05-16T10:02:57Z</time>
      </trkpt>
      <trkpt lat="43.46036" lon="1.44103">
        <ele>215.3</ele>
        <time>2022-05-16T10:02:58Z</time>
      </trkpt>
      <trkpt lat="43.46039" lon="1.44098">
        <ele>215.7</ele>
        <time>2022-05-16T10:02:59Z</time>
      </trkpt>
      <trkpt lat="43.4604" lon="1.44092">
        <ele>216.1</ele>
        <time>2022-05-16T10:03:00Z</time>
      </trkpt>
      <trkpt lat="43.46041" lon="1.44086">
        <ele>216.6</ele>
        <time>2022-05-16T10:03:01Z</time>
      </trkpt>
      <trkpt lat="43.46042" lon="1.4408">
        <ele>217.1</ele>
        <time>2022-05-16T10:03:02Z</time>
      </trkpt>
      <trkpt lat="43.46043" lon="1.44075">
        <ele>217.6</ele>
        <time>2022-05-16T10:03:03Z</time>
      </trkpt>
      <trkpt lat="43.46044" lon="1.44068">
        <ele>218.2</ele>
        <time>2022-05-16T10:03:04Z</time>
      </trkpt>
      <trkpt lat="43.46045" lon="1.44061">
        <ele>218.8</ele>
        <time>2022-05-16T10:03:05Z</time>
      </trkpt>
      <trkpt lat="43.46046" lon="1.44055">
        <ele>219.4</ele>
        <time>2022-05-16T10:03:06Z</time>
      </trkpt>
      <trkpt lat="43.46048" lon="1.44049">
        <ele>220</ele>
        <time>2022-05-16T10:03:07Z</time>
      </trkpt>
      <trkpt lat="43.46049" lon="1.44043">
        <ele>220.5</ele>
        <time>2022-05-16T10:03:08Z</time>
      </trkpt>
      <trkpt lat="43.4605" lon="1.44035">
        <ele>221.4</ele>
        <time>2022-05-16T10:03:09Z</time>
      </trkpt>
      <trkpt lat="43.46052" lon="1.44028">
        <ele>222.1</ele>
        <time>2022-05-16T10:03:10Z</time>
      </trkpt>
      <trkpt lat="43.46055" lon="1.4402">
        <ele>223</ele>
        <time>2022-05-16T10:03:11Z</time>
      </trkpt>
      <trkpt lat="43.46057" lon="1.44014">
        <ele>223.8</ele>
        <time>2022-05-16T10:03:12Z</time>
      </trkpt>
      <trkpt lat="43.46062" lon="1.44009">
        <ele>224.6</ele>
        <time>2022-05-16T10:03:13Z</time>
      </trkpt>
      <trkpt lat="43.46067" lon="1.44002">
        <ele>225.7</ele>
        <time>2022-05-16T10:03:14Z</time>
      </trkpt>
      <trkpt lat="43.46071" lon="1.43996">
        <ele>226.5</ele>
        <time>2022-05-16T10:03:15Z</time>
      </trkpt>
      <trkpt lat="43.46074" lon="1.43989">
        <ele>227.3</ele>
        <time>2022-05-16T10:03:16Z</time>
      </trkpt>
      <trkpt lat="43.46063" lon="1.43995">
        <ele>228.9</ele>
        <time>2022-05-16T10:03:17Z</time>
      </trkpt>
      <trkpt lat="43.46063" lon="1.4399">
        <ele>229.3</ele>
        <time>2022-05-16T10:03:18Z</time>
      </trkpt>
      <trkpt lat="43.46064" lon="1.43984">
        <ele>229.9</ele>
        <time>2022-05-16T10:03:19Z</time>
      </trkpt>
      <trkpt lat="43.46064" lon="1.43978">
        <ele>230.5</ele>
        <time>2022-05-16T10:03:20Z</time>
      </trkpt>
      <trkpt lat="43.46065" lon="1.43973">
        <ele>231</ele>
        <time>2022-05-16T10:03:21Z</time>
      </trkpt>
      <trkpt lat="43.46067" lon="1.43967">
        <ele>231.6</ele>
        <time>2022-05-16T10:03:22Z</time>
      </trkpt>
      <trkpt lat="43.46069" lon="1.43963">
        <ele>232.1</ele>
        <time>2022-05-16T10:03:23Z</time>
      </trkpt>
      <trkpt lat="43.46071" lon="1.43957">
        <ele>232.6</ele>
        <time>2022-05-16T10:03:24Z</time>
      </trkpt>
      <trkpt lat="43.46072" lon="1.43952">
        <ele>233.1</ele>
        <time>2022-05-16T10:03:25Z</time>
      </trkpt>
      <trkpt lat="43.46075" lon="1.43941">
        <ele>234.1</ele>
        <time>2022-05-16T10:03:27Z</time>
      </trkpt>
      <trkpt lat="43.46079" lon="1.43929">
        <ele>235.3</ele>
        <time>2022-05-16T10:03:29Z</time>
      </trkpt>
      <trkpt lat="43.4608" lon="1.43918">
        <ele>236.3</ele>
        <time>2022-05-16T10:03:31Z</time>
      </trkpt>
      <trkpt lat="43.46081" lon="1.43913">
        <ele>236.8</ele>
        <time>2022-05-16T10:03:32Z</time>
      </trkpt>
      <trkpt lat="43.46083" lon="1.43906">
        <ele>237.6</ele>
        <time>2022-05-16T10:03:33Z</time>
      </trkpt>
      <trkpt lat="43.46085" lon="1.43901">
        <ele>238.2</ele>
        <time>2022-05-16T10:03:34Z</time>
      </trkpt>
      <trkpt lat="43.46087" lon="1.43895">
        <ele>238.8</ele>
        <time>2022-05-16T10:03:35Z</time>
      </trkpt>
      <trkpt lat="43.46088" lon="1.43889">
        <ele>239.5</ele>
        <time>2022-05-16T10:03:36Z</time>
      </trkpt>
      <trkpt lat="43.4609" lon="1.43883">
        <ele>240.1</ele>
        <time>2022-05-16T10:03:37Z</time>
      </trkpt>
      <trkpt lat="43.46092" lon="1.43879">
        <ele>240.7</ele>
        <time>2022-05-16T10:03:38Z</time>
      </trkpt>
      <trkpt lat="43.46094" lon="1.43874">
        <ele>241.3</ele>
        <time>2022-05-16T10:03:39Z</time>
      </trkpt>
      <trkpt lat="43.46096" lon="1.43868">
        <ele>241.9</ele>
        <time>2022-05-16T10:03:40Z</time>
      </trkpt>
      <trkpt lat="43.46097" lon="1.43866">
        <ele>242.2</ele>
        <time>2022-05-16T10:03:41Z</time>
      </trkpt>
      <trkpt lat="43.46098" lon="1.43861">
        <ele>242.7</ele>
        <time>2022-05-16T10:03:42Z</time>
      </trkpt>
      <trkpt lat="43.461" lon="1.43857">
        <ele>243.1</ele>
        <time>2022-05-16T10:03:43Z</time>
      </trkpt>
      <trkpt lat="43.46101" lon="1.43856">
        <ele>243.2</ele>
        <time>2022-05-16T10:03:44Z</time>
      </trkpt>
      <trkpt lat="43.46102" lon="1.43852">
        <ele>243.6</ele>
        <time>2022-05-16T10:03:45Z</time>
      </trkpt>
      <trkpt lat="43.46103" lon="1.43851">
        <ele>243.7</ele>
        <time>2022-05-16T10:03:46Z</time>
      </trkpt>
      <trkpt lat="43.46104" lon="1.43847">
        <ele>243.9</ele>
        <time>2022-05-16T10:03:47Z</time>
      </trkpt>
      <trkpt lat="43.46106" lon="1.43841">
        <ele>244.1</ele>
        <time>2022-05-16T10:03:48Z</time>
      </trkpt>
      <trkpt lat="43.46107" lon="1.43833">
        <ele>244.3</ele>
        <time>2022-05-16T10:03:49Z</time>
      </trkpt>
      <trkpt lat="43.46107" lon="1.43827">
        <ele>244.5</ele>
        <time>2022-05-16T10:03:50Z</time>
      </trkpt>
      <trkpt lat="43.46107" lon="1.43822">
        <ele>244.6</ele>
        <time>2022-05-16T10:03:51Z</time>
      </trkpt>
      <trkpt lat="43.46109" lon="1.43818">
        <ele>244.8</ele>
        <time>2022-05-16T10:03:52Z</time>
      </trkpt>
      <trkpt lat="43.46112" lon="1.43816">
        <ele>244.9</ele>
        <time>2022-05-16T10:03:53Z</time>
      </trkpt>
      <trkpt lat="43.46111" lon="1.4381">
        <ele>245</ele>
        <time>2022-05-16T10:03:54Z</time>
      </trkpt>
      <trkpt lat="43.4611" lon="1.43808">
        <ele>245</ele>
        <time>2022-05-16T10:03:55Z</time>
      </trkpt>
      <trkpt lat="43.46106" lon="1.43804">
        <ele>245</ele>
        <time>2022-05-16T10:03:56Z</time>
      </trkpt>
      <trkpt lat="43.461" lon="1.43801">
        <ele>244.9</ele>
        <time>2022-05-16T10:03:57Z</time>
      </trkpt>
      <trkpt lat="43.46095" lon="1.43798">
        <ele>244.9</ele>
        <time>2022-05-16T10:03:58Z</time>
      </trkpt>
      <trkpt lat="43.46091" lon="1.43795">
        <ele>244.8</ele>
        <time>2022-05-16T10:03:59Z</time>
      </trkpt>
      <trkpt lat="43.46087" lon="1.43791">
        <ele>244.8</ele>
        <time>2022-05-16T10:04:00Z</time>
      </trkpt>
      <trkpt lat="43.46082" lon="1.43788">
        <ele>244.7</ele>
        <time>2022-05-16T10:04:01Z</time>
      </trkpt>
      <trkpt lat="43.46078" lon="1.43783">
        <ele>244.5</ele>
        <time>2022-05-16T10:04:02Z</time>
      </trkpt>
      <trkpt lat="43.46073" lon="1.4378">
        <ele>244.4</ele>
        <time>2022-05-16T10:04:03Z</time>
      </trkpt>
      <trkpt lat="43.46068" lon="1.43777">
        <ele>244.2</ele>
        <time>2022-05-16T10:04:04Z</time>
      </trkpt>
      <trkpt lat="43.46063" lon="1.43773">
        <ele>244</ele>
        <time>2022-05-16T10:04:05Z</time>
      </trkpt>
      <trkpt lat="43.46058" lon="1.4377">
        <ele>243.8</ele>
        <time>2022-05-16T10:04:06Z</time>
      </trkpt>
      <trkpt lat="43.46052" lon="1.43767">
        <ele>243.5</ele>
        <time>2022-05-16T10:04:07Z</time>
      </trkpt>
      <trkpt lat="43.46048" lon="1.43762">
        <ele>243.4</ele>
        <time>2022-05-16T10:04:08Z</time>
      </trkpt>
      <trkpt lat="43.46045" lon="1.43755">
        <ele>243.3</ele>
        <time>2022-05-16T10:04:09Z</time>
      </trkpt>
      <trkpt lat="43.46047" lon="1.43747">
        <ele>243.4</ele>
        <time>2022-05-16T10:04:10Z</time>
      </trkpt>
      <trkpt lat="43.46049" lon="1.43742">
        <ele>243.4</ele>
        <time>2022-05-16T10:04:11Z</time>
      </trkpt>
      <trkpt lat="43.46051" lon="1.43737">
        <ele>243.5</ele>
        <time>2022-05-16T10:04:12Z</time>
      </trkpt>
      <trkpt lat="43.46053" lon="1.43732">
        <ele>243.6</ele>
        <time>2022-05-16T10:04:13Z</time>
      </trkpt>
      <trkpt lat="43.46053" lon="1.43725">
        <ele>243.7</ele>
        <time>2022-05-16T10:04:14Z</time>
      </trkpt>
      <trkpt lat="43.46054" lon="1.43718">
        <ele>243.7</ele>
        <time>2022-05-16T10:04:15Z</time>
      </trkpt>
      <trkpt lat="43.46056" lon="1.43712">
        <ele>243.8</ele>
        <time>2022-05-16T10:04:16Z</time>
      </trkpt>
      <trkpt lat="43.46058" lon="1.43705">
        <ele>243.8</ele>
        <time>2022-05-16T10:04:17Z</time>
      </trkpt>
      <trkpt lat="43.4606" lon="1.43698">
        <ele>243.9</ele>
        <time>2022-05-16T10:04:18Z</time>
      </trkpt>
      <trkpt lat="43.46061" lon="1.4369">
        <ele>243.9</ele>
        <time>2022-05-16T10:04:19Z</time>
      </trkpt>
      <trkpt lat="43.46063" lon="1.43684">
        <ele>243.9</ele>
        <time>2022-05-16T10:04:20Z</time>
      </trkpt>
      <trkpt lat="43.46064" lon="1.43677">
        <ele>243.9</ele>
        <time>2022-05-16T10:04:21Z</time>
      </trkpt>
      <trkpt lat="43.46067" lon="1.43671">
        <ele>243.9</ele>
        <time>2022-05-16T10:04:22Z</time>
      </trkpt>
      <trkpt lat="43.46068" lon="1.43664">
        <ele>243.9</ele>
        <time>2022-05-16T10:04:23Z</time>
      </trkpt>
      <trkpt lat="43.4607" lon="1.43657">
        <ele>243.9</ele>
        <time>2022-05-16T10:04:24Z</time>
      </trkpt>
      <trkpt lat="43.46072" lon="1.43649">
        <ele>243.9</ele>
        <time>2022-05-16T10:04:25Z</time>
      </trkpt>
      <trkpt lat="43.46073" lon="1.43642">
        <ele>243.9</ele>
        <time>2022-05-16T10:04:26Z</time>
      </trkpt>
      <trkpt lat="43.46075" lon="1.43635">
        <ele>244</ele>
        <time>2022-05-16T10:04:27Z</time>
      </trkpt>
      <trkpt lat="43.46078" lon="1.43628">
        <ele>244</ele>
        <time>2022-05-16T10:04:28Z</time>
      </trkpt>
      <trkpt lat="43.46081" lon="1.43621">
        <ele>244.1</ele>
        <time>2022-05-16T10:04:29Z</time>
      </trkpt>
      <trkpt lat="43.46084" lon="1.43614">
        <ele>244.1</ele>
        <time>2022-05-16T10:04:30Z</time>
      </trkpt>
      <trkpt lat="43.46087" lon="1.43607">
        <ele>244.1</ele>
        <time>2022-05-16T10:04:31Z</time>
      </trkpt>
      <trkpt lat="43.4609" lon="1.43601">
        <ele>244.2</ele>
        <time>2022-05-16T10:04:32Z</time>
      </trkpt>
      <trkpt lat="43.46093" lon="1.43595">
        <ele>244.3</ele>
        <time>2022-05-16T10:04:33Z</time>
      </trkpt>
      <trkpt lat="43.46097" lon="1.43589">
        <ele>244.3</ele>
        <time>2022-05-16T10:04:34Z</time>
      </trkpt>
      <trkpt lat="43.46101" lon="1.43583">
        <ele>244.3</ele>
        <time>2022-05-16T10:04:35Z</time>
      </trkpt>
      <trkpt lat="43.46105" lon="1.43578">
        <ele>244.3</ele>
        <time>2022-05-16T10:04:36Z</time>
      </trkpt>
      <trkpt lat="43.46109" lon="1.43573">
        <ele>244.3</ele>
        <time>2022-05-16T10:04:37Z</time>
      </trkpt>
      <trkpt lat="43.46114" lon="1.43568">
        <ele>244.3</ele>
        <time>2022-05-16T10:04:38Z</time>
      </trkpt>
      <trkpt lat="43.46118" lon="1.43563">
        <ele>244.3</ele>
        <time>2022-05-16T10:04:39Z</time>
      </trkpt>
      <trkpt lat="43.46122" lon="1.43557">
        <ele>244.3</ele>
        <time>2022-05-16T10:04:40Z</time>
      </trkpt>
      <trkpt lat="43.46126" lon="1.43551">
        <ele>244.2</ele>
        <time>2022-05-16T10:04:41Z</time>
      </trkpt>
      <trkpt lat="43.4613" lon="1.43545">
        <ele>244.1</ele>
        <time>2022-05-16T10:04:42Z</time>
      </trkpt>
      <trkpt lat="43.46134" lon="1.4354">
        <ele>244</ele>
        <time>2022-05-16T10:04:43Z</time>
      </trkpt>
      <trkpt lat="43.46139" lon="1.43534">
        <ele>243.8</ele>
        <time>2022-05-16T10:04:44Z</time>
      </trkpt>
      <trkpt lat="43.46143" lon="1.43527">
        <ele>243.6</ele>
        <time>2022-05-16T10:04:45Z</time>
      </trkpt>
      <trkpt lat="43.46146" lon="1.4352">
        <ele>243.5</ele>
        <time>2022-05-16T10:04:46Z</time>
      </trkpt>
      <trkpt lat="43.4615" lon="1.43513">
        <ele>243.3</ele>
        <time>2022-05-16T10:04:47Z</time>
      </trkpt>
      <trkpt lat="43.46153" lon="1.43505">
        <ele>243.1</ele>
        <time>2022-05-16T10:04:48Z</time>
      </trkpt>
      <trkpt lat="43.46156" lon="1.43497">
        <ele>243</ele>
        <time>2022-05-16T10:04:49Z</time>
      </trkpt>
      <trkpt lat="43.46159" lon="1.43489">
        <ele>242.8</ele>
        <time>2022-05-16T10:04:50Z</time>
      </trkpt>
      <trkpt lat="43.46162" lon="1.43481">
        <ele>242.6</ele>
        <time>2022-05-16T10:04:51Z</time>
      </trkpt>
      <trkpt lat="43.46164" lon="1.43473">
        <ele>242.4</ele>
        <time>2022-05-16T10:04:52Z</time>
      </trkpt>
      <trkpt lat="43.46167" lon="1.43465">
        <ele>242.2</ele>
        <time>2022-05-16T10:04:53Z</time>
      </trkpt>
      <trkpt lat="43.46171" lon="1.43457">
        <ele>241.9</ele>
        <time>2022-05-16T10:04:54Z</time>
      </trkpt>
      <trkpt lat="43.46174" lon="1.43449">
        <ele>241.6</ele>
        <time>2022-05-16T10:04:55Z</time>
      </trkpt>
      <trkpt lat="43.46176" lon="1.4344">
        <ele>241.3</ele>
        <time>2022-05-16T10:04:56Z</time>
      </trkpt>
      <trkpt lat="43.46179" lon="1.43432">
        <ele>241</ele>
        <time>2022-05-16T10:04:57Z</time>
      </trkpt>
      <trkpt lat="43.46181" lon="1.43423">
        <ele>240.7</ele>
        <time>2022-05-16T10:04:58Z</time>
      </trkpt>
      <trkpt lat="43.46184" lon="1.43414">
        <ele>240.5</ele>
        <time>2022-05-16T10:04:59Z</time>
      </trkpt>
      <trkpt lat="43.46187" lon="1.43405">
        <ele>240.2</ele>
        <time>2022-05-16T10:05:00Z</time>
      </trkpt>
      <trkpt lat="43.4619" lon="1.43396">
        <ele>239.9</ele>
        <time>2022-05-16T10:05:01Z</time>
      </trkpt>
      <trkpt lat="43.46193" lon="1.43387">
        <ele>239.6</ele>
        <time>2022-05-16T10:05:02Z</time>
      </trkpt>
      <trkpt lat="43.46195" lon="1.43378">
        <ele>239.3</ele>
        <time>2022-05-16T10:05:03Z</time>
      </trkpt>
      <trkpt lat="43.46198" lon="1.43368">
        <ele>239</ele>
        <time>2022-05-16T10:05:04Z</time>
      </trkpt>
      <trkpt lat="43.462" lon="1.43359">
        <ele>238.8</ele>
        <time>2022-05-16T10:05:05Z</time>
      </trkpt>
      <trkpt lat="43.46203" lon="1.4335">
        <ele>238.5</ele>
        <time>2022-05-16T10:05:06Z</time>
      </trkpt>
      <trkpt lat="43.46206" lon="1.43341">
        <ele>238.2</ele>
        <time>2022-05-16T10:05:07Z</time>
      </trkpt>
      <trkpt lat="43.46209" lon="1.43332">
        <ele>238</ele>
        <time>2022-05-16T10:05:08Z</time>
      </trkpt>
      <trkpt lat="43.46211" lon="1.43322">
        <ele>237.7</ele>
        <time>2022-05-16T10:05:09Z</time>
      </trkpt>
      <trkpt lat="43.46214" lon="1.43313">
        <ele>237.4</ele>
        <time>2022-05-16T10:05:10Z</time>
      </trkpt>
      <trkpt lat="43.46216" lon="1.43303">
        <ele>236.8</ele>
        <time>2022-05-16T10:05:11Z</time>
      </trkpt>
      <trkpt lat="43.46218" lon="1.43297">
        <ele>236.2</ele>
        <time>2022-05-16T10:05:12Z</time>
      </trkpt>
      <trkpt lat="43.46223" lon="1.43298">
        <ele>235.6</ele>
        <time>2022-05-16T10:05:13Z</time>
      </trkpt>
      <trkpt lat="43.46228" lon="1.433">
        <ele>234.8</ele>
        <time>2022-05-16T10:05:14Z</time>
      </trkpt>
      <trkpt lat="43.46234" lon="1.43307">
        <ele>233.9</ele>
        <time>2022-05-16T10:05:15Z</time>
      </trkpt>
      <trkpt lat="43.4624" lon="1.43314">
        <ele>233.1</ele>
        <time>2022-05-16T10:05:16Z</time>
      </trkpt>
      <trkpt lat="43.46246" lon="1.43321">
        <ele>232.3</ele>
        <time>2022-05-16T10:05:17Z</time>
      </trkpt>
      <trkpt lat="43.46252" lon="1.4333">
        <ele>231.6</ele>
        <time>2022-05-16T10:05:18Z</time>
      </trkpt>
      <trkpt lat="43.46257" lon="1.4334">
        <ele>231.1</ele>
        <time>2022-05-16T10:05:19Z</time>
      </trkpt>
      <trkpt lat="43.46261" lon="1.43351">
        <ele>230.7</ele>
        <time>2022-05-16T10:05:20Z</time>
      </trkpt>
      <trkpt lat="43.46265" lon="1.43357">
        <ele>230.4</ele>
        <time>2022-05-16T10:05:21Z</time>
      </trkpt>
      <trkpt lat="43.46267" lon="1.43364">
        <ele>230.1</ele>
        <time>2022-05-16T10:05:22Z</time>
      </trkpt>
      <trkpt lat="43.46269" lon="1.4337">
        <ele>229.9</ele>
        <time>2022-05-16T10:05:23Z</time>
      </trkpt>
      <trkpt lat="43.46271" lon="1.43377">
        <ele>229.9</ele>
        <time>2022-05-16T10:05:24Z</time>
      </trkpt>
      <trkpt lat="43.46276" lon="1.4338">
        <ele>229.9</ele>
        <time>2022-05-16T10:05:25Z</time>
      </trkpt>
      <trkpt lat="43.46281" lon="1.43382">
        <ele>229.9</ele>
        <time>2022-05-16T10:05:26Z</time>
      </trkpt>
      <trkpt lat="43.46286" lon="1.43385">
        <ele>230.1</ele>
        <time>2022-05-16T10:05:27Z</time>
      </trkpt>
      <trkpt lat="43.46291" lon="1.43387">
        <ele>230.3</ele>
        <time>2022-05-16T10:05:28Z</time>
      </trkpt>
      <trkpt lat="43.46297" lon="1.43387">
        <ele>230.5</ele>
        <time>2022-05-16T10:05:29Z</time>
      </trkpt>
      <trkpt lat="43.46303" lon="1.43384">
        <ele>230.8</ele>
        <time>2022-05-16T10:05:30Z</time>
      </trkpt>
      <trkpt lat="43.46309" lon="1.43379">
        <ele>231.2</ele>
        <time>2022-05-16T10:05:31Z</time>
      </trkpt>
      <trkpt lat="43.46318" lon="1.43369">
        <ele>231.9</ele>
        <time>2022-05-16T10:05:33Z</time>
      </trkpt>
      <trkpt lat="43.46322" lon="1.43364">
        <ele>232.2</ele>
        <time>2022-05-16T10:05:34Z</time>
      </trkpt>
      <trkpt lat="43.46326" lon="1.43358">
        <ele>232.6</ele>
        <time>2022-05-16T10:05:35Z</time>
      </trkpt>
      <trkpt lat="43.46336" lon="1.43347">
        <ele>233.4</ele>
        <time>2022-05-16T10:05:37Z</time>
      </trkpt>
      <trkpt lat="43.4634" lon="1.43341">
        <ele>233.9</ele>
        <time>2022-05-16T10:05:38Z</time>
      </trkpt>
      <trkpt lat="43.46344" lon="1.43335">
        <ele>234.4</ele>
        <time>2022-05-16T10:05:39Z</time>
      </trkpt>
      <trkpt lat="43.46352" lon="1.43324">
        <ele>235.6</ele>
        <time>2022-05-16T10:05:41Z</time>
      </trkpt>
      <trkpt lat="43.46361" lon="1.43314">
        <ele>237</ele>
        <time>2022-05-16T10:05:43Z</time>
      </trkpt>
      <trkpt lat="43.46365" lon="1.43309">
        <ele>237.7</ele>
        <time>2022-05-16T10:05:44Z</time>
      </trkpt>
      <trkpt lat="43.46369" lon="1.43306">
        <ele>238.4</ele>
        <time>2022-05-16T10:05:45Z</time>
      </trkpt>
      <trkpt lat="43.46373" lon="1.43301">
        <ele>239</ele>
        <time>2022-05-16T10:05:46Z</time>
      </trkpt>
      <trkpt lat="43.46377" lon="1.43295">
        <ele>239.8</ele>
        <time>2022-05-16T10:05:47Z</time>
      </trkpt>
      <trkpt lat="43.46382" lon="1.43291">
        <ele>240.4</ele>
        <time>2022-05-16T10:05:48Z</time>
      </trkpt>
      <trkpt lat="43.46385" lon="1.43286">
        <ele>241</ele>
        <time>2022-05-16T10:05:49Z</time>
      </trkpt>
      <trkpt lat="43.46389" lon="1.43281">
        <ele>241.7</ele>
        <time>2022-05-16T10:05:50Z</time>
      </trkpt>
      <trkpt lat="43.46394" lon="1.43277">
        <ele>242.4</ele>
        <time>2022-05-16T10:05:51Z</time>
      </trkpt>
      <trkpt lat="43.46398" lon="1.43272">
        <ele>243.1</ele>
        <time>2022-05-16T10:05:52Z</time>
      </trkpt>
      <trkpt lat="43.46401" lon="1.43268">
        <ele>243.7</ele>
        <time>2022-05-16T10:05:53Z</time>
      </trkpt>
      <trkpt lat="43.46403" lon="1.43264">
        <ele>244</ele>
        <time>2022-05-16T10:05:54Z</time>
      </trkpt>
      <trkpt lat="43.46406" lon="1.43258">
        <ele>244.1</ele>
        <time>2022-05-16T10:05:55Z</time>
      </trkpt>
      <trkpt lat="43.46407" lon="1.43252">
        <ele>244.2</ele>
        <time>2022-05-16T10:05:56Z</time>
      </trkpt>
      <trkpt lat="43.46409" lon="1.43245">
        <ele>244.3</ele>
        <time>2022-05-16T10:05:57Z</time>
      </trkpt>
      <trkpt lat="43.46412" lon="1.4324">
        <ele>244.4</ele>
        <time>2022-05-16T10:05:58Z</time>
      </trkpt>
      <trkpt lat="43.46415" lon="1.43234">
        <ele>244.5</ele>
        <time>2022-05-16T10:05:59Z</time>
      </trkpt>
      <trkpt lat="43.46419" lon="1.43229">
        <ele>244.6</ele>
        <time>2022-05-16T10:06:00Z</time>
      </trkpt>
      <trkpt lat="43.46423" lon="1.43224">
        <ele>244.7</ele>
        <time>2022-05-16T10:06:01Z</time>
      </trkpt>
      <trkpt lat="43.46427" lon="1.43219">
        <ele>244.8</ele>
        <time>2022-05-16T10:06:02Z</time>
      </trkpt>
      <trkpt lat="43.4643" lon="1.43214">
        <ele>244.9</ele>
        <time>2022-05-16T10:06:03Z</time>
      </trkpt>
      <trkpt lat="43.46435" lon="1.4321">
        <ele>245</ele>
        <time>2022-05-16T10:06:04Z</time>
      </trkpt>
      <trkpt lat="43.46439" lon="1.43205">
        <ele>245.1</ele>
        <time>2022-05-16T10:06:05Z</time>
      </trkpt>
      <trkpt lat="43.46443" lon="1.432">
        <ele>245.2</ele>
        <time>2022-05-16T10:06:06Z</time>
      </trkpt>
      <trkpt lat="43.46447" lon="1.43195">
        <ele>245.3</ele>
        <time>2022-05-16T10:06:07Z</time>
      </trkpt>
      <trkpt lat="43.46451" lon="1.4319">
        <ele>245.4</ele>
        <time>2022-05-16T10:06:08Z</time>
      </trkpt>
      <trkpt lat="43.46455" lon="1.43184">
        <ele>245.5</ele>
        <time>2022-05-16T10:06:09Z</time>
      </trkpt>
      <trkpt lat="43.46458" lon="1.43178">
        <ele>245.6</ele>
        <time>2022-05-16T10:06:10Z</time>
      </trkpt>
      <trkpt lat="43.46462" lon="1.43171">
        <ele>245.7</ele>
        <time>2022-05-16T10:06:11Z</time>
      </trkpt>
      <trkpt lat="43.46465" lon="1.43165">
        <ele>245.8</ele>
        <time>2022-05-16T10:06:12Z</time>
      </trkpt>
      <trkpt lat="43.46467" lon="1.43158">
        <ele>245.9</ele>
        <time>2022-05-16T10:06:13Z</time>
      </trkpt>
      <trkpt lat="43.46469" lon="1.43151">
        <ele>246</ele>
        <time>2022-05-16T10:06:14Z</time>
      </trkpt>
      <trkpt lat="43.46472" lon="1.43144">
        <ele>246.1</ele>
        <time>2022-05-16T10:06:15Z</time>
      </trkpt>
      <trkpt lat="43.46474" lon="1.43137">
        <ele>246.2</ele>
        <time>2022-05-16T10:06:16Z</time>
      </trkpt>
      <trkpt lat="43.46477" lon="1.4313">
        <ele>246.3</ele>
        <time>2022-05-16T10:06:17Z</time>
      </trkpt>
      <trkpt lat="43.46478" lon="1.43123">
        <ele>246.4</ele>
        <time>2022-05-16T10:06:18Z</time>
      </trkpt>
      <trkpt lat="43.46479" lon="1.43116">
        <ele>246.5</ele>
        <time>2022-05-16T10:06:19Z</time>
      </trkpt>
      <trkpt lat="43.4648" lon="1.43108">
        <ele>246.6</ele>
        <time>2022-05-16T10:06:20Z</time>
      </trkpt>
      <trkpt lat="43.46481" lon="1.43101">
        <ele>246.7</ele>
        <time>2022-05-16T10:06:21Z</time>
      </trkpt>
      <trkpt lat="43.46479" lon="1.43089">
        <ele>246.9</ele>
        <time>2022-05-16T10:06:22Z</time>
      </trkpt>
      <trkpt lat="43.46479" lon="1.43081">
        <ele>247</ele>
        <time>2022-05-16T10:06:23Z</time>
      </trkpt>
      <trkpt lat="43.46479" lon="1.43073">
        <ele>247.1</ele>
        <time>2022-05-16T10:06:24Z</time>
      </trkpt>
      <trkpt lat="43.4648" lon="1.43067">
        <ele>247.2</ele>
        <time>2022-05-16T10:06:25Z</time>
      </trkpt>
      <trkpt lat="43.46481" lon="1.4306">
        <ele>247.3</ele>
        <time>2022-05-16T10:06:26Z</time>
      </trkpt>
      <trkpt lat="43.46479" lon="1.43054">
        <ele>247.4</ele>
        <time>2022-05-16T10:06:27Z</time>
      </trkpt>
      <trkpt lat="43.46477" lon="1.43049">
        <ele>238.5</ele>
        <time>2022-05-16T10:06:28Z</time>
      </trkpt>
      <trkpt lat="43.46475" lon="1.43044">
        <ele>238.7</ele>
        <time>2022-05-16T10:06:29Z</time>
      </trkpt>
      <trkpt lat="43.46475" lon="1.43037">
        <ele>238.8</ele>
        <time>2022-05-16T10:06:30Z</time>
      </trkpt>
      <trkpt lat="43.46472" lon="1.43031">
        <ele>239</ele>
        <time>2022-05-16T10:06:31Z</time>
      </trkpt>
      <trkpt lat="43.46471" lon="1.43025">
        <ele>239.1</ele>
        <time>2022-05-16T10:06:32Z</time>
      </trkpt>
      <trkpt lat="43.46468" lon="1.43019">
        <ele>239.1</ele>
        <time>2022-05-16T10:06:33Z</time>
      </trkpt>
      <trkpt lat="43.46466" lon="1.43014">
        <ele>239.2</ele>
        <time>2022-05-16T10:06:34Z</time>
      </trkpt>
      <trkpt lat="43.46463" lon="1.43008">
        <ele>239.2</ele>
        <time>2022-05-16T10:06:35Z</time>
      </trkpt>
      <trkpt lat="43.4646" lon="1.43002">
        <ele>239.2</ele>
        <time>2022-05-16T10:06:36Z</time>
      </trkpt>
      <trkpt lat="43.46455" lon="1.42998">
        <ele>239.2</ele>
        <time>2022-05-16T10:06:37Z</time>
      </trkpt>
      <trkpt lat="43.46451" lon="1.42994">
        <ele>239.3</ele>
        <time>2022-05-16T10:06:38Z</time>
      </trkpt>
      <trkpt lat="43.46449" lon="1.42991">
        <ele>239.3</ele>
        <time>2022-05-16T10:06:39Z</time>
      </trkpt>
      <trkpt lat="43.46447" lon="1.42985">
        <ele>239.4</ele>
        <time>2022-05-16T10:06:40Z</time>
      </trkpt>
      <trkpt lat="43.46445" lon="1.42981">
        <ele>239.5</ele>
        <time>2022-05-16T10:06:41Z</time>
      </trkpt>
      <trkpt lat="43.46442" lon="1.42978">
        <ele>239.5</ele>
        <time>2022-05-16T10:06:42Z</time>
      </trkpt>
      <trkpt lat="43.46438" lon="1.42973">
        <ele>239.5</ele>
        <time>2022-05-16T10:06:43Z</time>
      </trkpt>
      <trkpt lat="43.46435" lon="1.42968">
        <ele>239.2</ele>
        <time>2022-05-16T10:06:44Z</time>
      </trkpt>
      <trkpt lat="43.46431" lon="1.42965">
        <ele>238.9</ele>
        <time>2022-05-16T10:06:45Z</time>
      </trkpt>
      <trkpt lat="43.46426" lon="1.42964">
        <ele>238.4</ele>
        <time>2022-05-16T10:06:46Z</time>
      </trkpt>
      <trkpt lat="43.4642" lon="1.42961">
        <ele>237.6</ele>
        <time>2022-05-16T10:06:47Z</time>
      </trkpt>
      <trkpt lat="43.46416" lon="1.42957">
        <ele>236.9</ele>
        <time>2022-05-16T10:06:48Z</time>
      </trkpt>
      <trkpt lat="43.46412" lon="1.42954">
        <ele>236.4</ele>
        <time>2022-05-16T10:06:49Z</time>
      </trkpt>
      <trkpt lat="43.46409" lon="1.42952">
        <ele>235.9</ele>
        <time>2022-05-16T10:06:50Z</time>
      </trkpt>
      <trkpt lat="43.46407" lon="1.42945">
        <ele>235.4</ele>
        <time>2022-05-16T10:06:51Z</time>
      </trkpt>
      <trkpt lat="43.46405" lon="1.42938">
        <ele>234.9</ele>
        <time>2022-05-16T10:06:52Z</time>
      </trkpt>
      <trkpt lat="43.46404" lon="1.42932">
        <ele>234.5</ele>
        <time>2022-05-16T10:06:53Z</time>
      </trkpt>
      <trkpt lat="43.46404" lon="1.42927">
        <ele>234.2</ele>
        <time>2022-05-16T10:06:54Z</time>
      </trkpt>
      <trkpt lat="43.46402" lon="1.42924">
        <ele>233.9</ele>
        <time>2022-05-16T10:06:55Z</time>
      </trkpt>
      <trkpt lat="43.464" lon="1.42923">
        <ele>233.7</ele>
        <time>2022-05-16T10:06:56Z</time>
      </trkpt>
      <trkpt lat="43.46395" lon="1.42921">
        <ele>233.3</ele>
        <time>2022-05-16T10:06:57Z</time>
      </trkpt>
      <trkpt lat="43.4639" lon="1.42917">
        <ele>232.7</ele>
        <time>2022-05-16T10:06:58Z</time>
      </trkpt>
      <trkpt lat="43.46388" lon="1.42913">
        <ele>232.4</ele>
        <time>2022-05-16T10:06:59Z</time>
      </trkpt>
      <trkpt lat="43.46387" lon="1.42907">
        <ele>232</ele>
        <time>2022-05-16T10:07:00Z</time>
      </trkpt>
      <trkpt lat="43.46386" lon="1.429">
        <ele>231.6</ele>
        <time>2022-05-16T10:07:01Z</time>
      </trkpt>
      <trkpt lat="43.46384" lon="1.42896">
        <ele>231.3</ele>
        <time>2022-05-16T10:07:02Z</time>
      </trkpt>
      <trkpt lat="43.46382" lon="1.42892">
        <ele>231.1</ele>
        <time>2022-05-16T10:07:03Z</time>
      </trkpt>
      <trkpt lat="43.4638" lon="1.42886">
        <ele>230.8</ele>
        <time>2022-05-16T10:07:04Z</time>
      </trkpt>
      <trkpt lat="43.4638" lon="1.42881">
        <ele>230.5</ele>
        <time>2022-05-16T10:07:05Z</time>
      </trkpt>
      <trkpt lat="43.46381" lon="1.42876">
        <ele>230.3</ele>
        <time>2022-05-16T10:07:06Z</time>
      </trkpt>
      <trkpt lat="43.46379" lon="1.42873">
        <ele>230.2</ele>
        <time>2022-05-16T10:07:07Z</time>
      </trkpt>
      <trkpt lat="43.46378" lon="1.42869">
        <ele>230</ele>
        <time>2022-05-16T10:07:08Z</time>
      </trkpt>
      <trkpt lat="43.46376" lon="1.42864">
        <ele>229.9</ele>
        <time>2022-05-16T10:07:09Z</time>
      </trkpt>
      <trkpt lat="43.46373" lon="1.4286">
        <ele>229.7</ele>
        <time>2022-05-16T10:07:10Z</time>
      </trkpt>
      <trkpt lat="43.46369" lon="1.42854">
        <ele>229.6</ele>
        <time>2022-05-16T10:07:11Z</time>
      </trkpt>
      <trkpt lat="43.46368" lon="1.42847">
        <ele>229.5</ele>
        <time>2022-05-16T10:07:12Z</time>
      </trkpt>
      <trkpt lat="43.46366" lon="1.42839">
        <ele>229.5</ele>
        <time>2022-05-16T10:07:13Z</time>
      </trkpt>
      <trkpt lat="43.46363" lon="1.42832">
        <ele>229.6</ele>
        <time>2022-05-16T10:07:14Z</time>
      </trkpt>
      <trkpt lat="43.4636" lon="1.42825">
        <ele>229.8</ele>
        <time>2022-05-16T10:07:15Z</time>
      </trkpt>
      <trkpt lat="43.46359" lon="1.42818">
        <ele>230.1</ele>
        <time>2022-05-16T10:07:16Z</time>
      </trkpt>
      <trkpt lat="43.46358" lon="1.42811">
        <ele>230.4</ele>
        <time>2022-05-16T10:07:17Z</time>
      </trkpt>
      <trkpt lat="43.46358" lon="1.42805">
        <ele>230.7</ele>
        <time>2022-05-16T10:07:18Z</time>
      </trkpt>
      <trkpt lat="43.46358" lon="1.428">
        <ele>231</ele>
        <time>2022-05-16T10:07:19Z</time>
      </trkpt>
      <trkpt lat="43.46356" lon="1.42794">
        <ele>231.4</ele>
        <time>2022-05-16T10:07:20Z</time>
      </trkpt>
      <trkpt lat="43.46355" lon="1.42788">
        <ele>231.8</ele>
        <time>2022-05-16T10:07:21Z</time>
      </trkpt>
      <trkpt lat="43.46354" lon="1.42784">
        <ele>232.1</ele>
        <time>2022-05-16T10:07:22Z</time>
      </trkpt>
      <trkpt lat="43.4635" lon="1.42781">
        <ele>232.6</ele>
        <time>2022-05-16T10:07:23Z</time>
      </trkpt>
      <trkpt lat="43.46345" lon="1.42778">
        <ele>233.1</ele>
        <time>2022-05-16T10:07:24Z</time>
      </trkpt>
      <trkpt lat="43.46341" lon="1.42775">
        <ele>233.6</ele>
        <time>2022-05-16T10:07:25Z</time>
      </trkpt>
      <trkpt lat="43.46337" lon="1.42771">
        <ele>234.1</ele>
        <time>2022-05-16T10:07:26Z</time>
      </trkpt>
      <trkpt lat="43.46333" lon="1.4277">
        <ele>234.5</ele>
        <time>2022-05-16T10:07:27Z</time>
      </trkpt>
      <trkpt lat="43.46331" lon="1.42767">
        <ele>234.8</ele>
        <time>2022-05-16T10:07:28Z</time>
      </trkpt>
      <trkpt lat="43.46329" lon="1.42763">
        <ele>235.1</ele>
        <time>2022-05-16T10:07:29Z</time>
      </trkpt>
      <trkpt lat="43.46327" lon="1.4276">
        <ele>235.4</ele>
        <time>2022-05-16T10:07:30Z</time>
      </trkpt>
      <trkpt lat="43.46325" lon="1.42755">
        <ele>235.7</ele>
        <time>2022-05-16T10:07:31Z</time>
      </trkpt>
      <trkpt lat="43.46324" lon="1.42751">
        <ele>236.6</ele>
        <time>2022-05-16T10:07:32Z</time>
      </trkpt>
      <trkpt lat="43.46324" lon="1.42745">
        <ele>236.8</ele>
        <time>2022-05-16T10:07:33Z</time>
      </trkpt>
      <trkpt lat="43.46324" lon="1.42742">
        <ele>236.8</ele>
        <time>2022-05-16T10:07:34Z</time>
      </trkpt>
      <trkpt lat="43.46323" lon="1.42737">
        <ele>237</ele>
        <time>2022-05-16T10:07:35Z</time>
      </trkpt>
      <trkpt lat="43.46322" lon="1.42734">
        <ele>237.1</ele>
        <time>2022-05-16T10:07:36Z</time>
      </trkpt>
      <trkpt lat="43.46325" lon="1.42734">
        <ele>237.2</ele>
        <time>2022-05-16T10:07:37Z</time>
      </trkpt>
      <trkpt lat="43.46329" lon="1.42731">
        <ele>237.4</ele>
        <time>2022-05-16T10:07:39Z</time>
      </trkpt>
      <trkpt lat="43.4633" lon="1.42729">
        <ele>237.5</ele>
        <time>2022-05-16T10:07:40Z</time>
      </trkpt>
      <trkpt lat="43.46332" lon="1.42725">
        <ele>237.7</ele>
        <time>2022-05-16T10:07:41Z</time>
      </trkpt>
      <trkpt lat="43.46335" lon="1.42723">
        <ele>238</ele>
        <time>2022-05-16T10:07:42Z</time>
      </trkpt>
      <trkpt lat="43.46338" lon="1.4272">
        <ele>238.2</ele>
        <time>2022-05-16T10:07:43Z</time>
      </trkpt>
      <trkpt lat="43.46341" lon="1.42716">
        <ele>238.5</ele>
        <time>2022-05-16T10:07:44Z</time>
      </trkpt>
      <trkpt lat="43.46344" lon="1.42715">
        <ele>238.8</ele>
        <time>2022-05-16T10:07:45Z</time>
      </trkpt>
      <trkpt lat="43.46346" lon="1.42712">
        <ele>239.1</ele>
        <time>2022-05-16T10:07:46Z</time>
      </trkpt>
      <trkpt lat="43.46347" lon="1.42707">
        <ele>239.5</ele>
        <time>2022-05-16T10:07:47Z</time>
      </trkpt>
      <trkpt lat="43.46351" lon="1.42706">
        <ele>239.8</ele>
        <time>2022-05-16T10:07:48Z</time>
      </trkpt>
      <trkpt lat="43.46355" lon="1.42705">
        <ele>240.1</ele>
        <time>2022-05-16T10:07:49Z</time>
      </trkpt>
      <trkpt lat="43.46358" lon="1.42701">
        <ele>240.5</ele>
        <time>2022-05-16T10:07:50Z</time>
      </trkpt>
      <trkpt lat="43.4636" lon="1.42697">
        <ele>240.8</ele>
        <time>2022-05-16T10:07:51Z</time>
      </trkpt>
      <trkpt lat="43.46363" lon="1.42695">
        <ele>241.1</ele>
        <time>2022-05-16T10:07:52Z</time>
      </trkpt>
      <trkpt lat="43.46367" lon="1.42693">
        <ele>241.4</ele>
        <time>2022-05-16T10:07:53Z</time>
      </trkpt>
      <trkpt lat="43.46369" lon="1.42689">
        <ele>241.6</ele>
        <time>2022-05-16T10:07:54Z</time>
      </trkpt>
      <trkpt lat="43.46371" lon="1.42684">
        <ele>241.8</ele>
        <time>2022-05-16T10:07:55Z</time>
      </trkpt>
      <trkpt lat="43.46373" lon="1.42679">
        <ele>242</ele>
        <time>2022-05-16T10:07:56Z</time>
      </trkpt>
      <trkpt lat="43.46376" lon="1.42676">
        <ele>242.2</ele>
        <time>2022-05-16T10:07:57Z</time>
      </trkpt>
      <trkpt lat="43.4638" lon="1.42673">
        <ele>242.4</ele>
        <time>2022-05-16T10:07:58Z</time>
      </trkpt>
      <trkpt lat="43.46383" lon="1.42664">
        <ele>242.7</ele>
        <time>2022-05-16T10:07:59Z</time>
      </trkpt>
      <trkpt lat="43.46385" lon="1.42661">
        <ele>242.9</ele>
        <time>2022-05-16T10:08:00Z</time>
      </trkpt>
      <trkpt lat="43.46388" lon="1.42656">
        <ele>243.1</ele>
        <time>2022-05-16T10:08:01Z</time>
      </trkpt>
      <trkpt lat="43.46391" lon="1.42652">
        <ele>243.3</ele>
        <time>2022-05-16T10:08:02Z</time>
      </trkpt>
      <trkpt lat="43.46395" lon="1.42649">
        <ele>243.6</ele>
        <time>2022-05-16T10:08:03Z</time>
      </trkpt>
      <trkpt lat="43.46399" lon="1.4265">
        <ele>243.9</ele>
        <time>2022-05-16T10:08:04Z</time>
      </trkpt>
      <trkpt lat="43.46402" lon="1.42651">
        <ele>244.2</ele>
        <time>2022-05-16T10:08:05Z</time>
      </trkpt>
      <trkpt lat="43.46406" lon="1.4265">
        <ele>244.6</ele>
        <time>2022-05-16T10:08:06Z</time>
      </trkpt>
      <trkpt lat="43.4641" lon="1.4265">
        <ele>244.9</ele>
        <time>2022-05-16T10:08:07Z</time>
      </trkpt>
      <trkpt lat="43.46413" lon="1.42648">
        <ele>245.3</ele>
        <time>2022-05-16T10:08:08Z</time>
      </trkpt>
      <trkpt lat="43.46417" lon="1.42644">
        <ele>245.7</ele>
        <time>2022-05-16T10:08:09Z</time>
      </trkpt>
      <trkpt lat="43.4642" lon="1.42641">
        <ele>246</ele>
        <time>2022-05-16T10:08:10Z</time>
      </trkpt>
      <trkpt lat="43.46423" lon="1.42637">
        <ele>246.4</ele>
        <time>2022-05-16T10:08:11Z</time>
      </trkpt>
      <trkpt lat="43.46426" lon="1.42633">
        <ele>246.8</ele>
        <time>2022-05-16T10:08:12Z</time>
      </trkpt>
      <trkpt lat="43.46431" lon="1.42633">
        <ele>247.3</ele>
        <time>2022-05-16T10:08:13Z</time>
      </trkpt>
      <trkpt lat="43.46435" lon="1.42633">
        <ele>247.7</ele>
        <time>2022-05-16T10:08:14Z</time>
      </trkpt>
      <trkpt lat="43.46439" lon="1.42634">
        <ele>248.1</ele>
        <time>2022-05-16T10:08:15Z</time>
      </trkpt>
      <trkpt lat="43.46443" lon="1.42632">
        <ele>248.6</ele>
        <time>2022-05-16T10:08:16Z</time>
      </trkpt>
      <trkpt lat="43.46446" lon="1.42634">
        <ele>249</ele>
        <time>2022-05-16T10:08:17Z</time>
      </trkpt>
      <trkpt lat="43.46449" lon="1.42636">
        <ele>249.4</ele>
        <time>2022-05-16T10:08:18Z</time>
      </trkpt>
      <trkpt lat="43.46452" lon="1.42639">
        <ele>249.8</ele>
        <time>2022-05-16T10:08:19Z</time>
      </trkpt>
      <trkpt lat="43.46455" lon="1.42639">
        <ele>250.3</ele>
        <time>2022-05-16T10:08:20Z</time>
      </trkpt>
      <trkpt lat="43.4646" lon="1.4264">
        <ele>251</ele>
        <time>2022-05-16T10:08:21Z</time>
      </trkpt>
      <trkpt lat="43.46464" lon="1.4264">
        <ele>251.6</ele>
        <time>2022-05-16T10:08:22Z</time>
      </trkpt>
      <trkpt lat="43.46468" lon="1.42642">
        <ele>252.1</ele>
        <time>2022-05-16T10:08:23Z</time>
      </trkpt>
      <trkpt lat="43.46472" lon="1.42643">
        <ele>252.6</ele>
        <time>2022-05-16T10:08:24Z</time>
      </trkpt>
      <trkpt lat="43.46474" lon="1.42644">
        <ele>252.9</ele>
        <time>2022-05-16T10:08:25Z</time>
      </trkpt>
      <trkpt lat="43.46478" lon="1.42645">
        <ele>253.3</ele>
        <time>2022-05-16T10:08:26Z</time>
      </trkpt>
      <trkpt lat="43.4648" lon="1.42644">
        <ele>253.4</ele>
        <time>2022-05-16T10:08:27Z</time>
      </trkpt>
      <trkpt lat="43.46484" lon="1.42644">
        <ele>253.7</ele>
        <time>2022-05-16T10:08:28Z</time>
      </trkpt>
      <trkpt lat="43.46488" lon="1.42644">
        <ele>253.9</ele>
        <time>2022-05-16T10:08:29Z</time>
      </trkpt>
      <trkpt lat="43.46491" lon="1.42644">
        <ele>254.1</ele>
        <time>2022-05-16T10:08:30Z</time>
      </trkpt>
      <trkpt lat="43.46495" lon="1.42644">
        <ele>254.2</ele>
        <time>2022-05-16T10:08:31Z</time>
      </trkpt>
      <trkpt lat="43.46499" lon="1.42644">
        <ele>254.2</ele>
        <time>2022-05-16T10:08:32Z</time>
      </trkpt>
      <trkpt lat="43.46503" lon="1.42644">
        <ele>254.2</ele>
        <time>2022-05-16T10:08:33Z</time>
      </trkpt>
      <trkpt lat="43.46507" lon="1.42646">
        <ele>254.2</ele>
        <time>2022-05-16T10:08:34Z</time>
      </trkpt>
      <trkpt lat="43.4651" lon="1.42647">
        <ele>254.1</ele>
        <time>2022-05-16T10:08:35Z</time>
      </trkpt>
      <trkpt lat="43.46515" lon="1.42647">
        <ele>253.9</ele>
        <time>2022-05-16T10:08:36Z</time>
      </trkpt>
      <trkpt lat="43.46519" lon="1.42645">
        <ele>253.7</ele>
        <time>2022-05-16T10:08:37Z</time>
      </trkpt>
      <trkpt lat="43.46523" lon="1.42643">
        <ele>253.5</ele>
        <time>2022-05-16T10:08:38Z</time>
      </trkpt>
      <trkpt lat="43.46528" lon="1.42639">
        <ele>253.2</ele>
        <time>2022-05-16T10:08:39Z</time>
      </trkpt>
      <trkpt lat="43.46531" lon="1.42634">
        <ele>252.8</ele>
        <time>2022-05-16T10:08:40Z</time>
      </trkpt>
      <trkpt lat="43.46535" lon="1.42629">
        <ele>252.4</ele>
        <time>2022-05-16T10:08:41Z</time>
      </trkpt>
      <trkpt lat="43.46536" lon="1.42624">
        <ele>252</ele>
        <time>2022-05-16T10:08:42Z</time>
      </trkpt>
      <trkpt lat="43.4654" lon="1.42622">
        <ele>251.7</ele>
        <time>2022-05-16T10:08:43Z</time>
      </trkpt>
      <trkpt lat="43.46541" lon="1.42624">
        <ele>251.5</ele>
        <time>2022-05-16T10:08:44Z</time>
      </trkpt>
      <trkpt lat="43.46546" lon="1.42625">
        <ele>250.9</ele>
        <time>2022-05-16T10:08:45Z</time>
      </trkpt>
      <trkpt lat="43.46551" lon="1.42622">
        <ele>250.3</ele>
        <time>2022-05-16T10:08:46Z</time>
      </trkpt>
      <trkpt lat="43.46557" lon="1.42619">
        <ele>249.7</ele>
        <time>2022-05-16T10:08:47Z</time>
      </trkpt>
      <trkpt lat="43.46562" lon="1.42615">
        <ele>248.9</ele>
        <time>2022-05-16T10:08:48Z</time>
      </trkpt>
      <trkpt lat="43.46568" lon="1.42614">
        <ele>248.1</ele>
        <time>2022-05-16T10:08:49Z</time>
      </trkpt>
      <trkpt lat="43.46574" lon="1.42613">
        <ele>247.1</ele>
        <time>2022-05-16T10:08:50Z</time>
      </trkpt>
      <trkpt lat="43.46579" lon="1.42613">
        <ele>246.3</ele>
        <time>2022-05-16T10:08:51Z</time>
      </trkpt>
      <trkpt lat="43.46582" lon="1.42614">
        <ele>245.9</ele>
        <time>2022-05-16T10:08:52Z</time>
      </trkpt>
      <trkpt lat="43.46586" lon="1.42614">
        <ele>245.3</ele>
        <time>2022-05-16T10:08:53Z</time>
      </trkpt>
      <trkpt lat="43.46591" lon="1.4261">
        <ele>244.3</ele>
        <time>2022-05-16T10:08:54Z</time>
      </trkpt>
      <trkpt lat="43.46599" lon="1.42605">
        <ele>243.2</ele>
        <time>2022-05-16T10:08:55Z</time>
      </trkpt>
      <trkpt lat="43.46606" lon="1.426">
        <ele>241.9</ele>
        <time>2022-05-16T10:08:56Z</time>
      </trkpt>
      <trkpt lat="43.46615" lon="1.42595">
        <ele>240.6</ele>
        <time>2022-05-16T10:08:57Z</time>
      </trkpt>
      <trkpt lat="43.46619" lon="1.42595">
        <ele>239.9</ele>
        <time>2022-05-16T10:08:58Z</time>
      </trkpt>
      <trkpt lat="43.46626" lon="1.42588">
        <ele>238.7</ele>
        <time>2022-05-16T10:08:59Z</time>
      </trkpt>
      <trkpt lat="43.46634" lon="1.42585">
        <ele>237.3</ele>
        <time>2022-05-16T10:09:00Z</time>
      </trkpt>
      <trkpt lat="43.46643" lon="1.42582">
        <ele>236</ele>
        <time>2022-05-16T10:09:01Z</time>
      </trkpt>
      <trkpt lat="43.46649" lon="1.42578">
        <ele>234.9</ele>
        <time>2022-05-16T10:09:02Z</time>
      </trkpt>
      <trkpt lat="43.46654" lon="1.42576">
        <ele>234.1</ele>
        <time>2022-05-16T10:09:03Z</time>
      </trkpt>
      <trkpt lat="43.46658" lon="1.42572">
        <ele>233.2</ele>
        <time>2022-05-16T10:09:04Z</time>
      </trkpt>
      <trkpt lat="43.46663" lon="1.42572">
        <ele>232.6</ele>
        <time>2022-05-16T10:09:05Z</time>
      </trkpt>
      <trkpt lat="43.46667" lon="1.42568">
        <ele>231.9</ele>
        <time>2022-05-16T10:09:06Z</time>
      </trkpt>
      <trkpt lat="43.46669" lon="1.42563">
        <ele>231.3</ele>
        <time>2022-05-16T10:09:07Z</time>
      </trkpt>
      <trkpt lat="43.46671" lon="1.42557">
        <ele>230.8</ele>
        <time>2022-05-16T10:09:08Z</time>
      </trkpt>
      <trkpt lat="43.46675" lon="1.42551">
        <ele>230.1</ele>
        <time>2022-05-16T10:09:09Z</time>
      </trkpt>
      <trkpt lat="43.46678" lon="1.42544">
        <ele>229.5</ele>
        <time>2022-05-16T10:09:10Z</time>
      </trkpt>
      <trkpt lat="43.46683" lon="1.42537">
        <ele>228.9</ele>
        <time>2022-05-16T10:09:11Z</time>
      </trkpt>
      <trkpt lat="43.46686" lon="1.42529">
        <ele>228.3</ele>
        <time>2022-05-16T10:09:12Z</time>
      </trkpt>
      <trkpt lat="43.4669" lon="1.42523">
        <ele>227.9</ele>
        <time>2022-05-16T10:09:13Z</time>
      </trkpt>
      <trkpt lat="43.46694" lon="1.42516">
        <ele>227.4</ele>
        <time>2022-05-16T10:09:14Z</time>
      </trkpt>
      <trkpt lat="43.46696" lon="1.42508">
        <ele>227</ele>
        <time>2022-05-16T10:09:15Z</time>
      </trkpt>
      <trkpt lat="43.46699" lon="1.42501">
        <ele>226.7</ele>
        <time>2022-05-16T10:09:16Z</time>
      </trkpt>
      <trkpt lat="43.46704" lon="1.42496">
        <ele>226.3</ele>
        <time>2022-05-16T10:09:17Z</time>
      </trkpt>
      <trkpt lat="43.46707" lon="1.42488">
        <ele>226</ele>
        <time>2022-05-16T10:09:18Z</time>
      </trkpt>
      <trkpt lat="43.46711" lon="1.42481">
        <ele>225.7</ele>
        <time>2022-05-16T10:09:19Z</time>
      </trkpt>
      <trkpt lat="43.46713" lon="1.42474">
        <ele>225.5</ele>
        <time>2022-05-16T10:09:20Z</time>
      </trkpt>
      <trkpt lat="43.46715" lon="1.42466">
        <ele>225.3</ele>
        <time>2022-05-16T10:09:21Z</time>
      </trkpt>
      <trkpt lat="43.46716" lon="1.42459">
        <ele>225.1</ele>
        <time>2022-05-16T10:09:22Z</time>
      </trkpt>
      <trkpt lat="43.4672" lon="1.42453">
        <ele>224.9</ele>
        <time>2022-05-16T10:09:23Z</time>
      </trkpt>
      <trkpt lat="43.46723" lon="1.42446">
        <ele>224.7</ele>
        <time>2022-05-16T10:09:24Z</time>
      </trkpt>
      <trkpt lat="43.46725" lon="1.42438">
        <ele>224.4</ele>
        <time>2022-05-16T10:09:25Z</time>
      </trkpt>
      <trkpt lat="43.46728" lon="1.42431">
        <ele>224.1</ele>
        <time>2022-05-16T10:09:26Z</time>
      </trkpt>
      <trkpt lat="43.46732" lon="1.42425">
        <ele>223.7</ele>
        <time>2022-05-16T10:09:27Z</time>
      </trkpt>
      <trkpt lat="43.46736" lon="1.42422">
        <ele>223.4</ele>
        <time>2022-05-16T10:09:28Z</time>
      </trkpt>
      <trkpt lat="43.46738" lon="1.42415">
        <ele>223</ele>
        <time>2022-05-16T10:09:29Z</time>
      </trkpt>
      <trkpt lat="43.46743" lon="1.42411">
        <ele>222.5</ele>
        <time>2022-05-16T10:09:30Z</time>
      </trkpt>
      <trkpt lat="43.46749" lon="1.42409">
        <ele>221.8</ele>
        <time>2022-05-16T10:09:31Z</time>
      </trkpt>
      <trkpt lat="43.46754" lon="1.42404">
        <ele>221.3</ele>
        <time>2022-05-16T10:09:32Z</time>
      </trkpt>
      <trkpt lat="43.46757" lon="1.42398">
        <ele>220.8</ele>
        <time>2022-05-16T10:09:33Z</time>
      </trkpt>
      <trkpt lat="43.4676" lon="1.42392">
        <ele>220.2</ele>
        <time>2022-05-16T10:09:34Z</time>
      </trkpt>
      <trkpt lat="43.46761" lon="1.42386">
        <ele>219.8</ele>
        <time>2022-05-16T10:09:35Z</time>
      </trkpt>
      <trkpt lat="43.46768" lon="1.42379">
        <ele>218.9</ele>
        <time>2022-05-16T10:09:36Z</time>
      </trkpt>
      <trkpt lat="43.46774" lon="1.42373">
        <ele>218.1</ele>
        <time>2022-05-16T10:09:37Z</time>
      </trkpt>
      <trkpt lat="43.46779" lon="1.42368">
        <ele>217.3</ele>
        <time>2022-05-16T10:09:38Z</time>
      </trkpt>
      <trkpt lat="43.46786" lon="1.42366">
        <ele>216.4</ele>
        <time>2022-05-16T10:09:39Z</time>
      </trkpt>
      <trkpt lat="43.46793" lon="1.42362">
        <ele>215.6</ele>
        <time>2022-05-16T10:09:40Z</time>
      </trkpt>
      <trkpt lat="43.46801" lon="1.42359">
        <ele>214.7</ele>
        <time>2022-05-16T10:09:41Z</time>
      </trkpt>
      <trkpt lat="43.46808" lon="1.42356">
        <ele>214</ele>
        <time>2022-05-16T10:09:42Z</time>
      </trkpt>
      <trkpt lat="43.46813" lon="1.42351">
        <ele>213.3</ele>
        <time>2022-05-16T10:09:43Z</time>
      </trkpt>
      <trkpt lat="43.46818" lon="1.42347">
        <ele>212.7</ele>
        <time>2022-05-16T10:09:44Z</time>
      </trkpt>
      <trkpt lat="43.46823" lon="1.42343">
        <ele>212</ele>
        <time>2022-05-16T10:09:45Z</time>
      </trkpt>
      <trkpt lat="43.46828" lon="1.42336">
        <ele>211.1</ele>
        <time>2022-05-16T10:09:46Z</time>
      </trkpt>
      <trkpt lat="43.46833" lon="1.42329">
        <ele>210.1</ele>
        <time>2022-05-16T10:09:47Z</time>
      </trkpt>
      <trkpt lat="43.46841" lon="1.42325">
        <ele>209</ele>
        <time>2022-05-16T10:09:48Z</time>
      </trkpt>
      <trkpt lat="43.46848" lon="1.42317">
        <ele>207.5</ele>
        <time>2022-05-16T10:09:49Z</time>
      </trkpt>
      <trkpt lat="43.46856" lon="1.42311">
        <ele>206.2</ele>
        <time>2022-05-16T10:09:50Z</time>
      </trkpt>
      <trkpt lat="43.46864" lon="1.42304">
        <ele>204.7</ele>
        <time>2022-05-16T10:09:51Z</time>
      </trkpt>
      <trkpt lat="43.46873" lon="1.42296">
        <ele>203.3</ele>
        <time>2022-05-16T10:09:52Z</time>
      </trkpt>
      <trkpt lat="43.46878" lon="1.4229">
        <ele>202.4</ele>
        <time>2022-05-16T10:09:53Z</time>
      </trkpt>
      <trkpt lat="43.46883" lon="1.42285">
        <ele>201.7</ele>
        <time>2022-05-16T10:09:54Z</time>
      </trkpt>
      <trkpt lat="43.46889" lon="1.42276">
        <ele>200.9</ele>
        <time>2022-05-16T10:09:55Z</time>
      </trkpt>
      <trkpt lat="43.46894" lon="1.42269">
        <ele>200.4</ele>
        <time>2022-05-16T10:09:56Z</time>
      </trkpt>
      <trkpt lat="43.469" lon="1.42263">
        <ele>199.9</ele>
        <time>2022-05-16T10:09:57Z</time>
      </trkpt>
      <trkpt lat="43.46902" lon="1.42258">
        <ele>199.6</ele>
        <time>2022-05-16T10:09:58Z</time>
      </trkpt>
      <trkpt lat="43.46903" lon="1.42252">
        <ele>199.4</ele>
        <time>2022-05-16T10:09:59Z</time>
      </trkpt>
      <trkpt lat="43.46907" lon="1.42247">
        <ele>199</ele>
        <time>2022-05-16T10:10:00Z</time>
      </trkpt>
      <trkpt lat="43.46913" lon="1.42241">
        <ele>198.6</ele>
        <time>2022-05-16T10:10:01Z</time>
      </trkpt>
      <trkpt lat="43.46917" lon="1.42234">
        <ele>198.2</ele>
        <time>2022-05-16T10:10:02Z</time>
      </trkpt>
      <trkpt lat="43.46921" lon="1.42229">
        <ele>197.8</ele>
        <time>2022-05-16T10:10:03Z</time>
      </trkpt>
      <trkpt lat="43.46925" lon="1.42228">
        <ele>197.5</ele>
        <time>2022-05-16T10:10:04Z</time>
      </trkpt>
      <trkpt lat="43.46927" lon="1.42223">
        <ele>197</ele>
        <time>2022-05-16T10:10:05Z</time>
      </trkpt>
      <trkpt lat="43.46928" lon="1.4222">
        <ele>196.8</ele>
        <time>2022-05-16T10:10:06Z</time>
      </trkpt>
      <trkpt lat="43.46932" lon="1.42217">
        <ele>196.2</ele>
        <time>2022-05-16T10:10:07Z</time>
      </trkpt>
      <trkpt lat="43.46938" lon="1.42214">
        <ele>195.4</ele>
        <time>2022-05-16T10:10:08Z</time>
      </trkpt>
      <trkpt lat="43.46945" lon="1.42208">
        <ele>194.4</ele>
        <time>2022-05-16T10:10:09Z</time>
      </trkpt>
      <trkpt lat="43.46952" lon="1.42202">
        <ele>193.3</ele>
        <time>2022-05-16T10:10:10Z</time>
      </trkpt>
      <trkpt lat="43.46959" lon="1.42196">
        <ele>192.2</ele>
        <time>2022-05-16T10:10:11Z</time>
      </trkpt>
      <trkpt lat="43.46966" lon="1.4219">
        <ele>191.2</ele>
        <time>2022-05-16T10:10:12Z</time>
      </trkpt>
      <trkpt lat="43.46975" lon="1.42184">
        <ele>190.1</ele>
        <time>2022-05-16T10:10:13Z</time>
      </trkpt>
      <trkpt lat="43.46984" lon="1.42178">
        <ele>189.1</ele>
        <time>2022-05-16T10:10:14Z</time>
      </trkpt>
      <trkpt lat="43.46992" lon="1.42171">
        <ele>188.5</ele>
        <time>2022-05-16T10:10:15Z</time>
      </trkpt>
      <trkpt lat="43.46999" lon="1.42164">
        <ele>188</ele>
        <time>2022-05-16T10:10:16Z</time>
      </trkpt>
      <trkpt lat="43.47006" lon="1.42158">
        <ele>187.6</ele>
        <time>2022-05-16T10:10:17Z</time>
      </trkpt>
      <trkpt lat="43.47014" lon="1.42159">
        <ele>187.2</ele>
        <time>2022-05-16T10:10:18Z</time>
      </trkpt>
      <trkpt lat="43.47022" lon="1.42162">
        <ele>186.6</ele>
        <time>2022-05-16T10:10:19Z</time>
      </trkpt>
      <trkpt lat="43.47028" lon="1.42161">
        <ele>185.9</ele>
        <time>2022-05-16T10:10:20Z</time>
      </trkpt>
      <trkpt lat="43.47031" lon="1.42157">
        <ele>185.1</ele>
        <time>2022-05-16T10:10:21Z</time>
      </trkpt>
      <trkpt lat="43.47034" lon="1.42157">
        <ele>184.5</ele>
        <time>2022-05-16T10:10:22Z</time>
      </trkpt>
      <trkpt lat="43.47035" lon="1.42151">
        <ele>183.3</ele>
        <time>2022-05-16T10:10:23Z</time>
      </trkpt>
      <trkpt lat="43.47035" lon="1.42148">
        <ele>182.6</ele>
        <time>2022-05-16T10:10:24Z</time>
      </trkpt>
      <trkpt lat="43.47037" lon="1.42144">
        <ele>181.1</ele>
        <time>2022-05-16T10:10:25Z</time>
      </trkpt>
      <trkpt lat="43.47042" lon="1.42142">
        <ele>179.2</ele>
        <time>2022-05-16T10:10:26Z</time>
      </trkpt>
      <trkpt lat="43.47047" lon="1.42141">
        <ele>176.9</ele>
        <time>2022-05-16T10:10:27Z</time>
      </trkpt>
      <trkpt lat="43.4705" lon="1.42138">
        <ele>175.7</ele>
        <time>2022-05-16T10:10:28Z</time>
      </trkpt>
      <trkpt lat="43.47053" lon="1.42136">
        <ele>174.2</ele>
        <time>2022-05-16T10:10:29Z</time>
      </trkpt>
      <trkpt lat="43.47056" lon="1.42137">
        <ele>172.8</ele>
        <time>2022-05-16T10:10:30Z</time>
      </trkpt>
      <trkpt lat="43.47058" lon="1.42134">
        <ele>171.5</ele>
        <time>2022-05-16T10:10:31Z</time>
      </trkpt>
      <trkpt lat="43.47061" lon="1.4213">
        <ele>169.9</ele>
        <time>2022-05-16T10:10:32Z</time>
      </trkpt>
      <trkpt lat="43.47063" lon="1.42127">
        <ele>168.5</ele>
        <time>2022-05-16T10:10:33Z</time>
      </trkpt>
      <trkpt lat="43.47066" lon="1.42127">
        <ele>167.4</ele>
        <time>2022-05-16T10:10:34Z</time>
      </trkpt>
      <trkpt lat="43.47069" lon="1.42128">
        <ele>166.2</ele>
        <time>2022-05-16T10:10:35Z</time>
      </trkpt>
      <trkpt lat="43.47071" lon="1.42127">
        <ele>165.4</ele>
        <time>2022-05-16T10:10:36Z</time>
      </trkpt>
      <trkpt lat="43.47072" lon="1.42128">
        <ele>164.9</ele>
        <time>2022-05-16T10:10:37Z</time>
      </trkpt>
      <trkpt lat="43.47072" lon="1.42129">
        <ele>164.6</ele>
        <time>2022-05-16T10:10:38Z</time>
      </trkpt>
      <trkpt lat="43.47074" lon="1.42132">
        <ele>163.8</ele>
        <time>2022-05-16T10:10:39Z</time>
      </trkpt>
      <trkpt lat="43.47075" lon="1.42136">
        <ele>162.6</ele>
        <time>2022-05-16T10:10:40Z</time>
      </trkpt>
      <trkpt lat="43.47079" lon="1.42142">
        <ele>161.2</ele>
        <time>2022-05-16T10:10:41Z</time>
      </trkpt>
      <trkpt lat="43.47081" lon="1.42144">
        <ele>161.1</ele>
        <time>2022-05-16T10:10:42Z</time>
      </trkpt>
      <trkpt lat="43.47084" lon="1.42143">
        <ele>161.1</ele>
        <time>2022-05-16T10:10:43Z</time>
      </trkpt>
      <trkpt lat="43.47086" lon="1.42143">
        <ele>161</ele>
        <time>2022-05-16T10:10:44Z</time>
      </trkpt>
      <trkpt lat="43.47089" lon="1.42143">
        <ele>161</ele>
        <time>2022-05-16T10:10:45Z</time>
      </trkpt>
      <trkpt lat="43.4709" lon="1.42144">
        <ele>161</ele>
        <time>2022-05-16T10:10:46Z</time>
      </trkpt>
      <trkpt lat="43.47091" lon="1.42146">
        <ele>160.9</ele>
        <time>2022-05-16T10:10:47Z</time>
      </trkpt>
      <trkpt lat="43.47093" lon="1.42144">
        <ele>160.9</ele>
        <time>2022-05-16T10:10:48Z</time>
      </trkpt>
      <trkpt lat="43.47096" lon="1.4214">
        <ele>160.8</ele>
        <time>2022-05-16T10:10:49Z</time>
      </trkpt>
      <trkpt lat="43.47098" lon="1.42134">
        <ele>160.6</ele>
        <time>2022-05-16T10:10:50Z</time>
      </trkpt>
      <trkpt lat="43.47099" lon="1.42125">
        <ele>160.2</ele>
        <time>2022-05-16T10:10:51Z</time>
      </trkpt>
      <trkpt lat="43.47103" lon="1.42119">
        <ele>159.9</ele>
        <time>2022-05-16T10:10:52Z</time>
      </trkpt>
      <trkpt lat="43.47107" lon="1.42114">
        <ele>159.7</ele>
        <time>2022-05-16T10:10:53Z</time>
      </trkpt>
      <trkpt lat="43.47111" lon="1.42108">
        <ele>159.4</ele>
        <time>2022-05-16T10:10:54Z</time>
      </trkpt>
      <trkpt lat="43.47115" lon="1.42102">
        <ele>159.2</ele>
        <time>2022-05-16T10:10:55Z</time>
      </trkpt>
      <trkpt lat="43.47118" lon="1.42096">
        <ele>159.1</ele>
        <time>2022-05-16T10:10:56Z</time>
      </trkpt>
      <trkpt lat="43.47121" lon="1.4209">
        <ele>159</ele>
        <time>2022-05-16T10:10:57Z</time>
      </trkpt>
      <trkpt lat="43.47124" lon="1.42083">
        <ele>158.9</ele>
        <time>2022-05-16T10:10:58Z</time>
      </trkpt>
      <trkpt lat="43.47128" lon="1.42077">
        <ele>158.8</ele>
        <time>2022-05-16T10:10:59Z</time>
      </trkpt>
      <trkpt lat="43.47132" lon="1.42072">
        <ele>158.7</ele>
        <time>2022-05-16T10:11:00Z</time>
      </trkpt>
      <trkpt lat="43.47138" lon="1.42069">
        <ele>158.7</ele>
        <time>2022-05-16T10:11:01Z</time>
      </trkpt>
      <trkpt lat="43.47143" lon="1.42065">
        <ele>158.6</ele>
        <time>2022-05-16T10:11:02Z</time>
      </trkpt>
      <trkpt lat="43.47147" lon="1.4206">
        <ele>158.6</ele>
        <time>2022-05-16T10:11:03Z</time>
      </trkpt>
      <trkpt lat="43.47153" lon="1.42056">
        <ele>158.5</ele>
        <time>2022-05-16T10:11:04Z</time>
      </trkpt>
      <trkpt lat="43.47157" lon="1.42053">
        <ele>158.5</ele>
        <time>2022-05-16T10:11:05Z</time>
      </trkpt>
      <trkpt lat="43.47162" lon="1.42049">
        <ele>158.5</ele>
        <time>2022-05-16T10:11:06Z</time>
      </trkpt>
      <trkpt lat="43.47168" lon="1.42048">
        <ele>158.5</ele>
        <time>2022-05-16T10:11:07Z</time>
      </trkpt>
      <trkpt lat="43.47174" lon="1.42046">
        <ele>158.4</ele>
        <time>2022-05-16T10:11:08Z</time>
      </trkpt>
      <trkpt lat="43.4718" lon="1.42045">
        <ele>158.4</ele>
        <time>2022-05-16T10:11:09Z</time>
      </trkpt>
      <trkpt lat="43.47185" lon="1.42043">
        <ele>158.4</ele>
        <time>2022-05-16T10:11:10Z</time>
      </trkpt>
      <trkpt lat="43.4719" lon="1.42042">
        <ele>158.4</ele>
        <time>2022-05-16T10:11:11Z</time>
      </trkpt>
      <trkpt lat="43.47196" lon="1.42041">
        <ele>158.4</ele>
        <time>2022-05-16T10:11:12Z</time>
      </trkpt>
      <trkpt lat="43.47202" lon="1.42041">
        <ele>158.4</ele>
        <time>2022-05-16T10:11:13Z</time>
      </trkpt>
      <trkpt lat="43.47207" lon="1.4204">
        <ele>158.4</ele>
        <time>2022-05-16T10:11:14Z</time>
      </trkpt>
      <trkpt lat="43.47213" lon="1.42039">
        <ele>158.4</ele>
        <time>2022-05-16T10:11:15Z</time>
      </trkpt>
      <trkpt lat="43.47218" lon="1.42039">
        <ele>158.3</ele>
        <time>2022-05-16T10:11:16Z</time>
      </trkpt>
      <trkpt lat="43.47224" lon="1.42038">
        <ele>158.3</ele>
        <time>2022-05-16T10:11:17Z</time>
      </trkpt>
      <trkpt lat="43.4723" lon="1.42037">
        <ele>158.3</ele>
        <time>2022-05-16T10:11:18Z</time>
      </trkpt>
      <trkpt lat="43.47236" lon="1.42036">
        <ele>158.2</ele>
        <time>2022-05-16T10:11:19Z</time>
      </trkpt>
      <trkpt lat="43.47242" lon="1.42035">
        <ele>158.2</ele>
        <time>2022-05-16T10:11:20Z</time>
      </trkpt>
      <trkpt lat="43.47248" lon="1.42034">
        <ele>158.2</ele>
        <time>2022-05-16T10:11:21Z</time>
      </trkpt>
      <trkpt lat="43.47255" lon="1.42034">
        <ele>158.1</ele>
        <time>2022-05-16T10:11:22Z</time>
      </trkpt>
      <trkpt lat="43.47261" lon="1.42033">
        <ele>158.1</ele>
        <time>2022-05-16T10:11:23Z</time>
      </trkpt>
      <trkpt lat="43.47266" lon="1.42033">
        <ele>158.1</ele>
        <time>2022-05-16T10:11:24Z</time>
      </trkpt>
      <trkpt lat="43.47273" lon="1.42033">
        <ele>158.1</ele>
        <time>2022-05-16T10:11:25Z</time>
      </trkpt>
      <trkpt lat="43.47279" lon="1.42032">
        <ele>158.1</ele>
        <time>2022-05-16T10:11:26Z</time>
      </trkpt>
      <trkpt lat="43.47285" lon="1.42031">
        <ele>158.1</ele>
        <time>2022-05-16T10:11:27Z</time>
      </trkpt>
      <trkpt lat="43.47291" lon="1.4203">
        <ele>158.1</ele>
        <time>2022-05-16T10:11:28Z</time>
      </trkpt>
      <trkpt lat="43.47297" lon="1.4203">
        <ele>158.2</ele>
        <time>2022-05-16T10:11:29Z</time>
      </trkpt>
      <trkpt lat="43.47303" lon="1.4203">
        <ele>158.2</ele>
        <time>2022-05-16T10:11:30Z</time>
      </trkpt>
      <trkpt lat="43.4731" lon="1.42029">
        <ele>158.2</ele>
        <time>2022-05-16T10:11:31Z</time>
      </trkpt>
      <trkpt lat="43.47315" lon="1.42028">
        <ele>158.2</ele>
        <time>2022-05-16T10:11:32Z</time>
      </trkpt>
      <trkpt lat="43.47321" lon="1.42027">
        <ele>158.2</ele>
        <time>2022-05-16T10:11:33Z</time>
      </trkpt>
      <trkpt lat="43.47327" lon="1.42027">
        <ele>158.2</ele>
        <time>2022-05-16T10:11:34Z</time>
      </trkpt>
      <trkpt lat="43.47333" lon="1.42026">
        <ele>158.3</ele>
        <time>2022-05-16T10:11:35Z</time>
      </trkpt>
      <trkpt lat="43.47339" lon="1.42025">
        <ele>158.3</ele>
        <time>2022-05-16T10:11:36Z</time>
      </trkpt>
      <trkpt lat="43.47345" lon="1.42024">
        <ele>158.3</ele>
        <time>2022-05-16T10:11:37Z</time>
      </trkpt>
      <trkpt lat="43.47351" lon="1.42023">
        <ele>158.4</ele>
        <time>2022-05-16T10:11:38Z</time>
      </trkpt>
      <trkpt lat="43.47357" lon="1.42022">
        <ele>158.4</ele>
        <time>2022-05-16T10:11:39Z</time>
      </trkpt>
      <trkpt lat="43.47362" lon="1.4202">
        <ele>158.5</ele>
        <time>2022-05-16T10:11:40Z</time>
      </trkpt>
      <trkpt lat="43.47368" lon="1.42019">
        <ele>158.6</ele>
        <time>2022-05-16T10:11:41Z</time>
      </trkpt>
      <trkpt lat="43.47374" lon="1.42018">
        <ele>158.6</ele>
        <time>2022-05-16T10:11:42Z</time>
      </trkpt>
      <trkpt lat="43.4738" lon="1.42016">
        <ele>158.6</ele>
        <time>2022-05-16T10:11:43Z</time>
      </trkpt>
      <trkpt lat="43.47386" lon="1.42015">
        <ele>158.6</ele>
        <time>2022-05-16T10:11:44Z</time>
      </trkpt>
      <trkpt lat="43.47392" lon="1.42013">
        <ele>158.6</ele>
        <time>2022-05-16T10:11:45Z</time>
      </trkpt>
      <trkpt lat="43.47398" lon="1.42011">
        <ele>158.6</ele>
        <time>2022-05-16T10:11:46Z</time>
      </trkpt>
      <trkpt lat="43.47403" lon="1.42009">
        <ele>158.6</ele>
        <time>2022-05-16T10:11:47Z</time>
      </trkpt>
      <trkpt lat="43.47408" lon="1.42007">
        <ele>158.7</ele>
        <time>2022-05-16T10:11:48Z</time>
      </trkpt>
      <trkpt lat="43.47414" lon="1.42005">
        <ele>158.7</ele>
        <time>2022-05-16T10:11:49Z</time>
      </trkpt>
      <trkpt lat="43.47425" lon="1.42">
        <ele>158.8</ele>
        <time>2022-05-16T10:11:51Z</time>
      </trkpt>
      <trkpt lat="43.47431" lon="1.41998">
        <ele>158.8</ele>
        <time>2022-05-16T10:11:52Z</time>
      </trkpt>
      <trkpt lat="43.47437" lon="1.41995">
        <ele>158.8</ele>
        <time>2022-05-16T10:11:53Z</time>
      </trkpt>
      <trkpt lat="43.47443" lon="1.41993">
        <ele>158.8</ele>
        <time>2022-05-16T10:11:54Z</time>
      </trkpt>
      <trkpt lat="43.47448" lon="1.41991">
        <ele>158.8</ele>
        <time>2022-05-16T10:11:55Z</time>
      </trkpt>
      <trkpt lat="43.47454" lon="1.41989">
        <ele>158.8</ele>
        <time>2022-05-16T10:11:56Z</time>
      </trkpt>
      <trkpt lat="43.4746" lon="1.41986">
        <ele>158.7</ele>
        <time>2022-05-16T10:11:57Z</time>
      </trkpt>
      <trkpt lat="43.47466" lon="1.41983">
        <ele>158.7</ele>
        <time>2022-05-16T10:11:58Z</time>
      </trkpt>
      <trkpt lat="43.47471" lon="1.41981">
        <ele>158.7</ele>
        <time>2022-05-16T10:11:59Z</time>
      </trkpt>
      <trkpt lat="43.47477" lon="1.41978">
        <ele>158.6</ele>
        <time>2022-05-16T10:12:00Z</time>
      </trkpt>
      <trkpt lat="43.47483" lon="1.41975">
        <ele>158.6</ele>
        <time>2022-05-16T10:12:01Z</time>
      </trkpt>
      <trkpt lat="43.47489" lon="1.41973">
        <ele>158.5</ele>
        <time>2022-05-16T10:12:02Z</time>
      </trkpt>
      <trkpt lat="43.47494" lon="1.4197">
        <ele>158.5</ele>
        <time>2022-05-16T10:12:03Z</time>
      </trkpt>
      <trkpt lat="43.475" lon="1.41967">
        <ele>158.5</ele>
        <time>2022-05-16T10:12:04Z</time>
      </trkpt>
      <trkpt lat="43.47506" lon="1.41966">
        <ele>158.5</ele>
        <time>2022-05-16T10:12:05Z</time>
      </trkpt>
      <trkpt lat="43.47512" lon="1.41964">
        <ele>158.5</ele>
        <time>2022-05-16T10:12:06Z</time>
      </trkpt>
      <trkpt lat="43.47518" lon="1.41963">
        <ele>158.5</ele>
        <time>2022-05-16T10:12:07Z</time>
      </trkpt>
      <trkpt lat="43.47524" lon="1.41963">
        <ele>158.5</ele>
        <time>2022-05-16T10:12:08Z</time>
      </trkpt>
      <trkpt lat="43.47529" lon="1.41962">
        <ele>158.5</ele>
        <time>2022-05-16T10:12:09Z</time>
      </trkpt>
      <trkpt lat="43.47535" lon="1.41962">
        <ele>158.6</ele>
        <time>2022-05-16T10:12:10Z</time>
      </trkpt>
      <trkpt lat="43.47541" lon="1.41962">
        <ele>158.6</ele>
        <time>2022-05-16T10:12:11Z</time>
      </trkpt>
      <trkpt lat="43.47546" lon="1.41964">
        <ele>158.6</ele>
        <time>2022-05-16T10:12:12Z</time>
      </trkpt>
      <trkpt lat="43.47551" lon="1.41961">
        <ele>158.6</ele>
        <time>2022-05-16T10:12:13Z</time>
      </trkpt>
      <trkpt lat="43.47556" lon="1.41956">
        <ele>158.5</ele>
        <time>2022-05-16T10:12:14Z</time>
      </trkpt>
      <trkpt lat="43.47559" lon="1.41947">
        <ele>158.5</ele>
        <time>2022-05-16T10:12:15Z</time>
      </trkpt>
      <trkpt lat="43.47563" lon="1.41941">
        <ele>158.5</ele>
        <time>2022-05-16T10:12:16Z</time>
      </trkpt>
      <trkpt lat="43.47569" lon="1.41937">
        <ele>158.4</ele>
        <time>2022-05-16T10:12:17Z</time>
      </trkpt>
      <trkpt lat="43.47575" lon="1.41934">
        <ele>158.4</ele>
        <time>2022-05-16T10:12:18Z</time>
      </trkpt>
      <trkpt lat="43.4758" lon="1.4193">
        <ele>158.3</ele>
        <time>2022-05-16T10:12:19Z</time>
      </trkpt>
      <trkpt lat="43.47584" lon="1.41926">
        <ele>158.3</ele>
        <time>2022-05-16T10:12:20Z</time>
      </trkpt>
      <trkpt lat="43.47588" lon="1.4192">
        <ele>158.2</ele>
        <time>2022-05-16T10:12:21Z</time>
      </trkpt>
      <trkpt lat="43.47592" lon="1.41916">
        <ele>158.2</ele>
        <time>2022-05-16T10:12:22Z</time>
      </trkpt>
      <trkpt lat="43.47597" lon="1.41912">
        <ele>158.2</ele>
        <time>2022-05-16T10:12:23Z</time>
      </trkpt>
      <trkpt lat="43.47603" lon="1.41909">
        <ele>158.2</ele>
        <time>2022-05-16T10:12:24Z</time>
      </trkpt>
      <trkpt lat="43.47609" lon="1.41905">
        <ele>158.2</ele>
        <time>2022-05-16T10:12:25Z</time>
      </trkpt>
      <trkpt lat="43.47614" lon="1.41901">
        <ele>158.2</ele>
        <time>2022-05-16T10:12:26Z</time>
      </trkpt>
      <trkpt lat="43.47619" lon="1.41898">
        <ele>158.2</ele>
        <time>2022-05-16T10:12:27Z</time>
      </trkpt>
      <trkpt lat="43.47624" lon="1.41894">
        <ele>158.2</ele>
        <time>2022-05-16T10:12:28Z</time>
      </trkpt>
      <trkpt lat="43.4763" lon="1.4189">
        <ele>158.1</ele>
        <time>2022-05-16T10:12:29Z</time>
      </trkpt>
      <trkpt lat="43.47636" lon="1.41886">
        <ele>158.1</ele>
        <time>2022-05-16T10:12:30Z</time>
      </trkpt>
      <trkpt lat="43.47641" lon="1.41883">
        <ele>158</ele>
        <time>2022-05-16T10:12:31Z</time>
      </trkpt>
      <trkpt lat="43.47646" lon="1.41879">
        <ele>158</ele>
        <time>2022-05-16T10:12:32Z</time>
      </trkpt>
      <trkpt lat="43.47652" lon="1.41875">
        <ele>157.9</ele>
        <time>2022-05-16T10:12:33Z</time>
      </trkpt>
      <trkpt lat="43.47657" lon="1.41871">
        <ele>157.9</ele>
        <time>2022-05-16T10:12:34Z</time>
      </trkpt>
      <trkpt lat="43.47662" lon="1.41867">
        <ele>157.9</ele>
        <time>2022-05-16T10:12:35Z</time>
      </trkpt>
      <trkpt lat="43.47666" lon="1.41863">
        <ele>157.9</ele>
        <time>2022-05-16T10:12:36Z</time>
      </trkpt>
      <trkpt lat="43.47671" lon="1.41858">
        <ele>157.9</ele>
        <time>2022-05-16T10:12:37Z</time>
      </trkpt>
      <trkpt lat="43.47676" lon="1.4185">
        <ele>157.9</ele>
        <time>2022-05-16T10:12:38Z</time>
      </trkpt>
      <trkpt lat="43.4768" lon="1.41845">
        <ele>157.9</ele>
        <time>2022-05-16T10:12:39Z</time>
      </trkpt>
      <trkpt lat="43.47684" lon="1.41838">
        <ele>157.9</ele>
        <time>2022-05-16T10:12:40Z</time>
      </trkpt>
      <trkpt lat="43.47688" lon="1.41833">
        <ele>157.9</ele>
        <time>2022-05-16T10:12:41Z</time>
      </trkpt>
      <trkpt lat="43.47692" lon="1.41827">
        <ele>157.9</ele>
        <time>2022-05-16T10:12:42Z</time>
      </trkpt>
      <trkpt lat="43.47696" lon="1.4182">
        <ele>157.9</ele>
        <time>2022-05-16T10:12:43Z</time>
      </trkpt>
      <trkpt lat="43.477" lon="1.41814">
        <ele>157.9</ele>
        <time>2022-05-16T10:12:44Z</time>
      </trkpt>
      <trkpt lat="43.47705" lon="1.41807">
        <ele>157.9</ele>
        <time>2022-05-16T10:12:45Z</time>
      </trkpt>
      <trkpt lat="43.47709" lon="1.418">
        <ele>157.9</ele>
        <time>2022-05-16T10:12:46Z</time>
      </trkpt>
      <trkpt lat="43.47713" lon="1.41793">
        <ele>157.8</ele>
        <time>2022-05-16T10:12:47Z</time>
      </trkpt>
      <trkpt lat="43.47717" lon="1.41786">
        <ele>157.8</ele>
        <time>2022-05-16T10:12:48Z</time>
      </trkpt>
      <trkpt lat="43.47722" lon="1.4178">
        <ele>157.8</ele>
        <time>2022-05-16T10:12:49Z</time>
      </trkpt>
      <trkpt lat="43.47726" lon="1.41774">
        <ele>157.8</ele>
        <time>2022-05-16T10:12:50Z</time>
      </trkpt>
      <trkpt lat="43.4773" lon="1.41767">
        <ele>157.7</ele>
        <time>2022-05-16T10:12:51Z</time>
      </trkpt>
      <trkpt lat="43.47734" lon="1.4176">
        <ele>157.7</ele>
        <time>2022-05-16T10:12:52Z</time>
      </trkpt>
      <trkpt lat="43.47739" lon="1.41754">
        <ele>157.7</ele>
        <time>2022-05-16T10:12:53Z</time>
      </trkpt>
      <trkpt lat="43.47743" lon="1.41748">
        <ele>157.7</ele>
        <time>2022-05-16T10:12:54Z</time>
      </trkpt>
      <trkpt lat="43.47747" lon="1.41742">
        <ele>157.8</ele>
        <time>2022-05-16T10:12:55Z</time>
      </trkpt>
      <trkpt lat="43.47751" lon="1.41737">
        <ele>157.8</ele>
        <time>2022-05-16T10:12:56Z</time>
      </trkpt>
      <trkpt lat="43.47756" lon="1.41731">
        <ele>157.8</ele>
        <time>2022-05-16T10:12:57Z</time>
      </trkpt>
      <trkpt lat="43.4776" lon="1.41725">
        <ele>157.8</ele>
        <time>2022-05-16T10:12:58Z</time>
      </trkpt>
      <trkpt lat="43.47764" lon="1.4172">
        <ele>157.8</ele>
        <time>2022-05-16T10:12:59Z</time>
      </trkpt>
      <trkpt lat="43.47769" lon="1.41714">
        <ele>157.8</ele>
        <time>2022-05-16T10:13:00Z</time>
      </trkpt>
      <trkpt lat="43.47773" lon="1.41708">
        <ele>157.9</ele>
        <time>2022-05-16T10:13:01Z</time>
      </trkpt>
      <trkpt lat="43.47777" lon="1.41701">
        <ele>157.9</ele>
        <time>2022-05-16T10:13:02Z</time>
      </trkpt>
      <trkpt lat="43.47781" lon="1.41695">
        <ele>157.9</ele>
        <time>2022-05-16T10:13:03Z</time>
      </trkpt>
      <trkpt lat="43.47784" lon="1.41688">
        <ele>157.9</ele>
        <time>2022-05-16T10:13:04Z</time>
      </trkpt>
      <trkpt lat="43.47789" lon="1.41681">
        <ele>157.9</ele>
        <time>2022-05-16T10:13:05Z</time>
      </trkpt>
      <trkpt lat="43.47793" lon="1.41674">
        <ele>157.9</ele>
        <time>2022-05-16T10:13:06Z</time>
      </trkpt>
      <trkpt lat="43.47797" lon="1.41668">
        <ele>157.8</ele>
        <time>2022-05-16T10:13:07Z</time>
      </trkpt>
      <trkpt lat="43.47801" lon="1.41662">
        <ele>157.8</ele>
        <time>2022-05-16T10:13:08Z</time>
      </trkpt>
      <trkpt lat="43.47805" lon="1.41654">
        <ele>157.7</ele>
        <time>2022-05-16T10:13:09Z</time>
      </trkpt>
      <trkpt lat="43.47809" lon="1.41648">
        <ele>157.7</ele>
        <time>2022-05-16T10:13:10Z</time>
      </trkpt>
      <trkpt lat="43.47812" lon="1.41641">
        <ele>157.6</ele>
        <time>2022-05-16T10:13:11Z</time>
      </trkpt>
      <trkpt lat="43.47816" lon="1.41633">
        <ele>157.6</ele>
        <time>2022-05-16T10:13:12Z</time>
      </trkpt>
      <trkpt lat="43.47821" lon="1.41627">
        <ele>157.5</ele>
        <time>2022-05-16T10:13:13Z</time>
      </trkpt>
      <trkpt lat="43.47824" lon="1.41618">
        <ele>157.5</ele>
        <time>2022-05-16T10:13:14Z</time>
      </trkpt>
      <trkpt lat="43.47828" lon="1.41611">
        <ele>157.4</ele>
        <time>2022-05-16T10:13:15Z</time>
      </trkpt>
      <trkpt lat="43.47831" lon="1.41604">
        <ele>157.4</ele>
        <time>2022-05-16T10:13:16Z</time>
      </trkpt>
      <trkpt lat="43.47835" lon="1.41596">
        <ele>157.4</ele>
        <time>2022-05-16T10:13:17Z</time>
      </trkpt>
      <trkpt lat="43.47839" lon="1.4159">
        <ele>157.4</ele>
        <time>2022-05-16T10:13:18Z</time>
      </trkpt>
      <trkpt lat="43.47843" lon="1.41583">
        <ele>157.3</ele>
        <time>2022-05-16T10:13:19Z</time>
      </trkpt>
      <trkpt lat="43.47847" lon="1.41577">
        <ele>157.3</ele>
        <time>2022-05-16T10:13:20Z</time>
      </trkpt>
      <trkpt lat="43.47852" lon="1.41571">
        <ele>157.3</ele>
        <time>2022-05-16T10:13:21Z</time>
      </trkpt>
      <trkpt lat="43.47857" lon="1.41564">
        <ele>157.3</ele>
        <time>2022-05-16T10:13:22Z</time>
      </trkpt>
      <trkpt lat="43.47861" lon="1.41558">
        <ele>157.2</ele>
        <time>2022-05-16T10:13:23Z</time>
      </trkpt>
      <trkpt lat="43.47865" lon="1.41552">
        <ele>157.2</ele>
        <time>2022-05-16T10:13:24Z</time>
      </trkpt>
      <trkpt lat="43.4787" lon="1.41545">
        <ele>157.2</ele>
        <time>2022-05-16T10:13:25Z</time>
      </trkpt>
      <trkpt lat="43.47874" lon="1.41539">
        <ele>157.2</ele>
        <time>2022-05-16T10:13:26Z</time>
      </trkpt>
      <trkpt lat="43.47877" lon="1.41532">
        <ele>157.2</ele>
        <time>2022-05-16T10:13:27Z</time>
      </trkpt>
      <trkpt lat="43.47883" lon="1.41528">
        <ele>157.2</ele>
        <time>2022-05-16T10:13:28Z</time>
      </trkpt>
      <trkpt lat="43.47887" lon="1.41521">
        <ele>157.2</ele>
        <time>2022-05-16T10:13:29Z</time>
      </trkpt>
      <trkpt lat="43.47892" lon="1.41515">
        <ele>157.2</ele>
        <time>2022-05-16T10:13:30Z</time>
      </trkpt>
      <trkpt lat="43.47897" lon="1.4151">
        <ele>157.2</ele>
        <time>2022-05-16T10:13:31Z</time>
      </trkpt>
      <trkpt lat="43.47902" lon="1.41504">
        <ele>157.2</ele>
        <time>2022-05-16T10:13:32Z</time>
      </trkpt>
      <trkpt lat="43.47905" lon="1.41497">
        <ele>157.2</ele>
        <time>2022-05-16T10:13:33Z</time>
      </trkpt>
      <trkpt lat="43.4791" lon="1.41491">
        <ele>157.2</ele>
        <time>2022-05-16T10:13:34Z</time>
      </trkpt>
      <trkpt lat="43.47915" lon="1.41486">
        <ele>157.2</ele>
        <time>2022-05-16T10:13:35Z</time>
      </trkpt>
      <trkpt lat="43.4792" lon="1.41481">
        <ele>157.2</ele>
        <time>2022-05-16T10:13:36Z</time>
      </trkpt>
      <trkpt lat="43.47924" lon="1.41474">
        <ele>157.3</ele>
        <time>2022-05-16T10:13:37Z</time>
      </trkpt>
      <trkpt lat="43.47929" lon="1.41469">
        <ele>157.3</ele>
        <time>2022-05-16T10:13:38Z</time>
      </trkpt>
      <trkpt lat="43.47934" lon="1.41464">
        <ele>157.3</ele>
        <time>2022-05-16T10:13:39Z</time>
      </trkpt>
      <trkpt lat="43.47939" lon="1.41458">
        <ele>157.3</ele>
        <time>2022-05-16T10:13:40Z</time>
      </trkpt>
      <trkpt lat="43.47943" lon="1.41451">
        <ele>157.2</ele>
        <time>2022-05-16T10:13:41Z</time>
      </trkpt>
      <trkpt lat="43.47948" lon="1.41446">
        <ele>157.2</ele>
        <time>2022-05-16T10:13:42Z</time>
      </trkpt>
      <trkpt lat="43.47953" lon="1.41439">
        <ele>157.2</ele>
        <time>2022-05-16T10:13:43Z</time>
      </trkpt>
      <trkpt lat="43.47958" lon="1.41434">
        <ele>157.2</ele>
        <time>2022-05-16T10:13:44Z</time>
      </trkpt>
      <trkpt lat="43.47961" lon="1.41427">
        <ele>157.1</ele>
        <time>2022-05-16T10:13:45Z</time>
      </trkpt>
      <trkpt lat="43.47966" lon="1.41421">
        <ele>157.1</ele>
        <time>2022-05-16T10:13:46Z</time>
      </trkpt>
      <trkpt lat="43.4797" lon="1.41414">
        <ele>157.1</ele>
        <time>2022-05-16T10:13:47Z</time>
      </trkpt>
      <trkpt lat="43.47975" lon="1.41409">
        <ele>157</ele>
        <time>2022-05-16T10:13:48Z</time>
      </trkpt>
      <trkpt lat="43.4798" lon="1.41402">
        <ele>157</ele>
        <time>2022-05-16T10:13:49Z</time>
      </trkpt>
      <trkpt lat="43.47984" lon="1.41395">
        <ele>156.9</ele>
        <time>2022-05-16T10:13:50Z</time>
      </trkpt>
      <trkpt lat="43.47989" lon="1.4139">
        <ele>156.9</ele>
        <time>2022-05-16T10:13:51Z</time>
      </trkpt>
      <trkpt lat="43.47993" lon="1.41384">
        <ele>156.8</ele>
        <time>2022-05-16T10:13:52Z</time>
      </trkpt>
      <trkpt lat="43.47997" lon="1.41378">
        <ele>156.8</ele>
        <time>2022-05-16T10:13:53Z</time>
      </trkpt>
      <trkpt lat="43.48001" lon="1.41371">
        <ele>156.8</ele>
        <time>2022-05-16T10:13:54Z</time>
      </trkpt>
      <trkpt lat="43.48006" lon="1.41365">
        <ele>156.7</ele>
        <time>2022-05-16T10:13:55Z</time>
      </trkpt>
      <trkpt lat="43.4801" lon="1.41359">
        <ele>156.7</ele>
        <time>2022-05-16T10:13:56Z</time>
      </trkpt>
      <trkpt lat="43.48014" lon="1.41352">
        <ele>156.7</ele>
        <time>2022-05-16T10:13:57Z</time>
      </trkpt>
      <trkpt lat="43.48019" lon="1.41346">
        <ele>156.7</ele>
        <time>2022-05-16T10:13:58Z</time>
      </trkpt>
      <trkpt lat="43.48023" lon="1.4134">
        <ele>156.7</ele>
        <time>2022-05-16T10:13:59Z</time>
      </trkpt>
      <trkpt lat="43.48028" lon="1.41335">
        <ele>156.7</ele>
        <time>2022-05-16T10:14:00Z</time>
      </trkpt>
      <trkpt lat="43.48033" lon="1.41328">
        <ele>156.7</ele>
        <time>2022-05-16T10:14:01Z</time>
      </trkpt>
      <trkpt lat="43.48037" lon="1.41323">
        <ele>156.7</ele>
        <time>2022-05-16T10:14:02Z</time>
      </trkpt>
      <trkpt lat="43.48042" lon="1.41316">
        <ele>156.6</ele>
        <time>2022-05-16T10:14:03Z</time>
      </trkpt>
      <trkpt lat="43.48051" lon="1.41305">
        <ele>156.6</ele>
        <time>2022-05-16T10:14:05Z</time>
      </trkpt>
      <trkpt lat="43.4806" lon="1.41293">
        <ele>156.6</ele>
        <time>2022-05-16T10:14:07Z</time>
      </trkpt>
      <trkpt lat="43.48065" lon="1.41287">
        <ele>156.6</ele>
        <time>2022-05-16T10:14:09Z</time>
      </trkpt>
      <trkpt lat="43.48069" lon="1.41281">
        <ele>156.6</ele>
        <time>2022-05-16T10:14:10Z</time>
      </trkpt>
      <trkpt lat="43.48072" lon="1.41275">
        <ele>156.6</ele>
        <time>2022-05-16T10:14:11Z</time>
      </trkpt>
      <trkpt lat="43.48076" lon="1.41269">
        <ele>156.7</ele>
        <time>2022-05-16T10:14:12Z</time>
      </trkpt>
      <trkpt lat="43.4808" lon="1.41264">
        <ele>156.7</ele>
        <time>2022-05-16T10:14:13Z</time>
      </trkpt>
      <trkpt lat="43.48083" lon="1.41258">
        <ele>156.7</ele>
        <time>2022-05-16T10:14:14Z</time>
      </trkpt>
      <trkpt lat="43.48087" lon="1.41254">
        <ele>156.7</ele>
        <time>2022-05-16T10:14:15Z</time>
      </trkpt>
      <trkpt lat="43.48094" lon="1.41245">
        <ele>156.7</ele>
        <time>2022-05-16T10:14:16Z</time>
      </trkpt>
      <trkpt lat="43.48097" lon="1.4124">
        <ele>156.7</ele>
        <time>2022-05-16T10:14:17Z</time>
      </trkpt>
      <trkpt lat="43.48101" lon="1.41236">
        <ele>156.7</ele>
        <time>2022-05-16T10:14:18Z</time>
      </trkpt>
      <trkpt lat="43.48104" lon="1.4123">
        <ele>156.7</ele>
        <time>2022-05-16T10:14:19Z</time>
      </trkpt>
      <trkpt lat="43.48108" lon="1.41226">
        <ele>156.7</ele>
        <time>2022-05-16T10:14:20Z</time>
      </trkpt>
      <trkpt lat="43.48111" lon="1.41222">
        <ele>156.7</ele>
        <time>2022-05-16T10:14:21Z</time>
      </trkpt>
      <trkpt lat="43.48115" lon="1.41216">
        <ele>156.7</ele>
        <time>2022-05-16T10:14:22Z</time>
      </trkpt>
      <trkpt lat="43.48118" lon="1.41211">
        <ele>156.6</ele>
        <time>2022-05-16T10:14:23Z</time>
      </trkpt>
      <trkpt lat="43.48122" lon="1.41206">
        <ele>156.6</ele>
        <time>2022-05-16T10:14:24Z</time>
      </trkpt>
      <trkpt lat="43.48125" lon="1.41202">
        <ele>156.6</ele>
        <time>2022-05-16T10:14:25Z</time>
      </trkpt>
      <trkpt lat="43.48128" lon="1.41198">
        <ele>156.5</ele>
        <time>2022-05-16T10:14:26Z</time>
      </trkpt>
      <trkpt lat="43.48131" lon="1.41193">
        <ele>156.5</ele>
        <time>2022-05-16T10:14:27Z</time>
      </trkpt>
      <trkpt lat="43.48135" lon="1.41186">
        <ele>156.5</ele>
        <time>2022-05-16T10:14:28Z</time>
      </trkpt>
      <trkpt lat="43.48138" lon="1.41181">
        <ele>156.5</ele>
        <time>2022-05-16T10:14:29Z</time>
      </trkpt>
      <trkpt lat="43.48143" lon="1.41177">
        <ele>156.5</ele>
        <time>2022-05-16T10:14:30Z</time>
      </trkpt>
      <trkpt lat="43.48145" lon="1.41173">
        <ele>156.5</ele>
        <time>2022-05-16T10:14:31Z</time>
      </trkpt>
      <trkpt lat="43.48147" lon="1.41169">
        <ele>156.5</ele>
        <time>2022-05-16T10:14:32Z</time>
      </trkpt>
      <trkpt lat="43.4815" lon="1.41163">
        <ele>156.6</ele>
        <time>2022-05-16T10:14:33Z</time>
      </trkpt>
      <trkpt lat="43.48152" lon="1.41159">
        <ele>156.6</ele>
        <time>2022-05-16T10:14:34Z</time>
      </trkpt>
      <trkpt lat="43.48156" lon="1.41153">
        <ele>156.6</ele>
        <time>2022-05-16T10:14:35Z</time>
      </trkpt>
      <trkpt lat="43.48159" lon="1.41146">
        <ele>156.6</ele>
        <time>2022-05-16T10:14:36Z</time>
      </trkpt>
      <trkpt lat="43.48161" lon="1.41139">
        <ele>156.6</ele>
        <time>2022-05-16T10:14:37Z</time>
      </trkpt>
      <trkpt lat="43.48164" lon="1.41131">
        <ele>156.6</ele>
        <time>2022-05-16T10:14:38Z</time>
      </trkpt>
      <trkpt lat="43.48166" lon="1.41122">
        <ele>156.6</ele>
        <time>2022-05-16T10:14:39Z</time>
      </trkpt>
      <trkpt lat="43.48171" lon="1.41116">
        <ele>156.5</ele>
        <time>2022-05-16T10:14:40Z</time>
      </trkpt>
      <trkpt lat="43.48176" lon="1.41111">
        <ele>156.5</ele>
        <time>2022-05-16T10:14:41Z</time>
      </trkpt>
      <trkpt lat="43.48178" lon="1.41104">
        <ele>156.4</ele>
        <time>2022-05-16T10:14:42Z</time>
      </trkpt>
      <trkpt lat="43.48183" lon="1.411">
        <ele>156.4</ele>
        <time>2022-05-16T10:14:43Z</time>
      </trkpt>
      <trkpt lat="43.48186" lon="1.41094">
        <ele>156.3</ele>
        <time>2022-05-16T10:14:44Z</time>
      </trkpt>
      <trkpt lat="43.4819" lon="1.41088">
        <ele>156.3</ele>
        <time>2022-05-16T10:14:45Z</time>
      </trkpt>
      <trkpt lat="43.48194" lon="1.41082">
        <ele>156.2</ele>
        <time>2022-05-16T10:14:46Z</time>
      </trkpt>
      <trkpt lat="43.48197" lon="1.41077">
        <ele>156</ele>
        <time>2022-05-16T10:14:47Z</time>
      </trkpt>
      <trkpt lat="43.482" lon="1.41071">
        <ele>155.9</ele>
        <time>2022-05-16T10:14:48Z</time>
      </trkpt>
      <trkpt lat="43.48202" lon="1.41065">
        <ele>155.8</ele>
        <time>2022-05-16T10:14:49Z</time>
      </trkpt>
      <trkpt lat="43.48204" lon="1.4106">
        <ele>155.6</ele>
        <time>2022-05-16T10:14:50Z</time>
      </trkpt>
      <trkpt lat="43.48202" lon="1.41056">
        <ele>155.5</ele>
        <time>2022-05-16T10:14:51Z</time>
      </trkpt>
      <trkpt lat="43.482" lon="1.41055">
        <ele>155.4</ele>
        <time>2022-05-16T10:14:52Z</time>
      </trkpt>
      <trkpt lat="43.48199" lon="1.41051">
        <ele>155.3</ele>
        <time>2022-05-16T10:14:53Z</time>
      </trkpt>
      <trkpt lat="43.48201" lon="1.41046">
        <ele>155.1</ele>
        <time>2022-05-16T10:14:54Z</time>
      </trkpt>
      <trkpt lat="43.48203" lon="1.41041">
        <ele>155</ele>
        <time>2022-05-16T10:14:55Z</time>
      </trkpt>
      <trkpt lat="43.48207" lon="1.41036">
        <ele>154.8</ele>
        <time>2022-05-16T10:14:56Z</time>
      </trkpt>
      <trkpt lat="43.48211" lon="1.41033">
        <ele>154.6</ele>
        <time>2022-05-16T10:14:57Z</time>
      </trkpt>
      <trkpt lat="43.48214" lon="1.41026">
        <ele>154.5</ele>
        <time>2022-05-16T10:14:58Z</time>
      </trkpt>
      <trkpt lat="43.48218" lon="1.41022">
        <ele>154.4</ele>
        <time>2022-05-16T10:14:59Z</time>
      </trkpt>
      <trkpt lat="43.4822" lon="1.41017">
        <ele>154.3</ele>
        <time>2022-05-16T10:15:00Z</time>
      </trkpt>
      <trkpt lat="43.48223" lon="1.41011">
        <ele>154.2</ele>
        <time>2022-05-16T10:15:01Z</time>
      </trkpt>
      <trkpt lat="43.48227" lon="1.41007">
        <ele>154.2</ele>
        <time>2022-05-16T10:15:02Z</time>
      </trkpt>
      <trkpt lat="43.48231" lon="1.41001">
        <ele>154.2</ele>
        <time>2022-05-16T10:15:03Z</time>
      </trkpt>
      <trkpt lat="43.48233" lon="1.40995">
        <ele>154.2</ele>
        <time>2022-05-16T10:15:04Z</time>
      </trkpt>
      <trkpt lat="43.48237" lon="1.4099">
        <ele>154.3</ele>
        <time>2022-05-16T10:15:05Z</time>
      </trkpt>
      <trkpt lat="43.48239" lon="1.40982">
        <ele>154.3</ele>
        <time>2022-05-16T10:15:06Z</time>
      </trkpt>
      <trkpt lat="43.48242" lon="1.40976">
        <ele>154.4</ele>
        <time>2022-05-16T10:15:07Z</time>
      </trkpt>
      <trkpt lat="43.48246" lon="1.40972">
        <ele>154.5</ele>
        <time>2022-05-16T10:15:08Z</time>
      </trkpt>
      <trkpt lat="43.48252" lon="1.40969">
        <ele>154.6</ele>
        <time>2022-05-16T10:15:09Z</time>
      </trkpt>
      <trkpt lat="43.48255" lon="1.40967">
        <ele>154.7</ele>
        <time>2022-05-16T10:15:10Z</time>
      </trkpt>
      <trkpt lat="43.48258" lon="1.40962">
        <ele>154.8</ele>
        <time>2022-05-16T10:15:11Z</time>
      </trkpt>
      <trkpt lat="43.4826" lon="1.4096">
        <ele>154.9</ele>
        <time>2022-05-16T10:15:12Z</time>
      </trkpt>
      <trkpt lat="43.4826" lon="1.40959">
        <ele>154.9</ele>
        <time>2022-05-16T10:15:13Z</time>
      </trkpt>
      <trkpt lat="43.48258" lon="1.40955">
        <ele>155</ele>
        <time>2022-05-16T10:15:14Z</time>
      </trkpt>
      <trkpt lat="43.48259" lon="1.4095">
        <ele>155.1</ele>
        <time>2022-05-16T10:15:15Z</time>
      </trkpt>
      <trkpt lat="43.48263" lon="1.40944">
        <ele>155.3</ele>
        <time>2022-05-16T10:15:16Z</time>
      </trkpt>
      <trkpt lat="43.48266" lon="1.40941">
        <ele>155.4</ele>
        <time>2022-05-16T10:15:17Z</time>
      </trkpt>
      <trkpt lat="43.48268" lon="1.40936">
        <ele>155.5</ele>
        <time>2022-05-16T10:15:18Z</time>
      </trkpt>
      <trkpt lat="43.4827" lon="1.4093">
        <ele>155.6</ele>
        <time>2022-05-16T10:15:19Z</time>
      </trkpt>
      <trkpt lat="43.48271" lon="1.40924">
        <ele>155.6</ele>
        <time>2022-05-16T10:15:20Z</time>
      </trkpt>
      <trkpt lat="43.48274" lon="1.40921">
        <ele>155.7</ele>
        <time>2022-05-16T10:15:21Z</time>
      </trkpt>
      <trkpt lat="43.48277" lon="1.40917">
        <ele>155.7</ele>
        <time>2022-05-16T10:15:22Z</time>
      </trkpt>
      <trkpt lat="43.48277" lon="1.40913">
        <ele>155.7</ele>
        <time>2022-05-16T10:15:23Z</time>
      </trkpt>
      <trkpt lat="43.48276" lon="1.40909">
        <ele>155.7</ele>
        <time>2022-05-16T10:15:24Z</time>
      </trkpt>
      <trkpt lat="43.48275" lon="1.40905">
        <ele>155.7</ele>
        <time>2022-05-16T10:15:25Z</time>
      </trkpt>
      <trkpt lat="43.48277" lon="1.409">
        <ele>155.6</ele>
        <time>2022-05-16T10:15:26Z</time>
      </trkpt>
      <trkpt lat="43.48277" lon="1.40899">
        <ele>155.6</ele>
        <time>2022-05-16T10:15:27Z</time>
      </trkpt>
      <trkpt lat="43.48281" lon="1.40895">
        <ele>155.5</ele>
        <time>2022-05-16T10:15:28Z</time>
      </trkpt>
      <trkpt lat="43.48282" lon="1.40893">
        <ele>155.4</ele>
        <time>2022-05-16T10:15:29Z</time>
      </trkpt>
      <trkpt lat="43.48285" lon="1.40891">
        <ele>155.3</ele>
        <time>2022-05-16T10:15:30Z</time>
      </trkpt>
      <trkpt lat="43.48286" lon="1.40888">
        <ele>155.3</ele>
        <time>2022-05-16T10:15:31Z</time>
      </trkpt>
      <trkpt lat="43.48287" lon="1.40882">
        <ele>155.2</ele>
        <time>2022-05-16T10:15:32Z</time>
      </trkpt>
      <trkpt lat="43.48289" lon="1.40878">
        <ele>155.1</ele>
        <time>2022-05-16T10:15:33Z</time>
      </trkpt>
      <trkpt lat="43.48292" lon="1.40876">
        <ele>155</ele>
        <time>2022-05-16T10:15:34Z</time>
      </trkpt>
      <trkpt lat="43.48292" lon="1.40875">
        <ele>155</ele>
        <time>2022-05-16T10:15:35Z</time>
      </trkpt>
      <trkpt lat="43.48296" lon="1.40871">
        <ele>154.9</ele>
        <time>2022-05-16T10:15:36Z</time>
      </trkpt>
      <trkpt lat="43.48297" lon="1.4087">
        <ele>154.9</ele>
        <time>2022-05-16T10:15:37Z</time>
      </trkpt>
      <trkpt lat="43.48299" lon="1.40864">
        <ele>154.9</ele>
        <time>2022-05-16T10:15:38Z</time>
      </trkpt>
      <trkpt lat="43.48301" lon="1.40859">
        <ele>154.8</ele>
        <time>2022-05-16T10:15:39Z</time>
      </trkpt>
      <trkpt lat="43.48302" lon="1.40853">
        <ele>154.8</ele>
        <time>2022-05-16T10:15:40Z</time>
      </trkpt>
      <trkpt lat="43.48304" lon="1.40845">
        <ele>154.8</ele>
        <time>2022-05-16T10:15:41Z</time>
      </trkpt>
      <trkpt lat="43.48307" lon="1.40841">
        <ele>154.8</ele>
        <time>2022-05-16T10:15:42Z</time>
      </trkpt>
      <trkpt lat="43.4831" lon="1.40835">
        <ele>154.8</ele>
        <time>2022-05-16T10:15:43Z</time>
      </trkpt>
      <trkpt lat="43.48311" lon="1.40829">
        <ele>154.8</ele>
        <time>2022-05-16T10:15:44Z</time>
      </trkpt>
      <trkpt lat="43.48312" lon="1.40823">
        <ele>154.9</ele>
        <time>2022-05-16T10:15:45Z</time>
      </trkpt>
      <trkpt lat="43.48315" lon="1.40819">
        <ele>155</ele>
        <time>2022-05-16T10:15:46Z</time>
      </trkpt>
      <trkpt lat="43.48319" lon="1.40817">
        <ele>155.1</ele>
        <time>2022-05-16T10:15:47Z</time>
      </trkpt>
      <trkpt lat="43.48322" lon="1.40817">
        <ele>155.2</ele>
        <time>2022-05-16T10:15:48Z</time>
      </trkpt>
      <trkpt lat="43.48326" lon="1.40816">
        <ele>155.4</ele>
        <time>2022-05-16T10:15:49Z</time>
      </trkpt>
      <trkpt lat="43.48328" lon="1.40816">
        <ele>155.5</ele>
        <time>2022-05-16T10:15:50Z</time>
      </trkpt>
      <trkpt lat="43.48331" lon="1.40813">
        <ele>155.6</ele>
        <time>2022-05-16T10:15:51Z</time>
      </trkpt>
      <trkpt lat="43.48332" lon="1.40812">
        <ele>155.7</ele>
        <time>2022-05-16T10:15:52Z</time>
      </trkpt>
      <trkpt lat="43.48336" lon="1.4081">
        <ele>155.9</ele>
        <time>2022-05-16T10:15:53Z</time>
      </trkpt>
      <trkpt lat="43.48336" lon="1.40805">
        <ele>156</ele>
        <time>2022-05-16T10:15:54Z</time>
      </trkpt>
      <trkpt lat="43.48336" lon="1.40802">
        <ele>156.1</ele>
        <time>2022-05-16T10:15:55Z</time>
      </trkpt>
      <trkpt lat="43.48339" lon="1.40796">
        <ele>156.3</ele>
        <time>2022-05-16T10:15:56Z</time>
      </trkpt>
      <trkpt lat="43.4834" lon="1.40792">
        <ele>156.5</ele>
        <time>2022-05-16T10:15:57Z</time>
      </trkpt>
      <trkpt lat="43.48338" lon="1.40788">
        <ele>156.6</ele>
        <time>2022-05-16T10:15:58Z</time>
      </trkpt>
      <trkpt lat="43.48337" lon="1.40784">
        <ele>156.7</ele>
        <time>2022-05-16T10:15:59Z</time>
      </trkpt>
      <trkpt lat="43.48337" lon="1.40779">
        <ele>156.8</ele>
        <time>2022-05-16T10:16:00Z</time>
      </trkpt>
      <trkpt lat="43.48339" lon="1.40774">
        <ele>156.9</ele>
        <time>2022-05-16T10:16:01Z</time>
      </trkpt>
      <trkpt lat="43.48341" lon="1.40771">
        <ele>157</ele>
        <time>2022-05-16T10:16:02Z</time>
      </trkpt>
      <trkpt lat="43.48344" lon="1.40767">
        <ele>157</ele>
        <time>2022-05-16T10:16:03Z</time>
      </trkpt>
      <trkpt lat="43.48349" lon="1.4076">
        <ele>157.2</ele>
        <time>2022-05-16T10:16:05Z</time>
      </trkpt>
      <trkpt lat="43.48352" lon="1.40757">
        <ele>157.2</ele>
        <time>2022-05-16T10:16:07Z</time>
      </trkpt>
      <trkpt lat="43.48356" lon="1.40756">
        <ele>157.2</ele>
        <time>2022-05-16T10:16:08Z</time>
      </trkpt>
      <trkpt lat="43.48357" lon="1.40752">
        <ele>157.3</ele>
        <time>2022-05-16T10:16:09Z</time>
      </trkpt>
      <trkpt lat="43.48357" lon="1.4075">
        <ele>157.3</ele>
        <time>2022-05-16T10:16:10Z</time>
      </trkpt>
      <trkpt lat="43.48361" lon="1.40744">
        <ele>157.3</ele>
        <time>2022-05-16T10:16:11Z</time>
      </trkpt>
      <trkpt lat="43.48363" lon="1.40737">
        <ele>157.2</ele>
        <time>2022-05-16T10:16:13Z</time>
      </trkpt>
      <trkpt lat="43.48368" lon="1.4073">
        <ele>157</ele>
        <time>2022-05-16T10:16:15Z</time>
      </trkpt>
      <trkpt lat="43.48371" lon="1.40724">
        <ele>156.7</ele>
        <time>2022-05-16T10:16:17Z</time>
      </trkpt>
      <trkpt lat="43.48377" lon="1.40717">
        <ele>156.4</ele>
        <time>2022-05-16T10:16:19Z</time>
      </trkpt>
      <trkpt lat="43.4838" lon="1.40712">
        <ele>156.2</ele>
        <time>2022-05-16T10:16:21Z</time>
      </trkpt>
      <trkpt lat="43.48385" lon="1.40709">
        <ele>155.9</ele>
        <time>2022-05-16T10:16:22Z</time>
      </trkpt>
      <trkpt lat="43.48387" lon="1.40706">
        <ele>155.8</ele>
        <time>2022-05-16T10:16:23Z</time>
      </trkpt>
      <trkpt lat="43.4839" lon="1.40702">
        <ele>155.6</ele>
        <time>2022-05-16T10:16:24Z</time>
      </trkpt>
      <trkpt lat="43.48394" lon="1.40698">
        <ele>155.3</ele>
        <time>2022-05-16T10:16:25Z</time>
      </trkpt>
      <trkpt lat="43.48398" lon="1.40695">
        <ele>155.1</ele>
        <time>2022-05-16T10:16:26Z</time>
      </trkpt>
      <trkpt lat="43.484" lon="1.40691">
        <ele>154.9</ele>
        <time>2022-05-16T10:16:27Z</time>
      </trkpt>
      <trkpt lat="43.48402" lon="1.40685">
        <ele>154.8</ele>
        <time>2022-05-16T10:16:28Z</time>
      </trkpt>
      <trkpt lat="43.48405" lon="1.40682">
        <ele>154.7</ele>
        <time>2022-05-16T10:16:29Z</time>
      </trkpt>
      <trkpt lat="43.48408" lon="1.40682">
        <ele>154.6</ele>
        <time>2022-05-16T10:16:30Z</time>
      </trkpt>
      <trkpt lat="43.48409" lon="1.40678">
        <ele>154.6</ele>
        <time>2022-05-16T10:16:31Z</time>
      </trkpt>
      <trkpt lat="43.4841" lon="1.40677">
        <ele>154.5</ele>
        <time>2022-05-16T10:16:32Z</time>
      </trkpt>
      <trkpt lat="43.48412" lon="1.40672">
        <ele>154.5</ele>
        <time>2022-05-16T10:16:33Z</time>
      </trkpt>
      <trkpt lat="43.48416" lon="1.4067">
        <ele>154.5</ele>
        <time>2022-05-16T10:16:34Z</time>
      </trkpt>
      <trkpt lat="43.4842" lon="1.40667">
        <ele>154.5</ele>
        <time>2022-05-16T10:16:35Z</time>
      </trkpt>
      <trkpt lat="43.48423" lon="1.40665">
        <ele>154.6</ele>
        <time>2022-05-16T10:16:36Z</time>
      </trkpt>
      <trkpt lat="43.48426" lon="1.40664">
        <ele>154.6</ele>
        <time>2022-05-16T10:16:37Z</time>
      </trkpt>
      <trkpt lat="43.48428" lon="1.40659">
        <ele>154.6</ele>
        <time>2022-05-16T10:16:38Z</time>
      </trkpt>
      <trkpt lat="43.48432" lon="1.40657">
        <ele>154.7</ele>
        <time>2022-05-16T10:16:39Z</time>
      </trkpt>
      <trkpt lat="43.48436" lon="1.40655">
        <ele>154.7</ele>
        <time>2022-05-16T10:16:40Z</time>
      </trkpt>
      <trkpt lat="43.48441" lon="1.40654">
        <ele>154.8</ele>
        <time>2022-05-16T10:16:41Z</time>
      </trkpt>
      <trkpt lat="43.48444" lon="1.4065">
        <ele>154.8</ele>
        <time>2022-05-16T10:16:42Z</time>
      </trkpt>
      <trkpt lat="43.48447" lon="1.40647">
        <ele>154.8</ele>
        <time>2022-05-16T10:16:43Z</time>
      </trkpt>
      <trkpt lat="43.4845" lon="1.40643">
        <ele>154.9</ele>
        <time>2022-05-16T10:16:44Z</time>
      </trkpt>
      <trkpt lat="43.48452" lon="1.4064">
        <ele>154.9</ele>
        <time>2022-05-16T10:16:45Z</time>
      </trkpt>
      <trkpt lat="43.48454" lon="1.40636">
        <ele>155</ele>
        <time>2022-05-16T10:16:46Z</time>
      </trkpt>
      <trkpt lat="43.48455" lon="1.40632">
        <ele>155</ele>
        <time>2022-05-16T10:16:47Z</time>
      </trkpt>
      <trkpt lat="43.48458" lon="1.40627">
        <ele>155.1</ele>
        <time>2022-05-16T10:16:48Z</time>
      </trkpt>
      <trkpt lat="43.48463" lon="1.40623">
        <ele>155.3</ele>
        <time>2022-05-16T10:16:49Z</time>
      </trkpt>
      <trkpt lat="43.4847" lon="1.40623">
        <ele>155.6</ele>
        <time>2022-05-16T10:16:50Z</time>
      </trkpt>
      <trkpt lat="43.48475" lon="1.40619">
        <ele>155.7</ele>
        <time>2022-05-16T10:16:51Z</time>
      </trkpt>
      <trkpt lat="43.48479" lon="1.40613">
        <ele>155.9</ele>
        <time>2022-05-16T10:16:52Z</time>
      </trkpt>
      <trkpt lat="43.48484" lon="1.40608">
        <ele>156</ele>
        <time>2022-05-16T10:16:53Z</time>
      </trkpt>
      <trkpt lat="43.4847" lon="1.40615">
        <ele>156</ele>
        <time>2022-05-16T10:16:54Z</time>
      </trkpt>
      <trkpt lat="43.48474" lon="1.40613">
        <ele>156</ele>
        <time>2022-05-16T10:16:55Z</time>
      </trkpt>
      <trkpt lat="43.48477" lon="1.40609">
        <ele>156</ele>
        <time>2022-05-16T10:16:56Z</time>
      </trkpt>
      <trkpt lat="43.48479" lon="1.40607">
        <ele>156</ele>
        <time>2022-05-16T10:16:57Z</time>
      </trkpt>
      <trkpt lat="43.48483" lon="1.40604">
        <ele>155.9</ele>
        <time>2022-05-16T10:16:58Z</time>
      </trkpt>
      <trkpt lat="43.48485" lon="1.40602">
        <ele>155.9</ele>
        <time>2022-05-16T10:16:59Z</time>
      </trkpt>
      <trkpt lat="43.48489" lon="1.40599">
        <ele>155.8</ele>
        <time>2022-05-16T10:17:00Z</time>
      </trkpt>
      <trkpt lat="43.4849" lon="1.40597">
        <ele>155.8</ele>
        <time>2022-05-16T10:17:01Z</time>
      </trkpt>
      <trkpt lat="43.48495" lon="1.40594">
        <ele>155.7</ele>
        <time>2022-05-16T10:17:02Z</time>
      </trkpt>
      <trkpt lat="43.48497" lon="1.4059">
        <ele>155.6</ele>
        <time>2022-05-16T10:17:03Z</time>
      </trkpt>
      <trkpt lat="43.48499" lon="1.40586">
        <ele>155.6</ele>
        <time>2022-05-16T10:17:04Z</time>
      </trkpt>
      <trkpt lat="43.48503" lon="1.40586">
        <ele>155.5</ele>
        <time>2022-05-16T10:17:05Z</time>
      </trkpt>
      <trkpt lat="43.48506" lon="1.40586">
        <ele>155.4</ele>
        <time>2022-05-16T10:17:06Z</time>
      </trkpt>
      <trkpt lat="43.48509" lon="1.40587">
        <ele>155.3</ele>
        <time>2022-05-16T10:17:07Z</time>
      </trkpt>
      <trkpt lat="43.48514" lon="1.40584">
        <ele>155.1</ele>
        <time>2022-05-16T10:17:08Z</time>
      </trkpt>
      <trkpt lat="43.48519" lon="1.40582">
        <ele>154.9</ele>
        <time>2022-05-16T10:17:09Z</time>
      </trkpt>
      <trkpt lat="43.48524" lon="1.40581">
        <ele>154.7</ele>
        <time>2022-05-16T10:17:10Z</time>
      </trkpt>
      <trkpt lat="43.48529" lon="1.40581">
        <ele>154.5</ele>
        <time>2022-05-16T10:17:11Z</time>
      </trkpt>
      <trkpt lat="43.48533" lon="1.40582">
        <ele>154.3</ele>
        <time>2022-05-16T10:17:12Z</time>
      </trkpt>
      <trkpt lat="43.48537" lon="1.40579">
        <ele>154.2</ele>
        <time>2022-05-16T10:17:13Z</time>
      </trkpt>
      <trkpt lat="43.48541" lon="1.40577">
        <ele>154.1</ele>
        <time>2022-05-16T10:17:14Z</time>
      </trkpt>
      <trkpt lat="43.48546" lon="1.40577">
        <ele>153.9</ele>
        <time>2022-05-16T10:17:15Z</time>
      </trkpt>
      <trkpt lat="43.48551" lon="1.40578">
        <ele>153.8</ele>
        <time>2022-05-16T10:17:16Z</time>
      </trkpt>
      <trkpt lat="43.48553" lon="1.40573">
        <ele>153.7</ele>
        <time>2022-05-16T10:17:17Z</time>
      </trkpt>
      <trkpt lat="43.48557" lon="1.40575">
        <ele>153.7</ele>
        <time>2022-05-16T10:17:18Z</time>
      </trkpt>
      <trkpt lat="43.4856" lon="1.40576">
        <ele>153.7</ele>
        <time>2022-05-16T10:17:19Z</time>
      </trkpt>
      <trkpt lat="43.48564" lon="1.40575">
        <ele>153.7</ele>
        <time>2022-05-16T10:17:20Z</time>
      </trkpt>
      <trkpt lat="43.48565" lon="1.40575">
        <ele>153.7</ele>
        <time>2022-05-16T10:17:21Z</time>
      </trkpt>
      <trkpt lat="43.48569" lon="1.40576">
        <ele>153.6</ele>
        <time>2022-05-16T10:17:22Z</time>
      </trkpt>
      <trkpt lat="43.48573" lon="1.40576">
        <ele>153.6</ele>
        <time>2022-05-16T10:17:23Z</time>
      </trkpt>
      <trkpt lat="43.48577" lon="1.40576">
        <ele>153.6</ele>
        <time>2022-05-16T10:17:24Z</time>
      </trkpt>
      <trkpt lat="43.48581" lon="1.40575">
        <ele>153.5</ele>
        <time>2022-05-16T10:17:25Z</time>
      </trkpt>
      <trkpt lat="43.48584" lon="1.40576">
        <ele>153.5</ele>
        <time>2022-05-16T10:17:26Z</time>
      </trkpt>
      <trkpt lat="43.48586" lon="1.40576">
        <ele>153.4</ele>
        <time>2022-05-16T10:17:27Z</time>
      </trkpt>
      <trkpt lat="43.48588" lon="1.40576">
        <ele>153.4</ele>
        <time>2022-05-16T10:17:28Z</time>
      </trkpt>
      <trkpt lat="43.48589" lon="1.40576">
        <ele>153.4</ele>
        <time>2022-05-16T10:17:29Z</time>
      </trkpt>
      <trkpt lat="43.48592" lon="1.40579">
        <ele>153.4</ele>
        <time>2022-05-16T10:17:30Z</time>
      </trkpt>
      <trkpt lat="43.48592" lon="1.40581">
        <ele>153.4</ele>
        <time>2022-05-16T10:17:31Z</time>
      </trkpt>
      <trkpt lat="43.48593" lon="1.40586">
        <ele>153.4</ele>
        <time>2022-05-16T10:17:32Z</time>
      </trkpt>
      <trkpt lat="43.48594" lon="1.40591">
        <ele>153.4</ele>
        <time>2022-05-16T10:17:33Z</time>
      </trkpt>
      <trkpt lat="43.48594" lon="1.40596">
        <ele>153.5</ele>
        <time>2022-05-16T10:17:34Z</time>
      </trkpt>
      <trkpt lat="43.48595" lon="1.406">
        <ele>153.5</ele>
        <time>2022-05-16T10:17:35Z</time>
      </trkpt>
      <trkpt lat="43.48596" lon="1.40605">
        <ele>153.5</ele>
        <time>2022-05-16T10:17:36Z</time>
      </trkpt>
      <trkpt lat="43.48598" lon="1.4061">
        <ele>153.5</ele>
        <time>2022-05-16T10:17:37Z</time>
      </trkpt>
      <trkpt lat="43.48602" lon="1.40614">
        <ele>153.4</ele>
        <time>2022-05-16T10:17:38Z</time>
      </trkpt>
      <trkpt lat="43.48606" lon="1.40616">
        <ele>153.3</ele>
        <time>2022-05-16T10:17:39Z</time>
      </trkpt>
      <trkpt lat="43.48609" lon="1.40618">
        <ele>153.3</ele>
        <time>2022-05-16T10:17:40Z</time>
      </trkpt>
      <trkpt lat="43.48609" lon="1.4062">
        <ele>153.3</ele>
        <time>2022-05-16T10:17:41Z</time>
      </trkpt>
      <trkpt lat="43.4861" lon="1.40621">
        <ele>153.3</ele>
        <time>2022-05-16T10:17:42Z</time>
      </trkpt>
      <trkpt lat="43.48611" lon="1.40622">
        <ele>153.3</ele>
        <time>2022-05-16T10:17:46Z</time>
      </trkpt>
      <trkpt lat="43.48612" lon="1.40622">
        <ele>153.3</ele>
        <time>2022-05-16T10:17:47Z</time>
      </trkpt>
      <trkpt lat="43.48613" lon="1.40623">
        <ele>153.3</ele>
        <time>2022-05-16T10:17:48Z</time>
      </trkpt>
      <trkpt lat="43.48614" lon="1.40623">
        <ele>153.3</ele>
        <time>2022-05-16T10:17:49Z</time>
      </trkpt>
      <trkpt lat="43.48614" lon="1.40624">
        <ele>153.3</ele>
        <time>2022-05-16T10:17:50Z</time>
      </trkpt>
      <trkpt lat="43.48615" lon="1.40624">
        <ele>153.3</ele>
        <time>2022-05-16T10:17:51Z</time>
      </trkpt>
      <trkpt lat="43.48613" lon="1.40625">
        <ele>153.3</ele>
        <time>2022-05-16T10:17:52Z</time>
      </trkpt>
      <trkpt lat="43.48616" lon="1.40628">
        <ele>153.4</ele>
        <time>2022-05-16T10:17:53Z</time>
      </trkpt>
      <trkpt lat="43.48617" lon="1.40633">
        <ele>153.4</ele>
        <time>2022-05-16T10:17:54Z</time>
      </trkpt>
      <trkpt lat="43.48619" lon="1.40639">
        <ele>153.6</ele>
        <time>2022-05-16T10:17:55Z</time>
      </trkpt>
      <trkpt lat="43.48618" lon="1.40645">
        <ele>153.7</ele>
        <time>2022-05-16T10:17:56Z</time>
      </trkpt>
      <trkpt lat="43.48619" lon="1.40649">
        <ele>153.7</ele>
        <time>2022-05-16T10:17:57Z</time>
      </trkpt>
      <trkpt lat="43.4862" lon="1.40655">
        <ele>153.7</ele>
        <time>2022-05-16T10:17:58Z</time>
      </trkpt>
      <trkpt lat="43.48621" lon="1.40656">
        <ele>153.7</ele>
        <time>2022-05-16T10:17:59Z</time>
      </trkpt>
      <trkpt lat="43.48624" lon="1.4066">
        <ele>153.7</ele>
        <time>2022-05-16T10:18:00Z</time>
      </trkpt>
      <trkpt lat="43.48627" lon="1.40664">
        <ele>153.7</ele>
        <time>2022-05-16T10:18:01Z</time>
      </trkpt>
      <trkpt lat="43.48631" lon="1.40672">
        <ele>153.6</ele>
        <time>2022-05-16T10:18:02Z</time>
      </trkpt>
      <trkpt lat="43.48632" lon="1.40677">
        <ele>153.6</ele>
        <time>2022-05-16T10:18:03Z</time>
      </trkpt>
      <trkpt lat="43.48633" lon="1.40685">
        <ele>153.6</ele>
        <time>2022-05-16T10:18:04Z</time>
      </trkpt>
      <trkpt lat="43.48634" lon="1.40689">
        <ele>153.7</ele>
        <time>2022-05-16T10:18:05Z</time>
      </trkpt>
      <trkpt lat="43.48639" lon="1.40692">
        <ele>153.7</ele>
        <time>2022-05-16T10:18:06Z</time>
      </trkpt>
      <trkpt lat="43.48644" lon="1.40694">
        <ele>153.8</ele>
        <time>2022-05-16T10:18:07Z</time>
      </trkpt>
      <trkpt lat="43.48646" lon="1.40697">
        <ele>153.8</ele>
        <time>2022-05-16T10:18:08Z</time>
      </trkpt>
      <trkpt lat="43.48646" lon="1.40702">
        <ele>153.9</ele>
        <time>2022-05-16T10:18:09Z</time>
      </trkpt>
      <trkpt lat="43.48646" lon="1.40703">
        <ele>153.9</ele>
        <time>2022-05-16T10:18:10Z</time>
      </trkpt>
      <trkpt lat="43.4865" lon="1.40702">
        <ele>154.1</ele>
        <time>2022-05-16T10:18:13Z</time>
      </trkpt>
      <trkpt lat="43.48653" lon="1.40704">
        <ele>154.2</ele>
        <time>2022-05-16T10:18:14Z</time>
      </trkpt>
      <trkpt lat="43.48657" lon="1.40707">
        <ele>154.5</ele>
        <time>2022-05-16T10:18:15Z</time>
      </trkpt>
      <trkpt lat="43.48666" lon="1.40716">
        <ele>155.5</ele>
        <time>2022-05-16T10:18:17Z</time>
      </trkpt>
      <trkpt lat="43.48665" lon="1.40729">
        <ele>156.3</ele>
        <time>2022-05-16T10:18:19Z</time>
      </trkpt>
      <trkpt lat="43.48667" lon="1.40733">
        <ele>156.5</ele>
        <time>2022-05-16T10:18:21Z</time>
      </trkpt>
      <trkpt lat="43.48671" lon="1.40735">
        <ele>156.6</ele>
        <time>2022-05-16T10:18:22Z</time>
      </trkpt>
      <trkpt lat="43.48676" lon="1.40739">
        <ele>156.8</ele>
        <time>2022-05-16T10:18:23Z</time>
      </trkpt>
      <trkpt lat="43.48679" lon="1.40745">
        <ele>156.8</ele>
        <time>2022-05-16T10:18:24Z</time>
      </trkpt>
      <trkpt lat="43.48684" lon="1.40748">
        <ele>156.8</ele>
        <time>2022-05-16T10:18:25Z</time>
      </trkpt>
      <trkpt lat="43.48687" lon="1.40752">
        <ele>156.7</ele>
        <time>2022-05-16T10:18:26Z</time>
      </trkpt>
      <trkpt lat="43.48689" lon="1.40756">
        <ele>156.6</ele>
        <time>2022-05-16T10:18:27Z</time>
      </trkpt>
      <trkpt lat="43.48688" lon="1.40761">
        <ele>156.5</ele>
        <time>2022-05-16T10:18:28Z</time>
      </trkpt>
      <trkpt lat="43.4869" lon="1.40765">
        <ele>156.5</ele>
        <time>2022-05-16T10:18:29Z</time>
      </trkpt>
      <trkpt lat="43.48692" lon="1.40773">
        <ele>156.4</ele>
        <time>2022-05-16T10:18:30Z</time>
      </trkpt>
      <trkpt lat="43.48694" lon="1.40779">
        <ele>156.3</ele>
        <time>2022-05-16T10:18:31Z</time>
      </trkpt>
      <trkpt lat="43.48696" lon="1.40782">
        <ele>156.3</ele>
        <time>2022-05-16T10:18:32Z</time>
      </trkpt>
      <trkpt lat="43.48698" lon="1.40786">
        <ele>156.3</ele>
        <time>2022-05-16T10:18:33Z</time>
      </trkpt>
      <trkpt lat="43.48701" lon="1.40789">
        <ele>156.3</ele>
        <time>2022-05-16T10:18:34Z</time>
      </trkpt>
      <trkpt lat="43.48702" lon="1.40789">
        <ele>156.3</ele>
        <time>2022-05-16T10:18:35Z</time>
      </trkpt>
      <trkpt lat="43.48703" lon="1.40793">
        <ele>156.3</ele>
        <time>2022-05-16T10:18:36Z</time>
      </trkpt>
      <trkpt lat="43.48704" lon="1.40795">
        <ele>156.3</ele>
        <time>2022-05-16T10:18:37Z</time>
      </trkpt>
      <trkpt lat="43.48704" lon="1.40802">
        <ele>156.3</ele>
        <time>2022-05-16T10:18:38Z</time>
      </trkpt>
      <trkpt lat="43.48704" lon="1.40807">
        <ele>156.3</ele>
        <time>2022-05-16T10:18:39Z</time>
      </trkpt>
      <trkpt lat="43.48708" lon="1.4081">
        <ele>156.2</ele>
        <time>2022-05-16T10:18:40Z</time>
      </trkpt>
      <trkpt lat="43.48711" lon="1.40815">
        <ele>156.1</ele>
        <time>2022-05-16T10:18:41Z</time>
      </trkpt>
      <trkpt lat="43.48713" lon="1.4082">
        <ele>155.9</ele>
        <time>2022-05-16T10:18:42Z</time>
      </trkpt>
      <trkpt lat="43.48715" lon="1.40825">
        <ele>155.7</ele>
        <time>2022-05-16T10:18:43Z</time>
      </trkpt>
      <trkpt lat="43.48714" lon="1.40829">
        <ele>155.4</ele>
        <time>2022-05-16T10:18:44Z</time>
      </trkpt>
      <trkpt lat="43.48714" lon="1.40831">
        <ele>155.3</ele>
        <time>2022-05-16T10:18:45Z</time>
      </trkpt>
      <trkpt lat="43.48718" lon="1.40834">
        <ele>155</ele>
        <time>2022-05-16T10:18:46Z</time>
      </trkpt>
      <trkpt lat="43.4872" lon="1.40836">
        <ele>154.8</ele>
        <time>2022-05-16T10:18:47Z</time>
      </trkpt>
      <trkpt lat="43.48725" lon="1.4084">
        <ele>154.7</ele>
        <time>2022-05-16T10:18:48Z</time>
      </trkpt>
      <trkpt lat="43.48728" lon="1.40844">
        <ele>154.6</ele>
        <time>2022-05-16T10:18:49Z</time>
      </trkpt>
      <trkpt lat="43.48729" lon="1.4085">
        <ele>154.6</ele>
        <time>2022-05-16T10:18:50Z</time>
      </trkpt>
      <trkpt lat="43.48728" lon="1.40856">
        <ele>154.7</ele>
        <time>2022-05-16T10:18:51Z</time>
      </trkpt>
      <trkpt lat="43.48729" lon="1.4086">
        <ele>154.8</ele>
        <time>2022-05-16T10:18:52Z</time>
      </trkpt>
      <trkpt lat="43.48731" lon="1.40863">
        <ele>154.9</ele>
        <time>2022-05-16T10:18:53Z</time>
      </trkpt>
      <trkpt lat="43.48732" lon="1.40865">
        <ele>155</ele>
        <time>2022-05-16T10:18:54Z</time>
      </trkpt>
      <trkpt lat="43.48732" lon="1.40864">
        <ele>155</ele>
        <time>2022-05-16T10:18:55Z</time>
      </trkpt>
      <trkpt lat="43.48731" lon="1.40865">
        <ele>155</ele>
        <time>2022-05-16T10:18:56Z</time>
      </trkpt>
      <trkpt lat="43.48732" lon="1.40865">
        <ele>155</ele>
        <time>2022-05-16T10:18:57Z</time>
      </trkpt>
      <trkpt lat="43.48731" lon="1.40866">
        <ele>155.1</ele>
        <time>2022-05-16T10:18:58Z</time>
      </trkpt>
      <trkpt lat="43.48731" lon="1.40867">
        <ele>155.1</ele>
        <time>2022-05-16T10:18:59Z</time>
      </trkpt>
      <trkpt lat="43.4873" lon="1.40868">
        <ele>155.2</ele>
        <time>2022-05-16T10:19:00Z</time>
      </trkpt>
      <trkpt lat="43.4873" lon="1.40869">
        <ele>155.2</ele>
        <time>2022-05-16T10:19:01Z</time>
      </trkpt>
      <trkpt lat="43.48731" lon="1.4087">
        <ele>155.2</ele>
        <time>2022-05-16T10:19:02Z</time>
      </trkpt>
      <trkpt lat="43.48732" lon="1.40871">
        <ele>155.3</ele>
        <time>2022-05-16T10:19:03Z</time>
      </trkpt>
      <trkpt lat="43.48733" lon="1.40874">
        <ele>155.4</ele>
        <time>2022-05-16T10:19:04Z</time>
      </trkpt>
      <trkpt lat="43.48735" lon="1.4088">
        <ele>155.6</ele>
        <time>2022-05-16T10:19:05Z</time>
      </trkpt>
      <trkpt lat="43.48738" lon="1.40885">
        <ele>155.7</ele>
        <time>2022-05-16T10:19:06Z</time>
      </trkpt>
      <trkpt lat="43.48738" lon="1.40889">
        <ele>155.7</ele>
        <time>2022-05-16T10:19:07Z</time>
      </trkpt>
      <trkpt lat="43.48737" lon="1.40891">
        <ele>155.7</ele>
        <time>2022-05-16T10:19:08Z</time>
      </trkpt>
      <trkpt lat="43.48738" lon="1.40893">
        <ele>155.7</ele>
        <time>2022-05-16T10:19:09Z</time>
      </trkpt>
      <trkpt lat="43.48739" lon="1.40896">
        <ele>155.6</ele>
        <time>2022-05-16T10:19:10Z</time>
      </trkpt>
      <trkpt lat="43.48741" lon="1.40903">
        <ele>155.5</ele>
        <time>2022-05-16T10:19:11Z</time>
      </trkpt>
      <trkpt lat="43.48742" lon="1.40909">
        <ele>155.3</ele>
        <time>2022-05-16T10:19:12Z</time>
      </trkpt>
      <trkpt lat="43.48746" lon="1.40914">
        <ele>155.1</ele>
        <time>2022-05-16T10:19:13Z</time>
      </trkpt>
      <trkpt lat="43.4875" lon="1.40919">
        <ele>154.9</ele>
        <time>2022-05-16T10:19:14Z</time>
      </trkpt>
      <trkpt lat="43.48754" lon="1.40927">
        <ele>154.9</ele>
        <time>2022-05-16T10:19:15Z</time>
      </trkpt>
      <trkpt lat="43.48755" lon="1.40934">
        <ele>155</ele>
        <time>2022-05-16T10:19:16Z</time>
      </trkpt>
      <trkpt lat="43.48758" lon="1.40939">
        <ele>155.1</ele>
        <time>2022-05-16T10:19:17Z</time>
      </trkpt>
      <trkpt lat="43.48759" lon="1.40945">
        <ele>155.2</ele>
        <time>2022-05-16T10:19:18Z</time>
      </trkpt>
      <trkpt lat="43.48759" lon="1.4095">
        <ele>155.3</ele>
        <time>2022-05-16T10:19:19Z</time>
      </trkpt>
      <trkpt lat="43.48761" lon="1.40953">
        <ele>155.3</ele>
        <time>2022-05-16T10:19:20Z</time>
      </trkpt>
      <trkpt lat="43.48765" lon="1.40957">
        <ele>155.4</ele>
        <time>2022-05-16T10:19:21Z</time>
      </trkpt>
      <trkpt lat="43.48768" lon="1.40962">
        <ele>155.4</ele>
        <time>2022-05-16T10:19:22Z</time>
      </trkpt>
      <trkpt lat="43.48768" lon="1.4097">
        <ele>155.4</ele>
        <time>2022-05-16T10:19:23Z</time>
      </trkpt>
      <trkpt lat="43.48772" lon="1.40975">
        <ele>155.3</ele>
        <time>2022-05-16T10:19:24Z</time>
      </trkpt>
      <trkpt lat="43.48773" lon="1.4098">
        <ele>155.2</ele>
        <time>2022-05-16T10:19:25Z</time>
      </trkpt>
      <trkpt lat="43.48775" lon="1.40986">
        <ele>155.1</ele>
        <time>2022-05-16T10:19:26Z</time>
      </trkpt>
      <trkpt lat="43.48778" lon="1.40993">
        <ele>154.9</ele>
        <time>2022-05-16T10:19:27Z</time>
      </trkpt>
      <trkpt lat="43.48782" lon="1.40999">
        <ele>154.7</ele>
        <time>2022-05-16T10:19:28Z</time>
      </trkpt>
      <trkpt lat="43.48783" lon="1.41004">
        <ele>154.6</ele>
        <time>2022-05-16T10:19:29Z</time>
      </trkpt>
      <trkpt lat="43.48782" lon="1.41008">
        <ele>154.5</ele>
        <time>2022-05-16T10:19:30Z</time>
      </trkpt>
      <trkpt lat="43.48783" lon="1.41012">
        <ele>154.4</ele>
        <time>2022-05-16T10:19:31Z</time>
      </trkpt>
      <trkpt lat="43.48787" lon="1.41015">
        <ele>154.4</ele>
        <time>2022-05-16T10:19:32Z</time>
      </trkpt>
      <trkpt lat="43.48792" lon="1.41018">
        <ele>154.5</ele>
        <time>2022-05-16T10:19:33Z</time>
      </trkpt>
      <trkpt lat="43.48795" lon="1.41022">
        <ele>154.6</ele>
        <time>2022-05-16T10:19:34Z</time>
      </trkpt>
      <trkpt lat="43.48795" lon="1.41027">
        <ele>154.6</ele>
        <time>2022-05-16T10:19:35Z</time>
      </trkpt>
      <trkpt lat="43.48796" lon="1.41033">
        <ele>154.7</ele>
        <time>2022-05-16T10:19:36Z</time>
      </trkpt>
      <trkpt lat="43.48798" lon="1.41039">
        <ele>154.7</ele>
        <time>2022-05-16T10:19:37Z</time>
      </trkpt>
      <trkpt lat="43.48801" lon="1.41043">
        <ele>154.8</ele>
        <time>2022-05-16T10:19:38Z</time>
      </trkpt>
      <trkpt lat="43.48804" lon="1.41048">
        <ele>154.8</ele>
        <time>2022-05-16T10:19:39Z</time>
      </trkpt>
      <trkpt lat="43.48806" lon="1.41053">
        <ele>154.9</ele>
        <time>2022-05-16T10:19:40Z</time>
      </trkpt>
      <trkpt lat="43.48808" lon="1.41057">
        <ele>154.9</ele>
        <time>2022-05-16T10:19:41Z</time>
      </trkpt>
      <trkpt lat="43.48809" lon="1.41063">
        <ele>155</ele>
        <time>2022-05-16T10:19:42Z</time>
      </trkpt>
      <trkpt lat="43.48811" lon="1.41069">
        <ele>155.1</ele>
        <time>2022-05-16T10:19:43Z</time>
      </trkpt>
      <trkpt lat="43.4881" lon="1.41074">
        <ele>155.2</ele>
        <time>2022-05-16T10:19:44Z</time>
      </trkpt>
      <trkpt lat="43.48812" lon="1.41077">
        <ele>155.3</ele>
        <time>2022-05-16T10:19:45Z</time>
      </trkpt>
      <trkpt lat="43.48813" lon="1.41083">
        <ele>155.3</ele>
        <time>2022-05-16T10:19:46Z</time>
      </trkpt>
      <trkpt lat="43.48814" lon="1.41088">
        <ele>155.3</ele>
        <time>2022-05-16T10:19:47Z</time>
      </trkpt>
      <trkpt lat="43.48816" lon="1.41094">
        <ele>155.3</ele>
        <time>2022-05-16T10:19:48Z</time>
      </trkpt>
      <trkpt lat="43.48817" lon="1.41101">
        <ele>155.3</ele>
        <time>2022-05-16T10:19:49Z</time>
      </trkpt>
      <trkpt lat="43.4882" lon="1.41107">
        <ele>155.2</ele>
        <time>2022-05-16T10:19:50Z</time>
      </trkpt>
      <trkpt lat="43.48823" lon="1.41113">
        <ele>155.1</ele>
        <time>2022-05-16T10:19:51Z</time>
      </trkpt>
      <trkpt lat="43.48826" lon="1.4112">
        <ele>155</ele>
        <time>2022-05-16T10:19:52Z</time>
      </trkpt>
      <trkpt lat="43.48829" lon="1.41126">
        <ele>155</ele>
        <time>2022-05-16T10:19:53Z</time>
      </trkpt>
      <trkpt lat="43.48832" lon="1.41133">
        <ele>154.9</ele>
        <time>2022-05-16T10:19:54Z</time>
      </trkpt>
      <trkpt lat="43.48837" lon="1.4114">
        <ele>154.9</ele>
        <time>2022-05-16T10:19:55Z</time>
      </trkpt>
      <trkpt lat="43.48839" lon="1.41146">
        <ele>154.9</ele>
        <time>2022-05-16T10:19:56Z</time>
      </trkpt>
      <trkpt lat="43.48843" lon="1.41152">
        <ele>154.9</ele>
        <time>2022-05-16T10:19:57Z</time>
      </trkpt>
      <trkpt lat="43.48845" lon="1.41158">
        <ele>154.8</ele>
        <time>2022-05-16T10:19:58Z</time>
      </trkpt>
      <trkpt lat="43.48847" lon="1.41164">
        <ele>154.8</ele>
        <time>2022-05-16T10:19:59Z</time>
      </trkpt>
      <trkpt lat="43.48847" lon="1.41172">
        <ele>154.8</ele>
        <time>2022-05-16T10:20:00Z</time>
      </trkpt>
      <trkpt lat="43.48851" lon="1.41174">
        <ele>154.9</ele>
        <time>2022-05-16T10:20:01Z</time>
      </trkpt>
      <trkpt lat="43.48854" lon="1.41181">
        <ele>154.9</ele>
        <time>2022-05-16T10:20:02Z</time>
      </trkpt>
      <trkpt lat="43.48857" lon="1.41189">
        <ele>154.9</ele>
        <time>2022-05-16T10:20:03Z</time>
      </trkpt>
      <trkpt lat="43.48859" lon="1.41196">
        <ele>154.8</ele>
        <time>2022-05-16T10:20:04Z</time>
      </trkpt>
      <trkpt lat="43.48862" lon="1.41201">
        <ele>154.8</ele>
        <time>2022-05-16T10:20:05Z</time>
      </trkpt>
      <trkpt lat="43.48865" lon="1.4121">
        <ele>154.7</ele>
        <time>2022-05-16T10:20:06Z</time>
      </trkpt>
      <trkpt lat="43.48866" lon="1.41217">
        <ele>154.7</ele>
        <time>2022-05-16T10:20:07Z</time>
      </trkpt>
      <trkpt lat="43.48865" lon="1.41225">
        <ele>154.6</ele>
        <time>2022-05-16T10:20:08Z</time>
      </trkpt>
      <trkpt lat="43.48867" lon="1.41233">
        <ele>154.5</ele>
        <time>2022-05-16T10:20:09Z</time>
      </trkpt>
      <trkpt lat="43.4887" lon="1.4124">
        <ele>154.3</ele>
        <time>2022-05-16T10:20:10Z</time>
      </trkpt>
      <trkpt lat="43.48873" lon="1.41246">
        <ele>154.2</ele>
        <time>2022-05-16T10:20:11Z</time>
      </trkpt>
      <trkpt lat="43.48876" lon="1.41254">
        <ele>154.2</ele>
        <time>2022-05-16T10:20:12Z</time>
      </trkpt>
      <trkpt lat="43.48875" lon="1.41262">
        <ele>154.2</ele>
        <time>2022-05-16T10:20:13Z</time>
      </trkpt>
      <trkpt lat="43.4889" lon="1.41263">
        <ele>154.3</ele>
        <time>2022-05-16T10:20:14Z</time>
      </trkpt>
      <trkpt lat="43.48895" lon="1.41265">
        <ele>154.3</ele>
        <time>2022-05-16T10:20:15Z</time>
      </trkpt>
      <trkpt lat="43.48898" lon="1.41264">
        <ele>154.3</ele>
        <time>2022-05-16T10:20:16Z</time>
      </trkpt>
      <trkpt lat="43.48901" lon="1.41267">
        <ele>154.3</ele>
        <time>2022-05-16T10:20:17Z</time>
      </trkpt>
      <trkpt lat="43.48902" lon="1.41268">
        <ele>154.2</ele>
        <time>2022-05-16T10:20:18Z</time>
      </trkpt>
      <trkpt lat="43.489" lon="1.41273">
        <ele>154.2</ele>
        <time>2022-05-16T10:20:19Z</time>
      </trkpt>
      <trkpt lat="43.48898" lon="1.41277">
        <ele>154.2</ele>
        <time>2022-05-16T10:20:20Z</time>
      </trkpt>
      <trkpt lat="43.48901" lon="1.4128">
        <ele>154.1</ele>
        <time>2022-05-16T10:20:21Z</time>
      </trkpt>
      <trkpt lat="43.48905" lon="1.41281">
        <ele>154</ele>
        <time>2022-05-16T10:20:22Z</time>
      </trkpt>
      <trkpt lat="43.48909" lon="1.41281">
        <ele>154</ele>
        <time>2022-05-16T10:20:23Z</time>
      </trkpt>
      <trkpt lat="43.48908" lon="1.41286">
        <ele>153.9</ele>
        <time>2022-05-16T10:20:24Z</time>
      </trkpt>
      <trkpt lat="43.48908" lon="1.41293">
        <ele>153.9</ele>
        <time>2022-05-16T10:20:25Z</time>
      </trkpt>
      <trkpt lat="43.48913" lon="1.41296">
        <ele>153.8</ele>
        <time>2022-05-16T10:20:26Z</time>
      </trkpt>
      <trkpt lat="43.48918" lon="1.41295">
        <ele>153.8</ele>
        <time>2022-05-16T10:20:27Z</time>
      </trkpt>
      <trkpt lat="43.48921" lon="1.41301">
        <ele>153.7</ele>
        <time>2022-05-16T10:20:28Z</time>
      </trkpt>
      <trkpt lat="43.48922" lon="1.41308">
        <ele>153.7</ele>
        <time>2022-05-16T10:20:29Z</time>
      </trkpt>
      <trkpt lat="43.48922" lon="1.41314">
        <ele>153.6</ele>
        <time>2022-05-16T10:20:30Z</time>
      </trkpt>
      <trkpt lat="43.48924" lon="1.41317">
        <ele>153.6</ele>
        <time>2022-05-16T10:20:31Z</time>
      </trkpt>
      <trkpt lat="43.48926" lon="1.41318">
        <ele>153.6</ele>
        <time>2022-05-16T10:20:32Z</time>
      </trkpt>
      <trkpt lat="43.48928" lon="1.41315">
        <ele>153.6</ele>
        <time>2022-05-16T10:20:33Z</time>
      </trkpt>
      <trkpt lat="43.4893" lon="1.4132">
        <ele>153.5</ele>
        <time>2022-05-16T10:20:34Z</time>
      </trkpt>
      <trkpt lat="43.48932" lon="1.41323">
        <ele>153.5</ele>
        <time>2022-05-16T10:20:35Z</time>
      </trkpt>
      <trkpt lat="43.48935" lon="1.41324">
        <ele>153.5</ele>
        <time>2022-05-16T10:20:36Z</time>
      </trkpt>
      <trkpt lat="43.48938" lon="1.4132">
        <ele>153.5</ele>
        <time>2022-05-16T10:20:37Z</time>
      </trkpt>
      <trkpt lat="43.48942" lon="1.41321">
        <ele>153.5</ele>
        <time>2022-05-16T10:20:38Z</time>
      </trkpt>
      <trkpt lat="43.48945" lon="1.41323">
        <ele>153.5</ele>
        <time>2022-05-16T10:20:39Z</time>
      </trkpt>
      <trkpt lat="43.48947" lon="1.41327">
        <ele>153.5</ele>
        <time>2022-05-16T10:20:40Z</time>
      </trkpt>
      <trkpt lat="43.48951" lon="1.41331">
        <ele>153.6</ele>
        <time>2022-05-16T10:20:41Z</time>
      </trkpt>
      <trkpt lat="43.48956" lon="1.41332">
        <ele>153.7</ele>
        <time>2022-05-16T10:20:42Z</time>
      </trkpt>
      <trkpt lat="43.48961" lon="1.41331">
        <ele>153.9</ele>
        <time>2022-05-16T10:20:43Z</time>
      </trkpt>
      <trkpt lat="43.48965" lon="1.41332">
        <ele>154</ele>
        <time>2022-05-16T10:20:44Z</time>
      </trkpt>
      <trkpt lat="43.4897" lon="1.41333">
        <ele>154.2</ele>
        <time>2022-05-16T10:20:45Z</time>
      </trkpt>
      <trkpt lat="43.48974" lon="1.41335">
        <ele>154.3</ele>
        <time>2022-05-16T10:20:46Z</time>
      </trkpt>
      <trkpt lat="43.48977" lon="1.41337">
        <ele>154.3</ele>
        <time>2022-05-16T10:20:47Z</time>
      </trkpt>
      <trkpt lat="43.4898" lon="1.41338">
        <ele>154.4</ele>
        <time>2022-05-16T10:20:48Z</time>
      </trkpt>
      <trkpt lat="43.48985" lon="1.41339">
        <ele>154.4</ele>
        <time>2022-05-16T10:20:49Z</time>
      </trkpt>
      <trkpt lat="43.48991" lon="1.4134">
        <ele>154.4</ele>
        <time>2022-05-16T10:20:50Z</time>
      </trkpt>
      <trkpt lat="43.48996" lon="1.41343">
        <ele>154.4</ele>
        <time>2022-05-16T10:20:51Z</time>
      </trkpt>
      <trkpt lat="43.49" lon="1.4134">
        <ele>154.4</ele>
        <time>2022-05-16T10:20:52Z</time>
      </trkpt>
      <trkpt lat="43.49005" lon="1.41341">
        <ele>154.4</ele>
        <time>2022-05-16T10:20:53Z</time>
      </trkpt>
      <trkpt lat="43.49011" lon="1.4134">
        <ele>154.4</ele>
        <time>2022-05-16T10:20:54Z</time>
      </trkpt>
      <trkpt lat="43.49017" lon="1.41341">
        <ele>154.3</ele>
        <time>2022-05-16T10:20:55Z</time>
      </trkpt>
      <trkpt lat="43.49023" lon="1.4134">
        <ele>154.3</ele>
        <time>2022-05-16T10:20:56Z</time>
      </trkpt>
      <trkpt lat="43.49029" lon="1.41339">
        <ele>154.3</ele>
        <time>2022-05-16T10:20:57Z</time>
      </trkpt>
      <trkpt lat="43.49034" lon="1.4134">
        <ele>154.3</ele>
        <time>2022-05-16T10:20:58Z</time>
      </trkpt>
      <trkpt lat="43.4904" lon="1.41342">
        <ele>154.3</ele>
        <time>2022-05-16T10:20:59Z</time>
      </trkpt>
      <trkpt lat="43.49045" lon="1.41343">
        <ele>154.3</ele>
        <time>2022-05-16T10:21:00Z</time>
      </trkpt>
      <trkpt lat="43.49048" lon="1.41343">
        <ele>154.4</ele>
        <time>2022-05-16T10:21:01Z</time>
      </trkpt>
      <trkpt lat="43.4905" lon="1.41347">
        <ele>154.5</ele>
        <time>2022-05-16T10:21:03Z</time>
      </trkpt>
      <trkpt lat="43.49052" lon="1.41348">
        <ele>154.6</ele>
        <time>2022-05-16T10:21:04Z</time>
      </trkpt>
      <trkpt lat="43.49057" lon="1.4135">
        <ele>154.7</ele>
        <time>2022-05-16T10:21:05Z</time>
      </trkpt>
      <trkpt lat="43.49061" lon="1.41353">
        <ele>154.9</ele>
        <time>2022-05-16T10:21:06Z</time>
      </trkpt>
      <trkpt lat="43.49065" lon="1.41355">
        <ele>155</ele>
        <time>2022-05-16T10:21:07Z</time>
      </trkpt>
      <trkpt lat="43.49069" lon="1.41355">
        <ele>154.9</ele>
        <time>2022-05-16T10:21:08Z</time>
      </trkpt>
      <trkpt lat="43.49072" lon="1.41351">
        <ele>154.8</ele>
        <time>2022-05-16T10:21:09Z</time>
      </trkpt>
      <trkpt lat="43.49074" lon="1.41346">
        <ele>154.7</ele>
        <time>2022-05-16T10:21:10Z</time>
      </trkpt>
      <trkpt lat="43.49076" lon="1.41345">
        <ele>154.7</ele>
        <time>2022-05-16T10:21:11Z</time>
      </trkpt>
      <trkpt lat="43.49077" lon="1.41346">
        <ele>154.6</ele>
        <time>2022-05-16T10:21:12Z</time>
      </trkpt>
      <trkpt lat="43.4908" lon="1.41343">
        <ele>154.4</ele>
        <time>2022-05-16T10:21:13Z</time>
      </trkpt>
      <trkpt lat="43.49081" lon="1.41338">
        <ele>154.2</ele>
        <time>2022-05-16T10:21:14Z</time>
      </trkpt>
      <trkpt lat="43.49085" lon="1.41334">
        <ele>154</ele>
        <time>2022-05-16T10:21:15Z</time>
      </trkpt>
      <trkpt lat="43.49091" lon="1.4133">
        <ele>153.7</ele>
        <time>2022-05-16T10:21:16Z</time>
      </trkpt>
      <trkpt lat="43.49096" lon="1.41325">
        <ele>153.4</ele>
        <time>2022-05-16T10:21:17Z</time>
      </trkpt>
      <trkpt lat="43.49102" lon="1.41321">
        <ele>153.2</ele>
        <time>2022-05-16T10:21:18Z</time>
      </trkpt>
      <trkpt lat="43.49107" lon="1.41318">
        <ele>153.2</ele>
        <time>2022-05-16T10:21:19Z</time>
      </trkpt>
      <trkpt lat="43.49113" lon="1.41317">
        <ele>153.2</ele>
        <time>2022-05-16T10:21:20Z</time>
      </trkpt>
      <trkpt lat="43.49119" lon="1.41313">
        <ele>153.4</ele>
        <time>2022-05-16T10:21:21Z</time>
      </trkpt>
      <trkpt lat="43.49125" lon="1.41311">
        <ele>153.7</ele>
        <time>2022-05-16T10:21:22Z</time>
      </trkpt>
      <trkpt lat="43.4913" lon="1.41311">
        <ele>154</ele>
        <time>2022-05-16T10:21:23Z</time>
      </trkpt>
      <trkpt lat="43.49134" lon="1.41303">
        <ele>154.6</ele>
        <time>2022-05-16T10:21:24Z</time>
      </trkpt>
      <trkpt lat="43.49138" lon="1.41302">
        <ele>155.1</ele>
        <time>2022-05-16T10:21:25Z</time>
      </trkpt>
      <trkpt lat="43.49144" lon="1.41305">
        <ele>156</ele>
        <time>2022-05-16T10:21:26Z</time>
      </trkpt>
      <trkpt lat="43.49148" lon="1.41306">
        <ele>156.5</ele>
        <time>2022-05-16T10:21:27Z</time>
      </trkpt>
      <trkpt lat="43.49152" lon="1.41306">
        <ele>157</ele>
        <time>2022-05-16T10:21:28Z</time>
      </trkpt>
      <trkpt lat="43.49156" lon="1.41303">
        <ele>157.5</ele>
        <time>2022-05-16T10:21:29Z</time>
      </trkpt>
      <trkpt lat="43.49158" lon="1.41298">
        <ele>157.8</ele>
        <time>2022-05-16T10:21:30Z</time>
      </trkpt>
      <trkpt lat="43.49161" lon="1.41297">
        <ele>158</ele>
        <time>2022-05-16T10:21:31Z</time>
      </trkpt>
      <trkpt lat="43.49162" lon="1.41297">
        <ele>158.1</ele>
        <time>2022-05-16T10:21:32Z</time>
      </trkpt>
      <trkpt lat="43.49164" lon="1.41293">
        <ele>158.1</ele>
        <time>2022-05-16T10:21:33Z</time>
      </trkpt>
      <trkpt lat="43.49166" lon="1.4129">
        <ele>158</ele>
        <time>2022-05-16T10:21:34Z</time>
      </trkpt>
      <trkpt lat="43.49166" lon="1.41286">
        <ele>157.7</ele>
        <time>2022-05-16T10:21:35Z</time>
      </trkpt>
      <trkpt lat="43.49168" lon="1.4128">
        <ele>157.3</ele>
        <time>2022-05-16T10:21:36Z</time>
      </trkpt>
      <trkpt lat="43.49172" lon="1.41272">
        <ele>156.5</ele>
        <time>2022-05-16T10:21:37Z</time>
      </trkpt>
      <trkpt lat="43.49175" lon="1.41266">
        <ele>155.9</ele>
        <time>2022-05-16T10:21:38Z</time>
      </trkpt>
      <trkpt lat="43.49179" lon="1.41261">
        <ele>155.6</ele>
        <time>2022-05-16T10:21:39Z</time>
      </trkpt>
      <trkpt lat="43.49185" lon="1.41257">
        <ele>155.4</ele>
        <time>2022-05-16T10:21:40Z</time>
      </trkpt>
      <trkpt lat="43.49189" lon="1.41255">
        <ele>155.4</ele>
        <time>2022-05-16T10:21:41Z</time>
      </trkpt>
      <trkpt lat="43.49194" lon="1.41251">
        <ele>155.5</ele>
        <time>2022-05-16T10:21:42Z</time>
      </trkpt>
      <trkpt lat="43.49198" lon="1.41249">
        <ele>155.7</ele>
        <time>2022-05-16T10:21:43Z</time>
      </trkpt>
      <trkpt lat="43.49202" lon="1.41244">
        <ele>155.9</ele>
        <time>2022-05-16T10:21:44Z</time>
      </trkpt>
      <trkpt lat="43.49206" lon="1.41244">
        <ele>156.1</ele>
        <time>2022-05-16T10:21:45Z</time>
      </trkpt>
      <trkpt lat="43.49207" lon="1.41241">
        <ele>156.2</ele>
        <time>2022-05-16T10:21:46Z</time>
      </trkpt>
      <trkpt lat="43.49209" lon="1.41235">
        <ele>156.3</ele>
        <time>2022-05-16T10:21:47Z</time>
      </trkpt>
      <trkpt lat="43.49213" lon="1.41231">
        <ele>156.4</ele>
        <time>2022-05-16T10:21:48Z</time>
      </trkpt>
      <trkpt lat="43.49217" lon="1.41229">
        <ele>156.5</ele>
        <time>2022-05-16T10:21:49Z</time>
      </trkpt>
      <trkpt lat="43.49221" lon="1.41226">
        <ele>156.5</ele>
        <time>2022-05-16T10:21:50Z</time>
      </trkpt>
      <trkpt lat="43.49224" lon="1.41224">
        <ele>156.5</ele>
        <time>2022-05-16T10:21:51Z</time>
      </trkpt>
      <trkpt lat="43.49228" lon="1.41218">
        <ele>156.3</ele>
        <time>2022-05-16T10:21:52Z</time>
      </trkpt>
      <trkpt lat="43.49232" lon="1.41215">
        <ele>156.1</ele>
        <time>2022-05-16T10:21:53Z</time>
      </trkpt>
      <trkpt lat="43.49236" lon="1.41212">
        <ele>155.9</ele>
        <time>2022-05-16T10:21:54Z</time>
      </trkpt>
      <trkpt lat="43.49241" lon="1.41207">
        <ele>155.6</ele>
        <time>2022-05-16T10:21:55Z</time>
      </trkpt>
      <trkpt lat="43.49248" lon="1.41206">
        <ele>155.2</ele>
        <time>2022-05-16T10:21:56Z</time>
      </trkpt>
      <trkpt lat="43.49255" lon="1.41204">
        <ele>154.9</ele>
        <time>2022-05-16T10:21:57Z</time>
      </trkpt>
      <trkpt lat="43.49262" lon="1.41202">
        <ele>154.9</ele>
        <time>2022-05-16T10:21:58Z</time>
      </trkpt>
      <trkpt lat="43.49268" lon="1.41203">
        <ele>154.9</ele>
        <time>2022-05-16T10:21:59Z</time>
      </trkpt>
      <trkpt lat="43.49273" lon="1.41205">
        <ele>154.9</ele>
        <time>2022-05-16T10:22:00Z</time>
      </trkpt>
      <trkpt lat="43.49278" lon="1.41205">
        <ele>155</ele>
        <time>2022-05-16T10:22:01Z</time>
      </trkpt>
      <trkpt lat="43.49281" lon="1.41203">
        <ele>155</ele>
        <time>2022-05-16T10:22:02Z</time>
      </trkpt>
      <trkpt lat="43.49287" lon="1.41202">
        <ele>155</ele>
        <time>2022-05-16T10:22:03Z</time>
      </trkpt>
      <trkpt lat="43.49293" lon="1.412">
        <ele>155</ele>
        <time>2022-05-16T10:22:04Z</time>
      </trkpt>
      <trkpt lat="43.49299" lon="1.41197">
        <ele>155</ele>
        <time>2022-05-16T10:22:05Z</time>
      </trkpt>
      <trkpt lat="43.49304" lon="1.41196">
        <ele>154.9</ele>
        <time>2022-05-16T10:22:06Z</time>
      </trkpt>
      <trkpt lat="43.4931" lon="1.41194">
        <ele>154.9</ele>
        <time>2022-05-16T10:22:07Z</time>
      </trkpt>
      <trkpt lat="43.49316" lon="1.41191">
        <ele>154.9</ele>
        <time>2022-05-16T10:22:08Z</time>
      </trkpt>
      <trkpt lat="43.49322" lon="1.4119">
        <ele>154.9</ele>
        <time>2022-05-16T10:22:09Z</time>
      </trkpt>
      <trkpt lat="43.49328" lon="1.41187">
        <ele>154.9</ele>
        <time>2022-05-16T10:22:10Z</time>
      </trkpt>
      <trkpt lat="43.49334" lon="1.41186">
        <ele>154.9</ele>
        <time>2022-05-16T10:22:11Z</time>
      </trkpt>
      <trkpt lat="43.4934" lon="1.41185">
        <ele>155</ele>
        <time>2022-05-16T10:22:12Z</time>
      </trkpt>
      <trkpt lat="43.49346" lon="1.41185">
        <ele>155</ele>
        <time>2022-05-16T10:22:13Z</time>
      </trkpt>
      <trkpt lat="43.49351" lon="1.41183">
        <ele>155</ele>
        <time>2022-05-16T10:22:14Z</time>
      </trkpt>
      <trkpt lat="43.49357" lon="1.41182">
        <ele>155</ele>
        <time>2022-05-16T10:22:15Z</time>
      </trkpt>
      <trkpt lat="43.49362" lon="1.41181">
        <ele>154.9</ele>
        <time>2022-05-16T10:22:16Z</time>
      </trkpt>
      <trkpt lat="43.49368" lon="1.41178">
        <ele>154.9</ele>
        <time>2022-05-16T10:22:17Z</time>
      </trkpt>
      <trkpt lat="43.49374" lon="1.41174">
        <ele>154.8</ele>
        <time>2022-05-16T10:22:18Z</time>
      </trkpt>
      <trkpt lat="43.4938" lon="1.41172">
        <ele>154.8</ele>
        <time>2022-05-16T10:22:19Z</time>
      </trkpt>
      <trkpt lat="43.49386" lon="1.41169">
        <ele>154.9</ele>
        <time>2022-05-16T10:22:21Z</time>
      </trkpt>
      <trkpt lat="43.49392" lon="1.41167">
        <ele>154.9</ele>
        <time>2022-05-16T10:22:22Z</time>
      </trkpt>
      <trkpt lat="43.49398" lon="1.41166">
        <ele>155</ele>
        <time>2022-05-16T10:22:23Z</time>
      </trkpt>
      <trkpt lat="43.49403" lon="1.41163">
        <ele>155.1</ele>
        <time>2022-05-16T10:22:24Z</time>
      </trkpt>
      <trkpt lat="43.49408" lon="1.41161">
        <ele>155.2</ele>
        <time>2022-05-16T10:22:25Z</time>
      </trkpt>
      <trkpt lat="43.49413" lon="1.41157">
        <ele>155.3</ele>
        <time>2022-05-16T10:22:26Z</time>
      </trkpt>
      <trkpt lat="43.49418" lon="1.41153">
        <ele>155.3</ele>
        <time>2022-05-16T10:22:27Z</time>
      </trkpt>
      <trkpt lat="43.49423" lon="1.41148">
        <ele>155.3</ele>
        <time>2022-05-16T10:22:28Z</time>
      </trkpt>
      <trkpt lat="43.49428" lon="1.41145">
        <ele>155.3</ele>
        <time>2022-05-16T10:22:29Z</time>
      </trkpt>
      <trkpt lat="43.49434" lon="1.41143">
        <ele>155.3</ele>
        <time>2022-05-16T10:22:30Z</time>
      </trkpt>
      <trkpt lat="43.4944" lon="1.41139">
        <ele>155.4</ele>
        <time>2022-05-16T10:22:31Z</time>
      </trkpt>
      <trkpt lat="43.49445" lon="1.41135">
        <ele>155.5</ele>
        <time>2022-05-16T10:22:32Z</time>
      </trkpt>
      <trkpt lat="43.49451" lon="1.41133">
        <ele>155.6</ele>
        <time>2022-05-16T10:22:33Z</time>
      </trkpt>
      <trkpt lat="43.49457" lon="1.4113">
        <ele>155.8</ele>
        <time>2022-05-16T10:22:34Z</time>
      </trkpt>
      <trkpt lat="43.49462" lon="1.4113">
        <ele>156</ele>
        <time>2022-05-16T10:22:35Z</time>
      </trkpt>
      <trkpt lat="43.49467" lon="1.41129">
        <ele>156.2</ele>
        <time>2022-05-16T10:22:36Z</time>
      </trkpt>
      <trkpt lat="43.49473" lon="1.41128">
        <ele>156.5</ele>
        <time>2022-05-16T10:22:37Z</time>
      </trkpt>
      <trkpt lat="43.49478" lon="1.41126">
        <ele>156.7</ele>
        <time>2022-05-16T10:22:38Z</time>
      </trkpt>
      <trkpt lat="43.49483" lon="1.41122">
        <ele>156.8</ele>
        <time>2022-05-16T10:22:39Z</time>
      </trkpt>
      <trkpt lat="43.49493" lon="1.41116">
        <ele>157.1</ele>
        <time>2022-05-16T10:22:40Z</time>
      </trkpt>
      <trkpt lat="43.49499" lon="1.41112">
        <ele>157.1</ele>
        <time>2022-05-16T10:22:41Z</time>
      </trkpt>
      <trkpt lat="43.49504" lon="1.41108">
        <ele>157.2</ele>
        <time>2022-05-16T10:22:42Z</time>
      </trkpt>
      <trkpt lat="43.49509" lon="1.41105">
        <ele>157.2</ele>
        <time>2022-05-16T10:22:43Z</time>
      </trkpt>
      <trkpt lat="43.49514" lon="1.411">
        <ele>157.1</ele>
        <time>2022-05-16T10:22:44Z</time>
      </trkpt>
      <trkpt lat="43.49519" lon="1.41096">
        <ele>157</ele>
        <time>2022-05-16T10:22:45Z</time>
      </trkpt>
      <trkpt lat="43.49525" lon="1.41093">
        <ele>156.9</ele>
        <time>2022-05-16T10:22:46Z</time>
      </trkpt>
      <trkpt lat="43.49532" lon="1.4109">
        <ele>156.6</ele>
        <time>2022-05-16T10:22:47Z</time>
      </trkpt>
      <trkpt lat="43.49538" lon="1.41087">
        <ele>156.4</ele>
        <time>2022-05-16T10:22:48Z</time>
      </trkpt>
      <trkpt lat="43.49544" lon="1.41084">
        <ele>156.1</ele>
        <time>2022-05-16T10:22:49Z</time>
      </trkpt>
      <trkpt lat="43.4955" lon="1.41079">
        <ele>155.8</ele>
        <time>2022-05-16T10:22:50Z</time>
      </trkpt>
      <trkpt lat="43.49557" lon="1.41077">
        <ele>155.5</ele>
        <time>2022-05-16T10:22:51Z</time>
      </trkpt>
      <trkpt lat="43.49562" lon="1.41075">
        <ele>155.2</ele>
        <time>2022-05-16T10:22:52Z</time>
      </trkpt>
      <trkpt lat="43.49567" lon="1.4107">
        <ele>154.9</ele>
        <time>2022-05-16T10:22:53Z</time>
      </trkpt>
      <trkpt lat="43.49573" lon="1.41063">
        <ele>154.5</ele>
        <time>2022-05-16T10:22:54Z</time>
      </trkpt>
      <trkpt lat="43.4958" lon="1.41058">
        <ele>154.2</ele>
        <time>2022-05-16T10:22:55Z</time>
      </trkpt>
      <trkpt lat="43.49588" lon="1.41053">
        <ele>153.9</ele>
        <time>2022-05-16T10:22:56Z</time>
      </trkpt>
      <trkpt lat="43.49594" lon="1.41048">
        <ele>153.8</ele>
        <time>2022-05-16T10:22:57Z</time>
      </trkpt>
      <trkpt lat="43.496" lon="1.41044">
        <ele>153.8</ele>
        <time>2022-05-16T10:22:58Z</time>
      </trkpt>
      <trkpt lat="43.49607" lon="1.41042">
        <ele>153.9</ele>
        <time>2022-05-16T10:22:59Z</time>
      </trkpt>
      <trkpt lat="43.49615" lon="1.41041">
        <ele>154.1</ele>
        <time>2022-05-16T10:23:00Z</time>
      </trkpt>
      <trkpt lat="43.4962" lon="1.41037">
        <ele>154.4</ele>
        <time>2022-05-16T10:23:01Z</time>
      </trkpt>
      <trkpt lat="43.49625" lon="1.41035">
        <ele>154.5</ele>
        <time>2022-05-16T10:23:02Z</time>
      </trkpt>
      <trkpt lat="43.4963" lon="1.41033">
        <ele>154.7</ele>
        <time>2022-05-16T10:23:03Z</time>
      </trkpt>
      <trkpt lat="43.49636" lon="1.41032">
        <ele>154.8</ele>
        <time>2022-05-16T10:23:04Z</time>
      </trkpt>
      <trkpt lat="43.49641" lon="1.4103">
        <ele>155</ele>
        <time>2022-05-16T10:23:05Z</time>
      </trkpt>
      <trkpt lat="43.49649" lon="1.41027">
        <ele>155.1</ele>
        <time>2022-05-16T10:23:06Z</time>
      </trkpt>
      <trkpt lat="43.49655" lon="1.41024">
        <ele>155.3</ele>
        <time>2022-05-16T10:23:07Z</time>
      </trkpt>
      <trkpt lat="43.4966" lon="1.4102">
        <ele>155.5</ele>
        <time>2022-05-16T10:23:08Z</time>
      </trkpt>
      <trkpt lat="43.49666" lon="1.41018">
        <ele>155.7</ele>
        <time>2022-05-16T10:23:09Z</time>
      </trkpt>
      <trkpt lat="43.49671" lon="1.41014">
        <ele>156.1</ele>
        <time>2022-05-16T10:23:10Z</time>
      </trkpt>
      <trkpt lat="43.49676" lon="1.41009">
        <ele>156.5</ele>
        <time>2022-05-16T10:23:11Z</time>
      </trkpt>
      <trkpt lat="43.4968" lon="1.41007">
        <ele>156.8</ele>
        <time>2022-05-16T10:23:12Z</time>
      </trkpt>
      <trkpt lat="43.49685" lon="1.41003">
        <ele>157.3</ele>
        <time>2022-05-16T10:23:13Z</time>
      </trkpt>
      <trkpt lat="43.4969" lon="1.41001">
        <ele>157.7</ele>
        <time>2022-05-16T10:23:14Z</time>
      </trkpt>
      <trkpt lat="43.49695" lon="1.40999">
        <ele>158.1</ele>
        <time>2022-05-16T10:23:15Z</time>
      </trkpt>
      <trkpt lat="43.497" lon="1.40998">
        <ele>158.5</ele>
        <time>2022-05-16T10:23:16Z</time>
      </trkpt>
      <trkpt lat="43.49705" lon="1.40997">
        <ele>158.9</ele>
        <time>2022-05-16T10:23:17Z</time>
      </trkpt>
      <trkpt lat="43.49711" lon="1.40994">
        <ele>159.1</ele>
        <time>2022-05-16T10:23:18Z</time>
      </trkpt>
      <trkpt lat="43.49716" lon="1.40991">
        <ele>159.2</ele>
        <time>2022-05-16T10:23:19Z</time>
      </trkpt>
      <trkpt lat="43.49722" lon="1.40988">
        <ele>159.3</ele>
        <time>2022-05-16T10:23:20Z</time>
      </trkpt>
      <trkpt lat="43.49727" lon="1.40985">
        <ele>159.5</ele>
        <time>2022-05-16T10:23:21Z</time>
      </trkpt>
      <trkpt lat="43.49733" lon="1.40983">
        <ele>159.6</ele>
        <time>2022-05-16T10:23:22Z</time>
      </trkpt>
      <trkpt lat="43.49739" lon="1.40981">
        <ele>159.6</ele>
        <time>2022-05-16T10:23:23Z</time>
      </trkpt>
      <trkpt lat="43.49745" lon="1.40979">
        <ele>159.7</ele>
        <time>2022-05-16T10:23:24Z</time>
      </trkpt>
      <trkpt lat="43.4975" lon="1.40976">
        <ele>159.7</ele>
        <time>2022-05-16T10:23:25Z</time>
      </trkpt>
      <trkpt lat="43.49755" lon="1.40976">
        <ele>159.7</ele>
        <time>2022-05-16T10:23:26Z</time>
      </trkpt>
      <trkpt lat="43.4976" lon="1.40975">
        <ele>159.7</ele>
        <time>2022-05-16T10:23:27Z</time>
      </trkpt>
      <trkpt lat="43.49763" lon="1.40974">
        <ele>159.7</ele>
        <time>2022-05-16T10:23:28Z</time>
      </trkpt>
      <trkpt lat="43.49766" lon="1.40971">
        <ele>159.7</ele>
        <time>2022-05-16T10:23:29Z</time>
      </trkpt>
      <trkpt lat="43.49765" lon="1.40966">
        <ele>158.4</ele>
        <time>2022-05-16T10:23:30Z</time>
      </trkpt>
      <trkpt lat="43.49765" lon="1.40963">
        <ele>158.1</ele>
        <time>2022-05-16T10:23:31Z</time>
      </trkpt>
      <trkpt lat="43.49764" lon="1.40958">
        <ele>157.7</ele>
        <time>2022-05-16T10:23:32Z</time>
      </trkpt>
      <trkpt lat="43.49762" lon="1.40956">
        <ele>157.6</ele>
        <time>2022-05-16T10:23:33Z</time>
      </trkpt>
      <trkpt lat="43.49766" lon="1.40952">
        <ele>157.1</ele>
        <time>2022-05-16T10:23:34Z</time>
      </trkpt>
      <trkpt lat="43.49772" lon="1.40952">
        <ele>156.5</ele>
        <time>2022-05-16T10:23:35Z</time>
      </trkpt>
      <trkpt lat="43.49777" lon="1.40949">
        <ele>155.9</ele>
        <time>2022-05-16T10:23:36Z</time>
      </trkpt>
      <trkpt lat="43.49782" lon="1.40946">
        <ele>155.4</ele>
        <time>2022-05-16T10:23:37Z</time>
      </trkpt>
      <trkpt lat="43.49785" lon="1.40944">
        <ele>155.1</ele>
        <time>2022-05-16T10:23:38Z</time>
      </trkpt>
      <trkpt lat="43.49785" lon="1.40938">
        <ele>154.8</ele>
        <time>2022-05-16T10:23:39Z</time>
      </trkpt>
      <trkpt lat="43.49784" lon="1.40935">
        <ele>154.7</ele>
        <time>2022-05-16T10:23:40Z</time>
      </trkpt>
      <trkpt lat="43.49786" lon="1.40929">
        <ele>154.6</ele>
        <time>2022-05-16T10:23:41Z</time>
      </trkpt>
      <trkpt lat="43.4979" lon="1.40926">
        <ele>154.5</ele>
        <time>2022-05-16T10:23:42Z</time>
      </trkpt>
      <trkpt lat="43.49794" lon="1.40921">
        <ele>154.4</ele>
        <time>2022-05-16T10:23:43Z</time>
      </trkpt>
      <trkpt lat="43.49797" lon="1.40917">
        <ele>154.3</ele>
        <time>2022-05-16T10:23:44Z</time>
      </trkpt>
      <trkpt lat="43.49799" lon="1.4091">
        <ele>154.2</ele>
        <time>2022-05-16T10:23:45Z</time>
      </trkpt>
      <trkpt lat="43.49801" lon="1.40903">
        <ele>154.1</ele>
        <time>2022-05-16T10:23:46Z</time>
      </trkpt>
      <trkpt lat="43.49803" lon="1.40895">
        <ele>154.1</ele>
        <time>2022-05-16T10:23:47Z</time>
      </trkpt>
      <trkpt lat="43.49807" lon="1.40889">
        <ele>153.8</ele>
        <time>2022-05-16T10:23:48Z</time>
      </trkpt>
      <trkpt lat="43.49812" lon="1.40884">
        <ele>153.8</ele>
        <time>2022-05-16T10:23:49Z</time>
      </trkpt>
      <trkpt lat="43.49817" lon="1.4088">
        <ele>153.7</ele>
        <time>2022-05-16T10:23:50Z</time>
      </trkpt>
      <trkpt lat="43.49822" lon="1.40876">
        <ele>153.6</ele>
        <time>2022-05-16T10:23:51Z</time>
      </trkpt>
      <trkpt lat="43.49827" lon="1.40871">
        <ele>153.5</ele>
        <time>2022-05-16T10:23:52Z</time>
      </trkpt>
      <trkpt lat="43.49832" lon="1.40867">
        <ele>153.5</ele>
        <time>2022-05-16T10:23:53Z</time>
      </trkpt>
      <trkpt lat="43.49837" lon="1.40862">
        <ele>153.4</ele>
        <time>2022-05-16T10:23:54Z</time>
      </trkpt>
      <trkpt lat="43.49841" lon="1.40858">
        <ele>153.4</ele>
        <time>2022-05-16T10:23:55Z</time>
      </trkpt>
      <trkpt lat="43.49846" lon="1.40853">
        <ele>153.4</ele>
        <time>2022-05-16T10:23:56Z</time>
      </trkpt>
      <trkpt lat="43.4985" lon="1.40851">
        <ele>153.3</ele>
        <time>2022-05-16T10:23:57Z</time>
      </trkpt>
      <trkpt lat="43.49855" lon="1.40847">
        <ele>153.3</ele>
        <time>2022-05-16T10:23:58Z</time>
      </trkpt>
      <trkpt lat="43.49859" lon="1.40843">
        <ele>153.3</ele>
        <time>2022-05-16T10:23:59Z</time>
      </trkpt>
      <trkpt lat="43.49863" lon="1.40839">
        <ele>153.2</ele>
        <time>2022-05-16T10:24:00Z</time>
      </trkpt>
      <trkpt lat="43.49867" lon="1.40835">
        <ele>153.2</ele>
        <time>2022-05-16T10:24:01Z</time>
      </trkpt>
      <trkpt lat="43.49872" lon="1.40831">
        <ele>153.1</ele>
        <time>2022-05-16T10:24:02Z</time>
      </trkpt>
      <trkpt lat="43.49876" lon="1.40827">
        <ele>153.1</ele>
        <time>2022-05-16T10:24:03Z</time>
      </trkpt>
      <trkpt lat="43.49881" lon="1.40824">
        <ele>153.1</ele>
        <time>2022-05-16T10:24:04Z</time>
      </trkpt>
      <trkpt lat="43.49887" lon="1.4082">
        <ele>153.1</ele>
        <time>2022-05-16T10:24:05Z</time>
      </trkpt>
      <trkpt lat="43.49891" lon="1.40816">
        <ele>153.1</ele>
        <time>2022-05-16T10:24:06Z</time>
      </trkpt>
      <trkpt lat="43.49896" lon="1.40812">
        <ele>153.1</ele>
        <time>2022-05-16T10:24:07Z</time>
      </trkpt>
      <trkpt lat="43.49901" lon="1.40807">
        <ele>153.1</ele>
        <time>2022-05-16T10:24:08Z</time>
      </trkpt>
      <trkpt lat="43.49906" lon="1.40802">
        <ele>153.1</ele>
        <time>2022-05-16T10:24:09Z</time>
      </trkpt>
      <trkpt lat="43.49911" lon="1.40799">
        <ele>153.1</ele>
        <time>2022-05-16T10:24:10Z</time>
      </trkpt>
      <trkpt lat="43.49916" lon="1.40794">
        <ele>153.1</ele>
        <time>2022-05-16T10:24:11Z</time>
      </trkpt>
      <trkpt lat="43.49921" lon="1.4079">
        <ele>153.1</ele>
        <time>2022-05-16T10:24:12Z</time>
      </trkpt>
      <trkpt lat="43.49927" lon="1.40786">
        <ele>153.1</ele>
        <time>2022-05-16T10:24:13Z</time>
      </trkpt>
      <trkpt lat="43.49931" lon="1.40783">
        <ele>153.1</ele>
        <time>2022-05-16T10:24:14Z</time>
      </trkpt>
      <trkpt lat="43.49937" lon="1.40779">
        <ele>153.1</ele>
        <time>2022-05-16T10:24:15Z</time>
      </trkpt>
      <trkpt lat="43.49942" lon="1.40775">
        <ele>153.1</ele>
        <time>2022-05-16T10:24:16Z</time>
      </trkpt>
      <trkpt lat="43.49948" lon="1.40769">
        <ele>153.1</ele>
        <time>2022-05-16T10:24:17Z</time>
      </trkpt>
      <trkpt lat="43.49953" lon="1.40765">
        <ele>153.1</ele>
        <time>2022-05-16T10:24:18Z</time>
      </trkpt>
      <trkpt lat="43.49958" lon="1.40764">
        <ele>153.1</ele>
        <time>2022-05-16T10:24:19Z</time>
      </trkpt>
      <trkpt lat="43.49961" lon="1.40758">
        <ele>153</ele>
        <time>2022-05-16T10:24:20Z</time>
      </trkpt>
      <trkpt lat="43.49966" lon="1.40752">
        <ele>153</ele>
        <time>2022-05-16T10:24:21Z</time>
      </trkpt>
      <trkpt lat="43.4997" lon="1.40748">
        <ele>153</ele>
        <time>2022-05-16T10:24:22Z</time>
      </trkpt>
      <trkpt lat="43.49976" lon="1.40744">
        <ele>153</ele>
        <time>2022-05-16T10:24:23Z</time>
      </trkpt>
      <trkpt lat="43.49981" lon="1.4074">
        <ele>153</ele>
        <time>2022-05-16T10:24:24Z</time>
      </trkpt>
      <trkpt lat="43.49987" lon="1.40736">
        <ele>153</ele>
        <time>2022-05-16T10:24:25Z</time>
      </trkpt>
      <trkpt lat="43.49992" lon="1.40733">
        <ele>153</ele>
        <time>2022-05-16T10:24:27Z</time>
      </trkpt>
      <trkpt lat="43.49997" lon="1.40729">
        <ele>153</ele>
        <time>2022-05-16T10:24:28Z</time>
      </trkpt>
      <trkpt lat="43.50003" lon="1.40724">
        <ele>153</ele>
        <time>2022-05-16T10:24:29Z</time>
      </trkpt>
      <trkpt lat="43.50008" lon="1.40721">
        <ele>153</ele>
        <time>2022-05-16T10:24:30Z</time>
      </trkpt>
      <trkpt lat="43.50013" lon="1.40716">
        <ele>153</ele>
        <time>2022-05-16T10:24:31Z</time>
      </trkpt>
      <trkpt lat="43.50018" lon="1.40713">
        <ele>153</ele>
        <time>2022-05-16T10:24:32Z</time>
      </trkpt>
      <trkpt lat="43.50023" lon="1.40709">
        <ele>153</ele>
        <time>2022-05-16T10:24:33Z</time>
      </trkpt>
      <trkpt lat="43.50028" lon="1.40705">
        <ele>152.9</ele>
        <time>2022-05-16T10:24:34Z</time>
      </trkpt>
      <trkpt lat="43.50031" lon="1.40698">
        <ele>152.9</ele>
        <time>2022-05-16T10:24:35Z</time>
      </trkpt>
      <trkpt lat="43.50031" lon="1.4069">
        <ele>152.9</ele>
        <time>2022-05-16T10:24:36Z</time>
      </trkpt>
      <trkpt lat="43.50033" lon="1.40682">
        <ele>152.9</ele>
        <time>2022-05-16T10:24:37Z</time>
      </trkpt>
      <trkpt lat="43.50035" lon="1.40675">
        <ele>152.8</ele>
        <time>2022-05-16T10:24:38Z</time>
      </trkpt>
      <trkpt lat="43.50038" lon="1.40669">
        <ele>152.8</ele>
        <time>2022-05-16T10:24:39Z</time>
      </trkpt>
      <trkpt lat="43.50042" lon="1.40663">
        <ele>152.7</ele>
        <time>2022-05-16T10:24:40Z</time>
      </trkpt>
      <trkpt lat="43.50048" lon="1.40659">
        <ele>152.7</ele>
        <time>2022-05-16T10:24:41Z</time>
      </trkpt>
      <trkpt lat="43.50052" lon="1.40653">
        <ele>152.7</ele>
        <time>2022-05-16T10:24:42Z</time>
      </trkpt>
      <trkpt lat="43.50057" lon="1.40648">
        <ele>152.6</ele>
        <time>2022-05-16T10:24:43Z</time>
      </trkpt>
      <trkpt lat="43.50062" lon="1.40642">
        <ele>152.6</ele>
        <time>2022-05-16T10:24:44Z</time>
      </trkpt>
      <trkpt lat="43.50066" lon="1.40636">
        <ele>152.6</ele>
        <time>2022-05-16T10:24:45Z</time>
      </trkpt>
      <trkpt lat="43.5007" lon="1.40629">
        <ele>152.6</ele>
        <time>2022-05-16T10:24:46Z</time>
      </trkpt>
      <trkpt lat="43.50074" lon="1.40623">
        <ele>152.6</ele>
        <time>2022-05-16T10:24:47Z</time>
      </trkpt>
      <trkpt lat="43.50078" lon="1.40619">
        <ele>152.6</ele>
        <time>2022-05-16T10:24:48Z</time>
      </trkpt>
      <trkpt lat="43.50082" lon="1.40613">
        <ele>152.6</ele>
        <time>2022-05-16T10:24:49Z</time>
      </trkpt>
      <trkpt lat="43.50089" lon="1.406">
        <ele>152.6</ele>
        <time>2022-05-16T10:24:50Z</time>
      </trkpt>
      <trkpt lat="43.50091" lon="1.40592">
        <ele>152.5</ele>
        <time>2022-05-16T10:24:51Z</time>
      </trkpt>
      <trkpt lat="43.50093" lon="1.40586">
        <ele>152.5</ele>
        <time>2022-05-16T10:24:52Z</time>
      </trkpt>
      <trkpt lat="43.50097" lon="1.40579">
        <ele>152.5</ele>
        <time>2022-05-16T10:24:53Z</time>
      </trkpt>
      <trkpt lat="43.501" lon="1.40573">
        <ele>152.4</ele>
        <time>2022-05-16T10:24:54Z</time>
      </trkpt>
      <trkpt lat="43.50103" lon="1.40566">
        <ele>152.4</ele>
        <time>2022-05-16T10:24:55Z</time>
      </trkpt>
      <trkpt lat="43.50107" lon="1.40561">
        <ele>152.3</ele>
        <time>2022-05-16T10:24:56Z</time>
      </trkpt>
      <trkpt lat="43.50111" lon="1.40554">
        <ele>152.2</ele>
        <time>2022-05-16T10:24:57Z</time>
      </trkpt>
      <trkpt lat="43.50116" lon="1.40548">
        <ele>152.2</ele>
        <time>2022-05-16T10:24:58Z</time>
      </trkpt>
      <trkpt lat="43.5012" lon="1.40542">
        <ele>152.1</ele>
        <time>2022-05-16T10:24:59Z</time>
      </trkpt>
      <trkpt lat="43.50124" lon="1.40534">
        <ele>152.1</ele>
        <time>2022-05-16T10:25:00Z</time>
      </trkpt>
      <trkpt lat="43.50127" lon="1.40527">
        <ele>152.1</ele>
        <time>2022-05-16T10:25:01Z</time>
      </trkpt>
      <trkpt lat="43.50131" lon="1.40521">
        <ele>152.1</ele>
        <time>2022-05-16T10:25:02Z</time>
      </trkpt>
      <trkpt lat="43.50135" lon="1.40514">
        <ele>152.1</ele>
        <time>2022-05-16T10:25:03Z</time>
      </trkpt>
      <trkpt lat="43.50139" lon="1.40508">
        <ele>152.2</ele>
        <time>2022-05-16T10:25:04Z</time>
      </trkpt>
      <trkpt lat="43.50143" lon="1.40501">
        <ele>152.2</ele>
        <time>2022-05-16T10:25:05Z</time>
      </trkpt>
      <trkpt lat="43.50148" lon="1.40497">
        <ele>152.3</ele>
        <time>2022-05-16T10:25:06Z</time>
      </trkpt>
      <trkpt lat="43.50152" lon="1.40492">
        <ele>152.3</ele>
        <time>2022-05-16T10:25:07Z</time>
      </trkpt>
      <trkpt lat="43.50155" lon="1.40484">
        <ele>152.3</ele>
        <time>2022-05-16T10:25:08Z</time>
      </trkpt>
      <trkpt lat="43.50159" lon="1.40477">
        <ele>152.3</ele>
        <time>2022-05-16T10:25:09Z</time>
      </trkpt>
      <trkpt lat="43.50162" lon="1.40469">
        <ele>152.3</ele>
        <time>2022-05-16T10:25:10Z</time>
      </trkpt>
      <trkpt lat="43.50166" lon="1.40463">
        <ele>152.3</ele>
        <time>2022-05-16T10:25:11Z</time>
      </trkpt>
      <trkpt lat="43.5017" lon="1.40456">
        <ele>152.3</ele>
        <time>2022-05-16T10:25:12Z</time>
      </trkpt>
      <trkpt lat="43.50173" lon="1.40449">
        <ele>152.3</ele>
        <time>2022-05-16T10:25:13Z</time>
      </trkpt>
      <trkpt lat="43.50176" lon="1.40442">
        <ele>152.3</ele>
        <time>2022-05-16T10:25:14Z</time>
      </trkpt>
      <trkpt lat="43.5018" lon="1.40435">
        <ele>152.2</ele>
        <time>2022-05-16T10:25:15Z</time>
      </trkpt>
      <trkpt lat="43.50184" lon="1.40429">
        <ele>152.2</ele>
        <time>2022-05-16T10:25:16Z</time>
      </trkpt>
      <trkpt lat="43.50187" lon="1.40422">
        <ele>152.2</ele>
        <time>2022-05-16T10:25:17Z</time>
      </trkpt>
      <trkpt lat="43.50191" lon="1.40416">
        <ele>152.2</ele>
        <time>2022-05-16T10:25:18Z</time>
      </trkpt>
      <trkpt lat="43.50195" lon="1.4041">
        <ele>152.2</ele>
        <time>2022-05-16T10:25:19Z</time>
      </trkpt>
      <trkpt lat="43.50197" lon="1.40404">
        <ele>152.1</ele>
        <time>2022-05-16T10:25:20Z</time>
      </trkpt>
      <trkpt lat="43.502" lon="1.40397">
        <ele>152.1</ele>
        <time>2022-05-16T10:25:21Z</time>
      </trkpt>
      <trkpt lat="43.50203" lon="1.4039">
        <ele>152.1</ele>
        <time>2022-05-16T10:25:22Z</time>
      </trkpt>
      <trkpt lat="43.50206" lon="1.40382">
        <ele>152</ele>
        <time>2022-05-16T10:25:23Z</time>
      </trkpt>
      <trkpt lat="43.50208" lon="1.40375">
        <ele>152</ele>
        <time>2022-05-16T10:25:24Z</time>
      </trkpt>
      <trkpt lat="43.50211" lon="1.40368">
        <ele>152</ele>
        <time>2022-05-16T10:25:25Z</time>
      </trkpt>
      <trkpt lat="43.50214" lon="1.4036">
        <ele>151.9</ele>
        <time>2022-05-16T10:25:26Z</time>
      </trkpt>
      <trkpt lat="43.50216" lon="1.40354">
        <ele>151.9</ele>
        <time>2022-05-16T10:25:27Z</time>
      </trkpt>
      <trkpt lat="43.50219" lon="1.40347">
        <ele>151.9</ele>
        <time>2022-05-16T10:25:28Z</time>
      </trkpt>
      <trkpt lat="43.50221" lon="1.40341">
        <ele>151.8</ele>
        <time>2022-05-16T10:25:29Z</time>
      </trkpt>
      <trkpt lat="43.50224" lon="1.40335">
        <ele>151.8</ele>
        <time>2022-05-16T10:25:30Z</time>
      </trkpt>
      <trkpt lat="43.50226" lon="1.40329">
        <ele>151.8</ele>
        <time>2022-05-16T10:25:31Z</time>
      </trkpt>
      <trkpt lat="43.50228" lon="1.40323">
        <ele>151.7</ele>
        <time>2022-05-16T10:25:32Z</time>
      </trkpt>
      <trkpt lat="43.50228" lon="1.40319">
        <ele>151.5</ele>
        <time>2022-05-16T10:25:33Z</time>
      </trkpt>
      <trkpt lat="43.50226" lon="1.40319">
        <ele>151.3</ele>
        <time>2022-05-16T10:25:34Z</time>
      </trkpt>
      <trkpt lat="43.50224" lon="1.4032">
        <ele>151.2</ele>
        <time>2022-05-16T10:25:35Z</time>
      </trkpt>
      <trkpt lat="43.50225" lon="1.4032">
        <ele>151.2</ele>
        <time>2022-05-16T10:25:36Z</time>
      </trkpt>
      <trkpt lat="43.50225" lon="1.40321">
        <ele>151.2</ele>
        <time>2022-05-16T10:25:37Z</time>
      </trkpt>
      <trkpt lat="43.50223" lon="1.40321">
        <ele>151</ele>
        <time>2022-05-16T10:25:38Z</time>
      </trkpt>
      <trkpt lat="43.50221" lon="1.40319">
        <ele>150.9</ele>
        <time>2022-05-16T10:25:39Z</time>
      </trkpt>
      <trkpt lat="43.50218" lon="1.40315">
        <ele>150.5</ele>
        <time>2022-05-16T10:25:40Z</time>
      </trkpt>
      <trkpt lat="43.50216" lon="1.40312">
        <ele>150.2</ele>
        <time>2022-05-16T10:25:41Z</time>
      </trkpt>
      <trkpt lat="43.50215" lon="1.40308">
        <ele>150</ele>
        <time>2022-05-16T10:25:42Z</time>
      </trkpt>
      <trkpt lat="43.50212" lon="1.40304">
        <ele>149.8</ele>
        <time>2022-05-16T10:25:43Z</time>
      </trkpt>
      <trkpt lat="43.50212" lon="1.40299">
        <ele>149.5</ele>
        <time>2022-05-16T10:25:44Z</time>
      </trkpt>
      <trkpt lat="43.50213" lon="1.40292">
        <ele>149.2</ele>
        <time>2022-05-16T10:25:45Z</time>
      </trkpt>
      <trkpt lat="43.50216" lon="1.40287">
        <ele>149</ele>
        <time>2022-05-16T10:25:46Z</time>
      </trkpt>
      <trkpt lat="43.50218" lon="1.4028">
        <ele>148.7</ele>
        <time>2022-05-16T10:25:47Z</time>
      </trkpt>
      <trkpt lat="43.5022" lon="1.40274">
        <ele>148.6</ele>
        <time>2022-05-16T10:25:48Z</time>
      </trkpt>
      <trkpt lat="43.50221" lon="1.40268">
        <ele>148.5</ele>
        <time>2022-05-16T10:25:49Z</time>
      </trkpt>
      <trkpt lat="43.50222" lon="1.4026">
        <ele>148.4</ele>
        <time>2022-05-16T10:25:50Z</time>
      </trkpt>
      <trkpt lat="43.50224" lon="1.40253">
        <ele>148.4</ele>
        <time>2022-05-16T10:25:51Z</time>
      </trkpt>
      <trkpt lat="43.50225" lon="1.40247">
        <ele>148.4</ele>
        <time>2022-05-16T10:25:52Z</time>
      </trkpt>
      <trkpt lat="43.50224" lon="1.40241">
        <ele>148.4</ele>
        <time>2022-05-16T10:25:53Z</time>
      </trkpt>
      <trkpt lat="43.50226" lon="1.40236">
        <ele>148.4</ele>
        <time>2022-05-16T10:25:54Z</time>
      </trkpt>
      <trkpt lat="43.50228" lon="1.40232">
        <ele>148.5</ele>
        <time>2022-05-16T10:25:55Z</time>
      </trkpt>
      <trkpt lat="43.50228" lon="1.4023">
        <ele>148.5</ele>
        <time>2022-05-16T10:25:56Z</time>
      </trkpt>
      <trkpt lat="43.50229" lon="1.40229">
        <ele>148.5</ele>
        <time>2022-05-16T10:25:57Z</time>
      </trkpt>
      <trkpt lat="43.50231" lon="1.40225">
        <ele>148.5</ele>
        <time>2022-05-16T10:25:58Z</time>
      </trkpt>
      <trkpt lat="43.50232" lon="1.40223">
        <ele>148.6</ele>
        <time>2022-05-16T10:25:59Z</time>
      </trkpt>
      <trkpt lat="43.50234" lon="1.40219">
        <ele>148.7</ele>
        <time>2022-05-16T10:26:00Z</time>
      </trkpt>
      <trkpt lat="43.50237" lon="1.40215">
        <ele>148.8</ele>
        <time>2022-05-16T10:26:01Z</time>
      </trkpt>
      <trkpt lat="43.50237" lon="1.40209">
        <ele>148.9</ele>
        <time>2022-05-16T10:26:02Z</time>
      </trkpt>
      <trkpt lat="43.5024" lon="1.40202">
        <ele>149.1</ele>
        <time>2022-05-16T10:26:03Z</time>
      </trkpt>
      <trkpt lat="43.50244" lon="1.40197">
        <ele>149.2</ele>
        <time>2022-05-16T10:26:04Z</time>
      </trkpt>
      <trkpt lat="43.50247" lon="1.40196">
        <ele>149.3</ele>
        <time>2022-05-16T10:26:05Z</time>
      </trkpt>
      <trkpt lat="43.5025" lon="1.40195">
        <ele>149.4</ele>
        <time>2022-05-16T10:26:06Z</time>
      </trkpt>
      <trkpt lat="43.50249" lon="1.40195">
        <ele>149.4</ele>
        <time>2022-05-16T10:26:07Z</time>
      </trkpt>
      <trkpt lat="43.5025" lon="1.40194">
        <ele>149.4</ele>
        <time>2022-05-16T10:26:08Z</time>
      </trkpt>
      <trkpt lat="43.50252" lon="1.4019">
        <ele>149.4</ele>
        <time>2022-05-16T10:26:09Z</time>
      </trkpt>
      <trkpt lat="43.50254" lon="1.40189">
        <ele>149.5</ele>
        <time>2022-05-16T10:26:10Z</time>
      </trkpt>
      <trkpt lat="43.50256" lon="1.40183">
        <ele>149.5</ele>
        <time>2022-05-16T10:26:11Z</time>
      </trkpt>
      <trkpt lat="43.50257" lon="1.40177">
        <ele>149.5</ele>
        <time>2022-05-16T10:26:12Z</time>
      </trkpt>
      <trkpt lat="43.50259" lon="1.40171">
        <ele>149.5</ele>
        <time>2022-05-16T10:26:13Z</time>
      </trkpt>
      <trkpt lat="43.5026" lon="1.40165">
        <ele>149.6</ele>
        <time>2022-05-16T10:26:14Z</time>
      </trkpt>
      <trkpt lat="43.50261" lon="1.40158">
        <ele>149.6</ele>
        <time>2022-05-16T10:26:15Z</time>
      </trkpt>
      <trkpt lat="43.50263" lon="1.40151">
        <ele>149.6</ele>
        <time>2022-05-16T10:26:16Z</time>
      </trkpt>
      <trkpt lat="43.50265" lon="1.40145">
        <ele>149.7</ele>
        <time>2022-05-16T10:26:17Z</time>
      </trkpt>
      <trkpt lat="43.50268" lon="1.4014">
        <ele>149.7</ele>
        <time>2022-05-16T10:26:18Z</time>
      </trkpt>
      <trkpt lat="43.50272" lon="1.40135">
        <ele>149.8</ele>
        <time>2022-05-16T10:26:19Z</time>
      </trkpt>
      <trkpt lat="43.50273" lon="1.40129">
        <ele>149.8</ele>
        <time>2022-05-16T10:26:20Z</time>
      </trkpt>
      <trkpt lat="43.50275" lon="1.40122">
        <ele>149.7</ele>
        <time>2022-05-16T10:26:21Z</time>
      </trkpt>
      <trkpt lat="43.50275" lon="1.40116">
        <ele>149.6</ele>
        <time>2022-05-16T10:26:22Z</time>
      </trkpt>
      <trkpt lat="43.50276" lon="1.4011">
        <ele>149.6</ele>
        <time>2022-05-16T10:26:23Z</time>
      </trkpt>
      <trkpt lat="43.50277" lon="1.40104">
        <ele>149.4</ele>
        <time>2022-05-16T10:26:24Z</time>
      </trkpt>
      <trkpt lat="43.5028" lon="1.40099">
        <ele>149.2</ele>
        <time>2022-05-16T10:26:25Z</time>
      </trkpt>
      <trkpt lat="43.5028" lon="1.40094">
        <ele>149.1</ele>
        <time>2022-05-16T10:26:26Z</time>
      </trkpt>
      <trkpt lat="43.50279" lon="1.40088">
        <ele>148.9</ele>
        <time>2022-05-16T10:26:27Z</time>
      </trkpt>
      <trkpt lat="43.50278" lon="1.40079">
        <ele>148.7</ele>
        <time>2022-05-16T10:26:28Z</time>
      </trkpt>
      <trkpt lat="43.5028" lon="1.4007">
        <ele>148.5</ele>
        <time>2022-05-16T10:26:29Z</time>
      </trkpt>
      <trkpt lat="43.5028" lon="1.40062">
        <ele>148.3</ele>
        <time>2022-05-16T10:26:30Z</time>
      </trkpt>
      <trkpt lat="43.50282" lon="1.40054">
        <ele>148.2</ele>
        <time>2022-05-16T10:26:31Z</time>
      </trkpt>
      <trkpt lat="43.50285" lon="1.40045">
        <ele>148.1</ele>
        <time>2022-05-16T10:26:33Z</time>
      </trkpt>
      <trkpt lat="43.50289" lon="1.40038">
        <ele>148</ele>
        <time>2022-05-16T10:26:34Z</time>
      </trkpt>
      <trkpt lat="43.50291" lon="1.40031">
        <ele>147.9</ele>
        <time>2022-05-16T10:26:35Z</time>
      </trkpt>
      <trkpt lat="43.50294" lon="1.40025">
        <ele>147.8</ele>
        <time>2022-05-16T10:26:36Z</time>
      </trkpt>
      <trkpt lat="43.50295" lon="1.40018">
        <ele>147.8</ele>
        <time>2022-05-16T10:26:37Z</time>
      </trkpt>
      <trkpt lat="43.50298" lon="1.40011">
        <ele>147.8</ele>
        <time>2022-05-16T10:26:38Z</time>
      </trkpt>
      <trkpt lat="43.50302" lon="1.40006">
        <ele>147.8</ele>
        <time>2022-05-16T10:26:39Z</time>
      </trkpt>
      <trkpt lat="43.50304" lon="1.39998">
        <ele>147.7</ele>
        <time>2022-05-16T10:26:40Z</time>
      </trkpt>
      <trkpt lat="43.50305" lon="1.39991">
        <ele>147.7</ele>
        <time>2022-05-16T10:26:41Z</time>
      </trkpt>
      <trkpt lat="43.50306" lon="1.39983">
        <ele>147.7</ele>
        <time>2022-05-16T10:26:42Z</time>
      </trkpt>
      <trkpt lat="43.50308" lon="1.39976">
        <ele>147.7</ele>
        <time>2022-05-16T10:26:43Z</time>
      </trkpt>
      <trkpt lat="43.50311" lon="1.39968">
        <ele>147.6</ele>
        <time>2022-05-16T10:26:44Z</time>
      </trkpt>
      <trkpt lat="43.50314" lon="1.39961">
        <ele>147.6</ele>
        <time>2022-05-16T10:26:45Z</time>
      </trkpt>
      <trkpt lat="43.50317" lon="1.39954">
        <ele>147.6</ele>
        <time>2022-05-16T10:26:46Z</time>
      </trkpt>
      <trkpt lat="43.5032" lon="1.39947">
        <ele>147.7</ele>
        <time>2022-05-16T10:26:47Z</time>
      </trkpt>
      <trkpt lat="43.50323" lon="1.3994">
        <ele>147.7</ele>
        <time>2022-05-16T10:26:48Z</time>
      </trkpt>
      <trkpt lat="43.50324" lon="1.39932">
        <ele>147.8</ele>
        <time>2022-05-16T10:26:49Z</time>
      </trkpt>
      <trkpt lat="43.50326" lon="1.39925">
        <ele>147.8</ele>
        <time>2022-05-16T10:26:50Z</time>
      </trkpt>
      <trkpt lat="43.5033" lon="1.39918">
        <ele>148</ele>
        <time>2022-05-16T10:26:51Z</time>
      </trkpt>
      <trkpt lat="43.50333" lon="1.39912">
        <ele>148.1</ele>
        <time>2022-05-16T10:26:52Z</time>
      </trkpt>
      <trkpt lat="43.50337" lon="1.39906">
        <ele>148.2</ele>
        <time>2022-05-16T10:26:53Z</time>
      </trkpt>
      <trkpt lat="43.50342" lon="1.39902">
        <ele>148.4</ele>
        <time>2022-05-16T10:26:54Z</time>
      </trkpt>
      <trkpt lat="43.50346" lon="1.3989">
        <ele>148.7</ele>
        <time>2022-05-16T10:26:55Z</time>
      </trkpt>
      <trkpt lat="43.50347" lon="1.39884">
        <ele>148.8</ele>
        <time>2022-05-16T10:26:56Z</time>
      </trkpt>
      <trkpt lat="43.5035" lon="1.3988">
        <ele>148.9</ele>
        <time>2022-05-16T10:26:57Z</time>
      </trkpt>
      <trkpt lat="43.50352" lon="1.39875">
        <ele>149</ele>
        <time>2022-05-16T10:26:58Z</time>
      </trkpt>
      <trkpt lat="43.50354" lon="1.39867">
        <ele>149</ele>
        <time>2022-05-16T10:26:59Z</time>
      </trkpt>
      <trkpt lat="43.50355" lon="1.3986">
        <ele>149.1</ele>
        <time>2022-05-16T10:27:00Z</time>
      </trkpt>
      <trkpt lat="43.50356" lon="1.39853">
        <ele>149.1</ele>
        <time>2022-05-16T10:27:01Z</time>
      </trkpt>
      <trkpt lat="43.50354" lon="1.39849">
        <ele>149.1</ele>
        <time>2022-05-16T10:27:02Z</time>
      </trkpt>
      <trkpt lat="43.50357" lon="1.39845">
        <ele>149.1</ele>
        <time>2022-05-16T10:27:03Z</time>
      </trkpt>
      <trkpt lat="43.50359" lon="1.39845">
        <ele>149.1</ele>
        <time>2022-05-16T10:27:04Z</time>
      </trkpt>
      <trkpt lat="43.50363" lon="1.39839">
        <ele>149.1</ele>
        <time>2022-05-16T10:27:05Z</time>
      </trkpt>
      <trkpt lat="43.50365" lon="1.39835">
        <ele>149.1</ele>
        <time>2022-05-16T10:27:06Z</time>
      </trkpt>
      <trkpt lat="43.50366" lon="1.39829">
        <ele>149.1</ele>
        <time>2022-05-16T10:27:07Z</time>
      </trkpt>
      <trkpt lat="43.50369" lon="1.39822">
        <ele>149.1</ele>
        <time>2022-05-16T10:27:08Z</time>
      </trkpt>
      <trkpt lat="43.50369" lon="1.39815">
        <ele>149.1</ele>
        <time>2022-05-16T10:27:09Z</time>
      </trkpt>
      <trkpt lat="43.50369" lon="1.3981">
        <ele>149.1</ele>
        <time>2022-05-16T10:27:10Z</time>
      </trkpt>
      <trkpt lat="43.50372" lon="1.39804">
        <ele>149.1</ele>
        <time>2022-05-16T10:27:11Z</time>
      </trkpt>
      <trkpt lat="43.50376" lon="1.39801">
        <ele>149.2</ele>
        <time>2022-05-16T10:27:12Z</time>
      </trkpt>
      <trkpt lat="43.50378" lon="1.39797">
        <ele>149.2</ele>
        <time>2022-05-16T10:27:13Z</time>
      </trkpt>
      <trkpt lat="43.5038" lon="1.39788">
        <ele>149.2</ele>
        <time>2022-05-16T10:27:14Z</time>
      </trkpt>
      <trkpt lat="43.50384" lon="1.39784">
        <ele>149.3</ele>
        <time>2022-05-16T10:27:15Z</time>
      </trkpt>
      <trkpt lat="43.50387" lon="1.39779">
        <ele>149.3</ele>
        <time>2022-05-16T10:27:16Z</time>
      </trkpt>
      <trkpt lat="43.50388" lon="1.39773">
        <ele>149.3</ele>
        <time>2022-05-16T10:27:17Z</time>
      </trkpt>
      <trkpt lat="43.50391" lon="1.39769">
        <ele>149.3</ele>
        <time>2022-05-16T10:27:18Z</time>
      </trkpt>
      <trkpt lat="43.50395" lon="1.39768">
        <ele>149.3</ele>
        <time>2022-05-16T10:27:19Z</time>
      </trkpt>
      <trkpt lat="43.504" lon="1.39765">
        <ele>149.3</ele>
        <time>2022-05-16T10:27:20Z</time>
      </trkpt>
      <trkpt lat="43.50403" lon="1.39762">
        <ele>149.3</ele>
        <time>2022-05-16T10:27:21Z</time>
      </trkpt>
      <trkpt lat="43.50406" lon="1.39756">
        <ele>149.2</ele>
        <time>2022-05-16T10:27:22Z</time>
      </trkpt>
      <trkpt lat="43.50408" lon="1.39749">
        <ele>149.2</ele>
        <time>2022-05-16T10:27:23Z</time>
      </trkpt>
      <trkpt lat="43.5041" lon="1.39743">
        <ele>149.1</ele>
        <time>2022-05-16T10:27:24Z</time>
      </trkpt>
      <trkpt lat="43.50416" lon="1.39738">
        <ele>149</ele>
        <time>2022-05-16T10:27:25Z</time>
      </trkpt>
      <trkpt lat="43.50421" lon="1.39734">
        <ele>148.9</ele>
        <time>2022-05-16T10:27:26Z</time>
      </trkpt>
      <trkpt lat="43.50426" lon="1.39729">
        <ele>148.9</ele>
        <time>2022-05-16T10:27:27Z</time>
      </trkpt>
      <trkpt lat="43.5043" lon="1.39725">
        <ele>148.8</ele>
        <time>2022-05-16T10:27:28Z</time>
      </trkpt>
      <trkpt lat="43.50435" lon="1.39723">
        <ele>148.8</ele>
        <time>2022-05-16T10:27:29Z</time>
      </trkpt>
      <trkpt lat="43.50439" lon="1.3972">
        <ele>148.8</ele>
        <time>2022-05-16T10:27:30Z</time>
      </trkpt>
      <trkpt lat="43.50442" lon="1.39714">
        <ele>148.8</ele>
        <time>2022-05-16T10:27:31Z</time>
      </trkpt>
      <trkpt lat="43.50447" lon="1.39708">
        <ele>148.8</ele>
        <time>2022-05-16T10:27:32Z</time>
      </trkpt>
      <trkpt lat="43.5045" lon="1.39702">
        <ele>148.8</ele>
        <time>2022-05-16T10:27:33Z</time>
      </trkpt>
      <trkpt lat="43.50455" lon="1.39698">
        <ele>148.8</ele>
        <time>2022-05-16T10:27:34Z</time>
      </trkpt>
      <trkpt lat="43.50461" lon="1.39695">
        <ele>148.9</ele>
        <time>2022-05-16T10:27:35Z</time>
      </trkpt>
      <trkpt lat="43.50465" lon="1.39692">
        <ele>148.9</ele>
        <time>2022-05-16T10:27:36Z</time>
      </trkpt>
      <trkpt lat="43.50469" lon="1.39688">
        <ele>149</ele>
        <time>2022-05-16T10:27:37Z</time>
      </trkpt>
      <trkpt lat="43.50472" lon="1.39682">
        <ele>149</ele>
        <time>2022-05-16T10:27:38Z</time>
      </trkpt>
      <trkpt lat="43.50476" lon="1.39678">
        <ele>149.1</ele>
        <time>2022-05-16T10:27:39Z</time>
      </trkpt>
      <trkpt lat="43.50481" lon="1.39675">
        <ele>149.1</ele>
        <time>2022-05-16T10:27:40Z</time>
      </trkpt>
      <trkpt lat="43.50484" lon="1.39678">
        <ele>149.1</ele>
        <time>2022-05-16T10:27:41Z</time>
      </trkpt>
      <trkpt lat="43.50488" lon="1.39682">
        <ele>149.1</ele>
        <time>2022-05-16T10:27:42Z</time>
      </trkpt>
      <trkpt lat="43.5049" lon="1.39689">
        <ele>149.1</ele>
        <time>2022-05-16T10:27:43Z</time>
      </trkpt>
      <trkpt lat="43.50491" lon="1.39692">
        <ele>149.2</ele>
        <time>2022-05-16T10:27:44Z</time>
      </trkpt>
      <trkpt lat="43.50493" lon="1.39692">
        <ele>149.2</ele>
        <time>2022-05-16T10:27:45Z</time>
      </trkpt>
      <trkpt lat="43.50495" lon="1.39694">
        <ele>149.3</ele>
        <time>2022-05-16T10:27:46Z</time>
      </trkpt>
      <trkpt lat="43.50496" lon="1.39695">
        <ele>149.3</ele>
        <time>2022-05-16T10:27:47Z</time>
      </trkpt>
      <trkpt lat="43.50499" lon="1.397">
        <ele>149.4</ele>
        <time>2022-05-16T10:27:48Z</time>
      </trkpt>
      <trkpt lat="43.50501" lon="1.39703">
        <ele>149.5</ele>
        <time>2022-05-16T10:27:49Z</time>
      </trkpt>
      <trkpt lat="43.50505" lon="1.39705">
        <ele>149.5</ele>
        <time>2022-05-16T10:27:50Z</time>
      </trkpt>
      <trkpt lat="43.5051" lon="1.39708">
        <ele>149.6</ele>
        <time>2022-05-16T10:27:51Z</time>
      </trkpt>
      <trkpt lat="43.50515" lon="1.3971">
        <ele>149.6</ele>
        <time>2022-05-16T10:27:52Z</time>
      </trkpt>
      <trkpt lat="43.5052" lon="1.39711">
        <ele>149.6</ele>
        <time>2022-05-16T10:27:53Z</time>
      </trkpt>
      <trkpt lat="43.50526" lon="1.39712">
        <ele>149.6</ele>
        <time>2022-05-16T10:27:54Z</time>
      </trkpt>
      <trkpt lat="43.50531" lon="1.39715">
        <ele>149.6</ele>
        <time>2022-05-16T10:27:55Z</time>
      </trkpt>
      <trkpt lat="43.50531" lon="1.39719">
        <ele>149.6</ele>
        <time>2022-05-16T10:27:56Z</time>
      </trkpt>
      <trkpt lat="43.5053" lon="1.39726">
        <ele>149.5</ele>
        <time>2022-05-16T10:27:57Z</time>
      </trkpt>
      <trkpt lat="43.50529" lon="1.39734">
        <ele>149.5</ele>
        <time>2022-05-16T10:27:58Z</time>
      </trkpt>
      <trkpt lat="43.50531" lon="1.39741">
        <ele>149.5</ele>
        <time>2022-05-16T10:27:59Z</time>
      </trkpt>
      <trkpt lat="43.50535" lon="1.39748">
        <ele>149.5</ele>
        <time>2022-05-16T10:28:00Z</time>
      </trkpt>
      <trkpt lat="43.50537" lon="1.39753">
        <ele>149.6</ele>
        <time>2022-05-16T10:28:01Z</time>
      </trkpt>
      <trkpt lat="43.50539" lon="1.3976">
        <ele>149.6</ele>
        <time>2022-05-16T10:28:02Z</time>
      </trkpt>
      <trkpt lat="43.5054" lon="1.39766">
        <ele>149.6</ele>
        <time>2022-05-16T10:28:03Z</time>
      </trkpt>
      <trkpt lat="43.50543" lon="1.39772">
        <ele>149.7</ele>
        <time>2022-05-16T10:28:04Z</time>
      </trkpt>
      <trkpt lat="43.50547" lon="1.39777">
        <ele>149.7</ele>
        <time>2022-05-16T10:28:05Z</time>
      </trkpt>
      <trkpt lat="43.5055" lon="1.39782">
        <ele>149.8</ele>
        <time>2022-05-16T10:28:06Z</time>
      </trkpt>
      <trkpt lat="43.50553" lon="1.39787">
        <ele>149.8</ele>
        <time>2022-05-16T10:28:07Z</time>
      </trkpt>
      <trkpt lat="43.50557" lon="1.39792">
        <ele>149.8</ele>
        <time>2022-05-16T10:28:08Z</time>
      </trkpt>
      <trkpt lat="43.50561" lon="1.39796">
        <ele>149.9</ele>
        <time>2022-05-16T10:28:09Z</time>
      </trkpt>
      <trkpt lat="43.50565" lon="1.39799">
        <ele>149.9</ele>
        <time>2022-05-16T10:28:10Z</time>
      </trkpt>
      <trkpt lat="43.5057" lon="1.39802">
        <ele>149.9</ele>
        <time>2022-05-16T10:28:11Z</time>
      </trkpt>
      <trkpt lat="43.50572" lon="1.39809">
        <ele>149.9</ele>
        <time>2022-05-16T10:28:12Z</time>
      </trkpt>
      <trkpt lat="43.50574" lon="1.39816">
        <ele>149.9</ele>
        <time>2022-05-16T10:28:13Z</time>
      </trkpt>
      <trkpt lat="43.50575" lon="1.39823">
        <ele>150</ele>
        <time>2022-05-16T10:28:14Z</time>
      </trkpt>
      <trkpt lat="43.50576" lon="1.3983">
        <ele>150</ele>
        <time>2022-05-16T10:28:15Z</time>
      </trkpt>
      <trkpt lat="43.50576" lon="1.39837">
        <ele>150</ele>
        <time>2022-05-16T10:28:16Z</time>
      </trkpt>
      <trkpt lat="43.50578" lon="1.39844">
        <ele>150</ele>
        <time>2022-05-16T10:28:17Z</time>
      </trkpt>
      <trkpt lat="43.5058" lon="1.3985">
        <ele>150</ele>
        <time>2022-05-16T10:28:18Z</time>
      </trkpt>
      <trkpt lat="43.50583" lon="1.39855">
        <ele>150</ele>
        <time>2022-05-16T10:28:19Z</time>
      </trkpt>
      <trkpt lat="43.50588" lon="1.39859">
        <ele>150</ele>
        <time>2022-05-16T10:28:20Z</time>
      </trkpt>
      <trkpt lat="43.50592" lon="1.39864">
        <ele>149.9</ele>
        <time>2022-05-16T10:28:21Z</time>
      </trkpt>
      <trkpt lat="43.50596" lon="1.3987">
        <ele>149.8</ele>
        <time>2022-05-16T10:28:22Z</time>
      </trkpt>
      <trkpt lat="43.50599" lon="1.39877">
        <ele>149.8</ele>
        <time>2022-05-16T10:28:23Z</time>
      </trkpt>
      <trkpt lat="43.50603" lon="1.39883">
        <ele>149.7</ele>
        <time>2022-05-16T10:28:24Z</time>
      </trkpt>
      <trkpt lat="43.50606" lon="1.3989">
        <ele>149.6</ele>
        <time>2022-05-16T10:28:25Z</time>
      </trkpt>
      <trkpt lat="43.50609" lon="1.39896">
        <ele>149.5</ele>
        <time>2022-05-16T10:28:26Z</time>
      </trkpt>
      <trkpt lat="43.50614" lon="1.399">
        <ele>149.5</ele>
        <time>2022-05-16T10:28:27Z</time>
      </trkpt>
      <trkpt lat="43.5062" lon="1.39903">
        <ele>149.4</ele>
        <time>2022-05-16T10:28:28Z</time>
      </trkpt>
      <trkpt lat="43.50625" lon="1.39907">
        <ele>149.4</ele>
        <time>2022-05-16T10:28:29Z</time>
      </trkpt>
      <trkpt lat="43.5063" lon="1.39912">
        <ele>149.4</ele>
        <time>2022-05-16T10:28:30Z</time>
      </trkpt>
      <trkpt lat="43.50634" lon="1.39918">
        <ele>149.4</ele>
        <time>2022-05-16T10:28:31Z</time>
      </trkpt>
      <trkpt lat="43.50637" lon="1.39923">
        <ele>149.4</ele>
        <time>2022-05-16T10:28:32Z</time>
      </trkpt>
      <trkpt lat="43.50641" lon="1.3993">
        <ele>149.4</ele>
        <time>2022-05-16T10:28:33Z</time>
      </trkpt>
      <trkpt lat="43.50644" lon="1.39937">
        <ele>149.4</ele>
        <time>2022-05-16T10:28:34Z</time>
      </trkpt>
      <trkpt lat="43.50646" lon="1.39945">
        <ele>149.4</ele>
        <time>2022-05-16T10:28:35Z</time>
      </trkpt>
      <trkpt lat="43.50647" lon="1.39953">
        <ele>149.5</ele>
        <time>2022-05-16T10:28:36Z</time>
      </trkpt>
      <trkpt lat="43.50649" lon="1.39961">
        <ele>149.5</ele>
        <time>2022-05-16T10:28:37Z</time>
      </trkpt>
      <trkpt lat="43.50651" lon="1.39969">
        <ele>149.5</ele>
        <time>2022-05-16T10:28:39Z</time>
      </trkpt>
      <trkpt lat="43.50655" lon="1.39977">
        <ele>149.5</ele>
        <time>2022-05-16T10:28:40Z</time>
      </trkpt>
      <trkpt lat="43.50659" lon="1.39983">
        <ele>149.5</ele>
        <time>2022-05-16T10:28:41Z</time>
      </trkpt>
      <trkpt lat="43.50665" lon="1.39986">
        <ele>149.5</ele>
        <time>2022-05-16T10:28:42Z</time>
      </trkpt>
      <trkpt lat="43.50671" lon="1.39989">
        <ele>149.5</ele>
        <time>2022-05-16T10:28:43Z</time>
      </trkpt>
      <trkpt lat="43.50677" lon="1.39991">
        <ele>149.5</ele>
        <time>2022-05-16T10:28:44Z</time>
      </trkpt>
      <trkpt lat="43.50683" lon="1.39993">
        <ele>149.5</ele>
        <time>2022-05-16T10:28:45Z</time>
      </trkpt>
      <trkpt lat="43.50688" lon="1.39996">
        <ele>149.6</ele>
        <time>2022-05-16T10:28:46Z</time>
      </trkpt>
      <trkpt lat="43.50693" lon="1.4">
        <ele>149.6</ele>
        <time>2022-05-16T10:28:47Z</time>
      </trkpt>
      <trkpt lat="43.50698" lon="1.40004">
        <ele>149.7</ele>
        <time>2022-05-16T10:28:48Z</time>
      </trkpt>
      <trkpt lat="43.50702" lon="1.4001">
        <ele>149.8</ele>
        <time>2022-05-16T10:28:49Z</time>
      </trkpt>
      <trkpt lat="43.50705" lon="1.40018">
        <ele>149.9</ele>
        <time>2022-05-16T10:28:50Z</time>
      </trkpt>
      <trkpt lat="43.50706" lon="1.40027">
        <ele>150</ele>
        <time>2022-05-16T10:28:51Z</time>
      </trkpt>
      <trkpt lat="43.50708" lon="1.40034">
        <ele>150.2</ele>
        <time>2022-05-16T10:28:52Z</time>
      </trkpt>
      <trkpt lat="43.50711" lon="1.40041">
        <ele>150.3</ele>
        <time>2022-05-16T10:28:53Z</time>
      </trkpt>
      <trkpt lat="43.50713" lon="1.40049">
        <ele>150.4</ele>
        <time>2022-05-16T10:28:54Z</time>
      </trkpt>
      <trkpt lat="43.50716" lon="1.40056">
        <ele>150.5</ele>
        <time>2022-05-16T10:28:55Z</time>
      </trkpt>
      <trkpt lat="43.50718" lon="1.40063">
        <ele>150.6</ele>
        <time>2022-05-16T10:28:56Z</time>
      </trkpt>
      <trkpt lat="43.5072" lon="1.4007">
        <ele>150.7</ele>
        <time>2022-05-16T10:28:57Z</time>
      </trkpt>
      <trkpt lat="43.50723" lon="1.40078">
        <ele>150.8</ele>
        <time>2022-05-16T10:28:58Z</time>
      </trkpt>
      <trkpt lat="43.50725" lon="1.40085">
        <ele>150.9</ele>
        <time>2022-05-16T10:28:59Z</time>
      </trkpt>
      <trkpt lat="43.50731" lon="1.401">
        <ele>151</ele>
        <time>2022-05-16T10:29:00Z</time>
      </trkpt>
      <trkpt lat="43.50734" lon="1.40106">
        <ele>151.1</ele>
        <time>2022-05-16T10:29:01Z</time>
      </trkpt>
      <trkpt lat="43.50737" lon="1.40114">
        <ele>151.2</ele>
        <time>2022-05-16T10:29:02Z</time>
      </trkpt>
      <trkpt lat="43.5074" lon="1.40121">
        <ele>151.2</ele>
        <time>2022-05-16T10:29:03Z</time>
      </trkpt>
      <trkpt lat="43.50743" lon="1.40128">
        <ele>151.3</ele>
        <time>2022-05-16T10:29:04Z</time>
      </trkpt>
      <trkpt lat="43.50747" lon="1.40135">
        <ele>151.3</ele>
        <time>2022-05-16T10:29:05Z</time>
      </trkpt>
      <trkpt lat="43.5075" lon="1.40142">
        <ele>151.2</ele>
        <time>2022-05-16T10:29:06Z</time>
      </trkpt>
      <trkpt lat="43.50753" lon="1.4015">
        <ele>151.2</ele>
        <time>2022-05-16T10:29:07Z</time>
      </trkpt>
      <trkpt lat="43.50757" lon="1.40156">
        <ele>151.2</ele>
        <time>2022-05-16T10:29:08Z</time>
      </trkpt>
      <trkpt lat="43.5076" lon="1.40164">
        <ele>151.1</ele>
        <time>2022-05-16T10:29:09Z</time>
      </trkpt>
      <trkpt lat="43.50763" lon="1.40171">
        <ele>151.1</ele>
        <time>2022-05-16T10:29:10Z</time>
      </trkpt>
      <trkpt lat="43.50767" lon="1.40179">
        <ele>151.1</ele>
        <time>2022-05-16T10:29:11Z</time>
      </trkpt>
      <trkpt lat="43.50769" lon="1.40187">
        <ele>151</ele>
        <time>2022-05-16T10:29:12Z</time>
      </trkpt>
      <trkpt lat="43.50772" lon="1.40194">
        <ele>151</ele>
        <time>2022-05-16T10:29:13Z</time>
      </trkpt>
      <trkpt lat="43.50775" lon="1.40202">
        <ele>151</ele>
        <time>2022-05-16T10:29:14Z</time>
      </trkpt>
      <trkpt lat="43.50777" lon="1.4021">
        <ele>151</ele>
        <time>2022-05-16T10:29:15Z</time>
      </trkpt>
      <trkpt lat="43.50779" lon="1.40218">
        <ele>151</ele>
        <time>2022-05-16T10:29:16Z</time>
      </trkpt>
      <trkpt lat="43.5078" lon="1.40226">
        <ele>151</ele>
        <time>2022-05-16T10:29:17Z</time>
      </trkpt>
      <trkpt lat="43.50781" lon="1.40235">
        <ele>151</ele>
        <time>2022-05-16T10:29:18Z</time>
      </trkpt>
      <trkpt lat="43.50783" lon="1.40242">
        <ele>150.9</ele>
        <time>2022-05-16T10:29:19Z</time>
      </trkpt>
      <trkpt lat="43.50786" lon="1.4025">
        <ele>150.9</ele>
        <time>2022-05-16T10:29:20Z</time>
      </trkpt>
      <trkpt lat="43.5079" lon="1.40256">
        <ele>150.8</ele>
        <time>2022-05-16T10:29:21Z</time>
      </trkpt>
      <trkpt lat="43.50793" lon="1.40264">
        <ele>150.8</ele>
        <time>2022-05-16T10:29:22Z</time>
      </trkpt>
      <trkpt lat="43.50796" lon="1.40272">
        <ele>150.7</ele>
        <time>2022-05-16T10:29:23Z</time>
      </trkpt>
      <trkpt lat="43.50799" lon="1.4028">
        <ele>150.6</ele>
        <time>2022-05-16T10:29:24Z</time>
      </trkpt>
      <trkpt lat="43.50802" lon="1.40287">
        <ele>150.6</ele>
        <time>2022-05-16T10:29:25Z</time>
      </trkpt>
      <trkpt lat="43.50805" lon="1.40294">
        <ele>150.5</ele>
        <time>2022-05-16T10:29:26Z</time>
      </trkpt>
      <trkpt lat="43.50808" lon="1.40302">
        <ele>150.4</ele>
        <time>2022-05-16T10:29:27Z</time>
      </trkpt>
      <trkpt lat="43.50811" lon="1.4031">
        <ele>150.3</ele>
        <time>2022-05-16T10:29:28Z</time>
      </trkpt>
      <trkpt lat="43.50813" lon="1.40318">
        <ele>150.3</ele>
        <time>2022-05-16T10:29:29Z</time>
      </trkpt>
      <trkpt lat="43.50817" lon="1.40326">
        <ele>150.2</ele>
        <time>2022-05-16T10:29:30Z</time>
      </trkpt>
      <trkpt lat="43.5082" lon="1.40332">
        <ele>150.2</ele>
        <time>2022-05-16T10:29:31Z</time>
      </trkpt>
      <trkpt lat="43.50824" lon="1.40339">
        <ele>150.1</ele>
        <time>2022-05-16T10:29:32Z</time>
      </trkpt>
      <trkpt lat="43.50827" lon="1.40347">
        <ele>150.1</ele>
        <time>2022-05-16T10:29:33Z</time>
      </trkpt>
      <trkpt lat="43.5083" lon="1.40354">
        <ele>150</ele>
        <time>2022-05-16T10:29:34Z</time>
      </trkpt>
      <trkpt lat="43.50834" lon="1.40362">
        <ele>149.9</ele>
        <time>2022-05-16T10:29:35Z</time>
      </trkpt>
      <trkpt lat="43.50837" lon="1.40369">
        <ele>149.9</ele>
        <time>2022-05-16T10:29:36Z</time>
      </trkpt>
      <trkpt lat="43.5084" lon="1.40377">
        <ele>149.8</ele>
        <time>2022-05-16T10:29:37Z</time>
      </trkpt>
      <trkpt lat="43.50843" lon="1.40384">
        <ele>149.8</ele>
        <time>2022-05-16T10:29:38Z</time>
      </trkpt>
      <trkpt lat="43.50846" lon="1.40391">
        <ele>149.8</ele>
        <time>2022-05-16T10:29:39Z</time>
      </trkpt>
      <trkpt lat="43.5085" lon="1.40398">
        <ele>149.7</ele>
        <time>2022-05-16T10:29:40Z</time>
      </trkpt>
      <trkpt lat="43.50853" lon="1.40405">
        <ele>149.7</ele>
        <time>2022-05-16T10:29:41Z</time>
      </trkpt>
      <trkpt lat="43.50857" lon="1.40412">
        <ele>149.7</ele>
        <time>2022-05-16T10:29:42Z</time>
      </trkpt>
      <trkpt lat="43.50861" lon="1.40418">
        <ele>149.7</ele>
        <time>2022-05-16T10:29:43Z</time>
      </trkpt>
      <trkpt lat="43.50865" lon="1.40424">
        <ele>149.7</ele>
        <time>2022-05-16T10:29:44Z</time>
      </trkpt>
      <trkpt lat="43.50869" lon="1.4043">
        <ele>149.7</ele>
        <time>2022-05-16T10:29:45Z</time>
      </trkpt>
      <trkpt lat="43.50872" lon="1.40437">
        <ele>149.7</ele>
        <time>2022-05-16T10:29:46Z</time>
      </trkpt>
      <trkpt lat="43.50876" lon="1.40444">
        <ele>149.7</ele>
        <time>2022-05-16T10:29:47Z</time>
      </trkpt>
      <trkpt lat="43.50879" lon="1.40451">
        <ele>149.7</ele>
        <time>2022-05-16T10:29:48Z</time>
      </trkpt>
      <trkpt lat="43.50882" lon="1.40458">
        <ele>149.7</ele>
        <time>2022-05-16T10:29:49Z</time>
      </trkpt>
      <trkpt lat="43.50885" lon="1.40465">
        <ele>149.7</ele>
        <time>2022-05-16T10:29:50Z</time>
      </trkpt>
      <trkpt lat="43.50889" lon="1.40473">
        <ele>149.6</ele>
        <time>2022-05-16T10:29:51Z</time>
      </trkpt>
      <trkpt lat="43.50892" lon="1.4048">
        <ele>149.6</ele>
        <time>2022-05-16T10:29:52Z</time>
      </trkpt>
      <trkpt lat="43.50896" lon="1.40487">
        <ele>149.6</ele>
        <time>2022-05-16T10:29:53Z</time>
      </trkpt>
      <trkpt lat="43.509" lon="1.40493">
        <ele>149.6</ele>
        <time>2022-05-16T10:29:54Z</time>
      </trkpt>
      <trkpt lat="43.50904" lon="1.40499">
        <ele>149.6</ele>
        <time>2022-05-16T10:29:55Z</time>
      </trkpt>
      <trkpt lat="43.50909" lon="1.40506">
        <ele>149.6</ele>
        <time>2022-05-16T10:29:56Z</time>
      </trkpt>
      <trkpt lat="43.50913" lon="1.40512">
        <ele>149.6</ele>
        <time>2022-05-16T10:29:57Z</time>
      </trkpt>
      <trkpt lat="43.50918" lon="1.40517">
        <ele>149.5</ele>
        <time>2022-05-16T10:29:58Z</time>
      </trkpt>
      <trkpt lat="43.50922" lon="1.40523">
        <ele>149.5</ele>
        <time>2022-05-16T10:29:59Z</time>
      </trkpt>
      <trkpt lat="43.50927" lon="1.40529">
        <ele>149.5</ele>
        <time>2022-05-16T10:30:00Z</time>
      </trkpt>
      <trkpt lat="43.50931" lon="1.40535">
        <ele>149.5</ele>
        <time>2022-05-16T10:30:01Z</time>
      </trkpt>
      <trkpt lat="43.50936" lon="1.40541">
        <ele>149.5</ele>
        <time>2022-05-16T10:30:02Z</time>
      </trkpt>
      <trkpt lat="43.5094" lon="1.40546">
        <ele>149.6</ele>
        <time>2022-05-16T10:30:03Z</time>
      </trkpt>
      <trkpt lat="43.50944" lon="1.40551">
        <ele>149.6</ele>
        <time>2022-05-16T10:30:04Z</time>
      </trkpt>
      <trkpt lat="43.50948" lon="1.40557">
        <ele>149.7</ele>
        <time>2022-05-16T10:30:05Z</time>
      </trkpt>
      <trkpt lat="43.50951" lon="1.40562">
        <ele>149.7</ele>
        <time>2022-05-16T10:30:06Z</time>
      </trkpt>
      <trkpt lat="43.50952" lon="1.40566">
        <ele>149.7</ele>
        <time>2022-05-16T10:30:07Z</time>
      </trkpt>
      <trkpt lat="43.50952" lon="1.40572">
        <ele>149.8</ele>
        <time>2022-05-16T10:30:08Z</time>
      </trkpt>
      <trkpt lat="43.50952" lon="1.40578">
        <ele>149.8</ele>
        <time>2022-05-16T10:30:09Z</time>
      </trkpt>
      <trkpt lat="43.50953" lon="1.40584">
        <ele>149.9</ele>
        <time>2022-05-16T10:30:10Z</time>
      </trkpt>
      <trkpt lat="43.50956" lon="1.4059">
        <ele>149.9</ele>
        <time>2022-05-16T10:30:11Z</time>
      </trkpt>
      <trkpt lat="43.50959" lon="1.40595">
        <ele>149.9</ele>
        <time>2022-05-16T10:30:12Z</time>
      </trkpt>
      <trkpt lat="43.5096" lon="1.40602">
        <ele>149.8</ele>
        <time>2022-05-16T10:30:13Z</time>
      </trkpt>
      <trkpt lat="43.5096" lon="1.40609">
        <ele>149.8</ele>
        <time>2022-05-16T10:30:14Z</time>
      </trkpt>
      <trkpt lat="43.50961" lon="1.40615">
        <ele>149.8</ele>
        <time>2022-05-16T10:30:15Z</time>
      </trkpt>
      <trkpt lat="43.50962" lon="1.40619">
        <ele>149.8</ele>
        <time>2022-05-16T10:30:16Z</time>
      </trkpt>
      <trkpt lat="43.50965" lon="1.40622">
        <ele>149.8</ele>
        <time>2022-05-16T10:30:17Z</time>
      </trkpt>
      <trkpt lat="43.50966" lon="1.40622">
        <ele>149.8</ele>
        <time>2022-05-16T10:30:18Z</time>
      </trkpt>
      <trkpt lat="43.50968" lon="1.40628">
        <ele>149.8</ele>
        <time>2022-05-16T10:30:19Z</time>
      </trkpt>
      <trkpt lat="43.50968" lon="1.40631">
        <ele>149.8</ele>
        <time>2022-05-16T10:30:20Z</time>
      </trkpt>
      <trkpt lat="43.50965" lon="1.40636">
        <ele>149.8</ele>
        <time>2022-05-16T10:30:21Z</time>
      </trkpt>
      <trkpt lat="43.50962" lon="1.40642">
        <ele>149.7</ele>
        <time>2022-05-16T10:30:22Z</time>
      </trkpt>
      <trkpt lat="43.50959" lon="1.40648">
        <ele>149.7</ele>
        <time>2022-05-16T10:30:23Z</time>
      </trkpt>
      <trkpt lat="43.50957" lon="1.40654">
        <ele>149.7</ele>
        <time>2022-05-16T10:30:24Z</time>
      </trkpt>
      <trkpt lat="43.50955" lon="1.40661">
        <ele>149.7</ele>
        <time>2022-05-16T10:30:25Z</time>
      </trkpt>
      <trkpt lat="43.50953" lon="1.40666">
        <ele>149.7</ele>
        <time>2022-05-16T10:30:26Z</time>
      </trkpt>
      <trkpt lat="43.5095" lon="1.40673">
        <ele>149.7</ele>
        <time>2022-05-16T10:30:27Z</time>
      </trkpt>
      <trkpt lat="43.50949" lon="1.4068">
        <ele>149.8</ele>
        <time>2022-05-16T10:30:28Z</time>
      </trkpt>
      <trkpt lat="43.50947" lon="1.40686">
        <ele>149.8</ele>
        <time>2022-05-16T10:30:29Z</time>
      </trkpt>
      <trkpt lat="43.50944" lon="1.40692">
        <ele>149.8</ele>
        <time>2022-05-16T10:30:30Z</time>
      </trkpt>
      <trkpt lat="43.50942" lon="1.40698">
        <ele>149.8</ele>
        <time>2022-05-16T10:30:31Z</time>
      </trkpt>
      <trkpt lat="43.5094" lon="1.40704">
        <ele>149.8</ele>
        <time>2022-05-16T10:30:32Z</time>
      </trkpt>
      <trkpt lat="43.50938" lon="1.40711">
        <ele>149.8</ele>
        <time>2022-05-16T10:30:33Z</time>
      </trkpt>
      <trkpt lat="43.50936" lon="1.40718">
        <ele>149.8</ele>
        <time>2022-05-16T10:30:34Z</time>
      </trkpt>
      <trkpt lat="43.50934" lon="1.40724">
        <ele>149.8</ele>
        <time>2022-05-16T10:30:35Z</time>
      </trkpt>
      <trkpt lat="43.50932" lon="1.40731">
        <ele>149.8</ele>
        <time>2022-05-16T10:30:36Z</time>
      </trkpt>
      <trkpt lat="43.5093" lon="1.40737">
        <ele>149.9</ele>
        <time>2022-05-16T10:30:37Z</time>
      </trkpt>
      <trkpt lat="43.50927" lon="1.40742">
        <ele>149.9</ele>
        <time>2022-05-16T10:30:38Z</time>
      </trkpt>
      <trkpt lat="43.50925" lon="1.40749">
        <ele>149.9</ele>
        <time>2022-05-16T10:30:39Z</time>
      </trkpt>
      <trkpt lat="43.50923" lon="1.40755">
        <ele>149.9</ele>
        <time>2022-05-16T10:30:40Z</time>
      </trkpt>
      <trkpt lat="43.50921" lon="1.40762">
        <ele>149.9</ele>
        <time>2022-05-16T10:30:41Z</time>
      </trkpt>
      <trkpt lat="43.50919" lon="1.40768">
        <ele>149.9</ele>
        <time>2022-05-16T10:30:42Z</time>
      </trkpt>
      <trkpt lat="43.50916" lon="1.40774">
        <ele>150</ele>
        <time>2022-05-16T10:30:43Z</time>
      </trkpt>
      <trkpt lat="43.50913" lon="1.4078">
        <ele>150.1</ele>
        <time>2022-05-16T10:30:45Z</time>
      </trkpt>
      <trkpt lat="43.50911" lon="1.40787">
        <ele>150.1</ele>
        <time>2022-05-16T10:30:46Z</time>
      </trkpt>
      <trkpt lat="43.50909" lon="1.40794">
        <ele>150.2</ele>
        <time>2022-05-16T10:30:47Z</time>
      </trkpt>
      <trkpt lat="43.50906" lon="1.408">
        <ele>150.3</ele>
        <time>2022-05-16T10:30:48Z</time>
      </trkpt>
      <trkpt lat="43.50903" lon="1.40806">
        <ele>150.3</ele>
        <time>2022-05-16T10:30:49Z</time>
      </trkpt>
      <trkpt lat="43.50901" lon="1.40812">
        <ele>150.4</ele>
        <time>2022-05-16T10:30:50Z</time>
      </trkpt>
      <trkpt lat="43.50899" lon="1.40818">
        <ele>150.5</ele>
        <time>2022-05-16T10:30:51Z</time>
      </trkpt>
      <trkpt lat="43.50897" lon="1.40824">
        <ele>150.5</ele>
        <time>2022-05-16T10:30:52Z</time>
      </trkpt>
      <trkpt lat="43.50894" lon="1.4083">
        <ele>150.6</ele>
        <time>2022-05-16T10:30:53Z</time>
      </trkpt>
      <trkpt lat="43.50892" lon="1.40836">
        <ele>150.7</ele>
        <time>2022-05-16T10:30:54Z</time>
      </trkpt>
      <trkpt lat="43.5089" lon="1.40842">
        <ele>150.7</ele>
        <time>2022-05-16T10:30:55Z</time>
      </trkpt>
      <trkpt lat="43.50888" lon="1.40849">
        <ele>150.7</ele>
        <time>2022-05-16T10:30:56Z</time>
      </trkpt>
      <trkpt lat="43.50886" lon="1.40856">
        <ele>150.8</ele>
        <time>2022-05-16T10:30:57Z</time>
      </trkpt>
      <trkpt lat="43.50884" lon="1.40862">
        <ele>150.8</ele>
        <time>2022-05-16T10:30:58Z</time>
      </trkpt>
      <trkpt lat="43.5088" lon="1.40867">
        <ele>150.8</ele>
        <time>2022-05-16T10:30:59Z</time>
      </trkpt>
      <trkpt lat="43.50877" lon="1.40873">
        <ele>150.8</ele>
        <time>2022-05-16T10:31:00Z</time>
      </trkpt>
      <trkpt lat="43.50875" lon="1.4088">
        <ele>150.9</ele>
        <time>2022-05-16T10:31:01Z</time>
      </trkpt>
      <trkpt lat="43.50873" lon="1.40887">
        <ele>150.9</ele>
        <time>2022-05-16T10:31:02Z</time>
      </trkpt>
      <trkpt lat="43.50871" lon="1.40894">
        <ele>151</ele>
        <time>2022-05-16T10:31:03Z</time>
      </trkpt>
      <trkpt lat="43.50869" lon="1.40901">
        <ele>151</ele>
        <time>2022-05-16T10:31:04Z</time>
      </trkpt>
      <trkpt lat="43.50864" lon="1.40914">
        <ele>151.1</ele>
        <time>2022-05-16T10:31:05Z</time>
      </trkpt>
      <trkpt lat="43.50862" lon="1.4092">
        <ele>151.1</ele>
        <time>2022-05-16T10:31:06Z</time>
      </trkpt>
      <trkpt lat="43.50859" lon="1.40926">
        <ele>151.2</ele>
        <time>2022-05-16T10:31:07Z</time>
      </trkpt>
      <trkpt lat="43.50856" lon="1.40932">
        <ele>151.2</ele>
        <time>2022-05-16T10:31:08Z</time>
      </trkpt>
      <trkpt lat="43.50854" lon="1.40939">
        <ele>151.3</ele>
        <time>2022-05-16T10:31:09Z</time>
      </trkpt>
      <trkpt lat="43.50851" lon="1.40945">
        <ele>151.3</ele>
        <time>2022-05-16T10:31:10Z</time>
      </trkpt>
      <trkpt lat="43.50849" lon="1.40952">
        <ele>151.3</ele>
        <time>2022-05-16T10:31:11Z</time>
      </trkpt>
      <trkpt lat="43.50847" lon="1.40958">
        <ele>151.3</ele>
        <time>2022-05-16T10:31:12Z</time>
      </trkpt>
      <trkpt lat="43.50844" lon="1.40965">
        <ele>151.4</ele>
        <time>2022-05-16T10:31:13Z</time>
      </trkpt>
      <trkpt lat="43.50841" lon="1.40971">
        <ele>151.4</ele>
        <time>2022-05-16T10:31:14Z</time>
      </trkpt>
      <trkpt lat="43.50839" lon="1.40977">
        <ele>151.4</ele>
        <time>2022-05-16T10:31:15Z</time>
      </trkpt>
      <trkpt lat="43.50837" lon="1.40984">
        <ele>151.4</ele>
        <time>2022-05-16T10:31:16Z</time>
      </trkpt>
      <trkpt lat="43.50835" lon="1.40991">
        <ele>151.5</ele>
        <time>2022-05-16T10:31:17Z</time>
      </trkpt>
      <trkpt lat="43.50832" lon="1.40997">
        <ele>151.5</ele>
        <time>2022-05-16T10:31:18Z</time>
      </trkpt>
      <trkpt lat="43.50829" lon="1.41003">
        <ele>151.5</ele>
        <time>2022-05-16T10:31:19Z</time>
      </trkpt>
      <trkpt lat="43.50826" lon="1.41009">
        <ele>151.5</ele>
        <time>2022-05-16T10:31:20Z</time>
      </trkpt>
      <trkpt lat="43.50824" lon="1.41016">
        <ele>151.5</ele>
        <time>2022-05-16T10:31:21Z</time>
      </trkpt>
      <trkpt lat="43.50822" lon="1.41022">
        <ele>151.5</ele>
        <time>2022-05-16T10:31:22Z</time>
      </trkpt>
      <trkpt lat="43.50819" lon="1.41029">
        <ele>151.6</ele>
        <time>2022-05-16T10:31:23Z</time>
      </trkpt>
      <trkpt lat="43.50818" lon="1.41035">
        <ele>151.6</ele>
        <time>2022-05-16T10:31:24Z</time>
      </trkpt>
      <trkpt lat="43.50815" lon="1.41042">
        <ele>151.6</ele>
        <time>2022-05-16T10:31:25Z</time>
      </trkpt>
      <trkpt lat="43.50812" lon="1.41049">
        <ele>151.6</ele>
        <time>2022-05-16T10:31:26Z</time>
      </trkpt>
      <trkpt lat="43.50809" lon="1.41055">
        <ele>151.6</ele>
        <time>2022-05-16T10:31:27Z</time>
      </trkpt>
      <trkpt lat="43.50807" lon="1.41062">
        <ele>151.7</ele>
        <time>2022-05-16T10:31:28Z</time>
      </trkpt>
      <trkpt lat="43.50805" lon="1.41069">
        <ele>151.7</ele>
        <time>2022-05-16T10:31:29Z</time>
      </trkpt>
      <trkpt lat="43.50802" lon="1.41075">
        <ele>151.7</ele>
        <time>2022-05-16T10:31:30Z</time>
      </trkpt>
      <trkpt lat="43.50799" lon="1.41081">
        <ele>151.8</ele>
        <time>2022-05-16T10:31:31Z</time>
      </trkpt>
      <trkpt lat="43.50797" lon="1.41088">
        <ele>151.8</ele>
        <time>2022-05-16T10:31:32Z</time>
      </trkpt>
      <trkpt lat="43.50795" lon="1.41094">
        <ele>151.9</ele>
        <time>2022-05-16T10:31:33Z</time>
      </trkpt>
      <trkpt lat="43.50793" lon="1.41101">
        <ele>151.9</ele>
        <time>2022-05-16T10:31:34Z</time>
      </trkpt>
      <trkpt lat="43.50791" lon="1.41108">
        <ele>151.9</ele>
        <time>2022-05-16T10:31:35Z</time>
      </trkpt>
      <trkpt lat="43.50789" lon="1.41114">
        <ele>152</ele>
        <time>2022-05-16T10:31:36Z</time>
      </trkpt>
      <trkpt lat="43.50787" lon="1.41121">
        <ele>152</ele>
        <time>2022-05-16T10:31:37Z</time>
      </trkpt>
      <trkpt lat="43.50784" lon="1.41127">
        <ele>152</ele>
        <time>2022-05-16T10:31:38Z</time>
      </trkpt>
      <trkpt lat="43.50781" lon="1.41134">
        <ele>152.1</ele>
        <time>2022-05-16T10:31:39Z</time>
      </trkpt>
      <trkpt lat="43.50779" lon="1.41141">
        <ele>152.1</ele>
        <time>2022-05-16T10:31:40Z</time>
      </trkpt>
      <trkpt lat="43.50776" lon="1.41147">
        <ele>152.1</ele>
        <time>2022-05-16T10:31:41Z</time>
      </trkpt>
      <trkpt lat="43.50774" lon="1.41154">
        <ele>152.1</ele>
        <time>2022-05-16T10:31:42Z</time>
      </trkpt>
      <trkpt lat="43.50771" lon="1.41161">
        <ele>152.2</ele>
        <time>2022-05-16T10:31:43Z</time>
      </trkpt>
      <trkpt lat="43.50769" lon="1.41167">
        <ele>152.2</ele>
        <time>2022-05-16T10:31:44Z</time>
      </trkpt>
      <trkpt lat="43.50766" lon="1.41174">
        <ele>152.2</ele>
        <time>2022-05-16T10:31:45Z</time>
      </trkpt>
      <trkpt lat="43.50764" lon="1.4118">
        <ele>152.2</ele>
        <time>2022-05-16T10:31:46Z</time>
      </trkpt>
      <trkpt lat="43.50761" lon="1.41187">
        <ele>152.3</ele>
        <time>2022-05-16T10:31:47Z</time>
      </trkpt>
      <trkpt lat="43.50759" lon="1.41194">
        <ele>152.3</ele>
        <time>2022-05-16T10:31:48Z</time>
      </trkpt>
      <trkpt lat="43.50757" lon="1.412">
        <ele>152.4</ele>
        <time>2022-05-16T10:31:49Z</time>
      </trkpt>
      <trkpt lat="43.50754" lon="1.41207">
        <ele>152.4</ele>
        <time>2022-05-16T10:31:50Z</time>
      </trkpt>
      <trkpt lat="43.50752" lon="1.41214">
        <ele>152.4</ele>
        <time>2022-05-16T10:31:51Z</time>
      </trkpt>
      <trkpt lat="43.50749" lon="1.41221">
        <ele>152.5</ele>
        <time>2022-05-16T10:31:52Z</time>
      </trkpt>
      <trkpt lat="43.50747" lon="1.41227">
        <ele>152.5</ele>
        <time>2022-05-16T10:31:53Z</time>
      </trkpt>
      <trkpt lat="43.50744" lon="1.41234">
        <ele>152.6</ele>
        <time>2022-05-16T10:31:54Z</time>
      </trkpt>
      <trkpt lat="43.50741" lon="1.4124">
        <ele>152.6</ele>
        <time>2022-05-16T10:31:55Z</time>
      </trkpt>
      <trkpt lat="43.50738" lon="1.41247">
        <ele>152.7</ele>
        <time>2022-05-16T10:31:56Z</time>
      </trkpt>
      <trkpt lat="43.50735" lon="1.41254">
        <ele>152.7</ele>
        <time>2022-05-16T10:31:57Z</time>
      </trkpt>
      <trkpt lat="43.50733" lon="1.4126">
        <ele>152.8</ele>
        <time>2022-05-16T10:31:58Z</time>
      </trkpt>
      <trkpt lat="43.5073" lon="1.41267">
        <ele>152.9</ele>
        <time>2022-05-16T10:31:59Z</time>
      </trkpt>
      <trkpt lat="43.50727" lon="1.41275">
        <ele>152.9</ele>
        <time>2022-05-16T10:32:00Z</time>
      </trkpt>
      <trkpt lat="43.50725" lon="1.41282">
        <ele>153</ele>
        <time>2022-05-16T10:32:01Z</time>
      </trkpt>
      <trkpt lat="43.50723" lon="1.41289">
        <ele>153.1</ele>
        <time>2022-05-16T10:32:02Z</time>
      </trkpt>
      <trkpt lat="43.50721" lon="1.41296">
        <ele>153.1</ele>
        <time>2022-05-16T10:32:03Z</time>
      </trkpt>
      <trkpt lat="43.50718" lon="1.41303">
        <ele>153.2</ele>
        <time>2022-05-16T10:32:04Z</time>
      </trkpt>
      <trkpt lat="43.50716" lon="1.4131">
        <ele>153.3</ele>
        <time>2022-05-16T10:32:05Z</time>
      </trkpt>
      <trkpt lat="43.50713" lon="1.41317">
        <ele>153.4</ele>
        <time>2022-05-16T10:32:06Z</time>
      </trkpt>
      <trkpt lat="43.50711" lon="1.41324">
        <ele>153.5</ele>
        <time>2022-05-16T10:32:07Z</time>
      </trkpt>
      <trkpt lat="43.50708" lon="1.41331">
        <ele>153.6</ele>
        <time>2022-05-16T10:32:08Z</time>
      </trkpt>
      <trkpt lat="43.50705" lon="1.41337">
        <ele>153.7</ele>
        <time>2022-05-16T10:32:09Z</time>
      </trkpt>
      <trkpt lat="43.50701" lon="1.41342">
        <ele>153.8</ele>
        <time>2022-05-16T10:32:10Z</time>
      </trkpt>
      <trkpt lat="43.50698" lon="1.41345">
        <ele>153.9</ele>
        <time>2022-05-16T10:32:11Z</time>
      </trkpt>
      <trkpt lat="43.50695" lon="1.41347">
        <ele>154</ele>
        <time>2022-05-16T10:32:12Z</time>
      </trkpt>
      <trkpt lat="43.50694" lon="1.4135">
        <ele>154</ele>
        <time>2022-05-16T10:32:13Z</time>
      </trkpt>
      <trkpt lat="43.50694" lon="1.41351">
        <ele>154</ele>
        <time>2022-05-16T10:32:14Z</time>
      </trkpt>
      <trkpt lat="43.50692" lon="1.41352">
        <ele>154.1</ele>
        <time>2022-05-16T10:32:15Z</time>
      </trkpt>
      <trkpt lat="43.50691" lon="1.41355">
        <ele>154.1</ele>
        <time>2022-05-16T10:32:16Z</time>
      </trkpt>
      <trkpt lat="43.50692" lon="1.4136">
        <ele>154.1</ele>
        <time>2022-05-16T10:32:17Z</time>
      </trkpt>
      <trkpt lat="43.50694" lon="1.41367">
        <ele>154.1</ele>
        <time>2022-05-16T10:32:18Z</time>
      </trkpt>
      <trkpt lat="43.50698" lon="1.41372">
        <ele>154.2</ele>
        <time>2022-05-16T10:32:19Z</time>
      </trkpt>
      <trkpt lat="43.50701" lon="1.41378">
        <ele>154.2</ele>
        <time>2022-05-16T10:32:20Z</time>
      </trkpt>
      <trkpt lat="43.50704" lon="1.41384">
        <ele>154.2</ele>
        <time>2022-05-16T10:32:21Z</time>
      </trkpt>
      <trkpt lat="43.50707" lon="1.4139">
        <ele>154.2</ele>
        <time>2022-05-16T10:32:22Z</time>
      </trkpt>
      <trkpt lat="43.50709" lon="1.41397">
        <ele>154.2</ele>
        <time>2022-05-16T10:32:23Z</time>
      </trkpt>
      <trkpt lat="43.50712" lon="1.41404">
        <ele>154.3</ele>
        <time>2022-05-16T10:32:24Z</time>
      </trkpt>
      <trkpt lat="43.50715" lon="1.4141">
        <ele>154.3</ele>
        <time>2022-05-16T10:32:25Z</time>
      </trkpt>
      <trkpt lat="43.50717" lon="1.41417">
        <ele>154.3</ele>
        <time>2022-05-16T10:32:26Z</time>
      </trkpt>
      <trkpt lat="43.5072" lon="1.41424">
        <ele>154.3</ele>
        <time>2022-05-16T10:32:27Z</time>
      </trkpt>
      <trkpt lat="43.50724" lon="1.4143">
        <ele>154.3</ele>
        <time>2022-05-16T10:32:28Z</time>
      </trkpt>
      <trkpt lat="43.50727" lon="1.41435">
        <ele>154.3</ele>
        <time>2022-05-16T10:32:29Z</time>
      </trkpt>
      <trkpt lat="43.50732" lon="1.41441">
        <ele>154.3</ele>
        <time>2022-05-16T10:32:30Z</time>
      </trkpt>
      <trkpt lat="43.50736" lon="1.41446">
        <ele>154.3</ele>
        <time>2022-05-16T10:32:31Z</time>
      </trkpt>
      <trkpt lat="43.50741" lon="1.41451">
        <ele>154.3</ele>
        <time>2022-05-16T10:32:32Z</time>
      </trkpt>
      <trkpt lat="43.50745" lon="1.41455">
        <ele>154.3</ele>
        <time>2022-05-16T10:32:33Z</time>
      </trkpt>
      <trkpt lat="43.50751" lon="1.41459">
        <ele>154.3</ele>
        <time>2022-05-16T10:32:34Z</time>
      </trkpt>
      <trkpt lat="43.50756" lon="1.41462">
        <ele>154.3</ele>
        <time>2022-05-16T10:32:35Z</time>
      </trkpt>
      <trkpt lat="43.50761" lon="1.41465">
        <ele>154.3</ele>
        <time>2022-05-16T10:32:36Z</time>
      </trkpt>
      <trkpt lat="43.50766" lon="1.41468">
        <ele>154.3</ele>
        <time>2022-05-16T10:32:37Z</time>
      </trkpt>
      <trkpt lat="43.50772" lon="1.4147">
        <ele>154.3</ele>
        <time>2022-05-16T10:32:38Z</time>
      </trkpt>
      <trkpt lat="43.50778" lon="1.41472">
        <ele>154.3</ele>
        <time>2022-05-16T10:32:39Z</time>
      </trkpt>
      <trkpt lat="43.50784" lon="1.41474">
        <ele>154.3</ele>
        <time>2022-05-16T10:32:40Z</time>
      </trkpt>
      <trkpt lat="43.50789" lon="1.41475">
        <ele>154.3</ele>
        <time>2022-05-16T10:32:41Z</time>
      </trkpt>
      <trkpt lat="43.50795" lon="1.41477">
        <ele>154.3</ele>
        <time>2022-05-16T10:32:42Z</time>
      </trkpt>
      <trkpt lat="43.50801" lon="1.41479">
        <ele>154.2</ele>
        <time>2022-05-16T10:32:43Z</time>
      </trkpt>
      <trkpt lat="43.50807" lon="1.4148">
        <ele>154.2</ele>
        <time>2022-05-16T10:32:44Z</time>
      </trkpt>
      <trkpt lat="43.50814" lon="1.41483">
        <ele>154.2</ele>
        <time>2022-05-16T10:32:45Z</time>
      </trkpt>
      <trkpt lat="43.50819" lon="1.41485">
        <ele>154.2</ele>
        <time>2022-05-16T10:32:46Z</time>
      </trkpt>
      <trkpt lat="43.50825" lon="1.41486">
        <ele>154.2</ele>
        <time>2022-05-16T10:32:47Z</time>
      </trkpt>
      <trkpt lat="43.50831" lon="1.41488">
        <ele>154.1</ele>
        <time>2022-05-16T10:32:48Z</time>
      </trkpt>
      <trkpt lat="43.50837" lon="1.41489">
        <ele>154.1</ele>
        <time>2022-05-16T10:32:49Z</time>
      </trkpt>
      <trkpt lat="43.50843" lon="1.41492">
        <ele>154.1</ele>
        <time>2022-05-16T10:32:50Z</time>
      </trkpt>
      <trkpt lat="43.50849" lon="1.41493">
        <ele>154</ele>
        <time>2022-05-16T10:32:51Z</time>
      </trkpt>
      <trkpt lat="43.50856" lon="1.41495">
        <ele>154</ele>
        <time>2022-05-16T10:32:52Z</time>
      </trkpt>
      <trkpt lat="43.50862" lon="1.41497">
        <ele>153.9</ele>
        <time>2022-05-16T10:32:53Z</time>
      </trkpt>
      <trkpt lat="43.50868" lon="1.41499">
        <ele>153.9</ele>
        <time>2022-05-16T10:32:54Z</time>
      </trkpt>
      <trkpt lat="43.50874" lon="1.415">
        <ele>153.8</ele>
        <time>2022-05-16T10:32:55Z</time>
      </trkpt>
      <trkpt lat="43.5088" lon="1.41503">
        <ele>153.8</ele>
        <time>2022-05-16T10:32:56Z</time>
      </trkpt>
      <trkpt lat="43.50887" lon="1.41504">
        <ele>153.8</ele>
        <time>2022-05-16T10:32:57Z</time>
      </trkpt>
      <trkpt lat="43.50893" lon="1.41506">
        <ele>153.8</ele>
        <time>2022-05-16T10:32:58Z</time>
      </trkpt>
      <trkpt lat="43.50899" lon="1.41508">
        <ele>153.7</ele>
        <time>2022-05-16T10:32:59Z</time>
      </trkpt>
      <trkpt lat="43.50905" lon="1.4151">
        <ele>153.7</ele>
        <time>2022-05-16T10:33:00Z</time>
      </trkpt>
      <trkpt lat="43.50911" lon="1.41512">
        <ele>153.7</ele>
        <time>2022-05-16T10:33:01Z</time>
      </trkpt>
      <trkpt lat="43.50918" lon="1.41514">
        <ele>153.6</ele>
        <time>2022-05-16T10:33:02Z</time>
      </trkpt>
      <trkpt lat="43.50924" lon="1.41516">
        <ele>153.6</ele>
        <time>2022-05-16T10:33:03Z</time>
      </trkpt>
      <trkpt lat="43.50931" lon="1.41518">
        <ele>153.6</ele>
        <time>2022-05-16T10:33:04Z</time>
      </trkpt>
      <trkpt lat="43.50937" lon="1.4152">
        <ele>153.6</ele>
        <time>2022-05-16T10:33:05Z</time>
      </trkpt>
      <trkpt lat="43.50944" lon="1.41522">
        <ele>153.6</ele>
        <time>2022-05-16T10:33:06Z</time>
      </trkpt>
      <trkpt lat="43.5095" lon="1.41524">
        <ele>153.5</ele>
        <time>2022-05-16T10:33:07Z</time>
      </trkpt>
      <trkpt lat="43.50956" lon="1.41525">
        <ele>153.5</ele>
        <time>2022-05-16T10:33:08Z</time>
      </trkpt>
      <trkpt lat="43.50962" lon="1.41527">
        <ele>153.4</ele>
        <time>2022-05-16T10:33:09Z</time>
      </trkpt>
      <trkpt lat="43.50968" lon="1.41529">
        <ele>153.3</ele>
        <time>2022-05-16T10:33:10Z</time>
      </trkpt>
      <trkpt lat="43.50974" lon="1.41531">
        <ele>153.3</ele>
        <time>2022-05-16T10:33:11Z</time>
      </trkpt>
      <trkpt lat="43.50981" lon="1.41533">
        <ele>153.2</ele>
        <time>2022-05-16T10:33:12Z</time>
      </trkpt>
      <trkpt lat="43.50987" lon="1.41535">
        <ele>153.1</ele>
        <time>2022-05-16T10:33:13Z</time>
      </trkpt>
      <trkpt lat="43.50994" lon="1.41537">
        <ele>153.1</ele>
        <time>2022-05-16T10:33:14Z</time>
      </trkpt>
      <trkpt lat="43.51" lon="1.41539">
        <ele>153</ele>
        <time>2022-05-16T10:33:15Z</time>
      </trkpt>
      <trkpt lat="43.51006" lon="1.41541">
        <ele>153</ele>
        <time>2022-05-16T10:33:16Z</time>
      </trkpt>
      <trkpt lat="43.51012" lon="1.41543">
        <ele>153</ele>
        <time>2022-05-16T10:33:17Z</time>
      </trkpt>
      <trkpt lat="43.51019" lon="1.41545">
        <ele>152.9</ele>
        <time>2022-05-16T10:33:18Z</time>
      </trkpt>
      <trkpt lat="43.51025" lon="1.41546">
        <ele>152.9</ele>
        <time>2022-05-16T10:33:19Z</time>
      </trkpt>
      <trkpt lat="43.51031" lon="1.41548">
        <ele>152.9</ele>
        <time>2022-05-16T10:33:20Z</time>
      </trkpt>
      <trkpt lat="43.51038" lon="1.4155">
        <ele>152.9</ele>
        <time>2022-05-16T10:33:21Z</time>
      </trkpt>
      <trkpt lat="43.51044" lon="1.41552">
        <ele>152.8</ele>
        <time>2022-05-16T10:33:22Z</time>
      </trkpt>
      <trkpt lat="43.5105" lon="1.41554">
        <ele>152.8</ele>
        <time>2022-05-16T10:33:23Z</time>
      </trkpt>
      <trkpt lat="43.51057" lon="1.41556">
        <ele>152.8</ele>
        <time>2022-05-16T10:33:24Z</time>
      </trkpt>
      <trkpt lat="43.51064" lon="1.41558">
        <ele>152.7</ele>
        <time>2022-05-16T10:33:25Z</time>
      </trkpt>
      <trkpt lat="43.5107" lon="1.4156">
        <ele>152.7</ele>
        <time>2022-05-16T10:33:26Z</time>
      </trkpt>
      <trkpt lat="43.51077" lon="1.41562">
        <ele>152.7</ele>
        <time>2022-05-16T10:33:27Z</time>
      </trkpt>
      <trkpt lat="43.51083" lon="1.41564">
        <ele>152.7</ele>
        <time>2022-05-16T10:33:28Z</time>
      </trkpt>
      <trkpt lat="43.51089" lon="1.41566">
        <ele>152.7</ele>
        <time>2022-05-16T10:33:29Z</time>
      </trkpt>
      <trkpt lat="43.51096" lon="1.41568">
        <ele>152.6</ele>
        <time>2022-05-16T10:33:30Z</time>
      </trkpt>
      <trkpt lat="43.51102" lon="1.41569">
        <ele>152.6</ele>
        <time>2022-05-16T10:33:31Z</time>
      </trkpt>
      <trkpt lat="43.51109" lon="1.41571">
        <ele>152.6</ele>
        <time>2022-05-16T10:33:32Z</time>
      </trkpt>
      <trkpt lat="43.51115" lon="1.41573">
        <ele>152.5</ele>
        <time>2022-05-16T10:33:33Z</time>
      </trkpt>
      <trkpt lat="43.51122" lon="1.41575">
        <ele>152.5</ele>
        <time>2022-05-16T10:33:34Z</time>
      </trkpt>
      <trkpt lat="43.51128" lon="1.41577">
        <ele>152.5</ele>
        <time>2022-05-16T10:33:35Z</time>
      </trkpt>
      <trkpt lat="43.51135" lon="1.41579">
        <ele>152.5</ele>
        <time>2022-05-16T10:33:36Z</time>
      </trkpt>
      <trkpt lat="43.51141" lon="1.41581">
        <ele>152.4</ele>
        <time>2022-05-16T10:33:37Z</time>
      </trkpt>
      <trkpt lat="43.51148" lon="1.41583">
        <ele>152.4</ele>
        <time>2022-05-16T10:33:38Z</time>
      </trkpt>
      <trkpt lat="43.51154" lon="1.41585">
        <ele>152.3</ele>
        <time>2022-05-16T10:33:39Z</time>
      </trkpt>
      <trkpt lat="43.51161" lon="1.41587">
        <ele>152.2</ele>
        <time>2022-05-16T10:33:40Z</time>
      </trkpt>
      <trkpt lat="43.51168" lon="1.41589">
        <ele>152.2</ele>
        <time>2022-05-16T10:33:41Z</time>
      </trkpt>
      <trkpt lat="43.51174" lon="1.41591">
        <ele>152.2</ele>
        <time>2022-05-16T10:33:42Z</time>
      </trkpt>
      <trkpt lat="43.51181" lon="1.41593">
        <ele>152.1</ele>
        <time>2022-05-16T10:33:43Z</time>
      </trkpt>
      <trkpt lat="43.51188" lon="1.41595">
        <ele>152.1</ele>
        <time>2022-05-16T10:33:44Z</time>
      </trkpt>
      <trkpt lat="43.51194" lon="1.41598">
        <ele>152</ele>
        <time>2022-05-16T10:33:45Z</time>
      </trkpt>
      <trkpt lat="43.51201" lon="1.41599">
        <ele>152</ele>
        <time>2022-05-16T10:33:46Z</time>
      </trkpt>
      <trkpt lat="43.51208" lon="1.41601">
        <ele>151.9</ele>
        <time>2022-05-16T10:33:47Z</time>
      </trkpt>
      <trkpt lat="43.51215" lon="1.41603">
        <ele>151.9</ele>
        <time>2022-05-16T10:33:48Z</time>
      </trkpt>
      <trkpt lat="43.51221" lon="1.41605">
        <ele>151.8</ele>
        <time>2022-05-16T10:33:49Z</time>
      </trkpt>
      <trkpt lat="43.51228" lon="1.41608">
        <ele>151.7</ele>
        <time>2022-05-16T10:33:50Z</time>
      </trkpt>
      <trkpt lat="43.51235" lon="1.41609">
        <ele>151.7</ele>
        <time>2022-05-16T10:33:51Z</time>
      </trkpt>
      <trkpt lat="43.51242" lon="1.41612">
        <ele>151.6</ele>
        <time>2022-05-16T10:33:52Z</time>
      </trkpt>
      <trkpt lat="43.51249" lon="1.41614">
        <ele>151.6</ele>
        <time>2022-05-16T10:33:53Z</time>
      </trkpt>
      <trkpt lat="43.51256" lon="1.41616">
        <ele>151.5</ele>
        <time>2022-05-16T10:33:54Z</time>
      </trkpt>
      <trkpt lat="43.51263" lon="1.41618">
        <ele>151.5</ele>
        <time>2022-05-16T10:33:55Z</time>
      </trkpt>
      <trkpt lat="43.51269" lon="1.4162">
        <ele>151.5</ele>
        <time>2022-05-16T10:33:56Z</time>
      </trkpt>
      <trkpt lat="43.51276" lon="1.41622">
        <ele>151.5</ele>
        <time>2022-05-16T10:33:57Z</time>
      </trkpt>
      <trkpt lat="43.51283" lon="1.41624">
        <ele>151.4</ele>
        <time>2022-05-16T10:33:58Z</time>
      </trkpt>
      <trkpt lat="43.51289" lon="1.41626">
        <ele>151.4</ele>
        <time>2022-05-16T10:33:59Z</time>
      </trkpt>
      <trkpt lat="43.51296" lon="1.41628">
        <ele>151.4</ele>
        <time>2022-05-16T10:34:00Z</time>
      </trkpt>
      <trkpt lat="43.51303" lon="1.4163">
        <ele>151.3</ele>
        <time>2022-05-16T10:34:01Z</time>
      </trkpt>
      <trkpt lat="43.51309" lon="1.41632">
        <ele>151.3</ele>
        <time>2022-05-16T10:34:02Z</time>
      </trkpt>
      <trkpt lat="43.51316" lon="1.41634">
        <ele>151.3</ele>
        <time>2022-05-16T10:34:03Z</time>
      </trkpt>
      <trkpt lat="43.51322" lon="1.41636">
        <ele>151.2</ele>
        <time>2022-05-16T10:34:04Z</time>
      </trkpt>
      <trkpt lat="43.51329" lon="1.41638">
        <ele>151.2</ele>
        <time>2022-05-16T10:34:05Z</time>
      </trkpt>
      <trkpt lat="43.51336" lon="1.4164">
        <ele>151.2</ele>
        <time>2022-05-16T10:34:06Z</time>
      </trkpt>
      <trkpt lat="43.51342" lon="1.41642">
        <ele>151.1</ele>
        <time>2022-05-16T10:34:07Z</time>
      </trkpt>
      <trkpt lat="43.51349" lon="1.41644">
        <ele>151.1</ele>
        <time>2022-05-16T10:34:08Z</time>
      </trkpt>
      <trkpt lat="43.51356" lon="1.41646">
        <ele>151.1</ele>
        <time>2022-05-16T10:34:09Z</time>
      </trkpt>
      <trkpt lat="43.51362" lon="1.41648">
        <ele>151.1</ele>
        <time>2022-05-16T10:34:10Z</time>
      </trkpt>
      <trkpt lat="43.51369" lon="1.4165">
        <ele>151</ele>
        <time>2022-05-16T10:34:11Z</time>
      </trkpt>
      <trkpt lat="43.51375" lon="1.41652">
        <ele>151</ele>
        <time>2022-05-16T10:34:12Z</time>
      </trkpt>
      <trkpt lat="43.51382" lon="1.41654">
        <ele>151</ele>
        <time>2022-05-16T10:34:13Z</time>
      </trkpt>
      <trkpt lat="43.51388" lon="1.41656">
        <ele>151</ele>
        <time>2022-05-16T10:34:14Z</time>
      </trkpt>
      <trkpt lat="43.51395" lon="1.41658">
        <ele>151</ele>
        <time>2022-05-16T10:34:15Z</time>
      </trkpt>
      <trkpt lat="43.51401" lon="1.4166">
        <ele>150.9</ele>
        <time>2022-05-16T10:34:16Z</time>
      </trkpt>
      <trkpt lat="43.51408" lon="1.41662">
        <ele>150.9</ele>
        <time>2022-05-16T10:34:17Z</time>
      </trkpt>
      <trkpt lat="43.51414" lon="1.41664">
        <ele>150.9</ele>
        <time>2022-05-16T10:34:18Z</time>
      </trkpt>
      <trkpt lat="43.51421" lon="1.41666">
        <ele>150.9</ele>
        <time>2022-05-16T10:34:19Z</time>
      </trkpt>
      <trkpt lat="43.51428" lon="1.41668">
        <ele>150.8</ele>
        <time>2022-05-16T10:34:20Z</time>
      </trkpt>
      <trkpt lat="43.51434" lon="1.4167">
        <ele>150.8</ele>
        <time>2022-05-16T10:34:21Z</time>
      </trkpt>
      <trkpt lat="43.51441" lon="1.41672">
        <ele>150.8</ele>
        <time>2022-05-16T10:34:22Z</time>
      </trkpt>
      <trkpt lat="43.51448" lon="1.41674">
        <ele>150.8</ele>
        <time>2022-05-16T10:34:23Z</time>
      </trkpt>
      <trkpt lat="43.51454" lon="1.41676">
        <ele>150.8</ele>
        <time>2022-05-16T10:34:24Z</time>
      </trkpt>
      <trkpt lat="43.51461" lon="1.41678">
        <ele>150.8</ele>
        <time>2022-05-16T10:34:25Z</time>
      </trkpt>
      <trkpt lat="43.51468" lon="1.4168">
        <ele>150.8</ele>
        <time>2022-05-16T10:34:26Z</time>
      </trkpt>
      <trkpt lat="43.51475" lon="1.41682">
        <ele>150.8</ele>
        <time>2022-05-16T10:34:27Z</time>
      </trkpt>
      <trkpt lat="43.51482" lon="1.41684">
        <ele>150.8</ele>
        <time>2022-05-16T10:34:28Z</time>
      </trkpt>
      <trkpt lat="43.51488" lon="1.41686">
        <ele>150.8</ele>
        <time>2022-05-16T10:34:29Z</time>
      </trkpt>
      <trkpt lat="43.51496" lon="1.41688">
        <ele>150.8</ele>
        <time>2022-05-16T10:34:30Z</time>
      </trkpt>
      <trkpt lat="43.51502" lon="1.4169">
        <ele>150.8</ele>
        <time>2022-05-16T10:34:31Z</time>
      </trkpt>
      <trkpt lat="43.51509" lon="1.41692">
        <ele>150.8</ele>
        <time>2022-05-16T10:34:32Z</time>
      </trkpt>
      <trkpt lat="43.51516" lon="1.41694">
        <ele>150.9</ele>
        <time>2022-05-16T10:34:33Z</time>
      </trkpt>
      <trkpt lat="43.51523" lon="1.41696">
        <ele>150.9</ele>
        <time>2022-05-16T10:34:34Z</time>
      </trkpt>
      <trkpt lat="43.51529" lon="1.41698">
        <ele>151</ele>
        <time>2022-05-16T10:34:35Z</time>
      </trkpt>
      <trkpt lat="43.51536" lon="1.417">
        <ele>151</ele>
        <time>2022-05-16T10:34:36Z</time>
      </trkpt>
      <trkpt lat="43.51543" lon="1.41701">
        <ele>151.1</ele>
        <time>2022-05-16T10:34:37Z</time>
      </trkpt>
      <trkpt lat="43.51549" lon="1.41703">
        <ele>151.1</ele>
        <time>2022-05-16T10:34:38Z</time>
      </trkpt>
      <trkpt lat="43.51556" lon="1.41705">
        <ele>151.2</ele>
        <time>2022-05-16T10:34:39Z</time>
      </trkpt>
      <trkpt lat="43.51563" lon="1.41707">
        <ele>151.2</ele>
        <time>2022-05-16T10:34:40Z</time>
      </trkpt>
      <trkpt lat="43.51569" lon="1.41709">
        <ele>151.2</ele>
        <time>2022-05-16T10:34:41Z</time>
      </trkpt>
      <trkpt lat="43.51576" lon="1.41711">
        <ele>151.3</ele>
        <time>2022-05-16T10:34:42Z</time>
      </trkpt>
      <trkpt lat="43.51582" lon="1.41713">
        <ele>151.3</ele>
        <time>2022-05-16T10:34:43Z</time>
      </trkpt>
      <trkpt lat="43.51589" lon="1.41715">
        <ele>151.3</ele>
        <time>2022-05-16T10:34:44Z</time>
      </trkpt>
      <trkpt lat="43.51595" lon="1.41717">
        <ele>151.3</ele>
        <time>2022-05-16T10:34:45Z</time>
      </trkpt>
      <trkpt lat="43.51601" lon="1.4172">
        <ele>151.2</ele>
        <time>2022-05-16T10:34:46Z</time>
      </trkpt>
      <trkpt lat="43.51608" lon="1.41723">
        <ele>151.2</ele>
        <time>2022-05-16T10:34:47Z</time>
      </trkpt>
      <trkpt lat="43.51615" lon="1.41726">
        <ele>151.1</ele>
        <time>2022-05-16T10:34:48Z</time>
      </trkpt>
      <trkpt lat="43.51621" lon="1.41729">
        <ele>151.1</ele>
        <time>2022-05-16T10:34:49Z</time>
      </trkpt>
      <trkpt lat="43.51628" lon="1.41732">
        <ele>151</ele>
        <time>2022-05-16T10:34:50Z</time>
      </trkpt>
      <trkpt lat="43.51635" lon="1.41735">
        <ele>150.9</ele>
        <time>2022-05-16T10:34:51Z</time>
      </trkpt>
      <trkpt lat="43.51641" lon="1.41739">
        <ele>150.9</ele>
        <time>2022-05-16T10:34:52Z</time>
      </trkpt>
      <trkpt lat="43.51648" lon="1.41742">
        <ele>150.8</ele>
        <time>2022-05-16T10:34:53Z</time>
      </trkpt>
      <trkpt lat="43.51654" lon="1.41746">
        <ele>150.8</ele>
        <time>2022-05-16T10:34:54Z</time>
      </trkpt>
      <trkpt lat="43.51661" lon="1.41749">
        <ele>150.8</ele>
        <time>2022-05-16T10:34:55Z</time>
      </trkpt>
      <trkpt lat="43.51667" lon="1.41752">
        <ele>150.8</ele>
        <time>2022-05-16T10:34:56Z</time>
      </trkpt>
      <trkpt lat="43.51674" lon="1.41755">
        <ele>150.7</ele>
        <time>2022-05-16T10:34:57Z</time>
      </trkpt>
      <trkpt lat="43.5168" lon="1.41759">
        <ele>150.7</ele>
        <time>2022-05-16T10:34:58Z</time>
      </trkpt>
      <trkpt lat="43.51686" lon="1.41762">
        <ele>150.7</ele>
        <time>2022-05-16T10:34:59Z</time>
      </trkpt>
      <trkpt lat="43.51693" lon="1.41766">
        <ele>150.6</ele>
        <time>2022-05-16T10:35:00Z</time>
      </trkpt>
      <trkpt lat="43.51699" lon="1.41769">
        <ele>150.6</ele>
        <time>2022-05-16T10:35:01Z</time>
      </trkpt>
      <trkpt lat="43.51705" lon="1.41772">
        <ele>150.5</ele>
        <time>2022-05-16T10:35:02Z</time>
      </trkpt>
      <trkpt lat="43.51712" lon="1.41776">
        <ele>150.5</ele>
        <time>2022-05-16T10:35:03Z</time>
      </trkpt>
      <trkpt lat="43.51718" lon="1.41779">
        <ele>150.4</ele>
        <time>2022-05-16T10:35:04Z</time>
      </trkpt>
      <trkpt lat="43.51724" lon="1.41782">
        <ele>150.4</ele>
        <time>2022-05-16T10:35:05Z</time>
      </trkpt>
      <trkpt lat="43.5173" lon="1.41786">
        <ele>150.3</ele>
        <time>2022-05-16T10:35:06Z</time>
      </trkpt>
      <trkpt lat="43.51737" lon="1.41789">
        <ele>150.3</ele>
        <time>2022-05-16T10:35:07Z</time>
      </trkpt>
      <trkpt lat="43.51743" lon="1.41792">
        <ele>150.3</ele>
        <time>2022-05-16T10:35:08Z</time>
      </trkpt>
      <trkpt lat="43.51749" lon="1.41795">
        <ele>150.3</ele>
        <time>2022-05-16T10:35:09Z</time>
      </trkpt>
      <trkpt lat="43.51755" lon="1.41798">
        <ele>150.3</ele>
        <time>2022-05-16T10:35:10Z</time>
      </trkpt>
      <trkpt lat="43.51762" lon="1.41801">
        <ele>150.2</ele>
        <time>2022-05-16T10:35:11Z</time>
      </trkpt>
      <trkpt lat="43.51768" lon="1.41804">
        <ele>150.2</ele>
        <time>2022-05-16T10:35:12Z</time>
      </trkpt>
      <trkpt lat="43.51774" lon="1.41807">
        <ele>150.2</ele>
        <time>2022-05-16T10:35:13Z</time>
      </trkpt>
      <trkpt lat="43.5178" lon="1.41811">
        <ele>150.2</ele>
        <time>2022-05-16T10:35:14Z</time>
      </trkpt>
      <trkpt lat="43.51786" lon="1.41814">
        <ele>150.2</ele>
        <time>2022-05-16T10:35:15Z</time>
      </trkpt>
      <trkpt lat="43.51792" lon="1.41817">
        <ele>150.2</ele>
        <time>2022-05-16T10:35:16Z</time>
      </trkpt>
      <trkpt lat="43.51798" lon="1.4182">
        <ele>150.2</ele>
        <time>2022-05-16T10:35:17Z</time>
      </trkpt>
      <trkpt lat="43.51805" lon="1.41824">
        <ele>150.2</ele>
        <time>2022-05-16T10:35:18Z</time>
      </trkpt>
      <trkpt lat="43.51811" lon="1.41827">
        <ele>150.2</ele>
        <time>2022-05-16T10:35:19Z</time>
      </trkpt>
      <trkpt lat="43.51817" lon="1.4183">
        <ele>150.2</ele>
        <time>2022-05-16T10:35:20Z</time>
      </trkpt>
      <trkpt lat="43.51823" lon="1.41833">
        <ele>150.2</ele>
        <time>2022-05-16T10:35:21Z</time>
      </trkpt>
      <trkpt lat="43.51829" lon="1.41836">
        <ele>150.2</ele>
        <time>2022-05-16T10:35:22Z</time>
      </trkpt>
      <trkpt lat="43.51835" lon="1.4184">
        <ele>150.2</ele>
        <time>2022-05-16T10:35:23Z</time>
      </trkpt>
      <trkpt lat="43.51841" lon="1.41844">
        <ele>150.3</ele>
        <time>2022-05-16T10:35:24Z</time>
      </trkpt>
      <trkpt lat="43.51847" lon="1.41847">
        <ele>150.3</ele>
        <time>2022-05-16T10:35:25Z</time>
      </trkpt>
      <trkpt lat="43.51852" lon="1.41851">
        <ele>150.4</ele>
        <time>2022-05-16T10:35:26Z</time>
      </trkpt>
      <trkpt lat="43.51858" lon="1.41855">
        <ele>150.4</ele>
        <time>2022-05-16T10:35:27Z</time>
      </trkpt>
      <trkpt lat="43.51864" lon="1.41859">
        <ele>150.4</ele>
        <time>2022-05-16T10:35:28Z</time>
      </trkpt>
      <trkpt lat="43.51869" lon="1.41863">
        <ele>150.5</ele>
        <time>2022-05-16T10:35:29Z</time>
      </trkpt>
      <trkpt lat="43.51874" lon="1.41868">
        <ele>150.5</ele>
        <time>2022-05-16T10:35:30Z</time>
      </trkpt>
      <trkpt lat="43.5188" lon="1.41872">
        <ele>150.5</ele>
        <time>2022-05-16T10:35:31Z</time>
      </trkpt>
      <trkpt lat="43.51885" lon="1.41877">
        <ele>150.5</ele>
        <time>2022-05-16T10:35:32Z</time>
      </trkpt>
      <trkpt lat="43.5189" lon="1.41881">
        <ele>150.5</ele>
        <time>2022-05-16T10:35:33Z</time>
      </trkpt>
      <trkpt lat="43.51895" lon="1.41886">
        <ele>150.5</ele>
        <time>2022-05-16T10:35:34Z</time>
      </trkpt>
      <trkpt lat="43.519" lon="1.41891">
        <ele>150.5</ele>
        <time>2022-05-16T10:35:35Z</time>
      </trkpt>
      <trkpt lat="43.51906" lon="1.41896">
        <ele>150.5</ele>
        <time>2022-05-16T10:35:36Z</time>
      </trkpt>
      <trkpt lat="43.51911" lon="1.41901">
        <ele>150.5</ele>
        <time>2022-05-16T10:35:37Z</time>
      </trkpt>
      <trkpt lat="43.51915" lon="1.41907">
        <ele>150.5</ele>
        <time>2022-05-16T10:35:38Z</time>
      </trkpt>
      <trkpt lat="43.51921" lon="1.41912">
        <ele>150.5</ele>
        <time>2022-05-16T10:35:39Z</time>
      </trkpt>
      <trkpt lat="43.51926" lon="1.41917">
        <ele>150.6</ele>
        <time>2022-05-16T10:35:40Z</time>
      </trkpt>
      <trkpt lat="43.51931" lon="1.41923">
        <ele>150.6</ele>
        <time>2022-05-16T10:35:41Z</time>
      </trkpt>
      <trkpt lat="43.51935" lon="1.41928">
        <ele>150.6</ele>
        <time>2022-05-16T10:35:42Z</time>
      </trkpt>
      <trkpt lat="43.5194" lon="1.41933">
        <ele>150.6</ele>
        <time>2022-05-16T10:35:43Z</time>
      </trkpt>
      <trkpt lat="43.51945" lon="1.41939">
        <ele>150.6</ele>
        <time>2022-05-16T10:35:44Z</time>
      </trkpt>
      <trkpt lat="43.51949" lon="1.41944">
        <ele>150.7</ele>
        <time>2022-05-16T10:35:45Z</time>
      </trkpt>
      <trkpt lat="43.51954" lon="1.41949">
        <ele>150.7</ele>
        <time>2022-05-16T10:35:46Z</time>
      </trkpt>
      <trkpt lat="43.51958" lon="1.41953">
        <ele>150.7</ele>
        <time>2022-05-16T10:35:47Z</time>
      </trkpt>
      <trkpt lat="43.51962" lon="1.41958">
        <ele>150.7</ele>
        <time>2022-05-16T10:35:48Z</time>
      </trkpt>
      <trkpt lat="43.51966" lon="1.41962">
        <ele>150.8</ele>
        <time>2022-05-16T10:35:49Z</time>
      </trkpt>
      <trkpt lat="43.51967" lon="1.41969">
        <ele>150.8</ele>
        <time>2022-05-16T10:35:50Z</time>
      </trkpt>
      <trkpt lat="43.51966" lon="1.41976">
        <ele>150.3</ele>
        <time>2022-05-16T10:35:51Z</time>
      </trkpt>
      <trkpt lat="43.51963" lon="1.41983">
        <ele>150.1</ele>
        <time>2022-05-16T10:35:52Z</time>
      </trkpt>
      <trkpt lat="43.51959" lon="1.41989">
        <ele>149.9</ele>
        <time>2022-05-16T10:35:53Z</time>
      </trkpt>
      <trkpt lat="43.51955" lon="1.41997">
        <ele>149.8</ele>
        <time>2022-05-16T10:35:54Z</time>
      </trkpt>
      <trkpt lat="43.51951" lon="1.42003">
        <ele>149.7</ele>
        <time>2022-05-16T10:35:55Z</time>
      </trkpt>
      <trkpt lat="43.51947" lon="1.42008">
        <ele>149.6</ele>
        <time>2022-05-16T10:35:56Z</time>
      </trkpt>
      <trkpt lat="43.51943" lon="1.42015">
        <ele>149.6</ele>
        <time>2022-05-16T10:35:57Z</time>
      </trkpt>
      <trkpt lat="43.5194" lon="1.42022">
        <ele>149.6</ele>
        <time>2022-05-16T10:35:58Z</time>
      </trkpt>
      <trkpt lat="43.51937" lon="1.42028">
        <ele>149.5</ele>
        <time>2022-05-16T10:35:59Z</time>
      </trkpt>
      <trkpt lat="43.51932" lon="1.42034">
        <ele>149.5</ele>
        <time>2022-05-16T10:36:00Z</time>
      </trkpt>
      <trkpt lat="43.51929" lon="1.42041">
        <ele>149.5</ele>
        <time>2022-05-16T10:36:01Z</time>
      </trkpt>
      <trkpt lat="43.51925" lon="1.42048">
        <ele>149.5</ele>
        <time>2022-05-16T10:36:02Z</time>
      </trkpt>
      <trkpt lat="43.51921" lon="1.42054">
        <ele>149.6</ele>
        <time>2022-05-16T10:36:03Z</time>
      </trkpt>
      <trkpt lat="43.51917" lon="1.4206">
        <ele>149.6</ele>
        <time>2022-05-16T10:36:04Z</time>
      </trkpt>
      <trkpt lat="43.51913" lon="1.42067">
        <ele>149.6</ele>
        <time>2022-05-16T10:36:05Z</time>
      </trkpt>
      <trkpt lat="43.51909" lon="1.42074">
        <ele>149.6</ele>
        <time>2022-05-16T10:36:06Z</time>
      </trkpt>
      <trkpt lat="43.51906" lon="1.42082">
        <ele>149.7</ele>
        <time>2022-05-16T10:36:07Z</time>
      </trkpt>
      <trkpt lat="43.51903" lon="1.42088">
        <ele>149.7</ele>
        <time>2022-05-16T10:36:08Z</time>
      </trkpt>
      <trkpt lat="43.519" lon="1.42094">
        <ele>149.7</ele>
        <time>2022-05-16T10:36:09Z</time>
      </trkpt>
      <trkpt lat="43.51895" lon="1.42102">
        <ele>149.8</ele>
        <time>2022-05-16T10:36:10Z</time>
      </trkpt>
      <trkpt lat="43.51892" lon="1.42109">
        <ele>149.8</ele>
        <time>2022-05-16T10:36:11Z</time>
      </trkpt>
      <trkpt lat="43.51888" lon="1.42116">
        <ele>149.9</ele>
        <time>2022-05-16T10:36:12Z</time>
      </trkpt>
      <trkpt lat="43.51885" lon="1.42123">
        <ele>149.9</ele>
        <time>2022-05-16T10:36:13Z</time>
      </trkpt>
      <trkpt lat="43.51881" lon="1.4213">
        <ele>150</ele>
        <time>2022-05-16T10:36:14Z</time>
      </trkpt>
      <trkpt lat="43.51878" lon="1.42138">
        <ele>150</ele>
        <time>2022-05-16T10:36:15Z</time>
      </trkpt>
      <trkpt lat="43.51874" lon="1.42144">
        <ele>150</ele>
        <time>2022-05-16T10:36:16Z</time>
      </trkpt>
      <trkpt lat="43.51871" lon="1.4215">
        <ele>150</ele>
        <time>2022-05-16T10:36:17Z</time>
      </trkpt>
      <trkpt lat="43.51867" lon="1.42157">
        <ele>150.1</ele>
        <time>2022-05-16T10:36:18Z</time>
      </trkpt>
      <trkpt lat="43.51864" lon="1.42164">
        <ele>150.1</ele>
        <time>2022-05-16T10:36:19Z</time>
      </trkpt>
      <trkpt lat="43.51861" lon="1.42171">
        <ele>150.2</ele>
        <time>2022-05-16T10:36:20Z</time>
      </trkpt>
      <trkpt lat="43.51857" lon="1.42178">
        <ele>150.2</ele>
        <time>2022-05-16T10:36:21Z</time>
      </trkpt>
      <trkpt lat="43.51854" lon="1.42186">
        <ele>150.3</ele>
        <time>2022-05-16T10:36:22Z</time>
      </trkpt>
      <trkpt lat="43.51851" lon="1.42193">
        <ele>150.3</ele>
        <time>2022-05-16T10:36:23Z</time>
      </trkpt>
      <trkpt lat="43.51847" lon="1.422">
        <ele>150.4</ele>
        <time>2022-05-16T10:36:24Z</time>
      </trkpt>
      <trkpt lat="43.51843" lon="1.42206">
        <ele>150.4</ele>
        <time>2022-05-16T10:36:25Z</time>
      </trkpt>
      <trkpt lat="43.51839" lon="1.42213">
        <ele>150.5</ele>
        <time>2022-05-16T10:36:26Z</time>
      </trkpt>
      <trkpt lat="43.51836" lon="1.4222">
        <ele>150.6</ele>
        <time>2022-05-16T10:36:27Z</time>
      </trkpt>
      <trkpt lat="43.51834" lon="1.42227">
        <ele>150.6</ele>
        <time>2022-05-16T10:36:28Z</time>
      </trkpt>
      <trkpt lat="43.5183" lon="1.42233">
        <ele>150.7</ele>
        <time>2022-05-16T10:36:29Z</time>
      </trkpt>
      <trkpt lat="43.51827" lon="1.42239">
        <ele>150.7</ele>
        <time>2022-05-16T10:36:30Z</time>
      </trkpt>
      <trkpt lat="43.51823" lon="1.42245">
        <ele>150.8</ele>
        <time>2022-05-16T10:36:31Z</time>
      </trkpt>
      <trkpt lat="43.51819" lon="1.4225">
        <ele>150.8</ele>
        <time>2022-05-16T10:36:32Z</time>
      </trkpt>
      <trkpt lat="43.51815" lon="1.42255">
        <ele>150.8</ele>
        <time>2022-05-16T10:36:33Z</time>
      </trkpt>
      <trkpt lat="43.51811" lon="1.42261">
        <ele>150.9</ele>
        <time>2022-05-16T10:36:34Z</time>
      </trkpt>
      <trkpt lat="43.51807" lon="1.42267">
        <ele>150.9</ele>
        <time>2022-05-16T10:36:35Z</time>
      </trkpt>
      <trkpt lat="43.51803" lon="1.42272">
        <ele>150.9</ele>
        <time>2022-05-16T10:36:36Z</time>
      </trkpt>
      <trkpt lat="43.51798" lon="1.42278">
        <ele>150.9</ele>
        <time>2022-05-16T10:36:37Z</time>
      </trkpt>
      <trkpt lat="43.51795" lon="1.42285">
        <ele>151</ele>
        <time>2022-05-16T10:36:38Z</time>
      </trkpt>
      <trkpt lat="43.51791" lon="1.42291">
        <ele>151</ele>
        <time>2022-05-16T10:36:39Z</time>
      </trkpt>
      <trkpt lat="43.51788" lon="1.42297">
        <ele>151</ele>
        <time>2022-05-16T10:36:40Z</time>
      </trkpt>
      <trkpt lat="43.51785" lon="1.42304">
        <ele>151</ele>
        <time>2022-05-16T10:36:41Z</time>
      </trkpt>
      <trkpt lat="43.51782" lon="1.42311">
        <ele>151.1</ele>
        <time>2022-05-16T10:36:42Z</time>
      </trkpt>
      <trkpt lat="43.5178" lon="1.42318">
        <ele>151.1</ele>
        <time>2022-05-16T10:36:43Z</time>
      </trkpt>
      <trkpt lat="43.51777" lon="1.42325">
        <ele>151.2</ele>
        <time>2022-05-16T10:36:44Z</time>
      </trkpt>
      <trkpt lat="43.51774" lon="1.42331">
        <ele>151.3</ele>
        <time>2022-05-16T10:36:45Z</time>
      </trkpt>
      <trkpt lat="43.51773" lon="1.42338">
        <ele>151.4</ele>
        <time>2022-05-16T10:36:46Z</time>
      </trkpt>
      <trkpt lat="43.5177" lon="1.42345">
        <ele>151.4</ele>
        <time>2022-05-16T10:36:47Z</time>
      </trkpt>
      <trkpt lat="43.51768" lon="1.42353">
        <ele>151.5</ele>
        <time>2022-05-16T10:36:48Z</time>
      </trkpt>
      <trkpt lat="43.51767" lon="1.4236">
        <ele>151.6</ele>
        <time>2022-05-16T10:36:49Z</time>
      </trkpt>
      <trkpt lat="43.51766" lon="1.42368">
        <ele>151.7</ele>
        <time>2022-05-16T10:36:50Z</time>
      </trkpt>
      <trkpt lat="43.51765" lon="1.42376">
        <ele>151.8</ele>
        <time>2022-05-16T10:36:51Z</time>
      </trkpt>
      <trkpt lat="43.51764" lon="1.42384">
        <ele>151.9</ele>
        <time>2022-05-16T10:36:52Z</time>
      </trkpt>
      <trkpt lat="43.51764" lon="1.42391">
        <ele>152</ele>
        <time>2022-05-16T10:36:53Z</time>
      </trkpt>
      <trkpt lat="43.51763" lon="1.42399">
        <ele>152.1</ele>
        <time>2022-05-16T10:36:54Z</time>
      </trkpt>
      <trkpt lat="43.51763" lon="1.42406">
        <ele>152.2</ele>
        <time>2022-05-16T10:36:55Z</time>
      </trkpt>
      <trkpt lat="43.51763" lon="1.42414">
        <ele>152.4</ele>
        <time>2022-05-16T10:36:56Z</time>
      </trkpt>
      <trkpt lat="43.51764" lon="1.42421">
        <ele>152.5</ele>
        <time>2022-05-16T10:36:57Z</time>
      </trkpt>
      <trkpt lat="43.51764" lon="1.42428">
        <ele>152.6</ele>
        <time>2022-05-16T10:36:58Z</time>
      </trkpt>
      <trkpt lat="43.51765" lon="1.42436">
        <ele>152.7</ele>
        <time>2022-05-16T10:36:59Z</time>
      </trkpt>
      <trkpt lat="43.51766" lon="1.42443">
        <ele>152.9</ele>
        <time>2022-05-16T10:37:00Z</time>
      </trkpt>
      <trkpt lat="43.51767" lon="1.4245">
        <ele>153</ele>
        <time>2022-05-16T10:37:01Z</time>
      </trkpt>
      <trkpt lat="43.51768" lon="1.42457">
        <ele>153.1</ele>
        <time>2022-05-16T10:37:02Z</time>
      </trkpt>
      <trkpt lat="43.51769" lon="1.42464">
        <ele>153.3</ele>
        <time>2022-05-16T10:37:03Z</time>
      </trkpt>
      <trkpt lat="43.5177" lon="1.4247">
        <ele>153.4</ele>
        <time>2022-05-16T10:37:04Z</time>
      </trkpt>
      <trkpt lat="43.51771" lon="1.42476">
        <ele>153.6</ele>
        <time>2022-05-16T10:37:05Z</time>
      </trkpt>
      <trkpt lat="43.51772" lon="1.42482">
        <ele>153.8</ele>
        <time>2022-05-16T10:37:06Z</time>
      </trkpt>
      <trkpt lat="43.51773" lon="1.42488">
        <ele>154</ele>
        <time>2022-05-16T10:37:07Z</time>
      </trkpt>
      <trkpt lat="43.51774" lon="1.42494">
        <ele>154.2</ele>
        <time>2022-05-16T10:37:08Z</time>
      </trkpt>
      <trkpt lat="43.51775" lon="1.425">
        <ele>154.5</ele>
        <time>2022-05-16T10:37:09Z</time>
      </trkpt>
      <trkpt lat="43.51777" lon="1.42505">
        <ele>154.7</ele>
        <time>2022-05-16T10:37:10Z</time>
      </trkpt>
      <trkpt lat="43.51779" lon="1.4251">
        <ele>155</ele>
        <time>2022-05-16T10:37:11Z</time>
      </trkpt>
      <trkpt lat="43.51782" lon="1.42513">
        <ele>155.3</ele>
        <time>2022-05-16T10:37:12Z</time>
      </trkpt>
      <trkpt lat="43.51786" lon="1.42518">
        <ele>155.2</ele>
        <time>2022-05-16T10:37:13Z</time>
      </trkpt>
      <trkpt lat="43.5179" lon="1.42523">
        <ele>155.3</ele>
        <time>2022-05-16T10:37:14Z</time>
      </trkpt>
      <trkpt lat="43.51792" lon="1.42531">
        <ele>155.3</ele>
        <time>2022-05-16T10:37:15Z</time>
      </trkpt>
      <trkpt lat="43.51793" lon="1.42537">
        <ele>155.5</ele>
        <time>2022-05-16T10:37:16Z</time>
      </trkpt>
      <trkpt lat="43.51796" lon="1.42543">
        <ele>155.8</ele>
        <time>2022-05-16T10:37:17Z</time>
      </trkpt>
      <trkpt lat="43.51798" lon="1.4255">
        <ele>156.1</ele>
        <time>2022-05-16T10:37:18Z</time>
      </trkpt>
      <trkpt lat="43.518" lon="1.42555">
        <ele>156.5</ele>
        <time>2022-05-16T10:37:19Z</time>
      </trkpt>
      <trkpt lat="43.51802" lon="1.42561">
        <ele>156.9</ele>
        <time>2022-05-16T10:37:20Z</time>
      </trkpt>
      <trkpt lat="43.51803" lon="1.42566">
        <ele>157.3</ele>
        <time>2022-05-16T10:37:21Z</time>
      </trkpt>
      <trkpt lat="43.51805" lon="1.42572">
        <ele>157.8</ele>
        <time>2022-05-16T10:37:22Z</time>
      </trkpt>
      <trkpt lat="43.51807" lon="1.42577">
        <ele>158.3</ele>
        <time>2022-05-16T10:37:23Z</time>
      </trkpt>
      <trkpt lat="43.51809" lon="1.42582">
        <ele>158.9</ele>
        <time>2022-05-16T10:37:24Z</time>
      </trkpt>
      <trkpt lat="43.51812" lon="1.42588">
        <ele>159.6</ele>
        <time>2022-05-16T10:37:25Z</time>
      </trkpt>
      <trkpt lat="43.51814" lon="1.42592">
        <ele>160.2</ele>
        <time>2022-05-16T10:37:26Z</time>
      </trkpt>
      <trkpt lat="43.51816" lon="1.42597">
        <ele>160.8</ele>
        <time>2022-05-16T10:37:27Z</time>
      </trkpt>
      <trkpt lat="43.51817" lon="1.42602">
        <ele>161.4</ele>
        <time>2022-05-16T10:37:28Z</time>
      </trkpt>
      <trkpt lat="43.51817" lon="1.42606">
        <ele>161.9</ele>
        <time>2022-05-16T10:37:29Z</time>
      </trkpt>
      <trkpt lat="43.51817" lon="1.42612">
        <ele>162.4</ele>
        <time>2022-05-16T10:37:30Z</time>
      </trkpt>
      <trkpt lat="43.51818" lon="1.42617">
        <ele>163</ele>
        <time>2022-05-16T10:37:31Z</time>
      </trkpt>
      <trkpt lat="43.51818" lon="1.42622">
        <ele>163.5</ele>
        <time>2022-05-16T10:37:32Z</time>
      </trkpt>
      <trkpt lat="43.51819" lon="1.42626">
        <ele>164</ele>
        <time>2022-05-16T10:37:33Z</time>
      </trkpt>
      <trkpt lat="43.51819" lon="1.42631">
        <ele>164.4</ele>
        <time>2022-05-16T10:37:34Z</time>
      </trkpt>
      <trkpt lat="43.51819" lon="1.42635">
        <ele>164.9</ele>
        <time>2022-05-16T10:37:35Z</time>
      </trkpt>
      <trkpt lat="43.51819" lon="1.4264">
        <ele>165.3</ele>
        <time>2022-05-16T10:37:36Z</time>
      </trkpt>
      <trkpt lat="43.5182" lon="1.42645">
        <ele>165.8</ele>
        <time>2022-05-16T10:37:37Z</time>
      </trkpt>
      <trkpt lat="43.51821" lon="1.42649">
        <ele>166.2</ele>
        <time>2022-05-16T10:37:38Z</time>
      </trkpt>
      <trkpt lat="43.51822" lon="1.42654">
        <ele>166.6</ele>
        <time>2022-05-16T10:37:39Z</time>
      </trkpt>
      <trkpt lat="43.51823" lon="1.42658">
        <ele>167.1</ele>
        <time>2022-05-16T10:37:40Z</time>
      </trkpt>
      <trkpt lat="43.51824" lon="1.42663">
        <ele>167.5</ele>
        <time>2022-05-16T10:37:41Z</time>
      </trkpt>
      <trkpt lat="43.51825" lon="1.42666">
        <ele>167.9</ele>
        <time>2022-05-16T10:37:42Z</time>
      </trkpt>
      <trkpt lat="43.51826" lon="1.4267">
        <ele>168.2</ele>
        <time>2022-05-16T10:37:43Z</time>
      </trkpt>
      <trkpt lat="43.51828" lon="1.42673">
        <ele>168.7</ele>
        <time>2022-05-16T10:37:44Z</time>
      </trkpt>
      <trkpt lat="43.5183" lon="1.42677">
        <ele>169.1</ele>
        <time>2022-05-16T10:37:45Z</time>
      </trkpt>
      <trkpt lat="43.51831" lon="1.42682">
        <ele>169.6</ele>
        <time>2022-05-16T10:37:46Z</time>
      </trkpt>
      <trkpt lat="43.51833" lon="1.42687">
        <ele>170.1</ele>
        <time>2022-05-16T10:37:47Z</time>
      </trkpt>
      <trkpt lat="43.51834" lon="1.42691">
        <ele>170.6</ele>
        <time>2022-05-16T10:37:48Z</time>
      </trkpt>
      <trkpt lat="43.51836" lon="1.42695">
        <ele>171</ele>
        <time>2022-05-16T10:37:49Z</time>
      </trkpt>
      <trkpt lat="43.51837" lon="1.427">
        <ele>171.4</ele>
        <time>2022-05-16T10:37:50Z</time>
      </trkpt>
      <trkpt lat="43.51838" lon="1.42704">
        <ele>171.8</ele>
        <time>2022-05-16T10:37:51Z</time>
      </trkpt>
      <trkpt lat="43.51839" lon="1.42709">
        <ele>172.3</ele>
        <time>2022-05-16T10:37:52Z</time>
      </trkpt>
      <trkpt lat="43.5184" lon="1.42715">
        <ele>172.8</ele>
        <time>2022-05-16T10:37:53Z</time>
      </trkpt>
      <trkpt lat="43.5184" lon="1.42718">
        <ele>173</ele>
        <time>2022-05-16T10:37:54Z</time>
      </trkpt>
      <trkpt lat="43.51842" lon="1.42722">
        <ele>173.4</ele>
        <time>2022-05-16T10:37:55Z</time>
      </trkpt>
      <trkpt lat="43.51843" lon="1.42726">
        <ele>173.8</ele>
        <time>2022-05-16T10:37:56Z</time>
      </trkpt>
      <trkpt lat="43.51844" lon="1.42732">
        <ele>174.2</ele>
        <time>2022-05-16T10:37:57Z</time>
      </trkpt>
      <trkpt lat="43.51846" lon="1.42737">
        <ele>174.6</ele>
        <time>2022-05-16T10:37:58Z</time>
      </trkpt>
      <trkpt lat="43.51847" lon="1.42741">
        <ele>175</ele>
        <time>2022-05-16T10:37:59Z</time>
      </trkpt>
      <trkpt lat="43.51849" lon="1.42745">
        <ele>175.4</ele>
        <time>2022-05-16T10:38:00Z</time>
      </trkpt>
      <trkpt lat="43.5185" lon="1.42749">
        <ele>175.8</ele>
        <time>2022-05-16T10:38:01Z</time>
      </trkpt>
      <trkpt lat="43.51852" lon="1.42754">
        <ele>176.2</ele>
        <time>2022-05-16T10:38:02Z</time>
      </trkpt>
      <trkpt lat="43.51854" lon="1.42759">
        <ele>176.8</ele>
        <time>2022-05-16T10:38:03Z</time>
      </trkpt>
      <trkpt lat="43.51855" lon="1.42764">
        <ele>177.3</ele>
        <time>2022-05-16T10:38:04Z</time>
      </trkpt>
      <trkpt lat="43.51856" lon="1.4277">
        <ele>177.8</ele>
        <time>2022-05-16T10:38:05Z</time>
      </trkpt>
      <trkpt lat="43.51859" lon="1.42775">
        <ele>178.4</ele>
        <time>2022-05-16T10:38:06Z</time>
      </trkpt>
      <trkpt lat="43.51861" lon="1.42779">
        <ele>178.9</ele>
        <time>2022-05-16T10:38:07Z</time>
      </trkpt>
      <trkpt lat="43.51863" lon="1.42784">
        <ele>179.4</ele>
        <time>2022-05-16T10:38:08Z</time>
      </trkpt>
      <trkpt lat="43.51866" lon="1.42789">
        <ele>179.9</ele>
        <time>2022-05-16T10:38:09Z</time>
      </trkpt>
      <trkpt lat="43.51867" lon="1.42793">
        <ele>180.2</ele>
        <time>2022-05-16T10:38:10Z</time>
      </trkpt>
      <trkpt lat="43.51868" lon="1.42798">
        <ele>180.6</ele>
        <time>2022-05-16T10:38:11Z</time>
      </trkpt>
      <trkpt lat="43.5187" lon="1.42803">
        <ele>181</ele>
        <time>2022-05-16T10:38:12Z</time>
      </trkpt>
      <trkpt lat="43.51872" lon="1.42808">
        <ele>181.3</ele>
        <time>2022-05-16T10:38:13Z</time>
      </trkpt>
      <trkpt lat="43.51874" lon="1.42814">
        <ele>181.6</ele>
        <time>2022-05-16T10:38:14Z</time>
      </trkpt>
      <trkpt lat="43.51875" lon="1.42819">
        <ele>181.8</ele>
        <time>2022-05-16T10:38:15Z</time>
      </trkpt>
      <trkpt lat="43.51875" lon="1.42824">
        <ele>182.1</ele>
        <time>2022-05-16T10:38:16Z</time>
      </trkpt>
      <trkpt lat="43.51874" lon="1.42831">
        <ele>182.4</ele>
        <time>2022-05-16T10:38:17Z</time>
      </trkpt>
      <trkpt lat="43.51874" lon="1.42838">
        <ele>182.8</ele>
        <time>2022-05-16T10:38:18Z</time>
      </trkpt>
      <trkpt lat="43.51874" lon="1.42846">
        <ele>183.3</ele>
        <time>2022-05-16T10:38:19Z</time>
      </trkpt>
      <trkpt lat="43.51875" lon="1.42853">
        <ele>183.9</ele>
        <time>2022-05-16T10:38:20Z</time>
      </trkpt>
      <trkpt lat="43.51876" lon="1.42859">
        <ele>184.6</ele>
        <time>2022-05-16T10:38:21Z</time>
      </trkpt>
      <trkpt lat="43.51876" lon="1.42865">
        <ele>185.2</ele>
        <time>2022-05-16T10:38:22Z</time>
      </trkpt>
      <trkpt lat="43.51876" lon="1.4287">
        <ele>185.8</ele>
        <time>2022-05-16T10:38:23Z</time>
      </trkpt>
      <trkpt lat="43.51875" lon="1.42874">
        <ele>186.3</ele>
        <time>2022-05-16T10:38:24Z</time>
      </trkpt>
      <trkpt lat="43.51876" lon="1.42879">
        <ele>187</ele>
        <time>2022-05-16T10:38:25Z</time>
      </trkpt>
      <trkpt lat="43.51876" lon="1.42881">
        <ele>187.3</ele>
        <time>2022-05-16T10:38:26Z</time>
      </trkpt>
      <trkpt lat="43.51876" lon="1.42886">
        <ele>187.9</ele>
        <time>2022-05-16T10:38:27Z</time>
      </trkpt>
      <trkpt lat="43.51877" lon="1.4289">
        <ele>188.4</ele>
        <time>2022-05-16T10:38:28Z</time>
      </trkpt>
      <trkpt lat="43.51879" lon="1.42893">
        <ele>189</ele>
        <time>2022-05-16T10:38:29Z</time>
      </trkpt>
      <trkpt lat="43.51882" lon="1.42893">
        <ele>189.5</ele>
        <time>2022-05-16T10:38:30Z</time>
      </trkpt>
      <trkpt lat="43.51886" lon="1.42893">
        <ele>190</ele>
        <time>2022-05-16T10:38:31Z</time>
      </trkpt>
      <trkpt lat="43.51888" lon="1.42892">
        <ele>190.5</ele>
        <time>2022-05-16T10:38:32Z</time>
      </trkpt>
      <trkpt lat="43.51891" lon="1.42891">
        <ele>190.9</ele>
        <time>2022-05-16T10:38:33Z</time>
      </trkpt>
      <trkpt lat="43.51894" lon="1.42891">
        <ele>191.4</ele>
        <time>2022-05-16T10:38:34Z</time>
      </trkpt>
      <trkpt lat="43.51898" lon="1.42889">
        <ele>192</ele>
        <time>2022-05-16T10:38:35Z</time>
      </trkpt>
      <trkpt lat="43.51901" lon="1.42887">
        <ele>192.5</ele>
        <time>2022-05-16T10:38:36Z</time>
      </trkpt>
      <trkpt lat="43.51904" lon="1.42885">
        <ele>193</ele>
        <time>2022-05-16T10:38:37Z</time>
      </trkpt>
      <trkpt lat="43.51908" lon="1.42885">
        <ele>193.6</ele>
        <time>2022-05-16T10:38:38Z</time>
      </trkpt>
      <trkpt lat="43.51911" lon="1.42886">
        <ele>194.1</ele>
        <time>2022-05-16T10:38:39Z</time>
      </trkpt>
      <trkpt lat="43.51913" lon="1.42889">
        <ele>194.7</ele>
        <time>2022-05-16T10:38:40Z</time>
      </trkpt>
      <trkpt lat="43.51916" lon="1.42891">
        <ele>195.4</ele>
        <time>2022-05-16T10:38:41Z</time>
      </trkpt>
      <trkpt lat="43.51919" lon="1.42895">
        <ele>196.1</ele>
        <time>2022-05-16T10:38:42Z</time>
      </trkpt>
      <trkpt lat="43.5192" lon="1.42896">
        <ele>196.3</ele>
        <time>2022-05-16T10:38:43Z</time>
      </trkpt>
      <trkpt lat="43.51922" lon="1.42899">
        <ele>196.9</ele>
        <time>2022-05-16T10:38:44Z</time>
      </trkpt>
      <trkpt lat="43.51925" lon="1.42902">
        <ele>197.6</ele>
        <time>2022-05-16T10:38:45Z</time>
      </trkpt>
      <trkpt lat="43.51926" lon="1.42903">
        <ele>197.9</ele>
        <time>2022-05-16T10:38:46Z</time>
      </trkpt>
      <trkpt lat="43.51927" lon="1.42907">
        <ele>198.5</ele>
        <time>2022-05-16T10:38:47Z</time>
      </trkpt>
      <trkpt lat="43.51929" lon="1.4291">
        <ele>199.2</ele>
        <time>2022-05-16T10:38:48Z</time>
      </trkpt>
      <trkpt lat="43.5193" lon="1.42912">
        <ele>199.5</ele>
        <time>2022-05-16T10:38:49Z</time>
      </trkpt>
      <trkpt lat="43.51932" lon="1.42914">
        <ele>200.1</ele>
        <time>2022-05-16T10:38:50Z</time>
      </trkpt>
      <trkpt lat="43.51934" lon="1.42918">
        <ele>200.7</ele>
        <time>2022-05-16T10:38:51Z</time>
      </trkpt>
      <trkpt lat="43.51935" lon="1.42921">
        <ele>201.2</ele>
        <time>2022-05-16T10:38:52Z</time>
      </trkpt>
      <trkpt lat="43.51937" lon="1.42924">
        <ele>201.8</ele>
        <time>2022-05-16T10:38:53Z</time>
      </trkpt>
      <trkpt lat="43.51938" lon="1.42927">
        <ele>202.4</ele>
        <time>2022-05-16T10:38:54Z</time>
      </trkpt>
      <trkpt lat="43.5194" lon="1.42932">
        <ele>203.2</ele>
        <time>2022-05-16T10:38:55Z</time>
      </trkpt>
      <trkpt lat="43.5194" lon="1.42934">
        <ele>203.5</ele>
        <time>2022-05-16T10:38:56Z</time>
      </trkpt>
      <trkpt lat="43.51941" lon="1.42937">
        <ele>204</ele>
        <time>2022-05-16T10:38:57Z</time>
      </trkpt>
      <trkpt lat="43.51944" lon="1.42942">
        <ele>204.7</ele>
        <time>2022-05-16T10:38:58Z</time>
      </trkpt>
      <trkpt lat="43.51944" lon="1.42943">
        <ele>204.9</ele>
        <time>2022-05-16T10:38:59Z</time>
      </trkpt>
      <trkpt lat="43.51946" lon="1.42948">
        <ele>205.6</ele>
        <time>2022-05-16T10:39:00Z</time>
      </trkpt>
      <trkpt lat="43.51947" lon="1.4295">
        <ele>205.8</ele>
        <time>2022-05-16T10:39:01Z</time>
      </trkpt>
      <trkpt lat="43.5195" lon="1.42952">
        <ele>206.5</ele>
        <time>2022-05-16T10:39:02Z</time>
      </trkpt>
      <trkpt lat="43.51952" lon="1.42955">
        <ele>207</ele>
        <time>2022-05-16T10:39:03Z</time>
      </trkpt>
      <trkpt lat="43.51954" lon="1.42959">
        <ele>207.7</ele>
        <time>2022-05-16T10:39:04Z</time>
      </trkpt>
      <trkpt lat="43.51956" lon="1.42962">
        <ele>208.2</ele>
        <time>2022-05-16T10:39:05Z</time>
      </trkpt>
      <trkpt lat="43.51957" lon="1.42966">
        <ele>208.8</ele>
        <time>2022-05-16T10:39:06Z</time>
      </trkpt>
      <trkpt lat="43.51957" lon="1.42967">
        <ele>209</ele>
        <time>2022-05-16T10:39:07Z</time>
      </trkpt>
      <trkpt lat="43.51959" lon="1.4297">
        <ele>209.5</ele>
        <time>2022-05-16T10:39:08Z</time>
      </trkpt>
      <trkpt lat="43.51962" lon="1.42974">
        <ele>210.2</ele>
        <time>2022-05-16T10:39:09Z</time>
      </trkpt>
      <trkpt lat="43.51962" lon="1.42975">
        <ele>210.4</ele>
        <time>2022-05-16T10:39:10Z</time>
      </trkpt>
      <trkpt lat="43.51964" lon="1.42979">
        <ele>211.1</ele>
        <time>2022-05-16T10:39:11Z</time>
      </trkpt>
      <trkpt lat="43.51964" lon="1.42981">
        <ele>211.3</ele>
        <time>2022-05-16T10:39:12Z</time>
      </trkpt>
      <trkpt lat="43.51965" lon="1.42985">
        <ele>211.9</ele>
        <time>2022-05-16T10:39:13Z</time>
      </trkpt>
      <trkpt lat="43.51965" lon="1.42986">
        <ele>212.1</ele>
        <time>2022-05-16T10:39:14Z</time>
      </trkpt>
      <trkpt lat="43.51967" lon="1.4299">
        <ele>212.9</ele>
        <time>2022-05-16T10:39:15Z</time>
      </trkpt>
      <trkpt lat="43.51967" lon="1.42991">
        <ele>213.2</ele>
        <time>2022-05-16T10:39:16Z</time>
      </trkpt>
      <trkpt lat="43.51968" lon="1.42995">
        <ele>213.8</ele>
        <time>2022-05-16T10:39:17Z</time>
      </trkpt>
      <trkpt lat="43.51969" lon="1.42997">
        <ele>214</ele>
        <time>2022-05-16T10:39:18Z</time>
      </trkpt>
      <trkpt lat="43.5197" lon="1.43001">
        <ele>214.7</ele>
        <time>2022-05-16T10:39:19Z</time>
      </trkpt>
      <trkpt lat="43.51971" lon="1.43002">
        <ele>215</ele>
        <time>2022-05-16T10:39:20Z</time>
      </trkpt>
      <trkpt lat="43.51973" lon="1.43006">
        <ele>215.6</ele>
        <time>2022-05-16T10:39:21Z</time>
      </trkpt>
      <trkpt lat="43.51974" lon="1.43008">
        <ele>215.8</ele>
        <time>2022-05-16T10:39:22Z</time>
      </trkpt>
      <trkpt lat="43.51976" lon="1.4301">
        <ele>216.3</ele>
        <time>2022-05-16T10:39:23Z</time>
      </trkpt>
      <trkpt lat="43.51978" lon="1.43013">
        <ele>216.8</ele>
        <time>2022-05-16T10:39:24Z</time>
      </trkpt>
      <trkpt lat="43.51981" lon="1.43017">
        <ele>217.4</ele>
        <time>2022-05-16T10:39:25Z</time>
      </trkpt>
      <trkpt lat="43.51982" lon="1.43018">
        <ele>217.6</ele>
        <time>2022-05-16T10:39:26Z</time>
      </trkpt>
      <trkpt lat="43.51984" lon="1.43022">
        <ele>218.2</ele>
        <time>2022-05-16T10:39:27Z</time>
      </trkpt>
      <trkpt lat="43.51985" lon="1.43024">
        <ele>218.4</ele>
        <time>2022-05-16T10:39:28Z</time>
      </trkpt>
      <trkpt lat="43.51986" lon="1.43029">
        <ele>219</ele>
        <time>2022-05-16T10:39:29Z</time>
      </trkpt>
      <trkpt lat="43.51987" lon="1.4303">
        <ele>219.2</ele>
        <time>2022-05-16T10:39:30Z</time>
      </trkpt>
      <trkpt lat="43.51987" lon="1.43036">
        <ele>219.7</ele>
        <time>2022-05-16T10:39:31Z</time>
      </trkpt>
      <trkpt lat="43.51987" lon="1.43038">
        <ele>220</ele>
        <time>2022-05-16T10:39:32Z</time>
      </trkpt>
      <trkpt lat="43.51987" lon="1.43041">
        <ele>220.3</ele>
        <time>2022-05-16T10:39:33Z</time>
      </trkpt>
      <trkpt lat="43.51987" lon="1.43047">
        <ele>221</ele>
        <time>2022-05-16T10:39:34Z</time>
      </trkpt>
      <trkpt lat="43.51987" lon="1.4305">
        <ele>221.2</ele>
        <time>2022-05-16T10:39:35Z</time>
      </trkpt>
      <trkpt lat="43.51986" lon="1.43053">
        <ele>221.6</ele>
        <time>2022-05-16T10:39:36Z</time>
      </trkpt>
      <trkpt lat="43.51987" lon="1.43057">
        <ele>222</ele>
        <time>2022-05-16T10:39:37Z</time>
      </trkpt>
      <trkpt lat="43.51987" lon="1.43061">
        <ele>222.5</ele>
        <time>2022-05-16T10:39:38Z</time>
      </trkpt>
      <trkpt lat="43.51988" lon="1.43066">
        <ele>223.1</ele>
        <time>2022-05-16T10:39:39Z</time>
      </trkpt>
      <trkpt lat="43.51988" lon="1.43068">
        <ele>223.3</ele>
        <time>2022-05-16T10:39:40Z</time>
      </trkpt>
      <trkpt lat="43.51987" lon="1.43072">
        <ele>223.8</ele>
        <time>2022-05-16T10:39:41Z</time>
      </trkpt>
      <trkpt lat="43.51988" lon="1.43076">
        <ele>224.2</ele>
        <time>2022-05-16T10:39:42Z</time>
      </trkpt>
      <trkpt lat="43.51987" lon="1.43081">
        <ele>224.7</ele>
        <time>2022-05-16T10:39:43Z</time>
      </trkpt>
      <trkpt lat="43.51986" lon="1.43085">
        <ele>225.3</ele>
        <time>2022-05-16T10:39:44Z</time>
      </trkpt>
      <trkpt lat="43.51985" lon="1.43089">
        <ele>225.7</ele>
        <time>2022-05-16T10:39:45Z</time>
      </trkpt>
      <trkpt lat="43.51984" lon="1.43093">
        <ele>226.2</ele>
        <time>2022-05-16T10:39:46Z</time>
      </trkpt>
      <trkpt lat="43.51983" lon="1.43097">
        <ele>226.8</ele>
        <time>2022-05-16T10:39:47Z</time>
      </trkpt>
      <trkpt lat="43.51982" lon="1.43102">
        <ele>227.5</ele>
        <time>2022-05-16T10:39:48Z</time>
      </trkpt>
      <trkpt lat="43.51981" lon="1.43104">
        <ele>227.7</ele>
        <time>2022-05-16T10:39:49Z</time>
      </trkpt>
      <trkpt lat="43.5198" lon="1.43108">
        <ele>228.3</ele>
        <time>2022-05-16T10:39:50Z</time>
      </trkpt>
      <trkpt lat="43.51978" lon="1.43111">
        <ele>228.7</ele>
        <time>2022-05-16T10:39:51Z</time>
      </trkpt>
      <trkpt lat="43.51977" lon="1.43115">
        <ele>229.2</ele>
        <time>2022-05-16T10:39:52Z</time>
      </trkpt>
      <trkpt lat="43.51975" lon="1.43119">
        <ele>229.7</ele>
        <time>2022-05-16T10:39:53Z</time>
      </trkpt>
      <trkpt lat="43.51974" lon="1.43122">
        <ele>230.1</ele>
        <time>2022-05-16T10:39:54Z</time>
      </trkpt>
      <trkpt lat="43.51972" lon="1.43126">
        <ele>230.6</ele>
        <time>2022-05-16T10:39:55Z</time>
      </trkpt>
      <trkpt lat="43.5197" lon="1.4313">
        <ele>231</ele>
        <time>2022-05-16T10:39:56Z</time>
      </trkpt>
      <trkpt lat="43.51969" lon="1.43135">
        <ele>231.5</ele>
        <time>2022-05-16T10:39:57Z</time>
      </trkpt>
      <trkpt lat="43.51968" lon="1.4314">
        <ele>231.9</ele>
        <time>2022-05-16T10:39:58Z</time>
      </trkpt>
      <trkpt lat="43.51968" lon="1.43145">
        <ele>232.3</ele>
        <time>2022-05-16T10:39:59Z</time>
      </trkpt>
      <trkpt lat="43.51967" lon="1.4315">
        <ele>232.7</ele>
        <time>2022-05-16T10:40:00Z</time>
      </trkpt>
      <trkpt lat="43.51966" lon="1.43154">
        <ele>233.1</ele>
        <time>2022-05-16T10:40:01Z</time>
      </trkpt>
      <trkpt lat="43.51966" lon="1.43159">
        <ele>233.4</ele>
        <time>2022-05-16T10:40:02Z</time>
      </trkpt>
      <trkpt lat="43.51967" lon="1.43164">
        <ele>233.7</ele>
        <time>2022-05-16T10:40:03Z</time>
      </trkpt>
      <trkpt lat="43.51968" lon="1.43169">
        <ele>234.1</ele>
        <time>2022-05-16T10:40:04Z</time>
      </trkpt>
      <trkpt lat="43.51968" lon="1.43174">
        <ele>234.4</ele>
        <time>2022-05-16T10:40:05Z</time>
      </trkpt>
      <trkpt lat="43.51969" lon="1.4318">
        <ele>234.6</ele>
        <time>2022-05-16T10:40:06Z</time>
      </trkpt>
      <trkpt lat="43.51969" lon="1.43185">
        <ele>234.9</ele>
        <time>2022-05-16T10:40:07Z</time>
      </trkpt>
      <trkpt lat="43.5197" lon="1.4319">
        <ele>235.1</ele>
        <time>2022-05-16T10:40:08Z</time>
      </trkpt>
      <trkpt lat="43.5197" lon="1.43196">
        <ele>235.4</ele>
        <time>2022-05-16T10:40:09Z</time>
      </trkpt>
      <trkpt lat="43.51971" lon="1.43202">
        <ele>235.7</ele>
        <time>2022-05-16T10:40:10Z</time>
      </trkpt>
      <trkpt lat="43.51972" lon="1.43208">
        <ele>236</ele>
        <time>2022-05-16T10:40:11Z</time>
      </trkpt>
      <trkpt lat="43.51973" lon="1.43213">
        <ele>236.3</ele>
        <time>2022-05-16T10:40:12Z</time>
      </trkpt>
      <trkpt lat="43.51975" lon="1.43219">
        <ele>236.7</ele>
        <time>2022-05-16T10:40:13Z</time>
      </trkpt>
      <trkpt lat="43.51976" lon="1.43225">
        <ele>237.2</ele>
        <time>2022-05-16T10:40:14Z</time>
      </trkpt>
      <trkpt lat="43.51978" lon="1.4323">
        <ele>237.7</ele>
        <time>2022-05-16T10:40:15Z</time>
      </trkpt>
      <trkpt lat="43.51979" lon="1.43235">
        <ele>238.1</ele>
        <time>2022-05-16T10:40:16Z</time>
      </trkpt>
      <trkpt lat="43.51981" lon="1.4324">
        <ele>238.6</ele>
        <time>2022-05-16T10:40:17Z</time>
      </trkpt>
      <trkpt lat="43.51982" lon="1.43246">
        <ele>239.1</ele>
        <time>2022-05-16T10:40:18Z</time>
      </trkpt>
      <trkpt lat="43.51983" lon="1.43251">
        <ele>239.4</ele>
        <time>2022-05-16T10:40:19Z</time>
      </trkpt>
      <trkpt lat="43.51983" lon="1.43258">
        <ele>239.5</ele>
        <time>2022-05-16T10:40:20Z</time>
      </trkpt>
      <trkpt lat="43.51983" lon="1.43264">
        <ele>239.6</ele>
        <time>2022-05-16T10:40:21Z</time>
      </trkpt>
      <trkpt lat="43.51983" lon="1.43272">
        <ele>239.7</ele>
        <time>2022-05-16T10:40:22Z</time>
      </trkpt>
      <trkpt lat="43.51983" lon="1.43279">
        <ele>239.8</ele>
        <time>2022-05-16T10:40:23Z</time>
      </trkpt>
      <trkpt lat="43.51982" lon="1.43286">
        <ele>239.9</ele>
        <time>2022-05-16T10:40:24Z</time>
      </trkpt>
      <trkpt lat="43.51981" lon="1.43294">
        <ele>240</ele>
        <time>2022-05-16T10:40:25Z</time>
      </trkpt>
      <trkpt lat="43.51981" lon="1.433">
        <ele>240.1</ele>
        <time>2022-05-16T10:40:26Z</time>
      </trkpt>
      <trkpt lat="43.5198" lon="1.43307">
        <ele>240.2</ele>
        <time>2022-05-16T10:40:27Z</time>
      </trkpt>
      <trkpt lat="43.5198" lon="1.43314">
        <ele>240.2</ele>
        <time>2022-05-16T10:40:28Z</time>
      </trkpt>
      <trkpt lat="43.51979" lon="1.43322">
        <ele>240.2</ele>
        <time>2022-05-16T10:40:29Z</time>
      </trkpt>
      <trkpt lat="43.51979" lon="1.43329">
        <ele>240.2</ele>
        <time>2022-05-16T10:40:30Z</time>
      </trkpt>
      <trkpt lat="43.51978" lon="1.43336">
        <ele>240.3</ele>
        <time>2022-05-16T10:40:31Z</time>
      </trkpt>
      <trkpt lat="43.51979" lon="1.43344">
        <ele>240.3</ele>
        <time>2022-05-16T10:40:32Z</time>
      </trkpt>
      <trkpt lat="43.5198" lon="1.43351">
        <ele>240.4</ele>
        <time>2022-05-16T10:40:33Z</time>
      </trkpt>
      <trkpt lat="43.5198" lon="1.43358">
        <ele>240.4</ele>
        <time>2022-05-16T10:40:34Z</time>
      </trkpt>
      <trkpt lat="43.51982" lon="1.43365">
        <ele>240.5</ele>
        <time>2022-05-16T10:40:35Z</time>
      </trkpt>
      <trkpt lat="43.51983" lon="1.43372">
        <ele>240.6</ele>
        <time>2022-05-16T10:40:36Z</time>
      </trkpt>
      <trkpt lat="43.51984" lon="1.4338">
        <ele>240.6</ele>
        <time>2022-05-16T10:40:37Z</time>
      </trkpt>
      <trkpt lat="43.51986" lon="1.43387">
        <ele>240.7</ele>
        <time>2022-05-16T10:40:38Z</time>
      </trkpt>
      <trkpt lat="43.51988" lon="1.43394">
        <ele>240.8</ele>
        <time>2022-05-16T10:40:39Z</time>
      </trkpt>
      <trkpt lat="43.51989" lon="1.43401">
        <ele>240.8</ele>
        <time>2022-05-16T10:40:40Z</time>
      </trkpt>
      <trkpt lat="43.5199" lon="1.43409">
        <ele>240.8</ele>
        <time>2022-05-16T10:40:41Z</time>
      </trkpt>
      <trkpt lat="43.51992" lon="1.43417">
        <ele>240.8</ele>
        <time>2022-05-16T10:40:42Z</time>
      </trkpt>
      <trkpt lat="43.51993" lon="1.43424">
        <ele>240.8</ele>
        <time>2022-05-16T10:40:43Z</time>
      </trkpt>
      <trkpt lat="43.51995" lon="1.43432">
        <ele>240.8</ele>
        <time>2022-05-16T10:40:44Z</time>
      </trkpt>
      <trkpt lat="43.51996" lon="1.4344">
        <ele>240.8</ele>
        <time>2022-05-16T10:40:45Z</time>
      </trkpt>
      <trkpt lat="43.51998" lon="1.43448">
        <ele>240.9</ele>
        <time>2022-05-16T10:40:46Z</time>
      </trkpt>
      <trkpt lat="43.51999" lon="1.43455">
        <ele>240.9</ele>
        <time>2022-05-16T10:40:47Z</time>
      </trkpt>
      <trkpt lat="43.52002" lon="1.43463">
        <ele>241</ele>
        <time>2022-05-16T10:40:48Z</time>
      </trkpt>
      <trkpt lat="43.52003" lon="1.4347">
        <ele>241.1</ele>
        <time>2022-05-16T10:40:49Z</time>
      </trkpt>
      <trkpt lat="43.52005" lon="1.43477">
        <ele>241.2</ele>
        <time>2022-05-16T10:40:50Z</time>
      </trkpt>
      <trkpt lat="43.52007" lon="1.43484">
        <ele>241.4</ele>
        <time>2022-05-16T10:40:51Z</time>
      </trkpt>
      <trkpt lat="43.52009" lon="1.43492">
        <ele>241.5</ele>
        <time>2022-05-16T10:40:52Z</time>
      </trkpt>
      <trkpt lat="43.5201" lon="1.43499">
        <ele>241.6</ele>
        <time>2022-05-16T10:40:53Z</time>
      </trkpt>
      <trkpt lat="43.52012" lon="1.43505">
        <ele>241.8</ele>
        <time>2022-05-16T10:40:54Z</time>
      </trkpt>
      <trkpt lat="43.52015" lon="1.43512">
        <ele>241.9</ele>
        <time>2022-05-16T10:40:55Z</time>
      </trkpt>
      <trkpt lat="43.52018" lon="1.43518">
        <ele>242.1</ele>
        <time>2022-05-16T10:40:56Z</time>
      </trkpt>
      <trkpt lat="43.5202" lon="1.43524">
        <ele>242.2</ele>
        <time>2022-05-16T10:40:57Z</time>
      </trkpt>
      <trkpt lat="43.52023" lon="1.43532">
        <ele>242.4</ele>
        <time>2022-05-16T10:40:58Z</time>
      </trkpt>
      <trkpt lat="43.52026" lon="1.43539">
        <ele>242.6</ele>
        <time>2022-05-16T10:40:59Z</time>
      </trkpt>
      <trkpt lat="43.52028" lon="1.43546">
        <ele>242.8</ele>
        <time>2022-05-16T10:41:00Z</time>
      </trkpt>
      <trkpt lat="43.5203" lon="1.43553">
        <ele>243.1</ele>
        <time>2022-05-16T10:41:01Z</time>
      </trkpt>
      <trkpt lat="43.52032" lon="1.4356">
        <ele>243.3</ele>
        <time>2022-05-16T10:41:02Z</time>
      </trkpt>
      <trkpt lat="43.52034" lon="1.43567">
        <ele>243.6</ele>
        <time>2022-05-16T10:41:03Z</time>
      </trkpt>
      <trkpt lat="43.52036" lon="1.43574">
        <ele>243.8</ele>
        <time>2022-05-16T10:41:04Z</time>
      </trkpt>
      <trkpt lat="43.52038" lon="1.43581">
        <ele>244.1</ele>
        <time>2022-05-16T10:41:05Z</time>
      </trkpt>
      <trkpt lat="43.5204" lon="1.43587">
        <ele>244.4</ele>
        <time>2022-05-16T10:41:06Z</time>
      </trkpt>
      <trkpt lat="43.52042" lon="1.43593">
        <ele>244.6</ele>
        <time>2022-05-16T10:41:07Z</time>
      </trkpt>
      <trkpt lat="43.52044" lon="1.436">
        <ele>244.8</ele>
        <time>2022-05-16T10:41:08Z</time>
      </trkpt>
      <trkpt lat="43.52044" lon="1.43607">
        <ele>245</ele>
        <time>2022-05-16T10:41:09Z</time>
      </trkpt>
      <trkpt lat="43.52046" lon="1.43614">
        <ele>245.2</ele>
        <time>2022-05-16T10:41:10Z</time>
      </trkpt>
      <trkpt lat="43.52047" lon="1.4362">
        <ele>245.2</ele>
        <time>2022-05-16T10:41:11Z</time>
      </trkpt>
      <trkpt lat="43.52049" lon="1.43628">
        <ele>245.2</ele>
        <time>2022-05-16T10:41:12Z</time>
      </trkpt>
      <trkpt lat="43.5205" lon="1.43635">
        <ele>245.2</ele>
        <time>2022-05-16T10:41:13Z</time>
      </trkpt>
      <trkpt lat="43.5205" lon="1.43643">
        <ele>245.1</ele>
        <time>2022-05-16T10:41:14Z</time>
      </trkpt>
      <trkpt lat="43.52048" lon="1.43651">
        <ele>244.9</ele>
        <time>2022-05-16T10:41:15Z</time>
      </trkpt>
      <trkpt lat="43.52048" lon="1.4366">
        <ele>244.7</ele>
        <time>2022-05-16T10:41:16Z</time>
      </trkpt>
      <trkpt lat="43.52047" lon="1.43669">
        <ele>244.4</ele>
        <time>2022-05-16T10:41:17Z</time>
      </trkpt>
      <trkpt lat="43.52045" lon="1.43679">
        <ele>244.2</ele>
        <time>2022-05-16T10:41:18Z</time>
      </trkpt>
      <trkpt lat="43.52043" lon="1.43688">
        <ele>243.9</ele>
        <time>2022-05-16T10:41:19Z</time>
      </trkpt>
      <trkpt lat="43.52041" lon="1.43697">
        <ele>243.6</ele>
        <time>2022-05-16T10:41:20Z</time>
      </trkpt>
      <trkpt lat="43.52038" lon="1.43706">
        <ele>243.4</ele>
        <time>2022-05-16T10:41:21Z</time>
      </trkpt>
      <trkpt lat="43.52036" lon="1.43715">
        <ele>243.2</ele>
        <time>2022-05-16T10:41:22Z</time>
      </trkpt>
      <trkpt lat="43.52034" lon="1.43725">
        <ele>243</ele>
        <time>2022-05-16T10:41:23Z</time>
      </trkpt>
      <trkpt lat="43.52031" lon="1.43733">
        <ele>242.7</ele>
        <time>2022-05-16T10:41:24Z</time>
      </trkpt>
      <trkpt lat="43.52028" lon="1.43742">
        <ele>242.5</ele>
        <time>2022-05-16T10:41:25Z</time>
      </trkpt>
      <trkpt lat="43.52026" lon="1.4375">
        <ele>242.2</ele>
        <time>2022-05-16T10:41:26Z</time>
      </trkpt>
      <trkpt lat="43.52025" lon="1.43758">
        <ele>242</ele>
        <time>2022-05-16T10:41:27Z</time>
      </trkpt>
      <trkpt lat="43.52023" lon="1.43768">
        <ele>241.6</ele>
        <time>2022-05-16T10:41:28Z</time>
      </trkpt>
      <trkpt lat="43.52024" lon="1.43777">
        <ele>241.2</ele>
        <time>2022-05-16T10:41:29Z</time>
      </trkpt>
      <trkpt lat="43.52028" lon="1.43787">
        <ele>240.5</ele>
        <time>2022-05-16T10:41:30Z</time>
      </trkpt>
      <trkpt lat="43.52034" lon="1.43796">
        <ele>239.6</ele>
        <time>2022-05-16T10:41:31Z</time>
      </trkpt>
      <trkpt lat="43.52041" lon="1.43805">
        <ele>238.6</ele>
        <time>2022-05-16T10:41:32Z</time>
      </trkpt>
      <trkpt lat="43.52047" lon="1.43814">
        <ele>237.6</ele>
        <time>2022-05-16T10:41:33Z</time>
      </trkpt>
      <trkpt lat="43.52053" lon="1.43826">
        <ele>236.6</ele>
        <time>2022-05-16T10:41:34Z</time>
      </trkpt>
      <trkpt lat="43.52057" lon="1.4384">
        <ele>235.7</ele>
        <time>2022-05-16T10:41:35Z</time>
      </trkpt>
      <trkpt lat="43.5206" lon="1.43854">
        <ele>235</ele>
        <time>2022-05-16T10:41:36Z</time>
      </trkpt>
      <trkpt lat="43.52062" lon="1.43869">
        <ele>234.5</ele>
        <time>2022-05-16T10:41:37Z</time>
      </trkpt>
      <trkpt lat="43.52063" lon="1.43883">
        <ele>234.1</ele>
        <time>2022-05-16T10:41:38Z</time>
      </trkpt>
      <trkpt lat="43.52064" lon="1.43897">
        <ele>233.9</ele>
        <time>2022-05-16T10:41:39Z</time>
      </trkpt>
      <trkpt lat="43.52067" lon="1.4391">
        <ele>233.8</ele>
        <time>2022-05-16T10:41:40Z</time>
      </trkpt>
      <trkpt lat="43.52069" lon="1.43922">
        <ele>233.7</ele>
        <time>2022-05-16T10:41:41Z</time>
      </trkpt>
      <trkpt lat="43.52072" lon="1.43934">
        <ele>233.8</ele>
        <time>2022-05-16T10:41:42Z</time>
      </trkpt>
      <trkpt lat="43.52076" lon="1.43945">
        <ele>233.9</ele>
        <time>2022-05-16T10:41:43Z</time>
      </trkpt>
      <trkpt lat="43.52081" lon="1.43955">
        <ele>234</ele>
        <time>2022-05-16T10:41:44Z</time>
      </trkpt>
      <trkpt lat="43.52086" lon="1.43963">
        <ele>234.2</ele>
        <time>2022-05-16T10:41:45Z</time>
      </trkpt>
      <trkpt lat="43.52092" lon="1.43969">
        <ele>234.4</ele>
        <time>2022-05-16T10:41:46Z</time>
      </trkpt>
      <trkpt lat="43.52098" lon="1.43975">
        <ele>234.6</ele>
        <time>2022-05-16T10:41:47Z</time>
      </trkpt>
      <trkpt lat="43.52104" lon="1.4398">
        <ele>234.9</ele>
        <time>2022-05-16T10:41:48Z</time>
      </trkpt>
      <trkpt lat="43.52109" lon="1.43985">
        <ele>235.2</ele>
        <time>2022-05-16T10:41:49Z</time>
      </trkpt>
      <trkpt lat="43.52114" lon="1.43989">
        <ele>235.5</ele>
        <time>2022-05-16T10:41:50Z</time>
      </trkpt>
      <trkpt lat="43.52119" lon="1.43994">
        <ele>235.9</ele>
        <time>2022-05-16T10:41:51Z</time>
      </trkpt>
      <trkpt lat="43.52124" lon="1.43997">
        <ele>236.3</ele>
        <time>2022-05-16T10:41:52Z</time>
      </trkpt>
      <trkpt lat="43.52128" lon="1.44001">
        <ele>236.7</ele>
        <time>2022-05-16T10:41:53Z</time>
      </trkpt>
      <trkpt lat="43.52133" lon="1.44005">
        <ele>237.1</ele>
        <time>2022-05-16T10:41:54Z</time>
      </trkpt>
      <trkpt lat="43.52138" lon="1.44008">
        <ele>237.5</ele>
        <time>2022-05-16T10:41:55Z</time>
      </trkpt>
      <trkpt lat="43.52141" lon="1.44013">
        <ele>238</ele>
        <time>2022-05-16T10:41:56Z</time>
      </trkpt>
      <trkpt lat="43.52145" lon="1.44017">
        <ele>238.5</ele>
        <time>2022-05-16T10:41:57Z</time>
      </trkpt>
      <trkpt lat="43.52149" lon="1.4402">
        <ele>238.9</ele>
        <time>2022-05-16T10:41:58Z</time>
      </trkpt>
      <trkpt lat="43.52152" lon="1.44024">
        <ele>239.3</ele>
        <time>2022-05-16T10:41:59Z</time>
      </trkpt>
      <trkpt lat="43.52154" lon="1.44028">
        <ele>239.7</ele>
        <time>2022-05-16T10:42:00Z</time>
      </trkpt>
      <trkpt lat="43.52157" lon="1.4403">
        <ele>240.1</ele>
        <time>2022-05-16T10:42:01Z</time>
      </trkpt>
      <trkpt lat="43.5216" lon="1.44034">
        <ele>240.5</ele>
        <time>2022-05-16T10:42:02Z</time>
      </trkpt>
      <trkpt lat="43.52161" lon="1.44035">
        <ele>240.6</ele>
        <time>2022-05-16T10:42:03Z</time>
      </trkpt>
      <trkpt lat="43.52164" lon="1.44037">
        <ele>240.6</ele>
        <time>2022-05-16T10:42:04Z</time>
      </trkpt>
      <trkpt lat="43.52167" lon="1.44037">
        <ele>240.5</ele>
        <time>2022-05-16T10:42:05Z</time>
      </trkpt>
      <trkpt lat="43.52172" lon="1.44035">
        <ele>240.5</ele>
        <time>2022-05-16T10:42:06Z</time>
      </trkpt>
      <trkpt lat="43.52176" lon="1.44036">
        <ele>240.3</ele>
        <time>2022-05-16T10:42:07Z</time>
      </trkpt>
      <trkpt lat="43.5218" lon="1.44038">
        <ele>240.1</ele>
        <time>2022-05-16T10:42:08Z</time>
      </trkpt>
      <trkpt lat="43.52185" lon="1.44039">
        <ele>239.8</ele>
        <time>2022-05-16T10:42:09Z</time>
      </trkpt>
      <trkpt lat="43.5219" lon="1.44039">
        <ele>239.5</ele>
        <time>2022-05-16T10:42:10Z</time>
      </trkpt>
      <trkpt lat="43.52195" lon="1.44039">
        <ele>239.1</ele>
        <time>2022-05-16T10:42:11Z</time>
      </trkpt>
      <trkpt lat="43.52201" lon="1.44039">
        <ele>238.6</ele>
        <time>2022-05-16T10:42:12Z</time>
      </trkpt>
      <trkpt lat="43.52208" lon="1.44042">
        <ele>238</ele>
        <time>2022-05-16T10:42:13Z</time>
      </trkpt>
      <trkpt lat="43.52214" lon="1.44045">
        <ele>237.4</ele>
        <time>2022-05-16T10:42:14Z</time>
      </trkpt>
      <trkpt lat="43.52221" lon="1.44052">
        <ele>236.7</ele>
        <time>2022-05-16T10:42:15Z</time>
      </trkpt>
      <trkpt lat="43.52226" lon="1.44058">
        <ele>236.1</ele>
        <time>2022-05-16T10:42:16Z</time>
      </trkpt>
      <trkpt lat="43.52233" lon="1.44058">
        <ele>235.4</ele>
        <time>2022-05-16T10:42:17Z</time>
      </trkpt>
      <trkpt lat="43.5224" lon="1.44054">
        <ele>234.9</ele>
        <time>2022-05-16T10:42:18Z</time>
      </trkpt>
      <trkpt lat="43.52246" lon="1.44048">
        <ele>234.3</ele>
        <time>2022-05-16T10:42:19Z</time>
      </trkpt>
      <trkpt lat="43.52253" lon="1.44044">
        <ele>233.8</ele>
        <time>2022-05-16T10:42:20Z</time>
      </trkpt>
      <trkpt lat="43.52262" lon="1.44042">
        <ele>232.3</ele>
        <time>2022-05-16T10:42:21Z</time>
      </trkpt>
      <trkpt lat="43.52271" lon="1.44041">
        <ele>230.8</ele>
        <time>2022-05-16T10:42:22Z</time>
      </trkpt>
      <trkpt lat="43.5228" lon="1.44046">
        <ele>229.3</ele>
        <time>2022-05-16T10:42:23Z</time>
      </trkpt>
      <trkpt lat="43.52288" lon="1.44053">
        <ele>228.1</ele>
        <time>2022-05-16T10:42:24Z</time>
      </trkpt>
      <trkpt lat="43.52293" lon="1.4406">
        <ele>227.6</ele>
        <time>2022-05-16T10:42:25Z</time>
      </trkpt>
      <trkpt lat="43.52297" lon="1.44065">
        <ele>227.1</ele>
        <time>2022-05-16T10:42:26Z</time>
      </trkpt>
      <trkpt lat="43.52303" lon="1.44067">
        <ele>226.5</ele>
        <time>2022-05-16T10:42:27Z</time>
      </trkpt>
      <trkpt lat="43.5231" lon="1.44062">
        <ele>225.8</ele>
        <time>2022-05-16T10:42:28Z</time>
      </trkpt>
      <trkpt lat="43.52315" lon="1.44056">
        <ele>225.1</ele>
        <time>2022-05-16T10:42:29Z</time>
      </trkpt>
      <trkpt lat="43.5232" lon="1.44047">
        <ele>224.5</ele>
        <time>2022-05-16T10:42:30Z</time>
      </trkpt>
      <trkpt lat="43.52325" lon="1.44041">
        <ele>223.9</ele>
        <time>2022-05-16T10:42:31Z</time>
      </trkpt>
      <trkpt lat="43.52332" lon="1.44039">
        <ele>223</ele>
        <time>2022-05-16T10:42:32Z</time>
      </trkpt>
      <trkpt lat="43.52336" lon="1.44038">
        <ele>222.3</ele>
        <time>2022-05-16T10:42:33Z</time>
      </trkpt>
      <trkpt lat="43.52343" lon="1.44038">
        <ele>221.2</ele>
        <time>2022-05-16T10:42:34Z</time>
      </trkpt>
      <trkpt lat="43.52351" lon="1.44039">
        <ele>219.8</ele>
        <time>2022-05-16T10:42:35Z</time>
      </trkpt>
      <trkpt lat="43.52354" lon="1.44044">
        <ele>219</ele>
        <time>2022-05-16T10:42:36Z</time>
      </trkpt>
      <trkpt lat="43.52359" lon="1.44047">
        <ele>217.9</ele>
        <time>2022-05-16T10:42:37Z</time>
      </trkpt>
      <trkpt lat="43.52365" lon="1.4405">
        <ele>216.7</ele>
        <time>2022-05-16T10:42:38Z</time>
      </trkpt>
      <trkpt lat="43.5237" lon="1.44054">
        <ele>215.4</ele>
        <time>2022-05-16T10:42:39Z</time>
      </trkpt>
      <trkpt lat="43.52374" lon="1.44055">
        <ele>214.5</ele>
        <time>2022-05-16T10:42:40Z</time>
      </trkpt>
      <trkpt lat="43.52378" lon="1.44055">
        <ele>213.3</ele>
        <time>2022-05-16T10:42:41Z</time>
      </trkpt>
      <trkpt lat="43.52382" lon="1.44059">
        <ele>211.9</ele>
        <time>2022-05-16T10:42:42Z</time>
      </trkpt>
      <trkpt lat="43.52384" lon="1.4406">
        <ele>211.2</ele>
        <time>2022-05-16T10:42:43Z</time>
      </trkpt>
      <trkpt lat="43.52389" lon="1.44062">
        <ele>209.6</ele>
        <time>2022-05-16T10:42:44Z</time>
      </trkpt>
      <trkpt lat="43.52394" lon="1.44062">
        <ele>208.1</ele>
        <time>2022-05-16T10:42:45Z</time>
      </trkpt>
      <trkpt lat="43.52399" lon="1.44064">
        <ele>206.7</ele>
        <time>2022-05-16T10:42:46Z</time>
      </trkpt>
      <trkpt lat="43.52403" lon="1.44066">
        <ele>205.5</ele>
        <time>2022-05-16T10:42:47Z</time>
      </trkpt>
      <trkpt lat="43.52407" lon="1.44066">
        <ele>204.8</ele>
        <time>2022-05-16T10:42:48Z</time>
      </trkpt>
      <trkpt lat="43.5241" lon="1.4407">
        <ele>204.1</ele>
        <time>2022-05-16T10:42:49Z</time>
      </trkpt>
      <trkpt lat="43.52412" lon="1.44074">
        <ele>203.7</ele>
        <time>2022-05-16T10:42:50Z</time>
      </trkpt>
      <trkpt lat="43.52412" lon="1.44076">
        <ele>203.6</ele>
        <time>2022-05-16T10:42:51Z</time>
      </trkpt>
      <trkpt lat="43.52411" lon="1.4408">
        <ele>203.4</ele>
        <time>2022-05-16T10:42:52Z</time>
      </trkpt>
      <trkpt lat="43.52408" lon="1.44084">
        <ele>203.3</ele>
        <time>2022-05-16T10:42:53Z</time>
      </trkpt>
      <trkpt lat="43.52406" lon="1.4409">
        <ele>203.3</ele>
        <time>2022-05-16T10:42:54Z</time>
      </trkpt>
      <trkpt lat="43.52405" lon="1.44096">
        <ele>203.5</ele>
        <time>2022-05-16T10:42:55Z</time>
      </trkpt>
      <trkpt lat="43.52403" lon="1.441">
        <ele>203.7</ele>
        <time>2022-05-16T10:42:56Z</time>
      </trkpt>
      <trkpt lat="43.52401" lon="1.44104">
        <ele>203.9</ele>
        <time>2022-05-16T10:42:57Z</time>
      </trkpt>
      <trkpt lat="43.52399" lon="1.44109">
        <ele>204.2</ele>
        <time>2022-05-16T10:42:58Z</time>
      </trkpt>
      <trkpt lat="43.52397" lon="1.44112">
        <ele>204.4</ele>
        <time>2022-05-16T10:42:59Z</time>
      </trkpt>
      <trkpt lat="43.52395" lon="1.44116">
        <ele>204.6</ele>
        <time>2022-05-16T10:43:00Z</time>
      </trkpt>
      <trkpt lat="43.52394" lon="1.44119">
        <ele>204.8</ele>
        <time>2022-05-16T10:43:01Z</time>
      </trkpt>
      <trkpt lat="43.52393" lon="1.44124">
        <ele>205</ele>
        <time>2022-05-16T10:43:02Z</time>
      </trkpt>
      <trkpt lat="43.52394" lon="1.44126">
        <ele>205</ele>
        <time>2022-05-16T10:43:03Z</time>
      </trkpt>
      <trkpt lat="43.52397" lon="1.44127">
        <ele>205</ele>
        <time>2022-05-16T10:43:04Z</time>
      </trkpt>
      <trkpt lat="43.52399" lon="1.4413">
        <ele>205.1</ele>
        <time>2022-05-16T10:43:05Z</time>
      </trkpt>
      <trkpt lat="43.52403" lon="1.44133">
        <ele>205.2</ele>
        <time>2022-05-16T10:43:06Z</time>
      </trkpt>
      <trkpt lat="43.52405" lon="1.44137">
        <ele>205.3</ele>
        <time>2022-05-16T10:43:07Z</time>
      </trkpt>
      <trkpt lat="43.52407" lon="1.44139">
        <ele>205.4</ele>
        <time>2022-05-16T10:43:08Z</time>
      </trkpt>
      <trkpt lat="43.5241" lon="1.44142">
        <ele>205.6</ele>
        <time>2022-05-16T10:43:09Z</time>
      </trkpt>
      <trkpt lat="43.52412" lon="1.44144">
        <ele>205.7</ele>
        <time>2022-05-16T10:43:10Z</time>
      </trkpt>
      <trkpt lat="43.52415" lon="1.44145">
        <ele>205.9</ele>
        <time>2022-05-16T10:43:11Z</time>
      </trkpt>
      <trkpt lat="43.52419" lon="1.44146">
        <ele>206.1</ele>
        <time>2022-05-16T10:43:12Z</time>
      </trkpt>
      <trkpt lat="43.52422" lon="1.44148">
        <ele>206.4</ele>
        <time>2022-05-16T10:43:13Z</time>
      </trkpt>
      <trkpt lat="43.52425" lon="1.44152">
        <ele>206.7</ele>
        <time>2022-05-16T10:43:14Z</time>
      </trkpt>
      <trkpt lat="43.52426" lon="1.44156">
        <ele>207.3</ele>
        <time>2022-05-16T10:43:15Z</time>
      </trkpt>
      <trkpt lat="43.52427" lon="1.44157">
        <ele>207.5</ele>
        <time>2022-05-16T10:43:16Z</time>
      </trkpt>
      <trkpt lat="43.52425" lon="1.4416">
        <ele>207.8</ele>
        <time>2022-05-16T10:43:17Z</time>
      </trkpt>
      <trkpt lat="43.52424" lon="1.44164">
        <ele>208.2</ele>
        <time>2022-05-16T10:43:18Z</time>
      </trkpt>
      <trkpt lat="43.52423" lon="1.44168">
        <ele>208.5</ele>
        <time>2022-05-16T10:43:19Z</time>
      </trkpt>
      <trkpt lat="43.52422" lon="1.44173">
        <ele>209</ele>
        <time>2022-05-16T10:43:20Z</time>
      </trkpt>
      <trkpt lat="43.52421" lon="1.44175">
        <ele>209.1</ele>
        <time>2022-05-16T10:43:21Z</time>
      </trkpt>
      <trkpt lat="43.5242" lon="1.44178">
        <ele>209.4</ele>
        <time>2022-05-16T10:43:22Z</time>
      </trkpt>
      <trkpt lat="43.52419" lon="1.44182">
        <ele>209.7</ele>
        <time>2022-05-16T10:43:23Z</time>
      </trkpt>
      <trkpt lat="43.52418" lon="1.44187">
        <ele>210.1</ele>
        <time>2022-05-16T10:43:24Z</time>
      </trkpt>
      <trkpt lat="43.52417" lon="1.44188">
        <ele>210.2</ele>
        <time>2022-05-16T10:43:25Z</time>
      </trkpt>
      <trkpt lat="43.52416" lon="1.44193">
        <ele>210.6</ele>
        <time>2022-05-16T10:43:26Z</time>
      </trkpt>
      <trkpt lat="43.52415" lon="1.44195">
        <ele>210.7</ele>
        <time>2022-05-16T10:43:27Z</time>
      </trkpt>
      <trkpt lat="43.52414" lon="1.44199">
        <ele>211.1</ele>
        <time>2022-05-16T10:43:28Z</time>
      </trkpt>
      <trkpt lat="43.52414" lon="1.442">
        <ele>211.2</ele>
        <time>2022-05-16T10:43:29Z</time>
      </trkpt>
      <trkpt lat="43.52414" lon="1.44204">
        <ele>211.5</ele>
        <time>2022-05-16T10:43:30Z</time>
      </trkpt>
      <trkpt lat="43.52414" lon="1.44206">
        <ele>211.6</ele>
        <time>2022-05-16T10:43:31Z</time>
      </trkpt>
      <trkpt lat="43.52414" lon="1.44208">
        <ele>211.7</ele>
        <time>2022-05-16T10:43:32Z</time>
      </trkpt>
      <trkpt lat="43.52414" lon="1.4421">
        <ele>211.8</ele>
        <time>2022-05-16T10:43:33Z</time>
      </trkpt>
      <trkpt lat="43.52415" lon="1.4421">
        <ele>211.9</ele>
        <time>2022-05-16T10:43:34Z</time>
      </trkpt>
      <trkpt lat="43.52416" lon="1.44209">
        <ele>212</ele>
        <time>2022-05-16T10:43:35Z</time>
      </trkpt>
      <trkpt lat="43.52418" lon="1.44208">
        <ele>212.1</ele>
        <time>2022-05-16T10:43:36Z</time>
      </trkpt>
      <trkpt lat="43.52419" lon="1.44207">
        <ele>212.2</ele>
        <time>2022-05-16T10:43:37Z</time>
      </trkpt>
      <trkpt lat="43.52421" lon="1.44204">
        <ele>212.4</ele>
        <time>2022-05-16T10:43:38Z</time>
      </trkpt>
      <trkpt lat="43.52422" lon="1.442">
        <ele>212.6</ele>
        <time>2022-05-16T10:43:39Z</time>
      </trkpt>
      <trkpt lat="43.52422" lon="1.44199">
        <ele>212.7</ele>
        <time>2022-05-16T10:43:40Z</time>
      </trkpt>
      <trkpt lat="43.52425" lon="1.44196">
        <ele>213</ele>
        <time>2022-05-16T10:43:41Z</time>
      </trkpt>
      <trkpt lat="43.52426" lon="1.44196">
        <ele>213.1</ele>
        <time>2022-05-16T10:43:42Z</time>
      </trkpt>
      <trkpt lat="43.52429" lon="1.44195">
        <ele>213.3</ele>
        <time>2022-05-16T10:43:43Z</time>
      </trkpt>
      <trkpt lat="43.5243" lon="1.44195">
        <ele>213.4</ele>
        <time>2022-05-16T10:43:44Z</time>
      </trkpt>
      <trkpt lat="43.52432" lon="1.44199">
        <ele>213.7</ele>
        <time>2022-05-16T10:43:45Z</time>
      </trkpt>
      <trkpt lat="43.52433" lon="1.44201">
        <ele>214.3</ele>
        <time>2022-05-16T10:43:46Z</time>
      </trkpt>
      <trkpt lat="43.52432" lon="1.44205">
        <ele>214.5</ele>
        <time>2022-05-16T10:43:47Z</time>
      </trkpt>
      <trkpt lat="43.5243" lon="1.44208">
        <ele>214.8</ele>
        <time>2022-05-16T10:43:48Z</time>
      </trkpt>
      <trkpt lat="43.52428" lon="1.44212">
        <ele>215</ele>
        <time>2022-05-16T10:43:49Z</time>
      </trkpt>
      <trkpt lat="43.52428" lon="1.44216">
        <ele>215.2</ele>
        <time>2022-05-16T10:43:50Z</time>
      </trkpt>
      <trkpt lat="43.52427" lon="1.4422">
        <ele>215.4</ele>
        <time>2022-05-16T10:43:51Z</time>
      </trkpt>
      <trkpt lat="43.52425" lon="1.44224">
        <ele>215.5</ele>
        <time>2022-05-16T10:43:52Z</time>
      </trkpt>
      <trkpt lat="43.52423" lon="1.44227">
        <ele>215.7</ele>
        <time>2022-05-16T10:43:53Z</time>
      </trkpt>
      <trkpt lat="43.52421" lon="1.44232">
        <ele>215.9</ele>
        <time>2022-05-16T10:43:54Z</time>
      </trkpt>
      <trkpt lat="43.5242" lon="1.44236">
        <ele>216</ele>
        <time>2022-05-16T10:43:55Z</time>
      </trkpt>
      <trkpt lat="43.52419" lon="1.44241">
        <ele>216.2</ele>
        <time>2022-05-16T10:43:56Z</time>
      </trkpt>
      <trkpt lat="43.52418" lon="1.44246">
        <ele>216.4</ele>
        <time>2022-05-16T10:43:57Z</time>
      </trkpt>
      <trkpt lat="43.52416" lon="1.4425">
        <ele>216.6</ele>
        <time>2022-05-16T10:43:58Z</time>
      </trkpt>
      <trkpt lat="43.52414" lon="1.44255">
        <ele>216.8</ele>
        <time>2022-05-16T10:43:59Z</time>
      </trkpt>
      <trkpt lat="43.52413" lon="1.4426">
        <ele>217</ele>
        <time>2022-05-16T10:44:00Z</time>
      </trkpt>
      <trkpt lat="43.52411" lon="1.44264">
        <ele>217.2</ele>
        <time>2022-05-16T10:44:01Z</time>
      </trkpt>
      <trkpt lat="43.52409" lon="1.44268">
        <ele>217.5</ele>
        <time>2022-05-16T10:44:02Z</time>
      </trkpt>
      <trkpt lat="43.52407" lon="1.44273">
        <ele>217.7</ele>
        <time>2022-05-16T10:44:03Z</time>
      </trkpt>
      <trkpt lat="43.52406" lon="1.44278">
        <ele>218</ele>
        <time>2022-05-16T10:44:04Z</time>
      </trkpt>
      <trkpt lat="43.52404" lon="1.44283">
        <ele>218.2</ele>
        <time>2022-05-16T10:44:05Z</time>
      </trkpt>
      <trkpt lat="43.52402" lon="1.44287">
        <ele>218.4</ele>
        <time>2022-05-16T10:44:06Z</time>
      </trkpt>
      <trkpt lat="43.524" lon="1.44292">
        <ele>218.7</ele>
        <time>2022-05-16T10:44:07Z</time>
      </trkpt>
      <trkpt lat="43.52399" lon="1.44296">
        <ele>219</ele>
        <time>2022-05-16T10:44:08Z</time>
      </trkpt>
      <trkpt lat="43.52397" lon="1.443">
        <ele>219.2</ele>
        <time>2022-05-16T10:44:09Z</time>
      </trkpt>
      <trkpt lat="43.52396" lon="1.44305">
        <ele>219.5</ele>
        <time>2022-05-16T10:44:10Z</time>
      </trkpt>
      <trkpt lat="43.52394" lon="1.4431">
        <ele>219.8</ele>
        <time>2022-05-16T10:44:11Z</time>
      </trkpt>
      <trkpt lat="43.52392" lon="1.44314">
        <ele>220</ele>
        <time>2022-05-16T10:44:12Z</time>
      </trkpt>
      <trkpt lat="43.5239" lon="1.44318">
        <ele>220.3</ele>
        <time>2022-05-16T10:44:13Z</time>
      </trkpt>
      <trkpt lat="43.52389" lon="1.44323">
        <ele>220.5</ele>
        <time>2022-05-16T10:44:14Z</time>
      </trkpt>
      <trkpt lat="43.52387" lon="1.44328">
        <ele>220.8</ele>
        <time>2022-05-16T10:44:15Z</time>
      </trkpt>
      <trkpt lat="43.52386" lon="1.44332">
        <ele>221</ele>
        <time>2022-05-16T10:44:16Z</time>
      </trkpt>
      <trkpt lat="43.52384" lon="1.44337">
        <ele>221.2</ele>
        <time>2022-05-16T10:44:17Z</time>
      </trkpt>
      <trkpt lat="43.52382" lon="1.44341">
        <ele>221.4</ele>
        <time>2022-05-16T10:44:18Z</time>
      </trkpt>
      <trkpt lat="43.52381" lon="1.44346">
        <ele>221.7</ele>
        <time>2022-05-16T10:44:19Z</time>
      </trkpt>
      <trkpt lat="43.52379" lon="1.44351">
        <ele>221.9</ele>
        <time>2022-05-16T10:44:20Z</time>
      </trkpt>
      <trkpt lat="43.52378" lon="1.44356">
        <ele>222.1</ele>
        <time>2022-05-16T10:44:21Z</time>
      </trkpt>
      <trkpt lat="43.52376" lon="1.44361">
        <ele>222.3</ele>
        <time>2022-05-16T10:44:22Z</time>
      </trkpt>
      <trkpt lat="43.52374" lon="1.44366">
        <ele>222.5</ele>
        <time>2022-05-16T10:44:23Z</time>
      </trkpt>
      <trkpt lat="43.52372" lon="1.44371">
        <ele>222.7</ele>
        <time>2022-05-16T10:44:24Z</time>
      </trkpt>
      <trkpt lat="43.52371" lon="1.44376">
        <ele>222.9</ele>
        <time>2022-05-16T10:44:25Z</time>
      </trkpt>
      <trkpt lat="43.52369" lon="1.4438">
        <ele>223.1</ele>
        <time>2022-05-16T10:44:26Z</time>
      </trkpt>
      <trkpt lat="43.52367" lon="1.44385">
        <ele>223.3</ele>
        <time>2022-05-16T10:44:27Z</time>
      </trkpt>
      <trkpt lat="43.52366" lon="1.4439">
        <ele>223.4</ele>
        <time>2022-05-16T10:44:28Z</time>
      </trkpt>
      <trkpt lat="43.52364" lon="1.44395">
        <ele>223.6</ele>
        <time>2022-05-16T10:44:29Z</time>
      </trkpt>
      <trkpt lat="43.52362" lon="1.444">
        <ele>223.8</ele>
        <time>2022-05-16T10:44:30Z</time>
      </trkpt>
      <trkpt lat="43.5236" lon="1.44404">
        <ele>224</ele>
        <time>2022-05-16T10:44:31Z</time>
      </trkpt>
      <trkpt lat="43.52358" lon="1.44409">
        <ele>224.2</ele>
        <time>2022-05-16T10:44:32Z</time>
      </trkpt>
      <trkpt lat="43.52357" lon="1.44414">
        <ele>224.5</ele>
        <time>2022-05-16T10:44:33Z</time>
      </trkpt>
      <trkpt lat="43.52355" lon="1.44419">
        <ele>224.7</ele>
        <time>2022-05-16T10:44:34Z</time>
      </trkpt>
      <trkpt lat="43.52353" lon="1.44424">
        <ele>224.9</ele>
        <time>2022-05-16T10:44:35Z</time>
      </trkpt>
      <trkpt lat="43.52351" lon="1.44428">
        <ele>225.1</ele>
        <time>2022-05-16T10:44:36Z</time>
      </trkpt>
      <trkpt lat="43.5235" lon="1.44434">
        <ele>225.4</ele>
        <time>2022-05-16T10:44:37Z</time>
      </trkpt>
      <trkpt lat="43.52348" lon="1.44438">
        <ele>225.7</ele>
        <time>2022-05-16T10:44:38Z</time>
      </trkpt>
      <trkpt lat="43.52346" lon="1.44443">
        <ele>225.9</ele>
        <time>2022-05-16T10:44:39Z</time>
      </trkpt>
      <trkpt lat="43.52344" lon="1.44448">
        <ele>226.2</ele>
        <time>2022-05-16T10:44:40Z</time>
      </trkpt>
      <trkpt lat="43.52342" lon="1.44453">
        <ele>226.4</ele>
        <time>2022-05-16T10:44:41Z</time>
      </trkpt>
      <trkpt lat="43.52341" lon="1.44458">
        <ele>226.7</ele>
        <time>2022-05-16T10:44:42Z</time>
      </trkpt>
      <trkpt lat="43.52339" lon="1.44463">
        <ele>227</ele>
        <time>2022-05-16T10:44:43Z</time>
      </trkpt>
      <trkpt lat="43.52337" lon="1.44468">
        <ele>227.3</ele>
        <time>2022-05-16T10:44:44Z</time>
      </trkpt>
      <trkpt lat="43.52336" lon="1.44473">
        <ele>227.6</ele>
        <time>2022-05-16T10:44:45Z</time>
      </trkpt>
      <trkpt lat="43.52334" lon="1.44477">
        <ele>227.9</ele>
        <time>2022-05-16T10:44:46Z</time>
      </trkpt>
      <trkpt lat="43.52332" lon="1.44482">
        <ele>228.2</ele>
        <time>2022-05-16T10:44:47Z</time>
      </trkpt>
      <trkpt lat="43.52331" lon="1.44487">
        <ele>228.5</ele>
        <time>2022-05-16T10:44:48Z</time>
      </trkpt>
      <trkpt lat="43.52329" lon="1.44491">
        <ele>228.8</ele>
        <time>2022-05-16T10:44:49Z</time>
      </trkpt>
      <trkpt lat="43.52327" lon="1.44496">
        <ele>229.1</ele>
        <time>2022-05-16T10:44:50Z</time>
      </trkpt>
      <trkpt lat="43.52326" lon="1.445">
        <ele>229.5</ele>
        <time>2022-05-16T10:44:51Z</time>
      </trkpt>
      <trkpt lat="43.52324" lon="1.44505">
        <ele>229.8</ele>
        <time>2022-05-16T10:44:52Z</time>
      </trkpt>
      <trkpt lat="43.52322" lon="1.4451">
        <ele>230.2</ele>
        <time>2022-05-16T10:44:53Z</time>
      </trkpt>
      <trkpt lat="43.52321" lon="1.44514">
        <ele>230.5</ele>
        <time>2022-05-16T10:44:54Z</time>
      </trkpt>
      <trkpt lat="43.52319" lon="1.44519">
        <ele>230.9</ele>
        <time>2022-05-16T10:44:55Z</time>
      </trkpt>
      <trkpt lat="43.52317" lon="1.44523">
        <ele>231.3</ele>
        <time>2022-05-16T10:44:56Z</time>
      </trkpt>
      <trkpt lat="43.52316" lon="1.44527">
        <ele>231.7</ele>
        <time>2022-05-16T10:44:57Z</time>
      </trkpt>
      <trkpt lat="43.52314" lon="1.44531">
        <ele>232.1</ele>
        <time>2022-05-16T10:44:58Z</time>
      </trkpt>
      <trkpt lat="43.52312" lon="1.44535">
        <ele>232.4</ele>
        <time>2022-05-16T10:44:59Z</time>
      </trkpt>
      <trkpt lat="43.52311" lon="1.44539">
        <ele>232.8</ele>
        <time>2022-05-16T10:45:00Z</time>
      </trkpt>
      <trkpt lat="43.52309" lon="1.44543">
        <ele>233.2</ele>
        <time>2022-05-16T10:45:01Z</time>
      </trkpt>
      <trkpt lat="43.52308" lon="1.44547">
        <ele>233.6</ele>
        <time>2022-05-16T10:45:02Z</time>
      </trkpt>
      <trkpt lat="43.52307" lon="1.44551">
        <ele>234</ele>
        <time>2022-05-16T10:45:03Z</time>
      </trkpt>
      <trkpt lat="43.52305" lon="1.44555">
        <ele>234.4</ele>
        <time>2022-05-16T10:45:04Z</time>
      </trkpt>
      <trkpt lat="43.52304" lon="1.4456">
        <ele>234.9</ele>
        <time>2022-05-16T10:45:05Z</time>
      </trkpt>
      <trkpt lat="43.52303" lon="1.44564">
        <ele>235.3</ele>
        <time>2022-05-16T10:45:06Z</time>
      </trkpt>
      <trkpt lat="43.52302" lon="1.44568">
        <ele>235.8</ele>
        <time>2022-05-16T10:45:07Z</time>
      </trkpt>
      <trkpt lat="43.523" lon="1.44572">
        <ele>236.2</ele>
        <time>2022-05-16T10:45:08Z</time>
      </trkpt>
      <trkpt lat="43.52298" lon="1.44575">
        <ele>236.6</ele>
        <time>2022-05-16T10:45:09Z</time>
      </trkpt>
      <trkpt lat="43.52297" lon="1.44579">
        <ele>236.9</ele>
        <time>2022-05-16T10:45:10Z</time>
      </trkpt>
      <trkpt lat="43.52299" lon="1.44582">
        <ele>237.3</ele>
        <time>2022-05-16T10:45:11Z</time>
      </trkpt>
      <trkpt lat="43.52301" lon="1.44585">
        <ele>237.7</ele>
        <time>2022-05-16T10:45:12Z</time>
      </trkpt>
      <trkpt lat="43.52305" lon="1.44586">
        <ele>237.9</ele>
        <time>2022-05-16T10:45:13Z</time>
      </trkpt>
      <trkpt lat="43.52309" lon="1.44586">
        <ele>238</ele>
        <time>2022-05-16T10:45:14Z</time>
      </trkpt>
      <trkpt lat="43.52313" lon="1.44586">
        <ele>238.1</ele>
        <time>2022-05-16T10:45:15Z</time>
      </trkpt>
      <trkpt lat="43.52317" lon="1.44586">
        <ele>238.2</ele>
        <time>2022-05-16T10:45:16Z</time>
      </trkpt>
      <trkpt lat="43.52321" lon="1.44587">
        <ele>238.4</ele>
        <time>2022-05-16T10:45:17Z</time>
      </trkpt>
      <trkpt lat="43.52325" lon="1.44588">
        <ele>238.5</ele>
        <time>2022-05-16T10:45:18Z</time>
      </trkpt>
      <trkpt lat="43.52329" lon="1.44588">
        <ele>238.7</ele>
        <time>2022-05-16T10:45:19Z</time>
      </trkpt>
      <trkpt lat="43.52332" lon="1.44589">
        <ele>238.9</ele>
        <time>2022-05-16T10:45:20Z</time>
      </trkpt>
      <trkpt lat="43.52336" lon="1.44589">
        <ele>239</ele>
        <time>2022-05-16T10:45:21Z</time>
      </trkpt>
      <trkpt lat="43.5234" lon="1.4459">
        <ele>239.2</ele>
        <time>2022-05-16T10:45:22Z</time>
      </trkpt>
      <trkpt lat="43.52344" lon="1.4459">
        <ele>239.4</ele>
        <time>2022-05-16T10:45:23Z</time>
      </trkpt>
      <trkpt lat="43.52347" lon="1.4459">
        <ele>239.6</ele>
        <time>2022-05-16T10:45:24Z</time>
      </trkpt>
      <trkpt lat="43.52351" lon="1.44589">
        <ele>239.9</ele>
        <time>2022-05-16T10:45:25Z</time>
      </trkpt>
      <trkpt lat="43.52354" lon="1.44589">
        <ele>240.1</ele>
        <time>2022-05-16T10:45:26Z</time>
      </trkpt>
      <trkpt lat="43.52358" lon="1.44588">
        <ele>240.4</ele>
        <time>2022-05-16T10:45:27Z</time>
      </trkpt>
      <trkpt lat="43.52362" lon="1.44586">
        <ele>240.7</ele>
        <time>2022-05-16T10:45:28Z</time>
      </trkpt>
      <trkpt lat="43.52365" lon="1.44585">
        <ele>240.9</ele>
        <time>2022-05-16T10:45:29Z</time>
      </trkpt>
      <trkpt lat="43.52369" lon="1.44584">
        <ele>241.2</ele>
        <time>2022-05-16T10:45:30Z</time>
      </trkpt>
      <trkpt lat="43.52373" lon="1.44582">
        <ele>241.5</ele>
        <time>2022-05-16T10:45:31Z</time>
      </trkpt>
      <trkpt lat="43.52376" lon="1.44582">
        <ele>241.8</ele>
        <time>2022-05-16T10:45:32Z</time>
      </trkpt>
      <trkpt lat="43.5238" lon="1.4458">
        <ele>242.1</ele>
        <time>2022-05-16T10:45:33Z</time>
      </trkpt>
      <trkpt lat="43.52383" lon="1.44579">
        <ele>242.5</ele>
        <time>2022-05-16T10:45:34Z</time>
      </trkpt>
      <trkpt lat="43.52387" lon="1.44577">
        <ele>242.8</ele>
        <time>2022-05-16T10:45:35Z</time>
      </trkpt>
      <trkpt lat="43.5239" lon="1.44576">
        <ele>243.1</ele>
        <time>2022-05-16T10:45:36Z</time>
      </trkpt>
      <trkpt lat="43.52394" lon="1.44575">
        <ele>243.5</ele>
        <time>2022-05-16T10:45:37Z</time>
      </trkpt>
      <trkpt lat="43.52398" lon="1.44574">
        <ele>243.9</ele>
        <time>2022-05-16T10:45:38Z</time>
      </trkpt>
      <trkpt lat="43.52401" lon="1.44572">
        <ele>244.3</ele>
        <time>2022-05-16T10:45:39Z</time>
      </trkpt>
      <trkpt lat="43.52405" lon="1.44571">
        <ele>244.7</ele>
        <time>2022-05-16T10:45:40Z</time>
      </trkpt>
      <trkpt lat="43.52408" lon="1.44569">
        <ele>245</ele>
        <time>2022-05-16T10:45:41Z</time>
      </trkpt>
      <trkpt lat="43.52412" lon="1.44567">
        <ele>245.4</ele>
        <time>2022-05-16T10:45:42Z</time>
      </trkpt>
      <trkpt lat="43.52415" lon="1.44564">
        <ele>245.9</ele>
        <time>2022-05-16T10:45:43Z</time>
      </trkpt>
      <trkpt lat="43.52418" lon="1.44562">
        <ele>246.2</ele>
        <time>2022-05-16T10:45:44Z</time>
      </trkpt>
      <trkpt lat="43.52422" lon="1.4456">
        <ele>246.6</ele>
        <time>2022-05-16T10:45:45Z</time>
      </trkpt>
      <trkpt lat="43.52425" lon="1.44557">
        <ele>247.1</ele>
        <time>2022-05-16T10:45:46Z</time>
      </trkpt>
      <trkpt lat="43.52428" lon="1.44555">
        <ele>247.5</ele>
        <time>2022-05-16T10:45:47Z</time>
      </trkpt>
      <trkpt lat="43.52432" lon="1.44554">
        <ele>247.9</ele>
        <time>2022-05-16T10:45:48Z</time>
      </trkpt>
      <trkpt lat="43.52435" lon="1.44553">
        <ele>248.3</ele>
        <time>2022-05-16T10:45:49Z</time>
      </trkpt>
      <trkpt lat="43.52439" lon="1.44552">
        <ele>248.8</ele>
        <time>2022-05-16T10:45:50Z</time>
      </trkpt>
      <trkpt lat="43.52443" lon="1.44554">
        <ele>249.4</ele>
        <time>2022-05-16T10:45:51Z</time>
      </trkpt>
      <trkpt lat="43.52446" lon="1.44554">
        <ele>249.9</ele>
        <time>2022-05-16T10:45:52Z</time>
      </trkpt>
      <trkpt lat="43.5245" lon="1.44555">
        <ele>250.4</ele>
        <time>2022-05-16T10:45:53Z</time>
      </trkpt>
      <trkpt lat="43.52454" lon="1.44556">
        <ele>250.9</ele>
        <time>2022-05-16T10:45:54Z</time>
      </trkpt>
      <trkpt lat="43.52457" lon="1.44557">
        <ele>251.3</ele>
        <time>2022-05-16T10:45:55Z</time>
      </trkpt>
      <trkpt lat="43.52461" lon="1.44558">
        <ele>251.8</ele>
        <time>2022-05-16T10:45:56Z</time>
      </trkpt>
      <trkpt lat="43.52465" lon="1.44558">
        <ele>252.3</ele>
        <time>2022-05-16T10:45:57Z</time>
      </trkpt>
      <trkpt lat="43.52468" lon="1.44559">
        <ele>252.8</ele>
        <time>2022-05-16T10:45:58Z</time>
      </trkpt>
      <trkpt lat="43.52472" lon="1.44558">
        <ele>253.3</ele>
        <time>2022-05-16T10:45:59Z</time>
      </trkpt>
      <trkpt lat="43.52476" lon="1.44558">
        <ele>253.7</ele>
        <time>2022-05-16T10:46:00Z</time>
      </trkpt>
      <trkpt lat="43.5248" lon="1.44557">
        <ele>254.2</ele>
        <time>2022-05-16T10:46:01Z</time>
      </trkpt>
      <trkpt lat="43.52483" lon="1.44556">
        <ele>254.7</ele>
        <time>2022-05-16T10:46:02Z</time>
      </trkpt>
      <trkpt lat="43.52487" lon="1.44556">
        <ele>255.1</ele>
        <time>2022-05-16T10:46:03Z</time>
      </trkpt>
      <trkpt lat="43.5249" lon="1.44555">
        <ele>255.4</ele>
        <time>2022-05-16T10:46:04Z</time>
      </trkpt>
      <trkpt lat="43.52494" lon="1.44555">
        <ele>255.8</ele>
        <time>2022-05-16T10:46:05Z</time>
      </trkpt>
      <trkpt lat="43.52497" lon="1.44555">
        <ele>256.1</ele>
        <time>2022-05-16T10:46:06Z</time>
      </trkpt>
      <trkpt lat="43.52501" lon="1.44556">
        <ele>256.5</ele>
        <time>2022-05-16T10:46:07Z</time>
      </trkpt>
      <trkpt lat="43.52503" lon="1.44562">
        <ele>257.4</ele>
        <time>2022-05-16T10:46:08Z</time>
      </trkpt>
      <trkpt lat="43.52502" lon="1.44568">
        <ele>257.5</ele>
        <time>2022-05-16T10:46:09Z</time>
      </trkpt>
      <trkpt lat="43.525" lon="1.44573">
        <ele>257.7</ele>
        <time>2022-05-16T10:46:10Z</time>
      </trkpt>
      <trkpt lat="43.52498" lon="1.44578">
        <ele>257.9</ele>
        <time>2022-05-16T10:46:11Z</time>
      </trkpt>
      <trkpt lat="43.52497" lon="1.44584">
        <ele>258.1</ele>
        <time>2022-05-16T10:46:12Z</time>
      </trkpt>
      <trkpt lat="43.52495" lon="1.44589">
        <ele>258.3</ele>
        <time>2022-05-16T10:46:13Z</time>
      </trkpt>
      <trkpt lat="43.52493" lon="1.44595">
        <ele>258.5</ele>
        <time>2022-05-16T10:46:14Z</time>
      </trkpt>
      <trkpt lat="43.52491" lon="1.446">
        <ele>258.6</ele>
        <time>2022-05-16T10:46:15Z</time>
      </trkpt>
      <trkpt lat="43.52489" lon="1.44605">
        <ele>258.7</ele>
        <time>2022-05-16T10:46:16Z</time>
      </trkpt>
      <trkpt lat="43.52488" lon="1.4461">
        <ele>258.8</ele>
        <time>2022-05-16T10:46:17Z</time>
      </trkpt>
      <trkpt lat="43.52487" lon="1.44615">
        <ele>258.9</ele>
        <time>2022-05-16T10:46:18Z</time>
      </trkpt>
      <trkpt lat="43.52485" lon="1.4462">
        <ele>259</ele>
        <time>2022-05-16T10:46:19Z</time>
      </trkpt>
      <trkpt lat="43.52482" lon="1.44624">
        <ele>259</ele>
        <time>2022-05-16T10:46:20Z</time>
      </trkpt>
      <trkpt lat="43.52479" lon="1.44629">
        <ele>259.1</ele>
        <time>2022-05-16T10:46:21Z</time>
      </trkpt>
      <trkpt lat="43.52476" lon="1.44634">
        <ele>259.2</ele>
        <time>2022-05-16T10:46:22Z</time>
      </trkpt>
      <trkpt lat="43.52474" lon="1.44639">
        <ele>259.2</ele>
        <time>2022-05-16T10:46:23Z</time>
      </trkpt>
      <trkpt lat="43.52473" lon="1.44644">
        <ele>259.3</ele>
        <time>2022-05-16T10:46:24Z</time>
      </trkpt>
      <trkpt lat="43.52471" lon="1.4465">
        <ele>259.3</ele>
        <time>2022-05-16T10:46:25Z</time>
      </trkpt>
      <trkpt lat="43.52469" lon="1.44655">
        <ele>259.3</ele>
        <time>2022-05-16T10:46:26Z</time>
      </trkpt>
      <trkpt lat="43.52467" lon="1.44661">
        <ele>259.3</ele>
        <time>2022-05-16T10:46:27Z</time>
      </trkpt>
      <trkpt lat="43.52464" lon="1.44666">
        <ele>259.4</ele>
        <time>2022-05-16T10:46:28Z</time>
      </trkpt>
      <trkpt lat="43.52462" lon="1.44671">
        <ele>259.4</ele>
        <time>2022-05-16T10:46:29Z</time>
      </trkpt>
      <trkpt lat="43.52459" lon="1.44677">
        <ele>259.4</ele>
        <time>2022-05-16T10:46:30Z</time>
      </trkpt>
      <trkpt lat="43.52456" lon="1.44681">
        <ele>259.4</ele>
        <time>2022-05-16T10:46:31Z</time>
      </trkpt>
      <trkpt lat="43.52453" lon="1.44687">
        <ele>259.4</ele>
        <time>2022-05-16T10:46:32Z</time>
      </trkpt>
      <trkpt lat="43.52451" lon="1.44692">
        <ele>259.4</ele>
        <time>2022-05-16T10:46:33Z</time>
      </trkpt>
      <trkpt lat="43.52448" lon="1.44697">
        <ele>259.4</ele>
        <time>2022-05-16T10:46:34Z</time>
      </trkpt>
      <trkpt lat="43.52446" lon="1.44702">
        <ele>259.5</ele>
        <time>2022-05-16T10:46:35Z</time>
      </trkpt>
      <trkpt lat="43.52443" lon="1.44707">
        <ele>259.5</ele>
        <time>2022-05-16T10:46:36Z</time>
      </trkpt>
      <trkpt lat="43.52441" lon="1.44712">
        <ele>259.5</ele>
        <time>2022-05-16T10:46:37Z</time>
      </trkpt>
      <trkpt lat="43.52438" lon="1.44717">
        <ele>259.5</ele>
        <time>2022-05-16T10:46:38Z</time>
      </trkpt>
      <trkpt lat="43.52435" lon="1.44722">
        <ele>259.5</ele>
        <time>2022-05-16T10:46:39Z</time>
      </trkpt>
      <trkpt lat="43.52433" lon="1.44726">
        <ele>259.6</ele>
        <time>2022-05-16T10:46:40Z</time>
      </trkpt>
      <trkpt lat="43.5243" lon="1.44732">
        <ele>259.6</ele>
        <time>2022-05-16T10:46:41Z</time>
      </trkpt>
      <trkpt lat="43.52426" lon="1.44737">
        <ele>259.7</ele>
        <time>2022-05-16T10:46:42Z</time>
      </trkpt>
      <trkpt lat="43.52424" lon="1.44742">
        <ele>259.8</ele>
        <time>2022-05-16T10:46:43Z</time>
      </trkpt>
      <trkpt lat="43.52421" lon="1.44748">
        <ele>259.8</ele>
        <time>2022-05-16T10:46:44Z</time>
      </trkpt>
      <trkpt lat="43.52419" lon="1.44753">
        <ele>259.9</ele>
        <time>2022-05-16T10:46:45Z</time>
      </trkpt>
      <trkpt lat="43.52415" lon="1.44757">
        <ele>260</ele>
        <time>2022-05-16T10:46:46Z</time>
      </trkpt>
      <trkpt lat="43.52413" lon="1.44762">
        <ele>260</ele>
        <time>2022-05-16T10:46:47Z</time>
      </trkpt>
      <trkpt lat="43.5241" lon="1.44766">
        <ele>260.1</ele>
        <time>2022-05-16T10:46:48Z</time>
      </trkpt>
      <trkpt lat="43.52406" lon="1.4477">
        <ele>260.1</ele>
        <time>2022-05-16T10:46:49Z</time>
      </trkpt>
      <trkpt lat="43.52403" lon="1.44775">
        <ele>260.1</ele>
        <time>2022-05-16T10:46:50Z</time>
      </trkpt>
      <trkpt lat="43.52401" lon="1.4478">
        <ele>260.1</ele>
        <time>2022-05-16T10:46:51Z</time>
      </trkpt>
      <trkpt lat="43.52399" lon="1.44785">
        <ele>260.1</ele>
        <time>2022-05-16T10:46:52Z</time>
      </trkpt>
      <trkpt lat="43.52396" lon="1.4479">
        <ele>260</ele>
        <time>2022-05-16T10:46:53Z</time>
      </trkpt>
      <trkpt lat="43.52393" lon="1.44795">
        <ele>260</ele>
        <time>2022-05-16T10:46:54Z</time>
      </trkpt>
      <trkpt lat="43.5239" lon="1.448">
        <ele>260</ele>
        <time>2022-05-16T10:46:55Z</time>
      </trkpt>
      <trkpt lat="43.52387" lon="1.44805">
        <ele>259.9</ele>
        <time>2022-05-16T10:46:56Z</time>
      </trkpt>
      <trkpt lat="43.52385" lon="1.44811">
        <ele>259.9</ele>
        <time>2022-05-16T10:46:57Z</time>
      </trkpt>
      <trkpt lat="43.52382" lon="1.44817">
        <ele>259.9</ele>
        <time>2022-05-16T10:46:58Z</time>
      </trkpt>
      <trkpt lat="43.52378" lon="1.44823">
        <ele>259.8</ele>
        <time>2022-05-16T10:46:59Z</time>
      </trkpt>
      <trkpt lat="43.52375" lon="1.44828">
        <ele>259.8</ele>
        <time>2022-05-16T10:47:00Z</time>
      </trkpt>
      <trkpt lat="43.52371" lon="1.44833">
        <ele>259.8</ele>
        <time>2022-05-16T10:47:01Z</time>
      </trkpt>
      <trkpt lat="43.52368" lon="1.44838">
        <ele>259.8</ele>
        <time>2022-05-16T10:47:02Z</time>
      </trkpt>
      <trkpt lat="43.52363" lon="1.44843">
        <ele>259.8</ele>
        <time>2022-05-16T10:47:03Z</time>
      </trkpt>
      <trkpt lat="43.52359" lon="1.44848">
        <ele>259.8</ele>
        <time>2022-05-16T10:47:04Z</time>
      </trkpt>
      <trkpt lat="43.52355" lon="1.44854">
        <ele>259.8</ele>
        <time>2022-05-16T10:47:05Z</time>
      </trkpt>
      <trkpt lat="43.52352" lon="1.4486">
        <ele>259.8</ele>
        <time>2022-05-16T10:47:06Z</time>
      </trkpt>
      <trkpt lat="43.52348" lon="1.44865">
        <ele>259.8</ele>
        <time>2022-05-16T10:47:07Z</time>
      </trkpt>
      <trkpt lat="43.52345" lon="1.44871">
        <ele>259.8</ele>
        <time>2022-05-16T10:47:08Z</time>
      </trkpt>
      <trkpt lat="43.52342" lon="1.44877">
        <ele>259.7</ele>
        <time>2022-05-16T10:47:09Z</time>
      </trkpt>
      <trkpt lat="43.52338" lon="1.44882">
        <ele>259.7</ele>
        <time>2022-05-16T10:47:10Z</time>
      </trkpt>
      <trkpt lat="43.52334" lon="1.44888">
        <ele>259.6</ele>
        <time>2022-05-16T10:47:11Z</time>
      </trkpt>
      <trkpt lat="43.5233" lon="1.44893">
        <ele>259.6</ele>
        <time>2022-05-16T10:47:12Z</time>
      </trkpt>
      <trkpt lat="43.52326" lon="1.44899">
        <ele>259.5</ele>
        <time>2022-05-16T10:47:13Z</time>
      </trkpt>
      <trkpt lat="43.52323" lon="1.44905">
        <ele>259.5</ele>
        <time>2022-05-16T10:47:14Z</time>
      </trkpt>
      <trkpt lat="43.52319" lon="1.44911">
        <ele>259.5</ele>
        <time>2022-05-16T10:47:15Z</time>
      </trkpt>
      <trkpt lat="43.52316" lon="1.44916">
        <ele>259.4</ele>
        <time>2022-05-16T10:47:16Z</time>
      </trkpt>
      <trkpt lat="43.52312" lon="1.44922">
        <ele>259.4</ele>
        <time>2022-05-16T10:47:17Z</time>
      </trkpt>
      <trkpt lat="43.52308" lon="1.44928">
        <ele>259.3</ele>
        <time>2022-05-16T10:47:18Z</time>
      </trkpt>
      <trkpt lat="43.52305" lon="1.44934">
        <ele>259.3</ele>
        <time>2022-05-16T10:47:19Z</time>
      </trkpt>
      <trkpt lat="43.52301" lon="1.4494">
        <ele>259.2</ele>
        <time>2022-05-16T10:47:20Z</time>
      </trkpt>
      <trkpt lat="43.52297" lon="1.44946">
        <ele>259.1</ele>
        <time>2022-05-16T10:47:21Z</time>
      </trkpt>
      <trkpt lat="43.52292" lon="1.44952">
        <ele>258.9</ele>
        <time>2022-05-16T10:47:22Z</time>
      </trkpt>
      <trkpt lat="43.52289" lon="1.44958">
        <ele>258.8</ele>
        <time>2022-05-16T10:47:23Z</time>
      </trkpt>
      <trkpt lat="43.52285" lon="1.44965">
        <ele>258.5</ele>
        <time>2022-05-16T10:47:24Z</time>
      </trkpt>
      <trkpt lat="43.52281" lon="1.44971">
        <ele>258.3</ele>
        <time>2022-05-16T10:47:25Z</time>
      </trkpt>
      <trkpt lat="43.52277" lon="1.44977">
        <ele>258.1</ele>
        <time>2022-05-16T10:47:26Z</time>
      </trkpt>
      <trkpt lat="43.52273" lon="1.44984">
        <ele>257.9</ele>
        <time>2022-05-16T10:47:27Z</time>
      </trkpt>
      <trkpt lat="43.52268" lon="1.44991">
        <ele>257.7</ele>
        <time>2022-05-16T10:47:28Z</time>
      </trkpt>
      <trkpt lat="43.52264" lon="1.44997">
        <ele>257.5</ele>
        <time>2022-05-16T10:47:29Z</time>
      </trkpt>
      <trkpt lat="43.5226" lon="1.45005">
        <ele>257.2</ele>
        <time>2022-05-16T10:47:30Z</time>
      </trkpt>
      <trkpt lat="43.52256" lon="1.45012">
        <ele>256.8</ele>
        <time>2022-05-16T10:47:31Z</time>
      </trkpt>
      <trkpt lat="43.52252" lon="1.45019">
        <ele>256.4</ele>
        <time>2022-05-16T10:47:32Z</time>
      </trkpt>
      <trkpt lat="43.52249" lon="1.45026">
        <ele>255.9</ele>
        <time>2022-05-16T10:47:33Z</time>
      </trkpt>
      <trkpt lat="43.52245" lon="1.45034">
        <ele>255.3</ele>
        <time>2022-05-16T10:47:34Z</time>
      </trkpt>
      <trkpt lat="43.5224" lon="1.45041">
        <ele>254.5</ele>
        <time>2022-05-16T10:47:35Z</time>
      </trkpt>
      <trkpt lat="43.52228" lon="1.45049">
        <ele>253.3</ele>
        <time>2022-05-16T10:47:37Z</time>
      </trkpt>
      <trkpt lat="43.5222" lon="1.45048">
        <ele>252.7</ele>
        <time>2022-05-16T10:47:38Z</time>
      </trkpt>
      <trkpt lat="43.52212" lon="1.45045">
        <ele>252</ele>
        <time>2022-05-16T10:47:39Z</time>
      </trkpt>
      <trkpt lat="43.52204" lon="1.45042">
        <ele>251.4</ele>
        <time>2022-05-16T10:47:40Z</time>
      </trkpt>
      <trkpt lat="43.52195" lon="1.4504">
        <ele>250.8</ele>
        <time>2022-05-16T10:47:41Z</time>
      </trkpt>
      <trkpt lat="43.52187" lon="1.45039">
        <ele>250.3</ele>
        <time>2022-05-16T10:47:42Z</time>
      </trkpt>
      <trkpt lat="43.52178" lon="1.4504">
        <ele>250</ele>
        <time>2022-05-16T10:47:43Z</time>
      </trkpt>
      <trkpt lat="43.52171" lon="1.45043">
        <ele>249.8</ele>
        <time>2022-05-16T10:47:44Z</time>
      </trkpt>
      <trkpt lat="43.52164" lon="1.45049">
        <ele>249.8</ele>
        <time>2022-05-16T10:47:45Z</time>
      </trkpt>
      <trkpt lat="43.52158" lon="1.45055">
        <ele>249.8</ele>
        <time>2022-05-16T10:47:46Z</time>
      </trkpt>
      <trkpt lat="43.52151" lon="1.4506">
        <ele>249.9</ele>
        <time>2022-05-16T10:47:47Z</time>
      </trkpt>
      <trkpt lat="43.52145" lon="1.45063">
        <ele>250.1</ele>
        <time>2022-05-16T10:47:48Z</time>
      </trkpt>
      <trkpt lat="43.52141" lon="1.45065">
        <ele>250.2</ele>
        <time>2022-05-16T10:47:49Z</time>
      </trkpt>
      <trkpt lat="43.52142" lon="1.4507">
        <ele>249.4</ele>
        <time>2022-05-16T10:47:50Z</time>
      </trkpt>
      <trkpt lat="43.52143" lon="1.45071">
        <ele>249.1</ele>
        <time>2022-05-16T10:47:51Z</time>
      </trkpt>
      <trkpt lat="43.52147" lon="1.45073">
        <ele>248.1</ele>
        <time>2022-05-16T10:47:52Z</time>
      </trkpt>
      <trkpt lat="43.52153" lon="1.45072">
        <ele>246.5</ele>
        <time>2022-05-16T10:47:53Z</time>
      </trkpt>
      <trkpt lat="43.52159" lon="1.45071">
        <ele>244.5</ele>
        <time>2022-05-16T10:47:54Z</time>
      </trkpt>
      <trkpt lat="43.52165" lon="1.45071">
        <ele>242.9</ele>
        <time>2022-05-16T10:47:55Z</time>
      </trkpt>
      <trkpt lat="43.52164" lon="1.45078">
        <ele>241.4</ele>
        <time>2022-05-16T10:47:56Z</time>
      </trkpt>
      <trkpt lat="43.52162" lon="1.45082">
        <ele>240.4</ele>
        <time>2022-05-16T10:47:57Z</time>
      </trkpt>
      <trkpt lat="43.52159" lon="1.45085">
        <ele>239.5</ele>
        <time>2022-05-16T10:47:58Z</time>
      </trkpt>
      <trkpt lat="43.5216" lon="1.45091">
        <ele>238.2</ele>
        <time>2022-05-16T10:47:59Z</time>
      </trkpt>
      <trkpt lat="43.52162" lon="1.45096">
        <ele>237</ele>
        <time>2022-05-16T10:48:00Z</time>
      </trkpt>
      <trkpt lat="43.5217" lon="1.45101">
        <ele>234.6</ele>
        <time>2022-05-16T10:48:01Z</time>
      </trkpt>
      <trkpt lat="43.52173" lon="1.45104">
        <ele>233.6</ele>
        <time>2022-05-16T10:48:02Z</time>
      </trkpt>
      <trkpt lat="43.52174" lon="1.45109">
        <ele>232.7</ele>
        <time>2022-05-16T10:48:03Z</time>
      </trkpt>
      <trkpt lat="43.52175" lon="1.45113">
        <ele>232</ele>
        <time>2022-05-16T10:48:04Z</time>
      </trkpt>
      <trkpt lat="43.52177" lon="1.45117">
        <ele>231.2</ele>
        <time>2022-05-16T10:48:05Z</time>
      </trkpt>
      <trkpt lat="43.52177" lon="1.45122">
        <ele>230.4</ele>
        <time>2022-05-16T10:48:06Z</time>
      </trkpt>
      <trkpt lat="43.52179" lon="1.45129">
        <ele>229.3</ele>
        <time>2022-05-16T10:48:07Z</time>
      </trkpt>
      <trkpt lat="43.52182" lon="1.45137">
        <ele>227.9</ele>
        <time>2022-05-16T10:48:08Z</time>
      </trkpt>
      <trkpt lat="43.52184" lon="1.45141">
        <ele>227.2</ele>
        <time>2022-05-16T10:48:09Z</time>
      </trkpt>
      <trkpt lat="43.52185" lon="1.45145">
        <ele>226.5</ele>
        <time>2022-05-16T10:48:10Z</time>
      </trkpt>
      <trkpt lat="43.52185" lon="1.45146">
        <ele>226.4</ele>
        <time>2022-05-16T10:48:11Z</time>
      </trkpt>
      <trkpt lat="43.52183" lon="1.45148">
        <ele>225.9</ele>
        <time>2022-05-16T10:48:12Z</time>
      </trkpt>
      <trkpt lat="43.52182" lon="1.45153">
        <ele>225.2</ele>
        <time>2022-05-16T10:48:13Z</time>
      </trkpt>
      <trkpt lat="43.52183" lon="1.45161">
        <ele>224.2</ele>
        <time>2022-05-16T10:48:14Z</time>
      </trkpt>
      <trkpt lat="43.52187" lon="1.45167">
        <ele>223.3</ele>
        <time>2022-05-16T10:48:15Z</time>
      </trkpt>
      <trkpt lat="43.5219" lon="1.45175">
        <ele>222.2</ele>
        <time>2022-05-16T10:48:16Z</time>
      </trkpt>
      <trkpt lat="43.52193" lon="1.45184">
        <ele>221.2</ele>
        <time>2022-05-16T10:48:17Z</time>
      </trkpt>
      <trkpt lat="43.52195" lon="1.45192">
        <ele>220.3</ele>
        <time>2022-05-16T10:48:18Z</time>
      </trkpt>
      <trkpt lat="43.52196" lon="1.452">
        <ele>219.5</ele>
        <time>2022-05-16T10:48:19Z</time>
      </trkpt>
      <trkpt lat="43.52196" lon="1.45211">
        <ele>218.7</ele>
        <time>2022-05-16T10:48:20Z</time>
      </trkpt>
      <trkpt lat="43.52197" lon="1.45221">
        <ele>218</ele>
        <time>2022-05-16T10:48:21Z</time>
      </trkpt>
      <trkpt lat="43.52197" lon="1.45231">
        <ele>217.3</ele>
        <time>2022-05-16T10:48:22Z</time>
      </trkpt>
      <trkpt lat="43.52197" lon="1.45239">
        <ele>216.7</ele>
        <time>2022-05-16T10:48:23Z</time>
      </trkpt>
      <trkpt lat="43.522" lon="1.45246">
        <ele>216.7</ele>
        <time>2022-05-16T10:48:24Z</time>
      </trkpt>
      <trkpt lat="43.52205" lon="1.45251">
        <ele>216.6</ele>
        <time>2022-05-16T10:48:25Z</time>
      </trkpt>
      <trkpt lat="43.52208" lon="1.45257">
        <ele>216.7</ele>
        <time>2022-05-16T10:48:26Z</time>
      </trkpt>
      <trkpt lat="43.5221" lon="1.45264">
        <ele>216.9</ele>
        <time>2022-05-16T10:48:27Z</time>
      </trkpt>
      <trkpt lat="43.52212" lon="1.4527">
        <ele>217</ele>
        <time>2022-05-16T10:48:28Z</time>
      </trkpt>
      <trkpt lat="43.52211" lon="1.45274">
        <ele>217</ele>
        <time>2022-05-16T10:48:29Z</time>
      </trkpt>
      <trkpt lat="43.52208" lon="1.45272">
        <ele>217.1</ele>
        <time>2022-05-16T10:48:30Z</time>
      </trkpt>
      <trkpt lat="43.52205" lon="1.45271">
        <ele>217.2</ele>
        <time>2022-05-16T10:48:31Z</time>
      </trkpt>
      <trkpt lat="43.52203" lon="1.4527">
        <ele>217.2</ele>
        <time>2022-05-16T10:48:32Z</time>
      </trkpt>
      <trkpt lat="43.522" lon="1.45272">
        <ele>217.3</ele>
        <time>2022-05-16T10:48:33Z</time>
      </trkpt>
      <trkpt lat="43.52196" lon="1.45275">
        <ele>217.4</ele>
        <time>2022-05-16T10:48:34Z</time>
      </trkpt>
      <trkpt lat="43.52192" lon="1.45281">
        <ele>217.6</ele>
        <time>2022-05-16T10:48:35Z</time>
      </trkpt>
      <trkpt lat="43.52188" lon="1.45282">
        <ele>217.8</ele>
        <time>2022-05-16T10:48:36Z</time>
      </trkpt>
      <trkpt lat="43.52186" lon="1.45286">
        <ele>217.9</ele>
        <time>2022-05-16T10:48:37Z</time>
      </trkpt>
      <trkpt lat="43.52183" lon="1.45289">
        <ele>218.1</ele>
        <time>2022-05-16T10:48:38Z</time>
      </trkpt>
      <trkpt lat="43.52182" lon="1.45292">
        <ele>218.2</ele>
        <time>2022-05-16T10:48:39Z</time>
      </trkpt>
      <trkpt lat="43.52179" lon="1.45295">
        <ele>218.4</ele>
        <time>2022-05-16T10:48:40Z</time>
      </trkpt>
      <trkpt lat="43.52176" lon="1.45295">
        <ele>218.5</ele>
        <time>2022-05-16T10:48:41Z</time>
      </trkpt>
      <trkpt lat="43.52174" lon="1.45296">
        <ele>218.7</ele>
        <time>2022-05-16T10:48:42Z</time>
      </trkpt>
      <trkpt lat="43.52173" lon="1.45298">
        <ele>218.8</ele>
        <time>2022-05-16T10:48:43Z</time>
      </trkpt>
      <trkpt lat="43.52173" lon="1.45303">
        <ele>219.1</ele>
        <time>2022-05-16T10:48:44Z</time>
      </trkpt>
      <trkpt lat="43.52171" lon="1.45308">
        <ele>219.4</ele>
        <time>2022-05-16T10:48:45Z</time>
      </trkpt>
      <trkpt lat="43.52167" lon="1.45309">
        <ele>219.9</ele>
        <time>2022-05-16T10:48:46Z</time>
      </trkpt>
      <trkpt lat="43.52165" lon="1.45314">
        <ele>220.4</ele>
        <time>2022-05-16T10:48:47Z</time>
      </trkpt>
      <trkpt lat="43.52163" lon="1.45319">
        <ele>220.9</ele>
        <time>2022-05-16T10:48:48Z</time>
      </trkpt>
      <trkpt lat="43.52162" lon="1.45323">
        <ele>221.5</ele>
        <time>2022-05-16T10:48:49Z</time>
      </trkpt>
      <trkpt lat="43.52163" lon="1.45327">
        <ele>222</ele>
        <time>2022-05-16T10:48:50Z</time>
      </trkpt>
      <trkpt lat="43.52164" lon="1.45327">
        <ele>222.1</ele>
        <time>2022-05-16T10:48:51Z</time>
      </trkpt>
      <trkpt lat="43.52166" lon="1.45329">
        <ele>222.6</ele>
        <time>2022-05-16T10:48:52Z</time>
      </trkpt>
      <trkpt lat="43.52167" lon="1.45333">
        <ele>223.3</ele>
        <time>2022-05-16T10:48:53Z</time>
      </trkpt>
      <trkpt lat="43.52166" lon="1.45338">
        <ele>223.9</ele>
        <time>2022-05-16T10:48:54Z</time>
      </trkpt>
      <trkpt lat="43.52167" lon="1.45342">
        <ele>224.6</ele>
        <time>2022-05-16T10:48:55Z</time>
      </trkpt>
      <trkpt lat="43.52168" lon="1.45343">
        <ele>224.9</ele>
        <time>2022-05-16T10:48:56Z</time>
      </trkpt>
      <trkpt lat="43.52171" lon="1.45345">
        <ele>225.5</ele>
        <time>2022-05-16T10:48:57Z</time>
      </trkpt>
      <trkpt lat="43.52173" lon="1.45347">
        <ele>226.2</ele>
        <time>2022-05-16T10:48:58Z</time>
      </trkpt>
      <trkpt lat="43.52176" lon="1.4535">
        <ele>227.1</ele>
        <time>2022-05-16T10:48:59Z</time>
      </trkpt>
      <trkpt lat="43.52177" lon="1.45351">
        <ele>227.3</ele>
        <time>2022-05-16T10:49:00Z</time>
      </trkpt>
      <trkpt lat="43.5218" lon="1.45353">
        <ele>227.9</ele>
        <time>2022-05-16T10:49:01Z</time>
      </trkpt>
      <trkpt lat="43.52181" lon="1.45353">
        <ele>228.2</ele>
        <time>2022-05-16T10:49:02Z</time>
      </trkpt>
      <trkpt lat="43.52184" lon="1.45355">
        <ele>228.9</ele>
        <time>2022-05-16T10:49:03Z</time>
      </trkpt>
      <trkpt lat="43.52185" lon="1.45356">
        <ele>229.1</ele>
        <time>2022-05-16T10:49:04Z</time>
      </trkpt>
      <trkpt lat="43.52188" lon="1.45359">
        <ele>229.8</ele>
        <time>2022-05-16T10:49:05Z</time>
      </trkpt>
      <trkpt lat="43.52188" lon="1.4536">
        <ele>229.9</ele>
        <time>2022-05-16T10:49:06Z</time>
      </trkpt>
      <trkpt lat="43.52189" lon="1.45364">
        <ele>230.5</ele>
        <time>2022-05-16T10:49:07Z</time>
      </trkpt>
      <trkpt lat="43.52188" lon="1.45366">
        <ele>230.8</ele>
        <time>2022-05-16T10:49:08Z</time>
      </trkpt>
      <trkpt lat="43.52188" lon="1.4537">
        <ele>231.3</ele>
        <time>2022-05-16T10:49:09Z</time>
      </trkpt>
      <trkpt lat="43.52189" lon="1.45375">
        <ele>231.9</ele>
        <time>2022-05-16T10:49:10Z</time>
      </trkpt>
      <trkpt lat="43.5219" lon="1.45376">
        <ele>232.1</ele>
        <time>2022-05-16T10:49:11Z</time>
      </trkpt>
      <trkpt lat="43.52193" lon="1.45379">
        <ele>232.6</ele>
        <time>2022-05-16T10:49:12Z</time>
      </trkpt>
      <trkpt lat="43.52197" lon="1.45379">
        <ele>233.3</ele>
        <time>2022-05-16T10:49:13Z</time>
      </trkpt>
      <trkpt lat="43.522" lon="1.45382">
        <ele>233.7</ele>
        <time>2022-05-16T10:49:14Z</time>
      </trkpt>
      <trkpt lat="43.52201" lon="1.45382">
        <ele>233.8</ele>
        <time>2022-05-16T10:49:15Z</time>
      </trkpt>
      <trkpt lat="43.52202" lon="1.45386">
        <ele>234.2</ele>
        <time>2022-05-16T10:49:16Z</time>
      </trkpt>
      <trkpt lat="43.52203" lon="1.4539">
        <ele>234.6</ele>
        <time>2022-05-16T10:49:17Z</time>
      </trkpt>
      <trkpt lat="43.52204" lon="1.45395">
        <ele>235</ele>
        <time>2022-05-16T10:49:18Z</time>
      </trkpt>
      <trkpt lat="43.52204" lon="1.45397">
        <ele>235.2</ele>
        <time>2022-05-16T10:49:19Z</time>
      </trkpt>
      <trkpt lat="43.52205" lon="1.454">
        <ele>235.4</ele>
        <time>2022-05-16T10:49:20Z</time>
      </trkpt>
      <trkpt lat="43.52206" lon="1.45406">
        <ele>235.8</ele>
        <time>2022-05-16T10:49:21Z</time>
      </trkpt>
      <trkpt lat="43.52206" lon="1.45408">
        <ele>235.9</ele>
        <time>2022-05-16T10:49:22Z</time>
      </trkpt>
      <trkpt lat="43.52207" lon="1.45412">
        <ele>236.1</ele>
        <time>2022-05-16T10:49:23Z</time>
      </trkpt>
      <trkpt lat="43.52209" lon="1.45416">
        <ele>236.3</ele>
        <time>2022-05-16T10:49:24Z</time>
      </trkpt>
      <trkpt lat="43.52209" lon="1.45417">
        <ele>236.3</ele>
        <time>2022-05-16T10:49:25Z</time>
      </trkpt>
      <trkpt lat="43.52212" lon="1.45419">
        <ele>236.5</ele>
        <time>2022-05-16T10:49:26Z</time>
      </trkpt>
      <trkpt lat="43.52215" lon="1.45422">
        <ele>236.5</ele>
        <time>2022-05-16T10:49:27Z</time>
      </trkpt>
      <trkpt lat="43.52217" lon="1.45425">
        <ele>236.6</ele>
        <time>2022-05-16T10:49:28Z</time>
      </trkpt>
      <trkpt lat="43.52218" lon="1.4543">
        <ele>236.6</ele>
        <time>2022-05-16T10:49:29Z</time>
      </trkpt>
      <trkpt lat="43.52216" lon="1.45434">
        <ele>236.5</ele>
        <time>2022-05-16T10:49:30Z</time>
      </trkpt>
      <trkpt lat="43.52218" lon="1.45439">
        <ele>236.4</ele>
        <time>2022-05-16T10:49:31Z</time>
      </trkpt>
      <trkpt lat="43.5222" lon="1.4544">
        <ele>236.3</ele>
        <time>2022-05-16T10:49:32Z</time>
      </trkpt>
      <trkpt lat="43.52222" lon="1.45443">
        <ele>236.2</ele>
        <time>2022-05-16T10:49:33Z</time>
      </trkpt>
      <trkpt lat="43.52225" lon="1.45448">
        <ele>235.9</ele>
        <time>2022-05-16T10:49:34Z</time>
      </trkpt>
      <trkpt lat="43.52227" lon="1.45449">
        <ele>235.8</ele>
        <time>2022-05-16T10:49:35Z</time>
      </trkpt>
      <trkpt lat="43.52228" lon="1.4545">
        <ele>235.7</ele>
        <time>2022-05-16T10:49:36Z</time>
      </trkpt>
      <trkpt lat="43.5223" lon="1.45453">
        <ele>235.5</ele>
        <time>2022-05-16T10:49:37Z</time>
      </trkpt>
      <trkpt lat="43.52229" lon="1.45456">
        <ele>235.5</ele>
        <time>2022-05-16T10:49:38Z</time>
      </trkpt>
      <trkpt lat="43.52227" lon="1.45461">
        <ele>235.8</ele>
        <time>2022-05-16T10:49:39Z</time>
      </trkpt>
      <trkpt lat="43.52225" lon="1.45465">
        <ele>236.1</ele>
        <time>2022-05-16T10:49:40Z</time>
      </trkpt>
      <trkpt lat="43.52224" lon="1.4547">
        <ele>236.5</ele>
        <time>2022-05-16T10:49:41Z</time>
      </trkpt>
      <trkpt lat="43.52223" lon="1.45475">
        <ele>236.8</ele>
        <time>2022-05-16T10:49:42Z</time>
      </trkpt>
      <trkpt lat="43.52222" lon="1.45479">
        <ele>237.1</ele>
        <time>2022-05-16T10:49:43Z</time>
      </trkpt>
      <trkpt lat="43.52221" lon="1.45483">
        <ele>237.4</ele>
        <time>2022-05-16T10:49:44Z</time>
      </trkpt>
      <trkpt lat="43.52219" lon="1.45487">
        <ele>237.7</ele>
        <time>2022-05-16T10:49:45Z</time>
      </trkpt>
      <trkpt lat="43.52218" lon="1.45492">
        <ele>238.1</ele>
        <time>2022-05-16T10:49:46Z</time>
      </trkpt>
      <trkpt lat="43.52217" lon="1.45497">
        <ele>238.5</ele>
        <time>2022-05-16T10:49:47Z</time>
      </trkpt>
      <trkpt lat="43.52215" lon="1.45501">
        <ele>238.8</ele>
        <time>2022-05-16T10:49:48Z</time>
      </trkpt>
      <trkpt lat="43.52213" lon="1.45505">
        <ele>239.2</ele>
        <time>2022-05-16T10:49:49Z</time>
      </trkpt>
      <trkpt lat="43.52212" lon="1.4551">
        <ele>239.6</ele>
        <time>2022-05-16T10:49:50Z</time>
      </trkpt>
      <trkpt lat="43.5221" lon="1.45514">
        <ele>240.1</ele>
        <time>2022-05-16T10:49:51Z</time>
      </trkpt>
      <trkpt lat="43.52209" lon="1.45519">
        <ele>240.5</ele>
        <time>2022-05-16T10:49:52Z</time>
      </trkpt>
      <trkpt lat="43.52208" lon="1.45523">
        <ele>240.9</ele>
        <time>2022-05-16T10:49:53Z</time>
      </trkpt>
      <trkpt lat="43.52206" lon="1.45527">
        <ele>241.4</ele>
        <time>2022-05-16T10:49:54Z</time>
      </trkpt>
      <trkpt lat="43.52205" lon="1.45531">
        <ele>241.9</ele>
        <time>2022-05-16T10:49:55Z</time>
      </trkpt>
      <trkpt lat="43.52203" lon="1.45536">
        <ele>242.4</ele>
        <time>2022-05-16T10:49:56Z</time>
      </trkpt>
      <trkpt lat="43.52201" lon="1.4554">
        <ele>242.9</ele>
        <time>2022-05-16T10:49:57Z</time>
      </trkpt>
      <trkpt lat="43.522" lon="1.45545">
        <ele>243.4</ele>
        <time>2022-05-16T10:49:58Z</time>
      </trkpt>
      <trkpt lat="43.52198" lon="1.45547">
        <ele>243.8</ele>
        <time>2022-05-16T10:49:59Z</time>
      </trkpt>
      <trkpt lat="43.52195" lon="1.4555">
        <ele>244.3</ele>
        <time>2022-05-16T10:50:00Z</time>
      </trkpt>
      <trkpt lat="43.52192" lon="1.45553">
        <ele>244.8</ele>
        <time>2022-05-16T10:50:01Z</time>
      </trkpt>
      <trkpt lat="43.5219" lon="1.45556">
        <ele>245.2</ele>
        <time>2022-05-16T10:50:02Z</time>
      </trkpt>
      <trkpt lat="43.52188" lon="1.45558">
        <ele>245.6</ele>
        <time>2022-05-16T10:50:03Z</time>
      </trkpt>
      <trkpt lat="43.52185" lon="1.45561">
        <ele>246</ele>
        <time>2022-05-16T10:50:04Z</time>
      </trkpt>
      <trkpt lat="43.52183" lon="1.45563">
        <ele>246.5</ele>
        <time>2022-05-16T10:50:05Z</time>
      </trkpt>
      <trkpt lat="43.5218" lon="1.45566">
        <ele>246.9</ele>
        <time>2022-05-16T10:50:06Z</time>
      </trkpt>
      <trkpt lat="43.52178" lon="1.45569">
        <ele>247.3</ele>
        <time>2022-05-16T10:50:07Z</time>
      </trkpt>
      <trkpt lat="43.52175" lon="1.45571">
        <ele>247.7</ele>
        <time>2022-05-16T10:50:08Z</time>
      </trkpt>
      <trkpt lat="43.52173" lon="1.45573">
        <ele>248.1</ele>
        <time>2022-05-16T10:50:09Z</time>
      </trkpt>
      <trkpt lat="43.52171" lon="1.45578">
        <ele>248.6</ele>
        <time>2022-05-16T10:50:10Z</time>
      </trkpt>
      <trkpt lat="43.52169" lon="1.45581">
        <ele>248.9</ele>
        <time>2022-05-16T10:50:11Z</time>
      </trkpt>
      <trkpt lat="43.52168" lon="1.45585">
        <ele>249.3</ele>
        <time>2022-05-16T10:50:12Z</time>
      </trkpt>
      <trkpt lat="43.52166" lon="1.45588">
        <ele>249.6</ele>
        <time>2022-05-16T10:50:13Z</time>
      </trkpt>
      <trkpt lat="43.52164" lon="1.45591">
        <ele>249.9</ele>
        <time>2022-05-16T10:50:14Z</time>
      </trkpt>
      <trkpt lat="43.52161" lon="1.45594">
        <ele>250.3</ele>
        <time>2022-05-16T10:50:15Z</time>
      </trkpt>
      <trkpt lat="43.52158" lon="1.45598">
        <ele>250.6</ele>
        <time>2022-05-16T10:50:16Z</time>
      </trkpt>
      <trkpt lat="43.52156" lon="1.45601">
        <ele>250.8</ele>
        <time>2022-05-16T10:50:17Z</time>
      </trkpt>
      <trkpt lat="43.52152" lon="1.45604">
        <ele>251</ele>
        <time>2022-05-16T10:50:18Z</time>
      </trkpt>
      <trkpt lat="43.5215" lon="1.45608">
        <ele>251.2</ele>
        <time>2022-05-16T10:50:19Z</time>
      </trkpt>
      <trkpt lat="43.52146" lon="1.45612">
        <ele>251.5</ele>
        <time>2022-05-16T10:50:20Z</time>
      </trkpt>
      <trkpt lat="43.52144" lon="1.45617">
        <ele>251.6</ele>
        <time>2022-05-16T10:50:21Z</time>
      </trkpt>
      <trkpt lat="43.52141" lon="1.45621">
        <ele>251.8</ele>
        <time>2022-05-16T10:50:22Z</time>
      </trkpt>
      <trkpt lat="43.52139" lon="1.45625">
        <ele>252</ele>
        <time>2022-05-16T10:50:23Z</time>
      </trkpt>
      <trkpt lat="43.52136" lon="1.45629">
        <ele>252.2</ele>
        <time>2022-05-16T10:50:24Z</time>
      </trkpt>
      <trkpt lat="43.52134" lon="1.45633">
        <ele>252.5</ele>
        <time>2022-05-16T10:50:25Z</time>
      </trkpt>
      <trkpt lat="43.52131" lon="1.45637">
        <ele>252.7</ele>
        <time>2022-05-16T10:50:26Z</time>
      </trkpt>
      <trkpt lat="43.52128" lon="1.45641">
        <ele>253</ele>
        <time>2022-05-16T10:50:27Z</time>
      </trkpt>
      <trkpt lat="43.52125" lon="1.45643">
        <ele>253.3</ele>
        <time>2022-05-16T10:50:28Z</time>
      </trkpt>
      <trkpt lat="43.52122" lon="1.45647">
        <ele>253.6</ele>
        <time>2022-05-16T10:50:29Z</time>
      </trkpt>
      <trkpt lat="43.52119" lon="1.45651">
        <ele>253.9</ele>
        <time>2022-05-16T10:50:30Z</time>
      </trkpt>
      <trkpt lat="43.52117" lon="1.45655">
        <ele>254.2</ele>
        <time>2022-05-16T10:50:31Z</time>
      </trkpt>
      <trkpt lat="43.52114" lon="1.45659">
        <ele>254.5</ele>
        <time>2022-05-16T10:50:32Z</time>
      </trkpt>
      <trkpt lat="43.52111" lon="1.45663">
        <ele>254.8</ele>
        <time>2022-05-16T10:50:33Z</time>
      </trkpt>
      <trkpt lat="43.52109" lon="1.45667">
        <ele>255.1</ele>
        <time>2022-05-16T10:50:34Z</time>
      </trkpt>
      <trkpt lat="43.52106" lon="1.45671">
        <ele>255.4</ele>
        <time>2022-05-16T10:50:35Z</time>
      </trkpt>
      <trkpt lat="43.52103" lon="1.45674">
        <ele>255.7</ele>
        <time>2022-05-16T10:50:36Z</time>
      </trkpt>
      <trkpt lat="43.52101" lon="1.45679">
        <ele>256</ele>
        <time>2022-05-16T10:50:37Z</time>
      </trkpt>
      <trkpt lat="43.52098" lon="1.45683">
        <ele>256.2</ele>
        <time>2022-05-16T10:50:38Z</time>
      </trkpt>
      <trkpt lat="43.52095" lon="1.45687">
        <ele>256.5</ele>
        <time>2022-05-16T10:50:39Z</time>
      </trkpt>
      <trkpt lat="43.52092" lon="1.45691">
        <ele>256.8</ele>
        <time>2022-05-16T10:50:40Z</time>
      </trkpt>
      <trkpt lat="43.5209" lon="1.45696">
        <ele>257</ele>
        <time>2022-05-16T10:50:41Z</time>
      </trkpt>
      <trkpt lat="43.52088" lon="1.457">
        <ele>257.3</ele>
        <time>2022-05-16T10:50:42Z</time>
      </trkpt>
      <trkpt lat="43.52085" lon="1.45704">
        <ele>257.5</ele>
        <time>2022-05-16T10:50:43Z</time>
      </trkpt>
      <trkpt lat="43.52083" lon="1.45708">
        <ele>257.8</ele>
        <time>2022-05-16T10:50:44Z</time>
      </trkpt>
      <trkpt lat="43.5208" lon="1.45712">
        <ele>258</ele>
        <time>2022-05-16T10:50:45Z</time>
      </trkpt>
      <trkpt lat="43.52077" lon="1.45716">
        <ele>258.2</ele>
        <time>2022-05-16T10:50:46Z</time>
      </trkpt>
      <trkpt lat="43.52075" lon="1.4572">
        <ele>258.4</ele>
        <time>2022-05-16T10:50:47Z</time>
      </trkpt>
      <trkpt lat="43.52072" lon="1.45724">
        <ele>258.6</ele>
        <time>2022-05-16T10:50:48Z</time>
      </trkpt>
      <trkpt lat="43.5207" lon="1.45728">
        <ele>258.9</ele>
        <time>2022-05-16T10:50:49Z</time>
      </trkpt>
      <trkpt lat="43.52067" lon="1.45732">
        <ele>259.1</ele>
        <time>2022-05-16T10:50:50Z</time>
      </trkpt>
      <trkpt lat="43.52065" lon="1.45735">
        <ele>259.3</ele>
        <time>2022-05-16T10:50:51Z</time>
      </trkpt>
      <trkpt lat="43.52062" lon="1.45739">
        <ele>259.6</ele>
        <time>2022-05-16T10:50:52Z</time>
      </trkpt>
      <trkpt lat="43.52059" lon="1.45743">
        <ele>259.8</ele>
        <time>2022-05-16T10:50:53Z</time>
      </trkpt>
      <trkpt lat="43.52057" lon="1.45747">
        <ele>260.1</ele>
        <time>2022-05-16T10:50:54Z</time>
      </trkpt>
      <trkpt lat="43.52055" lon="1.45753">
        <ele>260.4</ele>
        <time>2022-05-16T10:50:55Z</time>
      </trkpt>
      <trkpt lat="43.52052" lon="1.45757">
        <ele>260.7</ele>
        <time>2022-05-16T10:50:56Z</time>
      </trkpt>
      <trkpt lat="43.5205" lon="1.45761">
        <ele>260.9</ele>
        <time>2022-05-16T10:50:57Z</time>
      </trkpt>
      <trkpt lat="43.52049" lon="1.45766">
        <ele>261.1</ele>
        <time>2022-05-16T10:50:58Z</time>
      </trkpt>
      <trkpt lat="43.52047" lon="1.4577">
        <ele>261.3</ele>
        <time>2022-05-16T10:50:59Z</time>
      </trkpt>
      <trkpt lat="43.52044" lon="1.45774">
        <ele>261.5</ele>
        <time>2022-05-16T10:51:00Z</time>
      </trkpt>
      <trkpt lat="43.52041" lon="1.45778">
        <ele>261.7</ele>
        <time>2022-05-16T10:51:01Z</time>
      </trkpt>
      <trkpt lat="43.52039" lon="1.45783">
        <ele>262</ele>
        <time>2022-05-16T10:51:02Z</time>
      </trkpt>
      <trkpt lat="43.52036" lon="1.45787">
        <ele>262.2</ele>
        <time>2022-05-16T10:51:03Z</time>
      </trkpt>
      <trkpt lat="43.52033" lon="1.45791">
        <ele>262.4</ele>
        <time>2022-05-16T10:51:04Z</time>
      </trkpt>
      <trkpt lat="43.52031" lon="1.45797">
        <ele>262.6</ele>
        <time>2022-05-16T10:51:05Z</time>
      </trkpt>
      <trkpt lat="43.52028" lon="1.45802">
        <ele>262.9</ele>
        <time>2022-05-16T10:51:06Z</time>
      </trkpt>
      <trkpt lat="43.52026" lon="1.45807">
        <ele>263.1</ele>
        <time>2022-05-16T10:51:07Z</time>
      </trkpt>
      <trkpt lat="43.52024" lon="1.45812">
        <ele>263.4</ele>
        <time>2022-05-16T10:51:08Z</time>
      </trkpt>
      <trkpt lat="43.52021" lon="1.45816">
        <ele>263.6</ele>
        <time>2022-05-16T10:51:09Z</time>
      </trkpt>
      <trkpt lat="43.52018" lon="1.45821">
        <ele>263.9</ele>
        <time>2022-05-16T10:51:10Z</time>
      </trkpt>
      <trkpt lat="43.52015" lon="1.45825">
        <ele>264.1</ele>
        <time>2022-05-16T10:51:11Z</time>
      </trkpt>
      <trkpt lat="43.52011" lon="1.45829">
        <ele>264.3</ele>
        <time>2022-05-16T10:51:12Z</time>
      </trkpt>
      <trkpt lat="43.52008" lon="1.45834">
        <ele>264.5</ele>
        <time>2022-05-16T10:51:13Z</time>
      </trkpt>
      <trkpt lat="43.52005" lon="1.45838">
        <ele>264.7</ele>
        <time>2022-05-16T10:51:14Z</time>
      </trkpt>
      <trkpt lat="43.52002" lon="1.45843">
        <ele>264.9</ele>
        <time>2022-05-16T10:51:15Z</time>
      </trkpt>
      <trkpt lat="43.51999" lon="1.45847">
        <ele>265.1</ele>
        <time>2022-05-16T10:51:16Z</time>
      </trkpt>
      <trkpt lat="43.51996" lon="1.45852">
        <ele>265.3</ele>
        <time>2022-05-16T10:51:17Z</time>
      </trkpt>
      <trkpt lat="43.51993" lon="1.45856">
        <ele>265.5</ele>
        <time>2022-05-16T10:51:18Z</time>
      </trkpt>
      <trkpt lat="43.5199" lon="1.4586">
        <ele>265.6</ele>
        <time>2022-05-16T10:51:19Z</time>
      </trkpt>
      <trkpt lat="43.51986" lon="1.45865">
        <ele>265.8</ele>
        <time>2022-05-16T10:51:20Z</time>
      </trkpt>
      <trkpt lat="43.51983" lon="1.45869">
        <ele>266</ele>
        <time>2022-05-16T10:51:21Z</time>
      </trkpt>
      <trkpt lat="43.5198" lon="1.45873">
        <ele>266.2</ele>
        <time>2022-05-16T10:51:22Z</time>
      </trkpt>
      <trkpt lat="43.51977" lon="1.45878">
        <ele>266.4</ele>
        <time>2022-05-16T10:51:23Z</time>
      </trkpt>
      <trkpt lat="43.51974" lon="1.45882">
        <ele>266.5</ele>
        <time>2022-05-16T10:51:24Z</time>
      </trkpt>
      <trkpt lat="43.51971" lon="1.45886">
        <ele>266.7</ele>
        <time>2022-05-16T10:51:25Z</time>
      </trkpt>
      <trkpt lat="43.51968" lon="1.4589">
        <ele>266.9</ele>
        <time>2022-05-16T10:51:26Z</time>
      </trkpt>
      <trkpt lat="43.51965" lon="1.45895">
        <ele>267.1</ele>
        <time>2022-05-16T10:51:27Z</time>
      </trkpt>
      <trkpt lat="43.51962" lon="1.45899">
        <ele>267.2</ele>
        <time>2022-05-16T10:51:28Z</time>
      </trkpt>
      <trkpt lat="43.51958" lon="1.45903">
        <ele>267.4</ele>
        <time>2022-05-16T10:51:29Z</time>
      </trkpt>
      <trkpt lat="43.51955" lon="1.45908">
        <ele>267.6</ele>
        <time>2022-05-16T10:51:30Z</time>
      </trkpt>
      <trkpt lat="43.51952" lon="1.45912">
        <ele>267.7</ele>
        <time>2022-05-16T10:51:31Z</time>
      </trkpt>
      <trkpt lat="43.51949" lon="1.45917">
        <ele>267.9</ele>
        <time>2022-05-16T10:51:32Z</time>
      </trkpt>
      <trkpt lat="43.51946" lon="1.45922">
        <ele>268.1</ele>
        <time>2022-05-16T10:51:33Z</time>
      </trkpt>
      <trkpt lat="43.51944" lon="1.45928">
        <ele>268.3</ele>
        <time>2022-05-16T10:51:34Z</time>
      </trkpt>
      <trkpt lat="43.51943" lon="1.45933">
        <ele>268.5</ele>
        <time>2022-05-16T10:51:35Z</time>
      </trkpt>
      <trkpt lat="43.51941" lon="1.45939">
        <ele>268.8</ele>
        <time>2022-05-16T10:51:36Z</time>
      </trkpt>
      <trkpt lat="43.5194" lon="1.45944">
        <ele>269</ele>
        <time>2022-05-16T10:51:37Z</time>
      </trkpt>
      <trkpt lat="43.51939" lon="1.45947">
        <ele>269.1</ele>
        <time>2022-05-16T10:51:38Z</time>
      </trkpt>
      <trkpt lat="43.51938" lon="1.45948">
        <ele>269.2</ele>
        <time>2022-05-16T10:51:39Z</time>
      </trkpt>
      <trkpt lat="43.51938" lon="1.45949">
        <ele>269.2</ele>
        <time>2022-05-16T10:51:41Z</time>
      </trkpt>
      <trkpt lat="43.51938" lon="1.4595">
        <ele>269.3</ele>
        <time>2022-05-16T10:51:43Z</time>
      </trkpt>
      <trkpt lat="43.51938" lon="1.45951">
        <ele>269.3</ele>
        <time>2022-05-16T10:51:45Z</time>
      </trkpt>
      <trkpt lat="43.51937" lon="1.45951">
        <ele>269.3</ele>
        <time>2022-05-16T10:51:46Z</time>
      </trkpt>
      <trkpt lat="43.51937" lon="1.45952">
        <ele>269.4</ele>
        <time>2022-05-16T10:51:47Z</time>
      </trkpt>
      <trkpt lat="43.51937" lon="1.45953">
        <ele>269.4</ele>
        <time>2022-05-16T10:51:49Z</time>
      </trkpt>
      <trkpt lat="43.51936" lon="1.45957">
        <ele>269.6</ele>
        <time>2022-05-16T10:51:50Z</time>
      </trkpt>
      <trkpt lat="43.51935" lon="1.45959">
        <ele>269.7</ele>
        <time>2022-05-16T10:51:51Z</time>
      </trkpt>
      <trkpt lat="43.51934" lon="1.45965">
        <ele>269.9</ele>
        <time>2022-05-16T10:51:52Z</time>
      </trkpt>
      <trkpt lat="43.51932" lon="1.45971">
        <ele>270.1</ele>
        <time>2022-05-16T10:51:53Z</time>
      </trkpt>
      <trkpt lat="43.51931" lon="1.45977">
        <ele>270.2</ele>
        <time>2022-05-16T10:51:54Z</time>
      </trkpt>
      <trkpt lat="43.51929" lon="1.45983">
        <ele>270.4</ele>
        <time>2022-05-16T10:51:55Z</time>
      </trkpt>
      <trkpt lat="43.51928" lon="1.45989">
        <ele>270.6</ele>
        <time>2022-05-16T10:51:56Z</time>
      </trkpt>
      <trkpt lat="43.51926" lon="1.45995">
        <ele>270.7</ele>
        <time>2022-05-16T10:51:57Z</time>
      </trkpt>
      <trkpt lat="43.51924" lon="1.46001">
        <ele>270.8</ele>
        <time>2022-05-16T10:51:58Z</time>
      </trkpt>
      <trkpt lat="43.51922" lon="1.46007">
        <ele>271</ele>
        <time>2022-05-16T10:51:59Z</time>
      </trkpt>
      <trkpt lat="43.51921" lon="1.46013">
        <ele>271.1</ele>
        <time>2022-05-16T10:52:00Z</time>
      </trkpt>
      <trkpt lat="43.51919" lon="1.46019">
        <ele>271.2</ele>
        <time>2022-05-16T10:52:01Z</time>
      </trkpt>
      <trkpt lat="43.51917" lon="1.46025">
        <ele>271.3</ele>
        <time>2022-05-16T10:52:02Z</time>
      </trkpt>
      <trkpt lat="43.51916" lon="1.46031">
        <ele>271.4</ele>
        <time>2022-05-16T10:52:03Z</time>
      </trkpt>
      <trkpt lat="43.51914" lon="1.46037">
        <ele>271.5</ele>
        <time>2022-05-16T10:52:04Z</time>
      </trkpt>
      <trkpt lat="43.51912" lon="1.46043">
        <ele>271.6</ele>
        <time>2022-05-16T10:52:05Z</time>
      </trkpt>
      <trkpt lat="43.51912" lon="1.46049">
        <ele>271.6</ele>
        <time>2022-05-16T10:52:06Z</time>
      </trkpt>
      <trkpt lat="43.51912" lon="1.46056">
        <ele>271.7</ele>
        <time>2022-05-16T10:52:07Z</time>
      </trkpt>
      <trkpt lat="43.51911" lon="1.46062">
        <ele>271.7</ele>
        <time>2022-05-16T10:52:08Z</time>
      </trkpt>
      <trkpt lat="43.5191" lon="1.46068">
        <ele>271.6</ele>
        <time>2022-05-16T10:52:09Z</time>
      </trkpt>
      <trkpt lat="43.51908" lon="1.46073">
        <ele>271.6</ele>
        <time>2022-05-16T10:52:10Z</time>
      </trkpt>
      <trkpt lat="43.51906" lon="1.46079">
        <ele>271.5</ele>
        <time>2022-05-16T10:52:11Z</time>
      </trkpt>
      <trkpt lat="43.51905" lon="1.46085">
        <ele>271.4</ele>
        <time>2022-05-16T10:52:12Z</time>
      </trkpt>
      <trkpt lat="43.51903" lon="1.46091">
        <ele>271.3</ele>
        <time>2022-05-16T10:52:13Z</time>
      </trkpt>
      <trkpt lat="43.519" lon="1.46095">
        <ele>271.1</ele>
        <time>2022-05-16T10:52:14Z</time>
      </trkpt>
      <trkpt lat="43.51897" lon="1.46098">
        <ele>271.2</ele>
        <time>2022-05-16T10:52:15Z</time>
      </trkpt>
      <trkpt lat="43.51892" lon="1.46098">
        <ele>271.2</ele>
        <time>2022-05-16T10:52:16Z</time>
      </trkpt>
      <trkpt lat="43.51887" lon="1.46097">
        <ele>271.3</ele>
        <time>2022-05-16T10:52:17Z</time>
      </trkpt>
      <trkpt lat="43.51883" lon="1.46093">
        <ele>271.4</ele>
        <time>2022-05-16T10:52:18Z</time>
      </trkpt>
      <trkpt lat="43.51878" lon="1.4609">
        <ele>271.5</ele>
        <time>2022-05-16T10:52:19Z</time>
      </trkpt>
      <trkpt lat="43.51874" lon="1.46089">
        <ele>271.6</ele>
        <time>2022-05-16T10:52:20Z</time>
      </trkpt>
      <trkpt lat="43.51869" lon="1.46087">
        <ele>271.7</ele>
        <time>2022-05-16T10:52:21Z</time>
      </trkpt>
      <trkpt lat="43.51864" lon="1.46084">
        <ele>271.7</ele>
        <time>2022-05-16T10:52:22Z</time>
      </trkpt>
      <trkpt lat="43.51859" lon="1.46082">
        <ele>271.8</ele>
        <time>2022-05-16T10:52:23Z</time>
      </trkpt>
      <trkpt lat="43.51855" lon="1.46079">
        <ele>271.8</ele>
        <time>2022-05-16T10:52:24Z</time>
      </trkpt>
      <trkpt lat="43.5185" lon="1.46078">
        <ele>271.8</ele>
        <time>2022-05-16T10:52:25Z</time>
      </trkpt>
      <trkpt lat="43.51845" lon="1.46077">
        <ele>271.9</ele>
        <time>2022-05-16T10:52:26Z</time>
      </trkpt>
      <trkpt lat="43.5184" lon="1.46076">
        <ele>271.9</ele>
        <time>2022-05-16T10:52:27Z</time>
      </trkpt>
      <trkpt lat="43.51836" lon="1.46073">
        <ele>271.9</ele>
        <time>2022-05-16T10:52:28Z</time>
      </trkpt>
      <trkpt lat="43.51831" lon="1.46071">
        <ele>271.8</ele>
        <time>2022-05-16T10:52:29Z</time>
      </trkpt>
      <trkpt lat="43.51826" lon="1.4607">
        <ele>271.8</ele>
        <time>2022-05-16T10:52:30Z</time>
      </trkpt>
      <trkpt lat="43.51821" lon="1.46069">
        <ele>271.8</ele>
        <time>2022-05-16T10:52:31Z</time>
      </trkpt>
      <trkpt lat="43.51817" lon="1.46067">
        <ele>271.8</ele>
        <time>2022-05-16T10:52:32Z</time>
      </trkpt>
      <trkpt lat="43.51813" lon="1.46065">
        <ele>271.7</ele>
        <time>2022-05-16T10:52:33Z</time>
      </trkpt>
      <trkpt lat="43.51809" lon="1.46062">
        <ele>271.7</ele>
        <time>2022-05-16T10:52:34Z</time>
      </trkpt>
      <trkpt lat="43.51804" lon="1.46061">
        <ele>271.6</ele>
        <time>2022-05-16T10:52:35Z</time>
      </trkpt>
      <trkpt lat="43.518" lon="1.46059">
        <ele>271.5</ele>
        <time>2022-05-16T10:52:36Z</time>
      </trkpt>
      <trkpt lat="43.51796" lon="1.46057">
        <ele>271.4</ele>
        <time>2022-05-16T10:52:37Z</time>
      </trkpt>
      <trkpt lat="43.51792" lon="1.46054">
        <ele>271.3</ele>
        <time>2022-05-16T10:52:38Z</time>
      </trkpt>
      <trkpt lat="43.51788" lon="1.46051">
        <ele>271.2</ele>
        <time>2022-05-16T10:52:39Z</time>
      </trkpt>
      <trkpt lat="43.51783" lon="1.46048">
        <ele>271</ele>
        <time>2022-05-16T10:52:40Z</time>
      </trkpt>
      <trkpt lat="43.51779" lon="1.46046">
        <ele>270.9</ele>
        <time>2022-05-16T10:52:41Z</time>
      </trkpt>
      <trkpt lat="43.51774" lon="1.46044">
        <ele>270.7</ele>
        <time>2022-05-16T10:52:42Z</time>
      </trkpt>
      <trkpt lat="43.5177" lon="1.46041">
        <ele>270.5</ele>
        <time>2022-05-16T10:52:43Z</time>
      </trkpt>
      <trkpt lat="43.51766" lon="1.46038">
        <ele>270.3</ele>
        <time>2022-05-16T10:52:44Z</time>
      </trkpt>
      <trkpt lat="43.51761" lon="1.46036">
        <ele>270.1</ele>
        <time>2022-05-16T10:52:45Z</time>
      </trkpt>
      <trkpt lat="43.51756" lon="1.46033">
        <ele>269.8</ele>
        <time>2022-05-16T10:52:46Z</time>
      </trkpt>
      <trkpt lat="43.51752" lon="1.4603">
        <ele>269.6</ele>
        <time>2022-05-16T10:52:47Z</time>
      </trkpt>
      <trkpt lat="43.51747" lon="1.46027">
        <ele>269.4</ele>
        <time>2022-05-16T10:52:48Z</time>
      </trkpt>
      <trkpt lat="43.51741" lon="1.46024">
        <ele>269.1</ele>
        <time>2022-05-16T10:52:49Z</time>
      </trkpt>
      <trkpt lat="43.51735" lon="1.46021">
        <ele>268.8</ele>
        <time>2022-05-16T10:52:50Z</time>
      </trkpt>
      <trkpt lat="43.51729" lon="1.46017">
        <ele>268.4</ele>
        <time>2022-05-16T10:52:51Z</time>
      </trkpt>
      <trkpt lat="43.51723" lon="1.46014">
        <ele>268.1</ele>
        <time>2022-05-16T10:52:52Z</time>
      </trkpt>
      <trkpt lat="43.51716" lon="1.46011">
        <ele>267.8</ele>
        <time>2022-05-16T10:52:53Z</time>
      </trkpt>
      <trkpt lat="43.51709" lon="1.46006">
        <ele>267.5</ele>
        <time>2022-05-16T10:52:54Z</time>
      </trkpt>
      <trkpt lat="43.51702" lon="1.46002">
        <ele>267.2</ele>
        <time>2022-05-16T10:52:55Z</time>
      </trkpt>
      <trkpt lat="43.51696" lon="1.45998">
        <ele>266.9</ele>
        <time>2022-05-16T10:52:56Z</time>
      </trkpt>
      <trkpt lat="43.51688" lon="1.45995">
        <ele>266.7</ele>
        <time>2022-05-16T10:52:57Z</time>
      </trkpt>
      <trkpt lat="43.51681" lon="1.45991">
        <ele>266.6</ele>
        <time>2022-05-16T10:52:58Z</time>
      </trkpt>
      <trkpt lat="43.51674" lon="1.45986">
        <ele>266.5</ele>
        <time>2022-05-16T10:52:59Z</time>
      </trkpt>
      <trkpt lat="43.51668" lon="1.4598">
        <ele>266.4</ele>
        <time>2022-05-16T10:53:00Z</time>
      </trkpt>
      <trkpt lat="43.51661" lon="1.45977">
        <ele>266.4</ele>
        <time>2022-05-16T10:53:01Z</time>
      </trkpt>
      <trkpt lat="43.51656" lon="1.45976">
        <ele>266.6</ele>
        <time>2022-05-16T10:53:02Z</time>
      </trkpt>
      <trkpt lat="43.51651" lon="1.45978">
        <ele>266.6</ele>
        <time>2022-05-16T10:53:03Z</time>
      </trkpt>
      <trkpt lat="43.51647" lon="1.45983">
        <ele>266.6</ele>
        <time>2022-05-16T10:53:04Z</time>
      </trkpt>
      <trkpt lat="43.51645" lon="1.45992">
        <ele>266.7</ele>
        <time>2022-05-16T10:53:05Z</time>
      </trkpt>
      <trkpt lat="43.51644" lon="1.45999">
        <ele>266.9</ele>
        <time>2022-05-16T10:53:06Z</time>
      </trkpt>
      <trkpt lat="43.51642" lon="1.46007">
        <ele>267</ele>
        <time>2022-05-16T10:53:07Z</time>
      </trkpt>
      <trkpt lat="43.51639" lon="1.46013">
        <ele>267.1</ele>
        <time>2022-05-16T10:53:08Z</time>
      </trkpt>
      <trkpt lat="43.51636" lon="1.4602">
        <ele>267.3</ele>
        <time>2022-05-16T10:53:09Z</time>
      </trkpt>
      <trkpt lat="43.51635" lon="1.46027">
        <ele>267.5</ele>
        <time>2022-05-16T10:53:10Z</time>
      </trkpt>
      <trkpt lat="43.51634" lon="1.46034">
        <ele>267.7</ele>
        <time>2022-05-16T10:53:11Z</time>
      </trkpt>
      <trkpt lat="43.51632" lon="1.46041">
        <ele>267.9</ele>
        <time>2022-05-16T10:53:12Z</time>
      </trkpt>
      <trkpt lat="43.5163" lon="1.46048">
        <ele>268</ele>
        <time>2022-05-16T10:53:13Z</time>
      </trkpt>
      <trkpt lat="43.51628" lon="1.46054">
        <ele>268.2</ele>
        <time>2022-05-16T10:53:14Z</time>
      </trkpt>
      <trkpt lat="43.51627" lon="1.46061">
        <ele>268.4</ele>
        <time>2022-05-16T10:53:15Z</time>
      </trkpt>
      <trkpt lat="43.51626" lon="1.46068">
        <ele>268.5</ele>
        <time>2022-05-16T10:53:16Z</time>
      </trkpt>
      <trkpt lat="43.51625" lon="1.46074">
        <ele>268.7</ele>
        <time>2022-05-16T10:53:17Z</time>
      </trkpt>
      <trkpt lat="43.51624" lon="1.46079">
        <ele>268.8</ele>
        <time>2022-05-16T10:53:18Z</time>
      </trkpt>
      <trkpt lat="43.51623" lon="1.46084">
        <ele>269</ele>
        <time>2022-05-16T10:53:19Z</time>
      </trkpt>
      <trkpt lat="43.51622" lon="1.46088">
        <ele>269</ele>
        <time>2022-05-16T10:53:20Z</time>
      </trkpt>
      <trkpt lat="43.51623" lon="1.46092">
        <ele>269.1</ele>
        <time>2022-05-16T10:53:21Z</time>
      </trkpt>
      <trkpt lat="43.51623" lon="1.46094">
        <ele>269.1</ele>
        <time>2022-05-16T10:53:22Z</time>
      </trkpt>
      <trkpt lat="43.51622" lon="1.46098">
        <ele>269.2</ele>
        <time>2022-05-16T10:53:23Z</time>
      </trkpt>
      <trkpt lat="43.51621" lon="1.46099">
        <ele>269.2</ele>
        <time>2022-05-16T10:53:24Z</time>
      </trkpt>
      <trkpt lat="43.51619" lon="1.46103">
        <ele>269.3</ele>
        <time>2022-05-16T10:53:25Z</time>
      </trkpt>
      <trkpt lat="43.51617" lon="1.4611">
        <ele>269.5</ele>
        <time>2022-05-16T10:53:26Z</time>
      </trkpt>
      <trkpt lat="43.51616" lon="1.46115">
        <ele>269.6</ele>
        <time>2022-05-16T10:53:27Z</time>
      </trkpt>
      <trkpt lat="43.51614" lon="1.46121">
        <ele>269.7</ele>
        <time>2022-05-16T10:53:28Z</time>
      </trkpt>
      <trkpt lat="43.51613" lon="1.46126">
        <ele>269.8</ele>
        <time>2022-05-16T10:53:29Z</time>
      </trkpt>
      <trkpt lat="43.51612" lon="1.46132">
        <ele>270</ele>
        <time>2022-05-16T10:53:30Z</time>
      </trkpt>
      <trkpt lat="43.5161" lon="1.46137">
        <ele>270.1</ele>
        <time>2022-05-16T10:53:31Z</time>
      </trkpt>
      <trkpt lat="43.51609" lon="1.46142">
        <ele>270.2</ele>
        <time>2022-05-16T10:53:32Z</time>
      </trkpt>
      <trkpt lat="43.51607" lon="1.46148">
        <ele>270.3</ele>
        <time>2022-05-16T10:53:33Z</time>
      </trkpt>
      <trkpt lat="43.51605" lon="1.46153">
        <ele>270.5</ele>
        <time>2022-05-16T10:53:34Z</time>
      </trkpt>
      <trkpt lat="43.51604" lon="1.46158">
        <ele>270.6</ele>
        <time>2022-05-16T10:53:35Z</time>
      </trkpt>
      <trkpt lat="43.51603" lon="1.46164">
        <ele>270.7</ele>
        <time>2022-05-16T10:53:36Z</time>
      </trkpt>
      <trkpt lat="43.51601" lon="1.4617">
        <ele>270.9</ele>
        <time>2022-05-16T10:53:37Z</time>
      </trkpt>
      <trkpt lat="43.516" lon="1.46176">
        <ele>271</ele>
        <time>2022-05-16T10:53:38Z</time>
      </trkpt>
      <trkpt lat="43.51599" lon="1.46182">
        <ele>271.1</ele>
        <time>2022-05-16T10:53:39Z</time>
      </trkpt>
      <trkpt lat="43.51598" lon="1.46187">
        <ele>271.3</ele>
        <time>2022-05-16T10:53:40Z</time>
      </trkpt>
      <trkpt lat="43.51597" lon="1.46193">
        <ele>271.4</ele>
        <time>2022-05-16T10:53:41Z</time>
      </trkpt>
      <trkpt lat="43.51597" lon="1.46199">
        <ele>271.6</ele>
        <time>2022-05-16T10:53:42Z</time>
      </trkpt>
      <trkpt lat="43.51596" lon="1.46204">
        <ele>271.7</ele>
        <time>2022-05-16T10:53:43Z</time>
      </trkpt>
      <trkpt lat="43.51594" lon="1.4621">
        <ele>272</ele>
        <time>2022-05-16T10:53:44Z</time>
      </trkpt>
      <trkpt lat="43.51593" lon="1.46216">
        <ele>272.2</ele>
        <time>2022-05-16T10:53:45Z</time>
      </trkpt>
      <trkpt lat="43.51592" lon="1.4622">
        <ele>272.5</ele>
        <time>2022-05-16T10:53:46Z</time>
      </trkpt>
      <trkpt lat="43.51594" lon="1.46225">
        <ele>272.6</ele>
        <time>2022-05-16T10:53:47Z</time>
      </trkpt>
      <trkpt lat="43.51596" lon="1.4623">
        <ele>273</ele>
        <time>2022-05-16T10:53:48Z</time>
      </trkpt>
      <trkpt lat="43.51599" lon="1.46234">
        <ele>273</ele>
        <time>2022-05-16T10:53:49Z</time>
      </trkpt>
      <trkpt lat="43.51601" lon="1.46237">
        <ele>273</ele>
        <time>2022-05-16T10:53:50Z</time>
      </trkpt>
      <trkpt lat="43.51605" lon="1.4624">
        <ele>273</ele>
        <time>2022-05-16T10:53:51Z</time>
      </trkpt>
      <trkpt lat="43.51609" lon="1.46242">
        <ele>273.1</ele>
        <time>2022-05-16T10:53:52Z</time>
      </trkpt>
      <trkpt lat="43.51614" lon="1.46243">
        <ele>273.1</ele>
        <time>2022-05-16T10:53:53Z</time>
      </trkpt>
      <trkpt lat="43.51619" lon="1.46243">
        <ele>273.1</ele>
        <time>2022-05-16T10:53:54Z</time>
      </trkpt>
      <trkpt lat="43.51624" lon="1.46244">
        <ele>273.2</ele>
        <time>2022-05-16T10:53:55Z</time>
      </trkpt>
      <trkpt lat="43.51628" lon="1.46243">
        <ele>273.2</ele>
        <time>2022-05-16T10:53:56Z</time>
      </trkpt>
      <trkpt lat="43.51633" lon="1.46244">
        <ele>273.2</ele>
        <time>2022-05-16T10:53:57Z</time>
      </trkpt>
      <trkpt lat="43.51638" lon="1.46244">
        <ele>273.2</ele>
        <time>2022-05-16T10:53:58Z</time>
      </trkpt>
      <trkpt lat="43.51643" lon="1.46245">
        <ele>273.2</ele>
        <time>2022-05-16T10:53:59Z</time>
      </trkpt>
      <trkpt lat="43.51648" lon="1.46245">
        <ele>273.2</ele>
        <time>2022-05-16T10:54:00Z</time>
      </trkpt>
      <trkpt lat="43.51653" lon="1.46245">
        <ele>273.2</ele>
        <time>2022-05-16T10:54:01Z</time>
      </trkpt>
      <trkpt lat="43.51658" lon="1.46245">
        <ele>273.3</ele>
        <time>2022-05-16T10:54:02Z</time>
      </trkpt>
      <trkpt lat="43.51663" lon="1.46245">
        <ele>273.3</ele>
        <time>2022-05-16T10:54:03Z</time>
      </trkpt>
      <trkpt lat="43.51668" lon="1.46247">
        <ele>273.3</ele>
        <time>2022-05-16T10:54:04Z</time>
      </trkpt>
      <trkpt lat="43.51673" lon="1.46249">
        <ele>273.3</ele>
        <time>2022-05-16T10:54:05Z</time>
      </trkpt>
      <trkpt lat="43.51677" lon="1.4625">
        <ele>273.3</ele>
        <time>2022-05-16T10:54:06Z</time>
      </trkpt>
      <trkpt lat="43.51682" lon="1.46251">
        <ele>273.3</ele>
        <time>2022-05-16T10:54:07Z</time>
      </trkpt>
      <trkpt lat="43.51687" lon="1.46251">
        <ele>273.3</ele>
        <time>2022-05-16T10:54:08Z</time>
      </trkpt>
      <trkpt lat="43.51692" lon="1.46251">
        <ele>273.3</ele>
        <time>2022-05-16T10:54:09Z</time>
      </trkpt>
      <trkpt lat="43.51696" lon="1.46252">
        <ele>273.3</ele>
        <time>2022-05-16T10:54:10Z</time>
      </trkpt>
      <trkpt lat="43.51701" lon="1.46255">
        <ele>273.3</ele>
        <time>2022-05-16T10:54:11Z</time>
      </trkpt>
      <trkpt lat="43.51704" lon="1.46262">
        <ele>273</ele>
        <time>2022-05-16T10:54:12Z</time>
      </trkpt>
      <trkpt lat="43.51705" lon="1.4627">
        <ele>272.7</ele>
        <time>2022-05-16T10:54:13Z</time>
      </trkpt>
      <trkpt lat="43.51703" lon="1.46279">
        <ele>272.4</ele>
        <time>2022-05-16T10:54:14Z</time>
      </trkpt>
      <trkpt lat="43.51699" lon="1.46286">
        <ele>272.1</ele>
        <time>2022-05-16T10:54:15Z</time>
      </trkpt>
      <trkpt lat="43.51696" lon="1.46293">
        <ele>271.7</ele>
        <time>2022-05-16T10:54:16Z</time>
      </trkpt>
      <trkpt lat="43.51693" lon="1.463">
        <ele>271.3</ele>
        <time>2022-05-16T10:54:17Z</time>
      </trkpt>
      <trkpt lat="43.51689" lon="1.46308">
        <ele>270.9</ele>
        <time>2022-05-16T10:54:18Z</time>
      </trkpt>
      <trkpt lat="43.51686" lon="1.46315">
        <ele>270.4</ele>
        <time>2022-05-16T10:54:19Z</time>
      </trkpt>
      <trkpt lat="43.51682" lon="1.46323">
        <ele>269.9</ele>
        <time>2022-05-16T10:54:20Z</time>
      </trkpt>
      <trkpt lat="43.51677" lon="1.46332">
        <ele>269.4</ele>
        <time>2022-05-16T10:54:21Z</time>
      </trkpt>
      <trkpt lat="43.51673" lon="1.4634">
        <ele>268.8</ele>
        <time>2022-05-16T10:54:22Z</time>
      </trkpt>
      <trkpt lat="43.51668" lon="1.46349">
        <ele>268.3</ele>
        <time>2022-05-16T10:54:23Z</time>
      </trkpt>
      <trkpt lat="43.51663" lon="1.46358">
        <ele>267.7</ele>
        <time>2022-05-16T10:54:24Z</time>
      </trkpt>
      <trkpt lat="43.51659" lon="1.46368">
        <ele>267.1</ele>
        <time>2022-05-16T10:54:25Z</time>
      </trkpt>
      <trkpt lat="43.51654" lon="1.46378">
        <ele>266.7</ele>
        <time>2022-05-16T10:54:26Z</time>
      </trkpt>
      <trkpt lat="43.51649" lon="1.46387">
        <ele>266.4</ele>
        <time>2022-05-16T10:54:27Z</time>
      </trkpt>
      <trkpt lat="43.51643" lon="1.46396">
        <ele>266.3</ele>
        <time>2022-05-16T10:54:28Z</time>
      </trkpt>
      <trkpt lat="43.51639" lon="1.46405">
        <ele>266.3</ele>
        <time>2022-05-16T10:54:29Z</time>
      </trkpt>
      <trkpt lat="43.51634" lon="1.46414">
        <ele>266.3</ele>
        <time>2022-05-16T10:54:30Z</time>
      </trkpt>
      <trkpt lat="43.5163" lon="1.46421">
        <ele>266.4</ele>
        <time>2022-05-16T10:54:31Z</time>
      </trkpt>
      <trkpt lat="43.51627" lon="1.46429">
        <ele>266.5</ele>
        <time>2022-05-16T10:54:32Z</time>
      </trkpt>
      <trkpt lat="43.51623" lon="1.46436">
        <ele>266.5</ele>
        <time>2022-05-16T10:54:33Z</time>
      </trkpt>
      <trkpt lat="43.5162" lon="1.46444">
        <ele>266.6</ele>
        <time>2022-05-16T10:54:34Z</time>
      </trkpt>
      <trkpt lat="43.51616" lon="1.46451">
        <ele>266.7</ele>
        <time>2022-05-16T10:54:35Z</time>
      </trkpt>
      <trkpt lat="43.51612" lon="1.46457">
        <ele>266.7</ele>
        <time>2022-05-16T10:54:36Z</time>
      </trkpt>
      <trkpt lat="43.51608" lon="1.46463">
        <ele>266.8</ele>
        <time>2022-05-16T10:54:37Z</time>
      </trkpt>
      <trkpt lat="43.51605" lon="1.46468">
        <ele>266.8</ele>
        <time>2022-05-16T10:54:38Z</time>
      </trkpt>
      <trkpt lat="43.51602" lon="1.46474">
        <ele>266.9</ele>
        <time>2022-05-16T10:54:39Z</time>
      </trkpt>
      <trkpt lat="43.51598" lon="1.46479">
        <ele>266.9</ele>
        <time>2022-05-16T10:54:40Z</time>
      </trkpt>
      <trkpt lat="43.51595" lon="1.46485">
        <ele>266.9</ele>
        <time>2022-05-16T10:54:41Z</time>
      </trkpt>
      <trkpt lat="43.51592" lon="1.46492">
        <ele>267</ele>
        <time>2022-05-16T10:54:42Z</time>
      </trkpt>
      <trkpt lat="43.51589" lon="1.46498">
        <ele>267</ele>
        <time>2022-05-16T10:54:43Z</time>
      </trkpt>
      <trkpt lat="43.51587" lon="1.46504">
        <ele>267</ele>
        <time>2022-05-16T10:54:44Z</time>
      </trkpt>
      <trkpt lat="43.51585" lon="1.46511">
        <ele>267</ele>
        <time>2022-05-16T10:54:45Z</time>
      </trkpt>
      <trkpt lat="43.51581" lon="1.46516">
        <ele>267</ele>
        <time>2022-05-16T10:54:46Z</time>
      </trkpt>
      <trkpt lat="43.51576" lon="1.46521">
        <ele>267</ele>
        <time>2022-05-16T10:54:47Z</time>
      </trkpt>
      <trkpt lat="43.51573" lon="1.46527">
        <ele>267</ele>
        <time>2022-05-16T10:54:48Z</time>
      </trkpt>
      <trkpt lat="43.5157" lon="1.46533">
        <ele>267</ele>
        <time>2022-05-16T10:54:49Z</time>
      </trkpt>
      <trkpt lat="43.51567" lon="1.4654">
        <ele>267</ele>
        <time>2022-05-16T10:54:50Z</time>
      </trkpt>
      <trkpt lat="43.51564" lon="1.46547">
        <ele>267</ele>
        <time>2022-05-16T10:54:51Z</time>
      </trkpt>
      <trkpt lat="43.51561" lon="1.46555">
        <ele>266.9</ele>
        <time>2022-05-16T10:54:52Z</time>
      </trkpt>
      <trkpt lat="43.51559" lon="1.46562">
        <ele>266.9</ele>
        <time>2022-05-16T10:54:53Z</time>
      </trkpt>
      <trkpt lat="43.51556" lon="1.46569">
        <ele>267</ele>
        <time>2022-05-16T10:54:54Z</time>
      </trkpt>
      <trkpt lat="43.51554" lon="1.46577">
        <ele>267</ele>
        <time>2022-05-16T10:54:55Z</time>
      </trkpt>
      <trkpt lat="43.51552" lon="1.46584">
        <ele>267</ele>
        <time>2022-05-16T10:54:56Z</time>
      </trkpt>
      <trkpt lat="43.51549" lon="1.46591">
        <ele>267.1</ele>
        <time>2022-05-16T10:54:57Z</time>
      </trkpt>
      <trkpt lat="43.51547" lon="1.46598">
        <ele>267.1</ele>
        <time>2022-05-16T10:54:58Z</time>
      </trkpt>
      <trkpt lat="43.51544" lon="1.46605">
        <ele>267.2</ele>
        <time>2022-05-16T10:54:59Z</time>
      </trkpt>
      <trkpt lat="43.51542" lon="1.46612">
        <ele>267.3</ele>
        <time>2022-05-16T10:55:00Z</time>
      </trkpt>
      <trkpt lat="43.51539" lon="1.46618">
        <ele>267.4</ele>
        <time>2022-05-16T10:55:01Z</time>
      </trkpt>
      <trkpt lat="43.51537" lon="1.46625">
        <ele>267.5</ele>
        <time>2022-05-16T10:55:02Z</time>
      </trkpt>
      <trkpt lat="43.51535" lon="1.46632">
        <ele>267.6</ele>
        <time>2022-05-16T10:55:03Z</time>
      </trkpt>
      <trkpt lat="43.51532" lon="1.46638">
        <ele>267.7</ele>
        <time>2022-05-16T10:55:04Z</time>
      </trkpt>
      <trkpt lat="43.5153" lon="1.46644">
        <ele>267.8</ele>
        <time>2022-05-16T10:55:05Z</time>
      </trkpt>
      <trkpt lat="43.51527" lon="1.46651">
        <ele>267.9</ele>
        <time>2022-05-16T10:55:06Z</time>
      </trkpt>
      <trkpt lat="43.51525" lon="1.46657">
        <ele>267.9</ele>
        <time>2022-05-16T10:55:07Z</time>
      </trkpt>
      <trkpt lat="43.51522" lon="1.46664">
        <ele>267.9</ele>
        <time>2022-05-16T10:55:08Z</time>
      </trkpt>
      <trkpt lat="43.51519" lon="1.46671">
        <ele>268</ele>
        <time>2022-05-16T10:55:09Z</time>
      </trkpt>
      <trkpt lat="43.51516" lon="1.46678">
        <ele>268</ele>
        <time>2022-05-16T10:55:10Z</time>
      </trkpt>
      <trkpt lat="43.51514" lon="1.46685">
        <ele>268.1</ele>
        <time>2022-05-16T10:55:11Z</time>
      </trkpt>
      <trkpt lat="43.51511" lon="1.46692">
        <ele>268.1</ele>
        <time>2022-05-16T10:55:12Z</time>
      </trkpt>
      <trkpt lat="43.51508" lon="1.46698">
        <ele>268.2</ele>
        <time>2022-05-16T10:55:13Z</time>
      </trkpt>
      <trkpt lat="43.51505" lon="1.46705">
        <ele>268.2</ele>
        <time>2022-05-16T10:55:14Z</time>
      </trkpt>
      <trkpt lat="43.51503" lon="1.46712">
        <ele>268.2</ele>
        <time>2022-05-16T10:55:15Z</time>
      </trkpt>
      <trkpt lat="43.51502" lon="1.46719">
        <ele>268.3</ele>
        <time>2022-05-16T10:55:16Z</time>
      </trkpt>
      <trkpt lat="43.51499" lon="1.46727">
        <ele>268.3</ele>
        <time>2022-05-16T10:55:17Z</time>
      </trkpt>
      <trkpt lat="43.51497" lon="1.46734">
        <ele>268.4</ele>
        <time>2022-05-16T10:55:18Z</time>
      </trkpt>
      <trkpt lat="43.51494" lon="1.46741">
        <ele>268.4</ele>
        <time>2022-05-16T10:55:19Z</time>
      </trkpt>
      <trkpt lat="43.51492" lon="1.46748">
        <ele>268.4</ele>
        <time>2022-05-16T10:55:20Z</time>
      </trkpt>
      <trkpt lat="43.5149" lon="1.46755">
        <ele>268.4</ele>
        <time>2022-05-16T10:55:21Z</time>
      </trkpt>
      <trkpt lat="43.51487" lon="1.46762">
        <ele>268.4</ele>
        <time>2022-05-16T10:55:22Z</time>
      </trkpt>
      <trkpt lat="43.51485" lon="1.46769">
        <ele>268.3</ele>
        <time>2022-05-16T10:55:23Z</time>
      </trkpt>
      <trkpt lat="43.51482" lon="1.46776">
        <ele>268.3</ele>
        <time>2022-05-16T10:55:24Z</time>
      </trkpt>
      <trkpt lat="43.5148" lon="1.46783">
        <ele>268.2</ele>
        <time>2022-05-16T10:55:25Z</time>
      </trkpt>
      <trkpt lat="43.51477" lon="1.46791">
        <ele>268</ele>
        <time>2022-05-16T10:55:26Z</time>
      </trkpt>
      <trkpt lat="43.51473" lon="1.46797">
        <ele>267.9</ele>
        <time>2022-05-16T10:55:27Z</time>
      </trkpt>
      <trkpt lat="43.5147" lon="1.46804">
        <ele>267.7</ele>
        <time>2022-05-16T10:55:28Z</time>
      </trkpt>
      <trkpt lat="43.51467" lon="1.46811">
        <ele>267.5</ele>
        <time>2022-05-16T10:55:29Z</time>
      </trkpt>
      <trkpt lat="43.51464" lon="1.46819">
        <ele>267.3</ele>
        <time>2022-05-16T10:55:30Z</time>
      </trkpt>
      <trkpt lat="43.5146" lon="1.46826">
        <ele>267.2</ele>
        <time>2022-05-16T10:55:31Z</time>
      </trkpt>
      <trkpt lat="43.51456" lon="1.46833">
        <ele>267</ele>
        <time>2022-05-16T10:55:32Z</time>
      </trkpt>
      <trkpt lat="43.51452" lon="1.46839">
        <ele>266.8</ele>
        <time>2022-05-16T10:55:33Z</time>
      </trkpt>
      <trkpt lat="43.51448" lon="1.46845">
        <ele>266.8</ele>
        <time>2022-05-16T10:55:34Z</time>
      </trkpt>
      <trkpt lat="43.51443" lon="1.46851">
        <ele>266.7</ele>
        <time>2022-05-16T10:55:35Z</time>
      </trkpt>
      <trkpt lat="43.51439" lon="1.46857">
        <ele>266.6</ele>
        <time>2022-05-16T10:55:36Z</time>
      </trkpt>
      <trkpt lat="43.51436" lon="1.46864">
        <ele>266.4</ele>
        <time>2022-05-16T10:55:37Z</time>
      </trkpt>
      <trkpt lat="43.51433" lon="1.46871">
        <ele>266.2</ele>
        <time>2022-05-16T10:55:38Z</time>
      </trkpt>
      <trkpt lat="43.51431" lon="1.46879">
        <ele>265.9</ele>
        <time>2022-05-16T10:55:39Z</time>
      </trkpt>
      <trkpt lat="43.51431" lon="1.46888">
        <ele>265.5</ele>
        <time>2022-05-16T10:55:40Z</time>
      </trkpt>
      <trkpt lat="43.51431" lon="1.46897">
        <ele>265</ele>
        <time>2022-05-16T10:55:41Z</time>
      </trkpt>
      <trkpt lat="43.5143" lon="1.46907">
        <ele>264.3</ele>
        <time>2022-05-16T10:55:42Z</time>
      </trkpt>
      <trkpt lat="43.51429" lon="1.46918">
        <ele>263.6</ele>
        <time>2022-05-16T10:55:43Z</time>
      </trkpt>
      <trkpt lat="43.51429" lon="1.46929">
        <ele>263</ele>
        <time>2022-05-16T10:55:44Z</time>
      </trkpt>
      <trkpt lat="43.51429" lon="1.46941">
        <ele>262.3</ele>
        <time>2022-05-16T10:55:45Z</time>
      </trkpt>
      <trkpt lat="43.51429" lon="1.46954">
        <ele>261.7</ele>
        <time>2022-05-16T10:55:46Z</time>
      </trkpt>
      <trkpt lat="43.51427" lon="1.46966">
        <ele>261.2</ele>
        <time>2022-05-16T10:55:47Z</time>
      </trkpt>
      <trkpt lat="43.51424" lon="1.46978">
        <ele>260.9</ele>
        <time>2022-05-16T10:55:48Z</time>
      </trkpt>
      <trkpt lat="43.51423" lon="1.4699">
        <ele>260.6</ele>
        <time>2022-05-16T10:55:49Z</time>
      </trkpt>
      <trkpt lat="43.51422" lon="1.47003">
        <ele>260.3</ele>
        <time>2022-05-16T10:55:50Z</time>
      </trkpt>
      <trkpt lat="43.5142" lon="1.4701">
        <ele>260.2</ele>
        <time>2022-05-16T10:55:51Z</time>
      </trkpt>
      <trkpt lat="43.51418" lon="1.47021">
        <ele>260</ele>
        <time>2022-05-16T10:55:52Z</time>
      </trkpt>
      <trkpt lat="43.51415" lon="1.47031">
        <ele>259.7</ele>
        <time>2022-05-16T10:55:53Z</time>
      </trkpt>
      <trkpt lat="43.51413" lon="1.47042">
        <ele>259.5</ele>
        <time>2022-05-16T10:55:54Z</time>
      </trkpt>
      <trkpt lat="43.51411" lon="1.47053">
        <ele>259.2</ele>
        <time>2022-05-16T10:55:55Z</time>
      </trkpt>
      <trkpt lat="43.5141" lon="1.47062">
        <ele>258.9</ele>
        <time>2022-05-16T10:55:56Z</time>
      </trkpt>
      <trkpt lat="43.51407" lon="1.47071">
        <ele>258.6</ele>
        <time>2022-05-16T10:55:57Z</time>
      </trkpt>
      <trkpt lat="43.51405" lon="1.47081">
        <ele>258.2</ele>
        <time>2022-05-16T10:55:58Z</time>
      </trkpt>
      <trkpt lat="43.51403" lon="1.47092">
        <ele>257.8</ele>
        <time>2022-05-16T10:55:59Z</time>
      </trkpt>
      <trkpt lat="43.51401" lon="1.47101">
        <ele>257.4</ele>
        <time>2022-05-16T10:56:00Z</time>
      </trkpt>
      <trkpt lat="43.51398" lon="1.47112">
        <ele>257</ele>
        <time>2022-05-16T10:56:01Z</time>
      </trkpt>
      <trkpt lat="43.51396" lon="1.47123">
        <ele>256.7</ele>
        <time>2022-05-16T10:56:02Z</time>
      </trkpt>
      <trkpt lat="43.51395" lon="1.47133">
        <ele>256.5</ele>
        <time>2022-05-16T10:56:03Z</time>
      </trkpt>
      <trkpt lat="43.51392" lon="1.47143">
        <ele>256.2</ele>
        <time>2022-05-16T10:56:04Z</time>
      </trkpt>
      <trkpt lat="43.5139" lon="1.47152">
        <ele>256</ele>
        <time>2022-05-16T10:56:05Z</time>
      </trkpt>
      <trkpt lat="43.51388" lon="1.47162">
        <ele>255.7</ele>
        <time>2022-05-16T10:56:06Z</time>
      </trkpt>
      <trkpt lat="43.51386" lon="1.47173">
        <ele>255.5</ele>
        <time>2022-05-16T10:56:07Z</time>
      </trkpt>
      <trkpt lat="43.51383" lon="1.47182">
        <ele>255.2</ele>
        <time>2022-05-16T10:56:08Z</time>
      </trkpt>
      <trkpt lat="43.51382" lon="1.47192">
        <ele>254.9</ele>
        <time>2022-05-16T10:56:09Z</time>
      </trkpt>
      <trkpt lat="43.51381" lon="1.472">
        <ele>254.6</ele>
        <time>2022-05-16T10:56:10Z</time>
      </trkpt>
      <trkpt lat="43.51381" lon="1.47209">
        <ele>254.3</ele>
        <time>2022-05-16T10:56:11Z</time>
      </trkpt>
      <trkpt lat="43.51383" lon="1.47216">
        <ele>253.2</ele>
        <time>2022-05-16T10:56:12Z</time>
      </trkpt>
      <trkpt lat="43.51384" lon="1.4722">
        <ele>252.9</ele>
        <time>2022-05-16T10:56:13Z</time>
      </trkpt>
      <trkpt lat="43.51387" lon="1.47217">
        <ele>252.6</ele>
        <time>2022-05-16T10:56:14Z</time>
      </trkpt>
      <trkpt lat="43.51389" lon="1.47215">
        <ele>252.3</ele>
        <time>2022-05-16T10:56:15Z</time>
      </trkpt>
      <trkpt lat="43.51393" lon="1.47213">
        <ele>251.9</ele>
        <time>2022-05-16T10:56:16Z</time>
      </trkpt>
      <trkpt lat="43.51393" lon="1.47209">
        <ele>251.5</ele>
        <time>2022-05-16T10:56:17Z</time>
      </trkpt>
      <trkpt lat="43.51393" lon="1.47207">
        <ele>251.4</ele>
        <time>2022-05-16T10:56:18Z</time>
      </trkpt>
      <trkpt lat="43.51394" lon="1.47203">
        <ele>251.1</ele>
        <time>2022-05-16T10:56:19Z</time>
      </trkpt>
      <trkpt lat="43.51396" lon="1.47199">
        <ele>250.7</ele>
        <time>2022-05-16T10:56:20Z</time>
      </trkpt>
      <trkpt lat="43.51401" lon="1.47194">
        <ele>250.2</ele>
        <time>2022-05-16T10:56:21Z</time>
      </trkpt>
      <trkpt lat="43.51406" lon="1.4719">
        <ele>249.9</ele>
        <time>2022-05-16T10:56:22Z</time>
      </trkpt>
      <trkpt lat="43.51411" lon="1.47188">
        <ele>249.7</ele>
        <time>2022-05-16T10:56:23Z</time>
      </trkpt>
      <trkpt lat="43.51413" lon="1.47188">
        <ele>249.6</ele>
        <time>2022-05-16T10:56:24Z</time>
      </trkpt>
      <trkpt lat="43.51413" lon="1.47185">
        <ele>249.6</ele>
        <time>2022-05-16T10:56:25Z</time>
      </trkpt>
      <trkpt lat="43.51413" lon="1.47183">
        <ele>249.5</ele>
        <time>2022-05-16T10:56:26Z</time>
      </trkpt>
      <trkpt lat="43.51413" lon="1.47181">
        <ele>249.5</ele>
        <time>2022-05-16T10:56:27Z</time>
      </trkpt>
      <trkpt lat="43.51416" lon="1.47178">
        <ele>249.4</ele>
        <time>2022-05-16T10:56:28Z</time>
      </trkpt>
      <trkpt lat="43.51418" lon="1.47178">
        <ele>249.4</ele>
        <time>2022-05-16T10:56:29Z</time>
      </trkpt>
      <trkpt lat="43.51421" lon="1.47177">
        <ele>249.3</ele>
        <time>2022-05-16T10:56:30Z</time>
      </trkpt>
      <trkpt lat="43.51425" lon="1.47173">
        <ele>249.1</ele>
        <time>2022-05-16T10:56:31Z</time>
      </trkpt>
      <trkpt lat="43.51427" lon="1.47167">
        <ele>249</ele>
        <time>2022-05-16T10:56:32Z</time>
      </trkpt>
      <trkpt lat="43.5143" lon="1.47163">
        <ele>248.9</ele>
        <time>2022-05-16T10:56:33Z</time>
      </trkpt>
      <trkpt lat="43.51433" lon="1.47157">
        <ele>248.8</ele>
        <time>2022-05-16T10:56:34Z</time>
      </trkpt>
      <trkpt lat="43.51436" lon="1.47153">
        <ele>248.6</ele>
        <time>2022-05-16T10:56:35Z</time>
      </trkpt>
      <trkpt lat="43.51441" lon="1.47149">
        <ele>248.5</ele>
        <time>2022-05-16T10:56:36Z</time>
      </trkpt>
      <trkpt lat="43.51446" lon="1.47144">
        <ele>248.4</ele>
        <time>2022-05-16T10:56:37Z</time>
      </trkpt>
      <trkpt lat="43.51451" lon="1.47141">
        <ele>248.2</ele>
        <time>2022-05-16T10:56:38Z</time>
      </trkpt>
      <trkpt lat="43.51455" lon="1.47136">
        <ele>248</ele>
        <time>2022-05-16T10:56:39Z</time>
      </trkpt>
      <trkpt lat="43.51458" lon="1.47131">
        <ele>247.7</ele>
        <time>2022-05-16T10:56:40Z</time>
      </trkpt>
      <trkpt lat="43.51462" lon="1.47126">
        <ele>247.3</ele>
        <time>2022-05-16T10:56:41Z</time>
      </trkpt>
      <trkpt lat="43.51467" lon="1.47122">
        <ele>246.9</ele>
        <time>2022-05-16T10:56:42Z</time>
      </trkpt>
      <trkpt lat="43.51471" lon="1.47118">
        <ele>246.6</ele>
        <time>2022-05-16T10:56:43Z</time>
      </trkpt>
      <trkpt lat="43.51473" lon="1.47117">
        <ele>246.4</ele>
        <time>2022-05-16T10:56:44Z</time>
      </trkpt>
      <trkpt lat="43.51475" lon="1.47116">
        <ele>246.3</ele>
        <time>2022-05-16T10:56:45Z</time>
      </trkpt>
      <trkpt lat="43.51479" lon="1.4711">
        <ele>246</ele>
        <time>2022-05-16T10:56:46Z</time>
      </trkpt>
      <trkpt lat="43.51482" lon="1.47104">
        <ele>245.7</ele>
        <time>2022-05-16T10:56:47Z</time>
      </trkpt>
      <trkpt lat="43.51487" lon="1.47097">
        <ele>245.5</ele>
        <time>2022-05-16T10:56:48Z</time>
      </trkpt>
      <trkpt lat="43.5149" lon="1.47093">
        <ele>245.3</ele>
        <time>2022-05-16T10:56:49Z</time>
      </trkpt>
      <trkpt lat="43.51494" lon="1.47089">
        <ele>245</ele>
        <time>2022-05-16T10:56:50Z</time>
      </trkpt>
      <trkpt lat="43.51498" lon="1.47087">
        <ele>244.6</ele>
        <time>2022-05-16T10:56:51Z</time>
      </trkpt>
      <trkpt lat="43.515" lon="1.47084">
        <ele>244.3</ele>
        <time>2022-05-16T10:56:52Z</time>
      </trkpt>
      <trkpt lat="43.51503" lon="1.4708">
        <ele>243.9</ele>
        <time>2022-05-16T10:56:53Z</time>
      </trkpt>
      <trkpt lat="43.51505" lon="1.47075">
        <ele>243.3</ele>
        <time>2022-05-16T10:56:54Z</time>
      </trkpt>
      <trkpt lat="43.51508" lon="1.47071">
        <ele>242.7</ele>
        <time>2022-05-16T10:56:55Z</time>
      </trkpt>
      <trkpt lat="43.51512" lon="1.47068">
        <ele>242</ele>
        <time>2022-05-16T10:56:56Z</time>
      </trkpt>
      <trkpt lat="43.51518" lon="1.47065">
        <ele>241.3</ele>
        <time>2022-05-16T10:56:57Z</time>
      </trkpt>
      <trkpt lat="43.5152" lon="1.4707">
        <ele>240.8</ele>
        <time>2022-05-16T10:56:58Z</time>
      </trkpt>
      <trkpt lat="43.5152" lon="1.47076">
        <ele>240.4</ele>
        <time>2022-05-16T10:56:59Z</time>
      </trkpt>
      <trkpt lat="43.51519" lon="1.4708">
        <ele>240.3</ele>
        <time>2022-05-16T10:57:00Z</time>
      </trkpt>
      <trkpt lat="43.51521" lon="1.47083">
        <ele>240.2</ele>
        <time>2022-05-16T10:57:01Z</time>
      </trkpt>
      <trkpt lat="43.51525" lon="1.47084">
        <ele>240.1</ele>
        <time>2022-05-16T10:57:02Z</time>
      </trkpt>
      <trkpt lat="43.51527" lon="1.47083">
        <ele>240.1</ele>
        <time>2022-05-16T10:57:03Z</time>
      </trkpt>
      <trkpt lat="43.51531" lon="1.4708">
        <ele>240.2</ele>
        <time>2022-05-16T10:57:04Z</time>
      </trkpt>
      <trkpt lat="43.51538" lon="1.47079">
        <ele>240.4</ele>
        <time>2022-05-16T10:57:05Z</time>
      </trkpt>
      <trkpt lat="43.51543" lon="1.47076">
        <ele>240.6</ele>
        <time>2022-05-16T10:57:06Z</time>
      </trkpt>
      <trkpt lat="43.51547" lon="1.47073">
        <ele>240.8</ele>
        <time>2022-05-16T10:57:07Z</time>
      </trkpt>
      <trkpt lat="43.51551" lon="1.47071">
        <ele>241</ele>
        <time>2022-05-16T10:57:08Z</time>
      </trkpt>
      <trkpt lat="43.51556" lon="1.47069">
        <ele>241.3</ele>
        <time>2022-05-16T10:57:09Z</time>
      </trkpt>
      <trkpt lat="43.5156" lon="1.47066">
        <ele>241.4</ele>
        <time>2022-05-16T10:57:10Z</time>
      </trkpt>
      <trkpt lat="43.51563" lon="1.47061">
        <ele>241.6</ele>
        <time>2022-05-16T10:57:11Z</time>
      </trkpt>
      <trkpt lat="43.51566" lon="1.47057">
        <ele>241.6</ele>
        <time>2022-05-16T10:57:12Z</time>
      </trkpt>
      <trkpt lat="43.5157" lon="1.47054">
        <ele>241.6</ele>
        <time>2022-05-16T10:57:13Z</time>
      </trkpt>
      <trkpt lat="43.51573" lon="1.47051">
        <ele>241.4</ele>
        <time>2022-05-16T10:57:14Z</time>
      </trkpt>
      <trkpt lat="43.51576" lon="1.47047">
        <ele>241.1</ele>
        <time>2022-05-16T10:57:15Z</time>
      </trkpt>
      <trkpt lat="43.51577" lon="1.47046">
        <ele>241</ele>
        <time>2022-05-16T10:57:16Z</time>
      </trkpt>
      <trkpt lat="43.5158" lon="1.47044">
        <ele>240.6</ele>
        <time>2022-05-16T10:57:17Z</time>
      </trkpt>
      <trkpt lat="43.51582" lon="1.47046">
        <ele>240.3</ele>
        <time>2022-05-16T10:57:18Z</time>
      </trkpt>
      <trkpt lat="43.51586" lon="1.4705">
        <ele>239.5</ele>
        <time>2022-05-16T10:57:19Z</time>
      </trkpt>
      <trkpt lat="43.5159" lon="1.47054">
        <ele>238.7</ele>
        <time>2022-05-16T10:57:20Z</time>
      </trkpt>
      <trkpt lat="43.51592" lon="1.4706">
        <ele>237.7</ele>
        <time>2022-05-16T10:57:21Z</time>
      </trkpt>
      <trkpt lat="43.51593" lon="1.47065">
        <ele>237</ele>
        <time>2022-05-16T10:57:22Z</time>
      </trkpt>
      <trkpt lat="43.51595" lon="1.47069">
        <ele>236.3</ele>
        <time>2022-05-16T10:57:23Z</time>
      </trkpt>
      <trkpt lat="43.51596" lon="1.47075">
        <ele>235.5</ele>
        <time>2022-05-16T10:57:24Z</time>
      </trkpt>
      <trkpt lat="43.51596" lon="1.47077">
        <ele>235.1</ele>
        <time>2022-05-16T10:57:25Z</time>
      </trkpt>
      <trkpt lat="43.51596" lon="1.47082">
        <ele>234.5</ele>
        <time>2022-05-16T10:57:26Z</time>
      </trkpt>
      <trkpt lat="43.51596" lon="1.47083">
        <ele>234.3</ele>
        <time>2022-05-16T10:57:27Z</time>
      </trkpt>
      <trkpt lat="43.51596" lon="1.47086">
        <ele>234</ele>
        <time>2022-05-16T10:57:28Z</time>
      </trkpt>
      <trkpt lat="43.51599" lon="1.47089">
        <ele>233.5</ele>
        <time>2022-05-16T10:57:29Z</time>
      </trkpt>
      <trkpt lat="43.51601" lon="1.47089">
        <ele>233.3</ele>
        <time>2022-05-16T10:57:30Z</time>
      </trkpt>
      <trkpt lat="43.51604" lon="1.47087">
        <ele>232.9</ele>
        <time>2022-05-16T10:57:31Z</time>
      </trkpt>
      <trkpt lat="43.51609" lon="1.47083">
        <ele>232.4</ele>
        <time>2022-05-16T10:57:32Z</time>
      </trkpt>
      <trkpt lat="43.51613" lon="1.47081">
        <ele>232.1</ele>
        <time>2022-05-16T10:57:33Z</time>
      </trkpt>
      <trkpt lat="43.51617" lon="1.47082">
        <ele>231.9</ele>
        <time>2022-05-16T10:57:34Z</time>
      </trkpt>
      <trkpt lat="43.51621" lon="1.47086">
        <ele>231.7</ele>
        <time>2022-05-16T10:57:35Z</time>
      </trkpt>
      <trkpt lat="43.51624" lon="1.47086">
        <ele>231.6</ele>
        <time>2022-05-16T10:57:36Z</time>
      </trkpt>
      <trkpt lat="43.51626" lon="1.47085">
        <ele>231.5</ele>
        <time>2022-05-16T10:57:37Z</time>
      </trkpt>
      <trkpt lat="43.5163" lon="1.47082">
        <ele>231.3</ele>
        <time>2022-05-16T10:57:38Z</time>
      </trkpt>
      <trkpt lat="43.51633" lon="1.47075">
        <ele>231</ele>
        <time>2022-05-16T10:57:39Z</time>
      </trkpt>
      <trkpt lat="43.51635" lon="1.47071">
        <ele>230.8</ele>
        <time>2022-05-16T10:57:40Z</time>
      </trkpt>
      <trkpt lat="43.51638" lon="1.47066">
        <ele>230.4</ele>
        <time>2022-05-16T10:57:41Z</time>
      </trkpt>
      <trkpt lat="43.51643" lon="1.47062">
        <ele>230.1</ele>
        <time>2022-05-16T10:57:42Z</time>
      </trkpt>
      <trkpt lat="43.51646" lon="1.47058">
        <ele>229.7</ele>
        <time>2022-05-16T10:57:43Z</time>
      </trkpt>
      <trkpt lat="43.51646" lon="1.47054">
        <ele>229.5</ele>
        <time>2022-05-16T10:57:44Z</time>
      </trkpt>
      <trkpt lat="43.51645" lon="1.4705">
        <ele>229.3</ele>
        <time>2022-05-16T10:57:45Z</time>
      </trkpt>
      <trkpt lat="43.51646" lon="1.47044">
        <ele>229</ele>
        <time>2022-05-16T10:57:46Z</time>
      </trkpt>
      <trkpt lat="43.5165" lon="1.47039">
        <ele>228.7</ele>
        <time>2022-05-16T10:57:47Z</time>
      </trkpt>
      <trkpt lat="43.51656" lon="1.47038">
        <ele>228.3</ele>
        <time>2022-05-16T10:57:48Z</time>
      </trkpt>
      <trkpt lat="43.51662" lon="1.47038">
        <ele>228</ele>
        <time>2022-05-16T10:57:49Z</time>
      </trkpt>
      <trkpt lat="43.51666" lon="1.47037">
        <ele>227.7</ele>
        <time>2022-05-16T10:57:50Z</time>
      </trkpt>
      <trkpt lat="43.51669" lon="1.47034">
        <ele>227.5</ele>
        <time>2022-05-16T10:57:51Z</time>
      </trkpt>
      <trkpt lat="43.51669" lon="1.47026">
        <ele>227.2</ele>
        <time>2022-05-16T10:57:52Z</time>
      </trkpt>
      <trkpt lat="43.51671" lon="1.47021">
        <ele>226.9</ele>
        <time>2022-05-16T10:57:53Z</time>
      </trkpt>
      <trkpt lat="43.51675" lon="1.47014">
        <ele>226.6</ele>
        <time>2022-05-16T10:57:54Z</time>
      </trkpt>
      <trkpt lat="43.51677" lon="1.47008">
        <ele>226.3</ele>
        <time>2022-05-16T10:57:55Z</time>
      </trkpt>
      <trkpt lat="43.51682" lon="1.47003">
        <ele>225.9</ele>
        <time>2022-05-16T10:57:56Z</time>
      </trkpt>
      <trkpt lat="43.51687" lon="1.47">
        <ele>225.5</ele>
        <time>2022-05-16T10:57:57Z</time>
      </trkpt>
      <trkpt lat="43.51691" lon="1.46996">
        <ele>225.2</ele>
        <time>2022-05-16T10:57:58Z</time>
      </trkpt>
      <trkpt lat="43.51694" lon="1.46991">
        <ele>225</ele>
        <time>2022-05-16T10:57:59Z</time>
      </trkpt>
      <trkpt lat="43.51695" lon="1.46983">
        <ele>224.6</ele>
        <time>2022-05-16T10:58:00Z</time>
      </trkpt>
      <trkpt lat="43.517" lon="1.46979">
        <ele>224.4</ele>
        <time>2022-05-16T10:58:01Z</time>
      </trkpt>
      <trkpt lat="43.51704" lon="1.46976">
        <ele>224.1</ele>
        <time>2022-05-16T10:58:02Z</time>
      </trkpt>
      <trkpt lat="43.51709" lon="1.46971">
        <ele>223.8</ele>
        <time>2022-05-16T10:58:03Z</time>
      </trkpt>
      <trkpt lat="43.51712" lon="1.46968">
        <ele>223.6</ele>
        <time>2022-05-16T10:58:04Z</time>
      </trkpt>
      <trkpt lat="43.51715" lon="1.46965">
        <ele>223.5</ele>
        <time>2022-05-16T10:58:05Z</time>
      </trkpt>
      <trkpt lat="43.51718" lon="1.46962">
        <ele>223.3</ele>
        <time>2022-05-16T10:58:06Z</time>
      </trkpt>
      <trkpt lat="43.51722" lon="1.4696">
        <ele>223.1</ele>
        <time>2022-05-16T10:58:07Z</time>
      </trkpt>
      <trkpt lat="43.51726" lon="1.46958">
        <ele>223</ele>
        <time>2022-05-16T10:58:08Z</time>
      </trkpt>
      <trkpt lat="43.51729" lon="1.46954">
        <ele>222.8</ele>
        <time>2022-05-16T10:58:09Z</time>
      </trkpt>
      <trkpt lat="43.51732" lon="1.46948">
        <ele>222.6</ele>
        <time>2022-05-16T10:58:10Z</time>
      </trkpt>
      <trkpt lat="43.51737" lon="1.46944">
        <ele>222.5</ele>
        <time>2022-05-16T10:58:11Z</time>
      </trkpt>
      <trkpt lat="43.51741" lon="1.46942">
        <ele>222.4</ele>
        <time>2022-05-16T10:58:12Z</time>
      </trkpt>
      <trkpt lat="43.51744" lon="1.46939">
        <ele>222.3</ele>
        <time>2022-05-16T10:58:13Z</time>
      </trkpt>
      <trkpt lat="43.51749" lon="1.46936">
        <ele>222.1</ele>
        <time>2022-05-16T10:58:14Z</time>
      </trkpt>
      <trkpt lat="43.51752" lon="1.46932">
        <ele>222</ele>
        <time>2022-05-16T10:58:15Z</time>
      </trkpt>
      <trkpt lat="43.51755" lon="1.46928">
        <ele>222</ele>
        <time>2022-05-16T10:58:16Z</time>
      </trkpt>
      <trkpt lat="43.51757" lon="1.46929">
        <ele>221.9</ele>
        <time>2022-05-16T10:58:17Z</time>
      </trkpt>
      <trkpt lat="43.51764" lon="1.46928">
        <ele>221.8</ele>
        <time>2022-05-16T10:58:19Z</time>
      </trkpt>
      <trkpt lat="43.51771" lon="1.46923">
        <ele>221.7</ele>
        <time>2022-05-16T10:58:21Z</time>
      </trkpt>
      <trkpt lat="43.51776" lon="1.46921">
        <ele>221.7</ele>
        <time>2022-05-16T10:58:22Z</time>
      </trkpt>
      <trkpt lat="43.51778" lon="1.46919">
        <ele>221.7</ele>
        <time>2022-05-16T10:58:23Z</time>
      </trkpt>
      <trkpt lat="43.51782" lon="1.46915">
        <ele>221.7</ele>
        <time>2022-05-16T10:58:24Z</time>
      </trkpt>
      <trkpt lat="43.51783" lon="1.46913">
        <ele>221.7</ele>
        <time>2022-05-16T10:58:25Z</time>
      </trkpt>
      <trkpt lat="43.51787" lon="1.46911">
        <ele>221.7</ele>
        <time>2022-05-16T10:58:26Z</time>
      </trkpt>
      <trkpt lat="43.51789" lon="1.46907">
        <ele>221.8</ele>
        <time>2022-05-16T10:58:27Z</time>
      </trkpt>
      <trkpt lat="43.51789" lon="1.46906">
        <ele>221.8</ele>
        <time>2022-05-16T10:58:28Z</time>
      </trkpt>
      <trkpt lat="43.51793" lon="1.46907">
        <ele>221.8</ele>
        <time>2022-05-16T10:58:29Z</time>
      </trkpt>
      <trkpt lat="43.51796" lon="1.46909">
        <ele>221.8</ele>
        <time>2022-05-16T10:58:30Z</time>
      </trkpt>
      <trkpt lat="43.51799" lon="1.46909">
        <ele>221.7</ele>
        <time>2022-05-16T10:58:31Z</time>
      </trkpt>
      <trkpt lat="43.518" lon="1.46903">
        <ele>221.7</ele>
        <time>2022-05-16T10:58:32Z</time>
      </trkpt>
      <trkpt lat="43.518" lon="1.469">
        <ele>221.6</ele>
        <time>2022-05-16T10:58:33Z</time>
      </trkpt>
      <trkpt lat="43.51803" lon="1.46897">
        <ele>221.6</ele>
        <time>2022-05-16T10:58:34Z</time>
      </trkpt>
      <trkpt lat="43.51807" lon="1.46895">
        <ele>221.5</ele>
        <time>2022-05-16T10:58:35Z</time>
      </trkpt>
      <trkpt lat="43.5181" lon="1.46894">
        <ele>221.4</ele>
        <time>2022-05-16T10:58:36Z</time>
      </trkpt>
      <trkpt lat="43.51812" lon="1.46892">
        <ele>221.3</ele>
        <time>2022-05-16T10:58:37Z</time>
      </trkpt>
      <trkpt lat="43.51815" lon="1.46887">
        <ele>221.2</ele>
        <time>2022-05-16T10:58:38Z</time>
      </trkpt>
      <trkpt lat="43.51818" lon="1.46884">
        <ele>221.2</ele>
        <time>2022-05-16T10:58:39Z</time>
      </trkpt>
      <trkpt lat="43.51821" lon="1.46881">
        <ele>221.1</ele>
        <time>2022-05-16T10:58:40Z</time>
      </trkpt>
      <trkpt lat="43.51825" lon="1.46879">
        <ele>221</ele>
        <time>2022-05-16T10:58:41Z</time>
      </trkpt>
      <trkpt lat="43.51828" lon="1.46876">
        <ele>220.9</ele>
        <time>2022-05-16T10:58:42Z</time>
      </trkpt>
      <trkpt lat="43.51832" lon="1.46876">
        <ele>220.9</ele>
        <time>2022-05-16T10:58:43Z</time>
      </trkpt>
      <trkpt lat="43.51836" lon="1.46875">
        <ele>220.8</ele>
        <time>2022-05-16T10:58:44Z</time>
      </trkpt>
      <trkpt lat="43.5184" lon="1.46877">
        <ele>220.7</ele>
        <time>2022-05-16T10:58:45Z</time>
      </trkpt>
      <trkpt lat="43.51842" lon="1.46873">
        <ele>220.6</ele>
        <time>2022-05-16T10:58:46Z</time>
      </trkpt>
      <trkpt lat="43.51843" lon="1.46869">
        <ele>220.5</ele>
        <time>2022-05-16T10:58:47Z</time>
      </trkpt>
      <trkpt lat="43.51844" lon="1.46864">
        <ele>220.4</ele>
        <time>2022-05-16T10:58:48Z</time>
      </trkpt>
      <trkpt lat="43.51845" lon="1.46859">
        <ele>220.3</ele>
        <time>2022-05-16T10:58:49Z</time>
      </trkpt>
      <trkpt lat="43.51847" lon="1.46855">
        <ele>220.2</ele>
        <time>2022-05-16T10:58:50Z</time>
      </trkpt>
      <trkpt lat="43.51848" lon="1.4685">
        <ele>220</ele>
        <time>2022-05-16T10:58:51Z</time>
      </trkpt>
      <trkpt lat="43.51853" lon="1.46847">
        <ele>219.9</ele>
        <time>2022-05-16T10:58:52Z</time>
      </trkpt>
      <trkpt lat="43.51858" lon="1.46844">
        <ele>219.7</ele>
        <time>2022-05-16T10:58:53Z</time>
      </trkpt>
      <trkpt lat="43.51862" lon="1.4684">
        <ele>219.6</ele>
        <time>2022-05-16T10:58:54Z</time>
      </trkpt>
      <trkpt lat="43.51865" lon="1.46836">
        <ele>219.6</ele>
        <time>2022-05-16T10:58:55Z</time>
      </trkpt>
      <trkpt lat="43.5187" lon="1.46834">
        <ele>219.5</ele>
        <time>2022-05-16T10:58:56Z</time>
      </trkpt>
      <trkpt lat="43.51873" lon="1.46832">
        <ele>219.5</ele>
        <time>2022-05-16T10:58:57Z</time>
      </trkpt>
      <trkpt lat="43.51877" lon="1.46829">
        <ele>219.5</ele>
        <time>2022-05-16T10:58:58Z</time>
      </trkpt>
      <trkpt lat="43.51881" lon="1.46826">
        <ele>219.5</ele>
        <time>2022-05-16T10:58:59Z</time>
      </trkpt>
      <trkpt lat="43.51886" lon="1.46825">
        <ele>219.6</ele>
        <time>2022-05-16T10:59:00Z</time>
      </trkpt>
      <trkpt lat="43.5189" lon="1.46827">
        <ele>219.7</ele>
        <time>2022-05-16T10:59:01Z</time>
      </trkpt>
      <trkpt lat="43.51894" lon="1.46831">
        <ele>219.8</ele>
        <time>2022-05-16T10:59:02Z</time>
      </trkpt>
      <trkpt lat="43.51897" lon="1.46828">
        <ele>219.9</ele>
        <time>2022-05-16T10:59:03Z</time>
      </trkpt>
      <trkpt lat="43.519" lon="1.46827">
        <ele>220</ele>
        <time>2022-05-16T10:59:04Z</time>
      </trkpt>
      <trkpt lat="43.51904" lon="1.46826">
        <ele>220.1</ele>
        <time>2022-05-16T10:59:05Z</time>
      </trkpt>
      <trkpt lat="43.51908" lon="1.46824">
        <ele>220.1</ele>
        <time>2022-05-16T10:59:06Z</time>
      </trkpt>
      <trkpt lat="43.5191" lon="1.4682">
        <ele>220.1</ele>
        <time>2022-05-16T10:59:07Z</time>
      </trkpt>
      <trkpt lat="43.51913" lon="1.46817">
        <ele>220.1</ele>
        <time>2022-05-16T10:59:08Z</time>
      </trkpt>
      <trkpt lat="43.51914" lon="1.46816">
        <ele>220.1</ele>
        <time>2022-05-16T10:59:09Z</time>
      </trkpt>
      <trkpt lat="43.51918" lon="1.46813">
        <ele>219.9</ele>
        <time>2022-05-16T10:59:10Z</time>
      </trkpt>
      <trkpt lat="43.51923" lon="1.46812">
        <ele>219.7</ele>
        <time>2022-05-16T10:59:11Z</time>
      </trkpt>
      <trkpt lat="43.51925" lon="1.46806">
        <ele>219.4</ele>
        <time>2022-05-16T10:59:12Z</time>
      </trkpt>
      <trkpt lat="43.51928" lon="1.46802">
        <ele>219.2</ele>
        <time>2022-05-16T10:59:13Z</time>
      </trkpt>
      <trkpt lat="43.51932" lon="1.46799">
        <ele>218.9</ele>
        <time>2022-05-16T10:59:14Z</time>
      </trkpt>
      <trkpt lat="43.51937" lon="1.46796">
        <ele>218.6</ele>
        <time>2022-05-16T10:59:15Z</time>
      </trkpt>
      <trkpt lat="43.5194" lon="1.46794">
        <ele>218.4</ele>
        <time>2022-05-16T10:59:16Z</time>
      </trkpt>
      <trkpt lat="43.51945" lon="1.4679">
        <ele>218.1</ele>
        <time>2022-05-16T10:59:17Z</time>
      </trkpt>
      <trkpt lat="43.5195" lon="1.46787">
        <ele>217.9</ele>
        <time>2022-05-16T10:59:18Z</time>
      </trkpt>
      <trkpt lat="43.51954" lon="1.46788">
        <ele>217.7</ele>
        <time>2022-05-16T10:59:19Z</time>
      </trkpt>
      <trkpt lat="43.51957" lon="1.46786">
        <ele>217.6</ele>
        <time>2022-05-16T10:59:20Z</time>
      </trkpt>
      <trkpt lat="43.51961" lon="1.46781">
        <ele>217.4</ele>
        <time>2022-05-16T10:59:21Z</time>
      </trkpt>
      <trkpt lat="43.51965" lon="1.46777">
        <ele>217.2</ele>
        <time>2022-05-16T10:59:22Z</time>
      </trkpt>
      <trkpt lat="43.51969" lon="1.46776">
        <ele>217.1</ele>
        <time>2022-05-16T10:59:23Z</time>
      </trkpt>
      <trkpt lat="43.51973" lon="1.46771">
        <ele>216.9</ele>
        <time>2022-05-16T10:59:24Z</time>
      </trkpt>
      <trkpt lat="43.51977" lon="1.46768">
        <ele>216.8</ele>
        <time>2022-05-16T10:59:25Z</time>
      </trkpt>
      <trkpt lat="43.51981" lon="1.46766">
        <ele>216.7</ele>
        <time>2022-05-16T10:59:26Z</time>
      </trkpt>
      <trkpt lat="43.51985" lon="1.46763">
        <ele>216.7</ele>
        <time>2022-05-16T10:59:27Z</time>
      </trkpt>
      <trkpt lat="43.51988" lon="1.46762">
        <ele>216.7</ele>
        <time>2022-05-16T10:59:28Z</time>
      </trkpt>
      <trkpt lat="43.5199" lon="1.46761">
        <ele>216.7</ele>
        <time>2022-05-16T10:59:29Z</time>
      </trkpt>
      <trkpt lat="43.51993" lon="1.46762">
        <ele>216.7</ele>
        <time>2022-05-16T10:59:30Z</time>
      </trkpt>
      <trkpt lat="43.51994" lon="1.46762">
        <ele>216.7</ele>
        <time>2022-05-16T10:59:31Z</time>
      </trkpt>
      <trkpt lat="43.51996" lon="1.46765">
        <ele>216.7</ele>
        <time>2022-05-16T10:59:32Z</time>
      </trkpt>
      <trkpt lat="43.52001" lon="1.46768">
        <ele>216.8</ele>
        <time>2022-05-16T10:59:33Z</time>
      </trkpt>
      <trkpt lat="43.52003" lon="1.46769">
        <ele>216.8</ele>
        <time>2022-05-16T10:59:34Z</time>
      </trkpt>
      <trkpt lat="43.52006" lon="1.46767">
        <ele>216.8</ele>
        <time>2022-05-16T10:59:35Z</time>
      </trkpt>
      <trkpt lat="43.5201" lon="1.46766">
        <ele>216.8</ele>
        <time>2022-05-16T10:59:36Z</time>
      </trkpt>
      <trkpt lat="43.52012" lon="1.46766">
        <ele>216.8</ele>
        <time>2022-05-16T10:59:37Z</time>
      </trkpt>
      <trkpt lat="43.52015" lon="1.46765">
        <ele>216.7</ele>
        <time>2022-05-16T10:59:38Z</time>
      </trkpt>
      <trkpt lat="43.52016" lon="1.46762">
        <ele>216.6</ele>
        <time>2022-05-16T10:59:39Z</time>
      </trkpt>
      <trkpt lat="43.52017" lon="1.46756">
        <ele>216.5</ele>
        <time>2022-05-16T10:59:40Z</time>
      </trkpt>
      <trkpt lat="43.52017" lon="1.46748">
        <ele>216.2</ele>
        <time>2022-05-16T10:59:41Z</time>
      </trkpt>
      <trkpt lat="43.5202" lon="1.46744">
        <ele>216</ele>
        <time>2022-05-16T10:59:42Z</time>
      </trkpt>
      <trkpt lat="43.52022" lon="1.46742">
        <ele>215.9</ele>
        <time>2022-05-16T10:59:43Z</time>
      </trkpt>
      <trkpt lat="43.52025" lon="1.46741">
        <ele>215.7</ele>
        <time>2022-05-16T10:59:44Z</time>
      </trkpt>
      <trkpt lat="43.52029" lon="1.46741">
        <ele>215.5</ele>
        <time>2022-05-16T10:59:45Z</time>
      </trkpt>
      <trkpt lat="43.5203" lon="1.46741">
        <ele>215.4</ele>
        <time>2022-05-16T10:59:46Z</time>
      </trkpt>
      <trkpt lat="43.52034" lon="1.46738">
        <ele>215.2</ele>
        <time>2022-05-16T10:59:47Z</time>
      </trkpt>
      <trkpt lat="43.52037" lon="1.46734">
        <ele>215.1</ele>
        <time>2022-05-16T10:59:48Z</time>
      </trkpt>
      <trkpt lat="43.5204" lon="1.4673">
        <ele>214.9</ele>
        <time>2022-05-16T10:59:49Z</time>
      </trkpt>
      <trkpt lat="43.52044" lon="1.4673">
        <ele>214.8</ele>
        <time>2022-05-16T10:59:50Z</time>
      </trkpt>
      <trkpt lat="43.52047" lon="1.46727">
        <ele>214.7</ele>
        <time>2022-05-16T10:59:51Z</time>
      </trkpt>
      <trkpt lat="43.52051" lon="1.46725">
        <ele>214.6</ele>
        <time>2022-05-16T10:59:52Z</time>
      </trkpt>
      <trkpt lat="43.52054" lon="1.46723">
        <ele>214.5</ele>
        <time>2022-05-16T10:59:53Z</time>
      </trkpt>
      <trkpt lat="43.52055" lon="1.46722">
        <ele>214.5</ele>
        <time>2022-05-16T10:59:54Z</time>
      </trkpt>
      <trkpt lat="43.52058" lon="1.46723">
        <ele>214.5</ele>
        <time>2022-05-16T10:59:55Z</time>
      </trkpt>
      <trkpt lat="43.52062" lon="1.46723">
        <ele>214.4</ele>
        <time>2022-05-16T10:59:56Z</time>
      </trkpt>
      <trkpt lat="43.52066" lon="1.46723">
        <ele>214.3</ele>
        <time>2022-05-16T10:59:57Z</time>
      </trkpt>
      <trkpt lat="43.52069" lon="1.46721">
        <ele>214.2</ele>
        <time>2022-05-16T10:59:58Z</time>
      </trkpt>
      <trkpt lat="43.5207" lon="1.4672">
        <ele>214.2</ele>
        <time>2022-05-16T10:59:59Z</time>
      </trkpt>
      <trkpt lat="43.52072" lon="1.46714">
        <ele>214</ele>
        <time>2022-05-16T11:00:00Z</time>
      </trkpt>
      <trkpt lat="43.52074" lon="1.46709">
        <ele>213.8</ele>
        <time>2022-05-16T11:00:01Z</time>
      </trkpt>
      <trkpt lat="43.52077" lon="1.46706">
        <ele>213.5</ele>
        <time>2022-05-16T11:00:02Z</time>
      </trkpt>
      <trkpt lat="43.52081" lon="1.46704">
        <ele>213.3</ele>
        <time>2022-05-16T11:00:03Z</time>
      </trkpt>
      <trkpt lat="43.52084" lon="1.46703">
        <ele>213.1</ele>
        <time>2022-05-16T11:00:04Z</time>
      </trkpt>
      <trkpt lat="43.52086" lon="1.46703">
        <ele>213.1</ele>
        <time>2022-05-16T11:00:05Z</time>
      </trkpt>
      <trkpt lat="43.52091" lon="1.46703">
        <ele>212.9</ele>
        <time>2022-05-16T11:00:06Z</time>
      </trkpt>
      <trkpt lat="43.52094" lon="1.46699">
        <ele>212.7</ele>
        <time>2022-05-16T11:00:07Z</time>
      </trkpt>
      <trkpt lat="43.52101" lon="1.46697">
        <ele>212.5</ele>
        <time>2022-05-16T11:00:09Z</time>
      </trkpt>
      <trkpt lat="43.52103" lon="1.46694">
        <ele>212.5</ele>
        <time>2022-05-16T11:00:11Z</time>
      </trkpt>
      <trkpt lat="43.52107" lon="1.46692">
        <ele>212.4</ele>
        <time>2022-05-16T11:00:12Z</time>
      </trkpt>
      <trkpt lat="43.52111" lon="1.4669">
        <ele>212.3</ele>
        <time>2022-05-16T11:00:13Z</time>
      </trkpt>
      <trkpt lat="43.52114" lon="1.46687">
        <ele>212.3</ele>
        <time>2022-05-16T11:00:14Z</time>
      </trkpt>
      <trkpt lat="43.52115" lon="1.46685">
        <ele>212.3</ele>
        <time>2022-05-16T11:00:15Z</time>
      </trkpt>
      <trkpt lat="43.52115" lon="1.4668">
        <ele>212.2</ele>
        <time>2022-05-16T11:00:16Z</time>
      </trkpt>
      <trkpt lat="43.52116" lon="1.46676">
        <ele>212.2</ele>
        <time>2022-05-16T11:00:17Z</time>
      </trkpt>
      <trkpt lat="43.52117" lon="1.46671">
        <ele>212.1</ele>
        <time>2022-05-16T11:00:18Z</time>
      </trkpt>
      <trkpt lat="43.5212" lon="1.46669">
        <ele>212.1</ele>
        <time>2022-05-16T11:00:19Z</time>
      </trkpt>
      <trkpt lat="43.52123" lon="1.46667">
        <ele>212.1</ele>
        <time>2022-05-16T11:00:20Z</time>
      </trkpt>
      <trkpt lat="43.52128" lon="1.46666">
        <ele>212.1</ele>
        <time>2022-05-16T11:00:21Z</time>
      </trkpt>
      <trkpt lat="43.52132" lon="1.46664">
        <ele>212.1</ele>
        <time>2022-05-16T11:00:22Z</time>
      </trkpt>
      <trkpt lat="43.52141" lon="1.46663">
        <ele>212.2</ele>
        <time>2022-05-16T11:00:23Z</time>
      </trkpt>
      <trkpt lat="43.52149" lon="1.46659">
        <ele>212.2</ele>
        <time>2022-05-16T11:00:25Z</time>
      </trkpt>
      <trkpt lat="43.52157" lon="1.46656">
        <ele>212</ele>
        <time>2022-05-16T11:00:27Z</time>
      </trkpt>
      <trkpt lat="43.52162" lon="1.46654">
        <ele>211.9</ele>
        <time>2022-05-16T11:00:28Z</time>
      </trkpt>
      <trkpt lat="43.52165" lon="1.46657">
        <ele>211.6</ele>
        <time>2022-05-16T11:00:29Z</time>
      </trkpt>
      <trkpt lat="43.52169" lon="1.46657">
        <ele>211.4</ele>
        <time>2022-05-16T11:00:30Z</time>
      </trkpt>
      <trkpt lat="43.52172" lon="1.46652">
        <ele>211.1</ele>
        <time>2022-05-16T11:00:31Z</time>
      </trkpt>
      <trkpt lat="43.52178" lon="1.46648">
        <ele>210.7</ele>
        <time>2022-05-16T11:00:32Z</time>
      </trkpt>
      <trkpt lat="43.52184" lon="1.46645">
        <ele>210.2</ele>
        <time>2022-05-16T11:00:33Z</time>
      </trkpt>
      <trkpt lat="43.52191" lon="1.46645">
        <ele>209.8</ele>
        <time>2022-05-16T11:00:34Z</time>
      </trkpt>
      <trkpt lat="43.52196" lon="1.46643">
        <ele>209.6</ele>
        <time>2022-05-16T11:00:35Z</time>
      </trkpt>
      <trkpt lat="43.52202" lon="1.4664">
        <ele>209.4</ele>
        <time>2022-05-16T11:00:36Z</time>
      </trkpt>
      <trkpt lat="43.52207" lon="1.46636">
        <ele>209.1</ele>
        <time>2022-05-16T11:00:37Z</time>
      </trkpt>
      <trkpt lat="43.52211" lon="1.46632">
        <ele>209</ele>
        <time>2022-05-16T11:00:38Z</time>
      </trkpt>
      <trkpt lat="43.52215" lon="1.46627">
        <ele>208.8</ele>
        <time>2022-05-16T11:00:39Z</time>
      </trkpt>
      <trkpt lat="43.5222" lon="1.46621">
        <ele>208.6</ele>
        <time>2022-05-16T11:00:40Z</time>
      </trkpt>
      <trkpt lat="43.52225" lon="1.46617">
        <ele>208.5</ele>
        <time>2022-05-16T11:00:41Z</time>
      </trkpt>
      <trkpt lat="43.5223" lon="1.46615">
        <ele>208.4</ele>
        <time>2022-05-16T11:00:42Z</time>
      </trkpt>
      <trkpt lat="43.52235" lon="1.46615">
        <ele>208.3</ele>
        <time>2022-05-16T11:00:43Z</time>
      </trkpt>
      <trkpt lat="43.52238" lon="1.46613">
        <ele>208.2</ele>
        <time>2022-05-16T11:00:44Z</time>
      </trkpt>
      <trkpt lat="43.5224" lon="1.46608">
        <ele>208.2</ele>
        <time>2022-05-16T11:00:45Z</time>
      </trkpt>
      <trkpt lat="43.52241" lon="1.46606">
        <ele>208.1</ele>
        <time>2022-05-16T11:00:46Z</time>
      </trkpt>
      <trkpt lat="43.52242" lon="1.46606">
        <ele>208.1</ele>
        <time>2022-05-16T11:00:47Z</time>
      </trkpt>
      <trkpt lat="43.52242" lon="1.46605">
        <ele>208.1</ele>
        <time>2022-05-16T11:00:48Z</time>
      </trkpt>
      <trkpt lat="43.52244" lon="1.46603">
        <ele>208</ele>
        <time>2022-05-16T11:00:49Z</time>
      </trkpt>
      <trkpt lat="43.52248" lon="1.46599">
        <ele>207.9</ele>
        <time>2022-05-16T11:00:50Z</time>
      </trkpt>
      <trkpt lat="43.52251" lon="1.46594">
        <ele>207.8</ele>
        <time>2022-05-16T11:00:51Z</time>
      </trkpt>
      <trkpt lat="43.52255" lon="1.46591">
        <ele>207.7</ele>
        <time>2022-05-16T11:00:52Z</time>
      </trkpt>
      <trkpt lat="43.52259" lon="1.4659">
        <ele>207.6</ele>
        <time>2022-05-16T11:00:53Z</time>
      </trkpt>
      <trkpt lat="43.52264" lon="1.46584">
        <ele>207.5</ele>
        <time>2022-05-16T11:00:54Z</time>
      </trkpt>
      <trkpt lat="43.52268" lon="1.46582">
        <ele>207.5</ele>
        <time>2022-05-16T11:00:55Z</time>
      </trkpt>
      <trkpt lat="43.5227" lon="1.46578">
        <ele>207.4</ele>
        <time>2022-05-16T11:00:56Z</time>
      </trkpt>
      <trkpt lat="43.52273" lon="1.46577">
        <ele>207.3</ele>
        <time>2022-05-16T11:00:57Z</time>
      </trkpt>
      <trkpt lat="43.52275" lon="1.46578">
        <ele>207.3</ele>
        <time>2022-05-16T11:00:58Z</time>
      </trkpt>
      <trkpt lat="43.52278" lon="1.4658">
        <ele>207.2</ele>
        <time>2022-05-16T11:00:59Z</time>
      </trkpt>
      <trkpt lat="43.52281" lon="1.46579">
        <ele>207.1</ele>
        <time>2022-05-16T11:01:00Z</time>
      </trkpt>
      <trkpt lat="43.52285" lon="1.46577">
        <ele>206.9</ele>
        <time>2022-05-16T11:01:01Z</time>
      </trkpt>
      <trkpt lat="43.52286" lon="1.46573">
        <ele>206.8</ele>
        <time>2022-05-16T11:01:02Z</time>
      </trkpt>
      <trkpt lat="43.52287" lon="1.46567">
        <ele>206.7</ele>
        <time>2022-05-16T11:01:03Z</time>
      </trkpt>
      <trkpt lat="43.52291" lon="1.46567">
        <ele>206.5</ele>
        <time>2022-05-16T11:01:04Z</time>
      </trkpt>
      <trkpt lat="43.52294" lon="1.46563">
        <ele>206.4</ele>
        <time>2022-05-16T11:01:05Z</time>
      </trkpt>
      <trkpt lat="43.52297" lon="1.46559">
        <ele>206.2</ele>
        <time>2022-05-16T11:01:06Z</time>
      </trkpt>
      <trkpt lat="43.523" lon="1.46557">
        <ele>206.1</ele>
        <time>2022-05-16T11:01:07Z</time>
      </trkpt>
      <trkpt lat="43.52303" lon="1.46556">
        <ele>206.1</ele>
        <time>2022-05-16T11:01:08Z</time>
      </trkpt>
      <trkpt lat="43.52309" lon="1.46557">
        <ele>205.9</ele>
        <time>2022-05-16T11:01:09Z</time>
      </trkpt>
      <trkpt lat="43.52312" lon="1.46557">
        <ele>205.8</ele>
        <time>2022-05-16T11:01:10Z</time>
      </trkpt>
      <trkpt lat="43.52317" lon="1.46555">
        <ele>205.7</ele>
        <time>2022-05-16T11:01:11Z</time>
      </trkpt>
      <trkpt lat="43.52321" lon="1.46553">
        <ele>205.6</ele>
        <time>2022-05-16T11:01:12Z</time>
      </trkpt>
      <trkpt lat="43.52325" lon="1.46551">
        <ele>205.5</ele>
        <time>2022-05-16T11:01:13Z</time>
      </trkpt>
      <trkpt lat="43.52327" lon="1.46545">
        <ele>205.4</ele>
        <time>2022-05-16T11:01:14Z</time>
      </trkpt>
      <trkpt lat="43.5233" lon="1.4654">
        <ele>205.3</ele>
        <time>2022-05-16T11:01:15Z</time>
      </trkpt>
      <trkpt lat="43.52333" lon="1.46538">
        <ele>205.2</ele>
        <time>2022-05-16T11:01:16Z</time>
      </trkpt>
      <trkpt lat="43.52338" lon="1.46538">
        <ele>205.1</ele>
        <time>2022-05-16T11:01:17Z</time>
      </trkpt>
      <trkpt lat="43.52341" lon="1.46535">
        <ele>205</ele>
        <time>2022-05-16T11:01:18Z</time>
      </trkpt>
      <trkpt lat="43.52344" lon="1.46529">
        <ele>204.9</ele>
        <time>2022-05-16T11:01:19Z</time>
      </trkpt>
      <trkpt lat="43.52347" lon="1.46521">
        <ele>204.8</ele>
        <time>2022-05-16T11:01:20Z</time>
      </trkpt>
      <trkpt lat="43.52349" lon="1.46513">
        <ele>204.7</ele>
        <time>2022-05-16T11:01:21Z</time>
      </trkpt>
      <trkpt lat="43.52354" lon="1.46512">
        <ele>204.6</ele>
        <time>2022-05-16T11:01:22Z</time>
      </trkpt>
      <trkpt lat="43.52359" lon="1.46515">
        <ele>204.6</ele>
        <time>2022-05-16T11:01:23Z</time>
      </trkpt>
      <trkpt lat="43.52363" lon="1.46517">
        <ele>204.5</ele>
        <time>2022-05-16T11:01:24Z</time>
      </trkpt>
      <trkpt lat="43.52366" lon="1.46514">
        <ele>204.5</ele>
        <time>2022-05-16T11:01:25Z</time>
      </trkpt>
      <trkpt lat="43.5237" lon="1.46516">
        <ele>204.5</ele>
        <time>2022-05-16T11:01:26Z</time>
      </trkpt>
      <trkpt lat="43.52373" lon="1.46514">
        <ele>204.5</ele>
        <time>2022-05-16T11:01:27Z</time>
      </trkpt>
      <trkpt lat="43.52378" lon="1.46514">
        <ele>204.4</ele>
        <time>2022-05-16T11:01:28Z</time>
      </trkpt>
      <trkpt lat="43.52384" lon="1.46515">
        <ele>204.3</ele>
        <time>2022-05-16T11:01:29Z</time>
      </trkpt>
      <trkpt lat="43.52388" lon="1.46513">
        <ele>204.3</ele>
        <time>2022-05-16T11:01:30Z</time>
      </trkpt>
      <trkpt lat="43.52392" lon="1.46509">
        <ele>204.2</ele>
        <time>2022-05-16T11:01:31Z</time>
      </trkpt>
      <trkpt lat="43.52396" lon="1.46507">
        <ele>204.2</ele>
        <time>2022-05-16T11:01:32Z</time>
      </trkpt>
      <trkpt lat="43.524" lon="1.46508">
        <ele>204.2</ele>
        <time>2022-05-16T11:01:33Z</time>
      </trkpt>
      <trkpt lat="43.52405" lon="1.46504">
        <ele>204.1</ele>
        <time>2022-05-16T11:01:34Z</time>
      </trkpt>
      <trkpt lat="43.52408" lon="1.46502">
        <ele>204.1</ele>
        <time>2022-05-16T11:01:35Z</time>
      </trkpt>
      <trkpt lat="43.52411" lon="1.46504">
        <ele>204.1</ele>
        <time>2022-05-16T11:01:36Z</time>
      </trkpt>
      <trkpt lat="43.52416" lon="1.46504">
        <ele>204.1</ele>
        <time>2022-05-16T11:01:37Z</time>
      </trkpt>
      <trkpt lat="43.5242" lon="1.46505">
        <ele>204.1</ele>
        <time>2022-05-16T11:01:38Z</time>
      </trkpt>
      <trkpt lat="43.52423" lon="1.46505">
        <ele>204.1</ele>
        <time>2022-05-16T11:01:39Z</time>
      </trkpt>
      <trkpt lat="43.52426" lon="1.46503">
        <ele>204.1</ele>
        <time>2022-05-16T11:01:40Z</time>
      </trkpt>
      <trkpt lat="43.5243" lon="1.46502">
        <ele>204.1</ele>
        <time>2022-05-16T11:01:41Z</time>
      </trkpt>
      <trkpt lat="43.52434" lon="1.46503">
        <ele>204</ele>
        <time>2022-05-16T11:01:42Z</time>
      </trkpt>
      <trkpt lat="43.52437" lon="1.46502">
        <ele>204</ele>
        <time>2022-05-16T11:01:43Z</time>
      </trkpt>
      <trkpt lat="43.52441" lon="1.46501">
        <ele>203.9</ele>
        <time>2022-05-16T11:01:44Z</time>
      </trkpt>
      <trkpt lat="43.52443" lon="1.46497">
        <ele>203.8</ele>
        <time>2022-05-16T11:01:45Z</time>
      </trkpt>
      <trkpt lat="43.52444" lon="1.46493">
        <ele>203.7</ele>
        <time>2022-05-16T11:01:46Z</time>
      </trkpt>
      <trkpt lat="43.52448" lon="1.46492">
        <ele>203.6</ele>
        <time>2022-05-16T11:01:47Z</time>
      </trkpt>
      <trkpt lat="43.5245" lon="1.46492">
        <ele>203.6</ele>
        <time>2022-05-16T11:01:48Z</time>
      </trkpt>
      <trkpt lat="43.52453" lon="1.46493">
        <ele>203.5</ele>
        <time>2022-05-16T11:01:49Z</time>
      </trkpt>
      <trkpt lat="43.52456" lon="1.46489">
        <ele>203.3</ele>
        <time>2022-05-16T11:01:50Z</time>
      </trkpt>
      <trkpt lat="43.52457" lon="1.46483">
        <ele>203.1</ele>
        <time>2022-05-16T11:01:51Z</time>
      </trkpt>
      <trkpt lat="43.52458" lon="1.46475">
        <ele>203</ele>
        <time>2022-05-16T11:01:52Z</time>
      </trkpt>
      <trkpt lat="43.5246" lon="1.46471">
        <ele>202.9</ele>
        <time>2022-05-16T11:01:53Z</time>
      </trkpt>
      <trkpt lat="43.52464" lon="1.46469">
        <ele>202.8</ele>
        <time>2022-05-16T11:01:54Z</time>
      </trkpt>
      <trkpt lat="43.52469" lon="1.46467">
        <ele>202.7</ele>
        <time>2022-05-16T11:01:55Z</time>
      </trkpt>
      <trkpt lat="43.52473" lon="1.46467">
        <ele>202.6</ele>
        <time>2022-05-16T11:01:56Z</time>
      </trkpt>
      <trkpt lat="43.52478" lon="1.46468">
        <ele>202.4</ele>
        <time>2022-05-16T11:01:57Z</time>
      </trkpt>
      <trkpt lat="43.52482" lon="1.46466">
        <ele>202.3</ele>
        <time>2022-05-16T11:01:58Z</time>
      </trkpt>
      <trkpt lat="43.52486" lon="1.46462">
        <ele>202.1</ele>
        <time>2022-05-16T11:01:59Z</time>
      </trkpt>
      <trkpt lat="43.52491" lon="1.46459">
        <ele>201.9</ele>
        <time>2022-05-16T11:02:00Z</time>
      </trkpt>
      <trkpt lat="43.52499" lon="1.46459">
        <ele>201.7</ele>
        <time>2022-05-16T11:02:01Z</time>
      </trkpt>
      <trkpt lat="43.52505" lon="1.46459">
        <ele>201.6</ele>
        <time>2022-05-16T11:02:02Z</time>
      </trkpt>
      <trkpt lat="43.52508" lon="1.46461">
        <ele>201.6</ele>
        <time>2022-05-16T11:02:03Z</time>
      </trkpt>
      <trkpt lat="43.52512" lon="1.46461">
        <ele>201.6</ele>
        <time>2022-05-16T11:02:04Z</time>
      </trkpt>
      <trkpt lat="43.52516" lon="1.46463">
        <ele>201.6</ele>
        <time>2022-05-16T11:02:05Z</time>
      </trkpt>
      <trkpt lat="43.5252" lon="1.46467">
        <ele>201.6</ele>
        <time>2022-05-16T11:02:06Z</time>
      </trkpt>
      <trkpt lat="43.52522" lon="1.46468">
        <ele>201.6</ele>
        <time>2022-05-16T11:02:07Z</time>
      </trkpt>
      <trkpt lat="43.52525" lon="1.4647">
        <ele>201.6</ele>
        <time>2022-05-16T11:02:08Z</time>
      </trkpt>
      <trkpt lat="43.52529" lon="1.46472">
        <ele>201.5</ele>
        <time>2022-05-16T11:02:09Z</time>
      </trkpt>
      <trkpt lat="43.52533" lon="1.46472">
        <ele>201.4</ele>
        <time>2022-05-16T11:02:10Z</time>
      </trkpt>
      <trkpt lat="43.52538" lon="1.46471">
        <ele>201.2</ele>
        <time>2022-05-16T11:02:11Z</time>
      </trkpt>
      <trkpt lat="43.52543" lon="1.46468">
        <ele>200.9</ele>
        <time>2022-05-16T11:02:12Z</time>
      </trkpt>
      <trkpt lat="43.52549" lon="1.4647">
        <ele>200.6</ele>
        <time>2022-05-16T11:02:13Z</time>
      </trkpt>
      <trkpt lat="43.52552" lon="1.46472">
        <ele>200.4</ele>
        <time>2022-05-16T11:02:15Z</time>
      </trkpt>
      <trkpt lat="43.52554" lon="1.46465">
        <ele>200.1</ele>
        <time>2022-05-16T11:02:16Z</time>
      </trkpt>
      <trkpt lat="43.52557" lon="1.46461">
        <ele>199.9</ele>
        <time>2022-05-16T11:02:17Z</time>
      </trkpt>
      <trkpt lat="43.52561" lon="1.46459">
        <ele>199.6</ele>
        <time>2022-05-16T11:02:18Z</time>
      </trkpt>
      <trkpt lat="43.52567" lon="1.46461">
        <ele>199.3</ele>
        <time>2022-05-16T11:02:19Z</time>
      </trkpt>
      <trkpt lat="43.52571" lon="1.46463">
        <ele>199.1</ele>
        <time>2022-05-16T11:02:20Z</time>
      </trkpt>
      <trkpt lat="43.52575" lon="1.46466">
        <ele>198.9</ele>
        <time>2022-05-16T11:02:21Z</time>
      </trkpt>
      <trkpt lat="43.52579" lon="1.46463">
        <ele>198.7</ele>
        <time>2022-05-16T11:02:22Z</time>
      </trkpt>
      <trkpt lat="43.52581" lon="1.46462">
        <ele>198.6</ele>
        <time>2022-05-16T11:02:23Z</time>
      </trkpt>
      <trkpt lat="43.52584" lon="1.46459">
        <ele>198.4</ele>
        <time>2022-05-16T11:02:24Z</time>
      </trkpt>
      <trkpt lat="43.52587" lon="1.46456">
        <ele>198.3</ele>
        <time>2022-05-16T11:02:25Z</time>
      </trkpt>
      <trkpt lat="43.5259" lon="1.46455">
        <ele>198.2</ele>
        <time>2022-05-16T11:02:26Z</time>
      </trkpt>
      <trkpt lat="43.52595" lon="1.46457">
        <ele>198.1</ele>
        <time>2022-05-16T11:02:27Z</time>
      </trkpt>
      <trkpt lat="43.52597" lon="1.46458">
        <ele>198</ele>
        <time>2022-05-16T11:02:28Z</time>
      </trkpt>
      <trkpt lat="43.52603" lon="1.46457">
        <ele>197.9</ele>
        <time>2022-05-16T11:02:29Z</time>
      </trkpt>
      <trkpt lat="43.52607" lon="1.46459">
        <ele>197.8</ele>
        <time>2022-05-16T11:02:30Z</time>
      </trkpt>
      <trkpt lat="43.52609" lon="1.46464">
        <ele>197.7</ele>
        <time>2022-05-16T11:02:31Z</time>
      </trkpt>
      <trkpt lat="43.52613" lon="1.46464">
        <ele>197.6</ele>
        <time>2022-05-16T11:02:32Z</time>
      </trkpt>
      <trkpt lat="43.52615" lon="1.46463">
        <ele>197.5</ele>
        <time>2022-05-16T11:02:33Z</time>
      </trkpt>
      <trkpt lat="43.52621" lon="1.46466">
        <ele>197.2</ele>
        <time>2022-05-16T11:02:34Z</time>
      </trkpt>
      <trkpt lat="43.52631" lon="1.46468">
        <ele>196.6</ele>
        <time>2022-05-16T11:02:35Z</time>
      </trkpt>
      <trkpt lat="43.52635" lon="1.46469">
        <ele>196.4</ele>
        <time>2022-05-16T11:02:36Z</time>
      </trkpt>
      <trkpt lat="43.5264" lon="1.46465">
        <ele>196.1</ele>
        <time>2022-05-16T11:02:37Z</time>
      </trkpt>
      <trkpt lat="43.52646" lon="1.46462">
        <ele>195.8</ele>
        <time>2022-05-16T11:02:38Z</time>
      </trkpt>
      <trkpt lat="43.52651" lon="1.46465">
        <ele>195.5</ele>
        <time>2022-05-16T11:02:39Z</time>
      </trkpt>
      <trkpt lat="43.52657" lon="1.46468">
        <ele>195.3</ele>
        <time>2022-05-16T11:02:40Z</time>
      </trkpt>
      <trkpt lat="43.52661" lon="1.46472">
        <ele>195.1</ele>
        <time>2022-05-16T11:02:41Z</time>
      </trkpt>
      <trkpt lat="43.52665" lon="1.46476">
        <ele>195</ele>
        <time>2022-05-16T11:02:42Z</time>
      </trkpt>
      <trkpt lat="43.52665" lon="1.46481">
        <ele>195</ele>
        <time>2022-05-16T11:02:43Z</time>
      </trkpt>
      <trkpt lat="43.52664" lon="1.46483">
        <ele>194.9</ele>
        <time>2022-05-16T11:02:44Z</time>
      </trkpt>
      <trkpt lat="43.52668" lon="1.46484">
        <ele>194.9</ele>
        <time>2022-05-16T11:02:45Z</time>
      </trkpt>
      <trkpt lat="43.52669" lon="1.46484">
        <ele>194.9</ele>
        <time>2022-05-16T11:02:46Z</time>
      </trkpt>
      <trkpt lat="43.52672" lon="1.46483">
        <ele>194.9</ele>
        <time>2022-05-16T11:02:47Z</time>
      </trkpt>
      <trkpt lat="43.52674" lon="1.46489">
        <ele>194.8</ele>
        <time>2022-05-16T11:02:48Z</time>
      </trkpt>
      <trkpt lat="43.52674" lon="1.46495">
        <ele>194.8</ele>
        <time>2022-05-16T11:02:49Z</time>
      </trkpt>
      <trkpt lat="43.52672" lon="1.465">
        <ele>194.8</ele>
        <time>2022-05-16T11:02:50Z</time>
      </trkpt>
      <trkpt lat="43.52673" lon="1.46504">
        <ele>194.8</ele>
        <time>2022-05-16T11:02:51Z</time>
      </trkpt>
      <trkpt lat="43.52676" lon="1.46507">
        <ele>194.8</ele>
        <time>2022-05-16T11:02:52Z</time>
      </trkpt>
      <trkpt lat="43.52677" lon="1.46507">
        <ele>194.8</ele>
        <time>2022-05-16T11:02:53Z</time>
      </trkpt>
      <trkpt lat="43.52682" lon="1.46508">
        <ele>194.8</ele>
        <time>2022-05-16T11:02:54Z</time>
      </trkpt>
      <trkpt lat="43.52687" lon="1.46513">
        <ele>194.8</ele>
        <time>2022-05-16T11:02:55Z</time>
      </trkpt>
      <trkpt lat="43.52689" lon="1.46519">
        <ele>194.8</ele>
        <time>2022-05-16T11:02:56Z</time>
      </trkpt>
      <trkpt lat="43.52691" lon="1.46525">
        <ele>194.9</ele>
        <time>2022-05-16T11:02:57Z</time>
      </trkpt>
      <trkpt lat="43.52694" lon="1.46528">
        <ele>194.9</ele>
        <time>2022-05-16T11:02:58Z</time>
      </trkpt>
      <trkpt lat="43.52699" lon="1.4653">
        <ele>195.1</ele>
        <time>2022-05-16T11:02:59Z</time>
      </trkpt>
      <trkpt lat="43.52703" lon="1.46533">
        <ele>195.2</ele>
        <time>2022-05-16T11:03:00Z</time>
      </trkpt>
      <trkpt lat="43.52706" lon="1.46537">
        <ele>195.4</ele>
        <time>2022-05-16T11:03:01Z</time>
      </trkpt>
      <trkpt lat="43.52712" lon="1.46537">
        <ele>195.6</ele>
        <time>2022-05-16T11:03:02Z</time>
      </trkpt>
      <trkpt lat="43.52715" lon="1.46536">
        <ele>195.7</ele>
        <time>2022-05-16T11:03:03Z</time>
      </trkpt>
      <trkpt lat="43.5272" lon="1.46536">
        <ele>195.9</ele>
        <time>2022-05-16T11:03:04Z</time>
      </trkpt>
      <trkpt lat="43.52727" lon="1.46537">
        <ele>196</ele>
        <time>2022-05-16T11:03:05Z</time>
      </trkpt>
      <trkpt lat="43.52731" lon="1.46535">
        <ele>196.1</ele>
        <time>2022-05-16T11:03:06Z</time>
      </trkpt>
      <trkpt lat="43.52735" lon="1.46536">
        <ele>196.1</ele>
        <time>2022-05-16T11:03:07Z</time>
      </trkpt>
      <trkpt lat="43.52741" lon="1.46538">
        <ele>196</ele>
        <time>2022-05-16T11:03:08Z</time>
      </trkpt>
      <trkpt lat="43.52745" lon="1.46538">
        <ele>195.9</ele>
        <time>2022-05-16T11:03:09Z</time>
      </trkpt>
      <trkpt lat="43.52748" lon="1.46536">
        <ele>195.7</ele>
        <time>2022-05-16T11:03:10Z</time>
      </trkpt>
      <trkpt lat="43.52755" lon="1.46535">
        <ele>195.4</ele>
        <time>2022-05-16T11:03:11Z</time>
      </trkpt>
      <trkpt lat="43.52761" lon="1.46535">
        <ele>195</ele>
        <time>2022-05-16T11:03:12Z</time>
      </trkpt>
      <trkpt lat="43.52767" lon="1.46534">
        <ele>194.7</ele>
        <time>2022-05-16T11:03:13Z</time>
      </trkpt>
      <trkpt lat="43.52773" lon="1.46534">
        <ele>194.4</ele>
        <time>2022-05-16T11:03:14Z</time>
      </trkpt>
      <trkpt lat="43.52777" lon="1.46534">
        <ele>194.2</ele>
        <time>2022-05-16T11:03:15Z</time>
      </trkpt>
      <trkpt lat="43.52781" lon="1.46528">
        <ele>194</ele>
        <time>2022-05-16T11:03:16Z</time>
      </trkpt>
      <trkpt lat="43.52786" lon="1.46525">
        <ele>193.8</ele>
        <time>2022-05-16T11:03:17Z</time>
      </trkpt>
      <trkpt lat="43.52792" lon="1.46523">
        <ele>193.6</ele>
        <time>2022-05-16T11:03:18Z</time>
      </trkpt>
      <trkpt lat="43.52796" lon="1.46521">
        <ele>193.6</ele>
        <time>2022-05-16T11:03:19Z</time>
      </trkpt>
      <trkpt lat="43.528" lon="1.46518">
        <ele>193.5</ele>
        <time>2022-05-16T11:03:20Z</time>
      </trkpt>
      <trkpt lat="43.52803" lon="1.46519">
        <ele>193.4</ele>
        <time>2022-05-16T11:03:21Z</time>
      </trkpt>
      <trkpt lat="43.52804" lon="1.4652">
        <ele>193.4</ele>
        <time>2022-05-16T11:03:22Z</time>
      </trkpt>
      <trkpt lat="43.52806" lon="1.46517">
        <ele>193.4</ele>
        <time>2022-05-16T11:03:23Z</time>
      </trkpt>
      <trkpt lat="43.5281" lon="1.46512">
        <ele>193.3</ele>
        <time>2022-05-16T11:03:24Z</time>
      </trkpt>
      <trkpt lat="43.52812" lon="1.46505">
        <ele>193.2</ele>
        <time>2022-05-16T11:03:25Z</time>
      </trkpt>
      <trkpt lat="43.52816" lon="1.465">
        <ele>193.1</ele>
        <time>2022-05-16T11:03:26Z</time>
      </trkpt>
      <trkpt lat="43.5282" lon="1.46498">
        <ele>193.1</ele>
        <time>2022-05-16T11:03:27Z</time>
      </trkpt>
      <trkpt lat="43.52824" lon="1.465">
        <ele>193.1</ele>
        <time>2022-05-16T11:03:28Z</time>
      </trkpt>
      <trkpt lat="43.52829" lon="1.46499">
        <ele>193.1</ele>
        <time>2022-05-16T11:03:29Z</time>
      </trkpt>
      <trkpt lat="43.52832" lon="1.46495">
        <ele>193.1</ele>
        <time>2022-05-16T11:03:30Z</time>
      </trkpt>
      <trkpt lat="43.52837" lon="1.46495">
        <ele>193.1</ele>
        <time>2022-05-16T11:03:31Z</time>
      </trkpt>
      <trkpt lat="43.52841" lon="1.46495">
        <ele>193</ele>
        <time>2022-05-16T11:03:32Z</time>
      </trkpt>
      <trkpt lat="43.52844" lon="1.46492">
        <ele>192.9</ele>
        <time>2022-05-16T11:03:33Z</time>
      </trkpt>
      <trkpt lat="43.52846" lon="1.46487">
        <ele>192.8</ele>
        <time>2022-05-16T11:03:34Z</time>
      </trkpt>
      <trkpt lat="43.52849" lon="1.46485">
        <ele>192.6</ele>
        <time>2022-05-16T11:03:35Z</time>
      </trkpt>
      <trkpt lat="43.5285" lon="1.46485">
        <ele>192.6</ele>
        <time>2022-05-16T11:03:36Z</time>
      </trkpt>
      <trkpt lat="43.5285" lon="1.46487">
        <ele>192.5</ele>
        <time>2022-05-16T11:03:37Z</time>
      </trkpt>
      <trkpt lat="43.52851" lon="1.46489">
        <ele>192.4</ele>
        <time>2022-05-16T11:03:38Z</time>
      </trkpt>
      <trkpt lat="43.52854" lon="1.46487">
        <ele>192.3</ele>
        <time>2022-05-16T11:03:39Z</time>
      </trkpt>
      <trkpt lat="43.52855" lon="1.46487">
        <ele>192.2</ele>
        <time>2022-05-16T11:03:40Z</time>
      </trkpt>
      <trkpt lat="43.52856" lon="1.46486">
        <ele>192.2</ele>
        <time>2022-05-16T11:03:41Z</time>
      </trkpt>
      <trkpt lat="43.52857" lon="1.46486">
        <ele>192.1</ele>
        <time>2022-05-16T11:03:42Z</time>
      </trkpt>
      <trkpt lat="43.52858" lon="1.46486">
        <ele>192</ele>
        <time>2022-05-16T11:03:43Z</time>
      </trkpt>
      <trkpt lat="43.52862" lon="1.46485">
        <ele>191.8</ele>
        <time>2022-05-16T11:03:44Z</time>
      </trkpt>
      <trkpt lat="43.52863" lon="1.46485">
        <ele>191.7</ele>
        <time>2022-05-16T11:03:45Z</time>
      </trkpt>
      <trkpt lat="43.52867" lon="1.46486">
        <ele>191.5</ele>
        <time>2022-05-16T11:03:46Z</time>
      </trkpt>
      <trkpt lat="43.5287" lon="1.46487">
        <ele>191.2</ele>
        <time>2022-05-16T11:03:47Z</time>
      </trkpt>
      <trkpt lat="43.52871" lon="1.46487">
        <ele>191.2</ele>
        <time>2022-05-16T11:03:48Z</time>
      </trkpt>
      <trkpt lat="43.52871" lon="1.46491">
        <ele>192</ele>
        <time>2022-05-16T11:03:49Z</time>
      </trkpt>
      <trkpt lat="43.52871" lon="1.46493">
        <ele>192.2</ele>
        <time>2022-05-16T11:03:50Z</time>
      </trkpt>
      <trkpt lat="43.52869" lon="1.46497">
        <ele>192.7</ele>
        <time>2022-05-16T11:03:51Z</time>
      </trkpt>
      <trkpt lat="43.52866" lon="1.465">
        <ele>193.3</ele>
        <time>2022-05-16T11:03:52Z</time>
      </trkpt>
      <trkpt lat="43.52866" lon="1.46501">
        <ele>193.5</ele>
        <time>2022-05-16T11:03:53Z</time>
      </trkpt>
      <trkpt lat="43.52864" lon="1.46503">
        <ele>193.8</ele>
        <time>2022-05-16T11:03:54Z</time>
      </trkpt>
      <trkpt lat="43.52863" lon="1.46503">
        <ele>194</ele>
        <time>2022-05-16T11:03:55Z</time>
      </trkpt>
      <trkpt lat="43.5286" lon="1.46504">
        <ele>194.6</ele>
        <time>2022-05-16T11:03:56Z</time>
      </trkpt>
      <trkpt lat="43.52859" lon="1.46504">
        <ele>194.7</ele>
        <time>2022-05-16T11:03:57Z</time>
      </trkpt>
      <trkpt lat="43.52857" lon="1.46508">
        <ele>195.3</ele>
        <time>2022-05-16T11:03:58Z</time>
      </trkpt>
      <trkpt lat="43.52856" lon="1.46509">
        <ele>195.5</ele>
        <time>2022-05-16T11:03:59Z</time>
      </trkpt>
      <trkpt lat="43.52856" lon="1.46511">
        <ele>195.7</ele>
        <time>2022-05-16T11:04:00Z</time>
      </trkpt>
      <trkpt lat="43.52856" lon="1.4651">
        <ele>195.8</ele>
        <time>2022-05-16T11:04:01Z</time>
      </trkpt>
      <trkpt lat="43.52858" lon="1.4651">
        <ele>196.1</ele>
        <time>2022-05-16T11:04:02Z</time>
      </trkpt>
      <trkpt lat="43.52858" lon="1.46512">
        <ele>196.3</ele>
        <time>2022-05-16T11:04:03Z</time>
      </trkpt>
      <trkpt lat="43.52858" lon="1.46517">
        <ele>196.8</ele>
        <time>2022-05-16T11:04:04Z</time>
      </trkpt>
      <trkpt lat="43.52859" lon="1.46518">
        <ele>197.1</ele>
        <time>2022-05-16T11:04:05Z</time>
      </trkpt>
      <trkpt lat="43.52858" lon="1.46522">
        <ele>197.5</ele>
        <time>2022-05-16T11:04:06Z</time>
      </trkpt>
      <trkpt lat="43.52858" lon="1.46524">
        <ele>197.7</ele>
        <time>2022-05-16T11:04:07Z</time>
      </trkpt>
      <trkpt lat="43.52858" lon="1.46529">
        <ele>198.3</ele>
        <time>2022-05-16T11:04:08Z</time>
      </trkpt>
      <trkpt lat="43.52858" lon="1.46531">
        <ele>198.5</ele>
        <time>2022-05-16T11:04:09Z</time>
      </trkpt>
      <trkpt lat="43.52858" lon="1.46536">
        <ele>199.2</ele>
        <time>2022-05-16T11:04:10Z</time>
      </trkpt>
      <trkpt lat="43.52858" lon="1.46538">
        <ele>199.4</ele>
        <time>2022-05-16T11:04:11Z</time>
      </trkpt>
      <trkpt lat="43.52858" lon="1.46543">
        <ele>199.9</ele>
        <time>2022-05-16T11:04:12Z</time>
      </trkpt>
      <trkpt lat="43.52858" lon="1.46545">
        <ele>200.1</ele>
        <time>2022-05-16T11:04:13Z</time>
      </trkpt>
      <trkpt lat="43.52858" lon="1.46548">
        <ele>200.5</ele>
        <time>2022-05-16T11:04:14Z</time>
      </trkpt>
      <trkpt lat="43.52858" lon="1.46551">
        <ele>200.8</ele>
        <time>2022-05-16T11:04:15Z</time>
      </trkpt>
      <trkpt lat="43.52858" lon="1.46555">
        <ele>201.2</ele>
        <time>2022-05-16T11:04:16Z</time>
      </trkpt>
      <trkpt lat="43.52857" lon="1.46557">
        <ele>201.5</ele>
        <time>2022-05-16T11:04:17Z</time>
      </trkpt>
      <trkpt lat="43.52858" lon="1.46561">
        <ele>201.9</ele>
        <time>2022-05-16T11:04:18Z</time>
      </trkpt>
      <trkpt lat="43.52859" lon="1.46562">
        <ele>202.1</ele>
        <time>2022-05-16T11:04:19Z</time>
      </trkpt>
      <trkpt lat="43.52862" lon="1.46565">
        <ele>202.5</ele>
        <time>2022-05-16T11:04:20Z</time>
      </trkpt>
      <trkpt lat="43.52864" lon="1.46568">
        <ele>202.9</ele>
        <time>2022-05-16T11:04:21Z</time>
      </trkpt>
      <trkpt lat="43.52863" lon="1.46569">
        <ele>203.1</ele>
        <time>2022-05-16T11:04:22Z</time>
      </trkpt>
      <trkpt lat="43.52865" lon="1.46572">
        <ele>203.4</ele>
        <time>2022-05-16T11:04:23Z</time>
      </trkpt>
      <trkpt lat="43.52869" lon="1.46573">
        <ele>203.9</ele>
        <time>2022-05-16T11:04:24Z</time>
      </trkpt>
      <trkpt lat="43.5287" lon="1.46574">
        <ele>204.1</ele>
        <time>2022-05-16T11:04:25Z</time>
      </trkpt>
      <trkpt lat="43.52875" lon="1.46576">
        <ele>204.6</ele>
        <time>2022-05-16T11:04:26Z</time>
      </trkpt>
      <trkpt lat="43.52876" lon="1.46576">
        <ele>204.8</ele>
        <time>2022-05-16T11:04:27Z</time>
      </trkpt>
      <trkpt lat="43.52879" lon="1.46579">
        <ele>205.2</ele>
        <time>2022-05-16T11:04:28Z</time>
      </trkpt>
      <trkpt lat="43.52881" lon="1.46583">
        <ele>205.7</ele>
        <time>2022-05-16T11:04:29Z</time>
      </trkpt>
      <trkpt lat="43.52882" lon="1.46585">
        <ele>205.9</ele>
        <time>2022-05-16T11:04:30Z</time>
      </trkpt>
      <trkpt lat="43.52884" lon="1.46588">
        <ele>206.2</ele>
        <time>2022-05-16T11:04:31Z</time>
      </trkpt>
      <trkpt lat="43.52884" lon="1.4659">
        <ele>206.4</ele>
        <time>2022-05-16T11:04:32Z</time>
      </trkpt>
      <trkpt lat="43.52885" lon="1.46595">
        <ele>206.9</ele>
        <time>2022-05-16T11:04:33Z</time>
      </trkpt>
      <trkpt lat="43.52885" lon="1.46598">
        <ele>207.1</ele>
        <time>2022-05-16T11:04:34Z</time>
      </trkpt>
      <trkpt lat="43.52888" lon="1.46601">
        <ele>207.5</ele>
        <time>2022-05-16T11:04:35Z</time>
      </trkpt>
      <trkpt lat="43.52889" lon="1.46603">
        <ele>207.7</ele>
        <time>2022-05-16T11:04:36Z</time>
      </trkpt>
      <trkpt lat="43.52891" lon="1.46605">
        <ele>208</ele>
        <time>2022-05-16T11:04:37Z</time>
      </trkpt>
      <trkpt lat="43.52891" lon="1.46608">
        <ele>208.3</ele>
        <time>2022-05-16T11:04:38Z</time>
      </trkpt>
      <trkpt lat="43.52892" lon="1.46612">
        <ele>208.6</ele>
        <time>2022-05-16T11:04:39Z</time>
      </trkpt>
      <trkpt lat="43.52892" lon="1.46616">
        <ele>208.9</ele>
        <time>2022-05-16T11:04:40Z</time>
      </trkpt>
      <trkpt lat="43.52894" lon="1.4662">
        <ele>209.2</ele>
        <time>2022-05-16T11:04:41Z</time>
      </trkpt>
      <trkpt lat="43.52896" lon="1.46623">
        <ele>209.5</ele>
        <time>2022-05-16T11:04:42Z</time>
      </trkpt>
      <trkpt lat="43.52899" lon="1.46625">
        <ele>209.8</ele>
        <time>2022-05-16T11:04:43Z</time>
      </trkpt>
      <trkpt lat="43.529" lon="1.4663">
        <ele>210.1</ele>
        <time>2022-05-16T11:04:44Z</time>
      </trkpt>
      <trkpt lat="43.52902" lon="1.46633">
        <ele>210.4</ele>
        <time>2022-05-16T11:04:45Z</time>
      </trkpt>
      <trkpt lat="43.52904" lon="1.46636">
        <ele>210.7</ele>
        <time>2022-05-16T11:04:46Z</time>
      </trkpt>
      <trkpt lat="43.52906" lon="1.4664">
        <ele>211</ele>
        <time>2022-05-16T11:04:47Z</time>
      </trkpt>
      <trkpt lat="43.52905" lon="1.46644">
        <ele>211.3</ele>
        <time>2022-05-16T11:04:48Z</time>
      </trkpt>
      <trkpt lat="43.52903" lon="1.46648">
        <ele>211.6</ele>
        <time>2022-05-16T11:04:49Z</time>
      </trkpt>
      <trkpt lat="43.52901" lon="1.46652">
        <ele>211.8</ele>
        <time>2022-05-16T11:04:50Z</time>
      </trkpt>
      <trkpt lat="43.52901" lon="1.46656">
        <ele>212.1</ele>
        <time>2022-05-16T11:04:51Z</time>
      </trkpt>
      <trkpt lat="43.529" lon="1.4666">
        <ele>212.3</ele>
        <time>2022-05-16T11:04:52Z</time>
      </trkpt>
      <trkpt lat="43.52898" lon="1.46664">
        <ele>212.6</ele>
        <time>2022-05-16T11:04:53Z</time>
      </trkpt>
      <trkpt lat="43.52896" lon="1.46666">
        <ele>212.8</ele>
        <time>2022-05-16T11:04:54Z</time>
      </trkpt>
      <trkpt lat="43.52894" lon="1.46669">
        <ele>213.1</ele>
        <time>2022-05-16T11:04:55Z</time>
      </trkpt>
      <trkpt lat="43.52891" lon="1.46673">
        <ele>213.4</ele>
        <time>2022-05-16T11:04:56Z</time>
      </trkpt>
      <trkpt lat="43.52889" lon="1.46676">
        <ele>213.6</ele>
        <time>2022-05-16T11:04:57Z</time>
      </trkpt>
      <trkpt lat="43.52886" lon="1.4668">
        <ele>214</ele>
        <time>2022-05-16T11:04:58Z</time>
      </trkpt>
      <trkpt lat="43.52885" lon="1.46681">
        <ele>214.1</ele>
        <time>2022-05-16T11:04:59Z</time>
      </trkpt>
      <trkpt lat="43.52883" lon="1.46685">
        <ele>214.4</ele>
        <time>2022-05-16T11:05:00Z</time>
      </trkpt>
      <trkpt lat="43.52882" lon="1.46689">
        <ele>214.7</ele>
        <time>2022-05-16T11:05:01Z</time>
      </trkpt>
      <trkpt lat="43.5288" lon="1.46693">
        <ele>215</ele>
        <time>2022-05-16T11:05:02Z</time>
      </trkpt>
      <trkpt lat="43.52878" lon="1.46698">
        <ele>215.3</ele>
        <time>2022-05-16T11:05:03Z</time>
      </trkpt>
      <trkpt lat="43.52878" lon="1.467">
        <ele>215.5</ele>
        <time>2022-05-16T11:05:04Z</time>
      </trkpt>
      <trkpt lat="43.52876" lon="1.46704">
        <ele>215.8</ele>
        <time>2022-05-16T11:05:05Z</time>
      </trkpt>
      <trkpt lat="43.52874" lon="1.46709">
        <ele>216.1</ele>
        <time>2022-05-16T11:05:06Z</time>
      </trkpt>
      <trkpt lat="43.52873" lon="1.46712">
        <ele>216.3</ele>
        <time>2022-05-16T11:05:07Z</time>
      </trkpt>
      <trkpt lat="43.52871" lon="1.46716">
        <ele>216.6</ele>
        <time>2022-05-16T11:05:08Z</time>
      </trkpt>
      <trkpt lat="43.5287" lon="1.46721">
        <ele>216.9</ele>
        <time>2022-05-16T11:05:09Z</time>
      </trkpt>
      <trkpt lat="43.52867" lon="1.46725">
        <ele>217.3</ele>
        <time>2022-05-16T11:05:10Z</time>
      </trkpt>
      <trkpt lat="43.52865" lon="1.46729">
        <ele>217.6</ele>
        <time>2022-05-16T11:05:11Z</time>
      </trkpt>
      <trkpt lat="43.52863" lon="1.46734">
        <ele>218</ele>
        <time>2022-05-16T11:05:12Z</time>
      </trkpt>
      <trkpt lat="43.52861" lon="1.46739">
        <ele>218.3</ele>
        <time>2022-05-16T11:05:13Z</time>
      </trkpt>
      <trkpt lat="43.52858" lon="1.46742">
        <ele>218.7</ele>
        <time>2022-05-16T11:05:14Z</time>
      </trkpt>
      <trkpt lat="43.52856" lon="1.46747">
        <ele>219.1</ele>
        <time>2022-05-16T11:05:15Z</time>
      </trkpt>
      <trkpt lat="43.52854" lon="1.4675">
        <ele>219.4</ele>
        <time>2022-05-16T11:05:16Z</time>
      </trkpt>
      <trkpt lat="43.52852" lon="1.46755">
        <ele>219.8</ele>
        <time>2022-05-16T11:05:17Z</time>
      </trkpt>
      <trkpt lat="43.52851" lon="1.46759">
        <ele>220.1</ele>
        <time>2022-05-16T11:05:18Z</time>
      </trkpt>
      <trkpt lat="43.52849" lon="1.46763">
        <ele>220.5</ele>
        <time>2022-05-16T11:05:19Z</time>
      </trkpt>
      <trkpt lat="43.52847" lon="1.46767">
        <ele>220.8</ele>
        <time>2022-05-16T11:05:20Z</time>
      </trkpt>
      <trkpt lat="43.52844" lon="1.46772">
        <ele>221.1</ele>
        <time>2022-05-16T11:05:21Z</time>
      </trkpt>
      <trkpt lat="43.52842" lon="1.46777">
        <ele>221.5</ele>
        <time>2022-05-16T11:05:22Z</time>
      </trkpt>
      <trkpt lat="43.5284" lon="1.46782">
        <ele>221.8</ele>
        <time>2022-05-16T11:05:23Z</time>
      </trkpt>
      <trkpt lat="43.52838" lon="1.46787">
        <ele>222.1</ele>
        <time>2022-05-16T11:05:24Z</time>
      </trkpt>
      <trkpt lat="43.52836" lon="1.46791">
        <ele>222.4</ele>
        <time>2022-05-16T11:05:25Z</time>
      </trkpt>
      <trkpt lat="43.52833" lon="1.46796">
        <ele>222.8</ele>
        <time>2022-05-16T11:05:26Z</time>
      </trkpt>
      <trkpt lat="43.5283" lon="1.46799">
        <ele>223.1</ele>
        <time>2022-05-16T11:05:27Z</time>
      </trkpt>
      <trkpt lat="43.52827" lon="1.46803">
        <ele>223.4</ele>
        <time>2022-05-16T11:05:28Z</time>
      </trkpt>
      <trkpt lat="43.52824" lon="1.46807">
        <ele>223.7</ele>
        <time>2022-05-16T11:05:29Z</time>
      </trkpt>
      <trkpt lat="43.52821" lon="1.4681">
        <ele>224.1</ele>
        <time>2022-05-16T11:05:30Z</time>
      </trkpt>
      <trkpt lat="43.52818" lon="1.46813">
        <ele>224.4</ele>
        <time>2022-05-16T11:05:31Z</time>
      </trkpt>
      <trkpt lat="43.52814" lon="1.46816">
        <ele>224.7</ele>
        <time>2022-05-16T11:05:32Z</time>
      </trkpt>
      <trkpt lat="43.5281" lon="1.46819">
        <ele>225</ele>
        <time>2022-05-16T11:05:33Z</time>
      </trkpt>
      <trkpt lat="43.52807" lon="1.46822">
        <ele>225.3</ele>
        <time>2022-05-16T11:05:34Z</time>
      </trkpt>
      <trkpt lat="43.52803" lon="1.46825">
        <ele>225.7</ele>
        <time>2022-05-16T11:05:35Z</time>
      </trkpt>
      <trkpt lat="43.528" lon="1.46828">
        <ele>226</ele>
        <time>2022-05-16T11:05:36Z</time>
      </trkpt>
      <trkpt lat="43.52796" lon="1.46831">
        <ele>226.3</ele>
        <time>2022-05-16T11:05:37Z</time>
      </trkpt>
      <trkpt lat="43.52792" lon="1.46834">
        <ele>226.7</ele>
        <time>2022-05-16T11:05:38Z</time>
      </trkpt>
      <trkpt lat="43.52789" lon="1.46838">
        <ele>227</ele>
        <time>2022-05-16T11:05:39Z</time>
      </trkpt>
      <trkpt lat="43.52785" lon="1.46841">
        <ele>227.3</ele>
        <time>2022-05-16T11:05:40Z</time>
      </trkpt>
      <trkpt lat="43.52782" lon="1.46845">
        <ele>227.6</ele>
        <time>2022-05-16T11:05:41Z</time>
      </trkpt>
      <trkpt lat="43.52778" lon="1.46849">
        <ele>228</ele>
        <time>2022-05-16T11:05:42Z</time>
      </trkpt>
      <trkpt lat="43.52775" lon="1.46853">
        <ele>228.3</ele>
        <time>2022-05-16T11:05:43Z</time>
      </trkpt>
      <trkpt lat="43.52772" lon="1.46857">
        <ele>228.6</ele>
        <time>2022-05-16T11:05:44Z</time>
      </trkpt>
      <trkpt lat="43.52769" lon="1.46862">
        <ele>228.9</ele>
        <time>2022-05-16T11:05:45Z</time>
      </trkpt>
      <trkpt lat="43.52766" lon="1.46866">
        <ele>229.2</ele>
        <time>2022-05-16T11:05:46Z</time>
      </trkpt>
      <trkpt lat="43.52763" lon="1.46869">
        <ele>229.5</ele>
        <time>2022-05-16T11:05:47Z</time>
      </trkpt>
      <trkpt lat="43.5276" lon="1.46873">
        <ele>229.8</ele>
        <time>2022-05-16T11:05:48Z</time>
      </trkpt>
      <trkpt lat="43.52757" lon="1.46877">
        <ele>230.1</ele>
        <time>2022-05-16T11:05:49Z</time>
      </trkpt>
      <trkpt lat="43.52755" lon="1.46882">
        <ele>230.4</ele>
        <time>2022-05-16T11:05:50Z</time>
      </trkpt>
      <trkpt lat="43.52752" lon="1.46886">
        <ele>230.6</ele>
        <time>2022-05-16T11:05:51Z</time>
      </trkpt>
      <trkpt lat="43.52749" lon="1.4689">
        <ele>230.9</ele>
        <time>2022-05-16T11:05:52Z</time>
      </trkpt>
      <trkpt lat="43.52746" lon="1.46895">
        <ele>231.2</ele>
        <time>2022-05-16T11:05:53Z</time>
      </trkpt>
      <trkpt lat="43.52743" lon="1.46899">
        <ele>231.4</ele>
        <time>2022-05-16T11:05:54Z</time>
      </trkpt>
      <trkpt lat="43.5274" lon="1.46904">
        <ele>231.7</ele>
        <time>2022-05-16T11:05:55Z</time>
      </trkpt>
      <trkpt lat="43.52737" lon="1.46908">
        <ele>231.9</ele>
        <time>2022-05-16T11:05:56Z</time>
      </trkpt>
      <trkpt lat="43.52734" lon="1.46912">
        <ele>232.2</ele>
        <time>2022-05-16T11:05:57Z</time>
      </trkpt>
      <trkpt lat="43.52731" lon="1.46916">
        <ele>232.4</ele>
        <time>2022-05-16T11:05:58Z</time>
      </trkpt>
      <trkpt lat="43.52728" lon="1.46921">
        <ele>232.6</ele>
        <time>2022-05-16T11:05:59Z</time>
      </trkpt>
      <trkpt lat="43.52725" lon="1.46926">
        <ele>232.9</ele>
        <time>2022-05-16T11:06:00Z</time>
      </trkpt>
      <trkpt lat="43.52722" lon="1.4693">
        <ele>233.1</ele>
        <time>2022-05-16T11:06:01Z</time>
      </trkpt>
      <trkpt lat="43.52719" lon="1.46934">
        <ele>233.3</ele>
        <time>2022-05-16T11:06:02Z</time>
      </trkpt>
      <trkpt lat="43.52716" lon="1.46939">
        <ele>233.5</ele>
        <time>2022-05-16T11:06:03Z</time>
      </trkpt>
      <trkpt lat="43.52714" lon="1.46944">
        <ele>233.7</ele>
        <time>2022-05-16T11:06:04Z</time>
      </trkpt>
      <trkpt lat="43.52711" lon="1.46948">
        <ele>234</ele>
        <time>2022-05-16T11:06:05Z</time>
      </trkpt>
      <trkpt lat="43.52708" lon="1.46952">
        <ele>234.2</ele>
        <time>2022-05-16T11:06:06Z</time>
      </trkpt>
      <trkpt lat="43.52705" lon="1.46957">
        <ele>234.4</ele>
        <time>2022-05-16T11:06:07Z</time>
      </trkpt>
      <trkpt lat="43.52702" lon="1.46961">
        <ele>234.6</ele>
        <time>2022-05-16T11:06:08Z</time>
      </trkpt>
      <trkpt lat="43.52699" lon="1.46966">
        <ele>234.8</ele>
        <time>2022-05-16T11:06:09Z</time>
      </trkpt>
      <trkpt lat="43.52696" lon="1.4697">
        <ele>235</ele>
        <time>2022-05-16T11:06:10Z</time>
      </trkpt>
      <trkpt lat="43.52693" lon="1.46975">
        <ele>235.3</ele>
        <time>2022-05-16T11:06:11Z</time>
      </trkpt>
      <trkpt lat="43.5269" lon="1.4698">
        <ele>235.5</ele>
        <time>2022-05-16T11:06:12Z</time>
      </trkpt>
      <trkpt lat="43.52686" lon="1.46985">
        <ele>235.7</ele>
        <time>2022-05-16T11:06:13Z</time>
      </trkpt>
      <trkpt lat="43.52683" lon="1.4699">
        <ele>235.9</ele>
        <time>2022-05-16T11:06:14Z</time>
      </trkpt>
      <trkpt lat="43.5268" lon="1.46995">
        <ele>236.2</ele>
        <time>2022-05-16T11:06:15Z</time>
      </trkpt>
      <trkpt lat="43.52677" lon="1.47">
        <ele>236.3</ele>
        <time>2022-05-16T11:06:16Z</time>
      </trkpt>
      <trkpt lat="43.52674" lon="1.47006">
        <ele>236.5</ele>
        <time>2022-05-16T11:06:17Z</time>
      </trkpt>
      <trkpt lat="43.52671" lon="1.47012">
        <ele>236.7</ele>
        <time>2022-05-16T11:06:18Z</time>
      </trkpt>
      <trkpt lat="43.52667" lon="1.47017">
        <ele>236.9</ele>
        <time>2022-05-16T11:06:19Z</time>
      </trkpt>
      <trkpt lat="43.52664" lon="1.47022">
        <ele>237.1</ele>
        <time>2022-05-16T11:06:20Z</time>
      </trkpt>
      <trkpt lat="43.52661" lon="1.47027">
        <ele>237.3</ele>
        <time>2022-05-16T11:06:21Z</time>
      </trkpt>
      <trkpt lat="43.52657" lon="1.47031">
        <ele>237.5</ele>
        <time>2022-05-16T11:06:22Z</time>
      </trkpt>
      <trkpt lat="43.52654" lon="1.47036">
        <ele>237.6</ele>
        <time>2022-05-16T11:06:23Z</time>
      </trkpt>
      <trkpt lat="43.52651" lon="1.47041">
        <ele>237.8</ele>
        <time>2022-05-16T11:06:24Z</time>
      </trkpt>
      <trkpt lat="43.52647" lon="1.47046">
        <ele>238</ele>
        <time>2022-05-16T11:06:25Z</time>
      </trkpt>
      <trkpt lat="43.52644" lon="1.47051">
        <ele>238.1</ele>
        <time>2022-05-16T11:06:27Z</time>
      </trkpt>
      <trkpt lat="43.5264" lon="1.47056">
        <ele>238.3</ele>
        <time>2022-05-16T11:06:28Z</time>
      </trkpt>
      <trkpt lat="43.52637" lon="1.47061">
        <ele>238.5</ele>
        <time>2022-05-16T11:06:29Z</time>
      </trkpt>
      <trkpt lat="43.52634" lon="1.47066">
        <ele>238.6</ele>
        <time>2022-05-16T11:06:30Z</time>
      </trkpt>
      <trkpt lat="43.52631" lon="1.47071">
        <ele>238.8</ele>
        <time>2022-05-16T11:06:31Z</time>
      </trkpt>
      <trkpt lat="43.52627" lon="1.47076">
        <ele>238.9</ele>
        <time>2022-05-16T11:06:32Z</time>
      </trkpt>
      <trkpt lat="43.5262" lon="1.47079">
        <ele>239.1</ele>
        <time>2022-05-16T11:06:33Z</time>
      </trkpt>
      <trkpt lat="43.52619" lon="1.47085">
        <ele>239.2</ele>
        <time>2022-05-16T11:06:34Z</time>
      </trkpt>
      <trkpt lat="43.52616" lon="1.47091">
        <ele>239.3</ele>
        <time>2022-05-16T11:06:35Z</time>
      </trkpt>
      <trkpt lat="43.52613" lon="1.47096">
        <ele>239.4</ele>
        <time>2022-05-16T11:06:36Z</time>
      </trkpt>
      <trkpt lat="43.52611" lon="1.47102">
        <ele>239.4</ele>
        <time>2022-05-16T11:06:37Z</time>
      </trkpt>
      <trkpt lat="43.52608" lon="1.47108">
        <ele>239.5</ele>
        <time>2022-05-16T11:06:38Z</time>
      </trkpt>
      <trkpt lat="43.52605" lon="1.47114">
        <ele>239.5</ele>
        <time>2022-05-16T11:06:39Z</time>
      </trkpt>
      <trkpt lat="43.52603" lon="1.4712">
        <ele>239.5</ele>
        <time>2022-05-16T11:06:40Z</time>
      </trkpt>
      <trkpt lat="43.526" lon="1.47126">
        <ele>239.5</ele>
        <time>2022-05-16T11:06:41Z</time>
      </trkpt>
      <trkpt lat="43.52597" lon="1.47132">
        <ele>239.5</ele>
        <time>2022-05-16T11:06:42Z</time>
      </trkpt>
      <trkpt lat="43.52595" lon="1.47138">
        <ele>239.4</ele>
        <time>2022-05-16T11:06:43Z</time>
      </trkpt>
      <trkpt lat="43.52592" lon="1.47144">
        <ele>239.4</ele>
        <time>2022-05-16T11:06:44Z</time>
      </trkpt>
      <trkpt lat="43.52588" lon="1.47149">
        <ele>239.4</ele>
        <time>2022-05-16T11:06:45Z</time>
      </trkpt>
      <trkpt lat="43.52584" lon="1.47155">
        <ele>239.3</ele>
        <time>2022-05-16T11:06:46Z</time>
      </trkpt>
      <trkpt lat="43.5258" lon="1.4716">
        <ele>239.2</ele>
        <time>2022-05-16T11:06:47Z</time>
      </trkpt>
      <trkpt lat="43.52576" lon="1.47165">
        <ele>239.1</ele>
        <time>2022-05-16T11:06:48Z</time>
      </trkpt>
      <trkpt lat="43.52567" lon="1.47174">
        <ele>238.9</ele>
        <time>2022-05-16T11:06:49Z</time>
      </trkpt>
      <trkpt lat="43.52561" lon="1.47175">
        <ele>238.9</ele>
        <time>2022-05-16T11:06:50Z</time>
      </trkpt>
      <trkpt lat="43.52556" lon="1.47173">
        <ele>239.1</ele>
        <time>2022-05-16T11:06:51Z</time>
      </trkpt>
      <trkpt lat="43.52551" lon="1.47167">
        <ele>239.4</ele>
        <time>2022-05-16T11:06:52Z</time>
      </trkpt>
      <trkpt lat="43.52549" lon="1.4716">
        <ele>239.7</ele>
        <time>2022-05-16T11:06:53Z</time>
      </trkpt>
      <trkpt lat="43.52546" lon="1.47154">
        <ele>239.9</ele>
        <time>2022-05-16T11:06:54Z</time>
      </trkpt>
      <trkpt lat="43.52542" lon="1.47148">
        <ele>240.2</ele>
        <time>2022-05-16T11:06:55Z</time>
      </trkpt>
      <trkpt lat="43.52539" lon="1.47143">
        <ele>240.3</ele>
        <time>2022-05-16T11:06:56Z</time>
      </trkpt>
      <trkpt lat="43.52536" lon="1.47138">
        <ele>240.5</ele>
        <time>2022-05-16T11:06:57Z</time>
      </trkpt>
      <trkpt lat="43.52532" lon="1.47133">
        <ele>240.6</ele>
        <time>2022-05-16T11:06:58Z</time>
      </trkpt>
      <trkpt lat="43.52528" lon="1.47128">
        <ele>240.8</ele>
        <time>2022-05-16T11:06:59Z</time>
      </trkpt>
      <trkpt lat="43.52523" lon="1.47123">
        <ele>240.9</ele>
        <time>2022-05-16T11:07:00Z</time>
      </trkpt>
      <trkpt lat="43.52519" lon="1.47119">
        <ele>241.1</ele>
        <time>2022-05-16T11:07:01Z</time>
      </trkpt>
      <trkpt lat="43.52514" lon="1.47114">
        <ele>241.2</ele>
        <time>2022-05-16T11:07:02Z</time>
      </trkpt>
      <trkpt lat="43.52509" lon="1.47109">
        <ele>241.4</ele>
        <time>2022-05-16T11:07:03Z</time>
      </trkpt>
      <trkpt lat="43.52505" lon="1.47106">
        <ele>241.5</ele>
        <time>2022-05-16T11:07:04Z</time>
      </trkpt>
      <trkpt lat="43.525" lon="1.47102">
        <ele>241.7</ele>
        <time>2022-05-16T11:07:05Z</time>
      </trkpt>
      <trkpt lat="43.52496" lon="1.47098">
        <ele>241.9</ele>
        <time>2022-05-16T11:07:06Z</time>
      </trkpt>
      <trkpt lat="43.52491" lon="1.47094">
        <ele>242.1</ele>
        <time>2022-05-16T11:07:07Z</time>
      </trkpt>
      <trkpt lat="43.52487" lon="1.4709">
        <ele>242.3</ele>
        <time>2022-05-16T11:07:08Z</time>
      </trkpt>
      <trkpt lat="43.52483" lon="1.47088">
        <ele>242.5</ele>
        <time>2022-05-16T11:07:09Z</time>
      </trkpt>
      <trkpt lat="43.52478" lon="1.47084">
        <ele>242.8</ele>
        <time>2022-05-16T11:07:10Z</time>
      </trkpt>
      <trkpt lat="43.52473" lon="1.47081">
        <ele>243</ele>
        <time>2022-05-16T11:07:11Z</time>
      </trkpt>
      <trkpt lat="43.52468" lon="1.4708">
        <ele>243.2</ele>
        <time>2022-05-16T11:07:12Z</time>
      </trkpt>
      <trkpt lat="43.52463" lon="1.47077">
        <ele>243.4</ele>
        <time>2022-05-16T11:07:13Z</time>
      </trkpt>
      <trkpt lat="43.52458" lon="1.47075">
        <ele>243.7</ele>
        <time>2022-05-16T11:07:14Z</time>
      </trkpt>
      <trkpt lat="43.52453" lon="1.47075">
        <ele>243.9</ele>
        <time>2022-05-16T11:07:15Z</time>
      </trkpt>
      <trkpt lat="43.52448" lon="1.47075">
        <ele>244.1</ele>
        <time>2022-05-16T11:07:16Z</time>
      </trkpt>
      <trkpt lat="43.52443" lon="1.47076">
        <ele>244.3</ele>
        <time>2022-05-16T11:07:17Z</time>
      </trkpt>
      <trkpt lat="43.52437" lon="1.47077">
        <ele>244.5</ele>
        <time>2022-05-16T11:07:18Z</time>
      </trkpt>
      <trkpt lat="43.52432" lon="1.47078">
        <ele>244.7</ele>
        <time>2022-05-16T11:07:19Z</time>
      </trkpt>
      <trkpt lat="43.52427" lon="1.47081">
        <ele>244.9</ele>
        <time>2022-05-16T11:07:20Z</time>
      </trkpt>
      <trkpt lat="43.52423" lon="1.47085">
        <ele>245</ele>
        <time>2022-05-16T11:07:21Z</time>
      </trkpt>
      <trkpt lat="43.5242" lon="1.47091">
        <ele>245.1</ele>
        <time>2022-05-16T11:07:22Z</time>
      </trkpt>
      <trkpt lat="43.52416" lon="1.47096">
        <ele>245.3</ele>
        <time>2022-05-16T11:07:23Z</time>
      </trkpt>
      <trkpt lat="43.52412" lon="1.47102">
        <ele>245.4</ele>
        <time>2022-05-16T11:07:24Z</time>
      </trkpt>
      <trkpt lat="43.52409" lon="1.47109">
        <ele>245.5</ele>
        <time>2022-05-16T11:07:25Z</time>
      </trkpt>
      <trkpt lat="43.52406" lon="1.47114">
        <ele>245.5</ele>
        <time>2022-05-16T11:07:26Z</time>
      </trkpt>
      <trkpt lat="43.52402" lon="1.4712">
        <ele>245.5</ele>
        <time>2022-05-16T11:07:27Z</time>
      </trkpt>
      <trkpt lat="43.52399" lon="1.47126">
        <ele>245.5</ele>
        <time>2022-05-16T11:07:28Z</time>
      </trkpt>
      <trkpt lat="43.52396" lon="1.47133">
        <ele>245.5</ele>
        <time>2022-05-16T11:07:29Z</time>
      </trkpt>
      <trkpt lat="43.52392" lon="1.47138">
        <ele>245.5</ele>
        <time>2022-05-16T11:07:30Z</time>
      </trkpt>
      <trkpt lat="43.52388" lon="1.47143">
        <ele>245.5</ele>
        <time>2022-05-16T11:07:31Z</time>
      </trkpt>
      <trkpt lat="43.52384" lon="1.47148">
        <ele>245.5</ele>
        <time>2022-05-16T11:07:32Z</time>
      </trkpt>
      <trkpt lat="43.52381" lon="1.47155">
        <ele>245.4</ele>
        <time>2022-05-16T11:07:33Z</time>
      </trkpt>
      <trkpt lat="43.52378" lon="1.47162">
        <ele>245.4</ele>
        <time>2022-05-16T11:07:34Z</time>
      </trkpt>
      <trkpt lat="43.52375" lon="1.47168">
        <ele>245.3</ele>
        <time>2022-05-16T11:07:35Z</time>
      </trkpt>
      <trkpt lat="43.52372" lon="1.47175">
        <ele>245.3</ele>
        <time>2022-05-16T11:07:36Z</time>
      </trkpt>
      <trkpt lat="43.5237" lon="1.47183">
        <ele>245.2</ele>
        <time>2022-05-16T11:07:37Z</time>
      </trkpt>
      <trkpt lat="43.52367" lon="1.47189">
        <ele>245.2</ele>
        <time>2022-05-16T11:07:38Z</time>
      </trkpt>
      <trkpt lat="43.52364" lon="1.47196">
        <ele>245.1</ele>
        <time>2022-05-16T11:07:39Z</time>
      </trkpt>
      <trkpt lat="43.52361" lon="1.47203">
        <ele>245.1</ele>
        <time>2022-05-16T11:07:40Z</time>
      </trkpt>
      <trkpt lat="43.52358" lon="1.4721">
        <ele>245.1</ele>
        <time>2022-05-16T11:07:41Z</time>
      </trkpt>
      <trkpt lat="43.52356" lon="1.47217">
        <ele>245.1</ele>
        <time>2022-05-16T11:07:42Z</time>
      </trkpt>
      <trkpt lat="43.52353" lon="1.47224">
        <ele>245.1</ele>
        <time>2022-05-16T11:07:43Z</time>
      </trkpt>
      <trkpt lat="43.5235" lon="1.4723">
        <ele>245.1</ele>
        <time>2022-05-16T11:07:44Z</time>
      </trkpt>
      <trkpt lat="43.52347" lon="1.47236">
        <ele>245.2</ele>
        <time>2022-05-16T11:07:45Z</time>
      </trkpt>
      <trkpt lat="43.52342" lon="1.4724">
        <ele>245.2</ele>
        <time>2022-05-16T11:07:46Z</time>
      </trkpt>
      <trkpt lat="43.52337" lon="1.47244">
        <ele>245.3</ele>
        <time>2022-05-16T11:07:47Z</time>
      </trkpt>
      <trkpt lat="43.52332" lon="1.47246">
        <ele>245.3</ele>
        <time>2022-05-16T11:07:48Z</time>
      </trkpt>
      <trkpt lat="43.52328" lon="1.47248">
        <ele>245.3</ele>
        <time>2022-05-16T11:07:49Z</time>
      </trkpt>
      <trkpt lat="43.52323" lon="1.47251">
        <ele>245.4</ele>
        <time>2022-05-16T11:07:50Z</time>
      </trkpt>
      <trkpt lat="43.52319" lon="1.47255">
        <ele>245.4</ele>
        <time>2022-05-16T11:07:51Z</time>
      </trkpt>
      <trkpt lat="43.52315" lon="1.47261">
        <ele>245.4</ele>
        <time>2022-05-16T11:07:52Z</time>
      </trkpt>
      <trkpt lat="43.52312" lon="1.47266">
        <ele>245.4</ele>
        <time>2022-05-16T11:07:53Z</time>
      </trkpt>
      <trkpt lat="43.52309" lon="1.47272">
        <ele>245.5</ele>
        <time>2022-05-16T11:07:54Z</time>
      </trkpt>
      <trkpt lat="43.52305" lon="1.47278">
        <ele>245.5</ele>
        <time>2022-05-16T11:07:55Z</time>
      </trkpt>
      <trkpt lat="43.52303" lon="1.47284">
        <ele>245.4</ele>
        <time>2022-05-16T11:07:56Z</time>
      </trkpt>
      <trkpt lat="43.52299" lon="1.4729">
        <ele>245.4</ele>
        <time>2022-05-16T11:07:57Z</time>
      </trkpt>
      <trkpt lat="43.52296" lon="1.47296">
        <ele>245.4</ele>
        <time>2022-05-16T11:07:58Z</time>
      </trkpt>
      <trkpt lat="43.52293" lon="1.47302">
        <ele>245.4</ele>
        <time>2022-05-16T11:07:59Z</time>
      </trkpt>
      <trkpt lat="43.52289" lon="1.47307">
        <ele>245.4</ele>
        <time>2022-05-16T11:08:00Z</time>
      </trkpt>
      <trkpt lat="43.52285" lon="1.47313">
        <ele>245.4</ele>
        <time>2022-05-16T11:08:01Z</time>
      </trkpt>
      <trkpt lat="43.52281" lon="1.47318">
        <ele>245.4</ele>
        <time>2022-05-16T11:08:02Z</time>
      </trkpt>
      <trkpt lat="43.52278" lon="1.47324">
        <ele>245.4</ele>
        <time>2022-05-16T11:08:03Z</time>
      </trkpt>
      <trkpt lat="43.52274" lon="1.47329">
        <ele>245.5</ele>
        <time>2022-05-16T11:08:04Z</time>
      </trkpt>
      <trkpt lat="43.5227" lon="1.47334">
        <ele>245.5</ele>
        <time>2022-05-16T11:08:05Z</time>
      </trkpt>
      <trkpt lat="43.52265" lon="1.47338">
        <ele>245.6</ele>
        <time>2022-05-16T11:08:06Z</time>
      </trkpt>
      <trkpt lat="43.5226" lon="1.4734">
        <ele>245.7</ele>
        <time>2022-05-16T11:08:07Z</time>
      </trkpt>
      <trkpt lat="43.52254" lon="1.4734">
        <ele>245.9</ele>
        <time>2022-05-16T11:08:08Z</time>
      </trkpt>
      <trkpt lat="43.52249" lon="1.47338">
        <ele>246.1</ele>
        <time>2022-05-16T11:08:09Z</time>
      </trkpt>
      <trkpt lat="43.52245" lon="1.47334">
        <ele>246.3</ele>
        <time>2022-05-16T11:08:10Z</time>
      </trkpt>
      <trkpt lat="43.52242" lon="1.47328">
        <ele>246.4</ele>
        <time>2022-05-16T11:08:11Z</time>
      </trkpt>
      <trkpt lat="43.52238" lon="1.47324">
        <ele>246.6</ele>
        <time>2022-05-16T11:08:12Z</time>
      </trkpt>
      <trkpt lat="43.52235" lon="1.4732">
        <ele>246.7</ele>
        <time>2022-05-16T11:08:13Z</time>
      </trkpt>
      <trkpt lat="43.52232" lon="1.47317">
        <ele>246.9</ele>
        <time>2022-05-16T11:08:14Z</time>
      </trkpt>
      <trkpt lat="43.52228" lon="1.47314">
        <ele>247</ele>
        <time>2022-05-16T11:08:15Z</time>
      </trkpt>
      <trkpt lat="43.52225" lon="1.4731">
        <ele>247.2</ele>
        <time>2022-05-16T11:08:16Z</time>
      </trkpt>
      <trkpt lat="43.5222" lon="1.47306">
        <ele>247.4</ele>
        <time>2022-05-16T11:08:17Z</time>
      </trkpt>
      <trkpt lat="43.52217" lon="1.47302">
        <ele>247.6</ele>
        <time>2022-05-16T11:08:18Z</time>
      </trkpt>
      <trkpt lat="43.52215" lon="1.47297">
        <ele>247.8</ele>
        <time>2022-05-16T11:08:19Z</time>
      </trkpt>
      <trkpt lat="43.52211" lon="1.47293">
        <ele>247.9</ele>
        <time>2022-05-16T11:08:20Z</time>
      </trkpt>
      <trkpt lat="43.52207" lon="1.4729">
        <ele>248.2</ele>
        <time>2022-05-16T11:08:21Z</time>
      </trkpt>
      <trkpt lat="43.52203" lon="1.47286">
        <ele>248.3</ele>
        <time>2022-05-16T11:08:22Z</time>
      </trkpt>
      <trkpt lat="43.522" lon="1.47282">
        <ele>248.5</ele>
        <time>2022-05-16T11:08:23Z</time>
      </trkpt>
      <trkpt lat="43.52196" lon="1.47278">
        <ele>248.7</ele>
        <time>2022-05-16T11:08:24Z</time>
      </trkpt>
      <trkpt lat="43.52193" lon="1.47274">
        <ele>248.9</ele>
        <time>2022-05-16T11:08:25Z</time>
      </trkpt>
      <trkpt lat="43.52189" lon="1.4727">
        <ele>249.1</ele>
        <time>2022-05-16T11:08:26Z</time>
      </trkpt>
      <trkpt lat="43.52186" lon="1.47266">
        <ele>249.3</ele>
        <time>2022-05-16T11:08:27Z</time>
      </trkpt>
      <trkpt lat="43.52182" lon="1.47262">
        <ele>249.4</ele>
        <time>2022-05-16T11:08:28Z</time>
      </trkpt>
      <trkpt lat="43.52178" lon="1.47258">
        <ele>249.6</ele>
        <time>2022-05-16T11:08:29Z</time>
      </trkpt>
      <trkpt lat="43.52175" lon="1.47255">
        <ele>249.8</ele>
        <time>2022-05-16T11:08:30Z</time>
      </trkpt>
      <trkpt lat="43.52171" lon="1.47251">
        <ele>250</ele>
        <time>2022-05-16T11:08:31Z</time>
      </trkpt>
      <trkpt lat="43.52167" lon="1.47247">
        <ele>250.2</ele>
        <time>2022-05-16T11:08:33Z</time>
      </trkpt>
      <trkpt lat="43.52164" lon="1.47243">
        <ele>250.4</ele>
        <time>2022-05-16T11:08:34Z</time>
      </trkpt>
      <trkpt lat="43.5216" lon="1.4724">
        <ele>250.7</ele>
        <time>2022-05-16T11:08:35Z</time>
      </trkpt>
      <trkpt lat="43.52157" lon="1.47236">
        <ele>250.9</ele>
        <time>2022-05-16T11:08:36Z</time>
      </trkpt>
      <trkpt lat="43.52154" lon="1.47232">
        <ele>251.2</ele>
        <time>2022-05-16T11:08:37Z</time>
      </trkpt>
      <trkpt lat="43.5215" lon="1.47228">
        <ele>251.5</ele>
        <time>2022-05-16T11:08:38Z</time>
      </trkpt>
      <trkpt lat="43.52147" lon="1.47223">
        <ele>251.8</ele>
        <time>2022-05-16T11:08:39Z</time>
      </trkpt>
      <trkpt lat="43.52144" lon="1.4722">
        <ele>252.1</ele>
        <time>2022-05-16T11:08:40Z</time>
      </trkpt>
      <trkpt lat="43.5214" lon="1.47217">
        <ele>252.4</ele>
        <time>2022-05-16T11:08:41Z</time>
      </trkpt>
      <trkpt lat="43.52137" lon="1.47213">
        <ele>252.7</ele>
        <time>2022-05-16T11:08:42Z</time>
      </trkpt>
      <trkpt lat="43.52133" lon="1.4721">
        <ele>253</ele>
        <time>2022-05-16T11:08:43Z</time>
      </trkpt>
      <trkpt lat="43.5213" lon="1.47207">
        <ele>253.3</ele>
        <time>2022-05-16T11:08:44Z</time>
      </trkpt>
      <trkpt lat="43.52126" lon="1.47204">
        <ele>253.7</ele>
        <time>2022-05-16T11:08:45Z</time>
      </trkpt>
      <trkpt lat="43.52122" lon="1.47201">
        <ele>254</ele>
        <time>2022-05-16T11:08:46Z</time>
      </trkpt>
      <trkpt lat="43.52119" lon="1.47197">
        <ele>254.4</ele>
        <time>2022-05-16T11:08:47Z</time>
      </trkpt>
      <trkpt lat="43.52115" lon="1.47194">
        <ele>254.8</ele>
        <time>2022-05-16T11:08:48Z</time>
      </trkpt>
      <trkpt lat="43.52111" lon="1.47192">
        <ele>255.2</ele>
        <time>2022-05-16T11:08:49Z</time>
      </trkpt>
      <trkpt lat="43.52108" lon="1.4719">
        <ele>255.7</ele>
        <time>2022-05-16T11:08:50Z</time>
      </trkpt>
      <trkpt lat="43.52104" lon="1.47186">
        <ele>256.1</ele>
        <time>2022-05-16T11:08:51Z</time>
      </trkpt>
      <trkpt lat="43.521" lon="1.47185">
        <ele>256.6</ele>
        <time>2022-05-16T11:08:52Z</time>
      </trkpt>
      <trkpt lat="43.52096" lon="1.47183">
        <ele>257</ele>
        <time>2022-05-16T11:08:53Z</time>
      </trkpt>
      <trkpt lat="43.52092" lon="1.47182">
        <ele>257.5</ele>
        <time>2022-05-16T11:08:54Z</time>
      </trkpt>
      <trkpt lat="43.52084" lon="1.47181">
        <ele>258.3</ele>
        <time>2022-05-16T11:08:55Z</time>
      </trkpt>
      <trkpt lat="43.5208" lon="1.47181">
        <ele>258.7</ele>
        <time>2022-05-16T11:08:56Z</time>
      </trkpt>
      <trkpt lat="43.52076" lon="1.47181">
        <ele>259.1</ele>
        <time>2022-05-16T11:08:57Z</time>
      </trkpt>
      <trkpt lat="43.52072" lon="1.47181">
        <ele>259.5</ele>
        <time>2022-05-16T11:08:58Z</time>
      </trkpt>
      <trkpt lat="43.52068" lon="1.4718">
        <ele>259.9</ele>
        <time>2022-05-16T11:08:59Z</time>
      </trkpt>
      <trkpt lat="43.52063" lon="1.4718">
        <ele>260.3</ele>
        <time>2022-05-16T11:09:00Z</time>
      </trkpt>
      <trkpt lat="43.52059" lon="1.4718">
        <ele>260.6</ele>
        <time>2022-05-16T11:09:01Z</time>
      </trkpt>
      <trkpt lat="43.52054" lon="1.4718">
        <ele>261</ele>
        <time>2022-05-16T11:09:02Z</time>
      </trkpt>
      <trkpt lat="43.5205" lon="1.47179">
        <ele>261.3</ele>
        <time>2022-05-16T11:09:03Z</time>
      </trkpt>
      <trkpt lat="43.52046" lon="1.47179">
        <ele>261.7</ele>
        <time>2022-05-16T11:09:04Z</time>
      </trkpt>
      <trkpt lat="43.52041" lon="1.47179">
        <ele>262</ele>
        <time>2022-05-16T11:09:05Z</time>
      </trkpt>
      <trkpt lat="43.52038" lon="1.47177">
        <ele>262.3</ele>
        <time>2022-05-16T11:09:06Z</time>
      </trkpt>
      <trkpt lat="43.52034" lon="1.47177">
        <ele>262.6</ele>
        <time>2022-05-16T11:09:07Z</time>
      </trkpt>
      <trkpt lat="43.52029" lon="1.47175">
        <ele>262.8</ele>
        <time>2022-05-16T11:09:08Z</time>
      </trkpt>
      <trkpt lat="43.52025" lon="1.47173">
        <ele>263.1</ele>
        <time>2022-05-16T11:09:09Z</time>
      </trkpt>
      <trkpt lat="43.52022" lon="1.4717">
        <ele>263.3</ele>
        <time>2022-05-16T11:09:10Z</time>
      </trkpt>
      <trkpt lat="43.52018" lon="1.47166">
        <ele>263.6</ele>
        <time>2022-05-16T11:09:11Z</time>
      </trkpt>
      <trkpt lat="43.52015" lon="1.47161">
        <ele>263.8</ele>
        <time>2022-05-16T11:09:12Z</time>
      </trkpt>
      <trkpt lat="43.52011" lon="1.47158">
        <ele>264</ele>
        <time>2022-05-16T11:09:13Z</time>
      </trkpt>
      <trkpt lat="43.52007" lon="1.47156">
        <ele>264.2</ele>
        <time>2022-05-16T11:09:14Z</time>
      </trkpt>
      <trkpt lat="43.52003" lon="1.47153">
        <ele>264.4</ele>
        <time>2022-05-16T11:09:15Z</time>
      </trkpt>
      <trkpt lat="43.51998" lon="1.47151">
        <ele>264.6</ele>
        <time>2022-05-16T11:09:16Z</time>
      </trkpt>
      <trkpt lat="43.51994" lon="1.47149">
        <ele>264.8</ele>
        <time>2022-05-16T11:09:17Z</time>
      </trkpt>
      <trkpt lat="43.5199" lon="1.47147">
        <ele>264.9</ele>
        <time>2022-05-16T11:09:18Z</time>
      </trkpt>
      <trkpt lat="43.51986" lon="1.47145">
        <ele>265</ele>
        <time>2022-05-16T11:09:19Z</time>
      </trkpt>
      <trkpt lat="43.51982" lon="1.47144">
        <ele>265.1</ele>
        <time>2022-05-16T11:09:20Z</time>
      </trkpt>
      <trkpt lat="43.51978" lon="1.47143">
        <ele>265.2</ele>
        <time>2022-05-16T11:09:21Z</time>
      </trkpt>
      <trkpt lat="43.51973" lon="1.47142">
        <ele>265.2</ele>
        <time>2022-05-16T11:09:22Z</time>
      </trkpt>
      <trkpt lat="43.51969" lon="1.47141">
        <ele>265.3</ele>
        <time>2022-05-16T11:09:23Z</time>
      </trkpt>
      <trkpt lat="43.51964" lon="1.4714">
        <ele>265.3</ele>
        <time>2022-05-16T11:09:24Z</time>
      </trkpt>
      <trkpt lat="43.51959" lon="1.4714">
        <ele>265.4</ele>
        <time>2022-05-16T11:09:25Z</time>
      </trkpt>
      <trkpt lat="43.51955" lon="1.47138">
        <ele>265.4</ele>
        <time>2022-05-16T11:09:26Z</time>
      </trkpt>
      <trkpt lat="43.5195" lon="1.4714">
        <ele>265.4</ele>
        <time>2022-05-16T11:09:27Z</time>
      </trkpt>
      <trkpt lat="43.51946" lon="1.47144">
        <ele>265.5</ele>
        <time>2022-05-16T11:09:28Z</time>
      </trkpt>
      <trkpt lat="43.51943" lon="1.4715">
        <ele>265.6</ele>
        <time>2022-05-16T11:09:29Z</time>
      </trkpt>
      <trkpt lat="43.51941" lon="1.47155">
        <ele>265.6</ele>
        <time>2022-05-16T11:09:30Z</time>
      </trkpt>
      <trkpt lat="43.51938" lon="1.47159">
        <ele>265.6</ele>
        <time>2022-05-16T11:09:31Z</time>
      </trkpt>
      <trkpt lat="43.51935" lon="1.47163">
        <ele>265.6</ele>
        <time>2022-05-16T11:09:32Z</time>
      </trkpt>
      <trkpt lat="43.51931" lon="1.47166">
        <ele>265.5</ele>
        <time>2022-05-16T11:09:33Z</time>
      </trkpt>
      <trkpt lat="43.51928" lon="1.4717">
        <ele>265.5</ele>
        <time>2022-05-16T11:09:34Z</time>
      </trkpt>
      <trkpt lat="43.51924" lon="1.47174">
        <ele>265.4</ele>
        <time>2022-05-16T11:09:35Z</time>
      </trkpt>
      <trkpt lat="43.5192" lon="1.47177">
        <ele>265.3</ele>
        <time>2022-05-16T11:09:36Z</time>
      </trkpt>
      <trkpt lat="43.51915" lon="1.4718">
        <ele>265.2</ele>
        <time>2022-05-16T11:09:37Z</time>
      </trkpt>
      <trkpt lat="43.5191" lon="1.47184">
        <ele>265</ele>
        <time>2022-05-16T11:09:38Z</time>
      </trkpt>
      <trkpt lat="43.51905" lon="1.47186">
        <ele>264.9</ele>
        <time>2022-05-16T11:09:39Z</time>
      </trkpt>
      <trkpt lat="43.519" lon="1.47189">
        <ele>264.8</ele>
        <time>2022-05-16T11:09:40Z</time>
      </trkpt>
      <trkpt lat="43.51895" lon="1.47192">
        <ele>264.6</ele>
        <time>2022-05-16T11:09:41Z</time>
      </trkpt>
      <trkpt lat="43.5189" lon="1.47195">
        <ele>264.4</ele>
        <time>2022-05-16T11:09:42Z</time>
      </trkpt>
      <trkpt lat="43.51885" lon="1.47198">
        <ele>264.2</ele>
        <time>2022-05-16T11:09:43Z</time>
      </trkpt>
      <trkpt lat="43.51879" lon="1.47201">
        <ele>263.9</ele>
        <time>2022-05-16T11:09:44Z</time>
      </trkpt>
      <trkpt lat="43.51874" lon="1.47204">
        <ele>263.7</ele>
        <time>2022-05-16T11:09:45Z</time>
      </trkpt>
      <trkpt lat="43.51868" lon="1.47207">
        <ele>263.4</ele>
        <time>2022-05-16T11:09:46Z</time>
      </trkpt>
      <trkpt lat="43.51862" lon="1.4721">
        <ele>263.2</ele>
        <time>2022-05-16T11:09:47Z</time>
      </trkpt>
      <trkpt lat="43.51856" lon="1.47211">
        <ele>262.9</ele>
        <time>2022-05-16T11:09:48Z</time>
      </trkpt>
      <trkpt lat="43.5185" lon="1.47212">
        <ele>262.7</ele>
        <time>2022-05-16T11:09:49Z</time>
      </trkpt>
      <trkpt lat="43.51843" lon="1.47213">
        <ele>262.4</ele>
        <time>2022-05-16T11:09:50Z</time>
      </trkpt>
      <trkpt lat="43.51836" lon="1.47213">
        <ele>262.2</ele>
        <time>2022-05-16T11:09:51Z</time>
      </trkpt>
      <trkpt lat="43.51829" lon="1.47214">
        <ele>262.1</ele>
        <time>2022-05-16T11:09:52Z</time>
      </trkpt>
      <trkpt lat="43.51823" lon="1.47215">
        <ele>262</ele>
        <time>2022-05-16T11:09:53Z</time>
      </trkpt>
      <trkpt lat="43.51816" lon="1.47216">
        <ele>261.9</ele>
        <time>2022-05-16T11:09:54Z</time>
      </trkpt>
      <trkpt lat="43.51809" lon="1.47218">
        <ele>261.9</ele>
        <time>2022-05-16T11:09:55Z</time>
      </trkpt>
      <trkpt lat="43.51803" lon="1.47219">
        <ele>261.9</ele>
        <time>2022-05-16T11:09:56Z</time>
      </trkpt>
      <trkpt lat="43.51797" lon="1.4722">
        <ele>262</ele>
        <time>2022-05-16T11:09:57Z</time>
      </trkpt>
      <trkpt lat="43.51791" lon="1.47221">
        <ele>262</ele>
        <time>2022-05-16T11:09:58Z</time>
      </trkpt>
      <trkpt lat="43.51785" lon="1.47222">
        <ele>262</ele>
        <time>2022-05-16T11:09:59Z</time>
      </trkpt>
      <trkpt lat="43.5178" lon="1.47223">
        <ele>262.1</ele>
        <time>2022-05-16T11:10:00Z</time>
      </trkpt>
      <trkpt lat="43.51774" lon="1.47223">
        <ele>262.1</ele>
        <time>2022-05-16T11:10:01Z</time>
      </trkpt>
      <trkpt lat="43.51768" lon="1.47223">
        <ele>262.1</ele>
        <time>2022-05-16T11:10:02Z</time>
      </trkpt>
      <trkpt lat="43.51762" lon="1.47224">
        <ele>262</ele>
        <time>2022-05-16T11:10:03Z</time>
      </trkpt>
      <trkpt lat="43.51756" lon="1.47225">
        <ele>262</ele>
        <time>2022-05-16T11:10:04Z</time>
      </trkpt>
      <trkpt lat="43.51751" lon="1.47226">
        <ele>261.9</ele>
        <time>2022-05-16T11:10:05Z</time>
      </trkpt>
      <trkpt lat="43.51745" lon="1.47226">
        <ele>261.7</ele>
        <time>2022-05-16T11:10:06Z</time>
      </trkpt>
      <trkpt lat="43.5174" lon="1.47226">
        <ele>261.5</ele>
        <time>2022-05-16T11:10:07Z</time>
      </trkpt>
      <trkpt lat="43.51734" lon="1.47225">
        <ele>261.3</ele>
        <time>2022-05-16T11:10:08Z</time>
      </trkpt>
      <trkpt lat="43.51728" lon="1.47226">
        <ele>260.9</ele>
        <time>2022-05-16T11:10:09Z</time>
      </trkpt>
      <trkpt lat="43.51722" lon="1.47227">
        <ele>260.5</ele>
        <time>2022-05-16T11:10:10Z</time>
      </trkpt>
      <trkpt lat="43.51715" lon="1.47228">
        <ele>260.1</ele>
        <time>2022-05-16T11:10:11Z</time>
      </trkpt>
      <trkpt lat="43.51708" lon="1.47228">
        <ele>259.7</ele>
        <time>2022-05-16T11:10:12Z</time>
      </trkpt>
      <trkpt lat="43.51701" lon="1.4723">
        <ele>259.4</ele>
        <time>2022-05-16T11:10:13Z</time>
      </trkpt>
      <trkpt lat="43.51694" lon="1.47232">
        <ele>259</ele>
        <time>2022-05-16T11:10:14Z</time>
      </trkpt>
      <trkpt lat="43.51686" lon="1.47234">
        <ele>258.7</ele>
        <time>2022-05-16T11:10:15Z</time>
      </trkpt>
      <trkpt lat="43.51679" lon="1.47236">
        <ele>258.4</ele>
        <time>2022-05-16T11:10:16Z</time>
      </trkpt>
      <trkpt lat="43.51672" lon="1.47238">
        <ele>258.1</ele>
        <time>2022-05-16T11:10:17Z</time>
      </trkpt>
      <trkpt lat="43.51665" lon="1.47241">
        <ele>257.8</ele>
        <time>2022-05-16T11:10:18Z</time>
      </trkpt>
      <trkpt lat="43.51657" lon="1.47244">
        <ele>257.5</ele>
        <time>2022-05-16T11:10:19Z</time>
      </trkpt>
      <trkpt lat="43.5165" lon="1.47247">
        <ele>257.3</ele>
        <time>2022-05-16T11:10:20Z</time>
      </trkpt>
      <trkpt lat="43.51643" lon="1.4725">
        <ele>257</ele>
        <time>2022-05-16T11:10:21Z</time>
      </trkpt>
      <trkpt lat="43.51635" lon="1.47252">
        <ele>256.7</ele>
        <time>2022-05-16T11:10:22Z</time>
      </trkpt>
      <trkpt lat="43.51628" lon="1.47255">
        <ele>256.4</ele>
        <time>2022-05-16T11:10:23Z</time>
      </trkpt>
      <trkpt lat="43.5162" lon="1.47258">
        <ele>256.1</ele>
        <time>2022-05-16T11:10:24Z</time>
      </trkpt>
      <trkpt lat="43.51613" lon="1.4726">
        <ele>255.8</ele>
        <time>2022-05-16T11:10:25Z</time>
      </trkpt>
      <trkpt lat="43.51605" lon="1.47263">
        <ele>255.5</ele>
        <time>2022-05-16T11:10:26Z</time>
      </trkpt>
      <trkpt lat="43.51597" lon="1.47267">
        <ele>255.3</ele>
        <time>2022-05-16T11:10:27Z</time>
      </trkpt>
      <trkpt lat="43.5159" lon="1.47271">
        <ele>255</ele>
        <time>2022-05-16T11:10:28Z</time>
      </trkpt>
      <trkpt lat="43.51583" lon="1.47275">
        <ele>254.9</ele>
        <time>2022-05-16T11:10:29Z</time>
      </trkpt>
      <trkpt lat="43.51575" lon="1.47278">
        <ele>254.7</ele>
        <time>2022-05-16T11:10:30Z</time>
      </trkpt>
      <trkpt lat="43.51568" lon="1.47281">
        <ele>254.5</ele>
        <time>2022-05-16T11:10:31Z</time>
      </trkpt>
      <trkpt lat="43.51561" lon="1.47284">
        <ele>254.3</ele>
        <time>2022-05-16T11:10:32Z</time>
      </trkpt>
      <trkpt lat="43.51554" lon="1.47288">
        <ele>254.1</ele>
        <time>2022-05-16T11:10:33Z</time>
      </trkpt>
      <trkpt lat="43.51547" lon="1.47291">
        <ele>254</ele>
        <time>2022-05-16T11:10:34Z</time>
      </trkpt>
      <trkpt lat="43.5154" lon="1.47293">
        <ele>253.9</ele>
        <time>2022-05-16T11:10:35Z</time>
      </trkpt>
      <trkpt lat="43.51533" lon="1.47295">
        <ele>253.9</ele>
        <time>2022-05-16T11:10:36Z</time>
      </trkpt>
      <trkpt lat="43.51526" lon="1.47296">
        <ele>253.9</ele>
        <time>2022-05-16T11:10:37Z</time>
      </trkpt>
      <trkpt lat="43.51519" lon="1.47297">
        <ele>254</ele>
        <time>2022-05-16T11:10:38Z</time>
      </trkpt>
      <trkpt lat="43.51513" lon="1.47298">
        <ele>254.1</ele>
        <time>2022-05-16T11:10:39Z</time>
      </trkpt>
      <trkpt lat="43.51506" lon="1.47299">
        <ele>254.4</ele>
        <time>2022-05-16T11:10:40Z</time>
      </trkpt>
      <trkpt lat="43.515" lon="1.47299">
        <ele>254.6</ele>
        <time>2022-05-16T11:10:41Z</time>
      </trkpt>
      <trkpt lat="43.51489" lon="1.473">
        <ele>255.1</ele>
        <time>2022-05-16T11:10:43Z</time>
      </trkpt>
      <trkpt lat="43.5148" lon="1.47301">
        <ele>255.6</ele>
        <time>2022-05-16T11:10:45Z</time>
      </trkpt>
      <trkpt lat="43.51475" lon="1.47301">
        <ele>255.8</ele>
        <time>2022-05-16T11:10:47Z</time>
      </trkpt>
      <trkpt lat="43.51471" lon="1.47302">
        <ele>256</ele>
        <time>2022-05-16T11:10:48Z</time>
      </trkpt>
      <trkpt lat="43.51466" lon="1.47304">
        <ele>256.1</ele>
        <time>2022-05-16T11:10:49Z</time>
      </trkpt>
      <trkpt lat="43.51461" lon="1.47305">
        <ele>256.3</ele>
        <time>2022-05-16T11:10:50Z</time>
      </trkpt>
      <trkpt lat="43.51456" lon="1.47305">
        <ele>256.4</ele>
        <time>2022-05-16T11:10:51Z</time>
      </trkpt>
      <trkpt lat="43.51452" lon="1.47307">
        <ele>256.5</ele>
        <time>2022-05-16T11:10:52Z</time>
      </trkpt>
      <trkpt lat="43.51448" lon="1.4731">
        <ele>256.5</ele>
        <time>2022-05-16T11:10:53Z</time>
      </trkpt>
      <trkpt lat="43.51444" lon="1.47315">
        <ele>256.7</ele>
        <time>2022-05-16T11:10:54Z</time>
      </trkpt>
      <trkpt lat="43.51441" lon="1.47321">
        <ele>256.9</ele>
        <time>2022-05-16T11:10:55Z</time>
      </trkpt>
      <trkpt lat="43.5144" lon="1.47328">
        <ele>257.1</ele>
        <time>2022-05-16T11:10:56Z</time>
      </trkpt>
      <trkpt lat="43.51438" lon="1.47333">
        <ele>257.3</ele>
        <time>2022-05-16T11:10:57Z</time>
      </trkpt>
      <trkpt lat="43.51433" lon="1.47345">
        <ele>257.7</ele>
        <time>2022-05-16T11:10:58Z</time>
      </trkpt>
      <trkpt lat="43.51431" lon="1.47351">
        <ele>257.9</ele>
        <time>2022-05-16T11:10:59Z</time>
      </trkpt>
      <trkpt lat="43.51429" lon="1.47356">
        <ele>258.2</ele>
        <time>2022-05-16T11:11:00Z</time>
      </trkpt>
      <trkpt lat="43.51427" lon="1.47362">
        <ele>258.4</ele>
        <time>2022-05-16T11:11:01Z</time>
      </trkpt>
      <trkpt lat="43.51425" lon="1.47368">
        <ele>258.6</ele>
        <time>2022-05-16T11:11:02Z</time>
      </trkpt>
      <trkpt lat="43.51423" lon="1.47374">
        <ele>258.9</ele>
        <time>2022-05-16T11:11:03Z</time>
      </trkpt>
      <trkpt lat="43.51421" lon="1.4738">
        <ele>259.1</ele>
        <time>2022-05-16T11:11:04Z</time>
      </trkpt>
      <trkpt lat="43.51419" lon="1.47386">
        <ele>259.4</ele>
        <time>2022-05-16T11:11:05Z</time>
      </trkpt>
      <trkpt lat="43.51417" lon="1.47392">
        <ele>259.7</ele>
        <time>2022-05-16T11:11:06Z</time>
      </trkpt>
      <trkpt lat="43.51415" lon="1.47397">
        <ele>259.9</ele>
        <time>2022-05-16T11:11:07Z</time>
      </trkpt>
      <trkpt lat="43.51414" lon="1.47402">
        <ele>260.1</ele>
        <time>2022-05-16T11:11:08Z</time>
      </trkpt>
      <trkpt lat="43.51412" lon="1.47408">
        <ele>260.3</ele>
        <time>2022-05-16T11:11:09Z</time>
      </trkpt>
      <trkpt lat="43.5141" lon="1.47412">
        <ele>260.6</ele>
        <time>2022-05-16T11:11:10Z</time>
      </trkpt>
      <trkpt lat="43.51406" lon="1.47417">
        <ele>260.8</ele>
        <time>2022-05-16T11:11:11Z</time>
      </trkpt>
      <trkpt lat="43.51404" lon="1.47422">
        <ele>261</ele>
        <time>2022-05-16T11:11:12Z</time>
      </trkpt>
      <trkpt lat="43.51402" lon="1.47426">
        <ele>261.1</ele>
        <time>2022-05-16T11:11:13Z</time>
      </trkpt>
      <trkpt lat="43.51401" lon="1.4743">
        <ele>261.3</ele>
        <time>2022-05-16T11:11:14Z</time>
      </trkpt>
      <trkpt lat="43.51399" lon="1.47434">
        <ele>261.4</ele>
        <time>2022-05-16T11:11:15Z</time>
      </trkpt>
      <trkpt lat="43.51395" lon="1.47434">
        <ele>261.5</ele>
        <time>2022-05-16T11:11:16Z</time>
      </trkpt>
      <trkpt lat="43.51392" lon="1.4743">
        <ele>261.3</ele>
        <time>2022-05-16T11:11:17Z</time>
      </trkpt>
      <trkpt lat="43.51389" lon="1.47425">
        <ele>261.2</ele>
        <time>2022-05-16T11:11:18Z</time>
      </trkpt>
      <trkpt lat="43.51388" lon="1.47418">
        <ele>261</ele>
        <time>2022-05-16T11:11:19Z</time>
      </trkpt>
      <trkpt lat="43.51386" lon="1.47413">
        <ele>260.8</ele>
        <time>2022-05-16T11:11:20Z</time>
      </trkpt>
      <trkpt lat="43.51383" lon="1.47408">
        <ele>260.6</ele>
        <time>2022-05-16T11:11:21Z</time>
      </trkpt>
      <trkpt lat="43.51379" lon="1.47402">
        <ele>260.4</ele>
        <time>2022-05-16T11:11:22Z</time>
      </trkpt>
      <trkpt lat="43.51376" lon="1.47397">
        <ele>260.1</ele>
        <time>2022-05-16T11:11:23Z</time>
      </trkpt>
      <trkpt lat="43.51373" lon="1.47391">
        <ele>259.9</ele>
        <time>2022-05-16T11:11:24Z</time>
      </trkpt>
      <trkpt lat="43.51369" lon="1.47386">
        <ele>259.7</ele>
        <time>2022-05-16T11:11:25Z</time>
      </trkpt>
      <trkpt lat="43.51366" lon="1.47379">
        <ele>259.4</ele>
        <time>2022-05-16T11:11:26Z</time>
      </trkpt>
      <trkpt lat="43.51363" lon="1.47373">
        <ele>259.2</ele>
        <time>2022-05-16T11:11:27Z</time>
      </trkpt>
      <trkpt lat="43.51359" lon="1.47367">
        <ele>259</ele>
        <time>2022-05-16T11:11:28Z</time>
      </trkpt>
      <trkpt lat="43.51355" lon="1.47361">
        <ele>258.8</ele>
        <time>2022-05-16T11:11:29Z</time>
      </trkpt>
      <trkpt lat="43.51351" lon="1.47355">
        <ele>258.7</ele>
        <time>2022-05-16T11:11:30Z</time>
      </trkpt>
      <trkpt lat="43.51347" lon="1.47348">
        <ele>258.5</ele>
        <time>2022-05-16T11:11:31Z</time>
      </trkpt>
      <trkpt lat="43.51343" lon="1.47342">
        <ele>258.4</ele>
        <time>2022-05-16T11:11:32Z</time>
      </trkpt>
      <trkpt lat="43.51339" lon="1.47336">
        <ele>258.4</ele>
        <time>2022-05-16T11:11:33Z</time>
      </trkpt>
      <trkpt lat="43.51335" lon="1.47331">
        <ele>258.3</ele>
        <time>2022-05-16T11:11:34Z</time>
      </trkpt>
      <trkpt lat="43.51331" lon="1.47325">
        <ele>258.3</ele>
        <time>2022-05-16T11:11:35Z</time>
      </trkpt>
      <trkpt lat="43.51328" lon="1.47319">
        <ele>258.4</ele>
        <time>2022-05-16T11:11:36Z</time>
      </trkpt>
      <trkpt lat="43.51324" lon="1.47313">
        <ele>258.5</ele>
        <time>2022-05-16T11:11:37Z</time>
      </trkpt>
      <trkpt lat="43.51322" lon="1.47308">
        <ele>258.6</ele>
        <time>2022-05-16T11:11:38Z</time>
      </trkpt>
      <trkpt lat="43.51318" lon="1.47302">
        <ele>258.7</ele>
        <time>2022-05-16T11:11:39Z</time>
      </trkpt>
      <trkpt lat="43.51315" lon="1.47297">
        <ele>258.9</ele>
        <time>2022-05-16T11:11:40Z</time>
      </trkpt>
      <trkpt lat="43.51312" lon="1.47292">
        <ele>259.1</ele>
        <time>2022-05-16T11:11:41Z</time>
      </trkpt>
      <trkpt lat="43.5131" lon="1.47287">
        <ele>259.3</ele>
        <time>2022-05-16T11:11:42Z</time>
      </trkpt>
      <trkpt lat="43.51306" lon="1.47283">
        <ele>259.6</ele>
        <time>2022-05-16T11:11:43Z</time>
      </trkpt>
      <trkpt lat="43.51302" lon="1.47278">
        <ele>259.9</ele>
        <time>2022-05-16T11:11:44Z</time>
      </trkpt>
      <trkpt lat="43.51298" lon="1.47274">
        <ele>260.1</ele>
        <time>2022-05-16T11:11:45Z</time>
      </trkpt>
      <trkpt lat="43.51295" lon="1.47269">
        <ele>260.4</ele>
        <time>2022-05-16T11:11:46Z</time>
      </trkpt>
      <trkpt lat="43.51291" lon="1.47265">
        <ele>260.6</ele>
        <time>2022-05-16T11:11:47Z</time>
      </trkpt>
      <trkpt lat="43.51288" lon="1.47261">
        <ele>260.9</ele>
        <time>2022-05-16T11:11:48Z</time>
      </trkpt>
      <trkpt lat="43.51285" lon="1.47257">
        <ele>261.3</ele>
        <time>2022-05-16T11:11:49Z</time>
      </trkpt>
      <trkpt lat="43.51281" lon="1.47253">
        <ele>261.6</ele>
        <time>2022-05-16T11:11:50Z</time>
      </trkpt>
      <trkpt lat="43.51278" lon="1.4725">
        <ele>261.9</ele>
        <time>2022-05-16T11:11:51Z</time>
      </trkpt>
      <trkpt lat="43.51275" lon="1.47245">
        <ele>262.2</ele>
        <time>2022-05-16T11:11:52Z</time>
      </trkpt>
      <trkpt lat="43.51272" lon="1.47241">
        <ele>262.6</ele>
        <time>2022-05-16T11:11:53Z</time>
      </trkpt>
      <trkpt lat="43.51269" lon="1.47237">
        <ele>262.9</ele>
        <time>2022-05-16T11:11:54Z</time>
      </trkpt>
      <trkpt lat="43.51266" lon="1.47232">
        <ele>263.4</ele>
        <time>2022-05-16T11:11:55Z</time>
      </trkpt>
      <trkpt lat="43.51262" lon="1.47229">
        <ele>263.8</ele>
        <time>2022-05-16T11:11:56Z</time>
      </trkpt>
      <trkpt lat="43.51259" lon="1.47226">
        <ele>264.3</ele>
        <time>2022-05-16T11:11:57Z</time>
      </trkpt>
      <trkpt lat="43.51256" lon="1.47221">
        <ele>264.8</ele>
        <time>2022-05-16T11:11:58Z</time>
      </trkpt>
      <trkpt lat="43.51253" lon="1.47217">
        <ele>265.2</ele>
        <time>2022-05-16T11:11:59Z</time>
      </trkpt>
      <trkpt lat="43.5125" lon="1.47213">
        <ele>265.7</ele>
        <time>2022-05-16T11:12:00Z</time>
      </trkpt>
      <trkpt lat="43.51247" lon="1.47209">
        <ele>266.2</ele>
        <time>2022-05-16T11:12:01Z</time>
      </trkpt>
      <trkpt lat="43.51244" lon="1.47205">
        <ele>266.8</ele>
        <time>2022-05-16T11:12:02Z</time>
      </trkpt>
      <trkpt lat="43.51241" lon="1.47201">
        <ele>267.3</ele>
        <time>2022-05-16T11:12:03Z</time>
      </trkpt>
      <trkpt lat="43.51239" lon="1.47196">
        <ele>267.8</ele>
        <time>2022-05-16T11:12:04Z</time>
      </trkpt>
      <trkpt lat="43.51236" lon="1.47192">
        <ele>268.3</ele>
        <time>2022-05-16T11:12:05Z</time>
      </trkpt>
      <trkpt lat="43.51234" lon="1.47188">
        <ele>268.8</ele>
        <time>2022-05-16T11:12:06Z</time>
      </trkpt>
      <trkpt lat="43.51232" lon="1.47183">
        <ele>269.3</ele>
        <time>2022-05-16T11:12:07Z</time>
      </trkpt>
      <trkpt lat="43.51229" lon="1.4718">
        <ele>269.7</ele>
        <time>2022-05-16T11:12:08Z</time>
      </trkpt>
      <trkpt lat="43.51227" lon="1.47176">
        <ele>270.1</ele>
        <time>2022-05-16T11:12:09Z</time>
      </trkpt>
      <trkpt lat="43.51225" lon="1.47173">
        <ele>270.5</ele>
        <time>2022-05-16T11:12:10Z</time>
      </trkpt>
      <trkpt lat="43.51222" lon="1.47169">
        <ele>271</ele>
        <time>2022-05-16T11:12:11Z</time>
      </trkpt>
      <trkpt lat="43.51219" lon="1.47164">
        <ele>271.5</ele>
        <time>2022-05-16T11:12:12Z</time>
      </trkpt>
      <trkpt lat="43.51218" lon="1.47161">
        <ele>271.9</ele>
        <time>2022-05-16T11:12:13Z</time>
      </trkpt>
      <trkpt lat="43.51216" lon="1.47156">
        <ele>272.4</ele>
        <time>2022-05-16T11:12:14Z</time>
      </trkpt>
      <trkpt lat="43.51214" lon="1.47152">
        <ele>272.8</ele>
        <time>2022-05-16T11:12:15Z</time>
      </trkpt>
      <trkpt lat="43.51213" lon="1.47148">
        <ele>273.1</ele>
        <time>2022-05-16T11:12:16Z</time>
      </trkpt>
      <trkpt lat="43.51211" lon="1.47143">
        <ele>273.5</ele>
        <time>2022-05-16T11:12:17Z</time>
      </trkpt>
      <trkpt lat="43.5121" lon="1.47138">
        <ele>273.9</ele>
        <time>2022-05-16T11:12:18Z</time>
      </trkpt>
      <trkpt lat="43.51208" lon="1.47134">
        <ele>274.3</ele>
        <time>2022-05-16T11:12:19Z</time>
      </trkpt>
      <trkpt lat="43.51206" lon="1.47129">
        <ele>274.7</ele>
        <time>2022-05-16T11:12:20Z</time>
      </trkpt>
      <trkpt lat="43.51204" lon="1.47124">
        <ele>275.1</ele>
        <time>2022-05-16T11:12:21Z</time>
      </trkpt>
      <trkpt lat="43.51202" lon="1.47119">
        <ele>275.5</ele>
        <time>2022-05-16T11:12:22Z</time>
      </trkpt>
      <trkpt lat="43.512" lon="1.47114">
        <ele>275.8</ele>
        <time>2022-05-16T11:12:23Z</time>
      </trkpt>
      <trkpt lat="43.512" lon="1.47109">
        <ele>276.1</ele>
        <time>2022-05-16T11:12:24Z</time>
      </trkpt>
      <trkpt lat="43.51198" lon="1.47104">
        <ele>276.3</ele>
        <time>2022-05-16T11:12:25Z</time>
      </trkpt>
      <trkpt lat="43.51196" lon="1.47099">
        <ele>276.5</ele>
        <time>2022-05-16T11:12:26Z</time>
      </trkpt>
      <trkpt lat="43.51195" lon="1.47096">
        <ele>276.6</ele>
        <time>2022-05-16T11:12:27Z</time>
      </trkpt>
      <trkpt lat="43.51194" lon="1.47092">
        <ele>276.7</ele>
        <time>2022-05-16T11:12:28Z</time>
      </trkpt>
      <trkpt lat="43.51193" lon="1.47086">
        <ele>276.7</ele>
        <time>2022-05-16T11:12:29Z</time>
      </trkpt>
      <trkpt lat="43.51188" lon="1.47079">
        <ele>276.7</ele>
        <time>2022-05-16T11:12:30Z</time>
      </trkpt>
      <trkpt lat="43.51187" lon="1.47074">
        <ele>276.7</ele>
        <time>2022-05-16T11:12:31Z</time>
      </trkpt>
      <trkpt lat="43.51185" lon="1.47068">
        <ele>276.6</ele>
        <time>2022-05-16T11:12:32Z</time>
      </trkpt>
      <trkpt lat="43.51183" lon="1.47062">
        <ele>276.6</ele>
        <time>2022-05-16T11:12:33Z</time>
      </trkpt>
      <trkpt lat="43.51181" lon="1.47056">
        <ele>276.6</ele>
        <time>2022-05-16T11:12:34Z</time>
      </trkpt>
      <trkpt lat="43.51177" lon="1.47053">
        <ele>276.5</ele>
        <time>2022-05-16T11:12:35Z</time>
      </trkpt>
      <trkpt lat="43.51173" lon="1.47055">
        <ele>276.5</ele>
        <time>2022-05-16T11:12:36Z</time>
      </trkpt>
      <trkpt lat="43.5117" lon="1.4706">
        <ele>276.5</ele>
        <time>2022-05-16T11:12:37Z</time>
      </trkpt>
      <trkpt lat="43.51168" lon="1.47067">
        <ele>276.5</ele>
        <time>2022-05-16T11:12:38Z</time>
      </trkpt>
      <trkpt lat="43.51166" lon="1.47073">
        <ele>276.5</ele>
        <time>2022-05-16T11:12:39Z</time>
      </trkpt>
      <trkpt lat="43.51163" lon="1.47079">
        <ele>276.6</ele>
        <time>2022-05-16T11:12:40Z</time>
      </trkpt>
      <trkpt lat="43.5116" lon="1.47085">
        <ele>276.6</ele>
        <time>2022-05-16T11:12:41Z</time>
      </trkpt>
      <trkpt lat="43.51157" lon="1.47091">
        <ele>276.6</ele>
        <time>2022-05-16T11:12:42Z</time>
      </trkpt>
      <trkpt lat="43.51154" lon="1.47097">
        <ele>276.6</ele>
        <time>2022-05-16T11:12:43Z</time>
      </trkpt>
      <trkpt lat="43.51151" lon="1.47103">
        <ele>276.6</ele>
        <time>2022-05-16T11:12:45Z</time>
      </trkpt>
      <trkpt lat="43.51147" lon="1.47109">
        <ele>276.6</ele>
        <time>2022-05-16T11:12:46Z</time>
      </trkpt>
      <trkpt lat="43.51144" lon="1.47114">
        <ele>276.6</ele>
        <time>2022-05-16T11:12:47Z</time>
      </trkpt>
      <trkpt lat="43.5114" lon="1.4712">
        <ele>276.6</ele>
        <time>2022-05-16T11:12:48Z</time>
      </trkpt>
      <trkpt lat="43.51136" lon="1.47127">
        <ele>276.5</ele>
        <time>2022-05-16T11:12:49Z</time>
      </trkpt>
      <trkpt lat="43.51132" lon="1.47134">
        <ele>276.5</ele>
        <time>2022-05-16T11:12:50Z</time>
      </trkpt>
      <trkpt lat="43.51128" lon="1.47141">
        <ele>276.5</ele>
        <time>2022-05-16T11:12:51Z</time>
      </trkpt>
      <trkpt lat="43.51124" lon="1.47148">
        <ele>276.4</ele>
        <time>2022-05-16T11:12:52Z</time>
      </trkpt>
      <trkpt lat="43.5112" lon="1.47154">
        <ele>276.4</ele>
        <time>2022-05-16T11:12:53Z</time>
      </trkpt>
      <trkpt lat="43.51116" lon="1.47161">
        <ele>276.4</ele>
        <time>2022-05-16T11:12:54Z</time>
      </trkpt>
      <trkpt lat="43.51113" lon="1.47168">
        <ele>276.3</ele>
        <time>2022-05-16T11:12:55Z</time>
      </trkpt>
      <trkpt lat="43.51109" lon="1.47174">
        <ele>276.3</ele>
        <time>2022-05-16T11:12:56Z</time>
      </trkpt>
      <trkpt lat="43.51106" lon="1.47181">
        <ele>276.3</ele>
        <time>2022-05-16T11:12:57Z</time>
      </trkpt>
      <trkpt lat="43.51102" lon="1.47188">
        <ele>276.3</ele>
        <time>2022-05-16T11:12:58Z</time>
      </trkpt>
      <trkpt lat="43.51098" lon="1.47195">
        <ele>276.2</ele>
        <time>2022-05-16T11:12:59Z</time>
      </trkpt>
      <trkpt lat="43.51095" lon="1.47202">
        <ele>276.2</ele>
        <time>2022-05-16T11:13:00Z</time>
      </trkpt>
      <trkpt lat="43.51091" lon="1.47209">
        <ele>276.2</ele>
        <time>2022-05-16T11:13:01Z</time>
      </trkpt>
      <trkpt lat="43.51088" lon="1.47216">
        <ele>276.2</ele>
        <time>2022-05-16T11:13:02Z</time>
      </trkpt>
      <trkpt lat="43.51084" lon="1.47223">
        <ele>276.2</ele>
        <time>2022-05-16T11:13:03Z</time>
      </trkpt>
      <trkpt lat="43.5108" lon="1.4723">
        <ele>276.2</ele>
        <time>2022-05-16T11:13:04Z</time>
      </trkpt>
      <trkpt lat="43.51073" lon="1.47243">
        <ele>276.2</ele>
        <time>2022-05-16T11:13:05Z</time>
      </trkpt>
      <trkpt lat="43.5107" lon="1.47249">
        <ele>276.2</ele>
        <time>2022-05-16T11:13:06Z</time>
      </trkpt>
      <trkpt lat="43.51066" lon="1.47256">
        <ele>276.2</ele>
        <time>2022-05-16T11:13:07Z</time>
      </trkpt>
      <trkpt lat="43.51062" lon="1.47262">
        <ele>276.2</ele>
        <time>2022-05-16T11:13:08Z</time>
      </trkpt>
      <trkpt lat="43.51058" lon="1.47269">
        <ele>276.2</ele>
        <time>2022-05-16T11:13:09Z</time>
      </trkpt>
      <trkpt lat="43.51054" lon="1.47275">
        <ele>276.2</ele>
        <time>2022-05-16T11:13:10Z</time>
      </trkpt>
      <trkpt lat="43.51051" lon="1.47281">
        <ele>276.2</ele>
        <time>2022-05-16T11:13:11Z</time>
      </trkpt>
      <trkpt lat="43.51047" lon="1.47288">
        <ele>276.1</ele>
        <time>2022-05-16T11:13:12Z</time>
      </trkpt>
      <trkpt lat="43.51043" lon="1.47294">
        <ele>276.1</ele>
        <time>2022-05-16T11:13:13Z</time>
      </trkpt>
      <trkpt lat="43.51039" lon="1.473">
        <ele>276.1</ele>
        <time>2022-05-16T11:13:14Z</time>
      </trkpt>
      <trkpt lat="43.51035" lon="1.47307">
        <ele>276.1</ele>
        <time>2022-05-16T11:13:15Z</time>
      </trkpt>
      <trkpt lat="43.51031" lon="1.47313">
        <ele>276</ele>
        <time>2022-05-16T11:13:16Z</time>
      </trkpt>
      <trkpt lat="43.51026" lon="1.4732">
        <ele>276</ele>
        <time>2022-05-16T11:13:17Z</time>
      </trkpt>
      <trkpt lat="43.51022" lon="1.47326">
        <ele>276</ele>
        <time>2022-05-16T11:13:18Z</time>
      </trkpt>
      <trkpt lat="43.51018" lon="1.47332">
        <ele>275.9</ele>
        <time>2022-05-16T11:13:19Z</time>
      </trkpt>
      <trkpt lat="43.51014" lon="1.47338">
        <ele>275.9</ele>
        <time>2022-05-16T11:13:20Z</time>
      </trkpt>
      <trkpt lat="43.51009" lon="1.47344">
        <ele>275.8</ele>
        <time>2022-05-16T11:13:21Z</time>
      </trkpt>
      <trkpt lat="43.51005" lon="1.4735">
        <ele>275.8</ele>
        <time>2022-05-16T11:13:22Z</time>
      </trkpt>
      <trkpt lat="43.51001" lon="1.47357">
        <ele>275.8</ele>
        <time>2022-05-16T11:13:23Z</time>
      </trkpt>
      <trkpt lat="43.50996" lon="1.47362">
        <ele>275.8</ele>
        <time>2022-05-16T11:13:24Z</time>
      </trkpt>
      <trkpt lat="43.50992" lon="1.47369">
        <ele>275.7</ele>
        <time>2022-05-16T11:13:25Z</time>
      </trkpt>
      <trkpt lat="43.50988" lon="1.47374">
        <ele>275.6</ele>
        <time>2022-05-16T11:13:26Z</time>
      </trkpt>
      <trkpt lat="43.50983" lon="1.47381">
        <ele>275.5</ele>
        <time>2022-05-16T11:13:27Z</time>
      </trkpt>
      <trkpt lat="43.50979" lon="1.47387">
        <ele>275.4</ele>
        <time>2022-05-16T11:13:28Z</time>
      </trkpt>
      <trkpt lat="43.50974" lon="1.47394">
        <ele>275.3</ele>
        <time>2022-05-16T11:13:29Z</time>
      </trkpt>
      <trkpt lat="43.5097" lon="1.474">
        <ele>275.2</ele>
        <time>2022-05-16T11:13:30Z</time>
      </trkpt>
      <trkpt lat="43.50965" lon="1.47406">
        <ele>275.2</ele>
        <time>2022-05-16T11:13:31Z</time>
      </trkpt>
      <trkpt lat="43.5096" lon="1.47413">
        <ele>275.2</ele>
        <time>2022-05-16T11:13:32Z</time>
      </trkpt>
      <trkpt lat="43.50955" lon="1.47419">
        <ele>275.3</ele>
        <time>2022-05-16T11:13:33Z</time>
      </trkpt>
      <trkpt lat="43.50951" lon="1.47425">
        <ele>275.3</ele>
        <time>2022-05-16T11:13:34Z</time>
      </trkpt>
      <trkpt lat="43.50946" lon="1.47431">
        <ele>275.3</ele>
        <time>2022-05-16T11:13:35Z</time>
      </trkpt>
      <trkpt lat="43.50942" lon="1.47435">
        <ele>275.4</ele>
        <time>2022-05-16T11:13:36Z</time>
      </trkpt>
      <trkpt lat="43.50938" lon="1.47441">
        <ele>275.5</ele>
        <time>2022-05-16T11:13:37Z</time>
      </trkpt>
      <trkpt lat="43.50933" lon="1.47445">
        <ele>275.7</ele>
        <time>2022-05-16T11:13:38Z</time>
      </trkpt>
      <trkpt lat="43.50929" lon="1.47449">
        <ele>275.9</ele>
        <time>2022-05-16T11:13:39Z</time>
      </trkpt>
      <trkpt lat="43.50925" lon="1.47452">
        <ele>276.1</ele>
        <time>2022-05-16T11:13:40Z</time>
      </trkpt>
      <trkpt lat="43.50923" lon="1.47459">
        <ele>276.3</ele>
        <time>2022-05-16T11:13:41Z</time>
      </trkpt>
      <trkpt lat="43.50923" lon="1.47467">
        <ele>276.5</ele>
        <time>2022-05-16T11:13:42Z</time>
      </trkpt>
      <trkpt lat="43.5092" lon="1.47473">
        <ele>276.6</ele>
        <time>2022-05-16T11:13:43Z</time>
      </trkpt>
      <trkpt lat="43.50916" lon="1.47477">
        <ele>276.8</ele>
        <time>2022-05-16T11:13:44Z</time>
      </trkpt>
      <trkpt lat="43.50912" lon="1.47482">
        <ele>277</ele>
        <time>2022-05-16T11:13:45Z</time>
      </trkpt>
      <trkpt lat="43.50908" lon="1.47487">
        <ele>277.2</ele>
        <time>2022-05-16T11:13:46Z</time>
      </trkpt>
      <trkpt lat="43.50904" lon="1.47492">
        <ele>277.4</ele>
        <time>2022-05-16T11:13:47Z</time>
      </trkpt>
      <trkpt lat="43.50901" lon="1.47497">
        <ele>277.5</ele>
        <time>2022-05-16T11:13:48Z</time>
      </trkpt>
      <trkpt lat="43.50898" lon="1.47503">
        <ele>277.7</ele>
        <time>2022-05-16T11:13:49Z</time>
      </trkpt>
      <trkpt lat="43.50894" lon="1.47508">
        <ele>277.8</ele>
        <time>2022-05-16T11:13:50Z</time>
      </trkpt>
      <trkpt lat="43.50891" lon="1.47513">
        <ele>278</ele>
        <time>2022-05-16T11:13:51Z</time>
      </trkpt>
      <trkpt lat="43.50888" lon="1.47519">
        <ele>278.1</ele>
        <time>2022-05-16T11:13:52Z</time>
      </trkpt>
      <trkpt lat="43.50885" lon="1.47524">
        <ele>278.2</ele>
        <time>2022-05-16T11:13:53Z</time>
      </trkpt>
      <trkpt lat="43.50882" lon="1.4753">
        <ele>278.4</ele>
        <time>2022-05-16T11:13:54Z</time>
      </trkpt>
      <trkpt lat="43.50879" lon="1.47535">
        <ele>278.5</ele>
        <time>2022-05-16T11:13:55Z</time>
      </trkpt>
      <trkpt lat="43.50875" lon="1.47541">
        <ele>278.6</ele>
        <time>2022-05-16T11:13:56Z</time>
      </trkpt>
      <trkpt lat="43.50873" lon="1.47547">
        <ele>278.7</ele>
        <time>2022-05-16T11:13:57Z</time>
      </trkpt>
      <trkpt lat="43.50869" lon="1.47552">
        <ele>278.8</ele>
        <time>2022-05-16T11:13:58Z</time>
      </trkpt>
      <trkpt lat="43.50866" lon="1.47558">
        <ele>278.9</ele>
        <time>2022-05-16T11:13:59Z</time>
      </trkpt>
      <trkpt lat="43.50864" lon="1.47564">
        <ele>279</ele>
        <time>2022-05-16T11:14:00Z</time>
      </trkpt>
      <trkpt lat="43.50861" lon="1.47569">
        <ele>279.1</ele>
        <time>2022-05-16T11:14:01Z</time>
      </trkpt>
      <trkpt lat="43.50857" lon="1.47575">
        <ele>279.2</ele>
        <time>2022-05-16T11:14:02Z</time>
      </trkpt>
      <trkpt lat="43.50854" lon="1.4758">
        <ele>279.2</ele>
        <time>2022-05-16T11:14:03Z</time>
      </trkpt>
      <trkpt lat="43.50851" lon="1.47586">
        <ele>279.3</ele>
        <time>2022-05-16T11:14:04Z</time>
      </trkpt>
      <trkpt lat="43.50848" lon="1.47592">
        <ele>279.4</ele>
        <time>2022-05-16T11:14:05Z</time>
      </trkpt>
      <trkpt lat="43.50844" lon="1.47597">
        <ele>279.4</ele>
        <time>2022-05-16T11:14:06Z</time>
      </trkpt>
      <trkpt lat="43.50841" lon="1.47603">
        <ele>279.4</ele>
        <time>2022-05-16T11:14:07Z</time>
      </trkpt>
      <trkpt lat="43.50837" lon="1.47609">
        <ele>279.5</ele>
        <time>2022-05-16T11:14:08Z</time>
      </trkpt>
      <trkpt lat="43.50833" lon="1.47614">
        <ele>279.5</ele>
        <time>2022-05-16T11:14:09Z</time>
      </trkpt>
      <trkpt lat="43.50829" lon="1.47619">
        <ele>279.4</ele>
        <time>2022-05-16T11:14:10Z</time>
      </trkpt>
      <trkpt lat="43.50825" lon="1.47624">
        <ele>279.4</ele>
        <time>2022-05-16T11:14:11Z</time>
      </trkpt>
      <trkpt lat="43.50822" lon="1.47629">
        <ele>279.4</ele>
        <time>2022-05-16T11:14:12Z</time>
      </trkpt>
      <trkpt lat="43.50817" lon="1.47634">
        <ele>279.3</ele>
        <time>2022-05-16T11:14:13Z</time>
      </trkpt>
      <trkpt lat="43.50813" lon="1.47639">
        <ele>279.2</ele>
        <time>2022-05-16T11:14:14Z</time>
      </trkpt>
      <trkpt lat="43.50809" lon="1.47643">
        <ele>279.1</ele>
        <time>2022-05-16T11:14:15Z</time>
      </trkpt>
      <trkpt lat="43.50805" lon="1.47648">
        <ele>279</ele>
        <time>2022-05-16T11:14:16Z</time>
      </trkpt>
      <trkpt lat="43.50801" lon="1.47652">
        <ele>278.9</ele>
        <time>2022-05-16T11:14:17Z</time>
      </trkpt>
      <trkpt lat="43.50797" lon="1.47657">
        <ele>278.8</ele>
        <time>2022-05-16T11:14:18Z</time>
      </trkpt>
      <trkpt lat="43.50793" lon="1.47661">
        <ele>278.6</ele>
        <time>2022-05-16T11:14:19Z</time>
      </trkpt>
      <trkpt lat="43.50789" lon="1.47666">
        <ele>278.5</ele>
        <time>2022-05-16T11:14:20Z</time>
      </trkpt>
      <trkpt lat="43.50785" lon="1.4767">
        <ele>278.3</ele>
        <time>2022-05-16T11:14:21Z</time>
      </trkpt>
      <trkpt lat="43.5078" lon="1.47675">
        <ele>278.2</ele>
        <time>2022-05-16T11:14:22Z</time>
      </trkpt>
      <trkpt lat="43.50776" lon="1.47679">
        <ele>278</ele>
        <time>2022-05-16T11:14:23Z</time>
      </trkpt>
      <trkpt lat="43.50772" lon="1.47685">
        <ele>277.8</ele>
        <time>2022-05-16T11:14:24Z</time>
      </trkpt>
      <trkpt lat="43.50768" lon="1.4769">
        <ele>277.7</ele>
        <time>2022-05-16T11:14:25Z</time>
      </trkpt>
      <trkpt lat="43.50764" lon="1.47695">
        <ele>277.5</ele>
        <time>2022-05-16T11:14:26Z</time>
      </trkpt>
      <trkpt lat="43.5076" lon="1.47699">
        <ele>277.4</ele>
        <time>2022-05-16T11:14:27Z</time>
      </trkpt>
      <trkpt lat="43.50756" lon="1.47704">
        <ele>277.3</ele>
        <time>2022-05-16T11:14:28Z</time>
      </trkpt>
      <trkpt lat="43.50753" lon="1.4771">
        <ele>277.2</ele>
        <time>2022-05-16T11:14:29Z</time>
      </trkpt>
      <trkpt lat="43.5075" lon="1.47716">
        <ele>277.1</ele>
        <time>2022-05-16T11:14:30Z</time>
      </trkpt>
      <trkpt lat="43.50746" lon="1.4772">
        <ele>277.1</ele>
        <time>2022-05-16T11:14:31Z</time>
      </trkpt>
      <trkpt lat="43.50745" lon="1.47726">
        <ele>277.1</ele>
        <time>2022-05-16T11:14:32Z</time>
      </trkpt>
      <trkpt lat="43.50746" lon="1.47732">
        <ele>277</ele>
        <time>2022-05-16T11:14:33Z</time>
      </trkpt>
      <trkpt lat="43.50749" lon="1.47738">
        <ele>275.6</ele>
        <time>2022-05-16T11:14:34Z</time>
      </trkpt>
      <trkpt lat="43.50751" lon="1.47744">
        <ele>275.4</ele>
        <time>2022-05-16T11:14:35Z</time>
      </trkpt>
      <trkpt lat="43.50753" lon="1.47751">
        <ele>275.2</ele>
        <time>2022-05-16T11:14:36Z</time>
      </trkpt>
      <trkpt lat="43.50756" lon="1.47757">
        <ele>274.9</ele>
        <time>2022-05-16T11:14:37Z</time>
      </trkpt>
      <trkpt lat="43.5076" lon="1.47763">
        <ele>274.7</ele>
        <time>2022-05-16T11:14:38Z</time>
      </trkpt>
      <trkpt lat="43.50766" lon="1.47768">
        <ele>274.5</ele>
        <time>2022-05-16T11:14:39Z</time>
      </trkpt>
      <trkpt lat="43.50771" lon="1.47772">
        <ele>274.4</ele>
        <time>2022-05-16T11:14:40Z</time>
      </trkpt>
      <trkpt lat="43.50776" lon="1.47777">
        <ele>274.3</ele>
        <time>2022-05-16T11:14:41Z</time>
      </trkpt>
      <trkpt lat="43.50781" lon="1.47782">
        <ele>274.2</ele>
        <time>2022-05-16T11:14:42Z</time>
      </trkpt>
      <trkpt lat="43.50786" lon="1.47787">
        <ele>274.1</ele>
        <time>2022-05-16T11:14:43Z</time>
      </trkpt>
      <trkpt lat="43.50791" lon="1.4779">
        <ele>274.1</ele>
        <time>2022-05-16T11:14:44Z</time>
      </trkpt>
      <trkpt lat="43.50795" lon="1.47795">
        <ele>274</ele>
        <time>2022-05-16T11:14:45Z</time>
      </trkpt>
      <trkpt lat="43.50798" lon="1.47802">
        <ele>273.9</ele>
        <time>2022-05-16T11:14:46Z</time>
      </trkpt>
      <trkpt lat="43.508" lon="1.47807">
        <ele>273.8</ele>
        <time>2022-05-16T11:14:47Z</time>
      </trkpt>
      <trkpt lat="43.50802" lon="1.47814">
        <ele>273.7</ele>
        <time>2022-05-16T11:14:48Z</time>
      </trkpt>
      <trkpt lat="43.50803" lon="1.47821">
        <ele>273.6</ele>
        <time>2022-05-16T11:14:49Z</time>
      </trkpt>
      <trkpt lat="43.50805" lon="1.47828">
        <ele>273.5</ele>
        <time>2022-05-16T11:14:51Z</time>
      </trkpt>
      <trkpt lat="43.50807" lon="1.47835">
        <ele>273.4</ele>
        <time>2022-05-16T11:14:52Z</time>
      </trkpt>
      <trkpt lat="43.50809" lon="1.47842">
        <ele>273.2</ele>
        <time>2022-05-16T11:14:53Z</time>
      </trkpt>
      <trkpt lat="43.50811" lon="1.47849">
        <ele>273</ele>
        <time>2022-05-16T11:14:54Z</time>
      </trkpt>
      <trkpt lat="43.50813" lon="1.47856">
        <ele>272.8</ele>
        <time>2022-05-16T11:14:55Z</time>
      </trkpt>
      <trkpt lat="43.50815" lon="1.47863">
        <ele>272.6</ele>
        <time>2022-05-16T11:14:56Z</time>
      </trkpt>
      <trkpt lat="43.50818" lon="1.4787">
        <ele>272.3</ele>
        <time>2022-05-16T11:14:57Z</time>
      </trkpt>
      <trkpt lat="43.50821" lon="1.47876">
        <ele>272</ele>
        <time>2022-05-16T11:14:58Z</time>
      </trkpt>
      <trkpt lat="43.50824" lon="1.47882">
        <ele>271.7</ele>
        <time>2022-05-16T11:14:59Z</time>
      </trkpt>
      <trkpt lat="43.50826" lon="1.47889">
        <ele>271.2</ele>
        <time>2022-05-16T11:15:00Z</time>
      </trkpt>
      <trkpt lat="43.50828" lon="1.47896">
        <ele>270.8</ele>
        <time>2022-05-16T11:15:01Z</time>
      </trkpt>
      <trkpt lat="43.50831" lon="1.47905">
        <ele>270.3</ele>
        <time>2022-05-16T11:15:02Z</time>
      </trkpt>
      <trkpt lat="43.50834" lon="1.47913">
        <ele>269.8</ele>
        <time>2022-05-16T11:15:03Z</time>
      </trkpt>
      <trkpt lat="43.50837" lon="1.47922">
        <ele>269.2</ele>
        <time>2022-05-16T11:15:04Z</time>
      </trkpt>
      <trkpt lat="43.50839" lon="1.47931">
        <ele>268.6</ele>
        <time>2022-05-16T11:15:05Z</time>
      </trkpt>
      <trkpt lat="43.50842" lon="1.47942">
        <ele>268</ele>
        <time>2022-05-16T11:15:06Z</time>
      </trkpt>
      <trkpt lat="43.50846" lon="1.4795">
        <ele>267.5</ele>
        <time>2022-05-16T11:15:07Z</time>
      </trkpt>
      <trkpt lat="43.5085" lon="1.47959">
        <ele>267.1</ele>
        <time>2022-05-16T11:15:08Z</time>
      </trkpt>
      <trkpt lat="43.50853" lon="1.47969">
        <ele>266.6</ele>
        <time>2022-05-16T11:15:09Z</time>
      </trkpt>
      <trkpt lat="43.50861" lon="1.47989">
        <ele>265.7</ele>
        <time>2022-05-16T11:15:10Z</time>
      </trkpt>
      <trkpt lat="43.50865" lon="1.47998">
        <ele>265.2</ele>
        <time>2022-05-16T11:15:11Z</time>
      </trkpt>
      <trkpt lat="43.50869" lon="1.48008">
        <ele>264.6</ele>
        <time>2022-05-16T11:15:12Z</time>
      </trkpt>
      <trkpt lat="43.50873" lon="1.48017">
        <ele>264.1</ele>
        <time>2022-05-16T11:15:13Z</time>
      </trkpt>
      <trkpt lat="43.50878" lon="1.48026">
        <ele>263.4</ele>
        <time>2022-05-16T11:15:14Z</time>
      </trkpt>
      <trkpt lat="43.50883" lon="1.48036">
        <ele>262.6</ele>
        <time>2022-05-16T11:15:15Z</time>
      </trkpt>
      <trkpt lat="43.50887" lon="1.48046">
        <ele>261.7</ele>
        <time>2022-05-16T11:15:16Z</time>
      </trkpt>
      <trkpt lat="43.50892" lon="1.48057">
        <ele>260.8</ele>
        <time>2022-05-16T11:15:17Z</time>
      </trkpt>
      <trkpt lat="43.50897" lon="1.48067">
        <ele>259.8</ele>
        <time>2022-05-16T11:15:18Z</time>
      </trkpt>
      <trkpt lat="43.50903" lon="1.48079">
        <ele>258.7</ele>
        <time>2022-05-16T11:15:19Z</time>
      </trkpt>
      <trkpt lat="43.50908" lon="1.48091">
        <ele>257.5</ele>
        <time>2022-05-16T11:15:20Z</time>
      </trkpt>
      <trkpt lat="43.50914" lon="1.48104">
        <ele>256.4</ele>
        <time>2022-05-16T11:15:21Z</time>
      </trkpt>
      <trkpt lat="43.50921" lon="1.48116">
        <ele>255.3</ele>
        <time>2022-05-16T11:15:22Z</time>
      </trkpt>
      <trkpt lat="43.5093" lon="1.48126">
        <ele>254.3</ele>
        <time>2022-05-16T11:15:23Z</time>
      </trkpt>
      <trkpt lat="43.50939" lon="1.48135">
        <ele>253.6</ele>
        <time>2022-05-16T11:15:24Z</time>
      </trkpt>
      <trkpt lat="43.50949" lon="1.48141">
        <ele>252.9</ele>
        <time>2022-05-16T11:15:25Z</time>
      </trkpt>
      <trkpt lat="43.50958" lon="1.48147">
        <ele>252.2</ele>
        <time>2022-05-16T11:15:26Z</time>
      </trkpt>
      <trkpt lat="43.50967" lon="1.48152">
        <ele>251.6</ele>
        <time>2022-05-16T11:15:27Z</time>
      </trkpt>
      <trkpt lat="43.50978" lon="1.48155">
        <ele>250.9</ele>
        <time>2022-05-16T11:15:28Z</time>
      </trkpt>
      <trkpt lat="43.50987" lon="1.48158">
        <ele>250.2</ele>
        <time>2022-05-16T11:15:29Z</time>
      </trkpt>
      <trkpt lat="43.50997" lon="1.48162">
        <ele>249.1</ele>
        <time>2022-05-16T11:15:30Z</time>
      </trkpt>
      <trkpt lat="43.51005" lon="1.48166">
        <ele>247.8</ele>
        <time>2022-05-16T11:15:31Z</time>
      </trkpt>
      <trkpt lat="43.51013" lon="1.48171">
        <ele>246.2</ele>
        <time>2022-05-16T11:15:32Z</time>
      </trkpt>
      <trkpt lat="43.51021" lon="1.48177">
        <ele>244.8</ele>
        <time>2022-05-16T11:15:33Z</time>
      </trkpt>
      <trkpt lat="43.51029" lon="1.4818">
        <ele>243.7</ele>
        <time>2022-05-16T11:15:34Z</time>
      </trkpt>
      <trkpt lat="43.51036" lon="1.48186">
        <ele>242.6</ele>
        <time>2022-05-16T11:15:35Z</time>
      </trkpt>
      <trkpt lat="43.51044" lon="1.48192">
        <ele>241.4</ele>
        <time>2022-05-16T11:15:36Z</time>
      </trkpt>
      <trkpt lat="43.51053" lon="1.48192">
        <ele>240.4</ele>
        <time>2022-05-16T11:15:37Z</time>
      </trkpt>
      <trkpt lat="43.51063" lon="1.48197">
        <ele>239.3</ele>
        <time>2022-05-16T11:15:38Z</time>
      </trkpt>
      <trkpt lat="43.51071" lon="1.48202">
        <ele>238.3</ele>
        <time>2022-05-16T11:15:39Z</time>
      </trkpt>
      <trkpt lat="43.51078" lon="1.48205">
        <ele>237.6</ele>
        <time>2022-05-16T11:15:40Z</time>
      </trkpt>
      <trkpt lat="43.51083" lon="1.48211">
        <ele>236.7</ele>
        <time>2022-05-16T11:15:41Z</time>
      </trkpt>
      <trkpt lat="43.51088" lon="1.4822">
        <ele>235.5</ele>
        <time>2022-05-16T11:15:42Z</time>
      </trkpt>
      <trkpt lat="43.5109" lon="1.48231">
        <ele>234.1</ele>
        <time>2022-05-16T11:15:43Z</time>
      </trkpt>
      <trkpt lat="43.5109" lon="1.48244">
        <ele>232.1</ele>
        <time>2022-05-16T11:15:44Z</time>
      </trkpt>
      <trkpt lat="43.51091" lon="1.48259">
        <ele>229.8</ele>
        <time>2022-05-16T11:15:45Z</time>
      </trkpt>
      <trkpt lat="43.51094" lon="1.48275">
        <ele>227.3</ele>
        <time>2022-05-16T11:15:46Z</time>
      </trkpt>
      <trkpt lat="43.51096" lon="1.48291">
        <ele>224.7</ele>
        <time>2022-05-16T11:15:47Z</time>
      </trkpt>
      <trkpt lat="43.51098" lon="1.48304">
        <ele>222.7</ele>
        <time>2022-05-16T11:15:48Z</time>
      </trkpt>
      <trkpt lat="43.511" lon="1.48315">
        <ele>221</ele>
        <time>2022-05-16T11:15:49Z</time>
      </trkpt>
      <trkpt lat="43.51101" lon="1.48324">
        <ele>219.7</ele>
        <time>2022-05-16T11:15:50Z</time>
      </trkpt>
      <trkpt lat="43.511" lon="1.48331">
        <ele>219</ele>
        <time>2022-05-16T11:15:51Z</time>
      </trkpt>
      <trkpt lat="43.511" lon="1.48334">
        <ele>218.6</ele>
        <time>2022-05-16T11:15:52Z</time>
      </trkpt>
      <trkpt lat="43.51103" lon="1.48334">
        <ele>218.1</ele>
        <time>2022-05-16T11:15:53Z</time>
      </trkpt>
      <trkpt lat="43.51107" lon="1.48334">
        <ele>217.3</ele>
        <time>2022-05-16T11:15:54Z</time>
      </trkpt>
      <trkpt lat="43.5111" lon="1.48333">
        <ele>216.8</ele>
        <time>2022-05-16T11:15:55Z</time>
      </trkpt>
      <trkpt lat="43.51116" lon="1.48332">
        <ele>216.2</ele>
        <time>2022-05-16T11:15:56Z</time>
      </trkpt>
      <trkpt lat="43.51122" lon="1.48334">
        <ele>215.7</ele>
        <time>2022-05-16T11:15:57Z</time>
      </trkpt>
      <trkpt lat="43.51127" lon="1.48336">
        <ele>215.4</ele>
        <time>2022-05-16T11:15:58Z</time>
      </trkpt>
      <trkpt lat="43.5113" lon="1.48334">
        <ele>215.2</ele>
        <time>2022-05-16T11:15:59Z</time>
      </trkpt>
      <trkpt lat="43.51135" lon="1.48336">
        <ele>215</ele>
        <time>2022-05-16T11:16:00Z</time>
      </trkpt>
      <trkpt lat="43.51141" lon="1.48338">
        <ele>214.6</ele>
        <time>2022-05-16T11:16:01Z</time>
      </trkpt>
      <trkpt lat="43.51147" lon="1.48338">
        <ele>214.2</ele>
        <time>2022-05-16T11:16:02Z</time>
      </trkpt>
      <trkpt lat="43.51149" lon="1.48339">
        <ele>214</ele>
        <time>2022-05-16T11:16:03Z</time>
      </trkpt>
      <trkpt lat="43.51153" lon="1.48342">
        <ele>213.6</ele>
        <time>2022-05-16T11:16:04Z</time>
      </trkpt>
      <trkpt lat="43.51158" lon="1.48346">
        <ele>212.9</ele>
        <time>2022-05-16T11:16:05Z</time>
      </trkpt>
      <trkpt lat="43.51164" lon="1.48351">
        <ele>211.9</ele>
        <time>2022-05-16T11:16:06Z</time>
      </trkpt>
      <trkpt lat="43.51169" lon="1.48356">
        <ele>210.9</ele>
        <time>2022-05-16T11:16:07Z</time>
      </trkpt>
      <trkpt lat="43.51173" lon="1.48361">
        <ele>210</ele>
        <time>2022-05-16T11:16:08Z</time>
      </trkpt>
      <trkpt lat="43.51179" lon="1.48365">
        <ele>208.8</ele>
        <time>2022-05-16T11:16:09Z</time>
      </trkpt>
      <trkpt lat="43.51183" lon="1.48368">
        <ele>208.1</ele>
        <time>2022-05-16T11:16:10Z</time>
      </trkpt>
      <trkpt lat="43.51188" lon="1.48371">
        <ele>207.1</ele>
        <time>2022-05-16T11:16:11Z</time>
      </trkpt>
      <trkpt lat="43.51193" lon="1.48373">
        <ele>206.2</ele>
        <time>2022-05-16T11:16:12Z</time>
      </trkpt>
      <trkpt lat="43.51198" lon="1.48376">
        <ele>205.3</ele>
        <time>2022-05-16T11:16:13Z</time>
      </trkpt>
      <trkpt lat="43.512" lon="1.48379">
        <ele>204.9</ele>
        <time>2022-05-16T11:16:14Z</time>
      </trkpt>
      <trkpt lat="43.51203" lon="1.48381">
        <ele>204.2</ele>
        <time>2022-05-16T11:16:15Z</time>
      </trkpt>
      <trkpt lat="43.51206" lon="1.48381">
        <ele>203.6</ele>
        <time>2022-05-16T11:16:16Z</time>
      </trkpt>
      <trkpt lat="43.5121" lon="1.48383">
        <ele>202.9</ele>
        <time>2022-05-16T11:16:17Z</time>
      </trkpt>
      <trkpt lat="43.51216" lon="1.48386">
        <ele>201.6</ele>
        <time>2022-05-16T11:16:18Z</time>
      </trkpt>
      <trkpt lat="43.5122" lon="1.48392">
        <ele>200.5</ele>
        <time>2022-05-16T11:16:19Z</time>
      </trkpt>
      <trkpt lat="43.51225" lon="1.48401">
        <ele>199</ele>
        <time>2022-05-16T11:16:20Z</time>
      </trkpt>
      <trkpt lat="43.51228" lon="1.48411">
        <ele>197.7</ele>
        <time>2022-05-16T11:16:21Z</time>
      </trkpt>
      <trkpt lat="43.51234" lon="1.48406">
        <ele>196.6</ele>
        <time>2022-05-16T11:16:22Z</time>
      </trkpt>
      <trkpt lat="43.51238" lon="1.48404">
        <ele>196</ele>
        <time>2022-05-16T11:16:23Z</time>
      </trkpt>
      <trkpt lat="43.51244" lon="1.48405">
        <ele>195.1</ele>
        <time>2022-05-16T11:16:24Z</time>
      </trkpt>
      <trkpt lat="43.51249" lon="1.48408">
        <ele>194.2</ele>
        <time>2022-05-16T11:16:25Z</time>
      </trkpt>
      <trkpt lat="43.51255" lon="1.48408">
        <ele>193.3</ele>
        <time>2022-05-16T11:16:26Z</time>
      </trkpt>
      <trkpt lat="43.51261" lon="1.4841">
        <ele>192.4</ele>
        <time>2022-05-16T11:16:27Z</time>
      </trkpt>
      <trkpt lat="43.51266" lon="1.48415">
        <ele>191.4</ele>
        <time>2022-05-16T11:16:28Z</time>
      </trkpt>
      <trkpt lat="43.51272" lon="1.48419">
        <ele>190.3</ele>
        <time>2022-05-16T11:16:29Z</time>
      </trkpt>
      <trkpt lat="43.51279" lon="1.48423">
        <ele>189</ele>
        <time>2022-05-16T11:16:30Z</time>
      </trkpt>
      <trkpt lat="43.51285" lon="1.48424">
        <ele>187.9</ele>
        <time>2022-05-16T11:16:31Z</time>
      </trkpt>
      <trkpt lat="43.51291" lon="1.48426">
        <ele>186.9</ele>
        <time>2022-05-16T11:16:32Z</time>
      </trkpt>
      <trkpt lat="43.51296" lon="1.48428">
        <ele>186</ele>
        <time>2022-05-16T11:16:33Z</time>
      </trkpt>
      <trkpt lat="43.51303" lon="1.48429">
        <ele>185.2</ele>
        <time>2022-05-16T11:16:34Z</time>
      </trkpt>
      <trkpt lat="43.51311" lon="1.48429">
        <ele>184.4</ele>
        <time>2022-05-16T11:16:35Z</time>
      </trkpt>
      <trkpt lat="43.51318" lon="1.4843">
        <ele>183.6</ele>
        <time>2022-05-16T11:16:36Z</time>
      </trkpt>
      <trkpt lat="43.51325" lon="1.48434">
        <ele>183.4</ele>
        <time>2022-05-16T11:16:37Z</time>
      </trkpt>
      <trkpt lat="43.51333" lon="1.48436">
        <ele>183.3</ele>
        <time>2022-05-16T11:16:38Z</time>
      </trkpt>
      <trkpt lat="43.5134" lon="1.48436">
        <ele>183.2</ele>
        <time>2022-05-16T11:16:39Z</time>
      </trkpt>
      <trkpt lat="43.51347" lon="1.48439">
        <ele>183.2</ele>
        <time>2022-05-16T11:16:40Z</time>
      </trkpt>
      <trkpt lat="43.51355" lon="1.48444">
        <ele>183.2</ele>
        <time>2022-05-16T11:16:41Z</time>
      </trkpt>
      <trkpt lat="43.51361" lon="1.48448">
        <ele>183.4</ele>
        <time>2022-05-16T11:16:42Z</time>
      </trkpt>
      <trkpt lat="43.51367" lon="1.48453">
        <ele>183.7</ele>
        <time>2022-05-16T11:16:43Z</time>
      </trkpt>
      <trkpt lat="43.51372" lon="1.48457">
        <ele>184</ele>
        <time>2022-05-16T11:16:44Z</time>
      </trkpt>
      <trkpt lat="43.51376" lon="1.4846">
        <ele>184.3</ele>
        <time>2022-05-16T11:16:45Z</time>
      </trkpt>
      <trkpt lat="43.5138" lon="1.48463">
        <ele>184.7</ele>
        <time>2022-05-16T11:16:46Z</time>
      </trkpt>
      <trkpt lat="43.51384" lon="1.48466">
        <ele>185</ele>
        <time>2022-05-16T11:16:47Z</time>
      </trkpt>
      <trkpt lat="43.51388" lon="1.48469">
        <ele>185.3</ele>
        <time>2022-05-16T11:16:48Z</time>
      </trkpt>
      <trkpt lat="43.51392" lon="1.48471">
        <ele>185.7</ele>
        <time>2022-05-16T11:16:49Z</time>
      </trkpt>
      <trkpt lat="43.51396" lon="1.48474">
        <ele>186</ele>
        <time>2022-05-16T11:16:50Z</time>
      </trkpt>
      <trkpt lat="43.51399" lon="1.48477">
        <ele>186.4</ele>
        <time>2022-05-16T11:16:51Z</time>
      </trkpt>
      <trkpt lat="43.51403" lon="1.48479">
        <ele>186.8</ele>
        <time>2022-05-16T11:16:52Z</time>
      </trkpt>
      <trkpt lat="43.51406" lon="1.4848">
        <ele>187.1</ele>
        <time>2022-05-16T11:16:53Z</time>
      </trkpt>
      <trkpt lat="43.51409" lon="1.48482">
        <ele>187.5</ele>
        <time>2022-05-16T11:16:54Z</time>
      </trkpt>
      <trkpt lat="43.51412" lon="1.48485">
        <ele>187.9</ele>
        <time>2022-05-16T11:16:55Z</time>
      </trkpt>
      <trkpt lat="43.51415" lon="1.48488">
        <ele>188.3</ele>
        <time>2022-05-16T11:16:56Z</time>
      </trkpt>
      <trkpt lat="43.51417" lon="1.48492">
        <ele>188.2</ele>
        <time>2022-05-16T11:16:57Z</time>
      </trkpt>
      <trkpt lat="43.51418" lon="1.48493">
        <ele>188.1</ele>
        <time>2022-05-16T11:16:58Z</time>
      </trkpt>
      <trkpt lat="43.5142" lon="1.48496">
        <ele>187.8</ele>
        <time>2022-05-16T11:16:59Z</time>
      </trkpt>
      <trkpt lat="43.51423" lon="1.48501">
        <ele>187.6</ele>
        <time>2022-05-16T11:17:00Z</time>
      </trkpt>
      <trkpt lat="43.51425" lon="1.48506">
        <ele>187.2</ele>
        <time>2022-05-16T11:17:01Z</time>
      </trkpt>
      <trkpt lat="43.51428" lon="1.48513">
        <ele>186.8</ele>
        <time>2022-05-16T11:17:02Z</time>
      </trkpt>
      <trkpt lat="43.51432" lon="1.48519">
        <ele>186.4</ele>
        <time>2022-05-16T11:17:03Z</time>
      </trkpt>
      <trkpt lat="43.51435" lon="1.48526">
        <ele>186</ele>
        <time>2022-05-16T11:17:04Z</time>
      </trkpt>
      <trkpt lat="43.5144" lon="1.48533">
        <ele>185.5</ele>
        <time>2022-05-16T11:17:05Z</time>
      </trkpt>
      <trkpt lat="43.51444" lon="1.4854">
        <ele>185.1</ele>
        <time>2022-05-16T11:17:06Z</time>
      </trkpt>
      <trkpt lat="43.51449" lon="1.48548">
        <ele>184.6</ele>
        <time>2022-05-16T11:17:07Z</time>
      </trkpt>
      <trkpt lat="43.51454" lon="1.48556">
        <ele>184.1</ele>
        <time>2022-05-16T11:17:08Z</time>
      </trkpt>
      <trkpt lat="43.5146" lon="1.48564">
        <ele>183.7</ele>
        <time>2022-05-16T11:17:09Z</time>
      </trkpt>
      <trkpt lat="43.51465" lon="1.48573">
        <ele>183.3</ele>
        <time>2022-05-16T11:17:10Z</time>
      </trkpt>
      <trkpt lat="43.51471" lon="1.48582">
        <ele>182.9</ele>
        <time>2022-05-16T11:17:11Z</time>
      </trkpt>
      <trkpt lat="43.51476" lon="1.48591">
        <ele>182.6</ele>
        <time>2022-05-16T11:17:12Z</time>
      </trkpt>
      <trkpt lat="43.51482" lon="1.48601">
        <ele>182.4</ele>
        <time>2022-05-16T11:17:13Z</time>
      </trkpt>
      <trkpt lat="43.51487" lon="1.48611">
        <ele>182.2</ele>
        <time>2022-05-16T11:17:14Z</time>
      </trkpt>
      <trkpt lat="43.51492" lon="1.48621">
        <ele>182.1</ele>
        <time>2022-05-16T11:17:15Z</time>
      </trkpt>
      <trkpt lat="43.51496" lon="1.48633">
        <ele>182.1</ele>
        <time>2022-05-16T11:17:16Z</time>
      </trkpt>
      <trkpt lat="43.515" lon="1.48643">
        <ele>182.2</ele>
        <time>2022-05-16T11:17:17Z</time>
      </trkpt>
      <trkpt lat="43.51502" lon="1.48654">
        <ele>182.3</ele>
        <time>2022-05-16T11:17:18Z</time>
      </trkpt>
      <trkpt lat="43.51504" lon="1.48664">
        <ele>182.5</ele>
        <time>2022-05-16T11:17:19Z</time>
      </trkpt>
      <trkpt lat="43.51507" lon="1.48674">
        <ele>182.8</ele>
        <time>2022-05-16T11:17:20Z</time>
      </trkpt>
      <trkpt lat="43.51508" lon="1.48682">
        <ele>183</ele>
        <time>2022-05-16T11:17:21Z</time>
      </trkpt>
      <trkpt lat="43.51509" lon="1.48691">
        <ele>183.2</ele>
        <time>2022-05-16T11:17:22Z</time>
      </trkpt>
      <trkpt lat="43.51511" lon="1.48698">
        <ele>183.5</ele>
        <time>2022-05-16T11:17:23Z</time>
      </trkpt>
      <trkpt lat="43.51512" lon="1.48706">
        <ele>183.7</ele>
        <time>2022-05-16T11:17:24Z</time>
      </trkpt>
      <trkpt lat="43.51513" lon="1.48713">
        <ele>183.9</ele>
        <time>2022-05-16T11:17:25Z</time>
      </trkpt>
      <trkpt lat="43.51514" lon="1.48721">
        <ele>184.1</ele>
        <time>2022-05-16T11:17:26Z</time>
      </trkpt>
      <trkpt lat="43.51515" lon="1.48728">
        <ele>184.3</ele>
        <time>2022-05-16T11:17:27Z</time>
      </trkpt>
      <trkpt lat="43.51515" lon="1.48736">
        <ele>184.5</ele>
        <time>2022-05-16T11:17:28Z</time>
      </trkpt>
      <trkpt lat="43.51516" lon="1.48743">
        <ele>184.7</ele>
        <time>2022-05-16T11:17:29Z</time>
      </trkpt>
      <trkpt lat="43.51517" lon="1.48751">
        <ele>184.8</ele>
        <time>2022-05-16T11:17:30Z</time>
      </trkpt>
      <trkpt lat="43.51518" lon="1.48759">
        <ele>184.9</ele>
        <time>2022-05-16T11:17:31Z</time>
      </trkpt>
      <trkpt lat="43.51518" lon="1.48767">
        <ele>185</ele>
        <time>2022-05-16T11:17:32Z</time>
      </trkpt>
      <trkpt lat="43.51518" lon="1.48774">
        <ele>185</ele>
        <time>2022-05-16T11:17:33Z</time>
      </trkpt>
      <trkpt lat="43.51519" lon="1.48783">
        <ele>185.1</ele>
        <time>2022-05-16T11:17:34Z</time>
      </trkpt>
      <trkpt lat="43.5152" lon="1.48791">
        <ele>185.1</ele>
        <time>2022-05-16T11:17:35Z</time>
      </trkpt>
      <trkpt lat="43.5152" lon="1.48799">
        <ele>185.1</ele>
        <time>2022-05-16T11:17:36Z</time>
      </trkpt>
      <trkpt lat="43.51521" lon="1.48807">
        <ele>185.1</ele>
        <time>2022-05-16T11:17:37Z</time>
      </trkpt>
      <trkpt lat="43.51522" lon="1.48815">
        <ele>185.1</ele>
        <time>2022-05-16T11:17:38Z</time>
      </trkpt>
      <trkpt lat="43.51522" lon="1.48824">
        <ele>185.1</ele>
        <time>2022-05-16T11:17:39Z</time>
      </trkpt>
      <trkpt lat="43.51523" lon="1.48832">
        <ele>185.1</ele>
        <time>2022-05-16T11:17:40Z</time>
      </trkpt>
      <trkpt lat="43.51524" lon="1.48839">
        <ele>185.1</ele>
        <time>2022-05-16T11:17:41Z</time>
      </trkpt>
      <trkpt lat="43.51524" lon="1.48848">
        <ele>185.1</ele>
        <time>2022-05-16T11:17:42Z</time>
      </trkpt>
      <trkpt lat="43.51524" lon="1.48856">
        <ele>185</ele>
        <time>2022-05-16T11:17:43Z</time>
      </trkpt>
      <trkpt lat="43.51524" lon="1.48865">
        <ele>184.9</ele>
        <time>2022-05-16T11:17:44Z</time>
      </trkpt>
      <trkpt lat="43.51524" lon="1.48873">
        <ele>184.8</ele>
        <time>2022-05-16T11:17:45Z</time>
      </trkpt>
      <trkpt lat="43.51524" lon="1.48882">
        <ele>184.7</ele>
        <time>2022-05-16T11:17:46Z</time>
      </trkpt>
      <trkpt lat="43.51524" lon="1.4889">
        <ele>184.5</ele>
        <time>2022-05-16T11:17:47Z</time>
      </trkpt>
      <trkpt lat="43.51525" lon="1.48899">
        <ele>184.2</ele>
        <time>2022-05-16T11:17:48Z</time>
      </trkpt>
      <trkpt lat="43.51525" lon="1.48909">
        <ele>183.9</ele>
        <time>2022-05-16T11:17:49Z</time>
      </trkpt>
      <trkpt lat="43.51525" lon="1.48918">
        <ele>183.6</ele>
        <time>2022-05-16T11:17:50Z</time>
      </trkpt>
      <trkpt lat="43.51526" lon="1.48928">
        <ele>183.2</ele>
        <time>2022-05-16T11:17:51Z</time>
      </trkpt>
      <trkpt lat="43.51526" lon="1.48938">
        <ele>182.8</ele>
        <time>2022-05-16T11:17:52Z</time>
      </trkpt>
      <trkpt lat="43.51526" lon="1.48949">
        <ele>182.4</ele>
        <time>2022-05-16T11:17:53Z</time>
      </trkpt>
      <trkpt lat="43.51526" lon="1.48959">
        <ele>182</ele>
        <time>2022-05-16T11:17:54Z</time>
      </trkpt>
      <trkpt lat="43.51525" lon="1.48971">
        <ele>181.6</ele>
        <time>2022-05-16T11:17:55Z</time>
      </trkpt>
      <trkpt lat="43.51524" lon="1.48981">
        <ele>181.1</ele>
        <time>2022-05-16T11:17:56Z</time>
      </trkpt>
      <trkpt lat="43.51523" lon="1.48993">
        <ele>180.6</ele>
        <time>2022-05-16T11:17:57Z</time>
      </trkpt>
      <trkpt lat="43.51522" lon="1.49004">
        <ele>180.1</ele>
        <time>2022-05-16T11:17:58Z</time>
      </trkpt>
      <trkpt lat="43.51522" lon="1.49015">
        <ele>179.6</ele>
        <time>2022-05-16T11:17:59Z</time>
      </trkpt>
      <trkpt lat="43.51521" lon="1.49027">
        <ele>179.1</ele>
        <time>2022-05-16T11:18:00Z</time>
      </trkpt>
      <trkpt lat="43.51521" lon="1.49039">
        <ele>178.5</ele>
        <time>2022-05-16T11:18:01Z</time>
      </trkpt>
      <trkpt lat="43.51521" lon="1.49051">
        <ele>178</ele>
        <time>2022-05-16T11:18:02Z</time>
      </trkpt>
      <trkpt lat="43.51521" lon="1.49064">
        <ele>177.4</ele>
        <time>2022-05-16T11:18:03Z</time>
      </trkpt>
      <trkpt lat="43.5152" lon="1.49078">
        <ele>176.8</ele>
        <time>2022-05-16T11:18:04Z</time>
      </trkpt>
      <trkpt lat="43.5152" lon="1.49091">
        <ele>176.2</ele>
        <time>2022-05-16T11:18:05Z</time>
      </trkpt>
      <trkpt lat="43.51519" lon="1.49103">
        <ele>175.7</ele>
        <time>2022-05-16T11:18:06Z</time>
      </trkpt>
      <trkpt lat="43.51519" lon="1.49117">
        <ele>175.2</ele>
        <time>2022-05-16T11:18:07Z</time>
      </trkpt>
      <trkpt lat="43.51519" lon="1.4913">
        <ele>174.6</ele>
        <time>2022-05-16T11:18:08Z</time>
      </trkpt>
      <trkpt lat="43.51518" lon="1.49144">
        <ele>174.1</ele>
        <time>2022-05-16T11:18:09Z</time>
      </trkpt>
      <trkpt lat="43.51518" lon="1.49157">
        <ele>173.5</ele>
        <time>2022-05-16T11:18:10Z</time>
      </trkpt>
      <trkpt lat="43.51518" lon="1.49171">
        <ele>173</ele>
        <time>2022-05-16T11:18:11Z</time>
      </trkpt>
      <trkpt lat="43.51518" lon="1.49185">
        <ele>172.6</ele>
        <time>2022-05-16T11:18:12Z</time>
      </trkpt>
      <trkpt lat="43.51516" lon="1.49198">
        <ele>172.2</ele>
        <time>2022-05-16T11:18:13Z</time>
      </trkpt>
      <trkpt lat="43.51514" lon="1.49212">
        <ele>171.9</ele>
        <time>2022-05-16T11:18:14Z</time>
      </trkpt>
      <trkpt lat="43.51511" lon="1.49225">
        <ele>171.9</ele>
        <time>2022-05-16T11:18:15Z</time>
      </trkpt>
      <trkpt lat="43.51506" lon="1.49237">
        <ele>171.9</ele>
        <time>2022-05-16T11:18:16Z</time>
      </trkpt>
      <trkpt lat="43.51502" lon="1.49249">
        <ele>171.9</ele>
        <time>2022-05-16T11:18:17Z</time>
      </trkpt>
      <trkpt lat="43.51499" lon="1.4926">
        <ele>171.9</ele>
        <time>2022-05-16T11:18:18Z</time>
      </trkpt>
      <trkpt lat="43.51498" lon="1.49272">
        <ele>171.9</ele>
        <time>2022-05-16T11:18:19Z</time>
      </trkpt>
      <trkpt lat="43.51499" lon="1.49283">
        <ele>172</ele>
        <time>2022-05-16T11:18:20Z</time>
      </trkpt>
      <trkpt lat="43.51499" lon="1.49294">
        <ele>172.1</ele>
        <time>2022-05-16T11:18:21Z</time>
      </trkpt>
      <trkpt lat="43.51499" lon="1.49304">
        <ele>172.1</ele>
        <time>2022-05-16T11:18:22Z</time>
      </trkpt>
      <trkpt lat="43.51499" lon="1.49314">
        <ele>172.2</ele>
        <time>2022-05-16T11:18:23Z</time>
      </trkpt>
      <trkpt lat="43.51498" lon="1.49323">
        <ele>172.3</ele>
        <time>2022-05-16T11:18:24Z</time>
      </trkpt>
      <trkpt lat="43.51496" lon="1.49331">
        <ele>172.3</ele>
        <time>2022-05-16T11:18:25Z</time>
      </trkpt>
      <trkpt lat="43.51495" lon="1.49339">
        <ele>172.4</ele>
        <time>2022-05-16T11:18:26Z</time>
      </trkpt>
      <trkpt lat="43.51494" lon="1.49346">
        <ele>172.4</ele>
        <time>2022-05-16T11:18:27Z</time>
      </trkpt>
      <trkpt lat="43.51494" lon="1.49354">
        <ele>172.5</ele>
        <time>2022-05-16T11:18:28Z</time>
      </trkpt>
      <trkpt lat="43.51493" lon="1.49361">
        <ele>172.5</ele>
        <time>2022-05-16T11:18:29Z</time>
      </trkpt>
      <trkpt lat="43.51492" lon="1.49368">
        <ele>172.5</ele>
        <time>2022-05-16T11:18:30Z</time>
      </trkpt>
      <trkpt lat="43.51491" lon="1.49376">
        <ele>172.5</ele>
        <time>2022-05-16T11:18:31Z</time>
      </trkpt>
      <trkpt lat="43.51491" lon="1.49383">
        <ele>172.5</ele>
        <time>2022-05-16T11:18:32Z</time>
      </trkpt>
      <trkpt lat="43.5149" lon="1.4939">
        <ele>172.4</ele>
        <time>2022-05-16T11:18:33Z</time>
      </trkpt>
      <trkpt lat="43.5149" lon="1.49397">
        <ele>172.4</ele>
        <time>2022-05-16T11:18:34Z</time>
      </trkpt>
      <trkpt lat="43.51489" lon="1.49404">
        <ele>172.3</ele>
        <time>2022-05-16T11:18:35Z</time>
      </trkpt>
      <trkpt lat="43.51488" lon="1.49411">
        <ele>172.2</ele>
        <time>2022-05-16T11:18:36Z</time>
      </trkpt>
      <trkpt lat="43.51488" lon="1.49418">
        <ele>172.1</ele>
        <time>2022-05-16T11:18:37Z</time>
      </trkpt>
      <trkpt lat="43.51487" lon="1.49424">
        <ele>172</ele>
        <time>2022-05-16T11:18:38Z</time>
      </trkpt>
      <trkpt lat="43.51487" lon="1.49431">
        <ele>171.8</ele>
        <time>2022-05-16T11:18:39Z</time>
      </trkpt>
      <trkpt lat="43.51486" lon="1.49438">
        <ele>171.6</ele>
        <time>2022-05-16T11:18:40Z</time>
      </trkpt>
      <trkpt lat="43.51485" lon="1.49445">
        <ele>171.4</ele>
        <time>2022-05-16T11:18:41Z</time>
      </trkpt>
      <trkpt lat="43.51484" lon="1.49452">
        <ele>171.2</ele>
        <time>2022-05-16T11:18:42Z</time>
      </trkpt>
      <trkpt lat="43.51484" lon="1.4946">
        <ele>170.9</ele>
        <time>2022-05-16T11:18:43Z</time>
      </trkpt>
      <trkpt lat="43.51483" lon="1.49468">
        <ele>170.7</ele>
        <time>2022-05-16T11:18:44Z</time>
      </trkpt>
      <trkpt lat="43.51482" lon="1.49477">
        <ele>170.4</ele>
        <time>2022-05-16T11:18:45Z</time>
      </trkpt>
      <trkpt lat="43.51483" lon="1.49485">
        <ele>170.2</ele>
        <time>2022-05-16T11:18:46Z</time>
      </trkpt>
      <trkpt lat="43.51481" lon="1.49494">
        <ele>169.9</ele>
        <time>2022-05-16T11:18:47Z</time>
      </trkpt>
      <trkpt lat="43.51481" lon="1.49504">
        <ele>169.6</ele>
        <time>2022-05-16T11:18:48Z</time>
      </trkpt>
      <trkpt lat="43.5148" lon="1.49511">
        <ele>169.4</ele>
        <time>2022-05-16T11:18:49Z</time>
      </trkpt>
      <trkpt lat="43.51479" lon="1.49515">
        <ele>169.3</ele>
        <time>2022-05-16T11:18:50Z</time>
      </trkpt>
      <trkpt lat="43.51479" lon="1.49518">
        <ele>169.3</ele>
        <time>2022-05-16T11:18:51Z</time>
      </trkpt>
      <trkpt lat="43.51478" lon="1.4952">
        <ele>169.2</ele>
        <time>2022-05-16T11:18:52Z</time>
      </trkpt>
      <trkpt lat="43.51478" lon="1.49522">
        <ele>169.2</ele>
        <time>2022-05-16T11:18:53Z</time>
      </trkpt>
      <trkpt lat="43.51479" lon="1.49526">
        <ele>169.1</ele>
        <time>2022-05-16T11:18:54Z</time>
      </trkpt>
      <trkpt lat="43.5148" lon="1.49532">
        <ele>169</ele>
        <time>2022-05-16T11:18:55Z</time>
      </trkpt>
      <trkpt lat="43.51481" lon="1.49538">
        <ele>168.9</ele>
        <time>2022-05-16T11:18:56Z</time>
      </trkpt>
      <trkpt lat="43.51485" lon="1.49544">
        <ele>168.8</ele>
        <time>2022-05-16T11:18:57Z</time>
      </trkpt>
      <trkpt lat="43.51487" lon="1.4955">
        <ele>168.5</ele>
        <time>2022-05-16T11:18:58Z</time>
      </trkpt>
      <trkpt lat="43.51486" lon="1.49558">
        <ele>168.5</ele>
        <time>2022-05-16T11:18:59Z</time>
      </trkpt>
      <trkpt lat="43.51487" lon="1.49565">
        <ele>168</ele>
        <time>2022-05-16T11:19:00Z</time>
      </trkpt>
      <trkpt lat="43.51488" lon="1.49573">
        <ele>167.9</ele>
        <time>2022-05-16T11:19:01Z</time>
      </trkpt>
      <trkpt lat="43.5149" lon="1.4958">
        <ele>167.7</ele>
        <time>2022-05-16T11:19:02Z</time>
      </trkpt>
      <trkpt lat="43.51492" lon="1.49588">
        <ele>167.6</ele>
        <time>2022-05-16T11:19:03Z</time>
      </trkpt>
      <trkpt lat="43.51494" lon="1.49596">
        <ele>167.6</ele>
        <time>2022-05-16T11:19:04Z</time>
      </trkpt>
      <trkpt lat="43.51497" lon="1.49603">
        <ele>167.5</ele>
        <time>2022-05-16T11:19:05Z</time>
      </trkpt>
      <trkpt lat="43.51499" lon="1.49609">
        <ele>167.4</ele>
        <time>2022-05-16T11:19:06Z</time>
      </trkpt>
      <trkpt lat="43.51501" lon="1.49617">
        <ele>167.4</ele>
        <time>2022-05-16T11:19:07Z</time>
      </trkpt>
      <trkpt lat="43.51501" lon="1.49625">
        <ele>167.2</ele>
        <time>2022-05-16T11:19:08Z</time>
      </trkpt>
      <trkpt lat="43.515" lon="1.49632">
        <ele>167.1</ele>
        <time>2022-05-16T11:19:09Z</time>
      </trkpt>
      <trkpt lat="43.51501" lon="1.49641">
        <ele>166.9</ele>
        <time>2022-05-16T11:19:10Z</time>
      </trkpt>
      <trkpt lat="43.51502" lon="1.49649">
        <ele>166.7</ele>
        <time>2022-05-16T11:19:11Z</time>
      </trkpt>
      <trkpt lat="43.51503" lon="1.49658">
        <ele>166.6</ele>
        <time>2022-05-16T11:19:12Z</time>
      </trkpt>
      <trkpt lat="43.51503" lon="1.49666">
        <ele>166.4</ele>
        <time>2022-05-16T11:19:13Z</time>
      </trkpt>
      <trkpt lat="43.51503" lon="1.49674">
        <ele>166.3</ele>
        <time>2022-05-16T11:19:14Z</time>
      </trkpt>
      <trkpt lat="43.51503" lon="1.49682">
        <ele>166.2</ele>
        <time>2022-05-16T11:19:15Z</time>
      </trkpt>
      <trkpt lat="43.51502" lon="1.4969">
        <ele>166.2</ele>
        <time>2022-05-16T11:19:16Z</time>
      </trkpt>
      <trkpt lat="43.51502" lon="1.49698">
        <ele>166.1</ele>
        <time>2022-05-16T11:19:17Z</time>
      </trkpt>
      <trkpt lat="43.51502" lon="1.49706">
        <ele>166</ele>
        <time>2022-05-16T11:19:18Z</time>
      </trkpt>
      <trkpt lat="43.51502" lon="1.49714">
        <ele>166</ele>
        <time>2022-05-16T11:19:19Z</time>
      </trkpt>
      <trkpt lat="43.51502" lon="1.49722">
        <ele>165.9</ele>
        <time>2022-05-16T11:19:20Z</time>
      </trkpt>
      <trkpt lat="43.51502" lon="1.49729">
        <ele>165.9</ele>
        <time>2022-05-16T11:19:21Z</time>
      </trkpt>
      <trkpt lat="43.51503" lon="1.49737">
        <ele>165.8</ele>
        <time>2022-05-16T11:19:22Z</time>
      </trkpt>
      <trkpt lat="43.51503" lon="1.49744">
        <ele>165.8</ele>
        <time>2022-05-16T11:19:23Z</time>
      </trkpt>
      <trkpt lat="43.51503" lon="1.49751">
        <ele>165.8</ele>
        <time>2022-05-16T11:19:24Z</time>
      </trkpt>
      <trkpt lat="43.51504" lon="1.49758">
        <ele>165.7</ele>
        <time>2022-05-16T11:19:25Z</time>
      </trkpt>
      <trkpt lat="43.51504" lon="1.49765">
        <ele>165.7</ele>
        <time>2022-05-16T11:19:26Z</time>
      </trkpt>
      <trkpt lat="43.51505" lon="1.49772">
        <ele>165.7</ele>
        <time>2022-05-16T11:19:27Z</time>
      </trkpt>
      <trkpt lat="43.51505" lon="1.4978">
        <ele>165.7</ele>
        <time>2022-05-16T11:19:28Z</time>
      </trkpt>
      <trkpt lat="43.51506" lon="1.49787">
        <ele>165.7</ele>
        <time>2022-05-16T11:19:29Z</time>
      </trkpt>
      <trkpt lat="43.51508" lon="1.49793">
        <ele>165.7</ele>
        <time>2022-05-16T11:19:30Z</time>
      </trkpt>
      <trkpt lat="43.51511" lon="1.49799">
        <ele>165.7</ele>
        <time>2022-05-16T11:19:31Z</time>
      </trkpt>
      <trkpt lat="43.51513" lon="1.49805">
        <ele>165.6</ele>
        <time>2022-05-16T11:19:32Z</time>
      </trkpt>
      <trkpt lat="43.51515" lon="1.49811">
        <ele>165.6</ele>
        <time>2022-05-16T11:19:33Z</time>
      </trkpt>
      <trkpt lat="43.51517" lon="1.49817">
        <ele>165.6</ele>
        <time>2022-05-16T11:19:34Z</time>
      </trkpt>
      <trkpt lat="43.51519" lon="1.49823">
        <ele>165.6</ele>
        <time>2022-05-16T11:19:35Z</time>
      </trkpt>
      <trkpt lat="43.51518" lon="1.49829">
        <ele>165.6</ele>
        <time>2022-05-16T11:19:36Z</time>
      </trkpt>
      <trkpt lat="43.51516" lon="1.49835">
        <ele>165.7</ele>
        <time>2022-05-16T11:19:37Z</time>
      </trkpt>
      <trkpt lat="43.51511" lon="1.49838">
        <ele>165.7</ele>
        <time>2022-05-16T11:19:38Z</time>
      </trkpt>
      <trkpt lat="43.51506" lon="1.49841">
        <ele>165.8</ele>
        <time>2022-05-16T11:19:39Z</time>
      </trkpt>
      <trkpt lat="43.51501" lon="1.49845">
        <ele>165.8</ele>
        <time>2022-05-16T11:19:40Z</time>
      </trkpt>
      <trkpt lat="43.51496" lon="1.49848">
        <ele>165.8</ele>
        <time>2022-05-16T11:19:41Z</time>
      </trkpt>
      <trkpt lat="43.5149" lon="1.49851">
        <ele>165.8</ele>
        <time>2022-05-16T11:19:42Z</time>
      </trkpt>
      <trkpt lat="43.51485" lon="1.49854">
        <ele>165.9</ele>
        <time>2022-05-16T11:19:43Z</time>
      </trkpt>
      <trkpt lat="43.5148" lon="1.49857">
        <ele>166</ele>
        <time>2022-05-16T11:19:44Z</time>
      </trkpt>
      <trkpt lat="43.51476" lon="1.49861">
        <ele>166</ele>
        <time>2022-05-16T11:19:45Z</time>
      </trkpt>
      <trkpt lat="43.51471" lon="1.49864">
        <ele>166.1</ele>
        <time>2022-05-16T11:19:46Z</time>
      </trkpt>
      <trkpt lat="43.51466" lon="1.49867">
        <ele>166.2</ele>
        <time>2022-05-16T11:19:47Z</time>
      </trkpt>
      <trkpt lat="43.51462" lon="1.4987">
        <ele>166.4</ele>
        <time>2022-05-16T11:19:48Z</time>
      </trkpt>
      <trkpt lat="43.51457" lon="1.49873">
        <ele>166.5</ele>
        <time>2022-05-16T11:19:49Z</time>
      </trkpt>
      <trkpt lat="43.51452" lon="1.49876">
        <ele>166.6</ele>
        <time>2022-05-16T11:19:50Z</time>
      </trkpt>
      <trkpt lat="43.51447" lon="1.49879">
        <ele>166.7</ele>
        <time>2022-05-16T11:19:51Z</time>
      </trkpt>
      <trkpt lat="43.51443" lon="1.49881">
        <ele>166.9</ele>
        <time>2022-05-16T11:19:52Z</time>
      </trkpt>
      <trkpt lat="43.51439" lon="1.49884">
        <ele>167</ele>
        <time>2022-05-16T11:19:53Z</time>
      </trkpt>
      <trkpt lat="43.51434" lon="1.49887">
        <ele>167</ele>
        <time>2022-05-16T11:19:54Z</time>
      </trkpt>
      <trkpt lat="43.51429" lon="1.49889">
        <ele>167.1</ele>
        <time>2022-05-16T11:19:55Z</time>
      </trkpt>
      <trkpt lat="43.51425" lon="1.49891">
        <ele>167.1</ele>
        <time>2022-05-16T11:19:56Z</time>
      </trkpt>
      <trkpt lat="43.51421" lon="1.49893">
        <ele>167.1</ele>
        <time>2022-05-16T11:19:57Z</time>
      </trkpt>
      <trkpt lat="43.51416" lon="1.49895">
        <ele>167.1</ele>
        <time>2022-05-16T11:19:58Z</time>
      </trkpt>
      <trkpt lat="43.51412" lon="1.49896">
        <ele>167</ele>
        <time>2022-05-16T11:19:59Z</time>
      </trkpt>
      <trkpt lat="43.51407" lon="1.49898">
        <ele>166.8</ele>
        <time>2022-05-16T11:20:00Z</time>
      </trkpt>
      <trkpt lat="43.51403" lon="1.499">
        <ele>166.6</ele>
        <time>2022-05-16T11:20:01Z</time>
      </trkpt>
      <trkpt lat="43.51399" lon="1.49902">
        <ele>166.4</ele>
        <time>2022-05-16T11:20:02Z</time>
      </trkpt>
      <trkpt lat="43.51395" lon="1.49903">
        <ele>166.2</ele>
        <time>2022-05-16T11:20:03Z</time>
      </trkpt>
      <trkpt lat="43.51392" lon="1.49904">
        <ele>166</ele>
        <time>2022-05-16T11:20:04Z</time>
      </trkpt>
      <trkpt lat="43.51388" lon="1.49907">
        <ele>165.7</ele>
        <time>2022-05-16T11:20:05Z</time>
      </trkpt>
      <trkpt lat="43.51386" lon="1.49914">
        <ele>165.5</ele>
        <time>2022-05-16T11:20:06Z</time>
      </trkpt>
      <trkpt lat="43.51384" lon="1.49921">
        <ele>165.3</ele>
        <time>2022-05-16T11:20:07Z</time>
      </trkpt>
      <trkpt lat="43.51381" lon="1.49928">
        <ele>165.2</ele>
        <time>2022-05-16T11:20:08Z</time>
      </trkpt>
      <trkpt lat="43.51379" lon="1.49935">
        <ele>165</ele>
        <time>2022-05-16T11:20:09Z</time>
      </trkpt>
      <trkpt lat="43.51376" lon="1.49942">
        <ele>164.9</ele>
        <time>2022-05-16T11:20:10Z</time>
      </trkpt>
      <trkpt lat="43.51374" lon="1.49949">
        <ele>164.7</ele>
        <time>2022-05-16T11:20:11Z</time>
      </trkpt>
      <trkpt lat="43.51372" lon="1.49957">
        <ele>164.6</ele>
        <time>2022-05-16T11:20:12Z</time>
      </trkpt>
      <trkpt lat="43.51371" lon="1.49962">
        <ele>164.5</ele>
        <time>2022-05-16T11:20:13Z</time>
      </trkpt>
      <trkpt lat="43.51368" lon="1.49969">
        <ele>164.3</ele>
        <time>2022-05-16T11:20:14Z</time>
      </trkpt>
      <trkpt lat="43.51366" lon="1.49976">
        <ele>164.2</ele>
        <time>2022-05-16T11:20:15Z</time>
      </trkpt>
      <trkpt lat="43.51364" lon="1.49984">
        <ele>164.1</ele>
        <time>2022-05-16T11:20:16Z</time>
      </trkpt>
      <trkpt lat="43.51361" lon="1.49992">
        <ele>164.1</ele>
        <time>2022-05-16T11:20:17Z</time>
      </trkpt>
      <trkpt lat="43.51359" lon="1.49999">
        <ele>164</ele>
        <time>2022-05-16T11:20:18Z</time>
      </trkpt>
      <trkpt lat="43.51355" lon="1.50006">
        <ele>164</ele>
        <time>2022-05-16T11:20:19Z</time>
      </trkpt>
      <trkpt lat="43.51351" lon="1.50012">
        <ele>163.8</ele>
        <time>2022-05-16T11:20:20Z</time>
      </trkpt>
      <trkpt lat="43.51346" lon="1.50018">
        <ele>163.7</ele>
        <time>2022-05-16T11:20:21Z</time>
      </trkpt>
      <trkpt lat="43.5134" lon="1.50022">
        <ele>163.6</ele>
        <time>2022-05-16T11:20:22Z</time>
      </trkpt>
      <trkpt lat="43.51335" lon="1.50027">
        <ele>163.5</ele>
        <time>2022-05-16T11:20:23Z</time>
      </trkpt>
      <trkpt lat="43.51329" lon="1.50032">
        <ele>163.5</ele>
        <time>2022-05-16T11:20:24Z</time>
      </trkpt>
      <trkpt lat="43.51323" lon="1.50036">
        <ele>163.5</ele>
        <time>2022-05-16T11:20:25Z</time>
      </trkpt>
      <trkpt lat="43.51318" lon="1.50041">
        <ele>163.5</ele>
        <time>2022-05-16T11:20:26Z</time>
      </trkpt>
      <trkpt lat="43.51312" lon="1.50046">
        <ele>163.5</ele>
        <time>2022-05-16T11:20:27Z</time>
      </trkpt>
      <trkpt lat="43.51307" lon="1.5005">
        <ele>163.4</ele>
        <time>2022-05-16T11:20:28Z</time>
      </trkpt>
      <trkpt lat="43.51302" lon="1.50055">
        <ele>163.4</ele>
        <time>2022-05-16T11:20:29Z</time>
      </trkpt>
      <trkpt lat="43.51297" lon="1.5006">
        <ele>163.4</ele>
        <time>2022-05-16T11:20:30Z</time>
      </trkpt>
      <trkpt lat="43.51292" lon="1.50065">
        <ele>163.4</ele>
        <time>2022-05-16T11:20:31Z</time>
      </trkpt>
      <trkpt lat="43.51287" lon="1.50069">
        <ele>163.3</ele>
        <time>2022-05-16T11:20:32Z</time>
      </trkpt>
      <trkpt lat="43.51282" lon="1.50074">
        <ele>163.3</ele>
        <time>2022-05-16T11:20:33Z</time>
      </trkpt>
      <trkpt lat="43.51276" lon="1.50079">
        <ele>163.3</ele>
        <time>2022-05-16T11:20:34Z</time>
      </trkpt>
      <trkpt lat="43.51271" lon="1.50084">
        <ele>163.3</ele>
        <time>2022-05-16T11:20:35Z</time>
      </trkpt>
      <trkpt lat="43.51266" lon="1.50088">
        <ele>163.2</ele>
        <time>2022-05-16T11:20:36Z</time>
      </trkpt>
      <trkpt lat="43.5126" lon="1.50093">
        <ele>163.2</ele>
        <time>2022-05-16T11:20:37Z</time>
      </trkpt>
      <trkpt lat="43.51255" lon="1.50099">
        <ele>163.2</ele>
        <time>2022-05-16T11:20:38Z</time>
      </trkpt>
      <trkpt lat="43.51251" lon="1.50104">
        <ele>163.2</ele>
        <time>2022-05-16T11:20:39Z</time>
      </trkpt>
      <trkpt lat="43.51245" lon="1.50109">
        <ele>163.2</ele>
        <time>2022-05-16T11:20:40Z</time>
      </trkpt>
      <trkpt lat="43.5124" lon="1.50114">
        <ele>163.1</ele>
        <time>2022-05-16T11:20:41Z</time>
      </trkpt>
      <trkpt lat="43.51234" lon="1.50119">
        <ele>163.1</ele>
        <time>2022-05-16T11:20:42Z</time>
      </trkpt>
      <trkpt lat="43.51229" lon="1.50124">
        <ele>163.1</ele>
        <time>2022-05-16T11:20:43Z</time>
      </trkpt>
      <trkpt lat="43.51224" lon="1.50129">
        <ele>163.1</ele>
        <time>2022-05-16T11:20:44Z</time>
      </trkpt>
      <trkpt lat="43.51219" lon="1.50134">
        <ele>163.1</ele>
        <time>2022-05-16T11:20:45Z</time>
      </trkpt>
      <trkpt lat="43.51213" lon="1.50139">
        <ele>163</ele>
        <time>2022-05-16T11:20:46Z</time>
      </trkpt>
      <trkpt lat="43.51208" lon="1.50144">
        <ele>163</ele>
        <time>2022-05-16T11:20:47Z</time>
      </trkpt>
      <trkpt lat="43.51203" lon="1.5015">
        <ele>163</ele>
        <time>2022-05-16T11:20:48Z</time>
      </trkpt>
      <trkpt lat="43.51197" lon="1.50155">
        <ele>162.9</ele>
        <time>2022-05-16T11:20:49Z</time>
      </trkpt>
      <trkpt lat="43.51192" lon="1.50161">
        <ele>162.9</ele>
        <time>2022-05-16T11:20:50Z</time>
      </trkpt>
      <trkpt lat="43.51186" lon="1.50166">
        <ele>162.9</ele>
        <time>2022-05-16T11:20:51Z</time>
      </trkpt>
      <trkpt lat="43.51181" lon="1.5017">
        <ele>162.9</ele>
        <time>2022-05-16T11:20:52Z</time>
      </trkpt>
      <trkpt lat="43.51176" lon="1.50175">
        <ele>162.8</ele>
        <time>2022-05-16T11:20:53Z</time>
      </trkpt>
      <trkpt lat="43.5117" lon="1.50181">
        <ele>162.8</ele>
        <time>2022-05-16T11:20:54Z</time>
      </trkpt>
      <trkpt lat="43.51165" lon="1.50186">
        <ele>162.8</ele>
        <time>2022-05-16T11:20:55Z</time>
      </trkpt>
      <trkpt lat="43.51161" lon="1.50191">
        <ele>162.8</ele>
        <time>2022-05-16T11:20:56Z</time>
      </trkpt>
      <trkpt lat="43.51155" lon="1.50196">
        <ele>162.8</ele>
        <time>2022-05-16T11:20:57Z</time>
      </trkpt>
      <trkpt lat="43.5115" lon="1.50202">
        <ele>162.8</ele>
        <time>2022-05-16T11:20:58Z</time>
      </trkpt>
      <trkpt lat="43.51145" lon="1.50207">
        <ele>162.8</ele>
        <time>2022-05-16T11:20:59Z</time>
      </trkpt>
      <trkpt lat="43.5114" lon="1.50212">
        <ele>162.8</ele>
        <time>2022-05-16T11:21:00Z</time>
      </trkpt>
      <trkpt lat="43.51134" lon="1.50217">
        <ele>162.8</ele>
        <time>2022-05-16T11:21:01Z</time>
      </trkpt>
      <trkpt lat="43.51129" lon="1.50222">
        <ele>162.8</ele>
        <time>2022-05-16T11:21:02Z</time>
      </trkpt>
      <trkpt lat="43.51124" lon="1.50227">
        <ele>162.8</ele>
        <time>2022-05-16T11:21:03Z</time>
      </trkpt>
      <trkpt lat="43.51119" lon="1.50233">
        <ele>162.9</ele>
        <time>2022-05-16T11:21:04Z</time>
      </trkpt>
      <trkpt lat="43.51113" lon="1.50238">
        <ele>162.9</ele>
        <time>2022-05-16T11:21:05Z</time>
      </trkpt>
      <trkpt lat="43.51108" lon="1.50243">
        <ele>162.9</ele>
        <time>2022-05-16T11:21:06Z</time>
      </trkpt>
      <trkpt lat="43.51103" lon="1.50248">
        <ele>162.9</ele>
        <time>2022-05-16T11:21:07Z</time>
      </trkpt>
      <trkpt lat="43.51098" lon="1.50254">
        <ele>162.9</ele>
        <time>2022-05-16T11:21:08Z</time>
      </trkpt>
      <trkpt lat="43.51093" lon="1.50259">
        <ele>162.9</ele>
        <time>2022-05-16T11:21:09Z</time>
      </trkpt>
      <trkpt lat="43.51087" lon="1.50264">
        <ele>162.9</ele>
        <time>2022-05-16T11:21:10Z</time>
      </trkpt>
      <trkpt lat="43.51082" lon="1.50268">
        <ele>162.9</ele>
        <time>2022-05-16T11:21:11Z</time>
      </trkpt>
      <trkpt lat="43.51077" lon="1.50273">
        <ele>162.9</ele>
        <time>2022-05-16T11:21:12Z</time>
      </trkpt>
      <trkpt lat="43.51072" lon="1.50279">
        <ele>162.9</ele>
        <time>2022-05-16T11:21:13Z</time>
      </trkpt>
      <trkpt lat="43.51066" lon="1.50283">
        <ele>162.9</ele>
        <time>2022-05-16T11:21:14Z</time>
      </trkpt>
      <trkpt lat="43.51061" lon="1.50289">
        <ele>162.9</ele>
        <time>2022-05-16T11:21:15Z</time>
      </trkpt>
      <trkpt lat="43.51056" lon="1.50293">
        <ele>162.9</ele>
        <time>2022-05-16T11:21:16Z</time>
      </trkpt>
      <trkpt lat="43.51051" lon="1.50298">
        <ele>162.9</ele>
        <time>2022-05-16T11:21:17Z</time>
      </trkpt>
      <trkpt lat="43.51047" lon="1.50303">
        <ele>162.9</ele>
        <time>2022-05-16T11:21:18Z</time>
      </trkpt>
      <trkpt lat="43.51041" lon="1.50308">
        <ele>162.9</ele>
        <time>2022-05-16T11:21:19Z</time>
      </trkpt>
      <trkpt lat="43.51036" lon="1.50314">
        <ele>162.9</ele>
        <time>2022-05-16T11:21:20Z</time>
      </trkpt>
      <trkpt lat="43.51032" lon="1.50319">
        <ele>162.9</ele>
        <time>2022-05-16T11:21:21Z</time>
      </trkpt>
      <trkpt lat="43.51026" lon="1.50325">
        <ele>162.9</ele>
        <time>2022-05-16T11:21:22Z</time>
      </trkpt>
      <trkpt lat="43.51021" lon="1.50331">
        <ele>162.9</ele>
        <time>2022-05-16T11:21:23Z</time>
      </trkpt>
      <trkpt lat="43.51017" lon="1.50335">
        <ele>162.9</ele>
        <time>2022-05-16T11:21:24Z</time>
      </trkpt>
      <trkpt lat="43.51011" lon="1.50341">
        <ele>162.9</ele>
        <time>2022-05-16T11:21:25Z</time>
      </trkpt>
      <trkpt lat="43.51006" lon="1.50346">
        <ele>162.9</ele>
        <time>2022-05-16T11:21:26Z</time>
      </trkpt>
      <trkpt lat="43.51001" lon="1.50352">
        <ele>162.9</ele>
        <time>2022-05-16T11:21:27Z</time>
      </trkpt>
      <trkpt lat="43.50996" lon="1.50357">
        <ele>162.9</ele>
        <time>2022-05-16T11:21:28Z</time>
      </trkpt>
      <trkpt lat="43.50991" lon="1.50363">
        <ele>162.9</ele>
        <time>2022-05-16T11:21:29Z</time>
      </trkpt>
      <trkpt lat="43.50986" lon="1.50368">
        <ele>162.9</ele>
        <time>2022-05-16T11:21:30Z</time>
      </trkpt>
      <trkpt lat="43.50981" lon="1.50373">
        <ele>162.9</ele>
        <time>2022-05-16T11:21:31Z</time>
      </trkpt>
      <trkpt lat="43.50975" lon="1.5038">
        <ele>162.9</ele>
        <time>2022-05-16T11:21:32Z</time>
      </trkpt>
      <trkpt lat="43.50971" lon="1.50385">
        <ele>162.9</ele>
        <time>2022-05-16T11:21:33Z</time>
      </trkpt>
      <trkpt lat="43.50966" lon="1.5039">
        <ele>162.9</ele>
        <time>2022-05-16T11:21:34Z</time>
      </trkpt>
      <trkpt lat="43.50961" lon="1.50396">
        <ele>162.9</ele>
        <time>2022-05-16T11:21:35Z</time>
      </trkpt>
      <trkpt lat="43.50955" lon="1.50402">
        <ele>162.9</ele>
        <time>2022-05-16T11:21:36Z</time>
      </trkpt>
      <trkpt lat="43.50951" lon="1.50407">
        <ele>162.9</ele>
        <time>2022-05-16T11:21:37Z</time>
      </trkpt>
      <trkpt lat="43.50945" lon="1.50412">
        <ele>162.9</ele>
        <time>2022-05-16T11:21:38Z</time>
      </trkpt>
      <trkpt lat="43.5094" lon="1.50417">
        <ele>163</ele>
        <time>2022-05-16T11:21:39Z</time>
      </trkpt>
      <trkpt lat="43.50934" lon="1.50422">
        <ele>163</ele>
        <time>2022-05-16T11:21:40Z</time>
      </trkpt>
      <trkpt lat="43.50929" lon="1.50428">
        <ele>163</ele>
        <time>2022-05-16T11:21:41Z</time>
      </trkpt>
      <trkpt lat="43.50924" lon="1.50434">
        <ele>163</ele>
        <time>2022-05-16T11:21:42Z</time>
      </trkpt>
      <trkpt lat="43.50919" lon="1.5044">
        <ele>163.1</ele>
        <time>2022-05-16T11:21:43Z</time>
      </trkpt>
      <trkpt lat="43.50913" lon="1.50446">
        <ele>163.1</ele>
        <time>2022-05-16T11:21:44Z</time>
      </trkpt>
      <trkpt lat="43.50908" lon="1.50453">
        <ele>163.1</ele>
        <time>2022-05-16T11:21:45Z</time>
      </trkpt>
      <trkpt lat="43.50903" lon="1.50458">
        <ele>163.1</ele>
        <time>2022-05-16T11:21:46Z</time>
      </trkpt>
      <trkpt lat="43.50898" lon="1.50463">
        <ele>163.1</ele>
        <time>2022-05-16T11:21:47Z</time>
      </trkpt>
      <trkpt lat="43.50893" lon="1.50469">
        <ele>163.1</ele>
        <time>2022-05-16T11:21:48Z</time>
      </trkpt>
      <trkpt lat="43.50888" lon="1.50474">
        <ele>163.1</ele>
        <time>2022-05-16T11:21:49Z</time>
      </trkpt>
      <trkpt lat="43.50883" lon="1.5048">
        <ele>163.1</ele>
        <time>2022-05-16T11:21:50Z</time>
      </trkpt>
      <trkpt lat="43.50877" lon="1.50485">
        <ele>163.1</ele>
        <time>2022-05-16T11:21:51Z</time>
      </trkpt>
      <trkpt lat="43.50873" lon="1.5049">
        <ele>163.1</ele>
        <time>2022-05-16T11:21:52Z</time>
      </trkpt>
      <trkpt lat="43.50867" lon="1.50496">
        <ele>163.2</ele>
        <time>2022-05-16T11:21:53Z</time>
      </trkpt>
      <trkpt lat="43.50863" lon="1.50501">
        <ele>163.2</ele>
        <time>2022-05-16T11:21:54Z</time>
      </trkpt>
      <trkpt lat="43.50858" lon="1.50506">
        <ele>163.2</ele>
        <time>2022-05-16T11:21:55Z</time>
      </trkpt>
      <trkpt lat="43.50853" lon="1.50511">
        <ele>163.2</ele>
        <time>2022-05-16T11:21:56Z</time>
      </trkpt>
      <trkpt lat="43.50848" lon="1.50517">
        <ele>163.2</ele>
        <time>2022-05-16T11:21:57Z</time>
      </trkpt>
      <trkpt lat="43.50844" lon="1.50523">
        <ele>163.2</ele>
        <time>2022-05-16T11:21:58Z</time>
      </trkpt>
      <trkpt lat="43.50839" lon="1.50529">
        <ele>163.2</ele>
        <time>2022-05-16T11:21:59Z</time>
      </trkpt>
      <trkpt lat="43.50834" lon="1.50534">
        <ele>163.3</ele>
        <time>2022-05-16T11:22:00Z</time>
      </trkpt>
      <trkpt lat="43.5083" lon="1.5054">
        <ele>163.3</ele>
        <time>2022-05-16T11:22:01Z</time>
      </trkpt>
      <trkpt lat="43.50825" lon="1.50545">
        <ele>163.3</ele>
        <time>2022-05-16T11:22:02Z</time>
      </trkpt>
      <trkpt lat="43.50819" lon="1.5055">
        <ele>163.3</ele>
        <time>2022-05-16T11:22:03Z</time>
      </trkpt>
      <trkpt lat="43.50814" lon="1.50555">
        <ele>163.3</ele>
        <time>2022-05-16T11:22:04Z</time>
      </trkpt>
      <trkpt lat="43.50809" lon="1.5056">
        <ele>163.3</ele>
        <time>2022-05-16T11:22:05Z</time>
      </trkpt>
      <trkpt lat="43.50805" lon="1.50566">
        <ele>163.3</ele>
        <time>2022-05-16T11:22:06Z</time>
      </trkpt>
      <trkpt lat="43.50801" lon="1.50572">
        <ele>163.3</ele>
        <time>2022-05-16T11:22:07Z</time>
      </trkpt>
      <trkpt lat="43.50797" lon="1.50577">
        <ele>163.3</ele>
        <time>2022-05-16T11:22:08Z</time>
      </trkpt>
      <trkpt lat="43.50792" lon="1.50582">
        <ele>163.3</ele>
        <time>2022-05-16T11:22:09Z</time>
      </trkpt>
      <trkpt lat="43.50787" lon="1.50586">
        <ele>163.3</ele>
        <time>2022-05-16T11:22:10Z</time>
      </trkpt>
      <trkpt lat="43.50783" lon="1.50592">
        <ele>163.3</ele>
        <time>2022-05-16T11:22:11Z</time>
      </trkpt>
      <trkpt lat="43.50779" lon="1.50595">
        <ele>163.3</ele>
        <time>2022-05-16T11:22:12Z</time>
      </trkpt>
      <trkpt lat="43.50776" lon="1.506">
        <ele>163.3</ele>
        <time>2022-05-16T11:22:13Z</time>
      </trkpt>
      <trkpt lat="43.50763" lon="1.50606">
        <ele>163.3</ele>
        <time>2022-05-16T11:25:16Z</time>
      </trkpt>
      <trkpt lat="43.50759" lon="1.5061">
        <ele>163.3</ele>
        <time>2022-05-16T11:25:17Z</time>
      </trkpt>
      <trkpt lat="43.50754" lon="1.50615">
        <ele>163.3</ele>
        <time>2022-05-16T11:25:18Z</time>
      </trkpt>
      <trkpt lat="43.5075" lon="1.50621">
        <ele>163.2</ele>
        <time>2022-05-16T11:25:19Z</time>
      </trkpt>
      <trkpt lat="43.50745" lon="1.50626">
        <ele>163.2</ele>
        <time>2022-05-16T11:25:20Z</time>
      </trkpt>
      <trkpt lat="43.5074" lon="1.50632">
        <ele>163.2</ele>
        <time>2022-05-16T11:25:21Z</time>
      </trkpt>
      <trkpt lat="43.50735" lon="1.50636">
        <ele>163.2</ele>
        <time>2022-05-16T11:25:22Z</time>
      </trkpt>
      <trkpt lat="43.5073" lon="1.5064">
        <ele>163.2</ele>
        <time>2022-05-16T11:25:23Z</time>
      </trkpt>
      <trkpt lat="43.50725" lon="1.50645">
        <ele>163.2</ele>
        <time>2022-05-16T11:25:24Z</time>
      </trkpt>
      <trkpt lat="43.50719" lon="1.50647">
        <ele>163.2</ele>
        <time>2022-05-16T11:25:25Z</time>
      </trkpt>
      <trkpt lat="43.50715" lon="1.50653">
        <ele>163.2</ele>
        <time>2022-05-16T11:25:26Z</time>
      </trkpt>
      <trkpt lat="43.5071" lon="1.50658">
        <ele>163.2</ele>
        <time>2022-05-16T11:25:27Z</time>
      </trkpt>
      <trkpt lat="43.50706" lon="1.50663">
        <ele>163.1</ele>
        <time>2022-05-16T11:25:28Z</time>
      </trkpt>
      <trkpt lat="43.50702" lon="1.5067">
        <ele>163.1</ele>
        <time>2022-05-16T11:25:29Z</time>
      </trkpt>
      <trkpt lat="43.50697" lon="1.50675">
        <ele>163.1</ele>
        <time>2022-05-16T11:25:30Z</time>
      </trkpt>
      <trkpt lat="43.50692" lon="1.5068">
        <ele>163.1</ele>
        <time>2022-05-16T11:25:31Z</time>
      </trkpt>
      <trkpt lat="43.50687" lon="1.50685">
        <ele>163.1</ele>
        <time>2022-05-16T11:25:32Z</time>
      </trkpt>
      <trkpt lat="43.50683" lon="1.50691">
        <ele>163</ele>
        <time>2022-05-16T11:25:33Z</time>
      </trkpt>
      <trkpt lat="43.50677" lon="1.50696">
        <ele>163</ele>
        <time>2022-05-16T11:25:34Z</time>
      </trkpt>
      <trkpt lat="43.50672" lon="1.507">
        <ele>163</ele>
        <time>2022-05-16T11:25:35Z</time>
      </trkpt>
      <trkpt lat="43.50667" lon="1.50706">
        <ele>163.1</ele>
        <time>2022-05-16T11:25:36Z</time>
      </trkpt>
      <trkpt lat="43.50663" lon="1.50711">
        <ele>163.1</ele>
        <time>2022-05-16T11:25:37Z</time>
      </trkpt>
      <trkpt lat="43.50658" lon="1.50717">
        <ele>163.1</ele>
        <time>2022-05-16T11:25:38Z</time>
      </trkpt>
      <trkpt lat="43.50653" lon="1.50721">
        <ele>163.1</ele>
        <time>2022-05-16T11:25:39Z</time>
      </trkpt>
      <trkpt lat="43.50648" lon="1.50727">
        <ele>163.1</ele>
        <time>2022-05-16T11:25:40Z</time>
      </trkpt>
      <trkpt lat="43.50644" lon="1.50731">
        <ele>163.1</ele>
        <time>2022-05-16T11:25:41Z</time>
      </trkpt>
      <trkpt lat="43.50639" lon="1.50736">
        <ele>163.1</ele>
        <time>2022-05-16T11:25:42Z</time>
      </trkpt>
      <trkpt lat="43.50634" lon="1.50741">
        <ele>163.1</ele>
        <time>2022-05-16T11:25:43Z</time>
      </trkpt>
      <trkpt lat="43.5063" lon="1.50746">
        <ele>163.1</ele>
        <time>2022-05-16T11:25:44Z</time>
      </trkpt>
      <trkpt lat="43.50625" lon="1.50751">
        <ele>163.1</ele>
        <time>2022-05-16T11:25:45Z</time>
      </trkpt>
      <trkpt lat="43.5062" lon="1.50757">
        <ele>163.1</ele>
        <time>2022-05-16T11:25:46Z</time>
      </trkpt>
      <trkpt lat="43.50615" lon="1.50762">
        <ele>163.1</ele>
        <time>2022-05-16T11:25:47Z</time>
      </trkpt>
      <trkpt lat="43.50611" lon="1.50767">
        <ele>163.1</ele>
        <time>2022-05-16T11:25:48Z</time>
      </trkpt>
      <trkpt lat="43.50606" lon="1.50772">
        <ele>163.1</ele>
        <time>2022-05-16T11:25:49Z</time>
      </trkpt>
      <trkpt lat="43.50601" lon="1.50776">
        <ele>163.1</ele>
        <time>2022-05-16T11:25:50Z</time>
      </trkpt>
      <trkpt lat="43.50596" lon="1.50782">
        <ele>163.1</ele>
        <time>2022-05-16T11:25:51Z</time>
      </trkpt>
      <trkpt lat="43.50591" lon="1.50788">
        <ele>163.1</ele>
        <time>2022-05-16T11:25:52Z</time>
      </trkpt>
      <trkpt lat="43.50587" lon="1.50793">
        <ele>163.1</ele>
        <time>2022-05-16T11:25:53Z</time>
      </trkpt>
      <trkpt lat="43.50581" lon="1.50798">
        <ele>163</ele>
        <time>2022-05-16T11:25:54Z</time>
      </trkpt>
      <trkpt lat="43.50576" lon="1.50803">
        <ele>163</ele>
        <time>2022-05-16T11:25:55Z</time>
      </trkpt>
      <trkpt lat="43.50571" lon="1.5081">
        <ele>163</ele>
        <time>2022-05-16T11:25:56Z</time>
      </trkpt>
      <trkpt lat="43.50567" lon="1.50815">
        <ele>163.1</ele>
        <time>2022-05-16T11:25:57Z</time>
      </trkpt>
      <trkpt lat="43.50562" lon="1.5082">
        <ele>163.1</ele>
        <time>2022-05-16T11:25:58Z</time>
      </trkpt>
      <trkpt lat="43.50558" lon="1.50824">
        <ele>163</ele>
        <time>2022-05-16T11:25:59Z</time>
      </trkpt>
      <trkpt lat="43.50553" lon="1.50831">
        <ele>163</ele>
        <time>2022-05-16T11:26:00Z</time>
      </trkpt>
      <trkpt lat="43.50548" lon="1.50835">
        <ele>163</ele>
        <time>2022-05-16T11:26:01Z</time>
      </trkpt>
      <trkpt lat="43.50543" lon="1.50841">
        <ele>163</ele>
        <time>2022-05-16T11:26:02Z</time>
      </trkpt>
      <trkpt lat="43.50538" lon="1.50846">
        <ele>163</ele>
        <time>2022-05-16T11:26:03Z</time>
      </trkpt>
      <trkpt lat="43.50533" lon="1.50852">
        <ele>163</ele>
        <time>2022-05-16T11:26:04Z</time>
      </trkpt>
      <trkpt lat="43.50528" lon="1.50857">
        <ele>163</ele>
        <time>2022-05-16T11:26:05Z</time>
      </trkpt>
      <trkpt lat="43.50523" lon="1.50863">
        <ele>163</ele>
        <time>2022-05-16T11:26:06Z</time>
      </trkpt>
      <trkpt lat="43.50518" lon="1.50868">
        <ele>163</ele>
        <time>2022-05-16T11:26:07Z</time>
      </trkpt>
      <trkpt lat="43.50513" lon="1.50873">
        <ele>163</ele>
        <time>2022-05-16T11:26:08Z</time>
      </trkpt>
      <trkpt lat="43.50508" lon="1.50879">
        <ele>163</ele>
        <time>2022-05-16T11:26:09Z</time>
      </trkpt>
      <trkpt lat="43.50503" lon="1.50884">
        <ele>163.1</ele>
        <time>2022-05-16T11:26:10Z</time>
      </trkpt>
      <trkpt lat="43.50498" lon="1.50889">
        <ele>163.1</ele>
        <time>2022-05-16T11:26:11Z</time>
      </trkpt>
      <trkpt lat="43.50493" lon="1.50895">
        <ele>163.1</ele>
        <time>2022-05-16T11:26:12Z</time>
      </trkpt>
      <trkpt lat="43.50488" lon="1.509">
        <ele>163.1</ele>
        <time>2022-05-16T11:26:13Z</time>
      </trkpt>
      <trkpt lat="43.50483" lon="1.50906">
        <ele>163.2</ele>
        <time>2022-05-16T11:26:14Z</time>
      </trkpt>
      <trkpt lat="43.50478" lon="1.50911">
        <ele>163.2</ele>
        <time>2022-05-16T11:26:15Z</time>
      </trkpt>
      <trkpt lat="43.50473" lon="1.50916">
        <ele>163.2</ele>
        <time>2022-05-16T11:26:16Z</time>
      </trkpt>
      <trkpt lat="43.50468" lon="1.50922">
        <ele>163.2</ele>
        <time>2022-05-16T11:26:17Z</time>
      </trkpt>
      <trkpt lat="43.50463" lon="1.50927">
        <ele>163.2</ele>
        <time>2022-05-16T11:26:18Z</time>
      </trkpt>
      <trkpt lat="43.50457" lon="1.50932">
        <ele>163.2</ele>
        <time>2022-05-16T11:26:19Z</time>
      </trkpt>
      <trkpt lat="43.50453" lon="1.50937">
        <ele>163.2</ele>
        <time>2022-05-16T11:26:20Z</time>
      </trkpt>
      <trkpt lat="43.50448" lon="1.50943">
        <ele>163.2</ele>
        <time>2022-05-16T11:26:21Z</time>
      </trkpt>
      <trkpt lat="43.50443" lon="1.50948">
        <ele>163.3</ele>
        <time>2022-05-16T11:26:22Z</time>
      </trkpt>
      <trkpt lat="43.50437" lon="1.50954">
        <ele>163.3</ele>
        <time>2022-05-16T11:26:23Z</time>
      </trkpt>
      <trkpt lat="43.50432" lon="1.5096">
        <ele>163.3</ele>
        <time>2022-05-16T11:26:24Z</time>
      </trkpt>
      <trkpt lat="43.50427" lon="1.50965">
        <ele>163.4</ele>
        <time>2022-05-16T11:26:25Z</time>
      </trkpt>
      <trkpt lat="43.50422" lon="1.5097">
        <ele>163.4</ele>
        <time>2022-05-16T11:26:26Z</time>
      </trkpt>
      <trkpt lat="43.50417" lon="1.50976">
        <ele>163.5</ele>
        <time>2022-05-16T11:26:27Z</time>
      </trkpt>
      <trkpt lat="43.50412" lon="1.50981">
        <ele>163.6</ele>
        <time>2022-05-16T11:26:28Z</time>
      </trkpt>
      <trkpt lat="43.50407" lon="1.50986">
        <ele>163.6</ele>
        <time>2022-05-16T11:26:29Z</time>
      </trkpt>
      <trkpt lat="43.50402" lon="1.50992">
        <ele>163.7</ele>
        <time>2022-05-16T11:26:30Z</time>
      </trkpt>
      <trkpt lat="43.50397" lon="1.50997">
        <ele>163.8</ele>
        <time>2022-05-16T11:26:31Z</time>
      </trkpt>
      <trkpt lat="43.50392" lon="1.51001">
        <ele>163.8</ele>
        <time>2022-05-16T11:26:32Z</time>
      </trkpt>
      <trkpt lat="43.50388" lon="1.51006">
        <ele>163.8</ele>
        <time>2022-05-16T11:26:33Z</time>
      </trkpt>
      <trkpt lat="43.50384" lon="1.51013">
        <ele>163.9</ele>
        <time>2022-05-16T11:26:34Z</time>
      </trkpt>
      <trkpt lat="43.50379" lon="1.51019">
        <ele>164</ele>
        <time>2022-05-16T11:26:35Z</time>
      </trkpt>
      <trkpt lat="43.50374" lon="1.51024">
        <ele>164.1</ele>
        <time>2022-05-16T11:26:36Z</time>
      </trkpt>
      <trkpt lat="43.5037" lon="1.5103">
        <ele>164.1</ele>
        <time>2022-05-16T11:26:37Z</time>
      </trkpt>
      <trkpt lat="43.50365" lon="1.51036">
        <ele>164.2</ele>
        <time>2022-05-16T11:26:38Z</time>
      </trkpt>
      <trkpt lat="43.5036" lon="1.5104">
        <ele>164.2</ele>
        <time>2022-05-16T11:26:39Z</time>
      </trkpt>
      <trkpt lat="43.50356" lon="1.51046">
        <ele>164.3</ele>
        <time>2022-05-16T11:26:40Z</time>
      </trkpt>
      <trkpt lat="43.50351" lon="1.51052">
        <ele>164.2</ele>
        <time>2022-05-16T11:26:41Z</time>
      </trkpt>
      <trkpt lat="43.50347" lon="1.51058">
        <ele>164.2</ele>
        <time>2022-05-16T11:26:42Z</time>
      </trkpt>
      <trkpt lat="43.50342" lon="1.51063">
        <ele>164.1</ele>
        <time>2022-05-16T11:26:43Z</time>
      </trkpt>
      <trkpt lat="43.50337" lon="1.51069">
        <ele>164</ele>
        <time>2022-05-16T11:26:44Z</time>
      </trkpt>
      <trkpt lat="43.50333" lon="1.51074">
        <ele>163.9</ele>
        <time>2022-05-16T11:26:45Z</time>
      </trkpt>
      <trkpt lat="43.50328" lon="1.51079">
        <ele>163.8</ele>
        <time>2022-05-16T11:26:46Z</time>
      </trkpt>
      <trkpt lat="43.50324" lon="1.51085">
        <ele>163.7</ele>
        <time>2022-05-16T11:26:47Z</time>
      </trkpt>
      <trkpt lat="43.5032" lon="1.5109">
        <ele>163.7</ele>
        <time>2022-05-16T11:26:48Z</time>
      </trkpt>
      <trkpt lat="43.50315" lon="1.51095">
        <ele>163.7</ele>
        <time>2022-05-16T11:26:49Z</time>
      </trkpt>
      <trkpt lat="43.5031" lon="1.511">
        <ele>163.6</ele>
        <time>2022-05-16T11:26:50Z</time>
      </trkpt>
      <trkpt lat="43.50306" lon="1.51105">
        <ele>163.6</ele>
        <time>2022-05-16T11:26:51Z</time>
      </trkpt>
      <trkpt lat="43.50302" lon="1.51109">
        <ele>163.5</ele>
        <time>2022-05-16T11:26:52Z</time>
      </trkpt>
      <trkpt lat="43.50325" lon="1.51144">
        <ele>159.1</ele>
        <time>2022-05-16T11:26:53Z</time>
      </trkpt>
    </trkseg>
  </trk>
</gpx>